<?xml version="1.0" encoding="UTF-8" standalone="no" ?>
<gpx xmlns="http://www.topografix.com/GPX/1/1" xmlns:xsi="http://www.w3.org/2001/XMLSchema-instance" xsi:schemaLocation="http://www.topografix.com/GPX/1/1 http://www.topografix.com/GPX/1/1/gpx.xsd" version="1.1" creator="VisuGPX - https://www.visugpx.com">
  <metadata>
    <name>Ballade au Barrage de Malpasset</name>
    <desc><![CDATA[Célèbre site de l'accident du barrage de Malpasset]]></desc>
  </metadata>
  <trk>
    <name><![CDATA[Track 001]]></name>
    <trkseg>
      <trkpt lat="43.5518" lon="6.78186">
        <ele>93.9</ele>
        <time>2019-12-10T10:03:25Z</time>
      </trkpt>
      <trkpt lat="43.55179" lon="6.78184">
        <ele>93.4</ele>
        <time>2019-12-10T10:03:29Z</time>
      </trkpt>
      <trkpt lat="43.55179" lon="6.78184">
        <ele>93.4</ele>
        <time>2019-12-10T10:03:33Z</time>
      </trkpt>
      <trkpt lat="43.5518" lon="6.78185">
        <ele>92.9</ele>
        <time>2019-12-10T10:03:37Z</time>
      </trkpt>
      <trkpt lat="43.5518" lon="6.78183">
        <ele>92.9</ele>
        <time>2019-12-10T10:03:41Z</time>
      </trkpt>
      <trkpt lat="43.55179" lon="6.78182">
        <ele>93.4</ele>
        <time>2019-12-10T10:03:43Z</time>
      </trkpt>
      <trkpt lat="43.55179" lon="6.7818">
        <ele>93.9</ele>
        <time>2019-12-10T10:03:45Z</time>
      </trkpt>
      <trkpt lat="43.55179" lon="6.7818">
        <ele>94.3</ele>
        <time>2019-12-10T10:03:47Z</time>
      </trkpt>
      <trkpt lat="43.55178" lon="6.78179">
        <ele>94.8</ele>
        <time>2019-12-10T10:03:49Z</time>
      </trkpt>
      <trkpt lat="43.55178" lon="6.78177">
        <ele>95.3</ele>
        <time>2019-12-10T10:03:51Z</time>
      </trkpt>
      <trkpt lat="43.55179" lon="6.78174">
        <ele>95.8</ele>
        <time>2019-12-10T10:03:53Z</time>
      </trkpt>
      <trkpt lat="43.55181" lon="6.7817">
        <ele>96.3</ele>
        <time>2019-12-10T10:03:55Z</time>
      </trkpt>
      <trkpt lat="43.55177" lon="6.78156">
        <ele>100.1</ele>
        <time>2019-12-10T10:03:57Z</time>
      </trkpt>
      <trkpt lat="43.55176" lon="6.78151">
        <ele>101.6</ele>
        <time>2019-12-10T10:03:59Z</time>
      </trkpt>
      <trkpt lat="43.55177" lon="6.78146">
        <ele>102</ele>
        <time>2019-12-10T10:04:01Z</time>
      </trkpt>
      <trkpt lat="43.55178" lon="6.78142">
        <ele>103</ele>
        <time>2019-12-10T10:04:03Z</time>
      </trkpt>
      <trkpt lat="43.55179" lon="6.78137">
        <ele>104</ele>
        <time>2019-12-10T10:04:05Z</time>
      </trkpt>
      <trkpt lat="43.55181" lon="6.78133">
        <ele>104.4</ele>
        <time>2019-12-10T10:04:07Z</time>
      </trkpt>
      <trkpt lat="43.55184" lon="6.78129">
        <ele>104.4</ele>
        <time>2019-12-10T10:04:09Z</time>
      </trkpt>
      <trkpt lat="43.55186" lon="6.78124">
        <ele>105.4</ele>
        <time>2019-12-10T10:04:11Z</time>
      </trkpt>
      <trkpt lat="43.55187" lon="6.78119">
        <ele>105.9</ele>
        <time>2019-12-10T10:04:13Z</time>
      </trkpt>
      <trkpt lat="43.55188" lon="6.78114">
        <ele>106.8</ele>
        <time>2019-12-10T10:04:15Z</time>
      </trkpt>
      <trkpt lat="43.55189" lon="6.78109">
        <ele>107.3</ele>
        <time>2019-12-10T10:04:17Z</time>
      </trkpt>
      <trkpt lat="43.55189" lon="6.78103">
        <ele>107.8</ele>
        <time>2019-12-10T10:04:19Z</time>
      </trkpt>
      <trkpt lat="43.55189" lon="6.78096">
        <ele>108.3</ele>
        <time>2019-12-10T10:04:21Z</time>
      </trkpt>
      <trkpt lat="43.55189" lon="6.7809">
        <ele>108.8</ele>
        <time>2019-12-10T10:04:23Z</time>
      </trkpt>
      <trkpt lat="43.5519" lon="6.78084">
        <ele>109.7</ele>
        <time>2019-12-10T10:04:25Z</time>
      </trkpt>
      <trkpt lat="43.55189" lon="6.78077">
        <ele>110.2</ele>
        <time>2019-12-10T10:04:27Z</time>
      </trkpt>
      <trkpt lat="43.55187" lon="6.7807">
        <ele>110.7</ele>
        <time>2019-12-10T10:04:29Z</time>
      </trkpt>
      <trkpt lat="43.55187" lon="6.78064">
        <ele>111.2</ele>
        <time>2019-12-10T10:04:31Z</time>
      </trkpt>
      <trkpt lat="43.55186" lon="6.78058">
        <ele>111.7</ele>
        <time>2019-12-10T10:04:33Z</time>
      </trkpt>
      <trkpt lat="43.55187" lon="6.78053">
        <ele>112.1</ele>
        <time>2019-12-10T10:04:35Z</time>
      </trkpt>
      <trkpt lat="43.55187" lon="6.78047">
        <ele>112.6</ele>
        <time>2019-12-10T10:04:37Z</time>
      </trkpt>
      <trkpt lat="43.55186" lon="6.78042">
        <ele>113.6</ele>
        <time>2019-12-10T10:04:39Z</time>
      </trkpt>
      <trkpt lat="43.55188" lon="6.78036">
        <ele>114.1</ele>
        <time>2019-12-10T10:04:41Z</time>
      </trkpt>
      <trkpt lat="43.55191" lon="6.78031">
        <ele>114.1</ele>
        <time>2019-12-10T10:04:43Z</time>
      </trkpt>
      <trkpt lat="43.55193" lon="6.78026">
        <ele>114.5</ele>
        <time>2019-12-10T10:04:45Z</time>
      </trkpt>
      <trkpt lat="43.55195" lon="6.78022">
        <ele>115</ele>
        <time>2019-12-10T10:04:47Z</time>
      </trkpt>
      <trkpt lat="43.55197" lon="6.78018">
        <ele>115</ele>
        <time>2019-12-10T10:04:49Z</time>
      </trkpt>
      <trkpt lat="43.55199" lon="6.78014">
        <ele>115.5</ele>
        <time>2019-12-10T10:04:51Z</time>
      </trkpt>
      <trkpt lat="43.55202" lon="6.7801">
        <ele>116</ele>
        <time>2019-12-10T10:04:53Z</time>
      </trkpt>
      <trkpt lat="43.55204" lon="6.78006">
        <ele>116</ele>
        <time>2019-12-10T10:04:55Z</time>
      </trkpt>
      <trkpt lat="43.55206" lon="6.78001">
        <ele>116.5</ele>
        <time>2019-12-10T10:04:57Z</time>
      </trkpt>
      <trkpt lat="43.55208" lon="6.77997">
        <ele>116.5</ele>
        <time>2019-12-10T10:04:59Z</time>
      </trkpt>
      <trkpt lat="43.5521" lon="6.77993">
        <ele>116.9</ele>
        <time>2019-12-10T10:05:01Z</time>
      </trkpt>
      <trkpt lat="43.55212" lon="6.77989">
        <ele>116.9</ele>
        <time>2019-12-10T10:05:03Z</time>
      </trkpt>
      <trkpt lat="43.55215" lon="6.77985">
        <ele>117.4</ele>
        <time>2019-12-10T10:05:05Z</time>
      </trkpt>
      <trkpt lat="43.55218" lon="6.77981">
        <ele>117.4</ele>
        <time>2019-12-10T10:05:07Z</time>
      </trkpt>
      <trkpt lat="43.5522" lon="6.77977">
        <ele>117.4</ele>
        <time>2019-12-10T10:05:09Z</time>
      </trkpt>
      <trkpt lat="43.55223" lon="6.77973">
        <ele>117.9</ele>
        <time>2019-12-10T10:05:11Z</time>
      </trkpt>
      <trkpt lat="43.55225" lon="6.77969">
        <ele>118.4</ele>
        <time>2019-12-10T10:05:13Z</time>
      </trkpt>
      <trkpt lat="43.55227" lon="6.77965">
        <ele>118.4</ele>
        <time>2019-12-10T10:05:15Z</time>
      </trkpt>
      <trkpt lat="43.5523" lon="6.77962">
        <ele>118.4</ele>
        <time>2019-12-10T10:05:17Z</time>
      </trkpt>
      <trkpt lat="43.55234" lon="6.7796">
        <ele>118.9</ele>
        <time>2019-12-10T10:05:19Z</time>
      </trkpt>
      <trkpt lat="43.55237" lon="6.77958">
        <ele>118.9</ele>
        <time>2019-12-10T10:05:21Z</time>
      </trkpt>
      <trkpt lat="43.55239" lon="6.77954">
        <ele>118.9</ele>
        <time>2019-12-10T10:05:23Z</time>
      </trkpt>
      <trkpt lat="43.55242" lon="6.7795">
        <ele>118.9</ele>
        <time>2019-12-10T10:05:25Z</time>
      </trkpt>
      <trkpt lat="43.55245" lon="6.77946">
        <ele>118.9</ele>
        <time>2019-12-10T10:05:27Z</time>
      </trkpt>
      <trkpt lat="43.55247" lon="6.77941">
        <ele>118.9</ele>
        <time>2019-12-10T10:05:29Z</time>
      </trkpt>
      <trkpt lat="43.5525" lon="6.77937">
        <ele>118.9</ele>
        <time>2019-12-10T10:05:31Z</time>
      </trkpt>
      <trkpt lat="43.55252" lon="6.77932">
        <ele>118.9</ele>
        <time>2019-12-10T10:05:33Z</time>
      </trkpt>
      <trkpt lat="43.55254" lon="6.77927">
        <ele>119.3</ele>
        <time>2019-12-10T10:05:35Z</time>
      </trkpt>
      <trkpt lat="43.55255" lon="6.77922">
        <ele>119.3</ele>
        <time>2019-12-10T10:05:37Z</time>
      </trkpt>
      <trkpt lat="43.55256" lon="6.77917">
        <ele>119.3</ele>
        <time>2019-12-10T10:05:39Z</time>
      </trkpt>
      <trkpt lat="43.55256" lon="6.77911">
        <ele>119.3</ele>
        <time>2019-12-10T10:05:41Z</time>
      </trkpt>
      <trkpt lat="43.55256" lon="6.77905">
        <ele>119.8</ele>
        <time>2019-12-10T10:05:43Z</time>
      </trkpt>
      <trkpt lat="43.55256" lon="6.77899">
        <ele>119.8</ele>
        <time>2019-12-10T10:05:45Z</time>
      </trkpt>
      <trkpt lat="43.55257" lon="6.77893">
        <ele>120.3</ele>
        <time>2019-12-10T10:05:47Z</time>
      </trkpt>
      <trkpt lat="43.55257" lon="6.77887">
        <ele>120.3</ele>
        <time>2019-12-10T10:05:49Z</time>
      </trkpt>
      <trkpt lat="43.55258" lon="6.77881">
        <ele>120.8</ele>
        <time>2019-12-10T10:05:51Z</time>
      </trkpt>
      <trkpt lat="43.55258" lon="6.77876">
        <ele>120.8</ele>
        <time>2019-12-10T10:05:53Z</time>
      </trkpt>
      <trkpt lat="43.55259" lon="6.7787">
        <ele>120.8</ele>
        <time>2019-12-10T10:05:55Z</time>
      </trkpt>
      <trkpt lat="43.55259" lon="6.77864">
        <ele>121.3</ele>
        <time>2019-12-10T10:05:57Z</time>
      </trkpt>
      <trkpt lat="43.55259" lon="6.77858">
        <ele>121.3</ele>
        <time>2019-12-10T10:05:59Z</time>
      </trkpt>
      <trkpt lat="43.5526" lon="6.77852">
        <ele>121.3</ele>
        <time>2019-12-10T10:06:01Z</time>
      </trkpt>
      <trkpt lat="43.5526" lon="6.77846">
        <ele>121.3</ele>
        <time>2019-12-10T10:06:03Z</time>
      </trkpt>
      <trkpt lat="43.5526" lon="6.77841">
        <ele>121.7</ele>
        <time>2019-12-10T10:06:05Z</time>
      </trkpt>
      <trkpt lat="43.55261" lon="6.77835">
        <ele>121.7</ele>
        <time>2019-12-10T10:06:07Z</time>
      </trkpt>
      <trkpt lat="43.55262" lon="6.77829">
        <ele>121.7</ele>
        <time>2019-12-10T10:06:09Z</time>
      </trkpt>
      <trkpt lat="43.55262" lon="6.77823">
        <ele>122.2</ele>
        <time>2019-12-10T10:06:11Z</time>
      </trkpt>
      <trkpt lat="43.55264" lon="6.77817">
        <ele>122.2</ele>
        <time>2019-12-10T10:06:13Z</time>
      </trkpt>
      <trkpt lat="43.55265" lon="6.77812">
        <ele>122.2</ele>
        <time>2019-12-10T10:06:15Z</time>
      </trkpt>
      <trkpt lat="43.55267" lon="6.77806">
        <ele>122.7</ele>
        <time>2019-12-10T10:06:17Z</time>
      </trkpt>
      <trkpt lat="43.55268" lon="6.77801">
        <ele>122.7</ele>
        <time>2019-12-10T10:06:19Z</time>
      </trkpt>
      <trkpt lat="43.5527" lon="6.77795">
        <ele>122.7</ele>
        <time>2019-12-10T10:06:21Z</time>
      </trkpt>
      <trkpt lat="43.55272" lon="6.7779">
        <ele>123.2</ele>
        <time>2019-12-10T10:06:23Z</time>
      </trkpt>
      <trkpt lat="43.55274" lon="6.77785">
        <ele>123.7</ele>
        <time>2019-12-10T10:06:25Z</time>
      </trkpt>
      <trkpt lat="43.55276" lon="6.7778">
        <ele>123.7</ele>
        <time>2019-12-10T10:06:27Z</time>
      </trkpt>
      <trkpt lat="43.55278" lon="6.77776">
        <ele>124.1</ele>
        <time>2019-12-10T10:06:29Z</time>
      </trkpt>
      <trkpt lat="43.5528" lon="6.77771">
        <ele>124.6</ele>
        <time>2019-12-10T10:06:31Z</time>
      </trkpt>
      <trkpt lat="43.55281" lon="6.77769">
        <ele>124.6</ele>
        <time>2019-12-10T10:06:33Z</time>
      </trkpt>
      <trkpt lat="43.55284" lon="6.77766">
        <ele>125.1</ele>
        <time>2019-12-10T10:06:35Z</time>
      </trkpt>
      <trkpt lat="43.55284" lon="6.77762">
        <ele>125.1</ele>
        <time>2019-12-10T10:06:37Z</time>
      </trkpt>
      <trkpt lat="43.55284" lon="6.77756">
        <ele>125.1</ele>
        <time>2019-12-10T10:06:39Z</time>
      </trkpt>
      <trkpt lat="43.55285" lon="6.7775">
        <ele>125.1</ele>
        <time>2019-12-10T10:06:41Z</time>
      </trkpt>
      <trkpt lat="43.55287" lon="6.77744">
        <ele>125.1</ele>
        <time>2019-12-10T10:06:43Z</time>
      </trkpt>
      <trkpt lat="43.5529" lon="6.77739">
        <ele>125.1</ele>
        <time>2019-12-10T10:06:45Z</time>
      </trkpt>
      <trkpt lat="43.55294" lon="6.77734">
        <ele>124.6</ele>
        <time>2019-12-10T10:06:47Z</time>
      </trkpt>
      <trkpt lat="43.55298" lon="6.7773">
        <ele>124.6</ele>
        <time>2019-12-10T10:06:49Z</time>
      </trkpt>
      <trkpt lat="43.55302" lon="6.77727">
        <ele>124.6</ele>
        <time>2019-12-10T10:06:51Z</time>
      </trkpt>
      <trkpt lat="43.55307" lon="6.77725">
        <ele>124.1</ele>
        <time>2019-12-10T10:06:53Z</time>
      </trkpt>
      <trkpt lat="43.55312" lon="6.77722">
        <ele>124.1</ele>
        <time>2019-12-10T10:06:55Z</time>
      </trkpt>
      <trkpt lat="43.55319" lon="6.77722">
        <ele>123.7</ele>
        <time>2019-12-10T10:06:57Z</time>
      </trkpt>
      <trkpt lat="43.55325" lon="6.77723">
        <ele>123.2</ele>
        <time>2019-12-10T10:06:59Z</time>
      </trkpt>
      <trkpt lat="43.5533" lon="6.77726">
        <ele>123.2</ele>
        <time>2019-12-10T10:07:01Z</time>
      </trkpt>
      <trkpt lat="43.55333" lon="6.77728">
        <ele>122.7</ele>
        <time>2019-12-10T10:07:03Z</time>
      </trkpt>
      <trkpt lat="43.55333" lon="6.77729">
        <ele>123.2</ele>
        <time>2019-12-10T10:07:05Z</time>
      </trkpt>
      <trkpt lat="43.55333" lon="6.77729">
        <ele>123.2</ele>
        <time>2019-12-10T10:07:07Z</time>
      </trkpt>
      <trkpt lat="43.55333" lon="6.77729">
        <ele>123.2</ele>
        <time>2019-12-10T10:07:09Z</time>
      </trkpt>
      <trkpt lat="43.55333" lon="6.77729">
        <ele>123.2</ele>
        <time>2019-12-10T10:07:11Z</time>
      </trkpt>
      <trkpt lat="43.55333" lon="6.77729">
        <ele>123.2</ele>
        <time>2019-12-10T10:07:13Z</time>
      </trkpt>
      <trkpt lat="43.55333" lon="6.77729">
        <ele>123.2</ele>
        <time>2019-12-10T10:07:15Z</time>
      </trkpt>
      <trkpt lat="43.55333" lon="6.77729">
        <ele>123.2</ele>
        <time>2019-12-10T10:07:17Z</time>
      </trkpt>
      <trkpt lat="43.55333" lon="6.77729">
        <ele>123.2</ele>
        <time>2019-12-10T10:07:19Z</time>
      </trkpt>
      <trkpt lat="43.55333" lon="6.77728">
        <ele>123.2</ele>
        <time>2019-12-10T10:07:21Z</time>
      </trkpt>
      <trkpt lat="43.55333" lon="6.77728">
        <ele>123.2</ele>
        <time>2019-12-10T10:07:23Z</time>
      </trkpt>
      <trkpt lat="43.55333" lon="6.77728">
        <ele>123.2</ele>
        <time>2019-12-10T10:07:25Z</time>
      </trkpt>
      <trkpt lat="43.55333" lon="6.77728">
        <ele>123.2</ele>
        <time>2019-12-10T10:07:27Z</time>
      </trkpt>
      <trkpt lat="43.55333" lon="6.77728">
        <ele>123.2</ele>
        <time>2019-12-10T10:07:29Z</time>
      </trkpt>
      <trkpt lat="43.55333" lon="6.77728">
        <ele>123.2</ele>
        <time>2019-12-10T10:07:31Z</time>
      </trkpt>
      <trkpt lat="43.55333" lon="6.77728">
        <ele>123.2</ele>
        <time>2019-12-10T10:07:33Z</time>
      </trkpt>
      <trkpt lat="43.55333" lon="6.77728">
        <ele>123.2</ele>
        <time>2019-12-10T10:07:35Z</time>
      </trkpt>
      <trkpt lat="43.55333" lon="6.77728">
        <ele>123.2</ele>
        <time>2019-12-10T10:07:37Z</time>
      </trkpt>
      <trkpt lat="43.55333" lon="6.77728">
        <ele>123.2</ele>
        <time>2019-12-10T10:07:39Z</time>
      </trkpt>
      <trkpt lat="43.55333" lon="6.77728">
        <ele>123.2</ele>
        <time>2019-12-10T10:07:41Z</time>
      </trkpt>
      <trkpt lat="43.55333" lon="6.77728">
        <ele>123.2</ele>
        <time>2019-12-10T10:07:43Z</time>
      </trkpt>
      <trkpt lat="43.55333" lon="6.77728">
        <ele>123.2</ele>
        <time>2019-12-10T10:07:45Z</time>
      </trkpt>
      <trkpt lat="43.55333" lon="6.77728">
        <ele>123.2</ele>
        <time>2019-12-10T10:07:47Z</time>
      </trkpt>
      <trkpt lat="43.55333" lon="6.77728">
        <ele>123.2</ele>
        <time>2019-12-10T10:07:49Z</time>
      </trkpt>
      <trkpt lat="43.55333" lon="6.77728">
        <ele>123.2</ele>
        <time>2019-12-10T10:07:51Z</time>
      </trkpt>
      <trkpt lat="43.55333" lon="6.77728">
        <ele>123.2</ele>
        <time>2019-12-10T10:07:53Z</time>
      </trkpt>
      <trkpt lat="43.55333" lon="6.77728">
        <ele>123.2</ele>
        <time>2019-12-10T10:07:55Z</time>
      </trkpt>
      <trkpt lat="43.55333" lon="6.77728">
        <ele>123.2</ele>
        <time>2019-12-10T10:07:57Z</time>
      </trkpt>
      <trkpt lat="43.55333" lon="6.77728">
        <ele>123.2</ele>
        <time>2019-12-10T10:07:59Z</time>
      </trkpt>
      <trkpt lat="43.55333" lon="6.77728">
        <ele>123.2</ele>
        <time>2019-12-10T10:08:01Z</time>
      </trkpt>
      <trkpt lat="43.55333" lon="6.77728">
        <ele>123.2</ele>
        <time>2019-12-10T10:08:03Z</time>
      </trkpt>
      <trkpt lat="43.55333" lon="6.77728">
        <ele>123.2</ele>
        <time>2019-12-10T10:08:05Z</time>
      </trkpt>
      <trkpt lat="43.55333" lon="6.77728">
        <ele>123.2</ele>
        <time>2019-12-10T10:08:07Z</time>
      </trkpt>
      <trkpt lat="43.55333" lon="6.77728">
        <ele>123.2</ele>
        <time>2019-12-10T10:08:09Z</time>
      </trkpt>
      <trkpt lat="43.55333" lon="6.77728">
        <ele>123.2</ele>
        <time>2019-12-10T10:08:11Z</time>
      </trkpt>
      <trkpt lat="43.55333" lon="6.77728">
        <ele>123.2</ele>
        <time>2019-12-10T10:08:13Z</time>
      </trkpt>
      <trkpt lat="43.55335" lon="6.77729">
        <ele>123.2</ele>
        <time>2019-12-10T10:08:15Z</time>
      </trkpt>
      <trkpt lat="43.5534" lon="6.77732">
        <ele>123.2</ele>
        <time>2019-12-10T10:08:17Z</time>
      </trkpt>
      <trkpt lat="43.55346" lon="6.77736">
        <ele>123.2</ele>
        <time>2019-12-10T10:08:19Z</time>
      </trkpt>
      <trkpt lat="43.55353" lon="6.7774">
        <ele>122.7</ele>
        <time>2019-12-10T10:08:21Z</time>
      </trkpt>
      <trkpt lat="43.5536" lon="6.77746">
        <ele>122.7</ele>
        <time>2019-12-10T10:08:23Z</time>
      </trkpt>
      <trkpt lat="43.55368" lon="6.77751">
        <ele>121.7</ele>
        <time>2019-12-10T10:08:25Z</time>
      </trkpt>
      <trkpt lat="43.55376" lon="6.77755">
        <ele>121.3</ele>
        <time>2019-12-10T10:08:27Z</time>
      </trkpt>
      <trkpt lat="43.55382" lon="6.77756">
        <ele>120.8</ele>
        <time>2019-12-10T10:08:29Z</time>
      </trkpt>
      <trkpt lat="43.55391" lon="6.77756">
        <ele>120.3</ele>
        <time>2019-12-10T10:08:31Z</time>
      </trkpt>
      <trkpt lat="43.554" lon="6.77754">
        <ele>119.3</ele>
        <time>2019-12-10T10:08:33Z</time>
      </trkpt>
      <trkpt lat="43.55407" lon="6.77754">
        <ele>118.9</ele>
        <time>2019-12-10T10:08:35Z</time>
      </trkpt>
      <trkpt lat="43.55413" lon="6.77755">
        <ele>117.9</ele>
        <time>2019-12-10T10:08:37Z</time>
      </trkpt>
      <trkpt lat="43.55418" lon="6.77756">
        <ele>117.9</ele>
        <time>2019-12-10T10:08:39Z</time>
      </trkpt>
      <trkpt lat="43.55423" lon="6.77758">
        <ele>117.9</ele>
        <time>2019-12-10T10:08:41Z</time>
      </trkpt>
      <trkpt lat="43.55429" lon="6.77761">
        <ele>117.4</ele>
        <time>2019-12-10T10:08:43Z</time>
      </trkpt>
      <trkpt lat="43.55433" lon="6.77766">
        <ele>117.4</ele>
        <time>2019-12-10T10:08:45Z</time>
      </trkpt>
      <trkpt lat="43.55439" lon="6.77769">
        <ele>117.4</ele>
        <time>2019-12-10T10:08:47Z</time>
      </trkpt>
      <trkpt lat="43.55448" lon="6.77773">
        <ele>116.5</ele>
        <time>2019-12-10T10:08:49Z</time>
      </trkpt>
      <trkpt lat="43.55457" lon="6.77777">
        <ele>116</ele>
        <time>2019-12-10T10:08:51Z</time>
      </trkpt>
      <trkpt lat="43.55466" lon="6.77781">
        <ele>115.5</ele>
        <time>2019-12-10T10:08:53Z</time>
      </trkpt>
      <trkpt lat="43.55477" lon="6.77785">
        <ele>115.5</ele>
        <time>2019-12-10T10:08:55Z</time>
      </trkpt>
      <trkpt lat="43.55487" lon="6.77789">
        <ele>114.5</ele>
        <time>2019-12-10T10:08:57Z</time>
      </trkpt>
      <trkpt lat="43.55498" lon="6.77789">
        <ele>113.6</ele>
        <time>2019-12-10T10:08:59Z</time>
      </trkpt>
      <trkpt lat="43.55509" lon="6.77784">
        <ele>112.6</ele>
        <time>2019-12-10T10:09:01Z</time>
      </trkpt>
      <trkpt lat="43.55517" lon="6.77775">
        <ele>110.7</ele>
        <time>2019-12-10T10:09:03Z</time>
      </trkpt>
      <trkpt lat="43.5552" lon="6.77763">
        <ele>109.7</ele>
        <time>2019-12-10T10:09:05Z</time>
      </trkpt>
      <trkpt lat="43.5552" lon="6.7775">
        <ele>110.2</ele>
        <time>2019-12-10T10:09:07Z</time>
      </trkpt>
      <trkpt lat="43.55518" lon="6.77738">
        <ele>110.7</ele>
        <time>2019-12-10T10:09:09Z</time>
      </trkpt>
      <trkpt lat="43.55516" lon="6.77727">
        <ele>110.7</ele>
        <time>2019-12-10T10:09:11Z</time>
      </trkpt>
      <trkpt lat="43.55515" lon="6.77718">
        <ele>110.7</ele>
        <time>2019-12-10T10:09:13Z</time>
      </trkpt>
      <trkpt lat="43.55511" lon="6.77709">
        <ele>111.2</ele>
        <time>2019-12-10T10:09:15Z</time>
      </trkpt>
      <trkpt lat="43.55507" lon="6.77702">
        <ele>111.2</ele>
        <time>2019-12-10T10:09:17Z</time>
      </trkpt>
      <trkpt lat="43.55503" lon="6.77696">
        <ele>111.2</ele>
        <time>2019-12-10T10:09:19Z</time>
      </trkpt>
      <trkpt lat="43.55497" lon="6.7769">
        <ele>111.2</ele>
        <time>2019-12-10T10:09:21Z</time>
      </trkpt>
      <trkpt lat="43.55491" lon="6.77686">
        <ele>111.2</ele>
        <time>2019-12-10T10:09:23Z</time>
      </trkpt>
      <trkpt lat="43.55485" lon="6.77683">
        <ele>111.7</ele>
        <time>2019-12-10T10:09:25Z</time>
      </trkpt>
      <trkpt lat="43.55478" lon="6.77682">
        <ele>111.7</ele>
        <time>2019-12-10T10:09:27Z</time>
      </trkpt>
      <trkpt lat="43.55471" lon="6.77682">
        <ele>112.1</ele>
        <time>2019-12-10T10:09:29Z</time>
      </trkpt>
      <trkpt lat="43.55465" lon="6.77681">
        <ele>112.1</ele>
        <time>2019-12-10T10:09:31Z</time>
      </trkpt>
      <trkpt lat="43.55459" lon="6.7768">
        <ele>112.1</ele>
        <time>2019-12-10T10:09:33Z</time>
      </trkpt>
      <trkpt lat="43.55452" lon="6.77677">
        <ele>112.1</ele>
        <time>2019-12-10T10:09:35Z</time>
      </trkpt>
      <trkpt lat="43.55446" lon="6.77673">
        <ele>112.1</ele>
        <time>2019-12-10T10:09:37Z</time>
      </trkpt>
      <trkpt lat="43.55441" lon="6.77668">
        <ele>112.1</ele>
        <time>2019-12-10T10:09:39Z</time>
      </trkpt>
      <trkpt lat="43.55436" lon="6.77663">
        <ele>112.1</ele>
        <time>2019-12-10T10:09:41Z</time>
      </trkpt>
      <trkpt lat="43.55431" lon="6.77656">
        <ele>112.1</ele>
        <time>2019-12-10T10:09:43Z</time>
      </trkpt>
      <trkpt lat="43.55426" lon="6.77649">
        <ele>112.1</ele>
        <time>2019-12-10T10:09:45Z</time>
      </trkpt>
      <trkpt lat="43.55422" lon="6.77642">
        <ele>112.1</ele>
        <time>2019-12-10T10:09:47Z</time>
      </trkpt>
      <trkpt lat="43.55417" lon="6.77635">
        <ele>112.1</ele>
        <time>2019-12-10T10:09:49Z</time>
      </trkpt>
      <trkpt lat="43.55413" lon="6.77628">
        <ele>112.1</ele>
        <time>2019-12-10T10:09:51Z</time>
      </trkpt>
      <trkpt lat="43.55409" lon="6.77619">
        <ele>112.1</ele>
        <time>2019-12-10T10:09:53Z</time>
      </trkpt>
      <trkpt lat="43.55405" lon="6.7761">
        <ele>111.7</ele>
        <time>2019-12-10T10:09:55Z</time>
      </trkpt>
      <trkpt lat="43.55401" lon="6.77601">
        <ele>111.7</ele>
        <time>2019-12-10T10:09:57Z</time>
      </trkpt>
      <trkpt lat="43.55396" lon="6.77592">
        <ele>111.2</ele>
        <time>2019-12-10T10:09:59Z</time>
      </trkpt>
      <trkpt lat="43.55392" lon="6.77583">
        <ele>111.2</ele>
        <time>2019-12-10T10:10:01Z</time>
      </trkpt>
      <trkpt lat="43.55388" lon="6.77575">
        <ele>110.7</ele>
        <time>2019-12-10T10:10:03Z</time>
      </trkpt>
      <trkpt lat="43.55384" lon="6.77566">
        <ele>110.7</ele>
        <time>2019-12-10T10:10:05Z</time>
      </trkpt>
      <trkpt lat="43.55379" lon="6.77558">
        <ele>110.2</ele>
        <time>2019-12-10T10:10:07Z</time>
      </trkpt>
      <trkpt lat="43.55375" lon="6.7755">
        <ele>110.2</ele>
        <time>2019-12-10T10:10:09Z</time>
      </trkpt>
      <trkpt lat="43.55371" lon="6.77542">
        <ele>109.7</ele>
        <time>2019-12-10T10:10:11Z</time>
      </trkpt>
      <trkpt lat="43.55367" lon="6.77533">
        <ele>109.2</ele>
        <time>2019-12-10T10:10:13Z</time>
      </trkpt>
      <trkpt lat="43.55362" lon="6.77524">
        <ele>109.2</ele>
        <time>2019-12-10T10:10:15Z</time>
      </trkpt>
      <trkpt lat="43.55357" lon="6.77515">
        <ele>108.8</ele>
        <time>2019-12-10T10:10:17Z</time>
      </trkpt>
      <trkpt lat="43.55351" lon="6.77509">
        <ele>108.8</ele>
        <time>2019-12-10T10:10:19Z</time>
      </trkpt>
      <trkpt lat="43.55343" lon="6.77508">
        <ele>108.3</ele>
        <time>2019-12-10T10:10:21Z</time>
      </trkpt>
      <trkpt lat="43.55334" lon="6.77509">
        <ele>107.8</ele>
        <time>2019-12-10T10:10:23Z</time>
      </trkpt>
      <trkpt lat="43.55325" lon="6.77512">
        <ele>107.3</ele>
        <time>2019-12-10T10:10:25Z</time>
      </trkpt>
      <trkpt lat="43.55319" lon="6.77514">
        <ele>106.8</ele>
        <time>2019-12-10T10:10:27Z</time>
      </trkpt>
      <trkpt lat="43.55316" lon="6.77516">
        <ele>106.8</ele>
        <time>2019-12-10T10:10:29Z</time>
      </trkpt>
      <trkpt lat="43.55314" lon="6.77517">
        <ele>106.8</ele>
        <time>2019-12-10T10:10:31Z</time>
      </trkpt>
      <trkpt lat="43.55311" lon="6.77517">
        <ele>106.8</ele>
        <time>2019-12-10T10:10:33Z</time>
      </trkpt>
      <trkpt lat="43.55308" lon="6.77517">
        <ele>106.8</ele>
        <time>2019-12-10T10:10:35Z</time>
      </trkpt>
      <trkpt lat="43.55303" lon="6.77514">
        <ele>106.4</ele>
        <time>2019-12-10T10:10:37Z</time>
      </trkpt>
      <trkpt lat="43.55298" lon="6.7751">
        <ele>105.9</ele>
        <time>2019-12-10T10:10:39Z</time>
      </trkpt>
      <trkpt lat="43.55291" lon="6.77503">
        <ele>104.9</ele>
        <time>2019-12-10T10:10:41Z</time>
      </trkpt>
      <trkpt lat="43.55283" lon="6.77495">
        <ele>104</ele>
        <time>2019-12-10T10:10:43Z</time>
      </trkpt>
      <trkpt lat="43.55275" lon="6.77485">
        <ele>103</ele>
        <time>2019-12-10T10:10:45Z</time>
      </trkpt>
      <trkpt lat="43.55267" lon="6.77473">
        <ele>102</ele>
        <time>2019-12-10T10:10:47Z</time>
      </trkpt>
      <trkpt lat="43.55261" lon="6.77459">
        <ele>101.1</ele>
        <time>2019-12-10T10:10:49Z</time>
      </trkpt>
      <trkpt lat="43.55258" lon="6.77444">
        <ele>101.1</ele>
        <time>2019-12-10T10:10:51Z</time>
      </trkpt>
      <trkpt lat="43.55255" lon="6.77432">
        <ele>101.1</ele>
        <time>2019-12-10T10:10:53Z</time>
      </trkpt>
      <trkpt lat="43.55252" lon="6.77422">
        <ele>100.6</ele>
        <time>2019-12-10T10:10:55Z</time>
      </trkpt>
      <trkpt lat="43.55246" lon="6.77415">
        <ele>100.6</ele>
        <time>2019-12-10T10:10:57Z</time>
      </trkpt>
      <trkpt lat="43.5524" lon="6.7741">
        <ele>100.6</ele>
        <time>2019-12-10T10:10:59Z</time>
      </trkpt>
      <trkpt lat="43.55234" lon="6.77405">
        <ele>100.6</ele>
        <time>2019-12-10T10:11:01Z</time>
      </trkpt>
      <trkpt lat="43.55228" lon="6.774">
        <ele>100.6</ele>
        <time>2019-12-10T10:11:03Z</time>
      </trkpt>
      <trkpt lat="43.55222" lon="6.77395">
        <ele>100.6</ele>
        <time>2019-12-10T10:11:05Z</time>
      </trkpt>
      <trkpt lat="43.55216" lon="6.77391">
        <ele>100.1</ele>
        <time>2019-12-10T10:11:07Z</time>
      </trkpt>
      <trkpt lat="43.5521" lon="6.77386">
        <ele>100.1</ele>
        <time>2019-12-10T10:11:09Z</time>
      </trkpt>
      <trkpt lat="43.55205" lon="6.77379">
        <ele>99.6</ele>
        <time>2019-12-10T10:11:11Z</time>
      </trkpt>
      <trkpt lat="43.55199" lon="6.77373">
        <ele>99.2</ele>
        <time>2019-12-10T10:11:13Z</time>
      </trkpt>
      <trkpt lat="43.55193" lon="6.77367">
        <ele>98.7</ele>
        <time>2019-12-10T10:11:15Z</time>
      </trkpt>
      <trkpt lat="43.55186" lon="6.7736">
        <ele>98.2</ele>
        <time>2019-12-10T10:11:17Z</time>
      </trkpt>
      <trkpt lat="43.55179" lon="6.77354">
        <ele>98.2</ele>
        <time>2019-12-10T10:11:19Z</time>
      </trkpt>
      <trkpt lat="43.55172" lon="6.77347">
        <ele>98.2</ele>
        <time>2019-12-10T10:11:21Z</time>
      </trkpt>
      <trkpt lat="43.55164" lon="6.7734">
        <ele>98.2</ele>
        <time>2019-12-10T10:11:23Z</time>
      </trkpt>
      <trkpt lat="43.55158" lon="6.77332">
        <ele>99.2</ele>
        <time>2019-12-10T10:11:25Z</time>
      </trkpt>
      <trkpt lat="43.55153" lon="6.77322">
        <ele>98.7</ele>
        <time>2019-12-10T10:11:27Z</time>
      </trkpt>
      <trkpt lat="43.55148" lon="6.77313">
        <ele>98.2</ele>
        <time>2019-12-10T10:11:29Z</time>
      </trkpt>
      <trkpt lat="43.55144" lon="6.77304">
        <ele>98.2</ele>
        <time>2019-12-10T10:11:31Z</time>
      </trkpt>
      <trkpt lat="43.55139" lon="6.77297">
        <ele>98.2</ele>
        <time>2019-12-10T10:11:33Z</time>
      </trkpt>
      <trkpt lat="43.55133" lon="6.77294">
        <ele>98.2</ele>
        <time>2019-12-10T10:11:35Z</time>
      </trkpt>
      <trkpt lat="43.55129" lon="6.77293">
        <ele>98.2</ele>
        <time>2019-12-10T10:11:37Z</time>
      </trkpt>
      <trkpt lat="43.55125" lon="6.77293">
        <ele>98.7</ele>
        <time>2019-12-10T10:11:39Z</time>
      </trkpt>
      <trkpt lat="43.5512" lon="6.77292">
        <ele>98.2</ele>
        <time>2019-12-10T10:11:41Z</time>
      </trkpt>
      <trkpt lat="43.55116" lon="6.77287">
        <ele>98.2</ele>
        <time>2019-12-10T10:11:43Z</time>
      </trkpt>
      <trkpt lat="43.55112" lon="6.77283">
        <ele>97.7</ele>
        <time>2019-12-10T10:11:45Z</time>
      </trkpt>
      <trkpt lat="43.55107" lon="6.77279">
        <ele>97.2</ele>
        <time>2019-12-10T10:11:47Z</time>
      </trkpt>
      <trkpt lat="43.55101" lon="6.77274">
        <ele>97.2</ele>
        <time>2019-12-10T10:11:49Z</time>
      </trkpt>
      <trkpt lat="43.55095" lon="6.77269">
        <ele>97.2</ele>
        <time>2019-12-10T10:11:51Z</time>
      </trkpt>
      <trkpt lat="43.55089" lon="6.77265">
        <ele>97.2</ele>
        <time>2019-12-10T10:11:53Z</time>
      </trkpt>
      <trkpt lat="43.55083" lon="6.77261">
        <ele>97.2</ele>
        <time>2019-12-10T10:11:55Z</time>
      </trkpt>
      <trkpt lat="43.55078" lon="6.77255">
        <ele>97.7</ele>
        <time>2019-12-10T10:11:57Z</time>
      </trkpt>
      <trkpt lat="43.55074" lon="6.7725">
        <ele>97.7</ele>
        <time>2019-12-10T10:11:59Z</time>
      </trkpt>
      <trkpt lat="43.55069" lon="6.77244">
        <ele>98.2</ele>
        <time>2019-12-10T10:12:01Z</time>
      </trkpt>
      <trkpt lat="43.55065" lon="6.77238">
        <ele>98.2</ele>
        <time>2019-12-10T10:12:03Z</time>
      </trkpt>
      <trkpt lat="43.55062" lon="6.77231">
        <ele>98.2</ele>
        <time>2019-12-10T10:12:05Z</time>
      </trkpt>
      <trkpt lat="43.55059" lon="6.77224">
        <ele>98.2</ele>
        <time>2019-12-10T10:12:07Z</time>
      </trkpt>
      <trkpt lat="43.55056" lon="6.77217">
        <ele>98.2</ele>
        <time>2019-12-10T10:12:09Z</time>
      </trkpt>
      <trkpt lat="43.55054" lon="6.7721">
        <ele>98.7</ele>
        <time>2019-12-10T10:12:11Z</time>
      </trkpt>
      <trkpt lat="43.55053" lon="6.77202">
        <ele>98.7</ele>
        <time>2019-12-10T10:12:13Z</time>
      </trkpt>
      <trkpt lat="43.55052" lon="6.77194">
        <ele>99.2</ele>
        <time>2019-12-10T10:12:15Z</time>
      </trkpt>
      <trkpt lat="43.55052" lon="6.77187">
        <ele>99.2</ele>
        <time>2019-12-10T10:12:17Z</time>
      </trkpt>
      <trkpt lat="43.55053" lon="6.77179">
        <ele>99.6</ele>
        <time>2019-12-10T10:12:19Z</time>
      </trkpt>
      <trkpt lat="43.55053" lon="6.77172">
        <ele>99.2</ele>
        <time>2019-12-10T10:12:21Z</time>
      </trkpt>
      <trkpt lat="43.55054" lon="6.77165">
        <ele>99.6</ele>
        <time>2019-12-10T10:12:23Z</time>
      </trkpt>
      <trkpt lat="43.55056" lon="6.77158">
        <ele>99.6</ele>
        <time>2019-12-10T10:12:25Z</time>
      </trkpt>
      <trkpt lat="43.55057" lon="6.77152">
        <ele>100.6</ele>
        <time>2019-12-10T10:12:27Z</time>
      </trkpt>
      <trkpt lat="43.55059" lon="6.77146">
        <ele>101.1</ele>
        <time>2019-12-10T10:12:29Z</time>
      </trkpt>
      <trkpt lat="43.55062" lon="6.7714">
        <ele>100.6</ele>
        <time>2019-12-10T10:12:31Z</time>
      </trkpt>
      <trkpt lat="43.55064" lon="6.77135">
        <ele>101.1</ele>
        <time>2019-12-10T10:12:33Z</time>
      </trkpt>
      <trkpt lat="43.55066" lon="6.77128">
        <ele>101.1</ele>
        <time>2019-12-10T10:12:35Z</time>
      </trkpt>
      <trkpt lat="43.55069" lon="6.77122">
        <ele>101.1</ele>
        <time>2019-12-10T10:12:37Z</time>
      </trkpt>
      <trkpt lat="43.55072" lon="6.77117">
        <ele>101.6</ele>
        <time>2019-12-10T10:12:39Z</time>
      </trkpt>
      <trkpt lat="43.55075" lon="6.77111">
        <ele>101.6</ele>
        <time>2019-12-10T10:12:41Z</time>
      </trkpt>
      <trkpt lat="43.55077" lon="6.77105">
        <ele>101.6</ele>
        <time>2019-12-10T10:12:43Z</time>
      </trkpt>
      <trkpt lat="43.55076" lon="6.77102">
        <ele>102</ele>
        <time>2019-12-10T10:12:45Z</time>
      </trkpt>
      <trkpt lat="43.55076" lon="6.77102">
        <ele>101.6</ele>
        <time>2019-12-10T10:12:47Z</time>
      </trkpt>
      <trkpt lat="43.55076" lon="6.77102">
        <ele>101.6</ele>
        <time>2019-12-10T10:12:49Z</time>
      </trkpt>
      <trkpt lat="43.55077" lon="6.77099">
        <ele>102</ele>
        <time>2019-12-10T10:12:51Z</time>
      </trkpt>
      <trkpt lat="43.5508" lon="6.77096">
        <ele>102</ele>
        <time>2019-12-10T10:12:53Z</time>
      </trkpt>
      <trkpt lat="43.55082" lon="6.77093">
        <ele>102.5</ele>
        <time>2019-12-10T10:12:55Z</time>
      </trkpt>
      <trkpt lat="43.55083" lon="6.7709">
        <ele>103</ele>
        <time>2019-12-10T10:12:57Z</time>
      </trkpt>
      <trkpt lat="43.55084" lon="6.77086">
        <ele>104</ele>
        <time>2019-12-10T10:12:59Z</time>
      </trkpt>
      <trkpt lat="43.55084" lon="6.77082">
        <ele>103</ele>
        <time>2019-12-10T10:13:01Z</time>
      </trkpt>
      <trkpt lat="43.55083" lon="6.77078">
        <ele>103.5</ele>
        <time>2019-12-10T10:13:03Z</time>
      </trkpt>
      <trkpt lat="43.5508" lon="6.77074">
        <ele>103.5</ele>
        <time>2019-12-10T10:13:05Z</time>
      </trkpt>
      <trkpt lat="43.55076" lon="6.7707">
        <ele>104</ele>
        <time>2019-12-10T10:13:07Z</time>
      </trkpt>
      <trkpt lat="43.55073" lon="6.77067">
        <ele>104</ele>
        <time>2019-12-10T10:13:09Z</time>
      </trkpt>
      <trkpt lat="43.55069" lon="6.77066">
        <ele>104.4</ele>
        <time>2019-12-10T10:13:11Z</time>
      </trkpt>
      <trkpt lat="43.55065" lon="6.77065">
        <ele>104.9</ele>
        <time>2019-12-10T10:13:13Z</time>
      </trkpt>
      <trkpt lat="43.5506" lon="6.77066">
        <ele>105.4</ele>
        <time>2019-12-10T10:13:15Z</time>
      </trkpt>
      <trkpt lat="43.55055" lon="6.77067">
        <ele>105.9</ele>
        <time>2019-12-10T10:13:17Z</time>
      </trkpt>
      <trkpt lat="43.55051" lon="6.7707">
        <ele>106.4</ele>
        <time>2019-12-10T10:13:19Z</time>
      </trkpt>
      <trkpt lat="43.55046" lon="6.77071">
        <ele>106.8</ele>
        <time>2019-12-10T10:13:21Z</time>
      </trkpt>
      <trkpt lat="43.55043" lon="6.77072">
        <ele>107.3</ele>
        <time>2019-12-10T10:13:23Z</time>
      </trkpt>
      <trkpt lat="43.55038" lon="6.77073">
        <ele>107.3</ele>
        <time>2019-12-10T10:13:25Z</time>
      </trkpt>
      <trkpt lat="43.55034" lon="6.77072">
        <ele>107.8</ele>
        <time>2019-12-10T10:13:27Z</time>
      </trkpt>
      <trkpt lat="43.55029" lon="6.77072">
        <ele>108.3</ele>
        <time>2019-12-10T10:13:29Z</time>
      </trkpt>
      <trkpt lat="43.55025" lon="6.77069">
        <ele>108.8</ele>
        <time>2019-12-10T10:13:31Z</time>
      </trkpt>
      <trkpt lat="43.55022" lon="6.77065">
        <ele>108.8</ele>
        <time>2019-12-10T10:13:33Z</time>
      </trkpt>
      <trkpt lat="43.55018" lon="6.77061">
        <ele>108.3</ele>
        <time>2019-12-10T10:13:35Z</time>
      </trkpt>
      <trkpt lat="43.55016" lon="6.77056">
        <ele>108.8</ele>
        <time>2019-12-10T10:13:37Z</time>
      </trkpt>
      <trkpt lat="43.55014" lon="6.7705">
        <ele>108.8</ele>
        <time>2019-12-10T10:13:39Z</time>
      </trkpt>
      <trkpt lat="43.55012" lon="6.77044">
        <ele>109.2</ele>
        <time>2019-12-10T10:13:41Z</time>
      </trkpt>
      <trkpt lat="43.5501" lon="6.77038">
        <ele>109.2</ele>
        <time>2019-12-10T10:13:43Z</time>
      </trkpt>
      <trkpt lat="43.55008" lon="6.77032">
        <ele>109.2</ele>
        <time>2019-12-10T10:13:45Z</time>
      </trkpt>
      <trkpt lat="43.55006" lon="6.77027">
        <ele>109.2</ele>
        <time>2019-12-10T10:13:47Z</time>
      </trkpt>
      <trkpt lat="43.55003" lon="6.77021">
        <ele>109.2</ele>
        <time>2019-12-10T10:13:49Z</time>
      </trkpt>
      <trkpt lat="43.55" lon="6.77017">
        <ele>109.2</ele>
        <time>2019-12-10T10:13:51Z</time>
      </trkpt>
      <trkpt lat="43.54996" lon="6.77013">
        <ele>109.2</ele>
        <time>2019-12-10T10:13:53Z</time>
      </trkpt>
      <trkpt lat="43.54992" lon="6.77012">
        <ele>108.8</ele>
        <time>2019-12-10T10:13:55Z</time>
      </trkpt>
      <trkpt lat="43.54987" lon="6.77011">
        <ele>108.8</ele>
        <time>2019-12-10T10:13:57Z</time>
      </trkpt>
      <trkpt lat="43.54983" lon="6.77009">
        <ele>108.8</ele>
        <time>2019-12-10T10:13:59Z</time>
      </trkpt>
      <trkpt lat="43.54978" lon="6.77008">
        <ele>108.8</ele>
        <time>2019-12-10T10:14:01Z</time>
      </trkpt>
      <trkpt lat="43.54972" lon="6.77007">
        <ele>107.8</ele>
        <time>2019-12-10T10:14:03Z</time>
      </trkpt>
      <trkpt lat="43.54967" lon="6.77007">
        <ele>108.3</ele>
        <time>2019-12-10T10:14:05Z</time>
      </trkpt>
      <trkpt lat="43.54962" lon="6.77004">
        <ele>108.3</ele>
        <time>2019-12-10T10:14:07Z</time>
      </trkpt>
      <trkpt lat="43.54957" lon="6.77001">
        <ele>108.3</ele>
        <time>2019-12-10T10:14:09Z</time>
      </trkpt>
      <trkpt lat="43.54954" lon="6.76998">
        <ele>108.3</ele>
        <time>2019-12-10T10:14:11Z</time>
      </trkpt>
      <trkpt lat="43.5495" lon="6.76994">
        <ele>108.8</ele>
        <time>2019-12-10T10:14:13Z</time>
      </trkpt>
      <trkpt lat="43.54947" lon="6.76989">
        <ele>108.8</ele>
        <time>2019-12-10T10:14:15Z</time>
      </trkpt>
      <trkpt lat="43.54944" lon="6.76985">
        <ele>108.8</ele>
        <time>2019-12-10T10:14:17Z</time>
      </trkpt>
      <trkpt lat="43.54941" lon="6.76979">
        <ele>108.3</ele>
        <time>2019-12-10T10:14:19Z</time>
      </trkpt>
      <trkpt lat="43.54937" lon="6.76973">
        <ele>108.8</ele>
        <time>2019-12-10T10:14:21Z</time>
      </trkpt>
      <trkpt lat="43.54935" lon="6.76967">
        <ele>108.3</ele>
        <time>2019-12-10T10:14:23Z</time>
      </trkpt>
      <trkpt lat="43.54933" lon="6.76962">
        <ele>108.3</ele>
        <time>2019-12-10T10:14:25Z</time>
      </trkpt>
      <trkpt lat="43.5493" lon="6.76956">
        <ele>107.8</ele>
        <time>2019-12-10T10:14:27Z</time>
      </trkpt>
      <trkpt lat="43.54927" lon="6.7695">
        <ele>106.4</ele>
        <time>2019-12-10T10:14:29Z</time>
      </trkpt>
      <trkpt lat="43.54924" lon="6.76943">
        <ele>105.9</ele>
        <time>2019-12-10T10:14:31Z</time>
      </trkpt>
      <trkpt lat="43.54921" lon="6.76936">
        <ele>105.4</ele>
        <time>2019-12-10T10:14:33Z</time>
      </trkpt>
      <trkpt lat="43.54919" lon="6.76929">
        <ele>104.9</ele>
        <time>2019-12-10T10:14:35Z</time>
      </trkpt>
      <trkpt lat="43.54917" lon="6.76922">
        <ele>104.4</ele>
        <time>2019-12-10T10:14:37Z</time>
      </trkpt>
      <trkpt lat="43.54917" lon="6.76914">
        <ele>103.5</ele>
        <time>2019-12-10T10:14:39Z</time>
      </trkpt>
      <trkpt lat="43.54916" lon="6.76904">
        <ele>103.5</ele>
        <time>2019-12-10T10:14:41Z</time>
      </trkpt>
      <trkpt lat="43.54915" lon="6.76896">
        <ele>103</ele>
        <time>2019-12-10T10:14:43Z</time>
      </trkpt>
      <trkpt lat="43.54914" lon="6.76889">
        <ele>102.5</ele>
        <time>2019-12-10T10:14:45Z</time>
      </trkpt>
      <trkpt lat="43.54913" lon="6.7688">
        <ele>102.5</ele>
        <time>2019-12-10T10:14:47Z</time>
      </trkpt>
      <trkpt lat="43.54913" lon="6.76872">
        <ele>102.5</ele>
        <time>2019-12-10T10:14:49Z</time>
      </trkpt>
      <trkpt lat="43.54915" lon="6.76866">
        <ele>102.5</ele>
        <time>2019-12-10T10:14:51Z</time>
      </trkpt>
      <trkpt lat="43.54915" lon="6.7686">
        <ele>102.5</ele>
        <time>2019-12-10T10:14:53Z</time>
      </trkpt>
      <trkpt lat="43.54911" lon="6.76855">
        <ele>103</ele>
        <time>2019-12-10T10:14:55Z</time>
      </trkpt>
      <trkpt lat="43.54907" lon="6.7685">
        <ele>102</ele>
        <time>2019-12-10T10:14:57Z</time>
      </trkpt>
      <trkpt lat="43.54903" lon="6.76847">
        <ele>102</ele>
        <time>2019-12-10T10:14:59Z</time>
      </trkpt>
      <trkpt lat="43.54898" lon="6.76845">
        <ele>102</ele>
        <time>2019-12-10T10:15:01Z</time>
      </trkpt>
      <trkpt lat="43.54895" lon="6.76842">
        <ele>102</ele>
        <time>2019-12-10T10:15:03Z</time>
      </trkpt>
      <trkpt lat="43.54891" lon="6.76841">
        <ele>102</ele>
        <time>2019-12-10T10:15:05Z</time>
      </trkpt>
      <trkpt lat="43.54887" lon="6.76837">
        <ele>102.5</ele>
        <time>2019-12-10T10:15:07Z</time>
      </trkpt>
      <trkpt lat="43.54882" lon="6.76837">
        <ele>102.5</ele>
        <time>2019-12-10T10:15:09Z</time>
      </trkpt>
      <trkpt lat="43.54878" lon="6.76839">
        <ele>103</ele>
        <time>2019-12-10T10:15:11Z</time>
      </trkpt>
      <trkpt lat="43.54874" lon="6.76844">
        <ele>103.5</ele>
        <time>2019-12-10T10:15:13Z</time>
      </trkpt>
      <trkpt lat="43.54873" lon="6.7685">
        <ele>103.5</ele>
        <time>2019-12-10T10:15:15Z</time>
      </trkpt>
      <trkpt lat="43.54871" lon="6.76857">
        <ele>104.4</ele>
        <time>2019-12-10T10:15:17Z</time>
      </trkpt>
      <trkpt lat="43.54869" lon="6.76863">
        <ele>104.9</ele>
        <time>2019-12-10T10:15:19Z</time>
      </trkpt>
      <trkpt lat="43.54868" lon="6.7687">
        <ele>104.9</ele>
        <time>2019-12-10T10:15:21Z</time>
      </trkpt>
      <trkpt lat="43.54866" lon="6.76877">
        <ele>105.4</ele>
        <time>2019-12-10T10:15:23Z</time>
      </trkpt>
      <trkpt lat="43.54864" lon="6.76884">
        <ele>105.4</ele>
        <time>2019-12-10T10:15:25Z</time>
      </trkpt>
      <trkpt lat="43.54863" lon="6.76891">
        <ele>105.9</ele>
        <time>2019-12-10T10:15:27Z</time>
      </trkpt>
      <trkpt lat="43.5486" lon="6.76897">
        <ele>105.9</ele>
        <time>2019-12-10T10:15:29Z</time>
      </trkpt>
      <trkpt lat="43.54857" lon="6.76905">
        <ele>105.4</ele>
        <time>2019-12-10T10:15:31Z</time>
      </trkpt>
      <trkpt lat="43.54853" lon="6.76912">
        <ele>104.4</ele>
        <time>2019-12-10T10:15:33Z</time>
      </trkpt>
      <trkpt lat="43.5485" lon="6.7692">
        <ele>104.4</ele>
        <time>2019-12-10T10:15:35Z</time>
      </trkpt>
      <trkpt lat="43.54848" lon="6.76929">
        <ele>104.4</ele>
        <time>2019-12-10T10:15:37Z</time>
      </trkpt>
      <trkpt lat="43.54847" lon="6.76936">
        <ele>104.9</ele>
        <time>2019-12-10T10:15:39Z</time>
      </trkpt>
      <trkpt lat="43.54845" lon="6.76943">
        <ele>104.9</ele>
        <time>2019-12-10T10:15:41Z</time>
      </trkpt>
      <trkpt lat="43.54844" lon="6.7695">
        <ele>104.9</ele>
        <time>2019-12-10T10:15:43Z</time>
      </trkpt>
      <trkpt lat="43.54843" lon="6.76959">
        <ele>104.9</ele>
        <time>2019-12-10T10:15:45Z</time>
      </trkpt>
      <trkpt lat="43.5484" lon="6.76967">
        <ele>105.4</ele>
        <time>2019-12-10T10:15:47Z</time>
      </trkpt>
      <trkpt lat="43.54837" lon="6.76977">
        <ele>105.9</ele>
        <time>2019-12-10T10:15:49Z</time>
      </trkpt>
      <trkpt lat="43.54835" lon="6.76985">
        <ele>106.8</ele>
        <time>2019-12-10T10:15:51Z</time>
      </trkpt>
      <trkpt lat="43.54832" lon="6.76994">
        <ele>107.3</ele>
        <time>2019-12-10T10:15:53Z</time>
      </trkpt>
      <trkpt lat="43.5483" lon="6.77002">
        <ele>107.3</ele>
        <time>2019-12-10T10:15:55Z</time>
      </trkpt>
      <trkpt lat="43.54828" lon="6.77011">
        <ele>107.8</ele>
        <time>2019-12-10T10:15:57Z</time>
      </trkpt>
      <trkpt lat="43.54827" lon="6.7702">
        <ele>108.3</ele>
        <time>2019-12-10T10:15:59Z</time>
      </trkpt>
      <trkpt lat="43.54826" lon="6.77027">
        <ele>107.3</ele>
        <time>2019-12-10T10:16:01Z</time>
      </trkpt>
      <trkpt lat="43.54825" lon="6.77034">
        <ele>106.8</ele>
        <time>2019-12-10T10:16:03Z</time>
      </trkpt>
      <trkpt lat="43.54825" lon="6.77042">
        <ele>106.4</ele>
        <time>2019-12-10T10:16:05Z</time>
      </trkpt>
      <trkpt lat="43.54825" lon="6.7705">
        <ele>106.4</ele>
        <time>2019-12-10T10:16:07Z</time>
      </trkpt>
      <trkpt lat="43.54823" lon="6.77058">
        <ele>104.4</ele>
        <time>2019-12-10T10:16:09Z</time>
      </trkpt>
      <trkpt lat="43.54819" lon="6.77065">
        <ele>104.4</ele>
        <time>2019-12-10T10:16:11Z</time>
      </trkpt>
      <trkpt lat="43.54816" lon="6.77072">
        <ele>104.4</ele>
        <time>2019-12-10T10:16:13Z</time>
      </trkpt>
      <trkpt lat="43.54815" lon="6.77081">
        <ele>104.4</ele>
        <time>2019-12-10T10:16:15Z</time>
      </trkpt>
      <trkpt lat="43.54814" lon="6.7709">
        <ele>104.9</ele>
        <time>2019-12-10T10:16:17Z</time>
      </trkpt>
      <trkpt lat="43.5481" lon="6.77097">
        <ele>105.4</ele>
        <time>2019-12-10T10:16:19Z</time>
      </trkpt>
      <trkpt lat="43.54807" lon="6.77104">
        <ele>106.4</ele>
        <time>2019-12-10T10:16:21Z</time>
      </trkpt>
      <trkpt lat="43.54804" lon="6.77113">
        <ele>106.8</ele>
        <time>2019-12-10T10:16:23Z</time>
      </trkpt>
      <trkpt lat="43.548" lon="6.77121">
        <ele>107.8</ele>
        <time>2019-12-10T10:16:25Z</time>
      </trkpt>
      <trkpt lat="43.54797" lon="6.77128">
        <ele>107.8</ele>
        <time>2019-12-10T10:16:27Z</time>
      </trkpt>
      <trkpt lat="43.54792" lon="6.77134">
        <ele>108.3</ele>
        <time>2019-12-10T10:16:29Z</time>
      </trkpt>
      <trkpt lat="43.54787" lon="6.77137">
        <ele>108.8</ele>
        <time>2019-12-10T10:16:31Z</time>
      </trkpt>
      <trkpt lat="43.54782" lon="6.77142">
        <ele>109.2</ele>
        <time>2019-12-10T10:16:33Z</time>
      </trkpt>
      <trkpt lat="43.54778" lon="6.77148">
        <ele>110.7</ele>
        <time>2019-12-10T10:16:35Z</time>
      </trkpt>
      <trkpt lat="43.54776" lon="6.77152">
        <ele>111.2</ele>
        <time>2019-12-10T10:16:37Z</time>
      </trkpt>
      <trkpt lat="43.54774" lon="6.77154">
        <ele>111.7</ele>
        <time>2019-12-10T10:16:39Z</time>
      </trkpt>
      <trkpt lat="43.54775" lon="6.77153">
        <ele>110.2</ele>
        <time>2019-12-10T10:16:41Z</time>
      </trkpt>
      <trkpt lat="43.54775" lon="6.77153">
        <ele>109.7</ele>
        <time>2019-12-10T10:16:43Z</time>
      </trkpt>
      <trkpt lat="43.54775" lon="6.77153">
        <ele>110.2</ele>
        <time>2019-12-10T10:16:45Z</time>
      </trkpt>
      <trkpt lat="43.54775" lon="6.77153">
        <ele>110.2</ele>
        <time>2019-12-10T10:16:47Z</time>
      </trkpt>
      <trkpt lat="43.54775" lon="6.77153">
        <ele>110.2</ele>
        <time>2019-12-10T10:16:49Z</time>
      </trkpt>
      <trkpt lat="43.54775" lon="6.77153">
        <ele>110.2</ele>
        <time>2019-12-10T10:16:51Z</time>
      </trkpt>
      <trkpt lat="43.54775" lon="6.77153">
        <ele>110.2</ele>
        <time>2019-12-10T10:16:53Z</time>
      </trkpt>
      <trkpt lat="43.54775" lon="6.77153">
        <ele>110.2</ele>
        <time>2019-12-10T10:16:55Z</time>
      </trkpt>
      <trkpt lat="43.54775" lon="6.77153">
        <ele>110.2</ele>
        <time>2019-12-10T10:16:57Z</time>
      </trkpt>
      <trkpt lat="43.54775" lon="6.77153">
        <ele>110.2</ele>
        <time>2019-12-10T10:16:59Z</time>
      </trkpt>
      <trkpt lat="43.54775" lon="6.77153">
        <ele>110.2</ele>
        <time>2019-12-10T10:17:01Z</time>
      </trkpt>
      <trkpt lat="43.54775" lon="6.77153">
        <ele>110.2</ele>
        <time>2019-12-10T10:17:03Z</time>
      </trkpt>
      <trkpt lat="43.54775" lon="6.77153">
        <ele>110.2</ele>
        <time>2019-12-10T10:17:05Z</time>
      </trkpt>
      <trkpt lat="43.54775" lon="6.77153">
        <ele>110.2</ele>
        <time>2019-12-10T10:17:07Z</time>
      </trkpt>
      <trkpt lat="43.54773" lon="6.77156">
        <ele>110.2</ele>
        <time>2019-12-10T10:17:09Z</time>
      </trkpt>
      <trkpt lat="43.54771" lon="6.7716">
        <ele>109.7</ele>
        <time>2019-12-10T10:17:11Z</time>
      </trkpt>
      <trkpt lat="43.54767" lon="6.77164">
        <ele>109.7</ele>
        <time>2019-12-10T10:17:13Z</time>
      </trkpt>
      <trkpt lat="43.54763" lon="6.77168">
        <ele>109.7</ele>
        <time>2019-12-10T10:17:15Z</time>
      </trkpt>
      <trkpt lat="43.54759" lon="6.77174">
        <ele>109.7</ele>
        <time>2019-12-10T10:17:17Z</time>
      </trkpt>
      <trkpt lat="43.54755" lon="6.7718">
        <ele>109.2</ele>
        <time>2019-12-10T10:17:19Z</time>
      </trkpt>
      <trkpt lat="43.54751" lon="6.77187">
        <ele>109.2</ele>
        <time>2019-12-10T10:17:21Z</time>
      </trkpt>
      <trkpt lat="43.54747" lon="6.77193">
        <ele>108.8</ele>
        <time>2019-12-10T10:17:23Z</time>
      </trkpt>
      <trkpt lat="43.54742" lon="6.772">
        <ele>108.8</ele>
        <time>2019-12-10T10:17:25Z</time>
      </trkpt>
      <trkpt lat="43.54737" lon="6.77207">
        <ele>108.8</ele>
        <time>2019-12-10T10:17:27Z</time>
      </trkpt>
      <trkpt lat="43.54732" lon="6.77213">
        <ele>108.8</ele>
        <time>2019-12-10T10:17:29Z</time>
      </trkpt>
      <trkpt lat="43.54727" lon="6.77219">
        <ele>108.8</ele>
        <time>2019-12-10T10:17:31Z</time>
      </trkpt>
      <trkpt lat="43.54721" lon="6.77226">
        <ele>108.3</ele>
        <time>2019-12-10T10:17:33Z</time>
      </trkpt>
      <trkpt lat="43.54715" lon="6.77232">
        <ele>108.3</ele>
        <time>2019-12-10T10:17:35Z</time>
      </trkpt>
      <trkpt lat="43.54709" lon="6.77237">
        <ele>107.8</ele>
        <time>2019-12-10T10:17:37Z</time>
      </trkpt>
      <trkpt lat="43.54702" lon="6.77241">
        <ele>107.3</ele>
        <time>2019-12-10T10:17:39Z</time>
      </trkpt>
      <trkpt lat="43.54695" lon="6.77246">
        <ele>106.8</ele>
        <time>2019-12-10T10:17:41Z</time>
      </trkpt>
      <trkpt lat="43.54688" lon="6.77251">
        <ele>106.8</ele>
        <time>2019-12-10T10:17:43Z</time>
      </trkpt>
      <trkpt lat="43.54682" lon="6.77257">
        <ele>106.4</ele>
        <time>2019-12-10T10:17:45Z</time>
      </trkpt>
      <trkpt lat="43.54675" lon="6.77261">
        <ele>105.9</ele>
        <time>2019-12-10T10:17:47Z</time>
      </trkpt>
      <trkpt lat="43.5467" lon="6.77266">
        <ele>105.9</ele>
        <time>2019-12-10T10:17:49Z</time>
      </trkpt>
      <trkpt lat="43.54665" lon="6.77272">
        <ele>105.4</ele>
        <time>2019-12-10T10:17:51Z</time>
      </trkpt>
      <trkpt lat="43.5466" lon="6.77277">
        <ele>104.4</ele>
        <time>2019-12-10T10:17:53Z</time>
      </trkpt>
      <trkpt lat="43.54657" lon="6.77282">
        <ele>103.5</ele>
        <time>2019-12-10T10:17:55Z</time>
      </trkpt>
      <trkpt lat="43.54654" lon="6.77286">
        <ele>102.5</ele>
        <time>2019-12-10T10:17:57Z</time>
      </trkpt>
      <trkpt lat="43.54651" lon="6.77291">
        <ele>102</ele>
        <time>2019-12-10T10:17:59Z</time>
      </trkpt>
      <trkpt lat="43.54648" lon="6.77298">
        <ele>101.6</ele>
        <time>2019-12-10T10:18:01Z</time>
      </trkpt>
      <trkpt lat="43.54645" lon="6.77303">
        <ele>100.6</ele>
        <time>2019-12-10T10:18:03Z</time>
      </trkpt>
      <trkpt lat="43.54641" lon="6.77308">
        <ele>100.1</ele>
        <time>2019-12-10T10:18:05Z</time>
      </trkpt>
      <trkpt lat="43.54637" lon="6.77314">
        <ele>99.6</ele>
        <time>2019-12-10T10:18:07Z</time>
      </trkpt>
      <trkpt lat="43.54633" lon="6.77319">
        <ele>99.2</ele>
        <time>2019-12-10T10:18:09Z</time>
      </trkpt>
      <trkpt lat="43.54629" lon="6.77327">
        <ele>99.6</ele>
        <time>2019-12-10T10:18:11Z</time>
      </trkpt>
      <trkpt lat="43.54624" lon="6.77334">
        <ele>99.2</ele>
        <time>2019-12-10T10:18:13Z</time>
      </trkpt>
      <trkpt lat="43.5462" lon="6.77341">
        <ele>99.2</ele>
        <time>2019-12-10T10:18:15Z</time>
      </trkpt>
      <trkpt lat="43.54616" lon="6.7735">
        <ele>99.2</ele>
        <time>2019-12-10T10:18:17Z</time>
      </trkpt>
      <trkpt lat="43.54612" lon="6.77358">
        <ele>99.6</ele>
        <time>2019-12-10T10:18:19Z</time>
      </trkpt>
      <trkpt lat="43.54607" lon="6.77366">
        <ele>99.6</ele>
        <time>2019-12-10T10:18:21Z</time>
      </trkpt>
      <trkpt lat="43.54604" lon="6.77374">
        <ele>99.6</ele>
        <time>2019-12-10T10:18:23Z</time>
      </trkpt>
      <trkpt lat="43.54601" lon="6.77384">
        <ele>99.6</ele>
        <time>2019-12-10T10:18:25Z</time>
      </trkpt>
      <trkpt lat="43.54598" lon="6.77392">
        <ele>99.6</ele>
        <time>2019-12-10T10:18:27Z</time>
      </trkpt>
      <trkpt lat="43.54594" lon="6.77401">
        <ele>99.6</ele>
        <time>2019-12-10T10:18:29Z</time>
      </trkpt>
      <trkpt lat="43.54589" lon="6.77409">
        <ele>99.6</ele>
        <time>2019-12-10T10:18:31Z</time>
      </trkpt>
      <trkpt lat="43.54585" lon="6.77416">
        <ele>99.6</ele>
        <time>2019-12-10T10:18:33Z</time>
      </trkpt>
      <trkpt lat="43.54578" lon="6.77422">
        <ele>99.6</ele>
        <time>2019-12-10T10:18:35Z</time>
      </trkpt>
      <trkpt lat="43.54571" lon="6.77426">
        <ele>99.2</ele>
        <time>2019-12-10T10:18:37Z</time>
      </trkpt>
      <trkpt lat="43.54564" lon="6.77431">
        <ele>99.6</ele>
        <time>2019-12-10T10:18:39Z</time>
      </trkpt>
      <trkpt lat="43.54556" lon="6.77435">
        <ele>99.2</ele>
        <time>2019-12-10T10:18:41Z</time>
      </trkpt>
      <trkpt lat="43.5455" lon="6.7744">
        <ele>99.2</ele>
        <time>2019-12-10T10:18:43Z</time>
      </trkpt>
      <trkpt lat="43.54542" lon="6.77446">
        <ele>99.2</ele>
        <time>2019-12-10T10:18:45Z</time>
      </trkpt>
      <trkpt lat="43.54537" lon="6.77455">
        <ele>99.2</ele>
        <time>2019-12-10T10:18:47Z</time>
      </trkpt>
      <trkpt lat="43.54535" lon="6.77465">
        <ele>98.2</ele>
        <time>2019-12-10T10:18:49Z</time>
      </trkpt>
      <trkpt lat="43.54533" lon="6.77475">
        <ele>97.7</ele>
        <time>2019-12-10T10:18:51Z</time>
      </trkpt>
      <trkpt lat="43.54532" lon="6.77484">
        <ele>97.2</ele>
        <time>2019-12-10T10:18:53Z</time>
      </trkpt>
      <trkpt lat="43.54531" lon="6.77494">
        <ele>97.2</ele>
        <time>2019-12-10T10:18:55Z</time>
      </trkpt>
      <trkpt lat="43.54528" lon="6.775">
        <ele>97.2</ele>
        <time>2019-12-10T10:18:57Z</time>
      </trkpt>
      <trkpt lat="43.54524" lon="6.77507">
        <ele>96.7</ele>
        <time>2019-12-10T10:18:59Z</time>
      </trkpt>
      <trkpt lat="43.54519" lon="6.77514">
        <ele>96.7</ele>
        <time>2019-12-10T10:19:01Z</time>
      </trkpt>
      <trkpt lat="43.54514" lon="6.7752">
        <ele>96.3</ele>
        <time>2019-12-10T10:19:03Z</time>
      </trkpt>
      <trkpt lat="43.54507" lon="6.77526">
        <ele>96.3</ele>
        <time>2019-12-10T10:19:05Z</time>
      </trkpt>
      <trkpt lat="43.545" lon="6.77531">
        <ele>95.8</ele>
        <time>2019-12-10T10:19:07Z</time>
      </trkpt>
      <trkpt lat="43.54494" lon="6.77535">
        <ele>95.3</ele>
        <time>2019-12-10T10:19:09Z</time>
      </trkpt>
      <trkpt lat="43.54487" lon="6.77539">
        <ele>94.8</ele>
        <time>2019-12-10T10:19:11Z</time>
      </trkpt>
      <trkpt lat="43.54481" lon="6.77543">
        <ele>94.8</ele>
        <time>2019-12-10T10:19:13Z</time>
      </trkpt>
      <trkpt lat="43.54474" lon="6.77548">
        <ele>94.3</ele>
        <time>2019-12-10T10:19:15Z</time>
      </trkpt>
      <trkpt lat="43.54468" lon="6.77553">
        <ele>93.9</ele>
        <time>2019-12-10T10:19:17Z</time>
      </trkpt>
      <trkpt lat="43.54461" lon="6.77557">
        <ele>93.4</ele>
        <time>2019-12-10T10:19:19Z</time>
      </trkpt>
      <trkpt lat="43.54455" lon="6.77559">
        <ele>92.9</ele>
        <time>2019-12-10T10:19:21Z</time>
      </trkpt>
      <trkpt lat="43.54449" lon="6.77561">
        <ele>92.4</ele>
        <time>2019-12-10T10:19:23Z</time>
      </trkpt>
      <trkpt lat="43.54443" lon="6.77562">
        <ele>91.9</ele>
        <time>2019-12-10T10:19:25Z</time>
      </trkpt>
      <trkpt lat="43.54436" lon="6.77562">
        <ele>91</ele>
        <time>2019-12-10T10:19:27Z</time>
      </trkpt>
      <trkpt lat="43.54429" lon="6.77561">
        <ele>90.5</ele>
        <time>2019-12-10T10:19:29Z</time>
      </trkpt>
      <trkpt lat="43.54422" lon="6.77559">
        <ele>90</ele>
        <time>2019-12-10T10:19:31Z</time>
      </trkpt>
      <trkpt lat="43.54415" lon="6.77558">
        <ele>90</ele>
        <time>2019-12-10T10:19:33Z</time>
      </trkpt>
      <trkpt lat="43.54408" lon="6.77558">
        <ele>89.1</ele>
        <time>2019-12-10T10:19:35Z</time>
      </trkpt>
      <trkpt lat="43.54401" lon="6.77559">
        <ele>89.5</ele>
        <time>2019-12-10T10:19:37Z</time>
      </trkpt>
      <trkpt lat="43.54394" lon="6.7756">
        <ele>89.1</ele>
        <time>2019-12-10T10:19:39Z</time>
      </trkpt>
      <trkpt lat="43.54387" lon="6.77563">
        <ele>88.6</ele>
        <time>2019-12-10T10:19:41Z</time>
      </trkpt>
      <trkpt lat="43.54382" lon="6.77565">
        <ele>88.1</ele>
        <time>2019-12-10T10:19:43Z</time>
      </trkpt>
      <trkpt lat="43.54377" lon="6.77572">
        <ele>87.6</ele>
        <time>2019-12-10T10:19:45Z</time>
      </trkpt>
      <trkpt lat="43.54371" lon="6.77577">
        <ele>86.7</ele>
        <time>2019-12-10T10:19:47Z</time>
      </trkpt>
      <trkpt lat="43.54366" lon="6.77581">
        <ele>85.7</ele>
        <time>2019-12-10T10:19:49Z</time>
      </trkpt>
      <trkpt lat="43.54361" lon="6.77586">
        <ele>84.7</ele>
        <time>2019-12-10T10:19:51Z</time>
      </trkpt>
      <trkpt lat="43.54356" lon="6.77593">
        <ele>84.3</ele>
        <time>2019-12-10T10:19:53Z</time>
      </trkpt>
      <trkpt lat="43.54351" lon="6.77599">
        <ele>82.8</ele>
        <time>2019-12-10T10:19:55Z</time>
      </trkpt>
      <trkpt lat="43.54346" lon="6.77605">
        <ele>82.3</ele>
        <time>2019-12-10T10:19:57Z</time>
      </trkpt>
      <trkpt lat="43.54339" lon="6.77612">
        <ele>85.2</ele>
        <time>2019-12-10T10:19:59Z</time>
      </trkpt>
      <trkpt lat="43.54333" lon="6.77618">
        <ele>85.7</ele>
        <time>2019-12-10T10:20:01Z</time>
      </trkpt>
      <trkpt lat="43.54327" lon="6.7762">
        <ele>85.7</ele>
        <time>2019-12-10T10:20:03Z</time>
      </trkpt>
      <trkpt lat="43.5432" lon="6.7762">
        <ele>85.2</ele>
        <time>2019-12-10T10:20:05Z</time>
      </trkpt>
      <trkpt lat="43.54312" lon="6.77621">
        <ele>84.7</ele>
        <time>2019-12-10T10:20:07Z</time>
      </trkpt>
      <trkpt lat="43.54305" lon="6.7762">
        <ele>84.3</ele>
        <time>2019-12-10T10:20:09Z</time>
      </trkpt>
      <trkpt lat="43.54299" lon="6.77618">
        <ele>83.3</ele>
        <time>2019-12-10T10:20:11Z</time>
      </trkpt>
      <trkpt lat="43.54293" lon="6.77616">
        <ele>82.8</ele>
        <time>2019-12-10T10:20:13Z</time>
      </trkpt>
      <trkpt lat="43.54286" lon="6.77615">
        <ele>81.8</ele>
        <time>2019-12-10T10:20:15Z</time>
      </trkpt>
      <trkpt lat="43.54278" lon="6.77615">
        <ele>80.9</ele>
        <time>2019-12-10T10:20:17Z</time>
      </trkpt>
      <trkpt lat="43.54271" lon="6.77616">
        <ele>80.4</ele>
        <time>2019-12-10T10:20:19Z</time>
      </trkpt>
      <trkpt lat="43.54263" lon="6.77615">
        <ele>79.4</ele>
        <time>2019-12-10T10:20:21Z</time>
      </trkpt>
      <trkpt lat="43.54256" lon="6.77615">
        <ele>79.4</ele>
        <time>2019-12-10T10:20:23Z</time>
      </trkpt>
      <trkpt lat="43.5425" lon="6.77614">
        <ele>78.5</ele>
        <time>2019-12-10T10:20:25Z</time>
      </trkpt>
      <trkpt lat="43.54243" lon="6.77613">
        <ele>77.5</ele>
        <time>2019-12-10T10:20:27Z</time>
      </trkpt>
      <trkpt lat="43.54236" lon="6.77612">
        <ele>77</ele>
        <time>2019-12-10T10:20:29Z</time>
      </trkpt>
      <trkpt lat="43.54227" lon="6.77616">
        <ele>81.8</ele>
        <time>2019-12-10T10:20:31Z</time>
      </trkpt>
      <trkpt lat="43.54219" lon="6.77619">
        <ele>81.8</ele>
        <time>2019-12-10T10:20:33Z</time>
      </trkpt>
      <trkpt lat="43.54212" lon="6.77622">
        <ele>81.8</ele>
        <time>2019-12-10T10:20:35Z</time>
      </trkpt>
      <trkpt lat="43.54206" lon="6.77627">
        <ele>81.4</ele>
        <time>2019-12-10T10:20:37Z</time>
      </trkpt>
      <trkpt lat="43.54201" lon="6.77634">
        <ele>81.4</ele>
        <time>2019-12-10T10:20:39Z</time>
      </trkpt>
      <trkpt lat="43.54196" lon="6.77639">
        <ele>80.9</ele>
        <time>2019-12-10T10:20:41Z</time>
      </trkpt>
      <trkpt lat="43.54189" lon="6.77644">
        <ele>82.3</ele>
        <time>2019-12-10T10:20:43Z</time>
      </trkpt>
      <trkpt lat="43.54183" lon="6.77648">
        <ele>82.3</ele>
        <time>2019-12-10T10:20:45Z</time>
      </trkpt>
      <trkpt lat="43.54176" lon="6.7765">
        <ele>82.3</ele>
        <time>2019-12-10T10:20:47Z</time>
      </trkpt>
      <trkpt lat="43.5417" lon="6.7765">
        <ele>82.8</ele>
        <time>2019-12-10T10:20:49Z</time>
      </trkpt>
      <trkpt lat="43.54163" lon="6.7765">
        <ele>82.3</ele>
        <time>2019-12-10T10:20:51Z</time>
      </trkpt>
      <trkpt lat="43.54157" lon="6.77649">
        <ele>81.8</ele>
        <time>2019-12-10T10:20:53Z</time>
      </trkpt>
      <trkpt lat="43.5415" lon="6.77652">
        <ele>82.3</ele>
        <time>2019-12-10T10:20:55Z</time>
      </trkpt>
      <trkpt lat="43.54143" lon="6.77654">
        <ele>82.8</ele>
        <time>2019-12-10T10:20:57Z</time>
      </trkpt>
      <trkpt lat="43.54136" lon="6.77657">
        <ele>82.8</ele>
        <time>2019-12-10T10:20:59Z</time>
      </trkpt>
      <trkpt lat="43.54129" lon="6.77659">
        <ele>82.8</ele>
        <time>2019-12-10T10:21:01Z</time>
      </trkpt>
      <trkpt lat="43.54122" lon="6.77662">
        <ele>82.8</ele>
        <time>2019-12-10T10:21:03Z</time>
      </trkpt>
      <trkpt lat="43.54114" lon="6.77664">
        <ele>82.3</ele>
        <time>2019-12-10T10:21:05Z</time>
      </trkpt>
      <trkpt lat="43.54107" lon="6.77666">
        <ele>82.3</ele>
        <time>2019-12-10T10:21:07Z</time>
      </trkpt>
      <trkpt lat="43.541" lon="6.77669">
        <ele>82.3</ele>
        <time>2019-12-10T10:21:09Z</time>
      </trkpt>
      <trkpt lat="43.54093" lon="6.77671">
        <ele>81.8</ele>
        <time>2019-12-10T10:21:11Z</time>
      </trkpt>
      <trkpt lat="43.54086" lon="6.77674">
        <ele>81.8</ele>
        <time>2019-12-10T10:21:13Z</time>
      </trkpt>
      <trkpt lat="43.54079" lon="6.77676">
        <ele>81.8</ele>
        <time>2019-12-10T10:21:15Z</time>
      </trkpt>
      <trkpt lat="43.54073" lon="6.77679">
        <ele>81.4</ele>
        <time>2019-12-10T10:21:17Z</time>
      </trkpt>
      <trkpt lat="43.54067" lon="6.77682">
        <ele>82.3</ele>
        <time>2019-12-10T10:21:19Z</time>
      </trkpt>
      <trkpt lat="43.54061" lon="6.77685">
        <ele>82.3</ele>
        <time>2019-12-10T10:21:21Z</time>
      </trkpt>
      <trkpt lat="43.54055" lon="6.77687">
        <ele>82.3</ele>
        <time>2019-12-10T10:21:23Z</time>
      </trkpt>
      <trkpt lat="43.54052" lon="6.77689">
        <ele>82.3</ele>
        <time>2019-12-10T10:21:25Z</time>
      </trkpt>
      <trkpt lat="43.5405" lon="6.7769">
        <ele>82.8</ele>
        <time>2019-12-10T10:21:27Z</time>
      </trkpt>
      <trkpt lat="43.5405" lon="6.7769">
        <ele>82.8</ele>
        <time>2019-12-10T10:21:29Z</time>
      </trkpt>
      <trkpt lat="43.54051" lon="6.7769">
        <ele>82.8</ele>
        <time>2019-12-10T10:21:31Z</time>
      </trkpt>
      <trkpt lat="43.54051" lon="6.7769">
        <ele>82.8</ele>
        <time>2019-12-10T10:21:33Z</time>
      </trkpt>
      <trkpt lat="43.54051" lon="6.7769">
        <ele>82.8</ele>
        <time>2019-12-10T10:21:35Z</time>
      </trkpt>
      <trkpt lat="43.54051" lon="6.7769">
        <ele>82.8</ele>
        <time>2019-12-10T10:21:37Z</time>
      </trkpt>
      <trkpt lat="43.54051" lon="6.7769">
        <ele>82.8</ele>
        <time>2019-12-10T10:21:39Z</time>
      </trkpt>
      <trkpt lat="43.54051" lon="6.7769">
        <ele>82.8</ele>
        <time>2019-12-10T10:21:41Z</time>
      </trkpt>
      <trkpt lat="43.54051" lon="6.7769">
        <ele>82.8</ele>
        <time>2019-12-10T10:21:43Z</time>
      </trkpt>
      <trkpt lat="43.54051" lon="6.7769">
        <ele>82.8</ele>
        <time>2019-12-10T10:21:45Z</time>
      </trkpt>
      <trkpt lat="43.54051" lon="6.7769">
        <ele>82.8</ele>
        <time>2019-12-10T10:21:47Z</time>
      </trkpt>
      <trkpt lat="43.54051" lon="6.7769">
        <ele>82.8</ele>
        <time>2019-12-10T10:21:49Z</time>
      </trkpt>
      <trkpt lat="43.54051" lon="6.7769">
        <ele>82.8</ele>
        <time>2019-12-10T10:21:51Z</time>
      </trkpt>
      <trkpt lat="43.54051" lon="6.7769">
        <ele>82.8</ele>
        <time>2019-12-10T10:21:53Z</time>
      </trkpt>
      <trkpt lat="43.54051" lon="6.7769">
        <ele>82.8</ele>
        <time>2019-12-10T10:21:55Z</time>
      </trkpt>
      <trkpt lat="43.54051" lon="6.7769">
        <ele>82.8</ele>
        <time>2019-12-10T10:21:57Z</time>
      </trkpt>
      <trkpt lat="43.54051" lon="6.7769">
        <ele>82.8</ele>
        <time>2019-12-10T10:21:59Z</time>
      </trkpt>
      <trkpt lat="43.54051" lon="6.7769">
        <ele>82.8</ele>
        <time>2019-12-10T10:22:01Z</time>
      </trkpt>
      <trkpt lat="43.54051" lon="6.7769">
        <ele>82.8</ele>
        <time>2019-12-10T10:22:03Z</time>
      </trkpt>
      <trkpt lat="43.54051" lon="6.7769">
        <ele>82.8</ele>
        <time>2019-12-10T10:22:05Z</time>
      </trkpt>
      <trkpt lat="43.54051" lon="6.7769">
        <ele>82.8</ele>
        <time>2019-12-10T10:22:07Z</time>
      </trkpt>
      <trkpt lat="43.54051" lon="6.7769">
        <ele>82.8</ele>
        <time>2019-12-10T10:22:09Z</time>
      </trkpt>
      <trkpt lat="43.54051" lon="6.7769">
        <ele>82.8</ele>
        <time>2019-12-10T10:22:11Z</time>
      </trkpt>
      <trkpt lat="43.54051" lon="6.7769">
        <ele>82.8</ele>
        <time>2019-12-10T10:22:13Z</time>
      </trkpt>
      <trkpt lat="43.54051" lon="6.7769">
        <ele>82.8</ele>
        <time>2019-12-10T10:22:15Z</time>
      </trkpt>
      <trkpt lat="43.54051" lon="6.7769">
        <ele>82.8</ele>
        <time>2019-12-10T10:22:17Z</time>
      </trkpt>
      <trkpt lat="43.5405" lon="6.7769">
        <ele>82.8</ele>
        <time>2019-12-10T10:22:19Z</time>
      </trkpt>
      <trkpt lat="43.5405" lon="6.7769">
        <ele>82.8</ele>
        <time>2019-12-10T10:22:21Z</time>
      </trkpt>
      <trkpt lat="43.54049" lon="6.7769">
        <ele>82.3</ele>
        <time>2019-12-10T10:22:23Z</time>
      </trkpt>
      <trkpt lat="43.54048" lon="6.77687">
        <ele>82.3</ele>
        <time>2019-12-10T10:22:25Z</time>
      </trkpt>
      <trkpt lat="43.54049" lon="6.77684">
        <ele>82.3</ele>
        <time>2019-12-10T10:22:27Z</time>
      </trkpt>
      <trkpt lat="43.54053" lon="6.77684">
        <ele>81.8</ele>
        <time>2019-12-10T10:22:29Z</time>
      </trkpt>
      <trkpt lat="43.54056" lon="6.77684">
        <ele>81.8</ele>
        <time>2019-12-10T10:22:31Z</time>
      </trkpt>
      <trkpt lat="43.54061" lon="6.77685">
        <ele>81.8</ele>
        <time>2019-12-10T10:22:33Z</time>
      </trkpt>
      <trkpt lat="43.54065" lon="6.77685">
        <ele>81.8</ele>
        <time>2019-12-10T10:22:35Z</time>
      </trkpt>
      <trkpt lat="43.54069" lon="6.77684">
        <ele>82.3</ele>
        <time>2019-12-10T10:22:37Z</time>
      </trkpt>
      <trkpt lat="43.54073" lon="6.77681">
        <ele>82.3</ele>
        <time>2019-12-10T10:22:39Z</time>
      </trkpt>
      <trkpt lat="43.54077" lon="6.77679">
        <ele>82.3</ele>
        <time>2019-12-10T10:22:41Z</time>
      </trkpt>
      <trkpt lat="43.54082" lon="6.77677">
        <ele>82.3</ele>
        <time>2019-12-10T10:22:43Z</time>
      </trkpt>
      <trkpt lat="43.54087" lon="6.77675">
        <ele>82.3</ele>
        <time>2019-12-10T10:22:45Z</time>
      </trkpt>
      <trkpt lat="43.54093" lon="6.77673">
        <ele>82.3</ele>
        <time>2019-12-10T10:22:47Z</time>
      </trkpt>
      <trkpt lat="43.54098" lon="6.77671">
        <ele>82.3</ele>
        <time>2019-12-10T10:22:49Z</time>
      </trkpt>
      <trkpt lat="43.54103" lon="6.77669">
        <ele>82.3</ele>
        <time>2019-12-10T10:22:51Z</time>
      </trkpt>
      <trkpt lat="43.54109" lon="6.77667">
        <ele>82.3</ele>
        <time>2019-12-10T10:22:53Z</time>
      </trkpt>
      <trkpt lat="43.54114" lon="6.77665">
        <ele>82.3</ele>
        <time>2019-12-10T10:22:55Z</time>
      </trkpt>
      <trkpt lat="43.54119" lon="6.77663">
        <ele>82.3</ele>
        <time>2019-12-10T10:22:57Z</time>
      </trkpt>
      <trkpt lat="43.54125" lon="6.77661">
        <ele>82.8</ele>
        <time>2019-12-10T10:22:59Z</time>
      </trkpt>
      <trkpt lat="43.5413" lon="6.77659">
        <ele>82.8</ele>
        <time>2019-12-10T10:23:01Z</time>
      </trkpt>
      <trkpt lat="43.54135" lon="6.77657">
        <ele>82.8</ele>
        <time>2019-12-10T10:23:03Z</time>
      </trkpt>
      <trkpt lat="43.5414" lon="6.77656">
        <ele>83.3</ele>
        <time>2019-12-10T10:23:05Z</time>
      </trkpt>
      <trkpt lat="43.54145" lon="6.77655">
        <ele>83.3</ele>
        <time>2019-12-10T10:23:07Z</time>
      </trkpt>
      <trkpt lat="43.54151" lon="6.77653">
        <ele>83.3</ele>
        <time>2019-12-10T10:23:09Z</time>
      </trkpt>
      <trkpt lat="43.54156" lon="6.77652">
        <ele>83.3</ele>
        <time>2019-12-10T10:23:11Z</time>
      </trkpt>
      <trkpt lat="43.54162" lon="6.77652">
        <ele>83.3</ele>
        <time>2019-12-10T10:23:13Z</time>
      </trkpt>
      <trkpt lat="43.54168" lon="6.77651">
        <ele>83.8</ele>
        <time>2019-12-10T10:23:15Z</time>
      </trkpt>
      <trkpt lat="43.54173" lon="6.77651">
        <ele>83.8</ele>
        <time>2019-12-10T10:23:17Z</time>
      </trkpt>
      <trkpt lat="43.54179" lon="6.77649">
        <ele>83.8</ele>
        <time>2019-12-10T10:23:19Z</time>
      </trkpt>
      <trkpt lat="43.54184" lon="6.77647">
        <ele>83.8</ele>
        <time>2019-12-10T10:23:21Z</time>
      </trkpt>
      <trkpt lat="43.54189" lon="6.77643">
        <ele>83.8</ele>
        <time>2019-12-10T10:23:23Z</time>
      </trkpt>
      <trkpt lat="43.54194" lon="6.7764">
        <ele>83.8</ele>
        <time>2019-12-10T10:23:25Z</time>
      </trkpt>
      <trkpt lat="43.54199" lon="6.77636">
        <ele>83.8</ele>
        <time>2019-12-10T10:23:27Z</time>
      </trkpt>
      <trkpt lat="43.54203" lon="6.77631">
        <ele>83.8</ele>
        <time>2019-12-10T10:23:29Z</time>
      </trkpt>
      <trkpt lat="43.54207" lon="6.77626">
        <ele>83.8</ele>
        <time>2019-12-10T10:23:31Z</time>
      </trkpt>
      <trkpt lat="43.54213" lon="6.77621">
        <ele>83.8</ele>
        <time>2019-12-10T10:23:33Z</time>
      </trkpt>
      <trkpt lat="43.54218" lon="6.77618">
        <ele>83.8</ele>
        <time>2019-12-10T10:23:35Z</time>
      </trkpt>
      <trkpt lat="43.54224" lon="6.77616">
        <ele>84.3</ele>
        <time>2019-12-10T10:23:37Z</time>
      </trkpt>
      <trkpt lat="43.5423" lon="6.77614">
        <ele>84.3</ele>
        <time>2019-12-10T10:23:39Z</time>
      </trkpt>
      <trkpt lat="43.54236" lon="6.77613">
        <ele>84.3</ele>
        <time>2019-12-10T10:23:41Z</time>
      </trkpt>
      <trkpt lat="43.54242" lon="6.77613">
        <ele>84.7</ele>
        <time>2019-12-10T10:23:43Z</time>
      </trkpt>
      <trkpt lat="43.54248" lon="6.77613">
        <ele>84.7</ele>
        <time>2019-12-10T10:23:45Z</time>
      </trkpt>
      <trkpt lat="43.54254" lon="6.77614">
        <ele>84.7</ele>
        <time>2019-12-10T10:23:47Z</time>
      </trkpt>
      <trkpt lat="43.5426" lon="6.77615">
        <ele>84.7</ele>
        <time>2019-12-10T10:23:49Z</time>
      </trkpt>
      <trkpt lat="43.54266" lon="6.77615">
        <ele>85.2</ele>
        <time>2019-12-10T10:23:51Z</time>
      </trkpt>
      <trkpt lat="43.54272" lon="6.77615">
        <ele>85.2</ele>
        <time>2019-12-10T10:23:53Z</time>
      </trkpt>
      <trkpt lat="43.54278" lon="6.77616">
        <ele>85.7</ele>
        <time>2019-12-10T10:23:55Z</time>
      </trkpt>
      <trkpt lat="43.54283" lon="6.77616">
        <ele>86.2</ele>
        <time>2019-12-10T10:23:57Z</time>
      </trkpt>
      <trkpt lat="43.54289" lon="6.77617">
        <ele>86.7</ele>
        <time>2019-12-10T10:23:59Z</time>
      </trkpt>
      <trkpt lat="43.54294" lon="6.77617">
        <ele>87.6</ele>
        <time>2019-12-10T10:24:01Z</time>
      </trkpt>
      <trkpt lat="43.543" lon="6.77617">
        <ele>87.1</ele>
        <time>2019-12-10T10:24:03Z</time>
      </trkpt>
      <trkpt lat="43.54306" lon="6.77617">
        <ele>87.1</ele>
        <time>2019-12-10T10:24:05Z</time>
      </trkpt>
      <trkpt lat="43.54312" lon="6.77617">
        <ele>86.7</ele>
        <time>2019-12-10T10:24:07Z</time>
      </trkpt>
      <trkpt lat="43.54317" lon="6.77617">
        <ele>86.7</ele>
        <time>2019-12-10T10:24:09Z</time>
      </trkpt>
      <trkpt lat="43.54323" lon="6.77617">
        <ele>85.7</ele>
        <time>2019-12-10T10:24:11Z</time>
      </trkpt>
      <trkpt lat="43.54327" lon="6.77617">
        <ele>85.2</ele>
        <time>2019-12-10T10:24:13Z</time>
      </trkpt>
      <trkpt lat="43.54332" lon="6.77615">
        <ele>85.7</ele>
        <time>2019-12-10T10:24:15Z</time>
      </trkpt>
      <trkpt lat="43.54336" lon="6.77613">
        <ele>85.7</ele>
        <time>2019-12-10T10:24:17Z</time>
      </trkpt>
      <trkpt lat="43.54341" lon="6.77609">
        <ele>85.7</ele>
        <time>2019-12-10T10:24:19Z</time>
      </trkpt>
      <trkpt lat="43.54345" lon="6.77604">
        <ele>85.7</ele>
        <time>2019-12-10T10:24:21Z</time>
      </trkpt>
      <trkpt lat="43.5435" lon="6.77599">
        <ele>85.7</ele>
        <time>2019-12-10T10:24:23Z</time>
      </trkpt>
      <trkpt lat="43.54353" lon="6.77592">
        <ele>86.2</ele>
        <time>2019-12-10T10:24:25Z</time>
      </trkpt>
      <trkpt lat="43.54357" lon="6.77585">
        <ele>86.7</ele>
        <time>2019-12-10T10:24:27Z</time>
      </trkpt>
      <trkpt lat="43.54361" lon="6.7758">
        <ele>87.1</ele>
        <time>2019-12-10T10:24:29Z</time>
      </trkpt>
      <trkpt lat="43.54366" lon="6.77575">
        <ele>87.1</ele>
        <time>2019-12-10T10:24:31Z</time>
      </trkpt>
      <trkpt lat="43.54372" lon="6.7757">
        <ele>87.6</ele>
        <time>2019-12-10T10:24:33Z</time>
      </trkpt>
      <trkpt lat="43.54377" lon="6.77566">
        <ele>87.6</ele>
        <time>2019-12-10T10:24:35Z</time>
      </trkpt>
      <trkpt lat="43.54383" lon="6.77563">
        <ele>88.1</ele>
        <time>2019-12-10T10:24:37Z</time>
      </trkpt>
      <trkpt lat="43.5439" lon="6.77561">
        <ele>88.1</ele>
        <time>2019-12-10T10:24:39Z</time>
      </trkpt>
      <trkpt lat="43.54396" lon="6.77559">
        <ele>86.7</ele>
        <time>2019-12-10T10:24:41Z</time>
      </trkpt>
      <trkpt lat="43.54403" lon="6.77558">
        <ele>87.1</ele>
        <time>2019-12-10T10:24:43Z</time>
      </trkpt>
      <trkpt lat="43.54409" lon="6.77557">
        <ele>87.1</ele>
        <time>2019-12-10T10:24:45Z</time>
      </trkpt>
      <trkpt lat="43.54416" lon="6.77558">
        <ele>87.1</ele>
        <time>2019-12-10T10:24:47Z</time>
      </trkpt>
      <trkpt lat="43.54422" lon="6.77559">
        <ele>87.1</ele>
        <time>2019-12-10T10:24:49Z</time>
      </trkpt>
      <trkpt lat="43.54428" lon="6.7756">
        <ele>87.1</ele>
        <time>2019-12-10T10:24:51Z</time>
      </trkpt>
      <trkpt lat="43.54434" lon="6.77562">
        <ele>87.1</ele>
        <time>2019-12-10T10:24:53Z</time>
      </trkpt>
      <trkpt lat="43.5444" lon="6.77562">
        <ele>87.6</ele>
        <time>2019-12-10T10:24:55Z</time>
      </trkpt>
      <trkpt lat="43.54447" lon="6.77561">
        <ele>88.1</ele>
        <time>2019-12-10T10:24:57Z</time>
      </trkpt>
      <trkpt lat="43.54453" lon="6.7756">
        <ele>87.6</ele>
        <time>2019-12-10T10:24:59Z</time>
      </trkpt>
      <trkpt lat="43.54459" lon="6.77558">
        <ele>87.6</ele>
        <time>2019-12-10T10:25:01Z</time>
      </trkpt>
      <trkpt lat="43.54464" lon="6.77555">
        <ele>88.1</ele>
        <time>2019-12-10T10:25:03Z</time>
      </trkpt>
      <trkpt lat="43.5447" lon="6.77552">
        <ele>87.6</ele>
        <time>2019-12-10T10:25:05Z</time>
      </trkpt>
      <trkpt lat="43.54475" lon="6.77548">
        <ele>88.1</ele>
        <time>2019-12-10T10:25:07Z</time>
      </trkpt>
      <trkpt lat="43.5448" lon="6.77544">
        <ele>88.6</ele>
        <time>2019-12-10T10:25:09Z</time>
      </trkpt>
      <trkpt lat="43.54485" lon="6.7754">
        <ele>89.1</ele>
        <time>2019-12-10T10:25:11Z</time>
      </trkpt>
      <trkpt lat="43.5449" lon="6.77536">
        <ele>89.5</ele>
        <time>2019-12-10T10:25:13Z</time>
      </trkpt>
      <trkpt lat="43.54496" lon="6.77532">
        <ele>89.5</ele>
        <time>2019-12-10T10:25:15Z</time>
      </trkpt>
      <trkpt lat="43.54501" lon="6.77527">
        <ele>89.5</ele>
        <time>2019-12-10T10:25:17Z</time>
      </trkpt>
      <trkpt lat="43.54506" lon="6.77522">
        <ele>89.5</ele>
        <time>2019-12-10T10:25:19Z</time>
      </trkpt>
      <trkpt lat="43.5451" lon="6.77516">
        <ele>90</ele>
        <time>2019-12-10T10:25:21Z</time>
      </trkpt>
      <trkpt lat="43.54515" lon="6.77512">
        <ele>90.5</ele>
        <time>2019-12-10T10:25:23Z</time>
      </trkpt>
      <trkpt lat="43.5452" lon="6.77506">
        <ele>90.5</ele>
        <time>2019-12-10T10:25:25Z</time>
      </trkpt>
      <trkpt lat="43.54524" lon="6.775">
        <ele>90.5</ele>
        <time>2019-12-10T10:25:27Z</time>
      </trkpt>
      <trkpt lat="43.54526" lon="6.77492">
        <ele>90.5</ele>
        <time>2019-12-10T10:25:29Z</time>
      </trkpt>
      <trkpt lat="43.54529" lon="6.77483">
        <ele>90.5</ele>
        <time>2019-12-10T10:25:31Z</time>
      </trkpt>
      <trkpt lat="43.5453" lon="6.77474">
        <ele>91</ele>
        <time>2019-12-10T10:25:33Z</time>
      </trkpt>
      <trkpt lat="43.54532" lon="6.77466">
        <ele>91</ele>
        <time>2019-12-10T10:25:35Z</time>
      </trkpt>
      <trkpt lat="43.54535" lon="6.77459">
        <ele>90</ele>
        <time>2019-12-10T10:25:37Z</time>
      </trkpt>
      <trkpt lat="43.54537" lon="6.77451">
        <ele>90</ele>
        <time>2019-12-10T10:25:39Z</time>
      </trkpt>
      <trkpt lat="43.54541" lon="6.77444">
        <ele>90.5</ele>
        <time>2019-12-10T10:25:41Z</time>
      </trkpt>
      <trkpt lat="43.54547" lon="6.7744">
        <ele>90.5</ele>
        <time>2019-12-10T10:25:43Z</time>
      </trkpt>
      <trkpt lat="43.54552" lon="6.77435">
        <ele>90.5</ele>
        <time>2019-12-10T10:25:45Z</time>
      </trkpt>
      <trkpt lat="43.54557" lon="6.77431">
        <ele>91</ele>
        <time>2019-12-10T10:25:47Z</time>
      </trkpt>
      <trkpt lat="43.54563" lon="6.77428">
        <ele>91.5</ele>
        <time>2019-12-10T10:25:49Z</time>
      </trkpt>
      <trkpt lat="43.54568" lon="6.77425">
        <ele>91.5</ele>
        <time>2019-12-10T10:25:51Z</time>
      </trkpt>
      <trkpt lat="43.54573" lon="6.77421">
        <ele>91.5</ele>
        <time>2019-12-10T10:25:53Z</time>
      </trkpt>
      <trkpt lat="43.54578" lon="6.77417">
        <ele>91.9</ele>
        <time>2019-12-10T10:25:55Z</time>
      </trkpt>
      <trkpt lat="43.54583" lon="6.77413">
        <ele>92.4</ele>
        <time>2019-12-10T10:25:57Z</time>
      </trkpt>
      <trkpt lat="43.54587" lon="6.77407">
        <ele>92.9</ele>
        <time>2019-12-10T10:25:59Z</time>
      </trkpt>
      <trkpt lat="43.54591" lon="6.774">
        <ele>92.9</ele>
        <time>2019-12-10T10:26:01Z</time>
      </trkpt>
      <trkpt lat="43.54594" lon="6.77392">
        <ele>92.9</ele>
        <time>2019-12-10T10:26:03Z</time>
      </trkpt>
      <trkpt lat="43.54595" lon="6.77384">
        <ele>93.9</ele>
        <time>2019-12-10T10:26:05Z</time>
      </trkpt>
      <trkpt lat="43.54598" lon="6.77376">
        <ele>93.9</ele>
        <time>2019-12-10T10:26:07Z</time>
      </trkpt>
      <trkpt lat="43.54602" lon="6.77369">
        <ele>93.9</ele>
        <time>2019-12-10T10:26:09Z</time>
      </trkpt>
      <trkpt lat="43.54606" lon="6.77361">
        <ele>93.9</ele>
        <time>2019-12-10T10:26:11Z</time>
      </trkpt>
      <trkpt lat="43.54609" lon="6.77354">
        <ele>94.3</ele>
        <time>2019-12-10T10:26:13Z</time>
      </trkpt>
      <trkpt lat="43.54612" lon="6.77347">
        <ele>94.3</ele>
        <time>2019-12-10T10:26:15Z</time>
      </trkpt>
      <trkpt lat="43.54616" lon="6.7734">
        <ele>94.8</ele>
        <time>2019-12-10T10:26:17Z</time>
      </trkpt>
      <trkpt lat="43.5462" lon="6.77334">
        <ele>94.8</ele>
        <time>2019-12-10T10:26:19Z</time>
      </trkpt>
      <trkpt lat="43.54624" lon="6.77328">
        <ele>95.3</ele>
        <time>2019-12-10T10:26:21Z</time>
      </trkpt>
      <trkpt lat="43.54628" lon="6.77321">
        <ele>95.8</ele>
        <time>2019-12-10T10:26:23Z</time>
      </trkpt>
      <trkpt lat="43.54632" lon="6.77314">
        <ele>95.8</ele>
        <time>2019-12-10T10:26:25Z</time>
      </trkpt>
      <trkpt lat="43.54636" lon="6.77308">
        <ele>96.3</ele>
        <time>2019-12-10T10:26:27Z</time>
      </trkpt>
      <trkpt lat="43.5464" lon="6.77301">
        <ele>97.2</ele>
        <time>2019-12-10T10:26:29Z</time>
      </trkpt>
      <trkpt lat="43.54643" lon="6.77296">
        <ele>97.7</ele>
        <time>2019-12-10T10:26:31Z</time>
      </trkpt>
      <trkpt lat="43.54646" lon="6.77291">
        <ele>98.2</ele>
        <time>2019-12-10T10:26:33Z</time>
      </trkpt>
      <trkpt lat="43.54649" lon="6.77286">
        <ele>98.7</ele>
        <time>2019-12-10T10:26:35Z</time>
      </trkpt>
      <trkpt lat="43.54653" lon="6.7728">
        <ele>99.2</ele>
        <time>2019-12-10T10:26:37Z</time>
      </trkpt>
      <trkpt lat="43.54657" lon="6.77274">
        <ele>99.6</ele>
        <time>2019-12-10T10:26:39Z</time>
      </trkpt>
      <trkpt lat="43.5466" lon="6.77268">
        <ele>100.1</ele>
        <time>2019-12-10T10:26:41Z</time>
      </trkpt>
      <trkpt lat="43.54665" lon="6.77263">
        <ele>101.1</ele>
        <time>2019-12-10T10:26:43Z</time>
      </trkpt>
      <trkpt lat="43.5467" lon="6.77258">
        <ele>101.1</ele>
        <time>2019-12-10T10:26:45Z</time>
      </trkpt>
      <trkpt lat="43.54675" lon="6.77253">
        <ele>100.6</ele>
        <time>2019-12-10T10:26:47Z</time>
      </trkpt>
      <trkpt lat="43.54681" lon="6.77249">
        <ele>101.1</ele>
        <time>2019-12-10T10:26:49Z</time>
      </trkpt>
      <trkpt lat="43.54687" lon="6.77246">
        <ele>102</ele>
        <time>2019-12-10T10:26:51Z</time>
      </trkpt>
      <trkpt lat="43.54692" lon="6.77243">
        <ele>103</ele>
        <time>2019-12-10T10:26:53Z</time>
      </trkpt>
      <trkpt lat="43.54697" lon="6.7724">
        <ele>104</ele>
        <time>2019-12-10T10:26:55Z</time>
      </trkpt>
      <trkpt lat="43.54701" lon="6.77235">
        <ele>104</ele>
        <time>2019-12-10T10:26:57Z</time>
      </trkpt>
      <trkpt lat="43.54707" lon="6.77229">
        <ele>103</ele>
        <time>2019-12-10T10:26:59Z</time>
      </trkpt>
      <trkpt lat="43.54713" lon="6.77224">
        <ele>103.5</ele>
        <time>2019-12-10T10:27:01Z</time>
      </trkpt>
      <trkpt lat="43.54719" lon="6.77217">
        <ele>104.4</ele>
        <time>2019-12-10T10:27:03Z</time>
      </trkpt>
      <trkpt lat="43.54724" lon="6.77211">
        <ele>104.4</ele>
        <time>2019-12-10T10:27:05Z</time>
      </trkpt>
      <trkpt lat="43.5473" lon="6.77206">
        <ele>104.4</ele>
        <time>2019-12-10T10:27:07Z</time>
      </trkpt>
      <trkpt lat="43.54735" lon="6.77199">
        <ele>104.4</ele>
        <time>2019-12-10T10:27:09Z</time>
      </trkpt>
      <trkpt lat="43.54741" lon="6.77194">
        <ele>104</ele>
        <time>2019-12-10T10:27:11Z</time>
      </trkpt>
      <trkpt lat="43.54745" lon="6.77188">
        <ele>104</ele>
        <time>2019-12-10T10:27:13Z</time>
      </trkpt>
      <trkpt lat="43.5475" lon="6.77181">
        <ele>104</ele>
        <time>2019-12-10T10:27:15Z</time>
      </trkpt>
      <trkpt lat="43.54755" lon="6.77175">
        <ele>104.4</ele>
        <time>2019-12-10T10:27:17Z</time>
      </trkpt>
      <trkpt lat="43.54759" lon="6.77169">
        <ele>104.4</ele>
        <time>2019-12-10T10:27:19Z</time>
      </trkpt>
      <trkpt lat="43.54764" lon="6.77164">
        <ele>103.5</ele>
        <time>2019-12-10T10:27:21Z</time>
      </trkpt>
      <trkpt lat="43.54768" lon="6.77158">
        <ele>102</ele>
        <time>2019-12-10T10:27:23Z</time>
      </trkpt>
      <trkpt lat="43.54771" lon="6.77153">
        <ele>101.1</ele>
        <time>2019-12-10T10:27:25Z</time>
      </trkpt>
      <trkpt lat="43.54771" lon="6.77146">
        <ele>101.1</ele>
        <time>2019-12-10T10:27:27Z</time>
      </trkpt>
      <trkpt lat="43.54768" lon="6.77143">
        <ele>101.1</ele>
        <time>2019-12-10T10:27:29Z</time>
      </trkpt>
      <trkpt lat="43.54766" lon="6.77143">
        <ele>102</ele>
        <time>2019-12-10T10:27:31Z</time>
      </trkpt>
      <trkpt lat="43.54766" lon="6.77144">
        <ele>101.6</ele>
        <time>2019-12-10T10:27:33Z</time>
      </trkpt>
      <trkpt lat="43.54766" lon="6.77145">
        <ele>102</ele>
        <time>2019-12-10T10:27:35Z</time>
      </trkpt>
      <trkpt lat="43.54766" lon="6.77145">
        <ele>102</ele>
        <time>2019-12-10T10:27:37Z</time>
      </trkpt>
      <trkpt lat="43.54766" lon="6.77145">
        <ele>102</ele>
        <time>2019-12-10T10:27:39Z</time>
      </trkpt>
      <trkpt lat="43.54766" lon="6.77145">
        <ele>102</ele>
        <time>2019-12-10T10:27:41Z</time>
      </trkpt>
      <trkpt lat="43.54766" lon="6.77145">
        <ele>102</ele>
        <time>2019-12-10T10:27:43Z</time>
      </trkpt>
      <trkpt lat="43.54766" lon="6.77145">
        <ele>102</ele>
        <time>2019-12-10T10:27:45Z</time>
      </trkpt>
      <trkpt lat="43.54766" lon="6.77145">
        <ele>102</ele>
        <time>2019-12-10T10:27:47Z</time>
      </trkpt>
      <trkpt lat="43.54766" lon="6.77145">
        <ele>102</ele>
        <time>2019-12-10T10:27:49Z</time>
      </trkpt>
      <trkpt lat="43.54766" lon="6.77145">
        <ele>102</ele>
        <time>2019-12-10T10:27:51Z</time>
      </trkpt>
      <trkpt lat="43.54765" lon="6.77145">
        <ele>102.5</ele>
        <time>2019-12-10T10:27:53Z</time>
      </trkpt>
      <trkpt lat="43.54763" lon="6.77147">
        <ele>102.5</ele>
        <time>2019-12-10T10:27:55Z</time>
      </trkpt>
      <trkpt lat="43.5476" lon="6.7715">
        <ele>103</ele>
        <time>2019-12-10T10:27:57Z</time>
      </trkpt>
      <trkpt lat="43.54756" lon="6.77152">
        <ele>104</ele>
        <time>2019-12-10T10:27:59Z</time>
      </trkpt>
      <trkpt lat="43.54753" lon="6.77156">
        <ele>104.4</ele>
        <time>2019-12-10T10:28:01Z</time>
      </trkpt>
      <trkpt lat="43.5475" lon="6.77159">
        <ele>104.4</ele>
        <time>2019-12-10T10:28:03Z</time>
      </trkpt>
      <trkpt lat="43.54747" lon="6.77162">
        <ele>104.4</ele>
        <time>2019-12-10T10:28:05Z</time>
      </trkpt>
      <trkpt lat="43.54744" lon="6.77165">
        <ele>104</ele>
        <time>2019-12-10T10:28:07Z</time>
      </trkpt>
      <trkpt lat="43.5474" lon="6.77169">
        <ele>103</ele>
        <time>2019-12-10T10:28:09Z</time>
      </trkpt>
      <trkpt lat="43.54735" lon="6.77172">
        <ele>102.5</ele>
        <time>2019-12-10T10:28:11Z</time>
      </trkpt>
      <trkpt lat="43.54731" lon="6.77173">
        <ele>102.5</ele>
        <time>2019-12-10T10:28:13Z</time>
      </trkpt>
      <trkpt lat="43.54728" lon="6.77174">
        <ele>102.5</ele>
        <time>2019-12-10T10:28:15Z</time>
      </trkpt>
      <trkpt lat="43.54724" lon="6.77174">
        <ele>102.5</ele>
        <time>2019-12-10T10:28:17Z</time>
      </trkpt>
      <trkpt lat="43.5472" lon="6.77171">
        <ele>103</ele>
        <time>2019-12-10T10:28:19Z</time>
      </trkpt>
      <trkpt lat="43.54718" lon="6.77166">
        <ele>102.5</ele>
        <time>2019-12-10T10:28:21Z</time>
      </trkpt>
      <trkpt lat="43.54716" lon="6.77161">
        <ele>105.4</ele>
        <time>2019-12-10T10:28:23Z</time>
      </trkpt>
      <trkpt lat="43.54716" lon="6.77155">
        <ele>105.9</ele>
        <time>2019-12-10T10:28:25Z</time>
      </trkpt>
      <trkpt lat="43.54715" lon="6.77148">
        <ele>106.8</ele>
        <time>2019-12-10T10:28:27Z</time>
      </trkpt>
      <trkpt lat="43.54718" lon="6.77143">
        <ele>106.8</ele>
        <time>2019-12-10T10:28:29Z</time>
      </trkpt>
      <trkpt lat="43.54721" lon="6.77139">
        <ele>107.3</ele>
        <time>2019-12-10T10:28:31Z</time>
      </trkpt>
      <trkpt lat="43.54723" lon="6.77135">
        <ele>106.8</ele>
        <time>2019-12-10T10:28:33Z</time>
      </trkpt>
      <trkpt lat="43.54726" lon="6.7713">
        <ele>106.8</ele>
        <time>2019-12-10T10:28:35Z</time>
      </trkpt>
      <trkpt lat="43.54728" lon="6.77125">
        <ele>105.9</ele>
        <time>2019-12-10T10:28:37Z</time>
      </trkpt>
      <trkpt lat="43.54729" lon="6.77119">
        <ele>105.9</ele>
        <time>2019-12-10T10:28:39Z</time>
      </trkpt>
      <trkpt lat="43.5473" lon="6.77114">
        <ele>105.9</ele>
        <time>2019-12-10T10:28:41Z</time>
      </trkpt>
      <trkpt lat="43.54731" lon="6.77108">
        <ele>105.9</ele>
        <time>2019-12-10T10:28:43Z</time>
      </trkpt>
      <trkpt lat="43.54732" lon="6.77101">
        <ele>106.4</ele>
        <time>2019-12-10T10:28:45Z</time>
      </trkpt>
      <trkpt lat="43.54733" lon="6.77097">
        <ele>106.4</ele>
        <time>2019-12-10T10:28:47Z</time>
      </trkpt>
      <trkpt lat="43.54735" lon="6.77091">
        <ele>106.8</ele>
        <time>2019-12-10T10:28:49Z</time>
      </trkpt>
      <trkpt lat="43.54736" lon="6.77086">
        <ele>107.3</ele>
        <time>2019-12-10T10:28:51Z</time>
      </trkpt>
      <trkpt lat="43.54737" lon="6.77081">
        <ele>107.8</ele>
        <time>2019-12-10T10:28:53Z</time>
      </trkpt>
      <trkpt lat="43.54737" lon="6.77075">
        <ele>107.8</ele>
        <time>2019-12-10T10:28:55Z</time>
      </trkpt>
      <trkpt lat="43.54739" lon="6.77069">
        <ele>107.8</ele>
        <time>2019-12-10T10:28:57Z</time>
      </trkpt>
      <trkpt lat="43.54741" lon="6.77064">
        <ele>108.8</ele>
        <time>2019-12-10T10:28:59Z</time>
      </trkpt>
      <trkpt lat="43.54741" lon="6.77059">
        <ele>109.2</ele>
        <time>2019-12-10T10:29:01Z</time>
      </trkpt>
      <trkpt lat="43.54739" lon="6.77055">
        <ele>109.7</ele>
        <time>2019-12-10T10:29:03Z</time>
      </trkpt>
      <trkpt lat="43.54737" lon="6.77052">
        <ele>110.7</ele>
        <time>2019-12-10T10:29:05Z</time>
      </trkpt>
      <trkpt lat="43.54734" lon="6.77048">
        <ele>111.7</ele>
        <time>2019-12-10T10:29:07Z</time>
      </trkpt>
      <trkpt lat="43.54731" lon="6.77045">
        <ele>113.6</ele>
        <time>2019-12-10T10:29:09Z</time>
      </trkpt>
      <trkpt lat="43.54728" lon="6.77043">
        <ele>115</ele>
        <time>2019-12-10T10:29:11Z</time>
      </trkpt>
      <trkpt lat="43.54724" lon="6.77041">
        <ele>116.5</ele>
        <time>2019-12-10T10:29:13Z</time>
      </trkpt>
      <trkpt lat="43.5472" lon="6.77041">
        <ele>117.4</ele>
        <time>2019-12-10T10:29:15Z</time>
      </trkpt>
      <trkpt lat="43.54715" lon="6.7704">
        <ele>117.9</ele>
        <time>2019-12-10T10:29:17Z</time>
      </trkpt>
      <trkpt lat="43.54711" lon="6.7704">
        <ele>118.9</ele>
        <time>2019-12-10T10:29:19Z</time>
      </trkpt>
      <trkpt lat="43.54707" lon="6.77039">
        <ele>119.8</ele>
        <time>2019-12-10T10:29:21Z</time>
      </trkpt>
      <trkpt lat="43.54703" lon="6.77039">
        <ele>120.3</ele>
        <time>2019-12-10T10:29:23Z</time>
      </trkpt>
      <trkpt lat="43.54699" lon="6.77039">
        <ele>120.8</ele>
        <time>2019-12-10T10:29:25Z</time>
      </trkpt>
      <trkpt lat="43.54696" lon="6.7704">
        <ele>121.7</ele>
        <time>2019-12-10T10:29:27Z</time>
      </trkpt>
      <trkpt lat="43.54692" lon="6.77041">
        <ele>122.2</ele>
        <time>2019-12-10T10:29:29Z</time>
      </trkpt>
      <trkpt lat="43.54689" lon="6.77042">
        <ele>123.2</ele>
        <time>2019-12-10T10:29:31Z</time>
      </trkpt>
      <trkpt lat="43.54685" lon="6.77044">
        <ele>124.6</ele>
        <time>2019-12-10T10:29:33Z</time>
      </trkpt>
      <trkpt lat="43.54681" lon="6.77045">
        <ele>126.1</ele>
        <time>2019-12-10T10:29:35Z</time>
      </trkpt>
      <trkpt lat="43.54677" lon="6.77045">
        <ele>127.5</ele>
        <time>2019-12-10T10:29:37Z</time>
      </trkpt>
      <trkpt lat="43.54673" lon="6.77047">
        <ele>128.5</ele>
        <time>2019-12-10T10:29:39Z</time>
      </trkpt>
      <trkpt lat="43.54669" lon="6.77049">
        <ele>129.4</ele>
        <time>2019-12-10T10:29:41Z</time>
      </trkpt>
      <trkpt lat="43.54666" lon="6.7705">
        <ele>129</ele>
        <time>2019-12-10T10:29:43Z</time>
      </trkpt>
      <trkpt lat="43.54664" lon="6.77052">
        <ele>129</ele>
        <time>2019-12-10T10:29:45Z</time>
      </trkpt>
      <trkpt lat="43.54663" lon="6.77055">
        <ele>128</ele>
        <time>2019-12-10T10:29:47Z</time>
      </trkpt>
      <trkpt lat="43.54661" lon="6.77057">
        <ele>127.5</ele>
        <time>2019-12-10T10:29:49Z</time>
      </trkpt>
      <trkpt lat="43.54659" lon="6.77059">
        <ele>127</ele>
        <time>2019-12-10T10:29:51Z</time>
      </trkpt>
      <trkpt lat="43.54657" lon="6.77062">
        <ele>127</ele>
        <time>2019-12-10T10:29:53Z</time>
      </trkpt>
      <trkpt lat="43.54656" lon="6.77064">
        <ele>127</ele>
        <time>2019-12-10T10:29:55Z</time>
      </trkpt>
      <trkpt lat="43.54653" lon="6.77067">
        <ele>126.6</ele>
        <time>2019-12-10T10:29:57Z</time>
      </trkpt>
      <trkpt lat="43.5465" lon="6.77069">
        <ele>126.6</ele>
        <time>2019-12-10T10:29:59Z</time>
      </trkpt>
      <trkpt lat="43.54647" lon="6.77071">
        <ele>126.1</ele>
        <time>2019-12-10T10:30:01Z</time>
      </trkpt>
      <trkpt lat="43.54644" lon="6.77074">
        <ele>125.6</ele>
        <time>2019-12-10T10:30:03Z</time>
      </trkpt>
      <trkpt lat="43.54642" lon="6.77077">
        <ele>125.6</ele>
        <time>2019-12-10T10:30:05Z</time>
      </trkpt>
      <trkpt lat="43.5464" lon="6.77079">
        <ele>125.1</ele>
        <time>2019-12-10T10:30:07Z</time>
      </trkpt>
      <trkpt lat="43.54637" lon="6.77082">
        <ele>124.6</ele>
        <time>2019-12-10T10:30:09Z</time>
      </trkpt>
      <trkpt lat="43.54635" lon="6.77086">
        <ele>124.6</ele>
        <time>2019-12-10T10:30:11Z</time>
      </trkpt>
      <trkpt lat="43.54632" lon="6.77091">
        <ele>126.1</ele>
        <time>2019-12-10T10:30:13Z</time>
      </trkpt>
      <trkpt lat="43.5463" lon="6.77094">
        <ele>126.1</ele>
        <time>2019-12-10T10:30:15Z</time>
      </trkpt>
      <trkpt lat="43.54627" lon="6.77095">
        <ele>126.6</ele>
        <time>2019-12-10T10:30:17Z</time>
      </trkpt>
      <trkpt lat="43.54623" lon="6.77095">
        <ele>126.6</ele>
        <time>2019-12-10T10:30:19Z</time>
      </trkpt>
      <trkpt lat="43.54621" lon="6.77094">
        <ele>126.6</ele>
        <time>2019-12-10T10:30:21Z</time>
      </trkpt>
      <trkpt lat="43.54618" lon="6.77092">
        <ele>127</ele>
        <time>2019-12-10T10:30:23Z</time>
      </trkpt>
      <trkpt lat="43.54616" lon="6.77089">
        <ele>127.5</ele>
        <time>2019-12-10T10:30:25Z</time>
      </trkpt>
      <trkpt lat="43.54614" lon="6.77086">
        <ele>128</ele>
        <time>2019-12-10T10:30:27Z</time>
      </trkpt>
      <trkpt lat="43.54613" lon="6.77082">
        <ele>127.5</ele>
        <time>2019-12-10T10:30:29Z</time>
      </trkpt>
      <trkpt lat="43.54612" lon="6.77078">
        <ele>128</ele>
        <time>2019-12-10T10:30:31Z</time>
      </trkpt>
      <trkpt lat="43.5461" lon="6.77076">
        <ele>128.5</ele>
        <time>2019-12-10T10:30:33Z</time>
      </trkpt>
      <trkpt lat="43.54609" lon="6.77072">
        <ele>129</ele>
        <time>2019-12-10T10:30:35Z</time>
      </trkpt>
      <trkpt lat="43.54607" lon="6.77069">
        <ele>129</ele>
        <time>2019-12-10T10:30:37Z</time>
      </trkpt>
      <trkpt lat="43.54606" lon="6.77064">
        <ele>129</ele>
        <time>2019-12-10T10:30:39Z</time>
      </trkpt>
      <trkpt lat="43.54606" lon="6.77061">
        <ele>129.4</ele>
        <time>2019-12-10T10:30:41Z</time>
      </trkpt>
      <trkpt lat="43.54604" lon="6.77057">
        <ele>129.9</ele>
        <time>2019-12-10T10:30:43Z</time>
      </trkpt>
      <trkpt lat="43.54604" lon="6.77053">
        <ele>129.9</ele>
        <time>2019-12-10T10:30:45Z</time>
      </trkpt>
      <trkpt lat="43.54604" lon="6.77049">
        <ele>129.9</ele>
        <time>2019-12-10T10:30:47Z</time>
      </trkpt>
      <trkpt lat="43.54604" lon="6.77045">
        <ele>130.4</ele>
        <time>2019-12-10T10:30:49Z</time>
      </trkpt>
      <trkpt lat="43.54603" lon="6.77041">
        <ele>130.4</ele>
        <time>2019-12-10T10:30:51Z</time>
      </trkpt>
      <trkpt lat="43.54602" lon="6.77036">
        <ele>130.9</ele>
        <time>2019-12-10T10:30:53Z</time>
      </trkpt>
      <trkpt lat="43.54601" lon="6.77032">
        <ele>131.4</ele>
        <time>2019-12-10T10:30:55Z</time>
      </trkpt>
      <trkpt lat="43.54599" lon="6.77029">
        <ele>131.8</ele>
        <time>2019-12-10T10:30:57Z</time>
      </trkpt>
      <trkpt lat="43.54598" lon="6.77025">
        <ele>131.8</ele>
        <time>2019-12-10T10:30:59Z</time>
      </trkpt>
      <trkpt lat="43.54597" lon="6.77021">
        <ele>132.3</ele>
        <time>2019-12-10T10:31:01Z</time>
      </trkpt>
      <trkpt lat="43.54595" lon="6.77018">
        <ele>132.8</ele>
        <time>2019-12-10T10:31:03Z</time>
      </trkpt>
      <trkpt lat="43.54592" lon="6.77017">
        <ele>132.8</ele>
        <time>2019-12-10T10:31:05Z</time>
      </trkpt>
      <trkpt lat="43.5459" lon="6.77014">
        <ele>133.3</ele>
        <time>2019-12-10T10:31:07Z</time>
      </trkpt>
      <trkpt lat="43.54588" lon="6.77012">
        <ele>133.8</ele>
        <time>2019-12-10T10:31:09Z</time>
      </trkpt>
      <trkpt lat="43.54585" lon="6.77009">
        <ele>134.2</ele>
        <time>2019-12-10T10:31:11Z</time>
      </trkpt>
      <trkpt lat="43.54583" lon="6.77005">
        <ele>134.7</ele>
        <time>2019-12-10T10:31:13Z</time>
      </trkpt>
      <trkpt lat="43.54582" lon="6.77">
        <ele>135.2</ele>
        <time>2019-12-10T10:31:15Z</time>
      </trkpt>
      <trkpt lat="43.54582" lon="6.76996">
        <ele>135.7</ele>
        <time>2019-12-10T10:31:17Z</time>
      </trkpt>
      <trkpt lat="43.54582" lon="6.76992">
        <ele>136.2</ele>
        <time>2019-12-10T10:31:19Z</time>
      </trkpt>
      <trkpt lat="43.54583" lon="6.76988">
        <ele>136.2</ele>
        <time>2019-12-10T10:31:21Z</time>
      </trkpt>
      <trkpt lat="43.54584" lon="6.76985">
        <ele>136.2</ele>
        <time>2019-12-10T10:31:23Z</time>
      </trkpt>
      <trkpt lat="43.54586" lon="6.76982">
        <ele>136.2</ele>
        <time>2019-12-10T10:31:25Z</time>
      </trkpt>
      <trkpt lat="43.54587" lon="6.7698">
        <ele>136.2</ele>
        <time>2019-12-10T10:31:27Z</time>
      </trkpt>
      <trkpt lat="43.5459" lon="6.76977">
        <ele>136.2</ele>
        <time>2019-12-10T10:31:29Z</time>
      </trkpt>
      <trkpt lat="43.54592" lon="6.76974">
        <ele>136.2</ele>
        <time>2019-12-10T10:31:31Z</time>
      </trkpt>
      <trkpt lat="43.54594" lon="6.76971">
        <ele>136.2</ele>
        <time>2019-12-10T10:31:33Z</time>
      </trkpt>
      <trkpt lat="43.54595" lon="6.76968">
        <ele>136.6</ele>
        <time>2019-12-10T10:31:35Z</time>
      </trkpt>
      <trkpt lat="43.54596" lon="6.76965">
        <ele>136.6</ele>
        <time>2019-12-10T10:31:37Z</time>
      </trkpt>
      <trkpt lat="43.54597" lon="6.76962">
        <ele>136.6</ele>
        <time>2019-12-10T10:31:39Z</time>
      </trkpt>
      <trkpt lat="43.54599" lon="6.76959">
        <ele>136.6</ele>
        <time>2019-12-10T10:31:41Z</time>
      </trkpt>
      <trkpt lat="43.546" lon="6.76956">
        <ele>136.6</ele>
        <time>2019-12-10T10:31:43Z</time>
      </trkpt>
      <trkpt lat="43.546" lon="6.76952">
        <ele>137.6</ele>
        <time>2019-12-10T10:31:45Z</time>
      </trkpt>
      <trkpt lat="43.54601" lon="6.76948">
        <ele>138.1</ele>
        <time>2019-12-10T10:31:47Z</time>
      </trkpt>
      <trkpt lat="43.546" lon="6.76945">
        <ele>138.1</ele>
        <time>2019-12-10T10:31:49Z</time>
      </trkpt>
      <trkpt lat="43.546" lon="6.76941">
        <ele>138.6</ele>
        <time>2019-12-10T10:31:51Z</time>
      </trkpt>
      <trkpt lat="43.546" lon="6.76937">
        <ele>138.6</ele>
        <time>2019-12-10T10:31:53Z</time>
      </trkpt>
      <trkpt lat="43.546" lon="6.76934">
        <ele>139.5</ele>
        <time>2019-12-10T10:31:55Z</time>
      </trkpt>
      <trkpt lat="43.54598" lon="6.76931">
        <ele>139.5</ele>
        <time>2019-12-10T10:31:57Z</time>
      </trkpt>
      <trkpt lat="43.54597" lon="6.76928">
        <ele>140</ele>
        <time>2019-12-10T10:31:59Z</time>
      </trkpt>
      <trkpt lat="43.54598" lon="6.76925">
        <ele>140.5</ele>
        <time>2019-12-10T10:32:01Z</time>
      </trkpt>
      <trkpt lat="43.54599" lon="6.76922">
        <ele>141</ele>
        <time>2019-12-10T10:32:03Z</time>
      </trkpt>
      <trkpt lat="43.54598" lon="6.76918">
        <ele>141.5</ele>
        <time>2019-12-10T10:32:05Z</time>
      </trkpt>
      <trkpt lat="43.54596" lon="6.76916">
        <ele>142.4</ele>
        <time>2019-12-10T10:32:07Z</time>
      </trkpt>
      <trkpt lat="43.54595" lon="6.76913">
        <ele>142.9</ele>
        <time>2019-12-10T10:32:09Z</time>
      </trkpt>
      <trkpt lat="43.54593" lon="6.7691">
        <ele>142.9</ele>
        <time>2019-12-10T10:32:11Z</time>
      </trkpt>
      <trkpt lat="43.54592" lon="6.76907">
        <ele>143.9</ele>
        <time>2019-12-10T10:32:13Z</time>
      </trkpt>
      <trkpt lat="43.54591" lon="6.76904">
        <ele>144.3</ele>
        <time>2019-12-10T10:32:15Z</time>
      </trkpt>
      <trkpt lat="43.54589" lon="6.76902">
        <ele>143.9</ele>
        <time>2019-12-10T10:32:17Z</time>
      </trkpt>
      <trkpt lat="43.54587" lon="6.76899">
        <ele>144.3</ele>
        <time>2019-12-10T10:32:19Z</time>
      </trkpt>
      <trkpt lat="43.54585" lon="6.76897">
        <ele>144.8</ele>
        <time>2019-12-10T10:32:21Z</time>
      </trkpt>
      <trkpt lat="43.54583" lon="6.76895">
        <ele>144.8</ele>
        <time>2019-12-10T10:32:23Z</time>
      </trkpt>
      <trkpt lat="43.54581" lon="6.76892">
        <ele>145.3</ele>
        <time>2019-12-10T10:32:25Z</time>
      </trkpt>
      <trkpt lat="43.5458" lon="6.7689">
        <ele>145.3</ele>
        <time>2019-12-10T10:32:27Z</time>
      </trkpt>
      <trkpt lat="43.54578" lon="6.76888">
        <ele>145.8</ele>
        <time>2019-12-10T10:32:29Z</time>
      </trkpt>
      <trkpt lat="43.54576" lon="6.76886">
        <ele>146.3</ele>
        <time>2019-12-10T10:32:31Z</time>
      </trkpt>
      <trkpt lat="43.54574" lon="6.76884">
        <ele>146.7</ele>
        <time>2019-12-10T10:32:33Z</time>
      </trkpt>
      <trkpt lat="43.54573" lon="6.76883">
        <ele>146.7</ele>
        <time>2019-12-10T10:32:35Z</time>
      </trkpt>
      <trkpt lat="43.54571" lon="6.7688">
        <ele>147.2</ele>
        <time>2019-12-10T10:32:37Z</time>
      </trkpt>
      <trkpt lat="43.54569" lon="6.76878">
        <ele>148.2</ele>
        <time>2019-12-10T10:32:39Z</time>
      </trkpt>
      <trkpt lat="43.54568" lon="6.76875">
        <ele>148.7</ele>
        <time>2019-12-10T10:32:41Z</time>
      </trkpt>
      <trkpt lat="43.54567" lon="6.76873">
        <ele>149.6</ele>
        <time>2019-12-10T10:32:43Z</time>
      </trkpt>
      <trkpt lat="43.54564" lon="6.7687">
        <ele>150.6</ele>
        <time>2019-12-10T10:32:45Z</time>
      </trkpt>
      <trkpt lat="43.54563" lon="6.76868">
        <ele>151.1</ele>
        <time>2019-12-10T10:32:47Z</time>
      </trkpt>
      <trkpt lat="43.54561" lon="6.76865">
        <ele>151.5</ele>
        <time>2019-12-10T10:32:49Z</time>
      </trkpt>
      <trkpt lat="43.54559" lon="6.76863">
        <ele>152</ele>
        <time>2019-12-10T10:32:51Z</time>
      </trkpt>
      <trkpt lat="43.54557" lon="6.7686">
        <ele>153</ele>
        <time>2019-12-10T10:32:53Z</time>
      </trkpt>
      <trkpt lat="43.54555" lon="6.76858">
        <ele>153.9</ele>
        <time>2019-12-10T10:32:55Z</time>
      </trkpt>
      <trkpt lat="43.54553" lon="6.76854">
        <ele>154.4</ele>
        <time>2019-12-10T10:32:57Z</time>
      </trkpt>
      <trkpt lat="43.54552" lon="6.7685">
        <ele>155.4</ele>
        <time>2019-12-10T10:32:59Z</time>
      </trkpt>
      <trkpt lat="43.54552" lon="6.76846">
        <ele>156.4</ele>
        <time>2019-12-10T10:33:01Z</time>
      </trkpt>
      <trkpt lat="43.54553" lon="6.76841">
        <ele>156.8</ele>
        <time>2019-12-10T10:33:03Z</time>
      </trkpt>
      <trkpt lat="43.54555" lon="6.76837">
        <ele>156.8</ele>
        <time>2019-12-10T10:33:05Z</time>
      </trkpt>
      <trkpt lat="43.54556" lon="6.76835">
        <ele>157.3</ele>
        <time>2019-12-10T10:33:07Z</time>
      </trkpt>
      <trkpt lat="43.54558" lon="6.76834">
        <ele>157.8</ele>
        <time>2019-12-10T10:33:09Z</time>
      </trkpt>
      <trkpt lat="43.5456" lon="6.76833">
        <ele>158.3</ele>
        <time>2019-12-10T10:33:11Z</time>
      </trkpt>
      <trkpt lat="43.54563" lon="6.76833">
        <ele>156.4</ele>
        <time>2019-12-10T10:33:13Z</time>
      </trkpt>
      <trkpt lat="43.54566" lon="6.76834">
        <ele>156.8</ele>
        <time>2019-12-10T10:33:15Z</time>
      </trkpt>
      <trkpt lat="43.54569" lon="6.76835">
        <ele>156.8</ele>
        <time>2019-12-10T10:33:17Z</time>
      </trkpt>
      <trkpt lat="43.54572" lon="6.76836">
        <ele>157.3</ele>
        <time>2019-12-10T10:33:19Z</time>
      </trkpt>
      <trkpt lat="43.54575" lon="6.76835">
        <ele>158.3</ele>
        <time>2019-12-10T10:33:21Z</time>
      </trkpt>
      <trkpt lat="43.54578" lon="6.76834">
        <ele>158.3</ele>
        <time>2019-12-10T10:33:23Z</time>
      </trkpt>
      <trkpt lat="43.54581" lon="6.76834">
        <ele>159.2</ele>
        <time>2019-12-10T10:33:25Z</time>
      </trkpt>
      <trkpt lat="43.54583" lon="6.76833">
        <ele>159.7</ele>
        <time>2019-12-10T10:33:27Z</time>
      </trkpt>
      <trkpt lat="43.54585" lon="6.76832">
        <ele>159.7</ele>
        <time>2019-12-10T10:33:29Z</time>
      </trkpt>
      <trkpt lat="43.54587" lon="6.7683">
        <ele>160.2</ele>
        <time>2019-12-10T10:33:31Z</time>
      </trkpt>
      <trkpt lat="43.5459" lon="6.76829">
        <ele>156.8</ele>
        <time>2019-12-10T10:33:33Z</time>
      </trkpt>
      <trkpt lat="43.54591" lon="6.76827">
        <ele>156.4</ele>
        <time>2019-12-10T10:33:35Z</time>
      </trkpt>
      <trkpt lat="43.54593" lon="6.76824">
        <ele>156.4</ele>
        <time>2019-12-10T10:33:37Z</time>
      </trkpt>
      <trkpt lat="43.54594" lon="6.7682">
        <ele>156.4</ele>
        <time>2019-12-10T10:33:39Z</time>
      </trkpt>
      <trkpt lat="43.54595" lon="6.76817">
        <ele>155.9</ele>
        <time>2019-12-10T10:33:41Z</time>
      </trkpt>
      <trkpt lat="43.54596" lon="6.76814">
        <ele>155.9</ele>
        <time>2019-12-10T10:33:43Z</time>
      </trkpt>
      <trkpt lat="43.54596" lon="6.76811">
        <ele>156.4</ele>
        <time>2019-12-10T10:33:45Z</time>
      </trkpt>
      <trkpt lat="43.54596" lon="6.76807">
        <ele>156.8</ele>
        <time>2019-12-10T10:33:47Z</time>
      </trkpt>
      <trkpt lat="43.54597" lon="6.76804">
        <ele>157.3</ele>
        <time>2019-12-10T10:33:49Z</time>
      </trkpt>
      <trkpt lat="43.54598" lon="6.768">
        <ele>157.8</ele>
        <time>2019-12-10T10:33:51Z</time>
      </trkpt>
      <trkpt lat="43.54598" lon="6.76796">
        <ele>157.8</ele>
        <time>2019-12-10T10:33:53Z</time>
      </trkpt>
      <trkpt lat="43.54598" lon="6.76793">
        <ele>157.3</ele>
        <time>2019-12-10T10:33:55Z</time>
      </trkpt>
      <trkpt lat="43.54597" lon="6.7679">
        <ele>157.3</ele>
        <time>2019-12-10T10:33:57Z</time>
      </trkpt>
      <trkpt lat="43.54597" lon="6.76786">
        <ele>157.3</ele>
        <time>2019-12-10T10:33:59Z</time>
      </trkpt>
      <trkpt lat="43.54598" lon="6.76782">
        <ele>157.3</ele>
        <time>2019-12-10T10:34:01Z</time>
      </trkpt>
      <trkpt lat="43.54598" lon="6.76779">
        <ele>157.8</ele>
        <time>2019-12-10T10:34:03Z</time>
      </trkpt>
      <trkpt lat="43.54598" lon="6.76775">
        <ele>158.3</ele>
        <time>2019-12-10T10:34:05Z</time>
      </trkpt>
      <trkpt lat="43.54597" lon="6.76772">
        <ele>158.3</ele>
        <time>2019-12-10T10:34:07Z</time>
      </trkpt>
      <trkpt lat="43.54596" lon="6.76769">
        <ele>158.8</ele>
        <time>2019-12-10T10:34:09Z</time>
      </trkpt>
      <trkpt lat="43.54596" lon="6.76765">
        <ele>158.8</ele>
        <time>2019-12-10T10:34:11Z</time>
      </trkpt>
      <trkpt lat="43.54596" lon="6.76762">
        <ele>159.2</ele>
        <time>2019-12-10T10:34:13Z</time>
      </trkpt>
      <trkpt lat="43.54595" lon="6.76758">
        <ele>159.2</ele>
        <time>2019-12-10T10:34:15Z</time>
      </trkpt>
      <trkpt lat="43.54595" lon="6.76754">
        <ele>159.7</ele>
        <time>2019-12-10T10:34:17Z</time>
      </trkpt>
      <trkpt lat="43.54595" lon="6.7675">
        <ele>159.2</ele>
        <time>2019-12-10T10:34:19Z</time>
      </trkpt>
      <trkpt lat="43.54595" lon="6.76746">
        <ele>159.2</ele>
        <time>2019-12-10T10:34:21Z</time>
      </trkpt>
      <trkpt lat="43.54595" lon="6.76742">
        <ele>159.2</ele>
        <time>2019-12-10T10:34:23Z</time>
      </trkpt>
      <trkpt lat="43.54595" lon="6.76738">
        <ele>158.8</ele>
        <time>2019-12-10T10:34:25Z</time>
      </trkpt>
      <trkpt lat="43.54594" lon="6.76734">
        <ele>159.2</ele>
        <time>2019-12-10T10:34:27Z</time>
      </trkpt>
      <trkpt lat="43.54594" lon="6.76731">
        <ele>159.2</ele>
        <time>2019-12-10T10:34:29Z</time>
      </trkpt>
      <trkpt lat="43.54593" lon="6.76727">
        <ele>159.2</ele>
        <time>2019-12-10T10:34:31Z</time>
      </trkpt>
      <trkpt lat="43.54593" lon="6.76723">
        <ele>159.7</ele>
        <time>2019-12-10T10:34:33Z</time>
      </trkpt>
      <trkpt lat="43.54593" lon="6.7672">
        <ele>159.7</ele>
        <time>2019-12-10T10:34:35Z</time>
      </trkpt>
      <trkpt lat="43.54592" lon="6.76715">
        <ele>160.2</ele>
        <time>2019-12-10T10:34:37Z</time>
      </trkpt>
      <trkpt lat="43.54592" lon="6.76711">
        <ele>160.7</ele>
        <time>2019-12-10T10:34:39Z</time>
      </trkpt>
      <trkpt lat="43.54592" lon="6.76708">
        <ele>161.2</ele>
        <time>2019-12-10T10:34:41Z</time>
      </trkpt>
      <trkpt lat="43.54591" lon="6.76705">
        <ele>161.6</ele>
        <time>2019-12-10T10:34:43Z</time>
      </trkpt>
      <trkpt lat="43.5459" lon="6.76703">
        <ele>161.6</ele>
        <time>2019-12-10T10:34:45Z</time>
      </trkpt>
      <trkpt lat="43.5459" lon="6.76702">
        <ele>162.1</ele>
        <time>2019-12-10T10:34:47Z</time>
      </trkpt>
      <trkpt lat="43.54589" lon="6.76701">
        <ele>163.1</ele>
        <time>2019-12-10T10:34:49Z</time>
      </trkpt>
      <trkpt lat="43.54587" lon="6.76699">
        <ele>163.1</ele>
        <time>2019-12-10T10:34:51Z</time>
      </trkpt>
      <trkpt lat="43.54585" lon="6.76698">
        <ele>164</ele>
        <time>2019-12-10T10:34:53Z</time>
      </trkpt>
      <trkpt lat="43.54583" lon="6.76697">
        <ele>164.5</ele>
        <time>2019-12-10T10:34:55Z</time>
      </trkpt>
      <trkpt lat="43.54581" lon="6.76694">
        <ele>165</ele>
        <time>2019-12-10T10:34:57Z</time>
      </trkpt>
      <trkpt lat="43.54579" lon="6.76692">
        <ele>166</ele>
        <time>2019-12-10T10:34:59Z</time>
      </trkpt>
      <trkpt lat="43.54577" lon="6.7669">
        <ele>166.4</ele>
        <time>2019-12-10T10:35:01Z</time>
      </trkpt>
      <trkpt lat="43.54575" lon="6.76688">
        <ele>167.4</ele>
        <time>2019-12-10T10:35:03Z</time>
      </trkpt>
      <trkpt lat="43.54573" lon="6.76686">
        <ele>166</ele>
        <time>2019-12-10T10:35:05Z</time>
      </trkpt>
      <trkpt lat="43.54571" lon="6.76684">
        <ele>166</ele>
        <time>2019-12-10T10:35:07Z</time>
      </trkpt>
      <trkpt lat="43.54569" lon="6.76682">
        <ele>166.4</ele>
        <time>2019-12-10T10:35:09Z</time>
      </trkpt>
      <trkpt lat="43.54568" lon="6.76681">
        <ele>166.4</ele>
        <time>2019-12-10T10:35:11Z</time>
      </trkpt>
      <trkpt lat="43.54568" lon="6.76681">
        <ele>166.4</ele>
        <time>2019-12-10T10:35:13Z</time>
      </trkpt>
      <trkpt lat="43.54567" lon="6.76681">
        <ele>166.9</ele>
        <time>2019-12-10T10:35:15Z</time>
      </trkpt>
      <trkpt lat="43.54567" lon="6.76681">
        <ele>166.9</ele>
        <time>2019-12-10T10:35:17Z</time>
      </trkpt>
      <trkpt lat="43.54567" lon="6.76682">
        <ele>166.9</ele>
        <time>2019-12-10T10:35:19Z</time>
      </trkpt>
      <trkpt lat="43.54567" lon="6.76682">
        <ele>167.4</ele>
        <time>2019-12-10T10:35:21Z</time>
      </trkpt>
      <trkpt lat="43.54566" lon="6.76681">
        <ele>167.4</ele>
        <time>2019-12-10T10:35:23Z</time>
      </trkpt>
      <trkpt lat="43.54566" lon="6.7668">
        <ele>167.4</ele>
        <time>2019-12-10T10:35:25Z</time>
      </trkpt>
      <trkpt lat="43.54566" lon="6.76679">
        <ele>167.4</ele>
        <time>2019-12-10T10:35:27Z</time>
      </trkpt>
      <trkpt lat="43.54565" lon="6.76679">
        <ele>167.4</ele>
        <time>2019-12-10T10:35:29Z</time>
      </trkpt>
      <trkpt lat="43.54565" lon="6.76678">
        <ele>166.9</ele>
        <time>2019-12-10T10:35:31Z</time>
      </trkpt>
      <trkpt lat="43.54564" lon="6.76677">
        <ele>166.9</ele>
        <time>2019-12-10T10:35:33Z</time>
      </trkpt>
      <trkpt lat="43.54564" lon="6.76677">
        <ele>167.4</ele>
        <time>2019-12-10T10:35:35Z</time>
      </trkpt>
      <trkpt lat="43.54563" lon="6.76677">
        <ele>166.9</ele>
        <time>2019-12-10T10:35:37Z</time>
      </trkpt>
      <trkpt lat="43.54562" lon="6.76678">
        <ele>166.9</ele>
        <time>2019-12-10T10:35:39Z</time>
      </trkpt>
      <trkpt lat="43.54562" lon="6.76678">
        <ele>166.9</ele>
        <time>2019-12-10T10:35:41Z</time>
      </trkpt>
      <trkpt lat="43.54561" lon="6.76679">
        <ele>166.9</ele>
        <time>2019-12-10T10:35:43Z</time>
      </trkpt>
      <trkpt lat="43.54562" lon="6.76679">
        <ele>166.9</ele>
        <time>2019-12-10T10:35:45Z</time>
      </trkpt>
      <trkpt lat="43.54563" lon="6.76679">
        <ele>167.4</ele>
        <time>2019-12-10T10:35:47Z</time>
      </trkpt>
      <trkpt lat="43.54562" lon="6.7668">
        <ele>167.4</ele>
        <time>2019-12-10T10:35:49Z</time>
      </trkpt>
      <trkpt lat="43.54562" lon="6.7668">
        <ele>167.4</ele>
        <time>2019-12-10T10:35:51Z</time>
      </trkpt>
      <trkpt lat="43.54562" lon="6.76681">
        <ele>167.4</ele>
        <time>2019-12-10T10:35:53Z</time>
      </trkpt>
      <trkpt lat="43.54561" lon="6.7668">
        <ele>167.4</ele>
        <time>2019-12-10T10:35:55Z</time>
      </trkpt>
      <trkpt lat="43.54561" lon="6.76679">
        <ele>167.4</ele>
        <time>2019-12-10T10:35:57Z</time>
      </trkpt>
      <trkpt lat="43.54561" lon="6.7668">
        <ele>167.4</ele>
        <time>2019-12-10T10:35:59Z</time>
      </trkpt>
      <trkpt lat="43.54561" lon="6.7668">
        <ele>166.9</ele>
        <time>2019-12-10T10:36:01Z</time>
      </trkpt>
      <trkpt lat="43.54561" lon="6.76681">
        <ele>166.9</ele>
        <time>2019-12-10T10:36:03Z</time>
      </trkpt>
      <trkpt lat="43.54562" lon="6.76682">
        <ele>166.9</ele>
        <time>2019-12-10T10:36:05Z</time>
      </trkpt>
      <trkpt lat="43.54562" lon="6.76682">
        <ele>166.9</ele>
        <time>2019-12-10T10:36:07Z</time>
      </trkpt>
      <trkpt lat="43.54562" lon="6.76682">
        <ele>166.9</ele>
        <time>2019-12-10T10:36:09Z</time>
      </trkpt>
      <trkpt lat="43.54562" lon="6.76682">
        <ele>166.9</ele>
        <time>2019-12-10T10:36:11Z</time>
      </trkpt>
      <trkpt lat="43.54561" lon="6.76682">
        <ele>166.9</ele>
        <time>2019-12-10T10:36:13Z</time>
      </trkpt>
      <trkpt lat="43.54561" lon="6.76681">
        <ele>166.9</ele>
        <time>2019-12-10T10:36:15Z</time>
      </trkpt>
      <trkpt lat="43.54561" lon="6.76681">
        <ele>166.9</ele>
        <time>2019-12-10T10:36:17Z</time>
      </trkpt>
      <trkpt lat="43.54563" lon="6.76683">
        <ele>167.4</ele>
        <time>2019-12-10T10:36:19Z</time>
      </trkpt>
      <trkpt lat="43.54563" lon="6.76683">
        <ele>167.4</ele>
        <time>2019-12-10T10:36:21Z</time>
      </trkpt>
      <trkpt lat="43.54563" lon="6.76683">
        <ele>167.4</ele>
        <time>2019-12-10T10:36:23Z</time>
      </trkpt>
      <trkpt lat="43.54562" lon="6.76683">
        <ele>167.4</ele>
        <time>2019-12-10T10:36:25Z</time>
      </trkpt>
      <trkpt lat="43.54562" lon="6.76683">
        <ele>167.4</ele>
        <time>2019-12-10T10:36:27Z</time>
      </trkpt>
      <trkpt lat="43.54562" lon="6.76683">
        <ele>167.4</ele>
        <time>2019-12-10T10:36:29Z</time>
      </trkpt>
      <trkpt lat="43.54561" lon="6.76682">
        <ele>167.4</ele>
        <time>2019-12-10T10:36:31Z</time>
      </trkpt>
      <trkpt lat="43.54561" lon="6.76682">
        <ele>167.4</ele>
        <time>2019-12-10T10:36:33Z</time>
      </trkpt>
      <trkpt lat="43.54561" lon="6.76682">
        <ele>167.4</ele>
        <time>2019-12-10T10:36:35Z</time>
      </trkpt>
      <trkpt lat="43.54562" lon="6.76682">
        <ele>167.4</ele>
        <time>2019-12-10T10:36:37Z</time>
      </trkpt>
      <trkpt lat="43.54562" lon="6.76682">
        <ele>167.4</ele>
        <time>2019-12-10T10:36:39Z</time>
      </trkpt>
      <trkpt lat="43.54563" lon="6.76681">
        <ele>167.4</ele>
        <time>2019-12-10T10:36:41Z</time>
      </trkpt>
      <trkpt lat="43.54565" lon="6.76679">
        <ele>167.9</ele>
        <time>2019-12-10T10:36:43Z</time>
      </trkpt>
      <trkpt lat="43.54566" lon="6.76676">
        <ele>167.9</ele>
        <time>2019-12-10T10:36:45Z</time>
      </trkpt>
      <trkpt lat="43.54564" lon="6.76677">
        <ele>167.9</ele>
        <time>2019-12-10T10:36:47Z</time>
      </trkpt>
      <trkpt lat="43.54563" lon="6.76676">
        <ele>167.9</ele>
        <time>2019-12-10T10:36:49Z</time>
      </trkpt>
      <trkpt lat="43.54563" lon="6.76676">
        <ele>167.9</ele>
        <time>2019-12-10T10:36:51Z</time>
      </trkpt>
      <trkpt lat="43.54563" lon="6.76676">
        <ele>167.9</ele>
        <time>2019-12-10T10:36:53Z</time>
      </trkpt>
      <trkpt lat="43.54563" lon="6.76676">
        <ele>167.9</ele>
        <time>2019-12-10T10:36:55Z</time>
      </trkpt>
      <trkpt lat="43.54563" lon="6.76676">
        <ele>167.9</ele>
        <time>2019-12-10T10:36:57Z</time>
      </trkpt>
      <trkpt lat="43.54563" lon="6.76676">
        <ele>167.9</ele>
        <time>2019-12-10T10:36:59Z</time>
      </trkpt>
      <trkpt lat="43.54563" lon="6.76676">
        <ele>167.9</ele>
        <time>2019-12-10T10:37:01Z</time>
      </trkpt>
      <trkpt lat="43.54563" lon="6.76677">
        <ele>167.9</ele>
        <time>2019-12-10T10:37:03Z</time>
      </trkpt>
      <trkpt lat="43.54563" lon="6.76677">
        <ele>167.9</ele>
        <time>2019-12-10T10:37:05Z</time>
      </trkpt>
      <trkpt lat="43.54563" lon="6.76677">
        <ele>167.9</ele>
        <time>2019-12-10T10:37:07Z</time>
      </trkpt>
      <trkpt lat="43.54563" lon="6.76677">
        <ele>167.9</ele>
        <time>2019-12-10T10:37:09Z</time>
      </trkpt>
      <trkpt lat="43.54563" lon="6.76677">
        <ele>167.9</ele>
        <time>2019-12-10T10:37:11Z</time>
      </trkpt>
      <trkpt lat="43.54563" lon="6.76677">
        <ele>167.9</ele>
        <time>2019-12-10T10:37:13Z</time>
      </trkpt>
      <trkpt lat="43.54563" lon="6.76677">
        <ele>167.9</ele>
        <time>2019-12-10T10:37:15Z</time>
      </trkpt>
      <trkpt lat="43.54563" lon="6.76677">
        <ele>167.9</ele>
        <time>2019-12-10T10:37:17Z</time>
      </trkpt>
      <trkpt lat="43.54563" lon="6.76677">
        <ele>168.4</ele>
        <time>2019-12-10T10:37:19Z</time>
      </trkpt>
      <trkpt lat="43.54563" lon="6.76677">
        <ele>168.4</ele>
        <time>2019-12-10T10:37:21Z</time>
      </trkpt>
      <trkpt lat="43.54563" lon="6.76677">
        <ele>168.4</ele>
        <time>2019-12-10T10:37:23Z</time>
      </trkpt>
      <trkpt lat="43.54563" lon="6.76678">
        <ele>168.4</ele>
        <time>2019-12-10T10:37:25Z</time>
      </trkpt>
      <trkpt lat="43.54563" lon="6.76678">
        <ele>168.4</ele>
        <time>2019-12-10T10:37:27Z</time>
      </trkpt>
      <trkpt lat="43.54563" lon="6.76678">
        <ele>168.4</ele>
        <time>2019-12-10T10:37:29Z</time>
      </trkpt>
      <trkpt lat="43.54563" lon="6.76678">
        <ele>168.4</ele>
        <time>2019-12-10T10:37:31Z</time>
      </trkpt>
      <trkpt lat="43.54563" lon="6.76679">
        <ele>168.4</ele>
        <time>2019-12-10T10:37:33Z</time>
      </trkpt>
      <trkpt lat="43.54563" lon="6.7668">
        <ele>168.4</ele>
        <time>2019-12-10T10:37:35Z</time>
      </trkpt>
      <trkpt lat="43.54563" lon="6.76679">
        <ele>168.4</ele>
        <time>2019-12-10T10:37:37Z</time>
      </trkpt>
      <trkpt lat="43.54563" lon="6.76679">
        <ele>168.4</ele>
        <time>2019-12-10T10:37:39Z</time>
      </trkpt>
      <trkpt lat="43.54563" lon="6.76679">
        <ele>168.4</ele>
        <time>2019-12-10T10:37:41Z</time>
      </trkpt>
      <trkpt lat="43.54563" lon="6.76679">
        <ele>168.4</ele>
        <time>2019-12-10T10:37:43Z</time>
      </trkpt>
      <trkpt lat="43.54564" lon="6.76679">
        <ele>168.4</ele>
        <time>2019-12-10T10:37:45Z</time>
      </trkpt>
      <trkpt lat="43.54564" lon="6.76679">
        <ele>168.4</ele>
        <time>2019-12-10T10:37:47Z</time>
      </trkpt>
      <trkpt lat="43.54564" lon="6.7668">
        <ele>168.4</ele>
        <time>2019-12-10T10:37:49Z</time>
      </trkpt>
      <trkpt lat="43.54563" lon="6.76679">
        <ele>168.4</ele>
        <time>2019-12-10T10:37:51Z</time>
      </trkpt>
      <trkpt lat="43.54563" lon="6.76679">
        <ele>168.4</ele>
        <time>2019-12-10T10:37:53Z</time>
      </trkpt>
      <trkpt lat="43.54564" lon="6.76679">
        <ele>167.9</ele>
        <time>2019-12-10T10:37:55Z</time>
      </trkpt>
      <trkpt lat="43.54563" lon="6.76678">
        <ele>167.9</ele>
        <time>2019-12-10T10:37:57Z</time>
      </trkpt>
      <trkpt lat="43.54563" lon="6.76678">
        <ele>167.9</ele>
        <time>2019-12-10T10:37:59Z</time>
      </trkpt>
      <trkpt lat="43.54563" lon="6.76678">
        <ele>167.9</ele>
        <time>2019-12-10T10:38:01Z</time>
      </trkpt>
      <trkpt lat="43.54563" lon="6.76677">
        <ele>167.9</ele>
        <time>2019-12-10T10:38:03Z</time>
      </trkpt>
      <trkpt lat="43.54563" lon="6.76677">
        <ele>167.9</ele>
        <time>2019-12-10T10:38:05Z</time>
      </trkpt>
      <trkpt lat="43.54563" lon="6.76677">
        <ele>167.9</ele>
        <time>2019-12-10T10:38:07Z</time>
      </trkpt>
      <trkpt lat="43.54564" lon="6.76677">
        <ele>168.4</ele>
        <time>2019-12-10T10:38:09Z</time>
      </trkpt>
      <trkpt lat="43.54564" lon="6.76677">
        <ele>168.4</ele>
        <time>2019-12-10T10:38:11Z</time>
      </trkpt>
      <trkpt lat="43.54565" lon="6.76678">
        <ele>168.4</ele>
        <time>2019-12-10T10:38:13Z</time>
      </trkpt>
      <trkpt lat="43.54567" lon="6.76679">
        <ele>167.9</ele>
        <time>2019-12-10T10:38:15Z</time>
      </trkpt>
      <trkpt lat="43.54568" lon="6.7668">
        <ele>167.4</ele>
        <time>2019-12-10T10:38:17Z</time>
      </trkpt>
      <trkpt lat="43.54569" lon="6.76679">
        <ele>167.4</ele>
        <time>2019-12-10T10:38:19Z</time>
      </trkpt>
      <trkpt lat="43.54569" lon="6.76679">
        <ele>166.9</ele>
        <time>2019-12-10T10:38:21Z</time>
      </trkpt>
      <trkpt lat="43.54569" lon="6.76678">
        <ele>166.9</ele>
        <time>2019-12-10T10:38:23Z</time>
      </trkpt>
      <trkpt lat="43.54569" lon="6.76678">
        <ele>166.9</ele>
        <time>2019-12-10T10:38:25Z</time>
      </trkpt>
      <trkpt lat="43.54569" lon="6.76678">
        <ele>166.9</ele>
        <time>2019-12-10T10:38:27Z</time>
      </trkpt>
      <trkpt lat="43.54569" lon="6.76678">
        <ele>166.9</ele>
        <time>2019-12-10T10:38:29Z</time>
      </trkpt>
      <trkpt lat="43.54569" lon="6.76677">
        <ele>166.9</ele>
        <time>2019-12-10T10:38:31Z</time>
      </trkpt>
      <trkpt lat="43.54569" lon="6.76677">
        <ele>166.9</ele>
        <time>2019-12-10T10:38:33Z</time>
      </trkpt>
      <trkpt lat="43.54569" lon="6.76677">
        <ele>166.9</ele>
        <time>2019-12-10T10:38:35Z</time>
      </trkpt>
      <trkpt lat="43.54569" lon="6.76677">
        <ele>166.9</ele>
        <time>2019-12-10T10:38:37Z</time>
      </trkpt>
      <trkpt lat="43.54569" lon="6.76676">
        <ele>166.9</ele>
        <time>2019-12-10T10:38:39Z</time>
      </trkpt>
      <trkpt lat="43.54568" lon="6.76676">
        <ele>166.9</ele>
        <time>2019-12-10T10:38:41Z</time>
      </trkpt>
      <trkpt lat="43.54568" lon="6.76676">
        <ele>166.9</ele>
        <time>2019-12-10T10:38:43Z</time>
      </trkpt>
      <trkpt lat="43.54568" lon="6.76676">
        <ele>166.9</ele>
        <time>2019-12-10T10:38:45Z</time>
      </trkpt>
      <trkpt lat="43.54568" lon="6.76675">
        <ele>166.9</ele>
        <time>2019-12-10T10:38:47Z</time>
      </trkpt>
      <trkpt lat="43.54568" lon="6.76675">
        <ele>166.9</ele>
        <time>2019-12-10T10:38:49Z</time>
      </trkpt>
      <trkpt lat="43.54568" lon="6.76675">
        <ele>166.9</ele>
        <time>2019-12-10T10:38:51Z</time>
      </trkpt>
      <trkpt lat="43.54568" lon="6.76675">
        <ele>166.9</ele>
        <time>2019-12-10T10:38:53Z</time>
      </trkpt>
      <trkpt lat="43.54568" lon="6.76675">
        <ele>166.9</ele>
        <time>2019-12-10T10:38:55Z</time>
      </trkpt>
      <trkpt lat="43.54568" lon="6.76675">
        <ele>166.9</ele>
        <time>2019-12-10T10:38:57Z</time>
      </trkpt>
      <trkpt lat="43.54568" lon="6.76675">
        <ele>166.9</ele>
        <time>2019-12-10T10:38:59Z</time>
      </trkpt>
      <trkpt lat="43.54568" lon="6.76675">
        <ele>166.9</ele>
        <time>2019-12-10T10:39:01Z</time>
      </trkpt>
      <trkpt lat="43.54568" lon="6.76675">
        <ele>166.9</ele>
        <time>2019-12-10T10:39:03Z</time>
      </trkpt>
      <trkpt lat="43.54568" lon="6.76675">
        <ele>166.9</ele>
        <time>2019-12-10T10:39:05Z</time>
      </trkpt>
      <trkpt lat="43.54568" lon="6.76675">
        <ele>166.9</ele>
        <time>2019-12-10T10:39:07Z</time>
      </trkpt>
      <trkpt lat="43.54568" lon="6.76675">
        <ele>166.9</ele>
        <time>2019-12-10T10:39:09Z</time>
      </trkpt>
      <trkpt lat="43.54568" lon="6.76675">
        <ele>166.9</ele>
        <time>2019-12-10T10:39:11Z</time>
      </trkpt>
      <trkpt lat="43.54568" lon="6.76675">
        <ele>166.9</ele>
        <time>2019-12-10T10:39:13Z</time>
      </trkpt>
      <trkpt lat="43.54568" lon="6.76675">
        <ele>166.9</ele>
        <time>2019-12-10T10:39:15Z</time>
      </trkpt>
      <trkpt lat="43.54568" lon="6.76675">
        <ele>166.9</ele>
        <time>2019-12-10T10:39:17Z</time>
      </trkpt>
      <trkpt lat="43.54568" lon="6.76675">
        <ele>166.9</ele>
        <time>2019-12-10T10:39:19Z</time>
      </trkpt>
      <trkpt lat="43.54568" lon="6.76675">
        <ele>166.9</ele>
        <time>2019-12-10T10:39:21Z</time>
      </trkpt>
      <trkpt lat="43.54568" lon="6.76675">
        <ele>166.9</ele>
        <time>2019-12-10T10:39:23Z</time>
      </trkpt>
      <trkpt lat="43.54568" lon="6.76675">
        <ele>166.9</ele>
        <time>2019-12-10T10:39:25Z</time>
      </trkpt>
      <trkpt lat="43.54568" lon="6.76675">
        <ele>166.9</ele>
        <time>2019-12-10T10:39:27Z</time>
      </trkpt>
      <trkpt lat="43.54568" lon="6.76675">
        <ele>166.9</ele>
        <time>2019-12-10T10:39:29Z</time>
      </trkpt>
      <trkpt lat="43.54568" lon="6.76675">
        <ele>166.9</ele>
        <time>2019-12-10T10:39:31Z</time>
      </trkpt>
      <trkpt lat="43.54568" lon="6.76675">
        <ele>166.9</ele>
        <time>2019-12-10T10:39:33Z</time>
      </trkpt>
      <trkpt lat="43.54568" lon="6.76675">
        <ele>166.9</ele>
        <time>2019-12-10T10:39:35Z</time>
      </trkpt>
      <trkpt lat="43.54568" lon="6.76675">
        <ele>166.9</ele>
        <time>2019-12-10T10:39:37Z</time>
      </trkpt>
      <trkpt lat="43.54568" lon="6.76675">
        <ele>166.9</ele>
        <time>2019-12-10T10:39:39Z</time>
      </trkpt>
      <trkpt lat="43.54568" lon="6.76675">
        <ele>166.9</ele>
        <time>2019-12-10T10:39:41Z</time>
      </trkpt>
      <trkpt lat="43.54568" lon="6.76675">
        <ele>166.9</ele>
        <time>2019-12-10T10:39:43Z</time>
      </trkpt>
      <trkpt lat="43.54568" lon="6.76675">
        <ele>166.9</ele>
        <time>2019-12-10T10:39:45Z</time>
      </trkpt>
      <trkpt lat="43.54568" lon="6.76675">
        <ele>166.9</ele>
        <time>2019-12-10T10:39:47Z</time>
      </trkpt>
      <trkpt lat="43.54568" lon="6.76675">
        <ele>166.9</ele>
        <time>2019-12-10T10:39:49Z</time>
      </trkpt>
      <trkpt lat="43.54568" lon="6.76675">
        <ele>166.9</ele>
        <time>2019-12-10T10:39:51Z</time>
      </trkpt>
      <trkpt lat="43.54568" lon="6.76675">
        <ele>166.9</ele>
        <time>2019-12-10T10:39:53Z</time>
      </trkpt>
      <trkpt lat="43.54568" lon="6.76675">
        <ele>166.9</ele>
        <time>2019-12-10T10:39:55Z</time>
      </trkpt>
      <trkpt lat="43.54568" lon="6.76675">
        <ele>166.9</ele>
        <time>2019-12-10T10:39:57Z</time>
      </trkpt>
      <trkpt lat="43.54568" lon="6.76675">
        <ele>166.9</ele>
        <time>2019-12-10T10:39:59Z</time>
      </trkpt>
      <trkpt lat="43.54567" lon="6.76674">
        <ele>166.9</ele>
        <time>2019-12-10T10:40:01Z</time>
      </trkpt>
      <trkpt lat="43.54567" lon="6.76673">
        <ele>166.9</ele>
        <time>2019-12-10T10:40:03Z</time>
      </trkpt>
      <trkpt lat="43.54566" lon="6.76672">
        <ele>167.4</ele>
        <time>2019-12-10T10:40:05Z</time>
      </trkpt>
      <trkpt lat="43.54564" lon="6.7667">
        <ele>167.4</ele>
        <time>2019-12-10T10:40:07Z</time>
      </trkpt>
      <trkpt lat="43.54563" lon="6.76667">
        <ele>167.4</ele>
        <time>2019-12-10T10:40:09Z</time>
      </trkpt>
      <trkpt lat="43.54562" lon="6.76665">
        <ele>167.9</ele>
        <time>2019-12-10T10:40:11Z</time>
      </trkpt>
      <trkpt lat="43.54561" lon="6.76662">
        <ele>167.9</ele>
        <time>2019-12-10T10:40:13Z</time>
      </trkpt>
      <trkpt lat="43.5456" lon="6.7666">
        <ele>167.9</ele>
        <time>2019-12-10T10:40:15Z</time>
      </trkpt>
      <trkpt lat="43.54558" lon="6.76658">
        <ele>168.4</ele>
        <time>2019-12-10T10:40:17Z</time>
      </trkpt>
      <trkpt lat="43.54556" lon="6.76657">
        <ele>167.9</ele>
        <time>2019-12-10T10:40:19Z</time>
      </trkpt>
      <trkpt lat="43.54554" lon="6.76656">
        <ele>168.4</ele>
        <time>2019-12-10T10:40:21Z</time>
      </trkpt>
      <trkpt lat="43.54552" lon="6.76655">
        <ele>168.4</ele>
        <time>2019-12-10T10:40:23Z</time>
      </trkpt>
      <trkpt lat="43.5455" lon="6.76653">
        <ele>168.8</ele>
        <time>2019-12-10T10:40:25Z</time>
      </trkpt>
      <trkpt lat="43.54549" lon="6.76651">
        <ele>168.8</ele>
        <time>2019-12-10T10:40:27Z</time>
      </trkpt>
      <trkpt lat="43.54548" lon="6.76649">
        <ele>169.3</ele>
        <time>2019-12-10T10:40:29Z</time>
      </trkpt>
      <trkpt lat="43.54545" lon="6.76648">
        <ele>169.3</ele>
        <time>2019-12-10T10:40:31Z</time>
      </trkpt>
      <trkpt lat="43.54543" lon="6.76647">
        <ele>169.8</ele>
        <time>2019-12-10T10:40:33Z</time>
      </trkpt>
      <trkpt lat="43.54541" lon="6.76645">
        <ele>169.8</ele>
        <time>2019-12-10T10:40:35Z</time>
      </trkpt>
      <trkpt lat="43.54539" lon="6.76643">
        <ele>170.3</ele>
        <time>2019-12-10T10:40:37Z</time>
      </trkpt>
      <trkpt lat="43.54538" lon="6.76641">
        <ele>170.8</ele>
        <time>2019-12-10T10:40:39Z</time>
      </trkpt>
      <trkpt lat="43.54536" lon="6.76639">
        <ele>170.3</ele>
        <time>2019-12-10T10:40:41Z</time>
      </trkpt>
      <trkpt lat="43.54536" lon="6.76636">
        <ele>170.3</ele>
        <time>2019-12-10T10:40:43Z</time>
      </trkpt>
      <trkpt lat="43.54536" lon="6.76632">
        <ele>170.3</ele>
        <time>2019-12-10T10:40:45Z</time>
      </trkpt>
      <trkpt lat="43.54537" lon="6.76629">
        <ele>169.8</ele>
        <time>2019-12-10T10:40:47Z</time>
      </trkpt>
      <trkpt lat="43.54538" lon="6.76627">
        <ele>169.8</ele>
        <time>2019-12-10T10:40:49Z</time>
      </trkpt>
      <trkpt lat="43.54539" lon="6.76625">
        <ele>169.8</ele>
        <time>2019-12-10T10:40:51Z</time>
      </trkpt>
      <trkpt lat="43.54541" lon="6.76624">
        <ele>169.8</ele>
        <time>2019-12-10T10:40:53Z</time>
      </trkpt>
      <trkpt lat="43.54543" lon="6.76624">
        <ele>169.8</ele>
        <time>2019-12-10T10:40:55Z</time>
      </trkpt>
      <trkpt lat="43.54545" lon="6.76624">
        <ele>170.8</ele>
        <time>2019-12-10T10:40:57Z</time>
      </trkpt>
      <trkpt lat="43.54547" lon="6.76624">
        <ele>170.8</ele>
        <time>2019-12-10T10:40:59Z</time>
      </trkpt>
      <trkpt lat="43.54549" lon="6.76623">
        <ele>171.3</ele>
        <time>2019-12-10T10:41:01Z</time>
      </trkpt>
      <trkpt lat="43.54551" lon="6.76622">
        <ele>171.7</ele>
        <time>2019-12-10T10:41:03Z</time>
      </trkpt>
      <trkpt lat="43.54554" lon="6.76619">
        <ele>172.2</ele>
        <time>2019-12-10T10:41:05Z</time>
      </trkpt>
      <trkpt lat="43.54556" lon="6.76619">
        <ele>172.7</ele>
        <time>2019-12-10T10:41:07Z</time>
      </trkpt>
      <trkpt lat="43.54558" lon="6.76618">
        <ele>173.2</ele>
        <time>2019-12-10T10:41:09Z</time>
      </trkpt>
      <trkpt lat="43.5456" lon="6.76617">
        <ele>173.2</ele>
        <time>2019-12-10T10:41:11Z</time>
      </trkpt>
      <trkpt lat="43.54562" lon="6.76617">
        <ele>173.2</ele>
        <time>2019-12-10T10:41:13Z</time>
      </trkpt>
      <trkpt lat="43.54565" lon="6.76616">
        <ele>173.2</ele>
        <time>2019-12-10T10:41:15Z</time>
      </trkpt>
      <trkpt lat="43.54567" lon="6.76616">
        <ele>173.7</ele>
        <time>2019-12-10T10:41:17Z</time>
      </trkpt>
      <trkpt lat="43.54569" lon="6.76616">
        <ele>174.1</ele>
        <time>2019-12-10T10:41:19Z</time>
      </trkpt>
      <trkpt lat="43.54572" lon="6.76615">
        <ele>174.1</ele>
        <time>2019-12-10T10:41:21Z</time>
      </trkpt>
      <trkpt lat="43.54574" lon="6.76613">
        <ele>174.6</ele>
        <time>2019-12-10T10:41:23Z</time>
      </trkpt>
      <trkpt lat="43.54576" lon="6.76611">
        <ele>175.1</ele>
        <time>2019-12-10T10:41:25Z</time>
      </trkpt>
      <trkpt lat="43.54578" lon="6.76609">
        <ele>175.1</ele>
        <time>2019-12-10T10:41:27Z</time>
      </trkpt>
      <trkpt lat="43.5458" lon="6.76606">
        <ele>175.6</ele>
        <time>2019-12-10T10:41:29Z</time>
      </trkpt>
      <trkpt lat="43.54581" lon="6.76603">
        <ele>175.6</ele>
        <time>2019-12-10T10:41:31Z</time>
      </trkpt>
      <trkpt lat="43.54582" lon="6.766">
        <ele>176.1</ele>
        <time>2019-12-10T10:41:33Z</time>
      </trkpt>
      <trkpt lat="43.54584" lon="6.76597">
        <ele>176.1</ele>
        <time>2019-12-10T10:41:35Z</time>
      </trkpt>
      <trkpt lat="43.54585" lon="6.76594">
        <ele>176.5</ele>
        <time>2019-12-10T10:41:37Z</time>
      </trkpt>
      <trkpt lat="43.54586" lon="6.76591">
        <ele>176.5</ele>
        <time>2019-12-10T10:41:39Z</time>
      </trkpt>
      <trkpt lat="43.54587" lon="6.76588">
        <ele>177</ele>
        <time>2019-12-10T10:41:41Z</time>
      </trkpt>
      <trkpt lat="43.54587" lon="6.76584">
        <ele>177.5</ele>
        <time>2019-12-10T10:41:43Z</time>
      </trkpt>
      <trkpt lat="43.54587" lon="6.7658">
        <ele>177.5</ele>
        <time>2019-12-10T10:41:45Z</time>
      </trkpt>
      <trkpt lat="43.54588" lon="6.76577">
        <ele>177.5</ele>
        <time>2019-12-10T10:41:47Z</time>
      </trkpt>
      <trkpt lat="43.54588" lon="6.76574">
        <ele>178</ele>
        <time>2019-12-10T10:41:49Z</time>
      </trkpt>
      <trkpt lat="43.54589" lon="6.7657">
        <ele>178.5</ele>
        <time>2019-12-10T10:41:51Z</time>
      </trkpt>
      <trkpt lat="43.54589" lon="6.76567">
        <ele>178.9</ele>
        <time>2019-12-10T10:41:53Z</time>
      </trkpt>
      <trkpt lat="43.54589" lon="6.76563">
        <ele>178.9</ele>
        <time>2019-12-10T10:41:55Z</time>
      </trkpt>
      <trkpt lat="43.54589" lon="6.7656">
        <ele>179.4</ele>
        <time>2019-12-10T10:41:57Z</time>
      </trkpt>
      <trkpt lat="43.54589" lon="6.76557">
        <ele>179.9</ele>
        <time>2019-12-10T10:41:59Z</time>
      </trkpt>
      <trkpt lat="43.54589" lon="6.76553">
        <ele>180.4</ele>
        <time>2019-12-10T10:42:01Z</time>
      </trkpt>
      <trkpt lat="43.5459" lon="6.7655">
        <ele>180.4</ele>
        <time>2019-12-10T10:42:03Z</time>
      </trkpt>
      <trkpt lat="43.5459" lon="6.76546">
        <ele>180.9</ele>
        <time>2019-12-10T10:42:05Z</time>
      </trkpt>
      <trkpt lat="43.5459" lon="6.76543">
        <ele>181.3</ele>
        <time>2019-12-10T10:42:07Z</time>
      </trkpt>
      <trkpt lat="43.5459" lon="6.76539">
        <ele>181.3</ele>
        <time>2019-12-10T10:42:09Z</time>
      </trkpt>
      <trkpt lat="43.5459" lon="6.76536">
        <ele>181.3</ele>
        <time>2019-12-10T10:42:11Z</time>
      </trkpt>
      <trkpt lat="43.5459" lon="6.76533">
        <ele>180.9</ele>
        <time>2019-12-10T10:42:13Z</time>
      </trkpt>
      <trkpt lat="43.5459" lon="6.76529">
        <ele>181.3</ele>
        <time>2019-12-10T10:42:15Z</time>
      </trkpt>
      <trkpt lat="43.54589" lon="6.76526">
        <ele>181.8</ele>
        <time>2019-12-10T10:42:17Z</time>
      </trkpt>
      <trkpt lat="43.54589" lon="6.76523">
        <ele>181.8</ele>
        <time>2019-12-10T10:42:19Z</time>
      </trkpt>
      <trkpt lat="43.54589" lon="6.7652">
        <ele>181.8</ele>
        <time>2019-12-10T10:42:21Z</time>
      </trkpt>
      <trkpt lat="43.54588" lon="6.76518">
        <ele>181.8</ele>
        <time>2019-12-10T10:42:23Z</time>
      </trkpt>
      <trkpt lat="43.54586" lon="6.76515">
        <ele>182.3</ele>
        <time>2019-12-10T10:42:25Z</time>
      </trkpt>
      <trkpt lat="43.54585" lon="6.76512">
        <ele>182.3</ele>
        <time>2019-12-10T10:42:27Z</time>
      </trkpt>
      <trkpt lat="43.54585" lon="6.76509">
        <ele>182.3</ele>
        <time>2019-12-10T10:42:29Z</time>
      </trkpt>
      <trkpt lat="43.54584" lon="6.76506">
        <ele>182.3</ele>
        <time>2019-12-10T10:42:31Z</time>
      </trkpt>
      <trkpt lat="43.54583" lon="6.76503">
        <ele>182.8</ele>
        <time>2019-12-10T10:42:33Z</time>
      </trkpt>
      <trkpt lat="43.54582" lon="6.765">
        <ele>182.8</ele>
        <time>2019-12-10T10:42:35Z</time>
      </trkpt>
      <trkpt lat="43.54581" lon="6.76498">
        <ele>182.8</ele>
        <time>2019-12-10T10:42:37Z</time>
      </trkpt>
      <trkpt lat="43.5458" lon="6.76495">
        <ele>183.3</ele>
        <time>2019-12-10T10:42:39Z</time>
      </trkpt>
      <trkpt lat="43.54578" lon="6.76493">
        <ele>183.7</ele>
        <time>2019-12-10T10:42:41Z</time>
      </trkpt>
      <trkpt lat="43.54577" lon="6.76491">
        <ele>183.7</ele>
        <time>2019-12-10T10:42:43Z</time>
      </trkpt>
      <trkpt lat="43.54575" lon="6.76489">
        <ele>184.2</ele>
        <time>2019-12-10T10:42:45Z</time>
      </trkpt>
      <trkpt lat="43.54573" lon="6.76487">
        <ele>184.7</ele>
        <time>2019-12-10T10:42:47Z</time>
      </trkpt>
      <trkpt lat="43.54571" lon="6.76486">
        <ele>185.2</ele>
        <time>2019-12-10T10:42:49Z</time>
      </trkpt>
      <trkpt lat="43.54568" lon="6.76485">
        <ele>185.7</ele>
        <time>2019-12-10T10:42:51Z</time>
      </trkpt>
      <trkpt lat="43.54566" lon="6.76484">
        <ele>186.2</ele>
        <time>2019-12-10T10:42:53Z</time>
      </trkpt>
      <trkpt lat="43.54564" lon="6.76482">
        <ele>186.2</ele>
        <time>2019-12-10T10:42:55Z</time>
      </trkpt>
      <trkpt lat="43.54562" lon="6.76481">
        <ele>186.6</ele>
        <time>2019-12-10T10:42:57Z</time>
      </trkpt>
      <trkpt lat="43.5456" lon="6.76478">
        <ele>187.1</ele>
        <time>2019-12-10T10:42:59Z</time>
      </trkpt>
      <trkpt lat="43.5456" lon="6.76474">
        <ele>187.1</ele>
        <time>2019-12-10T10:43:01Z</time>
      </trkpt>
      <trkpt lat="43.54561" lon="6.76471">
        <ele>187.6</ele>
        <time>2019-12-10T10:43:03Z</time>
      </trkpt>
      <trkpt lat="43.54563" lon="6.76469">
        <ele>187.6</ele>
        <time>2019-12-10T10:43:05Z</time>
      </trkpt>
      <trkpt lat="43.54565" lon="6.76468">
        <ele>187.6</ele>
        <time>2019-12-10T10:43:07Z</time>
      </trkpt>
      <trkpt lat="43.54568" lon="6.76466">
        <ele>187.6</ele>
        <time>2019-12-10T10:43:09Z</time>
      </trkpt>
      <trkpt lat="43.5457" lon="6.76465">
        <ele>188.1</ele>
        <time>2019-12-10T10:43:11Z</time>
      </trkpt>
      <trkpt lat="43.54573" lon="6.76464">
        <ele>188.1</ele>
        <time>2019-12-10T10:43:13Z</time>
      </trkpt>
      <trkpt lat="43.54576" lon="6.76464">
        <ele>188.6</ele>
        <time>2019-12-10T10:43:15Z</time>
      </trkpt>
      <trkpt lat="43.54578" lon="6.76464">
        <ele>188.6</ele>
        <time>2019-12-10T10:43:17Z</time>
      </trkpt>
      <trkpt lat="43.54581" lon="6.76463">
        <ele>188.6</ele>
        <time>2019-12-10T10:43:19Z</time>
      </trkpt>
      <trkpt lat="43.54584" lon="6.76462">
        <ele>188.6</ele>
        <time>2019-12-10T10:43:21Z</time>
      </trkpt>
      <trkpt lat="43.54586" lon="6.76461">
        <ele>189</ele>
        <time>2019-12-10T10:43:23Z</time>
      </trkpt>
      <trkpt lat="43.54589" lon="6.76461">
        <ele>189.5</ele>
        <time>2019-12-10T10:43:25Z</time>
      </trkpt>
      <trkpt lat="43.54591" lon="6.76459">
        <ele>190</ele>
        <time>2019-12-10T10:43:27Z</time>
      </trkpt>
      <trkpt lat="43.54592" lon="6.76456">
        <ele>190</ele>
        <time>2019-12-10T10:43:29Z</time>
      </trkpt>
      <trkpt lat="43.54593" lon="6.76453">
        <ele>190.5</ele>
        <time>2019-12-10T10:43:31Z</time>
      </trkpt>
      <trkpt lat="43.54594" lon="6.76449">
        <ele>190.5</ele>
        <time>2019-12-10T10:43:33Z</time>
      </trkpt>
      <trkpt lat="43.54595" lon="6.76446">
        <ele>191</ele>
        <time>2019-12-10T10:43:35Z</time>
      </trkpt>
      <trkpt lat="43.54595" lon="6.76442">
        <ele>191.4</ele>
        <time>2019-12-10T10:43:37Z</time>
      </trkpt>
      <trkpt lat="43.54595" lon="6.76439">
        <ele>191.9</ele>
        <time>2019-12-10T10:43:39Z</time>
      </trkpt>
      <trkpt lat="43.54595" lon="6.76436">
        <ele>191.9</ele>
        <time>2019-12-10T10:43:41Z</time>
      </trkpt>
      <trkpt lat="43.54595" lon="6.76432">
        <ele>192.4</ele>
        <time>2019-12-10T10:43:43Z</time>
      </trkpt>
      <trkpt lat="43.54595" lon="6.76428">
        <ele>192.4</ele>
        <time>2019-12-10T10:43:45Z</time>
      </trkpt>
      <trkpt lat="43.54594" lon="6.76425">
        <ele>192.9</ele>
        <time>2019-12-10T10:43:47Z</time>
      </trkpt>
      <trkpt lat="43.54593" lon="6.76422">
        <ele>193.4</ele>
        <time>2019-12-10T10:43:49Z</time>
      </trkpt>
      <trkpt lat="43.54592" lon="6.76419">
        <ele>193.8</ele>
        <time>2019-12-10T10:43:51Z</time>
      </trkpt>
      <trkpt lat="43.54591" lon="6.76416">
        <ele>194.3</ele>
        <time>2019-12-10T10:43:53Z</time>
      </trkpt>
      <trkpt lat="43.54589" lon="6.76413">
        <ele>194.8</ele>
        <time>2019-12-10T10:43:55Z</time>
      </trkpt>
      <trkpt lat="43.54589" lon="6.7641">
        <ele>195.3</ele>
        <time>2019-12-10T10:43:57Z</time>
      </trkpt>
      <trkpt lat="43.54587" lon="6.76407">
        <ele>195.8</ele>
        <time>2019-12-10T10:43:59Z</time>
      </trkpt>
      <trkpt lat="43.54586" lon="6.76404">
        <ele>196.2</ele>
        <time>2019-12-10T10:44:01Z</time>
      </trkpt>
      <trkpt lat="43.54584" lon="6.76402">
        <ele>196.2</ele>
        <time>2019-12-10T10:44:03Z</time>
      </trkpt>
      <trkpt lat="43.54581" lon="6.764">
        <ele>196.7</ele>
        <time>2019-12-10T10:44:05Z</time>
      </trkpt>
      <trkpt lat="43.54579" lon="6.76398">
        <ele>196.7</ele>
        <time>2019-12-10T10:44:07Z</time>
      </trkpt>
      <trkpt lat="43.54577" lon="6.76395">
        <ele>197.2</ele>
        <time>2019-12-10T10:44:09Z</time>
      </trkpt>
      <trkpt lat="43.54575" lon="6.76392">
        <ele>197.7</ele>
        <time>2019-12-10T10:44:11Z</time>
      </trkpt>
      <trkpt lat="43.54575" lon="6.76389">
        <ele>197.7</ele>
        <time>2019-12-10T10:44:13Z</time>
      </trkpt>
      <trkpt lat="43.54575" lon="6.76385">
        <ele>197.7</ele>
        <time>2019-12-10T10:44:15Z</time>
      </trkpt>
      <trkpt lat="43.54576" lon="6.76382">
        <ele>197.7</ele>
        <time>2019-12-10T10:44:17Z</time>
      </trkpt>
      <trkpt lat="43.54578" lon="6.76379">
        <ele>198.2</ele>
        <time>2019-12-10T10:44:19Z</time>
      </trkpt>
      <trkpt lat="43.5458" lon="6.76377">
        <ele>198.6</ele>
        <time>2019-12-10T10:44:21Z</time>
      </trkpt>
      <trkpt lat="43.54583" lon="6.76375">
        <ele>198.6</ele>
        <time>2019-12-10T10:44:23Z</time>
      </trkpt>
      <trkpt lat="43.54585" lon="6.76373">
        <ele>199.1</ele>
        <time>2019-12-10T10:44:25Z</time>
      </trkpt>
      <trkpt lat="43.54588" lon="6.76372">
        <ele>199.6</ele>
        <time>2019-12-10T10:44:27Z</time>
      </trkpt>
      <trkpt lat="43.54591" lon="6.76372">
        <ele>199.6</ele>
        <time>2019-12-10T10:44:29Z</time>
      </trkpt>
      <trkpt lat="43.54594" lon="6.76372">
        <ele>200.1</ele>
        <time>2019-12-10T10:44:31Z</time>
      </trkpt>
      <trkpt lat="43.54597" lon="6.76371">
        <ele>200.6</ele>
        <time>2019-12-10T10:44:33Z</time>
      </trkpt>
      <trkpt lat="43.54599" lon="6.76371">
        <ele>200.6</ele>
        <time>2019-12-10T10:44:35Z</time>
      </trkpt>
      <trkpt lat="43.54602" lon="6.76371">
        <ele>201.1</ele>
        <time>2019-12-10T10:44:37Z</time>
      </trkpt>
      <trkpt lat="43.54605" lon="6.7637">
        <ele>201.5</ele>
        <time>2019-12-10T10:44:39Z</time>
      </trkpt>
      <trkpt lat="43.54608" lon="6.7637">
        <ele>202</ele>
        <time>2019-12-10T10:44:41Z</time>
      </trkpt>
      <trkpt lat="43.54612" lon="6.7637">
        <ele>202</ele>
        <time>2019-12-10T10:44:43Z</time>
      </trkpt>
      <trkpt lat="43.54614" lon="6.7637">
        <ele>202.5</ele>
        <time>2019-12-10T10:44:45Z</time>
      </trkpt>
      <trkpt lat="43.54617" lon="6.76369">
        <ele>202.5</ele>
        <time>2019-12-10T10:44:47Z</time>
      </trkpt>
      <trkpt lat="43.54619" lon="6.76367">
        <ele>202.5</ele>
        <time>2019-12-10T10:44:49Z</time>
      </trkpt>
      <trkpt lat="43.5462" lon="6.76364">
        <ele>203</ele>
        <time>2019-12-10T10:44:51Z</time>
      </trkpt>
      <trkpt lat="43.54621" lon="6.7636">
        <ele>203</ele>
        <time>2019-12-10T10:44:53Z</time>
      </trkpt>
      <trkpt lat="43.54622" lon="6.76356">
        <ele>203.5</ele>
        <time>2019-12-10T10:44:55Z</time>
      </trkpt>
      <trkpt lat="43.54622" lon="6.76352">
        <ele>203.5</ele>
        <time>2019-12-10T10:44:57Z</time>
      </trkpt>
      <trkpt lat="43.54621" lon="6.76348">
        <ele>203.9</ele>
        <time>2019-12-10T10:44:59Z</time>
      </trkpt>
      <trkpt lat="43.5462" lon="6.76345">
        <ele>203.9</ele>
        <time>2019-12-10T10:45:01Z</time>
      </trkpt>
      <trkpt lat="43.54619" lon="6.76341">
        <ele>203.9</ele>
        <time>2019-12-10T10:45:03Z</time>
      </trkpt>
      <trkpt lat="43.54618" lon="6.76338">
        <ele>203.9</ele>
        <time>2019-12-10T10:45:05Z</time>
      </trkpt>
      <trkpt lat="43.54617" lon="6.76335">
        <ele>204.4</ele>
        <time>2019-12-10T10:45:07Z</time>
      </trkpt>
      <trkpt lat="43.54614" lon="6.76334">
        <ele>204.4</ele>
        <time>2019-12-10T10:45:09Z</time>
      </trkpt>
      <trkpt lat="43.54612" lon="6.76332">
        <ele>204.9</ele>
        <time>2019-12-10T10:45:11Z</time>
      </trkpt>
      <trkpt lat="43.54611" lon="6.76329">
        <ele>205.4</ele>
        <time>2019-12-10T10:45:13Z</time>
      </trkpt>
      <trkpt lat="43.54609" lon="6.76326">
        <ele>205.9</ele>
        <time>2019-12-10T10:45:15Z</time>
      </trkpt>
      <trkpt lat="43.54608" lon="6.76325">
        <ele>206.3</ele>
        <time>2019-12-10T10:45:17Z</time>
      </trkpt>
      <trkpt lat="43.54607" lon="6.76322">
        <ele>206.3</ele>
        <time>2019-12-10T10:45:19Z</time>
      </trkpt>
      <trkpt lat="43.54605" lon="6.76321">
        <ele>206.3</ele>
        <time>2019-12-10T10:45:21Z</time>
      </trkpt>
      <trkpt lat="43.54602" lon="6.76318">
        <ele>206.3</ele>
        <time>2019-12-10T10:45:23Z</time>
      </trkpt>
      <trkpt lat="43.54599" lon="6.76315">
        <ele>206.3</ele>
        <time>2019-12-10T10:45:25Z</time>
      </trkpt>
      <trkpt lat="43.54598" lon="6.76312">
        <ele>206.3</ele>
        <time>2019-12-10T10:45:27Z</time>
      </trkpt>
      <trkpt lat="43.54596" lon="6.76309">
        <ele>206.8</ele>
        <time>2019-12-10T10:45:29Z</time>
      </trkpt>
      <trkpt lat="43.54595" lon="6.76305">
        <ele>206.8</ele>
        <time>2019-12-10T10:45:31Z</time>
      </trkpt>
      <trkpt lat="43.54593" lon="6.76302">
        <ele>206.8</ele>
        <time>2019-12-10T10:45:33Z</time>
      </trkpt>
      <trkpt lat="43.54592" lon="6.76298">
        <ele>207.3</ele>
        <time>2019-12-10T10:45:35Z</time>
      </trkpt>
      <trkpt lat="43.5459" lon="6.76296">
        <ele>207.8</ele>
        <time>2019-12-10T10:45:37Z</time>
      </trkpt>
      <trkpt lat="43.54588" lon="6.76293">
        <ele>207.8</ele>
        <time>2019-12-10T10:45:39Z</time>
      </trkpt>
      <trkpt lat="43.54587" lon="6.76289">
        <ele>208.3</ele>
        <time>2019-12-10T10:45:41Z</time>
      </trkpt>
      <trkpt lat="43.54586" lon="6.76285">
        <ele>208.3</ele>
        <time>2019-12-10T10:45:43Z</time>
      </trkpt>
      <trkpt lat="43.54585" lon="6.76282">
        <ele>208.3</ele>
        <time>2019-12-10T10:45:45Z</time>
      </trkpt>
      <trkpt lat="43.54583" lon="6.76279">
        <ele>208.3</ele>
        <time>2019-12-10T10:45:47Z</time>
      </trkpt>
      <trkpt lat="43.54581" lon="6.76276">
        <ele>208.7</ele>
        <time>2019-12-10T10:45:49Z</time>
      </trkpt>
      <trkpt lat="43.5458" lon="6.76273">
        <ele>209.2</ele>
        <time>2019-12-10T10:45:51Z</time>
      </trkpt>
      <trkpt lat="43.54578" lon="6.7627">
        <ele>209.2</ele>
        <time>2019-12-10T10:45:53Z</time>
      </trkpt>
      <trkpt lat="43.54577" lon="6.76267">
        <ele>209.7</ele>
        <time>2019-12-10T10:45:55Z</time>
      </trkpt>
      <trkpt lat="43.54576" lon="6.76264">
        <ele>209.2</ele>
        <time>2019-12-10T10:45:57Z</time>
      </trkpt>
      <trkpt lat="43.54575" lon="6.76261">
        <ele>209.2</ele>
        <time>2019-12-10T10:45:59Z</time>
      </trkpt>
      <trkpt lat="43.54574" lon="6.76258">
        <ele>209.2</ele>
        <time>2019-12-10T10:46:01Z</time>
      </trkpt>
      <trkpt lat="43.54572" lon="6.76255">
        <ele>209.2</ele>
        <time>2019-12-10T10:46:03Z</time>
      </trkpt>
      <trkpt lat="43.54571" lon="6.76251">
        <ele>209.7</ele>
        <time>2019-12-10T10:46:05Z</time>
      </trkpt>
      <trkpt lat="43.5457" lon="6.76248">
        <ele>210.2</ele>
        <time>2019-12-10T10:46:07Z</time>
      </trkpt>
      <trkpt lat="43.54568" lon="6.76245">
        <ele>210.2</ele>
        <time>2019-12-10T10:46:09Z</time>
      </trkpt>
      <trkpt lat="43.54566" lon="6.76242">
        <ele>210.2</ele>
        <time>2019-12-10T10:46:11Z</time>
      </trkpt>
      <trkpt lat="43.54565" lon="6.76238">
        <ele>210.7</ele>
        <time>2019-12-10T10:46:13Z</time>
      </trkpt>
      <trkpt lat="43.54563" lon="6.76235">
        <ele>210.7</ele>
        <time>2019-12-10T10:46:15Z</time>
      </trkpt>
      <trkpt lat="43.54562" lon="6.76231">
        <ele>210.7</ele>
        <time>2019-12-10T10:46:17Z</time>
      </trkpt>
      <trkpt lat="43.5456" lon="6.76228">
        <ele>210.7</ele>
        <time>2019-12-10T10:46:19Z</time>
      </trkpt>
      <trkpt lat="43.54558" lon="6.76225">
        <ele>210.7</ele>
        <time>2019-12-10T10:46:21Z</time>
      </trkpt>
      <trkpt lat="43.54556" lon="6.76222">
        <ele>210.7</ele>
        <time>2019-12-10T10:46:23Z</time>
      </trkpt>
      <trkpt lat="43.54555" lon="6.76219">
        <ele>210.2</ele>
        <time>2019-12-10T10:46:25Z</time>
      </trkpt>
      <trkpt lat="43.54553" lon="6.76216">
        <ele>209.7</ele>
        <time>2019-12-10T10:46:27Z</time>
      </trkpt>
      <trkpt lat="43.54552" lon="6.76212">
        <ele>209.7</ele>
        <time>2019-12-10T10:46:29Z</time>
      </trkpt>
      <trkpt lat="43.54551" lon="6.76209">
        <ele>209.7</ele>
        <time>2019-12-10T10:46:31Z</time>
      </trkpt>
      <trkpt lat="43.54549" lon="6.76206">
        <ele>210.2</ele>
        <time>2019-12-10T10:46:33Z</time>
      </trkpt>
      <trkpt lat="43.54547" lon="6.76204">
        <ele>210.2</ele>
        <time>2019-12-10T10:46:35Z</time>
      </trkpt>
      <trkpt lat="43.54545" lon="6.76201">
        <ele>210.2</ele>
        <time>2019-12-10T10:46:37Z</time>
      </trkpt>
      <trkpt lat="43.54544" lon="6.76197">
        <ele>210.2</ele>
        <time>2019-12-10T10:46:39Z</time>
      </trkpt>
      <trkpt lat="43.54543" lon="6.76193">
        <ele>209.7</ele>
        <time>2019-12-10T10:46:41Z</time>
      </trkpt>
      <trkpt lat="43.54542" lon="6.7619">
        <ele>209.7</ele>
        <time>2019-12-10T10:46:43Z</time>
      </trkpt>
      <trkpt lat="43.5454" lon="6.76187">
        <ele>210.2</ele>
        <time>2019-12-10T10:46:45Z</time>
      </trkpt>
      <trkpt lat="43.54538" lon="6.76185">
        <ele>210.2</ele>
        <time>2019-12-10T10:46:47Z</time>
      </trkpt>
      <trkpt lat="43.54537" lon="6.76182">
        <ele>210.2</ele>
        <time>2019-12-10T10:46:49Z</time>
      </trkpt>
      <trkpt lat="43.54535" lon="6.76179">
        <ele>210.7</ele>
        <time>2019-12-10T10:46:51Z</time>
      </trkpt>
      <trkpt lat="43.54533" lon="6.76176">
        <ele>210.7</ele>
        <time>2019-12-10T10:46:53Z</time>
      </trkpt>
      <trkpt lat="43.54532" lon="6.76173">
        <ele>210.7</ele>
        <time>2019-12-10T10:46:55Z</time>
      </trkpt>
      <trkpt lat="43.5453" lon="6.7617">
        <ele>211.1</ele>
        <time>2019-12-10T10:46:57Z</time>
      </trkpt>
      <trkpt lat="43.54528" lon="6.76167">
        <ele>211.6</ele>
        <time>2019-12-10T10:46:59Z</time>
      </trkpt>
      <trkpt lat="43.54526" lon="6.76164">
        <ele>211.6</ele>
        <time>2019-12-10T10:47:01Z</time>
      </trkpt>
      <trkpt lat="43.54524" lon="6.76162">
        <ele>212.1</ele>
        <time>2019-12-10T10:47:03Z</time>
      </trkpt>
      <trkpt lat="43.54522" lon="6.76159">
        <ele>212.6</ele>
        <time>2019-12-10T10:47:05Z</time>
      </trkpt>
      <trkpt lat="43.5452" lon="6.76157">
        <ele>213.1</ele>
        <time>2019-12-10T10:47:07Z</time>
      </trkpt>
      <trkpt lat="43.54518" lon="6.76154">
        <ele>213.1</ele>
        <time>2019-12-10T10:47:09Z</time>
      </trkpt>
      <trkpt lat="43.54516" lon="6.76152">
        <ele>212.1</ele>
        <time>2019-12-10T10:47:11Z</time>
      </trkpt>
      <trkpt lat="43.54514" lon="6.7615">
        <ele>212.1</ele>
        <time>2019-12-10T10:47:13Z</time>
      </trkpt>
      <trkpt lat="43.54512" lon="6.76147">
        <ele>212.1</ele>
        <time>2019-12-10T10:47:15Z</time>
      </trkpt>
      <trkpt lat="43.54511" lon="6.76144">
        <ele>212.6</ele>
        <time>2019-12-10T10:47:17Z</time>
      </trkpt>
      <trkpt lat="43.54509" lon="6.76142">
        <ele>212.6</ele>
        <time>2019-12-10T10:47:19Z</time>
      </trkpt>
      <trkpt lat="43.54506" lon="6.7614">
        <ele>212.6</ele>
        <time>2019-12-10T10:47:21Z</time>
      </trkpt>
      <trkpt lat="43.54503" lon="6.76138">
        <ele>213.1</ele>
        <time>2019-12-10T10:47:23Z</time>
      </trkpt>
      <trkpt lat="43.54501" lon="6.76136">
        <ele>213.1</ele>
        <time>2019-12-10T10:47:25Z</time>
      </trkpt>
      <trkpt lat="43.54499" lon="6.76134">
        <ele>213.6</ele>
        <time>2019-12-10T10:47:27Z</time>
      </trkpt>
      <trkpt lat="43.54497" lon="6.76132">
        <ele>214</ele>
        <time>2019-12-10T10:47:29Z</time>
      </trkpt>
      <trkpt lat="43.54495" lon="6.76129">
        <ele>214</ele>
        <time>2019-12-10T10:47:31Z</time>
      </trkpt>
      <trkpt lat="43.54494" lon="6.76126">
        <ele>215</ele>
        <time>2019-12-10T10:47:33Z</time>
      </trkpt>
      <trkpt lat="43.54492" lon="6.76122">
        <ele>216</ele>
        <time>2019-12-10T10:47:35Z</time>
      </trkpt>
      <trkpt lat="43.54492" lon="6.76119">
        <ele>216.4</ele>
        <time>2019-12-10T10:47:37Z</time>
      </trkpt>
      <trkpt lat="43.5449" lon="6.76115">
        <ele>217.4</ele>
        <time>2019-12-10T10:47:39Z</time>
      </trkpt>
      <trkpt lat="43.5449" lon="6.76109">
        <ele>218.4</ele>
        <time>2019-12-10T10:47:41Z</time>
      </trkpt>
      <trkpt lat="43.5449" lon="6.76105">
        <ele>218.8</ele>
        <time>2019-12-10T10:47:43Z</time>
      </trkpt>
      <trkpt lat="43.5449" lon="6.761">
        <ele>219.8</ele>
        <time>2019-12-10T10:47:45Z</time>
      </trkpt>
      <trkpt lat="43.54492" lon="6.76094">
        <ele>220.8</ele>
        <time>2019-12-10T10:47:47Z</time>
      </trkpt>
      <trkpt lat="43.54493" lon="6.76089">
        <ele>221.7</ele>
        <time>2019-12-10T10:47:49Z</time>
      </trkpt>
      <trkpt lat="43.54494" lon="6.76084">
        <ele>223.2</ele>
        <time>2019-12-10T10:47:51Z</time>
      </trkpt>
      <trkpt lat="43.54496" lon="6.76081">
        <ele>224.1</ele>
        <time>2019-12-10T10:47:53Z</time>
      </trkpt>
      <trkpt lat="43.54498" lon="6.76079">
        <ele>224.1</ele>
        <time>2019-12-10T10:47:55Z</time>
      </trkpt>
      <trkpt lat="43.545" lon="6.76079">
        <ele>224.6</ele>
        <time>2019-12-10T10:47:57Z</time>
      </trkpt>
      <trkpt lat="43.54502" lon="6.76078">
        <ele>225.6</ele>
        <time>2019-12-10T10:47:59Z</time>
      </trkpt>
      <trkpt lat="43.54504" lon="6.76079">
        <ele>226.5</ele>
        <time>2019-12-10T10:48:01Z</time>
      </trkpt>
      <trkpt lat="43.54507" lon="6.7608">
        <ele>227</ele>
        <time>2019-12-10T10:48:03Z</time>
      </trkpt>
      <trkpt lat="43.5451" lon="6.76081">
        <ele>227.5</ele>
        <time>2019-12-10T10:48:05Z</time>
      </trkpt>
      <trkpt lat="43.54514" lon="6.76082">
        <ele>228</ele>
        <time>2019-12-10T10:48:07Z</time>
      </trkpt>
      <trkpt lat="43.54517" lon="6.76081">
        <ele>228.9</ele>
        <time>2019-12-10T10:48:09Z</time>
      </trkpt>
      <trkpt lat="43.5452" lon="6.7608">
        <ele>229.4</ele>
        <time>2019-12-10T10:48:11Z</time>
      </trkpt>
      <trkpt lat="43.54522" lon="6.76081">
        <ele>230.4</ele>
        <time>2019-12-10T10:48:13Z</time>
      </trkpt>
      <trkpt lat="43.54525" lon="6.76081">
        <ele>230.9</ele>
        <time>2019-12-10T10:48:15Z</time>
      </trkpt>
      <trkpt lat="43.54528" lon="6.76082">
        <ele>231.3</ele>
        <time>2019-12-10T10:48:17Z</time>
      </trkpt>
      <trkpt lat="43.54532" lon="6.76083">
        <ele>231.3</ele>
        <time>2019-12-10T10:48:19Z</time>
      </trkpt>
      <trkpt lat="43.54535" lon="6.76084">
        <ele>231.3</ele>
        <time>2019-12-10T10:48:21Z</time>
      </trkpt>
      <trkpt lat="43.54538" lon="6.76084">
        <ele>231.8</ele>
        <time>2019-12-10T10:48:23Z</time>
      </trkpt>
      <trkpt lat="43.54541" lon="6.76084">
        <ele>231.8</ele>
        <time>2019-12-10T10:48:25Z</time>
      </trkpt>
      <trkpt lat="43.54544" lon="6.76084">
        <ele>232.3</ele>
        <time>2019-12-10T10:48:27Z</time>
      </trkpt>
      <trkpt lat="43.54547" lon="6.76084">
        <ele>232.3</ele>
        <time>2019-12-10T10:48:29Z</time>
      </trkpt>
      <trkpt lat="43.5455" lon="6.76083">
        <ele>232.3</ele>
        <time>2019-12-10T10:48:31Z</time>
      </trkpt>
      <trkpt lat="43.54552" lon="6.76083">
        <ele>232.8</ele>
        <time>2019-12-10T10:48:33Z</time>
      </trkpt>
      <trkpt lat="43.54556" lon="6.76082">
        <ele>231.3</ele>
        <time>2019-12-10T10:48:35Z</time>
      </trkpt>
      <trkpt lat="43.5456" lon="6.76082">
        <ele>230.4</ele>
        <time>2019-12-10T10:48:37Z</time>
      </trkpt>
      <trkpt lat="43.54563" lon="6.76082">
        <ele>230.4</ele>
        <time>2019-12-10T10:48:39Z</time>
      </trkpt>
      <trkpt lat="43.54566" lon="6.76083">
        <ele>230.4</ele>
        <time>2019-12-10T10:48:41Z</time>
      </trkpt>
      <trkpt lat="43.54569" lon="6.76083">
        <ele>230.4</ele>
        <time>2019-12-10T10:48:43Z</time>
      </trkpt>
      <trkpt lat="43.54572" lon="6.76082">
        <ele>230.4</ele>
        <time>2019-12-10T10:48:45Z</time>
      </trkpt>
      <trkpt lat="43.54576" lon="6.76082">
        <ele>229.9</ele>
        <time>2019-12-10T10:48:47Z</time>
      </trkpt>
      <trkpt lat="43.54578" lon="6.76083">
        <ele>229.9</ele>
        <time>2019-12-10T10:48:49Z</time>
      </trkpt>
      <trkpt lat="43.54581" lon="6.76082">
        <ele>229.4</ele>
        <time>2019-12-10T10:48:51Z</time>
      </trkpt>
      <trkpt lat="43.54585" lon="6.76081">
        <ele>229.4</ele>
        <time>2019-12-10T10:48:53Z</time>
      </trkpt>
      <trkpt lat="43.54587" lon="6.76081">
        <ele>229.4</ele>
        <time>2019-12-10T10:48:55Z</time>
      </trkpt>
      <trkpt lat="43.5459" lon="6.76079">
        <ele>229.4</ele>
        <time>2019-12-10T10:48:57Z</time>
      </trkpt>
      <trkpt lat="43.54593" lon="6.76076">
        <ele>228.9</ele>
        <time>2019-12-10T10:48:59Z</time>
      </trkpt>
      <trkpt lat="43.54596" lon="6.76074">
        <ele>228.9</ele>
        <time>2019-12-10T10:49:01Z</time>
      </trkpt>
      <trkpt lat="43.54599" lon="6.76073">
        <ele>228.9</ele>
        <time>2019-12-10T10:49:03Z</time>
      </trkpt>
      <trkpt lat="43.54601" lon="6.76071">
        <ele>228.9</ele>
        <time>2019-12-10T10:49:05Z</time>
      </trkpt>
      <trkpt lat="43.54604" lon="6.76068">
        <ele>229.9</ele>
        <time>2019-12-10T10:49:07Z</time>
      </trkpt>
      <trkpt lat="43.54606" lon="6.76065">
        <ele>229.4</ele>
        <time>2019-12-10T10:49:09Z</time>
      </trkpt>
      <trkpt lat="43.54607" lon="6.76061">
        <ele>229.9</ele>
        <time>2019-12-10T10:49:11Z</time>
      </trkpt>
      <trkpt lat="43.54608" lon="6.76057">
        <ele>229.9</ele>
        <time>2019-12-10T10:49:13Z</time>
      </trkpt>
      <trkpt lat="43.54608" lon="6.76053">
        <ele>229.9</ele>
        <time>2019-12-10T10:49:15Z</time>
      </trkpt>
      <trkpt lat="43.54608" lon="6.76049">
        <ele>229.9</ele>
        <time>2019-12-10T10:49:17Z</time>
      </trkpt>
      <trkpt lat="43.54608" lon="6.76045">
        <ele>230.4</ele>
        <time>2019-12-10T10:49:19Z</time>
      </trkpt>
      <trkpt lat="43.54607" lon="6.7604">
        <ele>229.9</ele>
        <time>2019-12-10T10:49:21Z</time>
      </trkpt>
      <trkpt lat="43.54606" lon="6.76036">
        <ele>229.9</ele>
        <time>2019-12-10T10:49:23Z</time>
      </trkpt>
      <trkpt lat="43.54605" lon="6.76032">
        <ele>229.9</ele>
        <time>2019-12-10T10:49:25Z</time>
      </trkpt>
      <trkpt lat="43.54604" lon="6.76028">
        <ele>229.9</ele>
        <time>2019-12-10T10:49:27Z</time>
      </trkpt>
      <trkpt lat="43.54603" lon="6.76024">
        <ele>229.9</ele>
        <time>2019-12-10T10:49:29Z</time>
      </trkpt>
      <trkpt lat="43.54602" lon="6.76021">
        <ele>229.9</ele>
        <time>2019-12-10T10:49:31Z</time>
      </trkpt>
      <trkpt lat="43.546" lon="6.76017">
        <ele>229.9</ele>
        <time>2019-12-10T10:49:33Z</time>
      </trkpt>
      <trkpt lat="43.54599" lon="6.76014">
        <ele>229.9</ele>
        <time>2019-12-10T10:49:35Z</time>
      </trkpt>
      <trkpt lat="43.54597" lon="6.7601">
        <ele>229.4</ele>
        <time>2019-12-10T10:49:37Z</time>
      </trkpt>
      <trkpt lat="43.54596" lon="6.76006">
        <ele>229.9</ele>
        <time>2019-12-10T10:49:39Z</time>
      </trkpt>
      <trkpt lat="43.54595" lon="6.76002">
        <ele>229.4</ele>
        <time>2019-12-10T10:49:41Z</time>
      </trkpt>
      <trkpt lat="43.54594" lon="6.75999">
        <ele>229.4</ele>
        <time>2019-12-10T10:49:43Z</time>
      </trkpt>
      <trkpt lat="43.54592" lon="6.75997">
        <ele>229.4</ele>
        <time>2019-12-10T10:49:45Z</time>
      </trkpt>
      <trkpt lat="43.5459" lon="6.75994">
        <ele>229.4</ele>
        <time>2019-12-10T10:49:47Z</time>
      </trkpt>
      <trkpt lat="43.54588" lon="6.75992">
        <ele>229.4</ele>
        <time>2019-12-10T10:49:49Z</time>
      </trkpt>
      <trkpt lat="43.54585" lon="6.7599">
        <ele>229.4</ele>
        <time>2019-12-10T10:49:51Z</time>
      </trkpt>
      <trkpt lat="43.54583" lon="6.75987">
        <ele>229.4</ele>
        <time>2019-12-10T10:49:53Z</time>
      </trkpt>
      <trkpt lat="43.54581" lon="6.75985">
        <ele>229.4</ele>
        <time>2019-12-10T10:49:55Z</time>
      </trkpt>
      <trkpt lat="43.54579" lon="6.75981">
        <ele>229.4</ele>
        <time>2019-12-10T10:49:57Z</time>
      </trkpt>
      <trkpt lat="43.54577" lon="6.75978">
        <ele>228.9</ele>
        <time>2019-12-10T10:49:59Z</time>
      </trkpt>
      <trkpt lat="43.54576" lon="6.75975">
        <ele>228.9</ele>
        <time>2019-12-10T10:50:01Z</time>
      </trkpt>
      <trkpt lat="43.54574" lon="6.75973">
        <ele>229.4</ele>
        <time>2019-12-10T10:50:03Z</time>
      </trkpt>
      <trkpt lat="43.54572" lon="6.75969">
        <ele>228.9</ele>
        <time>2019-12-10T10:50:05Z</time>
      </trkpt>
      <trkpt lat="43.5457" lon="6.75966">
        <ele>228.9</ele>
        <time>2019-12-10T10:50:07Z</time>
      </trkpt>
      <trkpt lat="43.54567" lon="6.75963">
        <ele>228.9</ele>
        <time>2019-12-10T10:50:09Z</time>
      </trkpt>
      <trkpt lat="43.54565" lon="6.75961">
        <ele>228.9</ele>
        <time>2019-12-10T10:50:11Z</time>
      </trkpt>
      <trkpt lat="43.54563" lon="6.75958">
        <ele>228.9</ele>
        <time>2019-12-10T10:50:13Z</time>
      </trkpt>
      <trkpt lat="43.54561" lon="6.75956">
        <ele>228.9</ele>
        <time>2019-12-10T10:50:15Z</time>
      </trkpt>
      <trkpt lat="43.5456" lon="6.75953">
        <ele>228.9</ele>
        <time>2019-12-10T10:50:17Z</time>
      </trkpt>
      <trkpt lat="43.54558" lon="6.7595">
        <ele>228.9</ele>
        <time>2019-12-10T10:50:19Z</time>
      </trkpt>
      <trkpt lat="43.54556" lon="6.75947">
        <ele>228.5</ele>
        <time>2019-12-10T10:50:21Z</time>
      </trkpt>
      <trkpt lat="43.54556" lon="6.75942">
        <ele>228.5</ele>
        <time>2019-12-10T10:50:23Z</time>
      </trkpt>
      <trkpt lat="43.54555" lon="6.75937">
        <ele>228.5</ele>
        <time>2019-12-10T10:50:25Z</time>
      </trkpt>
      <trkpt lat="43.54554" lon="6.75933">
        <ele>228.9</ele>
        <time>2019-12-10T10:50:27Z</time>
      </trkpt>
      <trkpt lat="43.54554" lon="6.7593">
        <ele>229.9</ele>
        <time>2019-12-10T10:50:29Z</time>
      </trkpt>
      <trkpt lat="43.54555" lon="6.75926">
        <ele>229.9</ele>
        <time>2019-12-10T10:50:31Z</time>
      </trkpt>
      <trkpt lat="43.54555" lon="6.75923">
        <ele>230.4</ele>
        <time>2019-12-10T10:50:33Z</time>
      </trkpt>
      <trkpt lat="43.54556" lon="6.75918">
        <ele>230.4</ele>
        <time>2019-12-10T10:50:35Z</time>
      </trkpt>
      <trkpt lat="43.54557" lon="6.75915">
        <ele>231.3</ele>
        <time>2019-12-10T10:50:37Z</time>
      </trkpt>
      <trkpt lat="43.54558" lon="6.75914">
        <ele>231.3</ele>
        <time>2019-12-10T10:50:39Z</time>
      </trkpt>
      <trkpt lat="43.54558" lon="6.7591">
        <ele>231.3</ele>
        <time>2019-12-10T10:50:41Z</time>
      </trkpt>
      <trkpt lat="43.54559" lon="6.75906">
        <ele>231.3</ele>
        <time>2019-12-10T10:50:43Z</time>
      </trkpt>
      <trkpt lat="43.54561" lon="6.75903">
        <ele>231.3</ele>
        <time>2019-12-10T10:50:45Z</time>
      </trkpt>
      <trkpt lat="43.54562" lon="6.75899">
        <ele>231.8</ele>
        <time>2019-12-10T10:50:47Z</time>
      </trkpt>
      <trkpt lat="43.54564" lon="6.75896">
        <ele>232.8</ele>
        <time>2019-12-10T10:50:49Z</time>
      </trkpt>
      <trkpt lat="43.54566" lon="6.75893">
        <ele>232.8</ele>
        <time>2019-12-10T10:50:51Z</time>
      </trkpt>
      <trkpt lat="43.54568" lon="6.75889">
        <ele>232.8</ele>
        <time>2019-12-10T10:50:53Z</time>
      </trkpt>
      <trkpt lat="43.54569" lon="6.75885">
        <ele>233.3</ele>
        <time>2019-12-10T10:50:55Z</time>
      </trkpt>
      <trkpt lat="43.54571" lon="6.75882">
        <ele>234.2</ele>
        <time>2019-12-10T10:50:57Z</time>
      </trkpt>
      <trkpt lat="43.54573" lon="6.75878">
        <ele>234.7</ele>
        <time>2019-12-10T10:50:59Z</time>
      </trkpt>
      <trkpt lat="43.54574" lon="6.75873">
        <ele>235.2</ele>
        <time>2019-12-10T10:51:01Z</time>
      </trkpt>
      <trkpt lat="43.54575" lon="6.75869">
        <ele>235.7</ele>
        <time>2019-12-10T10:51:03Z</time>
      </trkpt>
      <trkpt lat="43.54577" lon="6.75865">
        <ele>236.6</ele>
        <time>2019-12-10T10:51:05Z</time>
      </trkpt>
      <trkpt lat="43.54579" lon="6.75862">
        <ele>237.1</ele>
        <time>2019-12-10T10:51:07Z</time>
      </trkpt>
      <trkpt lat="43.5458" lon="6.75858">
        <ele>237.6</ele>
        <time>2019-12-10T10:51:09Z</time>
      </trkpt>
      <trkpt lat="43.54581" lon="6.75855">
        <ele>237.6</ele>
        <time>2019-12-10T10:51:11Z</time>
      </trkpt>
      <trkpt lat="43.54581" lon="6.75851">
        <ele>237.6</ele>
        <time>2019-12-10T10:51:13Z</time>
      </trkpt>
      <trkpt lat="43.54582" lon="6.75847">
        <ele>238.1</ele>
        <time>2019-12-10T10:51:15Z</time>
      </trkpt>
      <trkpt lat="43.54581" lon="6.75843">
        <ele>238.1</ele>
        <time>2019-12-10T10:51:17Z</time>
      </trkpt>
      <trkpt lat="43.54581" lon="6.7584">
        <ele>238.1</ele>
        <time>2019-12-10T10:51:19Z</time>
      </trkpt>
      <trkpt lat="43.5458" lon="6.75836">
        <ele>238.5</ele>
        <time>2019-12-10T10:51:21Z</time>
      </trkpt>
      <trkpt lat="43.5458" lon="6.75833">
        <ele>238.5</ele>
        <time>2019-12-10T10:51:23Z</time>
      </trkpt>
      <trkpt lat="43.54578" lon="6.75831">
        <ele>238.5</ele>
        <time>2019-12-10T10:51:25Z</time>
      </trkpt>
      <trkpt lat="43.54576" lon="6.75828">
        <ele>239</ele>
        <time>2019-12-10T10:51:27Z</time>
      </trkpt>
      <trkpt lat="43.54575" lon="6.75825">
        <ele>239</ele>
        <time>2019-12-10T10:51:29Z</time>
      </trkpt>
      <trkpt lat="43.54574" lon="6.75821">
        <ele>239</ele>
        <time>2019-12-10T10:51:31Z</time>
      </trkpt>
      <trkpt lat="43.54573" lon="6.75817">
        <ele>239.5</ele>
        <time>2019-12-10T10:51:33Z</time>
      </trkpt>
      <trkpt lat="43.54572" lon="6.75813">
        <ele>240</ele>
        <time>2019-12-10T10:51:35Z</time>
      </trkpt>
      <trkpt lat="43.54571" lon="6.7581">
        <ele>240.5</ele>
        <time>2019-12-10T10:51:37Z</time>
      </trkpt>
      <trkpt lat="43.5457" lon="6.75807">
        <ele>240.9</ele>
        <time>2019-12-10T10:51:39Z</time>
      </trkpt>
      <trkpt lat="43.54569" lon="6.75803">
        <ele>240.9</ele>
        <time>2019-12-10T10:51:41Z</time>
      </trkpt>
      <trkpt lat="43.54568" lon="6.758">
        <ele>241.4</ele>
        <time>2019-12-10T10:51:43Z</time>
      </trkpt>
      <trkpt lat="43.54567" lon="6.75796">
        <ele>241.9</ele>
        <time>2019-12-10T10:51:45Z</time>
      </trkpt>
      <trkpt lat="43.54566" lon="6.75792">
        <ele>242.4</ele>
        <time>2019-12-10T10:51:47Z</time>
      </trkpt>
      <trkpt lat="43.54565" lon="6.75788">
        <ele>242.4</ele>
        <time>2019-12-10T10:51:49Z</time>
      </trkpt>
      <trkpt lat="43.54564" lon="6.75784">
        <ele>242.9</ele>
        <time>2019-12-10T10:51:51Z</time>
      </trkpt>
      <trkpt lat="43.54562" lon="6.75781">
        <ele>243.4</ele>
        <time>2019-12-10T10:51:53Z</time>
      </trkpt>
      <trkpt lat="43.5456" lon="6.75778">
        <ele>243.8</ele>
        <time>2019-12-10T10:51:55Z</time>
      </trkpt>
      <trkpt lat="43.54558" lon="6.75776">
        <ele>243.8</ele>
        <time>2019-12-10T10:51:57Z</time>
      </trkpt>
      <trkpt lat="43.54555" lon="6.75774">
        <ele>243.8</ele>
        <time>2019-12-10T10:51:59Z</time>
      </trkpt>
      <trkpt lat="43.54552" lon="6.75772">
        <ele>242.9</ele>
        <time>2019-12-10T10:52:01Z</time>
      </trkpt>
      <trkpt lat="43.5455" lon="6.7577">
        <ele>242.9</ele>
        <time>2019-12-10T10:52:03Z</time>
      </trkpt>
      <trkpt lat="43.54548" lon="6.75767">
        <ele>242.9</ele>
        <time>2019-12-10T10:52:05Z</time>
      </trkpt>
      <trkpt lat="43.54545" lon="6.75766">
        <ele>243.4</ele>
        <time>2019-12-10T10:52:07Z</time>
      </trkpt>
      <trkpt lat="43.54543" lon="6.75764">
        <ele>243.4</ele>
        <time>2019-12-10T10:52:09Z</time>
      </trkpt>
      <trkpt lat="43.5454" lon="6.75763">
        <ele>243.4</ele>
        <time>2019-12-10T10:52:11Z</time>
      </trkpt>
      <trkpt lat="43.54538" lon="6.7576">
        <ele>243.4</ele>
        <time>2019-12-10T10:52:13Z</time>
      </trkpt>
      <trkpt lat="43.54536" lon="6.75758">
        <ele>243.4</ele>
        <time>2019-12-10T10:52:15Z</time>
      </trkpt>
      <trkpt lat="43.54535" lon="6.75756">
        <ele>242.9</ele>
        <time>2019-12-10T10:52:17Z</time>
      </trkpt>
      <trkpt lat="43.54533" lon="6.75752">
        <ele>242.9</ele>
        <time>2019-12-10T10:52:19Z</time>
      </trkpt>
      <trkpt lat="43.54531" lon="6.75748">
        <ele>243.4</ele>
        <time>2019-12-10T10:52:21Z</time>
      </trkpt>
      <trkpt lat="43.5453" lon="6.75745">
        <ele>243.4</ele>
        <time>2019-12-10T10:52:23Z</time>
      </trkpt>
      <trkpt lat="43.54529" lon="6.75742">
        <ele>243.8</ele>
        <time>2019-12-10T10:52:25Z</time>
      </trkpt>
      <trkpt lat="43.54528" lon="6.75737">
        <ele>243.8</ele>
        <time>2019-12-10T10:52:27Z</time>
      </trkpt>
      <trkpt lat="43.54528" lon="6.75732">
        <ele>244.3</ele>
        <time>2019-12-10T10:52:29Z</time>
      </trkpt>
      <trkpt lat="43.54529" lon="6.75727">
        <ele>244.3</ele>
        <time>2019-12-10T10:52:31Z</time>
      </trkpt>
      <trkpt lat="43.54529" lon="6.75723">
        <ele>244.8</ele>
        <time>2019-12-10T10:52:33Z</time>
      </trkpt>
      <trkpt lat="43.54528" lon="6.75719">
        <ele>245.3</ele>
        <time>2019-12-10T10:52:35Z</time>
      </trkpt>
      <trkpt lat="43.54528" lon="6.75715">
        <ele>245.8</ele>
        <time>2019-12-10T10:52:37Z</time>
      </trkpt>
      <trkpt lat="43.54528" lon="6.7571">
        <ele>245.8</ele>
        <time>2019-12-10T10:52:39Z</time>
      </trkpt>
      <trkpt lat="43.54528" lon="6.75706">
        <ele>246.2</ele>
        <time>2019-12-10T10:52:41Z</time>
      </trkpt>
      <trkpt lat="43.54528" lon="6.75702">
        <ele>246.7</ele>
        <time>2019-12-10T10:52:43Z</time>
      </trkpt>
      <trkpt lat="43.54527" lon="6.75698">
        <ele>247.2</ele>
        <time>2019-12-10T10:52:45Z</time>
      </trkpt>
      <trkpt lat="43.54526" lon="6.75694">
        <ele>247.2</ele>
        <time>2019-12-10T10:52:47Z</time>
      </trkpt>
      <trkpt lat="43.54525" lon="6.75691">
        <ele>247.7</ele>
        <time>2019-12-10T10:52:49Z</time>
      </trkpt>
      <trkpt lat="43.54523" lon="6.75688">
        <ele>247.7</ele>
        <time>2019-12-10T10:52:51Z</time>
      </trkpt>
      <trkpt lat="43.54522" lon="6.75684">
        <ele>247.7</ele>
        <time>2019-12-10T10:52:53Z</time>
      </trkpt>
      <trkpt lat="43.5452" lon="6.75681">
        <ele>248.2</ele>
        <time>2019-12-10T10:52:55Z</time>
      </trkpt>
      <trkpt lat="43.54518" lon="6.75678">
        <ele>248.6</ele>
        <time>2019-12-10T10:52:57Z</time>
      </trkpt>
      <trkpt lat="43.54516" lon="6.75675">
        <ele>249.1</ele>
        <time>2019-12-10T10:52:59Z</time>
      </trkpt>
      <trkpt lat="43.54515" lon="6.75671">
        <ele>249.6</ele>
        <time>2019-12-10T10:53:01Z</time>
      </trkpt>
      <trkpt lat="43.54514" lon="6.75667">
        <ele>250.1</ele>
        <time>2019-12-10T10:53:03Z</time>
      </trkpt>
      <trkpt lat="43.54513" lon="6.75663">
        <ele>250.6</ele>
        <time>2019-12-10T10:53:05Z</time>
      </trkpt>
      <trkpt lat="43.54511" lon="6.7566">
        <ele>251</ele>
        <time>2019-12-10T10:53:07Z</time>
      </trkpt>
      <trkpt lat="43.54509" lon="6.75657">
        <ele>251</ele>
        <time>2019-12-10T10:53:09Z</time>
      </trkpt>
      <trkpt lat="43.54507" lon="6.75653">
        <ele>251.5</ele>
        <time>2019-12-10T10:53:11Z</time>
      </trkpt>
      <trkpt lat="43.54505" lon="6.75651">
        <ele>252</ele>
        <time>2019-12-10T10:53:13Z</time>
      </trkpt>
      <trkpt lat="43.54503" lon="6.75648">
        <ele>252.5</ele>
        <time>2019-12-10T10:53:15Z</time>
      </trkpt>
      <trkpt lat="43.54502" lon="6.75645">
        <ele>253</ele>
        <time>2019-12-10T10:53:17Z</time>
      </trkpt>
      <trkpt lat="43.54501" lon="6.75641">
        <ele>253.4</ele>
        <time>2019-12-10T10:53:19Z</time>
      </trkpt>
      <trkpt lat="43.545" lon="6.75636">
        <ele>253.9</ele>
        <time>2019-12-10T10:53:21Z</time>
      </trkpt>
      <trkpt lat="43.545" lon="6.75632">
        <ele>254.4</ele>
        <time>2019-12-10T10:53:23Z</time>
      </trkpt>
      <trkpt lat="43.545" lon="6.75629">
        <ele>254.9</ele>
        <time>2019-12-10T10:53:25Z</time>
      </trkpt>
      <trkpt lat="43.54501" lon="6.75628">
        <ele>254.9</ele>
        <time>2019-12-10T10:53:27Z</time>
      </trkpt>
      <trkpt lat="43.54503" lon="6.75627">
        <ele>255.8</ele>
        <time>2019-12-10T10:53:29Z</time>
      </trkpt>
      <trkpt lat="43.54505" lon="6.75625">
        <ele>255.8</ele>
        <time>2019-12-10T10:53:31Z</time>
      </trkpt>
      <trkpt lat="43.54508" lon="6.75622">
        <ele>256.3</ele>
        <time>2019-12-10T10:53:33Z</time>
      </trkpt>
      <trkpt lat="43.5451" lon="6.7562">
        <ele>256.8</ele>
        <time>2019-12-10T10:53:35Z</time>
      </trkpt>
      <trkpt lat="43.54513" lon="6.75618">
        <ele>256.8</ele>
        <time>2019-12-10T10:53:37Z</time>
      </trkpt>
      <trkpt lat="43.54515" lon="6.75618">
        <ele>256.8</ele>
        <time>2019-12-10T10:53:39Z</time>
      </trkpt>
      <trkpt lat="43.54518" lon="6.75618">
        <ele>256.8</ele>
        <time>2019-12-10T10:53:41Z</time>
      </trkpt>
      <trkpt lat="43.54521" lon="6.75617">
        <ele>256.8</ele>
        <time>2019-12-10T10:53:43Z</time>
      </trkpt>
      <trkpt lat="43.54523" lon="6.75616">
        <ele>257.3</ele>
        <time>2019-12-10T10:53:45Z</time>
      </trkpt>
      <trkpt lat="43.54527" lon="6.75615">
        <ele>257.3</ele>
        <time>2019-12-10T10:53:47Z</time>
      </trkpt>
      <trkpt lat="43.54529" lon="6.75613">
        <ele>257.8</ele>
        <time>2019-12-10T10:53:49Z</time>
      </trkpt>
      <trkpt lat="43.54532" lon="6.75611">
        <ele>257.8</ele>
        <time>2019-12-10T10:53:51Z</time>
      </trkpt>
      <trkpt lat="43.54535" lon="6.75608">
        <ele>257.8</ele>
        <time>2019-12-10T10:53:53Z</time>
      </trkpt>
      <trkpt lat="43.54537" lon="6.75606">
        <ele>257.8</ele>
        <time>2019-12-10T10:53:55Z</time>
      </trkpt>
      <trkpt lat="43.54539" lon="6.75602">
        <ele>258.3</ele>
        <time>2019-12-10T10:53:57Z</time>
      </trkpt>
      <trkpt lat="43.54542" lon="6.75598">
        <ele>258.3</ele>
        <time>2019-12-10T10:53:59Z</time>
      </trkpt>
      <trkpt lat="43.54545" lon="6.75594">
        <ele>258.7</ele>
        <time>2019-12-10T10:54:01Z</time>
      </trkpt>
      <trkpt lat="43.54547" lon="6.7559">
        <ele>258.7</ele>
        <time>2019-12-10T10:54:03Z</time>
      </trkpt>
      <trkpt lat="43.54549" lon="6.75586">
        <ele>258.7</ele>
        <time>2019-12-10T10:54:05Z</time>
      </trkpt>
      <trkpt lat="43.54551" lon="6.75582">
        <ele>258.3</ele>
        <time>2019-12-10T10:54:07Z</time>
      </trkpt>
      <trkpt lat="43.54553" lon="6.75578">
        <ele>258.3</ele>
        <time>2019-12-10T10:54:09Z</time>
      </trkpt>
      <trkpt lat="43.54555" lon="6.75576">
        <ele>258.3</ele>
        <time>2019-12-10T10:54:11Z</time>
      </trkpt>
      <trkpt lat="43.54556" lon="6.75572">
        <ele>258.3</ele>
        <time>2019-12-10T10:54:13Z</time>
      </trkpt>
      <trkpt lat="43.54559" lon="6.75569">
        <ele>258.3</ele>
        <time>2019-12-10T10:54:15Z</time>
      </trkpt>
      <trkpt lat="43.54561" lon="6.75566">
        <ele>258.7</ele>
        <time>2019-12-10T10:54:17Z</time>
      </trkpt>
      <trkpt lat="43.54564" lon="6.75565">
        <ele>259.2</ele>
        <time>2019-12-10T10:54:19Z</time>
      </trkpt>
      <trkpt lat="43.54567" lon="6.75564">
        <ele>258.7</ele>
        <time>2019-12-10T10:54:21Z</time>
      </trkpt>
      <trkpt lat="43.54569" lon="6.75565">
        <ele>259.7</ele>
        <time>2019-12-10T10:54:23Z</time>
      </trkpt>
      <trkpt lat="43.54572" lon="6.75567">
        <ele>259.7</ele>
        <time>2019-12-10T10:54:25Z</time>
      </trkpt>
      <trkpt lat="43.54575" lon="6.7557">
        <ele>259.7</ele>
        <time>2019-12-10T10:54:27Z</time>
      </trkpt>
      <trkpt lat="43.54578" lon="6.75573">
        <ele>259.7</ele>
        <time>2019-12-10T10:54:29Z</time>
      </trkpt>
      <trkpt lat="43.54579" lon="6.75577">
        <ele>259.7</ele>
        <time>2019-12-10T10:54:31Z</time>
      </trkpt>
      <trkpt lat="43.54582" lon="6.75579">
        <ele>259.7</ele>
        <time>2019-12-10T10:54:33Z</time>
      </trkpt>
      <trkpt lat="43.54584" lon="6.75582">
        <ele>259.7</ele>
        <time>2019-12-10T10:54:35Z</time>
      </trkpt>
      <trkpt lat="43.54588" lon="6.75583">
        <ele>260.2</ele>
        <time>2019-12-10T10:54:37Z</time>
      </trkpt>
      <trkpt lat="43.54591" lon="6.75583">
        <ele>260.2</ele>
        <time>2019-12-10T10:54:39Z</time>
      </trkpt>
      <trkpt lat="43.54594" lon="6.75584">
        <ele>260.2</ele>
        <time>2019-12-10T10:54:41Z</time>
      </trkpt>
      <trkpt lat="43.54597" lon="6.75583">
        <ele>260.7</ele>
        <time>2019-12-10T10:54:43Z</time>
      </trkpt>
      <trkpt lat="43.546" lon="6.75582">
        <ele>261.1</ele>
        <time>2019-12-10T10:54:45Z</time>
      </trkpt>
      <trkpt lat="43.54602" lon="6.75579">
        <ele>261.1</ele>
        <time>2019-12-10T10:54:47Z</time>
      </trkpt>
      <trkpt lat="43.54604" lon="6.75576">
        <ele>262.1</ele>
        <time>2019-12-10T10:54:49Z</time>
      </trkpt>
      <trkpt lat="43.54607" lon="6.75573">
        <ele>262.6</ele>
        <time>2019-12-10T10:54:51Z</time>
      </trkpt>
      <trkpt lat="43.54609" lon="6.7557">
        <ele>262.6</ele>
        <time>2019-12-10T10:54:53Z</time>
      </trkpt>
      <trkpt lat="43.54611" lon="6.75567">
        <ele>263.1</ele>
        <time>2019-12-10T10:54:55Z</time>
      </trkpt>
      <trkpt lat="43.54613" lon="6.75563">
        <ele>263.1</ele>
        <time>2019-12-10T10:54:57Z</time>
      </trkpt>
      <trkpt lat="43.54615" lon="6.7556">
        <ele>263.1</ele>
        <time>2019-12-10T10:54:59Z</time>
      </trkpt>
      <trkpt lat="43.54617" lon="6.75557">
        <ele>262.6</ele>
        <time>2019-12-10T10:55:01Z</time>
      </trkpt>
      <trkpt lat="43.54619" lon="6.75553">
        <ele>262.6</ele>
        <time>2019-12-10T10:55:03Z</time>
      </trkpt>
      <trkpt lat="43.5462" lon="6.7555">
        <ele>262.6</ele>
        <time>2019-12-10T10:55:05Z</time>
      </trkpt>
      <trkpt lat="43.54621" lon="6.75545">
        <ele>262.6</ele>
        <time>2019-12-10T10:55:07Z</time>
      </trkpt>
      <trkpt lat="43.54622" lon="6.75542">
        <ele>263.1</ele>
        <time>2019-12-10T10:55:09Z</time>
      </trkpt>
      <trkpt lat="43.54623" lon="6.75537">
        <ele>263.1</ele>
        <time>2019-12-10T10:55:11Z</time>
      </trkpt>
      <trkpt lat="43.54624" lon="6.75533">
        <ele>263.1</ele>
        <time>2019-12-10T10:55:13Z</time>
      </trkpt>
      <trkpt lat="43.54624" lon="6.75529">
        <ele>263.1</ele>
        <time>2019-12-10T10:55:15Z</time>
      </trkpt>
      <trkpt lat="43.54626" lon="6.75525">
        <ele>263.1</ele>
        <time>2019-12-10T10:55:17Z</time>
      </trkpt>
      <trkpt lat="43.54627" lon="6.75521">
        <ele>263.1</ele>
        <time>2019-12-10T10:55:19Z</time>
      </trkpt>
      <trkpt lat="43.54628" lon="6.75517">
        <ele>263.1</ele>
        <time>2019-12-10T10:55:21Z</time>
      </trkpt>
      <trkpt lat="43.54629" lon="6.75513">
        <ele>263.1</ele>
        <time>2019-12-10T10:55:23Z</time>
      </trkpt>
      <trkpt lat="43.54629" lon="6.75509">
        <ele>263.1</ele>
        <time>2019-12-10T10:55:25Z</time>
      </trkpt>
      <trkpt lat="43.5463" lon="6.75505">
        <ele>262.6</ele>
        <time>2019-12-10T10:55:27Z</time>
      </trkpt>
      <trkpt lat="43.54631" lon="6.75501">
        <ele>262.1</ele>
        <time>2019-12-10T10:55:29Z</time>
      </trkpt>
      <trkpt lat="43.54632" lon="6.75497">
        <ele>262.1</ele>
        <time>2019-12-10T10:55:31Z</time>
      </trkpt>
      <trkpt lat="43.54632" lon="6.75493">
        <ele>262.1</ele>
        <time>2019-12-10T10:55:33Z</time>
      </trkpt>
      <trkpt lat="43.54634" lon="6.7549">
        <ele>262.1</ele>
        <time>2019-12-10T10:55:35Z</time>
      </trkpt>
      <trkpt lat="43.54634" lon="6.75486">
        <ele>262.1</ele>
        <time>2019-12-10T10:55:37Z</time>
      </trkpt>
      <trkpt lat="43.54635" lon="6.75481">
        <ele>263.1</ele>
        <time>2019-12-10T10:55:39Z</time>
      </trkpt>
      <trkpt lat="43.54634" lon="6.75478">
        <ele>263.1</ele>
        <time>2019-12-10T10:55:41Z</time>
      </trkpt>
      <trkpt lat="43.54633" lon="6.75474">
        <ele>263.1</ele>
        <time>2019-12-10T10:55:43Z</time>
      </trkpt>
      <trkpt lat="43.54632" lon="6.7547">
        <ele>263.5</ele>
        <time>2019-12-10T10:55:45Z</time>
      </trkpt>
      <trkpt lat="43.54632" lon="6.75467">
        <ele>264</ele>
        <time>2019-12-10T10:55:47Z</time>
      </trkpt>
      <trkpt lat="43.54631" lon="6.75464">
        <ele>264.5</ele>
        <time>2019-12-10T10:55:49Z</time>
      </trkpt>
      <trkpt lat="43.5463" lon="6.75461">
        <ele>265</ele>
        <time>2019-12-10T10:55:51Z</time>
      </trkpt>
      <trkpt lat="43.54629" lon="6.75458">
        <ele>265.5</ele>
        <time>2019-12-10T10:55:53Z</time>
      </trkpt>
      <trkpt lat="43.54627" lon="6.75455">
        <ele>265.9</ele>
        <time>2019-12-10T10:55:55Z</time>
      </trkpt>
      <trkpt lat="43.54625" lon="6.75453">
        <ele>265.9</ele>
        <time>2019-12-10T10:55:57Z</time>
      </trkpt>
      <trkpt lat="43.54623" lon="6.7545">
        <ele>266.4</ele>
        <time>2019-12-10T10:55:59Z</time>
      </trkpt>
      <trkpt lat="43.5462" lon="6.75448">
        <ele>266.4</ele>
        <time>2019-12-10T10:56:01Z</time>
      </trkpt>
      <trkpt lat="43.54619" lon="6.75445">
        <ele>266.4</ele>
        <time>2019-12-10T10:56:03Z</time>
      </trkpt>
      <trkpt lat="43.54617" lon="6.75442">
        <ele>266.9</ele>
        <time>2019-12-10T10:56:05Z</time>
      </trkpt>
      <trkpt lat="43.54615" lon="6.75439">
        <ele>266.9</ele>
        <time>2019-12-10T10:56:07Z</time>
      </trkpt>
      <trkpt lat="43.54612" lon="6.75436">
        <ele>267.4</ele>
        <time>2019-12-10T10:56:09Z</time>
      </trkpt>
      <trkpt lat="43.5461" lon="6.75433">
        <ele>267.4</ele>
        <time>2019-12-10T10:56:11Z</time>
      </trkpt>
      <trkpt lat="43.54608" lon="6.7543">
        <ele>267.9</ele>
        <time>2019-12-10T10:56:13Z</time>
      </trkpt>
      <trkpt lat="43.54606" lon="6.75428">
        <ele>267.9</ele>
        <time>2019-12-10T10:56:15Z</time>
      </trkpt>
      <trkpt lat="43.54603" lon="6.75426">
        <ele>268.3</ele>
        <time>2019-12-10T10:56:17Z</time>
      </trkpt>
      <trkpt lat="43.546" lon="6.75424">
        <ele>268.3</ele>
        <time>2019-12-10T10:56:19Z</time>
      </trkpt>
      <trkpt lat="43.54597" lon="6.75422">
        <ele>268.3</ele>
        <time>2019-12-10T10:56:21Z</time>
      </trkpt>
      <trkpt lat="43.54594" lon="6.75421">
        <ele>268.8</ele>
        <time>2019-12-10T10:56:23Z</time>
      </trkpt>
      <trkpt lat="43.54591" lon="6.75419">
        <ele>268.8</ele>
        <time>2019-12-10T10:56:25Z</time>
      </trkpt>
      <trkpt lat="43.54589" lon="6.75417">
        <ele>268.3</ele>
        <time>2019-12-10T10:56:27Z</time>
      </trkpt>
      <trkpt lat="43.54586" lon="6.75415">
        <ele>268.3</ele>
        <time>2019-12-10T10:56:29Z</time>
      </trkpt>
      <trkpt lat="43.54583" lon="6.75413">
        <ele>267.9</ele>
        <time>2019-12-10T10:56:31Z</time>
      </trkpt>
      <trkpt lat="43.54581" lon="6.75412">
        <ele>267.9</ele>
        <time>2019-12-10T10:56:33Z</time>
      </trkpt>
      <trkpt lat="43.54578" lon="6.7541">
        <ele>267.4</ele>
        <time>2019-12-10T10:56:35Z</time>
      </trkpt>
      <trkpt lat="43.54576" lon="6.75407">
        <ele>266.9</ele>
        <time>2019-12-10T10:56:37Z</time>
      </trkpt>
      <trkpt lat="43.54574" lon="6.75404">
        <ele>267.4</ele>
        <time>2019-12-10T10:56:39Z</time>
      </trkpt>
      <trkpt lat="43.54571" lon="6.75401">
        <ele>267.9</ele>
        <time>2019-12-10T10:56:41Z</time>
      </trkpt>
      <trkpt lat="43.54569" lon="6.75398">
        <ele>267.9</ele>
        <time>2019-12-10T10:56:43Z</time>
      </trkpt>
      <trkpt lat="43.54568" lon="6.75395">
        <ele>267.9</ele>
        <time>2019-12-10T10:56:45Z</time>
      </trkpt>
      <trkpt lat="43.54566" lon="6.75393">
        <ele>268.3</ele>
        <time>2019-12-10T10:56:47Z</time>
      </trkpt>
      <trkpt lat="43.54563" lon="6.75391">
        <ele>268.3</ele>
        <time>2019-12-10T10:56:49Z</time>
      </trkpt>
      <trkpt lat="43.54562" lon="6.75387">
        <ele>268.8</ele>
        <time>2019-12-10T10:56:51Z</time>
      </trkpt>
      <trkpt lat="43.5456" lon="6.75384">
        <ele>268.8</ele>
        <time>2019-12-10T10:56:53Z</time>
      </trkpt>
      <trkpt lat="43.54558" lon="6.75381">
        <ele>268.8</ele>
        <time>2019-12-10T10:56:55Z</time>
      </trkpt>
      <trkpt lat="43.54557" lon="6.75378">
        <ele>268.8</ele>
        <time>2019-12-10T10:56:57Z</time>
      </trkpt>
      <trkpt lat="43.54555" lon="6.75374">
        <ele>268.8</ele>
        <time>2019-12-10T10:56:59Z</time>
      </trkpt>
      <trkpt lat="43.54553" lon="6.75372">
        <ele>269.3</ele>
        <time>2019-12-10T10:57:01Z</time>
      </trkpt>
      <trkpt lat="43.54551" lon="6.75368">
        <ele>269.3</ele>
        <time>2019-12-10T10:57:03Z</time>
      </trkpt>
      <trkpt lat="43.54549" lon="6.75365">
        <ele>269.3</ele>
        <time>2019-12-10T10:57:05Z</time>
      </trkpt>
      <trkpt lat="43.54547" lon="6.75361">
        <ele>269.3</ele>
        <time>2019-12-10T10:57:07Z</time>
      </trkpt>
      <trkpt lat="43.54546" lon="6.75357">
        <ele>269.8</ele>
        <time>2019-12-10T10:57:09Z</time>
      </trkpt>
      <trkpt lat="43.54544" lon="6.75354">
        <ele>269.8</ele>
        <time>2019-12-10T10:57:11Z</time>
      </trkpt>
      <trkpt lat="43.54542" lon="6.7535">
        <ele>270.3</ele>
        <time>2019-12-10T10:57:13Z</time>
      </trkpt>
      <trkpt lat="43.54541" lon="6.75346">
        <ele>270.3</ele>
        <time>2019-12-10T10:57:15Z</time>
      </trkpt>
      <trkpt lat="43.54541" lon="6.75342">
        <ele>270.3</ele>
        <time>2019-12-10T10:57:17Z</time>
      </trkpt>
      <trkpt lat="43.54542" lon="6.75337">
        <ele>270.7</ele>
        <time>2019-12-10T10:57:19Z</time>
      </trkpt>
      <trkpt lat="43.54543" lon="6.75334">
        <ele>270.3</ele>
        <time>2019-12-10T10:57:21Z</time>
      </trkpt>
      <trkpt lat="43.54544" lon="6.7533">
        <ele>270.3</ele>
        <time>2019-12-10T10:57:23Z</time>
      </trkpt>
      <trkpt lat="43.54546" lon="6.75327">
        <ele>269.8</ele>
        <time>2019-12-10T10:57:25Z</time>
      </trkpt>
      <trkpt lat="43.54548" lon="6.75323">
        <ele>270.3</ele>
        <time>2019-12-10T10:57:27Z</time>
      </trkpt>
      <trkpt lat="43.5455" lon="6.7532">
        <ele>270.3</ele>
        <time>2019-12-10T10:57:29Z</time>
      </trkpt>
      <trkpt lat="43.54552" lon="6.75317">
        <ele>270.3</ele>
        <time>2019-12-10T10:57:31Z</time>
      </trkpt>
      <trkpt lat="43.54555" lon="6.75315">
        <ele>270.7</ele>
        <time>2019-12-10T10:57:33Z</time>
      </trkpt>
      <trkpt lat="43.54557" lon="6.75313">
        <ele>270.7</ele>
        <time>2019-12-10T10:57:35Z</time>
      </trkpt>
      <trkpt lat="43.5456" lon="6.75311">
        <ele>271.2</ele>
        <time>2019-12-10T10:57:37Z</time>
      </trkpt>
      <trkpt lat="43.54563" lon="6.75311">
        <ele>271.2</ele>
        <time>2019-12-10T10:57:39Z</time>
      </trkpt>
      <trkpt lat="43.54566" lon="6.75309">
        <ele>272.2</ele>
        <time>2019-12-10T10:57:41Z</time>
      </trkpt>
      <trkpt lat="43.5457" lon="6.7531">
        <ele>272.2</ele>
        <time>2019-12-10T10:57:43Z</time>
      </trkpt>
      <trkpt lat="43.54573" lon="6.75309">
        <ele>272.7</ele>
        <time>2019-12-10T10:57:45Z</time>
      </trkpt>
      <trkpt lat="43.54577" lon="6.75309">
        <ele>273.2</ele>
        <time>2019-12-10T10:57:47Z</time>
      </trkpt>
      <trkpt lat="43.5458" lon="6.75309">
        <ele>274.6</ele>
        <time>2019-12-10T10:57:49Z</time>
      </trkpt>
      <trkpt lat="43.54583" lon="6.75309">
        <ele>275.6</ele>
        <time>2019-12-10T10:57:51Z</time>
      </trkpt>
      <trkpt lat="43.54587" lon="6.75307">
        <ele>275.6</ele>
        <time>2019-12-10T10:57:53Z</time>
      </trkpt>
      <trkpt lat="43.5459" lon="6.75305">
        <ele>275.6</ele>
        <time>2019-12-10T10:57:55Z</time>
      </trkpt>
      <trkpt lat="43.54593" lon="6.75303">
        <ele>276</ele>
        <time>2019-12-10T10:57:57Z</time>
      </trkpt>
      <trkpt lat="43.54595" lon="6.75302">
        <ele>276</ele>
        <time>2019-12-10T10:57:59Z</time>
      </trkpt>
      <trkpt lat="43.54598" lon="6.75303">
        <ele>277</ele>
        <time>2019-12-10T10:58:01Z</time>
      </trkpt>
      <trkpt lat="43.54601" lon="6.75303">
        <ele>277</ele>
        <time>2019-12-10T10:58:03Z</time>
      </trkpt>
      <trkpt lat="43.54604" lon="6.75303">
        <ele>277.5</ele>
        <time>2019-12-10T10:58:05Z</time>
      </trkpt>
      <trkpt lat="43.54607" lon="6.75301">
        <ele>277.5</ele>
        <time>2019-12-10T10:58:07Z</time>
      </trkpt>
      <trkpt lat="43.5461" lon="6.753">
        <ele>278</ele>
        <time>2019-12-10T10:58:09Z</time>
      </trkpt>
      <trkpt lat="43.54614" lon="6.75298">
        <ele>278</ele>
        <time>2019-12-10T10:58:11Z</time>
      </trkpt>
      <trkpt lat="43.54616" lon="6.75296">
        <ele>278</ele>
        <time>2019-12-10T10:58:13Z</time>
      </trkpt>
      <trkpt lat="43.54619" lon="6.75294">
        <ele>278</ele>
        <time>2019-12-10T10:58:15Z</time>
      </trkpt>
      <trkpt lat="43.54622" lon="6.75293">
        <ele>278</ele>
        <time>2019-12-10T10:58:17Z</time>
      </trkpt>
      <trkpt lat="43.54626" lon="6.75292">
        <ele>278.4</ele>
        <time>2019-12-10T10:58:19Z</time>
      </trkpt>
      <trkpt lat="43.54629" lon="6.75291">
        <ele>278.4</ele>
        <time>2019-12-10T10:58:21Z</time>
      </trkpt>
      <trkpt lat="43.54632" lon="6.7529">
        <ele>278.9</ele>
        <time>2019-12-10T10:58:23Z</time>
      </trkpt>
      <trkpt lat="43.54635" lon="6.75288">
        <ele>279.4</ele>
        <time>2019-12-10T10:58:25Z</time>
      </trkpt>
      <trkpt lat="43.54638" lon="6.75287">
        <ele>279.9</ele>
        <time>2019-12-10T10:58:27Z</time>
      </trkpt>
      <trkpt lat="43.5464" lon="6.75285">
        <ele>279.9</ele>
        <time>2019-12-10T10:58:29Z</time>
      </trkpt>
      <trkpt lat="43.54643" lon="6.75283">
        <ele>279.9</ele>
        <time>2019-12-10T10:58:31Z</time>
      </trkpt>
      <trkpt lat="43.54646" lon="6.7528">
        <ele>279.9</ele>
        <time>2019-12-10T10:58:33Z</time>
      </trkpt>
      <trkpt lat="43.54648" lon="6.75278">
        <ele>280.4</ele>
        <time>2019-12-10T10:58:35Z</time>
      </trkpt>
      <trkpt lat="43.5465" lon="6.75275">
        <ele>280.8</ele>
        <time>2019-12-10T10:58:37Z</time>
      </trkpt>
      <trkpt lat="43.54652" lon="6.75271">
        <ele>281.3</ele>
        <time>2019-12-10T10:58:39Z</time>
      </trkpt>
      <trkpt lat="43.54654" lon="6.75268">
        <ele>281.3</ele>
        <time>2019-12-10T10:58:41Z</time>
      </trkpt>
      <trkpt lat="43.54655" lon="6.75265">
        <ele>281.3</ele>
        <time>2019-12-10T10:58:43Z</time>
      </trkpt>
      <trkpt lat="43.54656" lon="6.75261">
        <ele>281.3</ele>
        <time>2019-12-10T10:58:45Z</time>
      </trkpt>
      <trkpt lat="43.54657" lon="6.75256">
        <ele>281.3</ele>
        <time>2019-12-10T10:58:47Z</time>
      </trkpt>
      <trkpt lat="43.54658" lon="6.75252">
        <ele>280.8</ele>
        <time>2019-12-10T10:58:49Z</time>
      </trkpt>
      <trkpt lat="43.54659" lon="6.75249">
        <ele>280.8</ele>
        <time>2019-12-10T10:58:51Z</time>
      </trkpt>
      <trkpt lat="43.54661" lon="6.75245">
        <ele>281.3</ele>
        <time>2019-12-10T10:58:53Z</time>
      </trkpt>
      <trkpt lat="43.54663" lon="6.75242">
        <ele>281.8</ele>
        <time>2019-12-10T10:58:55Z</time>
      </trkpt>
      <trkpt lat="43.54664" lon="6.75238">
        <ele>282.3</ele>
        <time>2019-12-10T10:58:57Z</time>
      </trkpt>
      <trkpt lat="43.54665" lon="6.75233">
        <ele>282.3</ele>
        <time>2019-12-10T10:58:59Z</time>
      </trkpt>
      <trkpt lat="43.54667" lon="6.75229">
        <ele>282.8</ele>
        <time>2019-12-10T10:59:01Z</time>
      </trkpt>
      <trkpt lat="43.54669" lon="6.75226">
        <ele>283.2</ele>
        <time>2019-12-10T10:59:03Z</time>
      </trkpt>
      <trkpt lat="43.54669" lon="6.75221">
        <ele>283.2</ele>
        <time>2019-12-10T10:59:05Z</time>
      </trkpt>
      <trkpt lat="43.54668" lon="6.75217">
        <ele>283.7</ele>
        <time>2019-12-10T10:59:07Z</time>
      </trkpt>
      <trkpt lat="43.54668" lon="6.75212">
        <ele>283.7</ele>
        <time>2019-12-10T10:59:09Z</time>
      </trkpt>
      <trkpt lat="43.54669" lon="6.75208">
        <ele>284.2</ele>
        <time>2019-12-10T10:59:11Z</time>
      </trkpt>
      <trkpt lat="43.54669" lon="6.75203">
        <ele>284.2</ele>
        <time>2019-12-10T10:59:13Z</time>
      </trkpt>
      <trkpt lat="43.5467" lon="6.75199">
        <ele>284.7</ele>
        <time>2019-12-10T10:59:15Z</time>
      </trkpt>
      <trkpt lat="43.5467" lon="6.75194">
        <ele>285.2</ele>
        <time>2019-12-10T10:59:17Z</time>
      </trkpt>
      <trkpt lat="43.5467" lon="6.7519">
        <ele>285.2</ele>
        <time>2019-12-10T10:59:19Z</time>
      </trkpt>
      <trkpt lat="43.5467" lon="6.75186">
        <ele>285.2</ele>
        <time>2019-12-10T10:59:21Z</time>
      </trkpt>
      <trkpt lat="43.54669" lon="6.75183">
        <ele>285.6</ele>
        <time>2019-12-10T10:59:23Z</time>
      </trkpt>
      <trkpt lat="43.54668" lon="6.75179">
        <ele>285.6</ele>
        <time>2019-12-10T10:59:25Z</time>
      </trkpt>
      <trkpt lat="43.54667" lon="6.75176">
        <ele>285.6</ele>
        <time>2019-12-10T10:59:27Z</time>
      </trkpt>
      <trkpt lat="43.54666" lon="6.75173">
        <ele>285.6</ele>
        <time>2019-12-10T10:59:29Z</time>
      </trkpt>
      <trkpt lat="43.54664" lon="6.7517">
        <ele>286.1</ele>
        <time>2019-12-10T10:59:31Z</time>
      </trkpt>
      <trkpt lat="43.54662" lon="6.75166">
        <ele>286.1</ele>
        <time>2019-12-10T10:59:33Z</time>
      </trkpt>
      <trkpt lat="43.5466" lon="6.75163">
        <ele>286.1</ele>
        <time>2019-12-10T10:59:35Z</time>
      </trkpt>
      <trkpt lat="43.54659" lon="6.75159">
        <ele>286.6</ele>
        <time>2019-12-10T10:59:37Z</time>
      </trkpt>
      <trkpt lat="43.54656" lon="6.75157">
        <ele>286.6</ele>
        <time>2019-12-10T10:59:39Z</time>
      </trkpt>
      <trkpt lat="43.54654" lon="6.75154">
        <ele>286.1</ele>
        <time>2019-12-10T10:59:41Z</time>
      </trkpt>
      <trkpt lat="43.54652" lon="6.75151">
        <ele>287.1</ele>
        <time>2019-12-10T10:59:43Z</time>
      </trkpt>
      <trkpt lat="43.54649" lon="6.7515">
        <ele>287.6</ele>
        <time>2019-12-10T10:59:45Z</time>
      </trkpt>
      <trkpt lat="43.54645" lon="6.75149">
        <ele>287.1</ele>
        <time>2019-12-10T10:59:47Z</time>
      </trkpt>
      <trkpt lat="43.54642" lon="6.75147">
        <ele>287.1</ele>
        <time>2019-12-10T10:59:49Z</time>
      </trkpt>
      <trkpt lat="43.54639" lon="6.75145">
        <ele>287.6</ele>
        <time>2019-12-10T10:59:51Z</time>
      </trkpt>
      <trkpt lat="43.54637" lon="6.75143">
        <ele>287.1</ele>
        <time>2019-12-10T10:59:53Z</time>
      </trkpt>
      <trkpt lat="43.54634" lon="6.75141">
        <ele>287.6</ele>
        <time>2019-12-10T10:59:55Z</time>
      </trkpt>
      <trkpt lat="43.54631" lon="6.75139">
        <ele>288.1</ele>
        <time>2019-12-10T10:59:57Z</time>
      </trkpt>
      <trkpt lat="43.54629" lon="6.75137">
        <ele>288.1</ele>
        <time>2019-12-10T10:59:59Z</time>
      </trkpt>
      <trkpt lat="43.54627" lon="6.75135">
        <ele>288.1</ele>
        <time>2019-12-10T11:00:01Z</time>
      </trkpt>
      <trkpt lat="43.54624" lon="6.75133">
        <ele>288.1</ele>
        <time>2019-12-10T11:00:03Z</time>
      </trkpt>
      <trkpt lat="43.54622" lon="6.7513">
        <ele>288.1</ele>
        <time>2019-12-10T11:00:05Z</time>
      </trkpt>
      <trkpt lat="43.5462" lon="6.75127">
        <ele>288.1</ele>
        <time>2019-12-10T11:00:07Z</time>
      </trkpt>
      <trkpt lat="43.54618" lon="6.75125">
        <ele>288.1</ele>
        <time>2019-12-10T11:00:09Z</time>
      </trkpt>
      <trkpt lat="43.54615" lon="6.75122">
        <ele>287.6</ele>
        <time>2019-12-10T11:00:11Z</time>
      </trkpt>
      <trkpt lat="43.54613" lon="6.75119">
        <ele>287.1</ele>
        <time>2019-12-10T11:00:13Z</time>
      </trkpt>
      <trkpt lat="43.54611" lon="6.75115">
        <ele>287.1</ele>
        <time>2019-12-10T11:00:15Z</time>
      </trkpt>
      <trkpt lat="43.54609" lon="6.7511">
        <ele>287.1</ele>
        <time>2019-12-10T11:00:17Z</time>
      </trkpt>
      <trkpt lat="43.54607" lon="6.75107">
        <ele>286.6</ele>
        <time>2019-12-10T11:00:19Z</time>
      </trkpt>
      <trkpt lat="43.54605" lon="6.75103">
        <ele>286.6</ele>
        <time>2019-12-10T11:00:21Z</time>
      </trkpt>
      <trkpt lat="43.54603" lon="6.751">
        <ele>286.6</ele>
        <time>2019-12-10T11:00:23Z</time>
      </trkpt>
      <trkpt lat="43.54601" lon="6.75097">
        <ele>286.1</ele>
        <time>2019-12-10T11:00:25Z</time>
      </trkpt>
      <trkpt lat="43.546" lon="6.75094">
        <ele>286.1</ele>
        <time>2019-12-10T11:00:27Z</time>
      </trkpt>
      <trkpt lat="43.54597" lon="6.75091">
        <ele>285.6</ele>
        <time>2019-12-10T11:00:29Z</time>
      </trkpt>
      <trkpt lat="43.54596" lon="6.75087">
        <ele>285.2</ele>
        <time>2019-12-10T11:00:31Z</time>
      </trkpt>
      <trkpt lat="43.54593" lon="6.75084">
        <ele>285.2</ele>
        <time>2019-12-10T11:00:33Z</time>
      </trkpt>
      <trkpt lat="43.54591" lon="6.75081">
        <ele>285.6</ele>
        <time>2019-12-10T11:00:35Z</time>
      </trkpt>
      <trkpt lat="43.54588" lon="6.75078">
        <ele>285.6</ele>
        <time>2019-12-10T11:00:37Z</time>
      </trkpt>
      <trkpt lat="43.54586" lon="6.75075">
        <ele>285.6</ele>
        <time>2019-12-10T11:00:39Z</time>
      </trkpt>
      <trkpt lat="43.54584" lon="6.75073">
        <ele>285.6</ele>
        <time>2019-12-10T11:00:41Z</time>
      </trkpt>
      <trkpt lat="43.54582" lon="6.75069">
        <ele>286.1</ele>
        <time>2019-12-10T11:00:43Z</time>
      </trkpt>
      <trkpt lat="43.54582" lon="6.75065">
        <ele>286.1</ele>
        <time>2019-12-10T11:00:45Z</time>
      </trkpt>
      <trkpt lat="43.54582" lon="6.75062">
        <ele>286.1</ele>
        <time>2019-12-10T11:00:47Z</time>
      </trkpt>
      <trkpt lat="43.5458" lon="6.75058">
        <ele>286.1</ele>
        <time>2019-12-10T11:00:49Z</time>
      </trkpt>
      <trkpt lat="43.54579" lon="6.75054">
        <ele>286.1</ele>
        <time>2019-12-10T11:00:51Z</time>
      </trkpt>
      <trkpt lat="43.54579" lon="6.7505">
        <ele>286.1</ele>
        <time>2019-12-10T11:00:53Z</time>
      </trkpt>
      <trkpt lat="43.54579" lon="6.75044">
        <ele>286.6</ele>
        <time>2019-12-10T11:00:55Z</time>
      </trkpt>
      <trkpt lat="43.54578" lon="6.75039">
        <ele>286.6</ele>
        <time>2019-12-10T11:00:57Z</time>
      </trkpt>
      <trkpt lat="43.54578" lon="6.75034">
        <ele>286.1</ele>
        <time>2019-12-10T11:00:59Z</time>
      </trkpt>
      <trkpt lat="43.54577" lon="6.75029">
        <ele>286.1</ele>
        <time>2019-12-10T11:01:01Z</time>
      </trkpt>
      <trkpt lat="43.54577" lon="6.75025">
        <ele>286.1</ele>
        <time>2019-12-10T11:01:03Z</time>
      </trkpt>
      <trkpt lat="43.54578" lon="6.75021">
        <ele>285.6</ele>
        <time>2019-12-10T11:01:05Z</time>
      </trkpt>
      <trkpt lat="43.54577" lon="6.75018">
        <ele>285.6</ele>
        <time>2019-12-10T11:01:07Z</time>
      </trkpt>
      <trkpt lat="43.54577" lon="6.75013">
        <ele>285.6</ele>
        <time>2019-12-10T11:01:09Z</time>
      </trkpt>
      <trkpt lat="43.54577" lon="6.7501">
        <ele>285.6</ele>
        <time>2019-12-10T11:01:11Z</time>
      </trkpt>
      <trkpt lat="43.54576" lon="6.75005">
        <ele>285.6</ele>
        <time>2019-12-10T11:01:13Z</time>
      </trkpt>
      <trkpt lat="43.54575" lon="6.75002">
        <ele>285.6</ele>
        <time>2019-12-10T11:01:15Z</time>
      </trkpt>
      <trkpt lat="43.54574" lon="6.74998">
        <ele>285.6</ele>
        <time>2019-12-10T11:01:17Z</time>
      </trkpt>
      <trkpt lat="43.54574" lon="6.74992">
        <ele>286.1</ele>
        <time>2019-12-10T11:01:19Z</time>
      </trkpt>
      <trkpt lat="43.54574" lon="6.74988">
        <ele>286.1</ele>
        <time>2019-12-10T11:01:21Z</time>
      </trkpt>
      <trkpt lat="43.54573" lon="6.74982">
        <ele>286.1</ele>
        <time>2019-12-10T11:01:23Z</time>
      </trkpt>
      <trkpt lat="43.54571" lon="6.74977">
        <ele>285.6</ele>
        <time>2019-12-10T11:01:25Z</time>
      </trkpt>
      <trkpt lat="43.5457" lon="6.74972">
        <ele>286.1</ele>
        <time>2019-12-10T11:01:27Z</time>
      </trkpt>
      <trkpt lat="43.5457" lon="6.74968">
        <ele>286.1</ele>
        <time>2019-12-10T11:01:29Z</time>
      </trkpt>
      <trkpt lat="43.54569" lon="6.74964">
        <ele>286.1</ele>
        <time>2019-12-10T11:01:31Z</time>
      </trkpt>
      <trkpt lat="43.54567" lon="6.7496">
        <ele>285.6</ele>
        <time>2019-12-10T11:01:33Z</time>
      </trkpt>
      <trkpt lat="43.54566" lon="6.74956">
        <ele>285.6</ele>
        <time>2019-12-10T11:01:35Z</time>
      </trkpt>
      <trkpt lat="43.54565" lon="6.74951">
        <ele>285.6</ele>
        <time>2019-12-10T11:01:37Z</time>
      </trkpt>
      <trkpt lat="43.54564" lon="6.74945">
        <ele>285.6</ele>
        <time>2019-12-10T11:01:39Z</time>
      </trkpt>
      <trkpt lat="43.54563" lon="6.74941">
        <ele>285.6</ele>
        <time>2019-12-10T11:01:41Z</time>
      </trkpt>
      <trkpt lat="43.54563" lon="6.74936">
        <ele>285.2</ele>
        <time>2019-12-10T11:01:43Z</time>
      </trkpt>
      <trkpt lat="43.54563" lon="6.74931">
        <ele>285.2</ele>
        <time>2019-12-10T11:01:45Z</time>
      </trkpt>
      <trkpt lat="43.54563" lon="6.74927">
        <ele>284.7</ele>
        <time>2019-12-10T11:01:47Z</time>
      </trkpt>
      <trkpt lat="43.54565" lon="6.74922">
        <ele>284.7</ele>
        <time>2019-12-10T11:01:49Z</time>
      </trkpt>
      <trkpt lat="43.54565" lon="6.74917">
        <ele>284.2</ele>
        <time>2019-12-10T11:01:51Z</time>
      </trkpt>
      <trkpt lat="43.54566" lon="6.74911">
        <ele>284.2</ele>
        <time>2019-12-10T11:01:53Z</time>
      </trkpt>
      <trkpt lat="43.54567" lon="6.74906">
        <ele>284.2</ele>
        <time>2019-12-10T11:01:55Z</time>
      </trkpt>
      <trkpt lat="43.54568" lon="6.749">
        <ele>283.7</ele>
        <time>2019-12-10T11:01:57Z</time>
      </trkpt>
      <trkpt lat="43.54568" lon="6.74896">
        <ele>283.2</ele>
        <time>2019-12-10T11:01:59Z</time>
      </trkpt>
      <trkpt lat="43.54569" lon="6.74891">
        <ele>282.8</ele>
        <time>2019-12-10T11:02:01Z</time>
      </trkpt>
      <trkpt lat="43.5457" lon="6.74887">
        <ele>282.3</ele>
        <time>2019-12-10T11:02:03Z</time>
      </trkpt>
      <trkpt lat="43.5457" lon="6.74881">
        <ele>281.8</ele>
        <time>2019-12-10T11:02:05Z</time>
      </trkpt>
      <trkpt lat="43.54571" lon="6.74876">
        <ele>281.3</ele>
        <time>2019-12-10T11:02:07Z</time>
      </trkpt>
      <trkpt lat="43.5457" lon="6.74872">
        <ele>280.8</ele>
        <time>2019-12-10T11:02:09Z</time>
      </trkpt>
      <trkpt lat="43.54571" lon="6.74867">
        <ele>280.4</ele>
        <time>2019-12-10T11:02:11Z</time>
      </trkpt>
      <trkpt lat="43.54572" lon="6.74863">
        <ele>279.9</ele>
        <time>2019-12-10T11:02:13Z</time>
      </trkpt>
      <trkpt lat="43.54573" lon="6.74858">
        <ele>279.9</ele>
        <time>2019-12-10T11:02:15Z</time>
      </trkpt>
      <trkpt lat="43.54575" lon="6.74854">
        <ele>279.4</ele>
        <time>2019-12-10T11:02:17Z</time>
      </trkpt>
      <trkpt lat="43.54577" lon="6.74851">
        <ele>279.9</ele>
        <time>2019-12-10T11:02:19Z</time>
      </trkpt>
      <trkpt lat="43.54579" lon="6.74849">
        <ele>279.9</ele>
        <time>2019-12-10T11:02:21Z</time>
      </trkpt>
      <trkpt lat="43.54581" lon="6.74849">
        <ele>279.9</ele>
        <time>2019-12-10T11:02:23Z</time>
      </trkpt>
      <trkpt lat="43.54583" lon="6.7485">
        <ele>280.4</ele>
        <time>2019-12-10T11:02:25Z</time>
      </trkpt>
      <trkpt lat="43.54583" lon="6.74851">
        <ele>281.3</ele>
        <time>2019-12-10T11:02:27Z</time>
      </trkpt>
      <trkpt lat="43.54583" lon="6.74851">
        <ele>281.3</ele>
        <time>2019-12-10T11:02:29Z</time>
      </trkpt>
      <trkpt lat="43.54583" lon="6.74851">
        <ele>281.3</ele>
        <time>2019-12-10T11:02:31Z</time>
      </trkpt>
      <trkpt lat="43.54583" lon="6.74851">
        <ele>281.3</ele>
        <time>2019-12-10T11:02:33Z</time>
      </trkpt>
      <trkpt lat="43.54583" lon="6.74851">
        <ele>281.3</ele>
        <time>2019-12-10T11:02:35Z</time>
      </trkpt>
      <trkpt lat="43.54583" lon="6.74851">
        <ele>281.3</ele>
        <time>2019-12-10T11:02:37Z</time>
      </trkpt>
      <trkpt lat="43.54584" lon="6.74851">
        <ele>281.3</ele>
        <time>2019-12-10T11:02:39Z</time>
      </trkpt>
      <trkpt lat="43.54584" lon="6.74851">
        <ele>281.3</ele>
        <time>2019-12-10T11:02:41Z</time>
      </trkpt>
      <trkpt lat="43.54584" lon="6.7485">
        <ele>281.3</ele>
        <time>2019-12-10T11:02:43Z</time>
      </trkpt>
      <trkpt lat="43.54586" lon="6.7485">
        <ele>281.3</ele>
        <time>2019-12-10T11:02:45Z</time>
      </trkpt>
      <trkpt lat="43.54587" lon="6.7485">
        <ele>281.8</ele>
        <time>2019-12-10T11:02:47Z</time>
      </trkpt>
      <trkpt lat="43.5459" lon="6.7485">
        <ele>282.3</ele>
        <time>2019-12-10T11:02:49Z</time>
      </trkpt>
      <trkpt lat="43.54593" lon="6.74849">
        <ele>283.2</ele>
        <time>2019-12-10T11:02:51Z</time>
      </trkpt>
      <trkpt lat="43.54596" lon="6.74848">
        <ele>283.2</ele>
        <time>2019-12-10T11:02:53Z</time>
      </trkpt>
      <trkpt lat="43.54601" lon="6.74848">
        <ele>284.7</ele>
        <time>2019-12-10T11:02:55Z</time>
      </trkpt>
      <trkpt lat="43.54605" lon="6.74849">
        <ele>285.2</ele>
        <time>2019-12-10T11:02:57Z</time>
      </trkpt>
      <trkpt lat="43.54611" lon="6.74848">
        <ele>286.1</ele>
        <time>2019-12-10T11:02:59Z</time>
      </trkpt>
      <trkpt lat="43.54615" lon="6.74848">
        <ele>286.6</ele>
        <time>2019-12-10T11:03:01Z</time>
      </trkpt>
      <trkpt lat="43.54619" lon="6.74847">
        <ele>288.1</ele>
        <time>2019-12-10T11:03:03Z</time>
      </trkpt>
      <trkpt lat="43.54623" lon="6.74847">
        <ele>288.1</ele>
        <time>2019-12-10T11:03:05Z</time>
      </trkpt>
      <trkpt lat="43.54627" lon="6.74846">
        <ele>288.1</ele>
        <time>2019-12-10T11:03:07Z</time>
      </trkpt>
      <trkpt lat="43.54631" lon="6.74846">
        <ele>288.1</ele>
        <time>2019-12-10T11:03:09Z</time>
      </trkpt>
      <trkpt lat="43.54634" lon="6.74846">
        <ele>289</ele>
        <time>2019-12-10T11:03:11Z</time>
      </trkpt>
      <trkpt lat="43.54637" lon="6.74846">
        <ele>290</ele>
        <time>2019-12-10T11:03:13Z</time>
      </trkpt>
      <trkpt lat="43.5464" lon="6.74844">
        <ele>290.5</ele>
        <time>2019-12-10T11:03:15Z</time>
      </trkpt>
      <trkpt lat="43.54643" lon="6.74842">
        <ele>290.5</ele>
        <time>2019-12-10T11:03:17Z</time>
      </trkpt>
      <trkpt lat="43.54646" lon="6.7484">
        <ele>290.5</ele>
        <time>2019-12-10T11:03:19Z</time>
      </trkpt>
      <trkpt lat="43.54649" lon="6.74837">
        <ele>290.5</ele>
        <time>2019-12-10T11:03:21Z</time>
      </trkpt>
      <trkpt lat="43.54652" lon="6.74834">
        <ele>290.5</ele>
        <time>2019-12-10T11:03:23Z</time>
      </trkpt>
      <trkpt lat="43.54656" lon="6.74831">
        <ele>290</ele>
        <time>2019-12-10T11:03:25Z</time>
      </trkpt>
      <trkpt lat="43.54658" lon="6.74828">
        <ele>290</ele>
        <time>2019-12-10T11:03:27Z</time>
      </trkpt>
      <trkpt lat="43.54661" lon="6.74824">
        <ele>290</ele>
        <time>2019-12-10T11:03:29Z</time>
      </trkpt>
      <trkpt lat="43.54664" lon="6.74822">
        <ele>290</ele>
        <time>2019-12-10T11:03:31Z</time>
      </trkpt>
      <trkpt lat="43.54667" lon="6.74819">
        <ele>289.5</ele>
        <time>2019-12-10T11:03:33Z</time>
      </trkpt>
      <trkpt lat="43.54671" lon="6.74816">
        <ele>289</ele>
        <time>2019-12-10T11:03:35Z</time>
      </trkpt>
      <trkpt lat="43.54673" lon="6.74816">
        <ele>289</ele>
        <time>2019-12-10T11:03:37Z</time>
      </trkpt>
      <trkpt lat="43.54675" lon="6.74814">
        <ele>289</ele>
        <time>2019-12-10T11:03:39Z</time>
      </trkpt>
      <trkpt lat="43.54677" lon="6.74812">
        <ele>289</ele>
        <time>2019-12-10T11:03:41Z</time>
      </trkpt>
      <trkpt lat="43.5468" lon="6.74809">
        <ele>289</ele>
        <time>2019-12-10T11:03:43Z</time>
      </trkpt>
      <trkpt lat="43.54683" lon="6.74806">
        <ele>289</ele>
        <time>2019-12-10T11:03:45Z</time>
      </trkpt>
      <trkpt lat="43.54686" lon="6.74802">
        <ele>289</ele>
        <time>2019-12-10T11:03:47Z</time>
      </trkpt>
      <trkpt lat="43.5469" lon="6.748">
        <ele>288.5</ele>
        <time>2019-12-10T11:03:49Z</time>
      </trkpt>
      <trkpt lat="43.54693" lon="6.74797">
        <ele>288.1</ele>
        <time>2019-12-10T11:03:51Z</time>
      </trkpt>
      <trkpt lat="43.54696" lon="6.74794">
        <ele>288.5</ele>
        <time>2019-12-10T11:03:53Z</time>
      </trkpt>
      <trkpt lat="43.547" lon="6.74792">
        <ele>288.5</ele>
        <time>2019-12-10T11:03:55Z</time>
      </trkpt>
      <trkpt lat="43.54705" lon="6.7479">
        <ele>288.1</ele>
        <time>2019-12-10T11:03:57Z</time>
      </trkpt>
      <trkpt lat="43.54709" lon="6.74787">
        <ele>288.1</ele>
        <time>2019-12-10T11:03:59Z</time>
      </trkpt>
      <trkpt lat="43.54713" lon="6.74785">
        <ele>288.1</ele>
        <time>2019-12-10T11:04:01Z</time>
      </trkpt>
      <trkpt lat="43.54717" lon="6.74783">
        <ele>288.1</ele>
        <time>2019-12-10T11:04:03Z</time>
      </trkpt>
      <trkpt lat="43.54721" lon="6.74782">
        <ele>288.1</ele>
        <time>2019-12-10T11:04:05Z</time>
      </trkpt>
      <trkpt lat="43.54724" lon="6.74781">
        <ele>288.1</ele>
        <time>2019-12-10T11:04:07Z</time>
      </trkpt>
      <trkpt lat="43.54727" lon="6.7478">
        <ele>287.6</ele>
        <time>2019-12-10T11:04:09Z</time>
      </trkpt>
      <trkpt lat="43.5473" lon="6.7478">
        <ele>288.1</ele>
        <time>2019-12-10T11:04:11Z</time>
      </trkpt>
      <trkpt lat="43.54734" lon="6.74779">
        <ele>288.5</ele>
        <time>2019-12-10T11:04:13Z</time>
      </trkpt>
      <trkpt lat="43.54738" lon="6.74777">
        <ele>290</ele>
        <time>2019-12-10T11:04:15Z</time>
      </trkpt>
      <trkpt lat="43.54742" lon="6.74777">
        <ele>290</ele>
        <time>2019-12-10T11:04:17Z</time>
      </trkpt>
      <trkpt lat="43.54746" lon="6.74778">
        <ele>290</ele>
        <time>2019-12-10T11:04:19Z</time>
      </trkpt>
      <trkpt lat="43.54749" lon="6.74777">
        <ele>290</ele>
        <time>2019-12-10T11:04:21Z</time>
      </trkpt>
      <trkpt lat="43.54753" lon="6.74777">
        <ele>290</ele>
        <time>2019-12-10T11:04:23Z</time>
      </trkpt>
      <trkpt lat="43.54759" lon="6.74778">
        <ele>290</ele>
        <time>2019-12-10T11:04:25Z</time>
      </trkpt>
      <trkpt lat="43.54764" lon="6.74778">
        <ele>290</ele>
        <time>2019-12-10T11:04:27Z</time>
      </trkpt>
      <trkpt lat="43.54769" lon="6.74779">
        <ele>290</ele>
        <time>2019-12-10T11:04:29Z</time>
      </trkpt>
      <trkpt lat="43.54775" lon="6.74778">
        <ele>290.5</ele>
        <time>2019-12-10T11:04:31Z</time>
      </trkpt>
      <trkpt lat="43.5478" lon="6.74777">
        <ele>290</ele>
        <time>2019-12-10T11:04:33Z</time>
      </trkpt>
      <trkpt lat="43.54786" lon="6.74776">
        <ele>290</ele>
        <time>2019-12-10T11:04:35Z</time>
      </trkpt>
      <trkpt lat="43.54793" lon="6.74775">
        <ele>290</ele>
        <time>2019-12-10T11:04:37Z</time>
      </trkpt>
      <trkpt lat="43.54796" lon="6.74773">
        <ele>290.5</ele>
        <time>2019-12-10T11:04:39Z</time>
      </trkpt>
      <trkpt lat="43.54796" lon="6.74773">
        <ele>290.9</ele>
        <time>2019-12-10T11:04:41Z</time>
      </trkpt>
      <trkpt lat="43.54796" lon="6.74774">
        <ele>290.9</ele>
        <time>2019-12-10T11:04:43Z</time>
      </trkpt>
      <trkpt lat="43.54796" lon="6.74774">
        <ele>290.9</ele>
        <time>2019-12-10T11:04:45Z</time>
      </trkpt>
      <trkpt lat="43.54796" lon="6.74774">
        <ele>290.9</ele>
        <time>2019-12-10T11:04:47Z</time>
      </trkpt>
      <trkpt lat="43.54796" lon="6.74774">
        <ele>290.9</ele>
        <time>2019-12-10T11:04:49Z</time>
      </trkpt>
      <trkpt lat="43.54796" lon="6.74774">
        <ele>290.9</ele>
        <time>2019-12-10T11:04:51Z</time>
      </trkpt>
      <trkpt lat="43.54796" lon="6.74774">
        <ele>290.9</ele>
        <time>2019-12-10T11:04:53Z</time>
      </trkpt>
      <trkpt lat="43.54796" lon="6.74774">
        <ele>290.9</ele>
        <time>2019-12-10T11:04:55Z</time>
      </trkpt>
      <trkpt lat="43.54796" lon="6.74774">
        <ele>290.9</ele>
        <time>2019-12-10T11:04:57Z</time>
      </trkpt>
      <trkpt lat="43.54796" lon="6.74774">
        <ele>290.9</ele>
        <time>2019-12-10T11:04:59Z</time>
      </trkpt>
      <trkpt lat="43.54796" lon="6.74774">
        <ele>290.9</ele>
        <time>2019-12-10T11:05:01Z</time>
      </trkpt>
      <trkpt lat="43.54796" lon="6.74774">
        <ele>290.9</ele>
        <time>2019-12-10T11:05:03Z</time>
      </trkpt>
      <trkpt lat="43.54796" lon="6.74774">
        <ele>290.9</ele>
        <time>2019-12-10T11:05:05Z</time>
      </trkpt>
      <trkpt lat="43.54796" lon="6.74774">
        <ele>290.9</ele>
        <time>2019-12-10T11:05:07Z</time>
      </trkpt>
      <trkpt lat="43.54796" lon="6.74774">
        <ele>290.9</ele>
        <time>2019-12-10T11:05:09Z</time>
      </trkpt>
      <trkpt lat="43.54796" lon="6.74774">
        <ele>290.9</ele>
        <time>2019-12-10T11:05:11Z</time>
      </trkpt>
      <trkpt lat="43.54796" lon="6.74774">
        <ele>290.9</ele>
        <time>2019-12-10T11:05:13Z</time>
      </trkpt>
      <trkpt lat="43.54796" lon="6.74774">
        <ele>290.9</ele>
        <time>2019-12-10T11:05:15Z</time>
      </trkpt>
      <trkpt lat="43.54796" lon="6.74774">
        <ele>290.9</ele>
        <time>2019-12-10T11:05:17Z</time>
      </trkpt>
      <trkpt lat="43.54796" lon="6.74774">
        <ele>290.9</ele>
        <time>2019-12-10T11:05:19Z</time>
      </trkpt>
      <trkpt lat="43.54796" lon="6.74774">
        <ele>290.9</ele>
        <time>2019-12-10T11:05:21Z</time>
      </trkpt>
      <trkpt lat="43.54796" lon="6.74774">
        <ele>290.9</ele>
        <time>2019-12-10T11:05:23Z</time>
      </trkpt>
      <trkpt lat="43.54796" lon="6.74774">
        <ele>290.9</ele>
        <time>2019-12-10T11:05:25Z</time>
      </trkpt>
      <trkpt lat="43.54796" lon="6.74774">
        <ele>290.9</ele>
        <time>2019-12-10T11:05:27Z</time>
      </trkpt>
      <trkpt lat="43.54796" lon="6.74774">
        <ele>290.9</ele>
        <time>2019-12-10T11:05:29Z</time>
      </trkpt>
      <trkpt lat="43.54796" lon="6.74774">
        <ele>290.9</ele>
        <time>2019-12-10T11:05:31Z</time>
      </trkpt>
      <trkpt lat="43.54796" lon="6.74774">
        <ele>290.9</ele>
        <time>2019-12-10T11:05:33Z</time>
      </trkpt>
      <trkpt lat="43.54797" lon="6.74772">
        <ele>290.9</ele>
        <time>2019-12-10T11:05:35Z</time>
      </trkpt>
      <trkpt lat="43.54797" lon="6.7477">
        <ele>290.9</ele>
        <time>2019-12-10T11:05:37Z</time>
      </trkpt>
      <trkpt lat="43.54797" lon="6.7477">
        <ele>291.4</ele>
        <time>2019-12-10T11:05:39Z</time>
      </trkpt>
      <trkpt lat="43.54797" lon="6.74769">
        <ele>291.9</ele>
        <time>2019-12-10T11:05:41Z</time>
      </trkpt>
      <trkpt lat="43.54797" lon="6.74769">
        <ele>291.9</ele>
        <time>2019-12-10T11:05:43Z</time>
      </trkpt>
      <trkpt lat="43.54797" lon="6.74769">
        <ele>291.9</ele>
        <time>2019-12-10T11:05:45Z</time>
      </trkpt>
      <trkpt lat="43.54797" lon="6.74769">
        <ele>291.9</ele>
        <time>2019-12-10T11:05:47Z</time>
      </trkpt>
      <trkpt lat="43.54796" lon="6.74768">
        <ele>291.9</ele>
        <time>2019-12-10T11:05:49Z</time>
      </trkpt>
      <trkpt lat="43.54794" lon="6.74767">
        <ele>291.9</ele>
        <time>2019-12-10T11:05:51Z</time>
      </trkpt>
      <trkpt lat="43.54791" lon="6.74766">
        <ele>292.4</ele>
        <time>2019-12-10T11:05:53Z</time>
      </trkpt>
      <trkpt lat="43.54788" lon="6.74765">
        <ele>292.9</ele>
        <time>2019-12-10T11:05:55Z</time>
      </trkpt>
      <trkpt lat="43.54786" lon="6.74764">
        <ele>293.3</ele>
        <time>2019-12-10T11:05:57Z</time>
      </trkpt>
      <trkpt lat="43.54783" lon="6.74764">
        <ele>293.8</ele>
        <time>2019-12-10T11:05:59Z</time>
      </trkpt>
      <trkpt lat="43.5478" lon="6.74763">
        <ele>294.3</ele>
        <time>2019-12-10T11:06:01Z</time>
      </trkpt>
      <trkpt lat="43.54777" lon="6.74762">
        <ele>294.8</ele>
        <time>2019-12-10T11:06:03Z</time>
      </trkpt>
      <trkpt lat="43.54775" lon="6.74762">
        <ele>295.3</ele>
        <time>2019-12-10T11:06:05Z</time>
      </trkpt>
      <trkpt lat="43.54772" lon="6.74761">
        <ele>295.7</ele>
        <time>2019-12-10T11:06:07Z</time>
      </trkpt>
      <trkpt lat="43.54769" lon="6.74761">
        <ele>296.2</ele>
        <time>2019-12-10T11:06:09Z</time>
      </trkpt>
      <trkpt lat="43.54766" lon="6.7476">
        <ele>296.7</ele>
        <time>2019-12-10T11:06:11Z</time>
      </trkpt>
      <trkpt lat="43.54763" lon="6.74759">
        <ele>297.2</ele>
        <time>2019-12-10T11:06:13Z</time>
      </trkpt>
      <trkpt lat="43.54761" lon="6.74758">
        <ele>297.2</ele>
        <time>2019-12-10T11:06:15Z</time>
      </trkpt>
      <trkpt lat="43.54759" lon="6.74756">
        <ele>297.7</ele>
        <time>2019-12-10T11:06:17Z</time>
      </trkpt>
      <trkpt lat="43.54757" lon="6.74753">
        <ele>297.2</ele>
        <time>2019-12-10T11:06:19Z</time>
      </trkpt>
      <trkpt lat="43.54756" lon="6.7475">
        <ele>297.2</ele>
        <time>2019-12-10T11:06:21Z</time>
      </trkpt>
      <trkpt lat="43.54756" lon="6.74746">
        <ele>297.2</ele>
        <time>2019-12-10T11:06:23Z</time>
      </trkpt>
      <trkpt lat="43.54754" lon="6.74743">
        <ele>298.1</ele>
        <time>2019-12-10T11:06:25Z</time>
      </trkpt>
      <trkpt lat="43.54752" lon="6.7474">
        <ele>299.1</ele>
        <time>2019-12-10T11:06:27Z</time>
      </trkpt>
      <trkpt lat="43.54751" lon="6.74736">
        <ele>299.6</ele>
        <time>2019-12-10T11:06:29Z</time>
      </trkpt>
      <trkpt lat="43.5475" lon="6.74733">
        <ele>300.1</ele>
        <time>2019-12-10T11:06:31Z</time>
      </trkpt>
      <trkpt lat="43.54749" lon="6.74729">
        <ele>300.5</ele>
        <time>2019-12-10T11:06:33Z</time>
      </trkpt>
      <trkpt lat="43.54749" lon="6.74725">
        <ele>301</ele>
        <time>2019-12-10T11:06:35Z</time>
      </trkpt>
      <trkpt lat="43.54748" lon="6.74722">
        <ele>300.5</ele>
        <time>2019-12-10T11:06:37Z</time>
      </trkpt>
      <trkpt lat="43.54746" lon="6.74718">
        <ele>300.5</ele>
        <time>2019-12-10T11:06:39Z</time>
      </trkpt>
      <trkpt lat="43.54744" lon="6.74714">
        <ele>302</ele>
        <time>2019-12-10T11:06:41Z</time>
      </trkpt>
      <trkpt lat="43.54744" lon="6.7471">
        <ele>302</ele>
        <time>2019-12-10T11:06:43Z</time>
      </trkpt>
      <trkpt lat="43.54743" lon="6.74706">
        <ele>302.5</ele>
        <time>2019-12-10T11:06:45Z</time>
      </trkpt>
      <trkpt lat="43.54742" lon="6.74703">
        <ele>302.5</ele>
        <time>2019-12-10T11:06:47Z</time>
      </trkpt>
      <trkpt lat="43.54742" lon="6.747">
        <ele>303</ele>
        <time>2019-12-10T11:06:49Z</time>
      </trkpt>
      <trkpt lat="43.54741" lon="6.74697">
        <ele>303</ele>
        <time>2019-12-10T11:06:51Z</time>
      </trkpt>
      <trkpt lat="43.5474" lon="6.74694">
        <ele>303.4</ele>
        <time>2019-12-10T11:06:53Z</time>
      </trkpt>
      <trkpt lat="43.54739" lon="6.7469">
        <ele>303.4</ele>
        <time>2019-12-10T11:06:55Z</time>
      </trkpt>
      <trkpt lat="43.54738" lon="6.74687">
        <ele>304.4</ele>
        <time>2019-12-10T11:06:57Z</time>
      </trkpt>
      <trkpt lat="43.54737" lon="6.74683">
        <ele>304.9</ele>
        <time>2019-12-10T11:06:59Z</time>
      </trkpt>
      <trkpt lat="43.54736" lon="6.7468">
        <ele>305.4</ele>
        <time>2019-12-10T11:07:01Z</time>
      </trkpt>
      <trkpt lat="43.54735" lon="6.74676">
        <ele>305.8</ele>
        <time>2019-12-10T11:07:03Z</time>
      </trkpt>
      <trkpt lat="43.54734" lon="6.74673">
        <ele>306.3</ele>
        <time>2019-12-10T11:07:05Z</time>
      </trkpt>
      <trkpt lat="43.54733" lon="6.7467">
        <ele>306.8</ele>
        <time>2019-12-10T11:07:07Z</time>
      </trkpt>
      <trkpt lat="43.54732" lon="6.74666">
        <ele>306.8</ele>
        <time>2019-12-10T11:07:09Z</time>
      </trkpt>
      <trkpt lat="43.54731" lon="6.74663">
        <ele>307.3</ele>
        <time>2019-12-10T11:07:11Z</time>
      </trkpt>
      <trkpt lat="43.5473" lon="6.7466">
        <ele>307.3</ele>
        <time>2019-12-10T11:07:13Z</time>
      </trkpt>
      <trkpt lat="43.54728" lon="6.74657">
        <ele>307.8</ele>
        <time>2019-12-10T11:07:15Z</time>
      </trkpt>
      <trkpt lat="43.54726" lon="6.74654">
        <ele>307.8</ele>
        <time>2019-12-10T11:07:17Z</time>
      </trkpt>
      <trkpt lat="43.54725" lon="6.7465">
        <ele>307.8</ele>
        <time>2019-12-10T11:07:19Z</time>
      </trkpt>
      <trkpt lat="43.54723" lon="6.74647">
        <ele>307.8</ele>
        <time>2019-12-10T11:07:21Z</time>
      </trkpt>
      <trkpt lat="43.54722" lon="6.74645">
        <ele>307.8</ele>
        <time>2019-12-10T11:07:23Z</time>
      </trkpt>
      <trkpt lat="43.5472" lon="6.74641">
        <ele>308.2</ele>
        <time>2019-12-10T11:07:25Z</time>
      </trkpt>
      <trkpt lat="43.54718" lon="6.74638">
        <ele>309.2</ele>
        <time>2019-12-10T11:07:27Z</time>
      </trkpt>
      <trkpt lat="43.54717" lon="6.74635">
        <ele>309.2</ele>
        <time>2019-12-10T11:07:29Z</time>
      </trkpt>
      <trkpt lat="43.54715" lon="6.74632">
        <ele>309.7</ele>
        <time>2019-12-10T11:07:31Z</time>
      </trkpt>
      <trkpt lat="43.54714" lon="6.74628">
        <ele>310.2</ele>
        <time>2019-12-10T11:07:33Z</time>
      </trkpt>
      <trkpt lat="43.54712" lon="6.74625">
        <ele>310.6</ele>
        <time>2019-12-10T11:07:35Z</time>
      </trkpt>
      <trkpt lat="43.54709" lon="6.74623">
        <ele>311.1</ele>
        <time>2019-12-10T11:07:37Z</time>
      </trkpt>
      <trkpt lat="43.54707" lon="6.7462">
        <ele>311.6</ele>
        <time>2019-12-10T11:07:39Z</time>
      </trkpt>
      <trkpt lat="43.54704" lon="6.74619">
        <ele>312.6</ele>
        <time>2019-12-10T11:07:41Z</time>
      </trkpt>
      <trkpt lat="43.54702" lon="6.74618">
        <ele>312.6</ele>
        <time>2019-12-10T11:07:43Z</time>
      </trkpt>
      <trkpt lat="43.547" lon="6.74618">
        <ele>313</ele>
        <time>2019-12-10T11:07:45Z</time>
      </trkpt>
      <trkpt lat="43.54698" lon="6.7462">
        <ele>313</ele>
        <time>2019-12-10T11:07:47Z</time>
      </trkpt>
      <trkpt lat="43.54696" lon="6.7462">
        <ele>312.6</ele>
        <time>2019-12-10T11:07:49Z</time>
      </trkpt>
      <trkpt lat="43.54693" lon="6.74623">
        <ele>312.6</ele>
        <time>2019-12-10T11:07:51Z</time>
      </trkpt>
      <trkpt lat="43.54691" lon="6.74625">
        <ele>313</ele>
        <time>2019-12-10T11:07:53Z</time>
      </trkpt>
      <trkpt lat="43.5469" lon="6.74629">
        <ele>313.5</ele>
        <time>2019-12-10T11:07:55Z</time>
      </trkpt>
      <trkpt lat="43.54689" lon="6.74632">
        <ele>313.5</ele>
        <time>2019-12-10T11:07:57Z</time>
      </trkpt>
      <trkpt lat="43.54687" lon="6.74635">
        <ele>314</ele>
        <time>2019-12-10T11:07:59Z</time>
      </trkpt>
      <trkpt lat="43.54686" lon="6.74639">
        <ele>314.5</ele>
        <time>2019-12-10T11:08:01Z</time>
      </trkpt>
      <trkpt lat="43.54686" lon="6.74643">
        <ele>314.5</ele>
        <time>2019-12-10T11:08:03Z</time>
      </trkpt>
      <trkpt lat="43.54685" lon="6.74647">
        <ele>315</ele>
        <time>2019-12-10T11:08:05Z</time>
      </trkpt>
      <trkpt lat="43.54685" lon="6.7465">
        <ele>315</ele>
        <time>2019-12-10T11:08:07Z</time>
      </trkpt>
      <trkpt lat="43.54685" lon="6.74654">
        <ele>315.4</ele>
        <time>2019-12-10T11:08:09Z</time>
      </trkpt>
      <trkpt lat="43.54684" lon="6.74657">
        <ele>315.4</ele>
        <time>2019-12-10T11:08:11Z</time>
      </trkpt>
      <trkpt lat="43.54683" lon="6.74661">
        <ele>315.9</ele>
        <time>2019-12-10T11:08:13Z</time>
      </trkpt>
      <trkpt lat="43.54683" lon="6.74664">
        <ele>315.9</ele>
        <time>2019-12-10T11:08:15Z</time>
      </trkpt>
      <trkpt lat="43.54683" lon="6.74668">
        <ele>316.4</ele>
        <time>2019-12-10T11:08:17Z</time>
      </trkpt>
      <trkpt lat="43.54682" lon="6.74672">
        <ele>316.4</ele>
        <time>2019-12-10T11:08:19Z</time>
      </trkpt>
      <trkpt lat="43.54682" lon="6.74676">
        <ele>316.9</ele>
        <time>2019-12-10T11:08:21Z</time>
      </trkpt>
      <trkpt lat="43.54682" lon="6.7468">
        <ele>316.9</ele>
        <time>2019-12-10T11:08:23Z</time>
      </trkpt>
      <trkpt lat="43.54682" lon="6.74683">
        <ele>317.4</ele>
        <time>2019-12-10T11:08:25Z</time>
      </trkpt>
      <trkpt lat="43.54682" lon="6.74687">
        <ele>317.4</ele>
        <time>2019-12-10T11:08:27Z</time>
      </trkpt>
      <trkpt lat="43.54681" lon="6.7469">
        <ele>317.4</ele>
        <time>2019-12-10T11:08:29Z</time>
      </trkpt>
      <trkpt lat="43.5468" lon="6.74694">
        <ele>317.4</ele>
        <time>2019-12-10T11:08:31Z</time>
      </trkpt>
      <trkpt lat="43.5468" lon="6.74698">
        <ele>317.4</ele>
        <time>2019-12-10T11:08:33Z</time>
      </trkpt>
      <trkpt lat="43.5468" lon="6.74702">
        <ele>317.4</ele>
        <time>2019-12-10T11:08:35Z</time>
      </trkpt>
      <trkpt lat="43.54679" lon="6.74706">
        <ele>317.4</ele>
        <time>2019-12-10T11:08:37Z</time>
      </trkpt>
      <trkpt lat="43.54677" lon="6.7471">
        <ele>317.4</ele>
        <time>2019-12-10T11:08:39Z</time>
      </trkpt>
      <trkpt lat="43.54676" lon="6.74713">
        <ele>317.9</ele>
        <time>2019-12-10T11:08:41Z</time>
      </trkpt>
      <trkpt lat="43.54674" lon="6.74716">
        <ele>317.9</ele>
        <time>2019-12-10T11:08:43Z</time>
      </trkpt>
      <trkpt lat="43.54672" lon="6.7472">
        <ele>317.9</ele>
        <time>2019-12-10T11:08:45Z</time>
      </trkpt>
      <trkpt lat="43.5467" lon="6.74723">
        <ele>317.9</ele>
        <time>2019-12-10T11:08:47Z</time>
      </trkpt>
      <trkpt lat="43.54669" lon="6.74726">
        <ele>317.9</ele>
        <time>2019-12-10T11:08:49Z</time>
      </trkpt>
      <trkpt lat="43.54667" lon="6.7473">
        <ele>318.3</ele>
        <time>2019-12-10T11:08:51Z</time>
      </trkpt>
      <trkpt lat="43.54665" lon="6.74733">
        <ele>318.3</ele>
        <time>2019-12-10T11:08:53Z</time>
      </trkpt>
      <trkpt lat="43.54663" lon="6.74737">
        <ele>318.8</ele>
        <time>2019-12-10T11:08:55Z</time>
      </trkpt>
      <trkpt lat="43.54661" lon="6.7474">
        <ele>318.8</ele>
        <time>2019-12-10T11:08:57Z</time>
      </trkpt>
      <trkpt lat="43.54659" lon="6.74742">
        <ele>318.8</ele>
        <time>2019-12-10T11:08:59Z</time>
      </trkpt>
      <trkpt lat="43.54657" lon="6.74745">
        <ele>318.8</ele>
        <time>2019-12-10T11:09:01Z</time>
      </trkpt>
      <trkpt lat="43.54655" lon="6.74746">
        <ele>319.3</ele>
        <time>2019-12-10T11:09:03Z</time>
      </trkpt>
      <trkpt lat="43.54652" lon="6.74749">
        <ele>319.8</ele>
        <time>2019-12-10T11:09:05Z</time>
      </trkpt>
      <trkpt lat="43.54649" lon="6.7475">
        <ele>319.8</ele>
        <time>2019-12-10T11:09:07Z</time>
      </trkpt>
      <trkpt lat="43.54646" lon="6.74752">
        <ele>320.3</ele>
        <time>2019-12-10T11:09:09Z</time>
      </trkpt>
      <trkpt lat="43.54643" lon="6.74753">
        <ele>320.7</ele>
        <time>2019-12-10T11:09:11Z</time>
      </trkpt>
      <trkpt lat="43.5464" lon="6.74753">
        <ele>320.7</ele>
        <time>2019-12-10T11:09:13Z</time>
      </trkpt>
      <trkpt lat="43.54637" lon="6.74755">
        <ele>321.2</ele>
        <time>2019-12-10T11:09:15Z</time>
      </trkpt>
      <trkpt lat="43.54634" lon="6.74757">
        <ele>321.7</ele>
        <time>2019-12-10T11:09:17Z</time>
      </trkpt>
      <trkpt lat="43.5463" lon="6.74758">
        <ele>321.7</ele>
        <time>2019-12-10T11:09:19Z</time>
      </trkpt>
      <trkpt lat="43.54627" lon="6.74757">
        <ele>322.2</ele>
        <time>2019-12-10T11:09:21Z</time>
      </trkpt>
      <trkpt lat="43.54624" lon="6.74756">
        <ele>322.7</ele>
        <time>2019-12-10T11:09:23Z</time>
      </trkpt>
      <trkpt lat="43.54622" lon="6.74753">
        <ele>323.1</ele>
        <time>2019-12-10T11:09:25Z</time>
      </trkpt>
      <trkpt lat="43.54619" lon="6.74751">
        <ele>323.6</ele>
        <time>2019-12-10T11:09:27Z</time>
      </trkpt>
      <trkpt lat="43.54619" lon="6.74751">
        <ele>323.6</ele>
        <time>2019-12-10T11:09:29Z</time>
      </trkpt>
      <trkpt lat="43.54619" lon="6.74751">
        <ele>324.1</ele>
        <time>2019-12-10T11:09:31Z</time>
      </trkpt>
      <trkpt lat="43.54619" lon="6.74751">
        <ele>324.1</ele>
        <time>2019-12-10T11:09:33Z</time>
      </trkpt>
      <trkpt lat="43.54619" lon="6.74751">
        <ele>324.1</ele>
        <time>2019-12-10T11:09:35Z</time>
      </trkpt>
      <trkpt lat="43.54619" lon="6.74751">
        <ele>324.1</ele>
        <time>2019-12-10T11:09:37Z</time>
      </trkpt>
      <trkpt lat="43.54619" lon="6.74751">
        <ele>324.1</ele>
        <time>2019-12-10T11:09:39Z</time>
      </trkpt>
      <trkpt lat="43.5462" lon="6.74751">
        <ele>324.1</ele>
        <time>2019-12-10T11:09:41Z</time>
      </trkpt>
      <trkpt lat="43.5462" lon="6.74751">
        <ele>324.1</ele>
        <time>2019-12-10T11:09:43Z</time>
      </trkpt>
      <trkpt lat="43.54619" lon="6.74751">
        <ele>324.1</ele>
        <time>2019-12-10T11:09:45Z</time>
      </trkpt>
      <trkpt lat="43.54619" lon="6.74751">
        <ele>324.1</ele>
        <time>2019-12-10T11:09:47Z</time>
      </trkpt>
      <trkpt lat="43.54619" lon="6.74751">
        <ele>323.6</ele>
        <time>2019-12-10T11:09:49Z</time>
      </trkpt>
      <trkpt lat="43.5462" lon="6.74751">
        <ele>323.6</ele>
        <time>2019-12-10T11:09:51Z</time>
      </trkpt>
      <trkpt lat="43.5462" lon="6.74751">
        <ele>323.1</ele>
        <time>2019-12-10T11:09:53Z</time>
      </trkpt>
      <trkpt lat="43.5462" lon="6.74751">
        <ele>323.1</ele>
        <time>2019-12-10T11:09:55Z</time>
      </trkpt>
      <trkpt lat="43.5462" lon="6.74751">
        <ele>323.1</ele>
        <time>2019-12-10T11:09:57Z</time>
      </trkpt>
      <trkpt lat="43.54619" lon="6.74751">
        <ele>323.1</ele>
        <time>2019-12-10T11:09:59Z</time>
      </trkpt>
      <trkpt lat="43.5462" lon="6.74751">
        <ele>322.7</ele>
        <time>2019-12-10T11:10:01Z</time>
      </trkpt>
      <trkpt lat="43.5462" lon="6.74752">
        <ele>322.7</ele>
        <time>2019-12-10T11:10:03Z</time>
      </trkpt>
      <trkpt lat="43.5462" lon="6.74752">
        <ele>322.7</ele>
        <time>2019-12-10T11:10:05Z</time>
      </trkpt>
      <trkpt lat="43.5462" lon="6.74752">
        <ele>322.7</ele>
        <time>2019-12-10T11:10:07Z</time>
      </trkpt>
      <trkpt lat="43.5462" lon="6.74752">
        <ele>322.7</ele>
        <time>2019-12-10T11:10:09Z</time>
      </trkpt>
      <trkpt lat="43.5462" lon="6.74752">
        <ele>322.7</ele>
        <time>2019-12-10T11:10:11Z</time>
      </trkpt>
      <trkpt lat="43.5462" lon="6.74752">
        <ele>322.7</ele>
        <time>2019-12-10T11:10:13Z</time>
      </trkpt>
      <trkpt lat="43.5462" lon="6.74752">
        <ele>322.7</ele>
        <time>2019-12-10T11:10:15Z</time>
      </trkpt>
      <trkpt lat="43.5462" lon="6.74752">
        <ele>322.7</ele>
        <time>2019-12-10T11:10:17Z</time>
      </trkpt>
      <trkpt lat="43.5462" lon="6.74751">
        <ele>322.7</ele>
        <time>2019-12-10T11:10:19Z</time>
      </trkpt>
      <trkpt lat="43.5462" lon="6.74751">
        <ele>322.7</ele>
        <time>2019-12-10T11:10:21Z</time>
      </trkpt>
      <trkpt lat="43.5462" lon="6.74751">
        <ele>322.7</ele>
        <time>2019-12-10T11:10:23Z</time>
      </trkpt>
      <trkpt lat="43.5462" lon="6.74751">
        <ele>322.7</ele>
        <time>2019-12-10T11:10:25Z</time>
      </trkpt>
      <trkpt lat="43.5462" lon="6.74751">
        <ele>322.7</ele>
        <time>2019-12-10T11:10:27Z</time>
      </trkpt>
      <trkpt lat="43.5462" lon="6.74751">
        <ele>322.7</ele>
        <time>2019-12-10T11:10:29Z</time>
      </trkpt>
      <trkpt lat="43.5462" lon="6.74751">
        <ele>322.7</ele>
        <time>2019-12-10T11:10:31Z</time>
      </trkpt>
      <trkpt lat="43.5462" lon="6.74751">
        <ele>322.7</ele>
        <time>2019-12-10T11:10:33Z</time>
      </trkpt>
      <trkpt lat="43.5462" lon="6.74751">
        <ele>322.7</ele>
        <time>2019-12-10T11:10:35Z</time>
      </trkpt>
      <trkpt lat="43.5462" lon="6.74751">
        <ele>322.7</ele>
        <time>2019-12-10T11:10:37Z</time>
      </trkpt>
      <trkpt lat="43.5462" lon="6.74751">
        <ele>322.7</ele>
        <time>2019-12-10T11:10:39Z</time>
      </trkpt>
      <trkpt lat="43.5462" lon="6.74751">
        <ele>322.7</ele>
        <time>2019-12-10T11:10:41Z</time>
      </trkpt>
      <trkpt lat="43.5462" lon="6.74751">
        <ele>322.7</ele>
        <time>2019-12-10T11:10:43Z</time>
      </trkpt>
      <trkpt lat="43.5462" lon="6.74751">
        <ele>322.7</ele>
        <time>2019-12-10T11:10:45Z</time>
      </trkpt>
      <trkpt lat="43.5462" lon="6.74751">
        <ele>322.7</ele>
        <time>2019-12-10T11:10:47Z</time>
      </trkpt>
      <trkpt lat="43.5462" lon="6.74751">
        <ele>322.7</ele>
        <time>2019-12-10T11:10:49Z</time>
      </trkpt>
      <trkpt lat="43.5462" lon="6.74751">
        <ele>322.2</ele>
        <time>2019-12-10T11:10:51Z</time>
      </trkpt>
      <trkpt lat="43.5462" lon="6.74751">
        <ele>321.7</ele>
        <time>2019-12-10T11:10:53Z</time>
      </trkpt>
      <trkpt lat="43.5462" lon="6.74751">
        <ele>321.7</ele>
        <time>2019-12-10T11:10:55Z</time>
      </trkpt>
      <trkpt lat="43.5462" lon="6.74751">
        <ele>321.7</ele>
        <time>2019-12-10T11:10:57Z</time>
      </trkpt>
      <trkpt lat="43.5462" lon="6.74751">
        <ele>322.2</ele>
        <time>2019-12-10T11:10:59Z</time>
      </trkpt>
      <trkpt lat="43.5462" lon="6.74751">
        <ele>321.7</ele>
        <time>2019-12-10T11:11:01Z</time>
      </trkpt>
      <trkpt lat="43.5462" lon="6.74751">
        <ele>321.7</ele>
        <time>2019-12-10T11:11:03Z</time>
      </trkpt>
      <trkpt lat="43.5462" lon="6.74751">
        <ele>321.7</ele>
        <time>2019-12-10T11:11:05Z</time>
      </trkpt>
      <trkpt lat="43.5462" lon="6.74751">
        <ele>321.7</ele>
        <time>2019-12-10T11:11:07Z</time>
      </trkpt>
      <trkpt lat="43.5462" lon="6.74751">
        <ele>321.7</ele>
        <time>2019-12-10T11:11:09Z</time>
      </trkpt>
      <trkpt lat="43.5462" lon="6.74751">
        <ele>321.7</ele>
        <time>2019-12-10T11:11:11Z</time>
      </trkpt>
      <trkpt lat="43.5462" lon="6.74751">
        <ele>321.7</ele>
        <time>2019-12-10T11:11:13Z</time>
      </trkpt>
      <trkpt lat="43.5462" lon="6.74751">
        <ele>321.7</ele>
        <time>2019-12-10T11:11:15Z</time>
      </trkpt>
      <trkpt lat="43.5462" lon="6.74751">
        <ele>321.7</ele>
        <time>2019-12-10T11:11:17Z</time>
      </trkpt>
      <trkpt lat="43.5462" lon="6.74751">
        <ele>321.7</ele>
        <time>2019-12-10T11:11:19Z</time>
      </trkpt>
      <trkpt lat="43.5462" lon="6.74751">
        <ele>321.7</ele>
        <time>2019-12-10T11:11:21Z</time>
      </trkpt>
      <trkpt lat="43.5462" lon="6.74751">
        <ele>321.7</ele>
        <time>2019-12-10T11:11:23Z</time>
      </trkpt>
      <trkpt lat="43.5462" lon="6.74751">
        <ele>321.7</ele>
        <time>2019-12-10T11:11:25Z</time>
      </trkpt>
      <trkpt lat="43.5462" lon="6.74751">
        <ele>321.7</ele>
        <time>2019-12-10T11:11:27Z</time>
      </trkpt>
      <trkpt lat="43.5462" lon="6.74751">
        <ele>321.7</ele>
        <time>2019-12-10T11:11:29Z</time>
      </trkpt>
      <trkpt lat="43.5462" lon="6.74751">
        <ele>321.7</ele>
        <time>2019-12-10T11:11:31Z</time>
      </trkpt>
      <trkpt lat="43.5462" lon="6.74751">
        <ele>321.7</ele>
        <time>2019-12-10T11:11:33Z</time>
      </trkpt>
      <trkpt lat="43.5462" lon="6.74751">
        <ele>321.2</ele>
        <time>2019-12-10T11:11:35Z</time>
      </trkpt>
      <trkpt lat="43.5462" lon="6.74751">
        <ele>321.7</ele>
        <time>2019-12-10T11:11:37Z</time>
      </trkpt>
      <trkpt lat="43.5462" lon="6.7475">
        <ele>321.2</ele>
        <time>2019-12-10T11:11:39Z</time>
      </trkpt>
      <trkpt lat="43.5462" lon="6.74751">
        <ele>320.7</ele>
        <time>2019-12-10T11:11:41Z</time>
      </trkpt>
      <trkpt lat="43.5462" lon="6.7475">
        <ele>320.7</ele>
        <time>2019-12-10T11:11:43Z</time>
      </trkpt>
      <trkpt lat="43.5462" lon="6.7475">
        <ele>320.7</ele>
        <time>2019-12-10T11:11:45Z</time>
      </trkpt>
      <trkpt lat="43.5462" lon="6.7475">
        <ele>320.7</ele>
        <time>2019-12-10T11:11:47Z</time>
      </trkpt>
      <trkpt lat="43.5462" lon="6.7475">
        <ele>320.7</ele>
        <time>2019-12-10T11:11:49Z</time>
      </trkpt>
      <trkpt lat="43.5462" lon="6.7475">
        <ele>320.7</ele>
        <time>2019-12-10T11:11:51Z</time>
      </trkpt>
      <trkpt lat="43.54621" lon="6.74751">
        <ele>320.7</ele>
        <time>2019-12-10T11:11:53Z</time>
      </trkpt>
      <trkpt lat="43.54622" lon="6.74751">
        <ele>320.7</ele>
        <time>2019-12-10T11:11:55Z</time>
      </trkpt>
      <trkpt lat="43.54621" lon="6.74751">
        <ele>321.2</ele>
        <time>2019-12-10T11:11:57Z</time>
      </trkpt>
      <trkpt lat="43.54621" lon="6.74751">
        <ele>321.2</ele>
        <time>2019-12-10T11:11:59Z</time>
      </trkpt>
      <trkpt lat="43.54621" lon="6.74751">
        <ele>321.2</ele>
        <time>2019-12-10T11:12:01Z</time>
      </trkpt>
      <trkpt lat="43.54621" lon="6.74751">
        <ele>321.2</ele>
        <time>2019-12-10T11:12:03Z</time>
      </trkpt>
      <trkpt lat="43.54621" lon="6.74751">
        <ele>321.2</ele>
        <time>2019-12-10T11:12:05Z</time>
      </trkpt>
      <trkpt lat="43.54621" lon="6.74751">
        <ele>321.2</ele>
        <time>2019-12-10T11:12:07Z</time>
      </trkpt>
      <trkpt lat="43.54621" lon="6.74751">
        <ele>321.2</ele>
        <time>2019-12-10T11:12:09Z</time>
      </trkpt>
      <trkpt lat="43.54621" lon="6.74751">
        <ele>321.2</ele>
        <time>2019-12-10T11:12:11Z</time>
      </trkpt>
      <trkpt lat="43.54621" lon="6.74751">
        <ele>321.2</ele>
        <time>2019-12-10T11:12:13Z</time>
      </trkpt>
      <trkpt lat="43.54621" lon="6.74751">
        <ele>321.2</ele>
        <time>2019-12-10T11:12:15Z</time>
      </trkpt>
      <trkpt lat="43.54621" lon="6.74751">
        <ele>321.2</ele>
        <time>2019-12-10T11:12:17Z</time>
      </trkpt>
      <trkpt lat="43.54621" lon="6.74751">
        <ele>321.2</ele>
        <time>2019-12-10T11:12:19Z</time>
      </trkpt>
      <trkpt lat="43.54621" lon="6.74751">
        <ele>321.2</ele>
        <time>2019-12-10T11:12:21Z</time>
      </trkpt>
      <trkpt lat="43.54621" lon="6.74751">
        <ele>321.2</ele>
        <time>2019-12-10T11:12:23Z</time>
      </trkpt>
      <trkpt lat="43.54621" lon="6.74751">
        <ele>321.2</ele>
        <time>2019-12-10T11:12:25Z</time>
      </trkpt>
      <trkpt lat="43.54621" lon="6.74751">
        <ele>321.2</ele>
        <time>2019-12-10T11:12:27Z</time>
      </trkpt>
      <trkpt lat="43.54621" lon="6.74751">
        <ele>321.2</ele>
        <time>2019-12-10T11:12:29Z</time>
      </trkpt>
      <trkpt lat="43.54621" lon="6.74751">
        <ele>321.2</ele>
        <time>2019-12-10T11:12:31Z</time>
      </trkpt>
      <trkpt lat="43.54621" lon="6.74751">
        <ele>321.2</ele>
        <time>2019-12-10T11:12:33Z</time>
      </trkpt>
      <trkpt lat="43.54621" lon="6.74751">
        <ele>321.2</ele>
        <time>2019-12-10T11:12:35Z</time>
      </trkpt>
      <trkpt lat="43.54621" lon="6.74751">
        <ele>321.2</ele>
        <time>2019-12-10T11:12:37Z</time>
      </trkpt>
      <trkpt lat="43.54621" lon="6.74751">
        <ele>321.2</ele>
        <time>2019-12-10T11:12:39Z</time>
      </trkpt>
      <trkpt lat="43.54621" lon="6.74751">
        <ele>321.2</ele>
        <time>2019-12-10T11:12:41Z</time>
      </trkpt>
      <trkpt lat="43.54621" lon="6.74751">
        <ele>321.2</ele>
        <time>2019-12-10T11:12:43Z</time>
      </trkpt>
      <trkpt lat="43.54621" lon="6.74751">
        <ele>321.2</ele>
        <time>2019-12-10T11:12:45Z</time>
      </trkpt>
      <trkpt lat="43.54621" lon="6.74751">
        <ele>321.2</ele>
        <time>2019-12-10T11:12:47Z</time>
      </trkpt>
      <trkpt lat="43.54621" lon="6.74751">
        <ele>321.2</ele>
        <time>2019-12-10T11:12:49Z</time>
      </trkpt>
      <trkpt lat="43.54621" lon="6.74751">
        <ele>321.2</ele>
        <time>2019-12-10T11:12:51Z</time>
      </trkpt>
      <trkpt lat="43.54621" lon="6.74751">
        <ele>321.2</ele>
        <time>2019-12-10T11:12:53Z</time>
      </trkpt>
      <trkpt lat="43.54621" lon="6.74751">
        <ele>321.2</ele>
        <time>2019-12-10T11:12:55Z</time>
      </trkpt>
      <trkpt lat="43.54622" lon="6.74751">
        <ele>321.2</ele>
        <time>2019-12-10T11:12:57Z</time>
      </trkpt>
      <trkpt lat="43.54622" lon="6.74751">
        <ele>321.2</ele>
        <time>2019-12-10T11:12:59Z</time>
      </trkpt>
      <trkpt lat="43.54622" lon="6.74751">
        <ele>321.2</ele>
        <time>2019-12-10T11:13:01Z</time>
      </trkpt>
      <trkpt lat="43.54622" lon="6.74751">
        <ele>321.2</ele>
        <time>2019-12-10T11:13:03Z</time>
      </trkpt>
      <trkpt lat="43.54622" lon="6.74751">
        <ele>321.2</ele>
        <time>2019-12-10T11:13:05Z</time>
      </trkpt>
      <trkpt lat="43.54622" lon="6.74751">
        <ele>321.2</ele>
        <time>2019-12-10T11:13:07Z</time>
      </trkpt>
      <trkpt lat="43.54622" lon="6.74751">
        <ele>321.2</ele>
        <time>2019-12-10T11:13:09Z</time>
      </trkpt>
      <trkpt lat="43.54622" lon="6.74751">
        <ele>321.2</ele>
        <time>2019-12-10T11:13:11Z</time>
      </trkpt>
      <trkpt lat="43.54622" lon="6.74751">
        <ele>321.2</ele>
        <time>2019-12-10T11:13:13Z</time>
      </trkpt>
      <trkpt lat="43.54622" lon="6.74751">
        <ele>321.2</ele>
        <time>2019-12-10T11:13:15Z</time>
      </trkpt>
      <trkpt lat="43.54622" lon="6.74751">
        <ele>321.2</ele>
        <time>2019-12-10T11:13:17Z</time>
      </trkpt>
      <trkpt lat="43.54622" lon="6.74751">
        <ele>321.2</ele>
        <time>2019-12-10T11:13:19Z</time>
      </trkpt>
      <trkpt lat="43.54622" lon="6.74751">
        <ele>321.2</ele>
        <time>2019-12-10T11:13:21Z</time>
      </trkpt>
      <trkpt lat="43.54622" lon="6.74751">
        <ele>321.2</ele>
        <time>2019-12-10T11:13:23Z</time>
      </trkpt>
      <trkpt lat="43.54622" lon="6.74751">
        <ele>321.2</ele>
        <time>2019-12-10T11:13:25Z</time>
      </trkpt>
      <trkpt lat="43.54622" lon="6.74751">
        <ele>321.2</ele>
        <time>2019-12-10T11:13:27Z</time>
      </trkpt>
      <trkpt lat="43.54622" lon="6.74751">
        <ele>321.2</ele>
        <time>2019-12-10T11:13:29Z</time>
      </trkpt>
      <trkpt lat="43.54622" lon="6.74751">
        <ele>321.2</ele>
        <time>2019-12-10T11:13:31Z</time>
      </trkpt>
      <trkpt lat="43.54622" lon="6.74751">
        <ele>321.2</ele>
        <time>2019-12-10T11:13:33Z</time>
      </trkpt>
      <trkpt lat="43.54622" lon="6.74751">
        <ele>321.2</ele>
        <time>2019-12-10T11:13:35Z</time>
      </trkpt>
      <trkpt lat="43.54622" lon="6.74751">
        <ele>321.2</ele>
        <time>2019-12-10T11:13:37Z</time>
      </trkpt>
      <trkpt lat="43.54622" lon="6.74751">
        <ele>321.2</ele>
        <time>2019-12-10T11:13:39Z</time>
      </trkpt>
      <trkpt lat="43.54622" lon="6.74751">
        <ele>321.2</ele>
        <time>2019-12-10T11:13:41Z</time>
      </trkpt>
      <trkpt lat="43.54622" lon="6.74751">
        <ele>320.7</ele>
        <time>2019-12-10T11:13:43Z</time>
      </trkpt>
      <trkpt lat="43.54622" lon="6.74751">
        <ele>320.7</ele>
        <time>2019-12-10T11:13:45Z</time>
      </trkpt>
      <trkpt lat="43.54622" lon="6.74751">
        <ele>320.7</ele>
        <time>2019-12-10T11:13:47Z</time>
      </trkpt>
      <trkpt lat="43.54622" lon="6.74751">
        <ele>320.7</ele>
        <time>2019-12-10T11:13:49Z</time>
      </trkpt>
      <trkpt lat="43.54622" lon="6.74751">
        <ele>320.7</ele>
        <time>2019-12-10T11:13:51Z</time>
      </trkpt>
      <trkpt lat="43.54622" lon="6.74751">
        <ele>320.7</ele>
        <time>2019-12-10T11:13:53Z</time>
      </trkpt>
      <trkpt lat="43.54622" lon="6.74751">
        <ele>320.7</ele>
        <time>2019-12-10T11:13:55Z</time>
      </trkpt>
      <trkpt lat="43.54622" lon="6.74751">
        <ele>320.7</ele>
        <time>2019-12-10T11:13:57Z</time>
      </trkpt>
      <trkpt lat="43.54622" lon="6.74751">
        <ele>320.7</ele>
        <time>2019-12-10T11:13:59Z</time>
      </trkpt>
      <trkpt lat="43.54622" lon="6.74751">
        <ele>320.7</ele>
        <time>2019-12-10T11:14:01Z</time>
      </trkpt>
      <trkpt lat="43.54622" lon="6.74751">
        <ele>320.7</ele>
        <time>2019-12-10T11:14:03Z</time>
      </trkpt>
      <trkpt lat="43.54622" lon="6.74751">
        <ele>320.7</ele>
        <time>2019-12-10T11:14:05Z</time>
      </trkpt>
      <trkpt lat="43.54622" lon="6.74751">
        <ele>320.7</ele>
        <time>2019-12-10T11:14:07Z</time>
      </trkpt>
      <trkpt lat="43.54622" lon="6.74751">
        <ele>320.7</ele>
        <time>2019-12-10T11:14:09Z</time>
      </trkpt>
      <trkpt lat="43.54622" lon="6.74751">
        <ele>320.7</ele>
        <time>2019-12-10T11:14:11Z</time>
      </trkpt>
      <trkpt lat="43.54622" lon="6.74751">
        <ele>320.7</ele>
        <time>2019-12-10T11:14:13Z</time>
      </trkpt>
      <trkpt lat="43.54622" lon="6.74751">
        <ele>320.7</ele>
        <time>2019-12-10T11:14:15Z</time>
      </trkpt>
      <trkpt lat="43.54622" lon="6.74751">
        <ele>320.7</ele>
        <time>2019-12-10T11:14:17Z</time>
      </trkpt>
      <trkpt lat="43.54622" lon="6.74751">
        <ele>320.7</ele>
        <time>2019-12-10T11:14:19Z</time>
      </trkpt>
      <trkpt lat="43.54622" lon="6.74751">
        <ele>320.7</ele>
        <time>2019-12-10T11:14:21Z</time>
      </trkpt>
      <trkpt lat="43.54622" lon="6.74751">
        <ele>320.7</ele>
        <time>2019-12-10T11:14:23Z</time>
      </trkpt>
      <trkpt lat="43.54622" lon="6.74751">
        <ele>320.7</ele>
        <time>2019-12-10T11:14:25Z</time>
      </trkpt>
      <trkpt lat="43.54622" lon="6.74751">
        <ele>320.7</ele>
        <time>2019-12-10T11:14:27Z</time>
      </trkpt>
      <trkpt lat="43.54622" lon="6.74751">
        <ele>320.7</ele>
        <time>2019-12-10T11:14:29Z</time>
      </trkpt>
      <trkpt lat="43.54622" lon="6.74751">
        <ele>320.7</ele>
        <time>2019-12-10T11:14:31Z</time>
      </trkpt>
      <trkpt lat="43.54622" lon="6.74751">
        <ele>320.7</ele>
        <time>2019-12-10T11:14:33Z</time>
      </trkpt>
      <trkpt lat="43.54622" lon="6.74751">
        <ele>320.7</ele>
        <time>2019-12-10T11:14:35Z</time>
      </trkpt>
      <trkpt lat="43.54622" lon="6.74751">
        <ele>320.7</ele>
        <time>2019-12-10T11:14:37Z</time>
      </trkpt>
      <trkpt lat="43.54622" lon="6.74751">
        <ele>320.7</ele>
        <time>2019-12-10T11:14:39Z</time>
      </trkpt>
      <trkpt lat="43.54622" lon="6.74751">
        <ele>320.7</ele>
        <time>2019-12-10T11:14:41Z</time>
      </trkpt>
      <trkpt lat="43.54622" lon="6.74751">
        <ele>320.7</ele>
        <time>2019-12-10T11:14:43Z</time>
      </trkpt>
      <trkpt lat="43.54622" lon="6.74751">
        <ele>320.7</ele>
        <time>2019-12-10T11:14:45Z</time>
      </trkpt>
      <trkpt lat="43.54622" lon="6.74751">
        <ele>320.7</ele>
        <time>2019-12-10T11:14:47Z</time>
      </trkpt>
      <trkpt lat="43.54622" lon="6.74751">
        <ele>320.7</ele>
        <time>2019-12-10T11:14:49Z</time>
      </trkpt>
      <trkpt lat="43.54622" lon="6.74751">
        <ele>320.7</ele>
        <time>2019-12-10T11:14:51Z</time>
      </trkpt>
      <trkpt lat="43.54622" lon="6.74751">
        <ele>320.7</ele>
        <time>2019-12-10T11:14:53Z</time>
      </trkpt>
      <trkpt lat="43.54622" lon="6.74751">
        <ele>320.7</ele>
        <time>2019-12-10T11:14:55Z</time>
      </trkpt>
      <trkpt lat="43.54622" lon="6.74751">
        <ele>320.7</ele>
        <time>2019-12-10T11:14:57Z</time>
      </trkpt>
      <trkpt lat="43.54622" lon="6.74751">
        <ele>320.7</ele>
        <time>2019-12-10T11:14:59Z</time>
      </trkpt>
      <trkpt lat="43.54622" lon="6.74751">
        <ele>320.7</ele>
        <time>2019-12-10T11:15:01Z</time>
      </trkpt>
      <trkpt lat="43.54622" lon="6.74751">
        <ele>320.7</ele>
        <time>2019-12-10T11:15:03Z</time>
      </trkpt>
      <trkpt lat="43.54622" lon="6.74751">
        <ele>320.7</ele>
        <time>2019-12-10T11:15:05Z</time>
      </trkpt>
      <trkpt lat="43.54622" lon="6.74751">
        <ele>320.7</ele>
        <time>2019-12-10T11:15:07Z</time>
      </trkpt>
      <trkpt lat="43.54622" lon="6.74751">
        <ele>320.7</ele>
        <time>2019-12-10T11:15:09Z</time>
      </trkpt>
      <trkpt lat="43.54622" lon="6.74751">
        <ele>320.7</ele>
        <time>2019-12-10T11:15:11Z</time>
      </trkpt>
      <trkpt lat="43.54622" lon="6.74751">
        <ele>320.7</ele>
        <time>2019-12-10T11:15:13Z</time>
      </trkpt>
      <trkpt lat="43.54622" lon="6.74751">
        <ele>320.7</ele>
        <time>2019-12-10T11:15:15Z</time>
      </trkpt>
      <trkpt lat="43.54622" lon="6.74751">
        <ele>320.7</ele>
        <time>2019-12-10T11:15:17Z</time>
      </trkpt>
      <trkpt lat="43.54622" lon="6.74751">
        <ele>320.7</ele>
        <time>2019-12-10T11:15:19Z</time>
      </trkpt>
      <trkpt lat="43.54622" lon="6.74751">
        <ele>320.7</ele>
        <time>2019-12-10T11:15:21Z</time>
      </trkpt>
      <trkpt lat="43.54622" lon="6.74751">
        <ele>320.7</ele>
        <time>2019-12-10T11:15:23Z</time>
      </trkpt>
      <trkpt lat="43.54622" lon="6.74751">
        <ele>320.7</ele>
        <time>2019-12-10T11:15:25Z</time>
      </trkpt>
      <trkpt lat="43.54622" lon="6.74751">
        <ele>320.7</ele>
        <time>2019-12-10T11:15:27Z</time>
      </trkpt>
      <trkpt lat="43.54622" lon="6.74751">
        <ele>320.7</ele>
        <time>2019-12-10T11:15:29Z</time>
      </trkpt>
      <trkpt lat="43.54622" lon="6.74751">
        <ele>320.7</ele>
        <time>2019-12-10T11:15:31Z</time>
      </trkpt>
      <trkpt lat="43.54622" lon="6.74751">
        <ele>320.7</ele>
        <time>2019-12-10T11:15:33Z</time>
      </trkpt>
      <trkpt lat="43.54622" lon="6.74751">
        <ele>320.7</ele>
        <time>2019-12-10T11:15:35Z</time>
      </trkpt>
      <trkpt lat="43.54622" lon="6.74751">
        <ele>320.7</ele>
        <time>2019-12-10T11:15:37Z</time>
      </trkpt>
      <trkpt lat="43.54622" lon="6.74751">
        <ele>320.7</ele>
        <time>2019-12-10T11:15:39Z</time>
      </trkpt>
      <trkpt lat="43.54622" lon="6.74751">
        <ele>320.7</ele>
        <time>2019-12-10T11:15:41Z</time>
      </trkpt>
      <trkpt lat="43.54622" lon="6.74751">
        <ele>320.7</ele>
        <time>2019-12-10T11:15:43Z</time>
      </trkpt>
      <trkpt lat="43.54622" lon="6.74751">
        <ele>320.7</ele>
        <time>2019-12-10T11:15:45Z</time>
      </trkpt>
      <trkpt lat="43.54622" lon="6.74751">
        <ele>320.7</ele>
        <time>2019-12-10T11:15:47Z</time>
      </trkpt>
      <trkpt lat="43.54622" lon="6.74751">
        <ele>320.7</ele>
        <time>2019-12-10T11:15:49Z</time>
      </trkpt>
      <trkpt lat="43.54622" lon="6.74751">
        <ele>320.7</ele>
        <time>2019-12-10T11:15:51Z</time>
      </trkpt>
      <trkpt lat="43.54622" lon="6.74751">
        <ele>320.7</ele>
        <time>2019-12-10T11:15:53Z</time>
      </trkpt>
      <trkpt lat="43.54622" lon="6.74751">
        <ele>320.7</ele>
        <time>2019-12-10T11:15:55Z</time>
      </trkpt>
      <trkpt lat="43.54622" lon="6.74751">
        <ele>320.7</ele>
        <time>2019-12-10T11:15:57Z</time>
      </trkpt>
      <trkpt lat="43.54622" lon="6.74751">
        <ele>320.7</ele>
        <time>2019-12-10T11:15:59Z</time>
      </trkpt>
      <trkpt lat="43.54622" lon="6.74751">
        <ele>320.7</ele>
        <time>2019-12-10T11:16:01Z</time>
      </trkpt>
      <trkpt lat="43.54622" lon="6.74751">
        <ele>320.7</ele>
        <time>2019-12-10T11:16:03Z</time>
      </trkpt>
      <trkpt lat="43.54622" lon="6.74751">
        <ele>320.7</ele>
        <time>2019-12-10T11:16:05Z</time>
      </trkpt>
      <trkpt lat="43.54622" lon="6.74751">
        <ele>320.7</ele>
        <time>2019-12-10T11:16:07Z</time>
      </trkpt>
      <trkpt lat="43.54622" lon="6.74751">
        <ele>320.7</ele>
        <time>2019-12-10T11:16:09Z</time>
      </trkpt>
      <trkpt lat="43.54622" lon="6.74751">
        <ele>320.7</ele>
        <time>2019-12-10T11:16:11Z</time>
      </trkpt>
      <trkpt lat="43.54622" lon="6.74751">
        <ele>320.7</ele>
        <time>2019-12-10T11:16:13Z</time>
      </trkpt>
      <trkpt lat="43.54622" lon="6.74751">
        <ele>320.7</ele>
        <time>2019-12-10T11:16:15Z</time>
      </trkpt>
      <trkpt lat="43.54622" lon="6.74751">
        <ele>320.7</ele>
        <time>2019-12-10T11:16:17Z</time>
      </trkpt>
      <trkpt lat="43.54622" lon="6.74751">
        <ele>320.7</ele>
        <time>2019-12-10T11:16:19Z</time>
      </trkpt>
      <trkpt lat="43.54622" lon="6.74751">
        <ele>320.7</ele>
        <time>2019-12-10T11:16:21Z</time>
      </trkpt>
      <trkpt lat="43.54622" lon="6.74751">
        <ele>320.7</ele>
        <time>2019-12-10T11:16:23Z</time>
      </trkpt>
      <trkpt lat="43.54622" lon="6.74751">
        <ele>320.7</ele>
        <time>2019-12-10T11:16:25Z</time>
      </trkpt>
      <trkpt lat="43.54622" lon="6.74751">
        <ele>320.7</ele>
        <time>2019-12-10T11:16:27Z</time>
      </trkpt>
      <trkpt lat="43.54622" lon="6.74751">
        <ele>320.7</ele>
        <time>2019-12-10T11:16:29Z</time>
      </trkpt>
      <trkpt lat="43.54622" lon="6.74751">
        <ele>320.7</ele>
        <time>2019-12-10T11:16:31Z</time>
      </trkpt>
      <trkpt lat="43.54622" lon="6.74751">
        <ele>320.7</ele>
        <time>2019-12-10T11:16:33Z</time>
      </trkpt>
      <trkpt lat="43.54622" lon="6.74751">
        <ele>320.7</ele>
        <time>2019-12-10T11:16:35Z</time>
      </trkpt>
      <trkpt lat="43.54622" lon="6.74751">
        <ele>320.7</ele>
        <time>2019-12-10T11:16:37Z</time>
      </trkpt>
      <trkpt lat="43.54622" lon="6.74751">
        <ele>320.7</ele>
        <time>2019-12-10T11:16:39Z</time>
      </trkpt>
      <trkpt lat="43.54622" lon="6.74751">
        <ele>320.7</ele>
        <time>2019-12-10T11:16:41Z</time>
      </trkpt>
      <trkpt lat="43.54622" lon="6.74751">
        <ele>320.7</ele>
        <time>2019-12-10T11:16:43Z</time>
      </trkpt>
      <trkpt lat="43.54622" lon="6.74751">
        <ele>320.7</ele>
        <time>2019-12-10T11:16:45Z</time>
      </trkpt>
      <trkpt lat="43.54622" lon="6.74751">
        <ele>320.7</ele>
        <time>2019-12-10T11:16:47Z</time>
      </trkpt>
      <trkpt lat="43.54622" lon="6.74751">
        <ele>320.7</ele>
        <time>2019-12-10T11:16:49Z</time>
      </trkpt>
      <trkpt lat="43.54622" lon="6.74751">
        <ele>320.7</ele>
        <time>2019-12-10T11:16:51Z</time>
      </trkpt>
      <trkpt lat="43.54622" lon="6.74751">
        <ele>320.7</ele>
        <time>2019-12-10T11:16:53Z</time>
      </trkpt>
      <trkpt lat="43.54622" lon="6.74751">
        <ele>320.7</ele>
        <time>2019-12-10T11:16:55Z</time>
      </trkpt>
      <trkpt lat="43.54622" lon="6.74751">
        <ele>320.7</ele>
        <time>2019-12-10T11:16:57Z</time>
      </trkpt>
      <trkpt lat="43.54622" lon="6.74751">
        <ele>320.7</ele>
        <time>2019-12-10T11:16:59Z</time>
      </trkpt>
      <trkpt lat="43.54622" lon="6.74751">
        <ele>320.7</ele>
        <time>2019-12-10T11:17:01Z</time>
      </trkpt>
      <trkpt lat="43.54622" lon="6.74751">
        <ele>320.7</ele>
        <time>2019-12-10T11:17:03Z</time>
      </trkpt>
      <trkpt lat="43.54622" lon="6.74751">
        <ele>320.7</ele>
        <time>2019-12-10T11:17:05Z</time>
      </trkpt>
      <trkpt lat="43.54622" lon="6.74751">
        <ele>320.7</ele>
        <time>2019-12-10T11:17:07Z</time>
      </trkpt>
      <trkpt lat="43.54622" lon="6.74751">
        <ele>320.7</ele>
        <time>2019-12-10T11:17:09Z</time>
      </trkpt>
      <trkpt lat="43.54622" lon="6.74751">
        <ele>320.7</ele>
        <time>2019-12-10T11:17:11Z</time>
      </trkpt>
      <trkpt lat="43.54622" lon="6.74751">
        <ele>320.7</ele>
        <time>2019-12-10T11:17:13Z</time>
      </trkpt>
      <trkpt lat="43.54622" lon="6.74751">
        <ele>320.7</ele>
        <time>2019-12-10T11:17:15Z</time>
      </trkpt>
      <trkpt lat="43.54622" lon="6.74751">
        <ele>320.7</ele>
        <time>2019-12-10T11:17:17Z</time>
      </trkpt>
      <trkpt lat="43.54622" lon="6.74751">
        <ele>320.7</ele>
        <time>2019-12-10T11:17:19Z</time>
      </trkpt>
      <trkpt lat="43.54622" lon="6.74751">
        <ele>320.7</ele>
        <time>2019-12-10T11:17:21Z</time>
      </trkpt>
      <trkpt lat="43.54622" lon="6.74751">
        <ele>320.7</ele>
        <time>2019-12-10T11:17:23Z</time>
      </trkpt>
      <trkpt lat="43.54622" lon="6.74751">
        <ele>320.7</ele>
        <time>2019-12-10T11:17:25Z</time>
      </trkpt>
      <trkpt lat="43.54622" lon="6.74751">
        <ele>320.7</ele>
        <time>2019-12-10T11:17:27Z</time>
      </trkpt>
      <trkpt lat="43.54622" lon="6.74751">
        <ele>320.7</ele>
        <time>2019-12-10T11:17:29Z</time>
      </trkpt>
      <trkpt lat="43.54622" lon="6.74751">
        <ele>320.7</ele>
        <time>2019-12-10T11:17:31Z</time>
      </trkpt>
      <trkpt lat="43.54622" lon="6.74751">
        <ele>320.3</ele>
        <time>2019-12-10T11:17:33Z</time>
      </trkpt>
      <trkpt lat="43.54622" lon="6.74751">
        <ele>320.3</ele>
        <time>2019-12-10T11:17:35Z</time>
      </trkpt>
      <trkpt lat="43.54622" lon="6.74751">
        <ele>320.3</ele>
        <time>2019-12-10T11:17:37Z</time>
      </trkpt>
      <trkpt lat="43.54622" lon="6.74751">
        <ele>320.3</ele>
        <time>2019-12-10T11:17:39Z</time>
      </trkpt>
      <trkpt lat="43.54622" lon="6.74751">
        <ele>320.3</ele>
        <time>2019-12-10T11:17:41Z</time>
      </trkpt>
      <trkpt lat="43.54622" lon="6.74751">
        <ele>320.3</ele>
        <time>2019-12-10T11:17:43Z</time>
      </trkpt>
      <trkpt lat="43.54622" lon="6.74751">
        <ele>320.3</ele>
        <time>2019-12-10T11:17:45Z</time>
      </trkpt>
      <trkpt lat="43.54622" lon="6.74751">
        <ele>320.3</ele>
        <time>2019-12-10T11:17:47Z</time>
      </trkpt>
      <trkpt lat="43.54622" lon="6.74751">
        <ele>320.3</ele>
        <time>2019-12-10T11:17:49Z</time>
      </trkpt>
      <trkpt lat="43.54622" lon="6.74751">
        <ele>320.3</ele>
        <time>2019-12-10T11:17:51Z</time>
      </trkpt>
      <trkpt lat="43.54622" lon="6.74751">
        <ele>320.3</ele>
        <time>2019-12-10T11:17:53Z</time>
      </trkpt>
      <trkpt lat="43.54622" lon="6.74751">
        <ele>320.3</ele>
        <time>2019-12-10T11:17:55Z</time>
      </trkpt>
      <trkpt lat="43.54622" lon="6.74751">
        <ele>320.3</ele>
        <time>2019-12-10T11:17:57Z</time>
      </trkpt>
      <trkpt lat="43.54622" lon="6.74751">
        <ele>320.3</ele>
        <time>2019-12-10T11:17:59Z</time>
      </trkpt>
      <trkpt lat="43.54622" lon="6.74751">
        <ele>320.3</ele>
        <time>2019-12-10T11:18:01Z</time>
      </trkpt>
      <trkpt lat="43.54622" lon="6.74751">
        <ele>320.3</ele>
        <time>2019-12-10T11:18:03Z</time>
      </trkpt>
      <trkpt lat="43.54622" lon="6.74751">
        <ele>320.3</ele>
        <time>2019-12-10T11:18:05Z</time>
      </trkpt>
      <trkpt lat="43.54622" lon="6.74751">
        <ele>320.3</ele>
        <time>2019-12-10T11:18:07Z</time>
      </trkpt>
      <trkpt lat="43.54622" lon="6.74751">
        <ele>319.8</ele>
        <time>2019-12-10T11:18:09Z</time>
      </trkpt>
      <trkpt lat="43.54622" lon="6.74751">
        <ele>319.8</ele>
        <time>2019-12-10T11:18:11Z</time>
      </trkpt>
      <trkpt lat="43.54622" lon="6.74751">
        <ele>319.8</ele>
        <time>2019-12-10T11:18:13Z</time>
      </trkpt>
      <trkpt lat="43.54622" lon="6.74751">
        <ele>319.8</ele>
        <time>2019-12-10T11:18:15Z</time>
      </trkpt>
      <trkpt lat="43.54622" lon="6.74751">
        <ele>319.8</ele>
        <time>2019-12-10T11:18:17Z</time>
      </trkpt>
      <trkpt lat="43.54622" lon="6.74751">
        <ele>319.8</ele>
        <time>2019-12-10T11:18:19Z</time>
      </trkpt>
      <trkpt lat="43.54622" lon="6.74751">
        <ele>319.8</ele>
        <time>2019-12-10T11:18:21Z</time>
      </trkpt>
      <trkpt lat="43.54622" lon="6.74751">
        <ele>319.8</ele>
        <time>2019-12-10T11:18:23Z</time>
      </trkpt>
      <trkpt lat="43.54622" lon="6.74751">
        <ele>319.8</ele>
        <time>2019-12-10T11:18:25Z</time>
      </trkpt>
      <trkpt lat="43.54622" lon="6.74751">
        <ele>319.8</ele>
        <time>2019-12-10T11:18:27Z</time>
      </trkpt>
      <trkpt lat="43.54622" lon="6.7475">
        <ele>320.3</ele>
        <time>2019-12-10T11:18:29Z</time>
      </trkpt>
      <trkpt lat="43.54622" lon="6.7475">
        <ele>320.3</ele>
        <time>2019-12-10T11:18:31Z</time>
      </trkpt>
      <trkpt lat="43.54622" lon="6.7475">
        <ele>320.3</ele>
        <time>2019-12-10T11:18:33Z</time>
      </trkpt>
      <trkpt lat="43.54622" lon="6.7475">
        <ele>320.3</ele>
        <time>2019-12-10T11:18:35Z</time>
      </trkpt>
      <trkpt lat="43.54621" lon="6.7475">
        <ele>320.3</ele>
        <time>2019-12-10T11:18:37Z</time>
      </trkpt>
      <trkpt lat="43.5462" lon="6.74749">
        <ele>320.7</ele>
        <time>2019-12-10T11:18:39Z</time>
      </trkpt>
      <trkpt lat="43.54618" lon="6.74747">
        <ele>320.7</ele>
        <time>2019-12-10T11:18:41Z</time>
      </trkpt>
      <trkpt lat="43.54616" lon="6.74747">
        <ele>321.2</ele>
        <time>2019-12-10T11:18:43Z</time>
      </trkpt>
      <trkpt lat="43.54615" lon="6.74746">
        <ele>321.2</ele>
        <time>2019-12-10T11:18:45Z</time>
      </trkpt>
      <trkpt lat="43.54614" lon="6.74744">
        <ele>321.7</ele>
        <time>2019-12-10T11:18:47Z</time>
      </trkpt>
      <trkpt lat="43.54612" lon="6.74743">
        <ele>321.7</ele>
        <time>2019-12-10T11:18:49Z</time>
      </trkpt>
      <trkpt lat="43.54611" lon="6.74742">
        <ele>322.2</ele>
        <time>2019-12-10T11:18:51Z</time>
      </trkpt>
      <trkpt lat="43.54609" lon="6.74741">
        <ele>322.7</ele>
        <time>2019-12-10T11:18:53Z</time>
      </trkpt>
      <trkpt lat="43.54607" lon="6.7474">
        <ele>322.7</ele>
        <time>2019-12-10T11:18:55Z</time>
      </trkpt>
      <trkpt lat="43.54605" lon="6.7474">
        <ele>323.1</ele>
        <time>2019-12-10T11:18:57Z</time>
      </trkpt>
      <trkpt lat="43.54603" lon="6.7474">
        <ele>323.1</ele>
        <time>2019-12-10T11:18:59Z</time>
      </trkpt>
      <trkpt lat="43.54602" lon="6.74739">
        <ele>323.6</ele>
        <time>2019-12-10T11:19:01Z</time>
      </trkpt>
      <trkpt lat="43.546" lon="6.74741">
        <ele>323.6</ele>
        <time>2019-12-10T11:19:03Z</time>
      </trkpt>
      <trkpt lat="43.54598" lon="6.74743">
        <ele>323.6</ele>
        <time>2019-12-10T11:19:05Z</time>
      </trkpt>
      <trkpt lat="43.54596" lon="6.74745">
        <ele>324.1</ele>
        <time>2019-12-10T11:19:07Z</time>
      </trkpt>
      <trkpt lat="43.54594" lon="6.74748">
        <ele>324.6</ele>
        <time>2019-12-10T11:19:09Z</time>
      </trkpt>
      <trkpt lat="43.54593" lon="6.7475">
        <ele>325.1</ele>
        <time>2019-12-10T11:19:11Z</time>
      </trkpt>
      <trkpt lat="43.54592" lon="6.74753">
        <ele>325.5</ele>
        <time>2019-12-10T11:19:13Z</time>
      </trkpt>
      <trkpt lat="43.5459" lon="6.74755">
        <ele>326</ele>
        <time>2019-12-10T11:19:15Z</time>
      </trkpt>
      <trkpt lat="43.54589" lon="6.74758">
        <ele>326.5</ele>
        <time>2019-12-10T11:19:17Z</time>
      </trkpt>
      <trkpt lat="43.54587" lon="6.74761">
        <ele>327</ele>
        <time>2019-12-10T11:19:19Z</time>
      </trkpt>
      <trkpt lat="43.54585" lon="6.74763">
        <ele>327.5</ele>
        <time>2019-12-10T11:19:21Z</time>
      </trkpt>
      <trkpt lat="43.54583" lon="6.74764">
        <ele>327.9</ele>
        <time>2019-12-10T11:19:23Z</time>
      </trkpt>
      <trkpt lat="43.54581" lon="6.74766">
        <ele>328.4</ele>
        <time>2019-12-10T11:19:25Z</time>
      </trkpt>
      <trkpt lat="43.54579" lon="6.74768">
        <ele>328.9</ele>
        <time>2019-12-10T11:19:27Z</time>
      </trkpt>
      <trkpt lat="43.54577" lon="6.74768">
        <ele>328.9</ele>
        <time>2019-12-10T11:19:29Z</time>
      </trkpt>
      <trkpt lat="43.54574" lon="6.74769">
        <ele>328.9</ele>
        <time>2019-12-10T11:19:31Z</time>
      </trkpt>
      <trkpt lat="43.54571" lon="6.74769">
        <ele>328.9</ele>
        <time>2019-12-10T11:19:33Z</time>
      </trkpt>
      <trkpt lat="43.54567" lon="6.74769">
        <ele>329.4</ele>
        <time>2019-12-10T11:19:35Z</time>
      </trkpt>
      <trkpt lat="43.54564" lon="6.74769">
        <ele>329.9</ele>
        <time>2019-12-10T11:19:37Z</time>
      </trkpt>
      <trkpt lat="43.54561" lon="6.7477">
        <ele>329.9</ele>
        <time>2019-12-10T11:19:39Z</time>
      </trkpt>
      <trkpt lat="43.54558" lon="6.74769">
        <ele>330.4</ele>
        <time>2019-12-10T11:19:41Z</time>
      </trkpt>
      <trkpt lat="43.54555" lon="6.74769">
        <ele>330.8</ele>
        <time>2019-12-10T11:19:43Z</time>
      </trkpt>
      <trkpt lat="43.54552" lon="6.74769">
        <ele>331.3</ele>
        <time>2019-12-10T11:19:45Z</time>
      </trkpt>
      <trkpt lat="43.54549" lon="6.7477">
        <ele>331.3</ele>
        <time>2019-12-10T11:19:47Z</time>
      </trkpt>
      <trkpt lat="43.54546" lon="6.7477">
        <ele>331.8</ele>
        <time>2019-12-10T11:19:49Z</time>
      </trkpt>
      <trkpt lat="43.54543" lon="6.74771">
        <ele>332.3</ele>
        <time>2019-12-10T11:19:51Z</time>
      </trkpt>
      <trkpt lat="43.54541" lon="6.74773">
        <ele>332.3</ele>
        <time>2019-12-10T11:19:53Z</time>
      </trkpt>
      <trkpt lat="43.54538" lon="6.74774">
        <ele>332.8</ele>
        <time>2019-12-10T11:19:55Z</time>
      </trkpt>
      <trkpt lat="43.54535" lon="6.74775">
        <ele>332.8</ele>
        <time>2019-12-10T11:19:57Z</time>
      </trkpt>
      <trkpt lat="43.54532" lon="6.74777">
        <ele>332.8</ele>
        <time>2019-12-10T11:19:59Z</time>
      </trkpt>
      <trkpt lat="43.5453" lon="6.74778">
        <ele>333.2</ele>
        <time>2019-12-10T11:20:01Z</time>
      </trkpt>
      <trkpt lat="43.54527" lon="6.74781">
        <ele>333.2</ele>
        <time>2019-12-10T11:20:03Z</time>
      </trkpt>
      <trkpt lat="43.54525" lon="6.74782">
        <ele>333.7</ele>
        <time>2019-12-10T11:20:05Z</time>
      </trkpt>
      <trkpt lat="43.54523" lon="6.74781">
        <ele>333.7</ele>
        <time>2019-12-10T11:20:07Z</time>
      </trkpt>
      <trkpt lat="43.54521" lon="6.74779">
        <ele>334.2</ele>
        <time>2019-12-10T11:20:09Z</time>
      </trkpt>
      <trkpt lat="43.54521" lon="6.74776">
        <ele>334.2</ele>
        <time>2019-12-10T11:20:11Z</time>
      </trkpt>
      <trkpt lat="43.5452" lon="6.74774">
        <ele>334.2</ele>
        <time>2019-12-10T11:20:13Z</time>
      </trkpt>
      <trkpt lat="43.54521" lon="6.74771">
        <ele>334.2</ele>
        <time>2019-12-10T11:20:15Z</time>
      </trkpt>
      <trkpt lat="43.5452" lon="6.74767">
        <ele>334.2</ele>
        <time>2019-12-10T11:20:17Z</time>
      </trkpt>
      <trkpt lat="43.54521" lon="6.74762">
        <ele>334.2</ele>
        <time>2019-12-10T11:20:19Z</time>
      </trkpt>
      <trkpt lat="43.54523" lon="6.74759">
        <ele>334.2</ele>
        <time>2019-12-10T11:20:21Z</time>
      </trkpt>
      <trkpt lat="43.54525" lon="6.74755">
        <ele>334.2</ele>
        <time>2019-12-10T11:20:23Z</time>
      </trkpt>
      <trkpt lat="43.54526" lon="6.74752">
        <ele>334.2</ele>
        <time>2019-12-10T11:20:25Z</time>
      </trkpt>
      <trkpt lat="43.54529" lon="6.74751">
        <ele>334.2</ele>
        <time>2019-12-10T11:20:27Z</time>
      </trkpt>
      <trkpt lat="43.5453" lon="6.74754">
        <ele>334.2</ele>
        <time>2019-12-10T11:20:29Z</time>
      </trkpt>
      <trkpt lat="43.54532" lon="6.74757">
        <ele>334.7</ele>
        <time>2019-12-10T11:20:31Z</time>
      </trkpt>
      <trkpt lat="43.54531" lon="6.74761">
        <ele>334.7</ele>
        <time>2019-12-10T11:20:33Z</time>
      </trkpt>
      <trkpt lat="43.5453" lon="6.74765">
        <ele>334.7</ele>
        <time>2019-12-10T11:20:35Z</time>
      </trkpt>
      <trkpt lat="43.54528" lon="6.74768">
        <ele>334.7</ele>
        <time>2019-12-10T11:20:37Z</time>
      </trkpt>
      <trkpt lat="43.54527" lon="6.74773">
        <ele>334.7</ele>
        <time>2019-12-10T11:20:39Z</time>
      </trkpt>
      <trkpt lat="43.54527" lon="6.74778">
        <ele>334.7</ele>
        <time>2019-12-10T11:20:41Z</time>
      </trkpt>
      <trkpt lat="43.54525" lon="6.74782">
        <ele>334.2</ele>
        <time>2019-12-10T11:20:43Z</time>
      </trkpt>
      <trkpt lat="43.54523" lon="6.74786">
        <ele>334.7</ele>
        <time>2019-12-10T11:20:45Z</time>
      </trkpt>
      <trkpt lat="43.54521" lon="6.7479">
        <ele>334.7</ele>
        <time>2019-12-10T11:20:47Z</time>
      </trkpt>
      <trkpt lat="43.54521" lon="6.74795">
        <ele>335.2</ele>
        <time>2019-12-10T11:20:49Z</time>
      </trkpt>
      <trkpt lat="43.54519" lon="6.74798">
        <ele>335.6</ele>
        <time>2019-12-10T11:20:51Z</time>
      </trkpt>
      <trkpt lat="43.54518" lon="6.74803">
        <ele>335.6</ele>
        <time>2019-12-10T11:20:53Z</time>
      </trkpt>
      <trkpt lat="43.54517" lon="6.7481">
        <ele>335.2</ele>
        <time>2019-12-10T11:20:55Z</time>
      </trkpt>
      <trkpt lat="43.54515" lon="6.74815">
        <ele>335.6</ele>
        <time>2019-12-10T11:20:57Z</time>
      </trkpt>
      <trkpt lat="43.54515" lon="6.74818">
        <ele>335.2</ele>
        <time>2019-12-10T11:20:59Z</time>
      </trkpt>
      <trkpt lat="43.54514" lon="6.74822">
        <ele>335.2</ele>
        <time>2019-12-10T11:21:01Z</time>
      </trkpt>
      <trkpt lat="43.54513" lon="6.74827">
        <ele>335.2</ele>
        <time>2019-12-10T11:21:03Z</time>
      </trkpt>
      <trkpt lat="43.54512" lon="6.74831">
        <ele>335.2</ele>
        <time>2019-12-10T11:21:05Z</time>
      </trkpt>
      <trkpt lat="43.54511" lon="6.74836">
        <ele>335.2</ele>
        <time>2019-12-10T11:21:07Z</time>
      </trkpt>
      <trkpt lat="43.5451" lon="6.74842">
        <ele>334.7</ele>
        <time>2019-12-10T11:21:09Z</time>
      </trkpt>
      <trkpt lat="43.54509" lon="6.74848">
        <ele>334.7</ele>
        <time>2019-12-10T11:21:11Z</time>
      </trkpt>
      <trkpt lat="43.54509" lon="6.74854">
        <ele>334.2</ele>
        <time>2019-12-10T11:21:13Z</time>
      </trkpt>
      <trkpt lat="43.54508" lon="6.7486">
        <ele>334.2</ele>
        <time>2019-12-10T11:21:15Z</time>
      </trkpt>
      <trkpt lat="43.54507" lon="6.74866">
        <ele>334.2</ele>
        <time>2019-12-10T11:21:17Z</time>
      </trkpt>
      <trkpt lat="43.54506" lon="6.74872">
        <ele>334.7</ele>
        <time>2019-12-10T11:21:19Z</time>
      </trkpt>
      <trkpt lat="43.54505" lon="6.74877">
        <ele>335.2</ele>
        <time>2019-12-10T11:21:21Z</time>
      </trkpt>
      <trkpt lat="43.54504" lon="6.74882">
        <ele>335.6</ele>
        <time>2019-12-10T11:21:23Z</time>
      </trkpt>
      <trkpt lat="43.54504" lon="6.74887">
        <ele>336.1</ele>
        <time>2019-12-10T11:21:25Z</time>
      </trkpt>
      <trkpt lat="43.54503" lon="6.74892">
        <ele>336.6</ele>
        <time>2019-12-10T11:21:27Z</time>
      </trkpt>
      <trkpt lat="43.54502" lon="6.74898">
        <ele>336.1</ele>
        <time>2019-12-10T11:21:29Z</time>
      </trkpt>
      <trkpt lat="43.54502" lon="6.74905">
        <ele>335.6</ele>
        <time>2019-12-10T11:21:31Z</time>
      </trkpt>
      <trkpt lat="43.54502" lon="6.74915">
        <ele>335.6</ele>
        <time>2019-12-10T11:21:33Z</time>
      </trkpt>
      <trkpt lat="43.54503" lon="6.74926">
        <ele>335.6</ele>
        <time>2019-12-10T11:21:35Z</time>
      </trkpt>
      <trkpt lat="43.54502" lon="6.74938">
        <ele>335.2</ele>
        <time>2019-12-10T11:21:37Z</time>
      </trkpt>
      <trkpt lat="43.54501" lon="6.74951">
        <ele>334.7</ele>
        <time>2019-12-10T11:21:39Z</time>
      </trkpt>
      <trkpt lat="43.54501" lon="6.74962">
        <ele>333.7</ele>
        <time>2019-12-10T11:21:41Z</time>
      </trkpt>
      <trkpt lat="43.54501" lon="6.74973">
        <ele>333.7</ele>
        <time>2019-12-10T11:21:43Z</time>
      </trkpt>
      <trkpt lat="43.545" lon="6.74984">
        <ele>333.7</ele>
        <time>2019-12-10T11:21:45Z</time>
      </trkpt>
      <trkpt lat="43.54498" lon="6.74993">
        <ele>333.7</ele>
        <time>2019-12-10T11:21:47Z</time>
      </trkpt>
      <trkpt lat="43.54497" lon="6.75002">
        <ele>333.7</ele>
        <time>2019-12-10T11:21:49Z</time>
      </trkpt>
      <trkpt lat="43.54496" lon="6.75011">
        <ele>333.7</ele>
        <time>2019-12-10T11:21:51Z</time>
      </trkpt>
      <trkpt lat="43.54495" lon="6.75019">
        <ele>333.2</ele>
        <time>2019-12-10T11:21:53Z</time>
      </trkpt>
      <trkpt lat="43.54494" lon="6.75027">
        <ele>333.2</ele>
        <time>2019-12-10T11:21:55Z</time>
      </trkpt>
      <trkpt lat="43.54493" lon="6.75034">
        <ele>333.7</ele>
        <time>2019-12-10T11:21:57Z</time>
      </trkpt>
      <trkpt lat="43.54493" lon="6.75041">
        <ele>334.2</ele>
        <time>2019-12-10T11:21:59Z</time>
      </trkpt>
      <trkpt lat="43.54493" lon="6.75048">
        <ele>334.7</ele>
        <time>2019-12-10T11:22:01Z</time>
      </trkpt>
      <trkpt lat="43.54493" lon="6.75055">
        <ele>333.7</ele>
        <time>2019-12-10T11:22:03Z</time>
      </trkpt>
      <trkpt lat="43.54492" lon="6.75063">
        <ele>334.2</ele>
        <time>2019-12-10T11:22:05Z</time>
      </trkpt>
      <trkpt lat="43.54491" lon="6.7507">
        <ele>334.7</ele>
        <time>2019-12-10T11:22:07Z</time>
      </trkpt>
      <trkpt lat="43.5449" lon="6.75075">
        <ele>335.6</ele>
        <time>2019-12-10T11:22:09Z</time>
      </trkpt>
      <trkpt lat="43.54488" lon="6.75081">
        <ele>335.2</ele>
        <time>2019-12-10T11:22:11Z</time>
      </trkpt>
      <trkpt lat="43.54486" lon="6.75086">
        <ele>334.7</ele>
        <time>2019-12-10T11:22:13Z</time>
      </trkpt>
      <trkpt lat="43.54485" lon="6.75092">
        <ele>335.2</ele>
        <time>2019-12-10T11:22:15Z</time>
      </trkpt>
      <trkpt lat="43.54483" lon="6.75097">
        <ele>335.2</ele>
        <time>2019-12-10T11:22:17Z</time>
      </trkpt>
      <trkpt lat="43.5448" lon="6.75101">
        <ele>335.6</ele>
        <time>2019-12-10T11:22:19Z</time>
      </trkpt>
      <trkpt lat="43.54478" lon="6.75106">
        <ele>335.6</ele>
        <time>2019-12-10T11:22:21Z</time>
      </trkpt>
      <trkpt lat="43.54475" lon="6.7511">
        <ele>336.1</ele>
        <time>2019-12-10T11:22:23Z</time>
      </trkpt>
      <trkpt lat="43.54472" lon="6.75114">
        <ele>337.1</ele>
        <time>2019-12-10T11:22:25Z</time>
      </trkpt>
      <trkpt lat="43.54471" lon="6.75118">
        <ele>337.6</ele>
        <time>2019-12-10T11:22:27Z</time>
      </trkpt>
      <trkpt lat="43.5447" lon="6.75122">
        <ele>338</ele>
        <time>2019-12-10T11:22:29Z</time>
      </trkpt>
      <trkpt lat="43.5447" lon="6.75126">
        <ele>338.5</ele>
        <time>2019-12-10T11:22:31Z</time>
      </trkpt>
      <trkpt lat="43.54471" lon="6.75129">
        <ele>338.5</ele>
        <time>2019-12-10T11:22:33Z</time>
      </trkpt>
      <trkpt lat="43.54472" lon="6.75134">
        <ele>338.5</ele>
        <time>2019-12-10T11:22:35Z</time>
      </trkpt>
      <trkpt lat="43.54471" lon="6.75138">
        <ele>338.5</ele>
        <time>2019-12-10T11:22:37Z</time>
      </trkpt>
      <trkpt lat="43.54469" lon="6.75141">
        <ele>338.5</ele>
        <time>2019-12-10T11:22:39Z</time>
      </trkpt>
      <trkpt lat="43.54468" lon="6.75144">
        <ele>339</ele>
        <time>2019-12-10T11:22:41Z</time>
      </trkpt>
      <trkpt lat="43.54467" lon="6.75148">
        <ele>339</ele>
        <time>2019-12-10T11:22:43Z</time>
      </trkpt>
      <trkpt lat="43.54467" lon="6.75151">
        <ele>338.5</ele>
        <time>2019-12-10T11:22:45Z</time>
      </trkpt>
      <trkpt lat="43.54469" lon="6.75153">
        <ele>339</ele>
        <time>2019-12-10T11:22:47Z</time>
      </trkpt>
      <trkpt lat="43.54472" lon="6.75153">
        <ele>339</ele>
        <time>2019-12-10T11:22:49Z</time>
      </trkpt>
      <trkpt lat="43.54475" lon="6.75154">
        <ele>339.5</ele>
        <time>2019-12-10T11:22:51Z</time>
      </trkpt>
      <trkpt lat="43.54478" lon="6.75155">
        <ele>340</ele>
        <time>2019-12-10T11:22:53Z</time>
      </trkpt>
      <trkpt lat="43.54481" lon="6.75156">
        <ele>340.4</ele>
        <time>2019-12-10T11:22:55Z</time>
      </trkpt>
      <trkpt lat="43.54483" lon="6.75158">
        <ele>341.4</ele>
        <time>2019-12-10T11:22:57Z</time>
      </trkpt>
      <trkpt lat="43.54483" lon="6.75159">
        <ele>341.4</ele>
        <time>2019-12-10T11:22:59Z</time>
      </trkpt>
      <trkpt lat="43.54484" lon="6.7516">
        <ele>341.4</ele>
        <time>2019-12-10T11:23:01Z</time>
      </trkpt>
      <trkpt lat="43.54484" lon="6.75159">
        <ele>341.4</ele>
        <time>2019-12-10T11:23:03Z</time>
      </trkpt>
      <trkpt lat="43.54484" lon="6.75158">
        <ele>341.4</ele>
        <time>2019-12-10T11:23:05Z</time>
      </trkpt>
      <trkpt lat="43.54485" lon="6.75157">
        <ele>341.4</ele>
        <time>2019-12-10T11:23:07Z</time>
      </trkpt>
      <trkpt lat="43.54486" lon="6.75157">
        <ele>341.9</ele>
        <time>2019-12-10T11:23:09Z</time>
      </trkpt>
      <trkpt lat="43.54487" lon="6.75158">
        <ele>341.9</ele>
        <time>2019-12-10T11:23:11Z</time>
      </trkpt>
      <trkpt lat="43.54487" lon="6.7516">
        <ele>341.9</ele>
        <time>2019-12-10T11:23:13Z</time>
      </trkpt>
      <trkpt lat="43.54487" lon="6.75161">
        <ele>341.9</ele>
        <time>2019-12-10T11:23:15Z</time>
      </trkpt>
      <trkpt lat="43.54487" lon="6.75162">
        <ele>341.4</ele>
        <time>2019-12-10T11:23:17Z</time>
      </trkpt>
      <trkpt lat="43.54487" lon="6.75162">
        <ele>341.4</ele>
        <time>2019-12-10T11:23:19Z</time>
      </trkpt>
      <trkpt lat="43.54488" lon="6.75163">
        <ele>341.4</ele>
        <time>2019-12-10T11:23:21Z</time>
      </trkpt>
      <trkpt lat="43.54488" lon="6.75164">
        <ele>341.4</ele>
        <time>2019-12-10T11:23:23Z</time>
      </trkpt>
      <trkpt lat="43.54487" lon="6.75165">
        <ele>341.4</ele>
        <time>2019-12-10T11:23:25Z</time>
      </trkpt>
      <trkpt lat="43.54486" lon="6.75167">
        <ele>341.4</ele>
        <time>2019-12-10T11:23:27Z</time>
      </trkpt>
      <trkpt lat="43.54486" lon="6.75169">
        <ele>341.4</ele>
        <time>2019-12-10T11:23:29Z</time>
      </trkpt>
      <trkpt lat="43.54486" lon="6.7517">
        <ele>340.9</ele>
        <time>2019-12-10T11:23:31Z</time>
      </trkpt>
      <trkpt lat="43.54487" lon="6.7517">
        <ele>340.9</ele>
        <time>2019-12-10T11:23:33Z</time>
      </trkpt>
      <trkpt lat="43.54487" lon="6.7517">
        <ele>340.9</ele>
        <time>2019-12-10T11:23:35Z</time>
      </trkpt>
      <trkpt lat="43.54487" lon="6.7517">
        <ele>340.9</ele>
        <time>2019-12-10T11:23:37Z</time>
      </trkpt>
      <trkpt lat="43.54487" lon="6.75169">
        <ele>340.9</ele>
        <time>2019-12-10T11:23:39Z</time>
      </trkpt>
      <trkpt lat="43.54488" lon="6.75165">
        <ele>340.9</ele>
        <time>2019-12-10T11:23:41Z</time>
      </trkpt>
      <trkpt lat="43.54489" lon="6.75162">
        <ele>340.4</ele>
        <time>2019-12-10T11:23:43Z</time>
      </trkpt>
      <trkpt lat="43.5449" lon="6.7516">
        <ele>340.4</ele>
        <time>2019-12-10T11:23:45Z</time>
      </trkpt>
      <trkpt lat="43.5449" lon="6.75158">
        <ele>340.4</ele>
        <time>2019-12-10T11:23:47Z</time>
      </trkpt>
      <trkpt lat="43.54491" lon="6.75156">
        <ele>340.9</ele>
        <time>2019-12-10T11:23:49Z</time>
      </trkpt>
      <trkpt lat="43.5449" lon="6.75156">
        <ele>340.9</ele>
        <time>2019-12-10T11:23:51Z</time>
      </trkpt>
      <trkpt lat="43.5449" lon="6.75156">
        <ele>340.9</ele>
        <time>2019-12-10T11:23:53Z</time>
      </trkpt>
      <trkpt lat="43.5449" lon="6.75156">
        <ele>341.4</ele>
        <time>2019-12-10T11:23:55Z</time>
      </trkpt>
      <trkpt lat="43.54491" lon="6.75156">
        <ele>341.4</ele>
        <time>2019-12-10T11:23:57Z</time>
      </trkpt>
      <trkpt lat="43.54491" lon="6.75156">
        <ele>341.4</ele>
        <time>2019-12-10T11:23:59Z</time>
      </trkpt>
      <trkpt lat="43.54492" lon="6.75155">
        <ele>340.9</ele>
        <time>2019-12-10T11:24:01Z</time>
      </trkpt>
      <trkpt lat="43.54493" lon="6.75155">
        <ele>340.9</ele>
        <time>2019-12-10T11:24:03Z</time>
      </trkpt>
      <trkpt lat="43.54493" lon="6.75155">
        <ele>340.9</ele>
        <time>2019-12-10T11:24:05Z</time>
      </trkpt>
      <trkpt lat="43.54494" lon="6.75155">
        <ele>340.9</ele>
        <time>2019-12-10T11:24:07Z</time>
      </trkpt>
      <trkpt lat="43.54493" lon="6.75155">
        <ele>340.9</ele>
        <time>2019-12-10T11:24:09Z</time>
      </trkpt>
      <trkpt lat="43.54491" lon="6.75155">
        <ele>341.4</ele>
        <time>2019-12-10T11:24:11Z</time>
      </trkpt>
      <trkpt lat="43.54489" lon="6.75154">
        <ele>341.4</ele>
        <time>2019-12-10T11:24:13Z</time>
      </trkpt>
      <trkpt lat="43.54488" lon="6.75154">
        <ele>341.4</ele>
        <time>2019-12-10T11:24:15Z</time>
      </trkpt>
      <trkpt lat="43.54487" lon="6.75154">
        <ele>341.9</ele>
        <time>2019-12-10T11:24:17Z</time>
      </trkpt>
      <trkpt lat="43.54487" lon="6.75154">
        <ele>341.9</ele>
        <time>2019-12-10T11:24:19Z</time>
      </trkpt>
      <trkpt lat="43.54488" lon="6.75154">
        <ele>341.9</ele>
        <time>2019-12-10T11:24:21Z</time>
      </trkpt>
      <trkpt lat="43.54488" lon="6.75155">
        <ele>341.9</ele>
        <time>2019-12-10T11:24:23Z</time>
      </trkpt>
      <trkpt lat="43.54488" lon="6.75155">
        <ele>341.9</ele>
        <time>2019-12-10T11:24:25Z</time>
      </trkpt>
      <trkpt lat="43.54488" lon="6.75155">
        <ele>342.4</ele>
        <time>2019-12-10T11:24:27Z</time>
      </trkpt>
      <trkpt lat="43.54488" lon="6.75156">
        <ele>342.4</ele>
        <time>2019-12-10T11:24:29Z</time>
      </trkpt>
      <trkpt lat="43.54487" lon="6.75157">
        <ele>342.4</ele>
        <time>2019-12-10T11:24:31Z</time>
      </trkpt>
      <trkpt lat="43.54487" lon="6.75158">
        <ele>342.4</ele>
        <time>2019-12-10T11:24:33Z</time>
      </trkpt>
      <trkpt lat="43.54486" lon="6.75159">
        <ele>342.4</ele>
        <time>2019-12-10T11:24:35Z</time>
      </trkpt>
      <trkpt lat="43.54486" lon="6.75159">
        <ele>342.4</ele>
        <time>2019-12-10T11:24:37Z</time>
      </trkpt>
      <trkpt lat="43.54486" lon="6.75159">
        <ele>342.4</ele>
        <time>2019-12-10T11:24:39Z</time>
      </trkpt>
      <trkpt lat="43.54486" lon="6.75159">
        <ele>342.4</ele>
        <time>2019-12-10T11:24:41Z</time>
      </trkpt>
      <trkpt lat="43.54486" lon="6.75159">
        <ele>342.4</ele>
        <time>2019-12-10T11:24:43Z</time>
      </trkpt>
      <trkpt lat="43.54486" lon="6.75159">
        <ele>342.4</ele>
        <time>2019-12-10T11:24:45Z</time>
      </trkpt>
      <trkpt lat="43.54486" lon="6.75159">
        <ele>342.4</ele>
        <time>2019-12-10T11:24:47Z</time>
      </trkpt>
      <trkpt lat="43.54486" lon="6.75159">
        <ele>342.4</ele>
        <time>2019-12-10T11:24:49Z</time>
      </trkpt>
      <trkpt lat="43.54486" lon="6.75159">
        <ele>342.4</ele>
        <time>2019-12-10T11:24:51Z</time>
      </trkpt>
      <trkpt lat="43.54486" lon="6.75159">
        <ele>342.4</ele>
        <time>2019-12-10T11:24:53Z</time>
      </trkpt>
      <trkpt lat="43.54486" lon="6.75159">
        <ele>342.4</ele>
        <time>2019-12-10T11:24:55Z</time>
      </trkpt>
      <trkpt lat="43.54486" lon="6.75159">
        <ele>342.4</ele>
        <time>2019-12-10T11:24:57Z</time>
      </trkpt>
      <trkpt lat="43.54486" lon="6.75159">
        <ele>342.4</ele>
        <time>2019-12-10T11:24:59Z</time>
      </trkpt>
      <trkpt lat="43.54486" lon="6.75159">
        <ele>342.4</ele>
        <time>2019-12-10T11:25:01Z</time>
      </trkpt>
      <trkpt lat="43.54486" lon="6.75159">
        <ele>342.4</ele>
        <time>2019-12-10T11:25:03Z</time>
      </trkpt>
      <trkpt lat="43.54493" lon="6.75156">
        <ele>340</ele>
        <time>2019-12-10T11:55:16Z</time>
      </trkpt>
      <trkpt lat="43.54495" lon="6.75158">
        <ele>344.3</ele>
        <time>2019-12-10T11:55:19Z</time>
      </trkpt>
      <trkpt lat="43.54495" lon="6.75157">
        <ele>347.2</ele>
        <time>2019-12-10T11:55:21Z</time>
      </trkpt>
      <trkpt lat="43.54494" lon="6.75157">
        <ele>349.1</ele>
        <time>2019-12-10T11:55:23Z</time>
      </trkpt>
      <trkpt lat="43.54494" lon="6.75155">
        <ele>349.6</ele>
        <time>2019-12-10T11:55:25Z</time>
      </trkpt>
      <trkpt lat="43.54495" lon="6.75156">
        <ele>348.6</ele>
        <time>2019-12-10T11:55:30Z</time>
      </trkpt>
      <trkpt lat="43.54496" lon="6.75156">
        <ele>348.6</ele>
        <time>2019-12-10T11:55:32Z</time>
      </trkpt>
      <trkpt lat="43.54494" lon="6.75156">
        <ele>348.6</ele>
        <time>2019-12-10T11:55:36Z</time>
      </trkpt>
      <trkpt lat="43.54493" lon="6.75155">
        <ele>348.6</ele>
        <time>2019-12-10T11:55:38Z</time>
      </trkpt>
      <trkpt lat="43.54493" lon="6.75155">
        <ele>348.6</ele>
        <time>2019-12-10T11:55:40Z</time>
      </trkpt>
      <trkpt lat="43.54493" lon="6.75154">
        <ele>348.1</ele>
        <time>2019-12-10T11:55:42Z</time>
      </trkpt>
      <trkpt lat="43.54492" lon="6.75155">
        <ele>348.6</ele>
        <time>2019-12-10T11:55:44Z</time>
      </trkpt>
      <trkpt lat="43.54492" lon="6.75155">
        <ele>348.6</ele>
        <time>2019-12-10T11:55:46Z</time>
      </trkpt>
      <trkpt lat="43.54492" lon="6.75156">
        <ele>348.6</ele>
        <time>2019-12-10T11:55:48Z</time>
      </trkpt>
      <trkpt lat="43.54492" lon="6.75157">
        <ele>348.1</ele>
        <time>2019-12-10T11:55:50Z</time>
      </trkpt>
      <trkpt lat="43.54492" lon="6.75157">
        <ele>348.1</ele>
        <time>2019-12-10T11:55:52Z</time>
      </trkpt>
      <trkpt lat="43.54492" lon="6.75157">
        <ele>348.1</ele>
        <time>2019-12-10T11:55:54Z</time>
      </trkpt>
      <trkpt lat="43.54492" lon="6.75157">
        <ele>348.1</ele>
        <time>2019-12-10T11:55:56Z</time>
      </trkpt>
      <trkpt lat="43.54493" lon="6.75157">
        <ele>348.1</ele>
        <time>2019-12-10T11:55:58Z</time>
      </trkpt>
      <trkpt lat="43.54493" lon="6.75157">
        <ele>348.1</ele>
        <time>2019-12-10T11:56:00Z</time>
      </trkpt>
      <trkpt lat="43.54494" lon="6.75157">
        <ele>348.1</ele>
        <time>2019-12-10T11:56:02Z</time>
      </trkpt>
      <trkpt lat="43.54494" lon="6.75157">
        <ele>348.1</ele>
        <time>2019-12-10T11:56:04Z</time>
      </trkpt>
      <trkpt lat="43.54494" lon="6.75157">
        <ele>347.7</ele>
        <time>2019-12-10T11:56:06Z</time>
      </trkpt>
      <trkpt lat="43.54494" lon="6.75157">
        <ele>347.7</ele>
        <time>2019-12-10T11:56:08Z</time>
      </trkpt>
      <trkpt lat="43.54495" lon="6.75157">
        <ele>347.7</ele>
        <time>2019-12-10T11:56:10Z</time>
      </trkpt>
      <trkpt lat="43.54495" lon="6.75157">
        <ele>347.2</ele>
        <time>2019-12-10T11:56:12Z</time>
      </trkpt>
      <trkpt lat="43.54495" lon="6.75157">
        <ele>346.7</ele>
        <time>2019-12-10T11:56:14Z</time>
      </trkpt>
      <trkpt lat="43.54495" lon="6.75157">
        <ele>346.7</ele>
        <time>2019-12-10T11:56:16Z</time>
      </trkpt>
      <trkpt lat="43.54495" lon="6.75156">
        <ele>346.7</ele>
        <time>2019-12-10T11:56:18Z</time>
      </trkpt>
      <trkpt lat="43.54495" lon="6.75156">
        <ele>346.7</ele>
        <time>2019-12-10T11:56:20Z</time>
      </trkpt>
      <trkpt lat="43.54495" lon="6.75156">
        <ele>346.7</ele>
        <time>2019-12-10T11:56:22Z</time>
      </trkpt>
      <trkpt lat="43.54495" lon="6.75156">
        <ele>346.7</ele>
        <time>2019-12-10T11:56:24Z</time>
      </trkpt>
      <trkpt lat="43.54495" lon="6.75156">
        <ele>346.7</ele>
        <time>2019-12-10T11:56:26Z</time>
      </trkpt>
      <trkpt lat="43.54495" lon="6.75156">
        <ele>346.7</ele>
        <time>2019-12-10T11:56:28Z</time>
      </trkpt>
      <trkpt lat="43.54495" lon="6.75156">
        <ele>346.7</ele>
        <time>2019-12-10T11:56:30Z</time>
      </trkpt>
      <trkpt lat="43.54495" lon="6.75156">
        <ele>346.7</ele>
        <time>2019-12-10T11:56:32Z</time>
      </trkpt>
      <trkpt lat="43.54495" lon="6.75156">
        <ele>346.7</ele>
        <time>2019-12-10T11:56:34Z</time>
      </trkpt>
      <trkpt lat="43.54495" lon="6.75156">
        <ele>346.7</ele>
        <time>2019-12-10T11:56:36Z</time>
      </trkpt>
      <trkpt lat="43.54495" lon="6.75156">
        <ele>346.7</ele>
        <time>2019-12-10T11:56:38Z</time>
      </trkpt>
      <trkpt lat="43.54495" lon="6.75155">
        <ele>347.2</ele>
        <time>2019-12-10T11:56:40Z</time>
      </trkpt>
      <trkpt lat="43.54494" lon="6.75155">
        <ele>346.7</ele>
        <time>2019-12-10T11:56:42Z</time>
      </trkpt>
      <trkpt lat="43.54493" lon="6.75155">
        <ele>346.7</ele>
        <time>2019-12-10T11:56:44Z</time>
      </trkpt>
      <trkpt lat="43.54492" lon="6.75156">
        <ele>346.7</ele>
        <time>2019-12-10T11:56:46Z</time>
      </trkpt>
      <trkpt lat="43.54492" lon="6.75156">
        <ele>346.7</ele>
        <time>2019-12-10T11:56:48Z</time>
      </trkpt>
      <trkpt lat="43.54492" lon="6.75156">
        <ele>346.2</ele>
        <time>2019-12-10T11:56:50Z</time>
      </trkpt>
      <trkpt lat="43.54492" lon="6.75153">
        <ele>345.7</ele>
        <time>2019-12-10T11:56:52Z</time>
      </trkpt>
      <trkpt lat="43.5449" lon="6.75149">
        <ele>345.3</ele>
        <time>2019-12-10T11:56:54Z</time>
      </trkpt>
      <trkpt lat="43.54485" lon="6.75145">
        <ele>344.3</ele>
        <time>2019-12-10T11:56:56Z</time>
      </trkpt>
      <trkpt lat="43.54481" lon="6.7514">
        <ele>344.3</ele>
        <time>2019-12-10T11:56:58Z</time>
      </trkpt>
      <trkpt lat="43.54477" lon="6.75136">
        <ele>344.3</ele>
        <time>2019-12-10T11:57:00Z</time>
      </trkpt>
      <trkpt lat="43.54473" lon="6.75133">
        <ele>344.3</ele>
        <time>2019-12-10T11:57:02Z</time>
      </trkpt>
      <trkpt lat="43.5447" lon="6.75131">
        <ele>344.3</ele>
        <time>2019-12-10T11:57:04Z</time>
      </trkpt>
      <trkpt lat="43.54468" lon="6.75131">
        <ele>344.3</ele>
        <time>2019-12-10T11:57:06Z</time>
      </trkpt>
      <trkpt lat="43.54466" lon="6.75132">
        <ele>344.3</ele>
        <time>2019-12-10T11:57:08Z</time>
      </trkpt>
      <trkpt lat="43.54464" lon="6.75135">
        <ele>344.3</ele>
        <time>2019-12-10T11:57:10Z</time>
      </trkpt>
      <trkpt lat="43.54463" lon="6.75138">
        <ele>344.3</ele>
        <time>2019-12-10T11:57:12Z</time>
      </trkpt>
      <trkpt lat="43.54461" lon="6.75142">
        <ele>343.8</ele>
        <time>2019-12-10T11:57:14Z</time>
      </trkpt>
      <trkpt lat="43.5446" lon="6.75147">
        <ele>343.8</ele>
        <time>2019-12-10T11:57:16Z</time>
      </trkpt>
      <trkpt lat="43.54458" lon="6.75151">
        <ele>344.3</ele>
        <time>2019-12-10T11:57:18Z</time>
      </trkpt>
      <trkpt lat="43.54456" lon="6.75156">
        <ele>343.8</ele>
        <time>2019-12-10T11:57:20Z</time>
      </trkpt>
      <trkpt lat="43.54454" lon="6.7516">
        <ele>344.3</ele>
        <time>2019-12-10T11:57:22Z</time>
      </trkpt>
      <trkpt lat="43.54452" lon="6.75164">
        <ele>344.8</ele>
        <time>2019-12-10T11:57:24Z</time>
      </trkpt>
      <trkpt lat="43.5445" lon="6.75167">
        <ele>344.8</ele>
        <time>2019-12-10T11:57:26Z</time>
      </trkpt>
      <trkpt lat="43.54447" lon="6.7517">
        <ele>345.3</ele>
        <time>2019-12-10T11:57:28Z</time>
      </trkpt>
      <trkpt lat="43.54444" lon="6.75173">
        <ele>345.3</ele>
        <time>2019-12-10T11:57:30Z</time>
      </trkpt>
      <trkpt lat="43.54442" lon="6.75175">
        <ele>345.3</ele>
        <time>2019-12-10T11:57:32Z</time>
      </trkpt>
      <trkpt lat="43.54439" lon="6.75179">
        <ele>345.3</ele>
        <time>2019-12-10T11:57:34Z</time>
      </trkpt>
      <trkpt lat="43.54435" lon="6.75182">
        <ele>345.3</ele>
        <time>2019-12-10T11:57:36Z</time>
      </trkpt>
      <trkpt lat="43.54431" lon="6.75185">
        <ele>345.3</ele>
        <time>2019-12-10T11:57:38Z</time>
      </trkpt>
      <trkpt lat="43.54426" lon="6.75187">
        <ele>345.3</ele>
        <time>2019-12-10T11:57:40Z</time>
      </trkpt>
      <trkpt lat="43.54421" lon="6.75189">
        <ele>345.3</ele>
        <time>2019-12-10T11:57:42Z</time>
      </trkpt>
      <trkpt lat="43.54417" lon="6.7519">
        <ele>344.8</ele>
        <time>2019-12-10T11:57:44Z</time>
      </trkpt>
      <trkpt lat="43.54413" lon="6.75192">
        <ele>344.8</ele>
        <time>2019-12-10T11:57:46Z</time>
      </trkpt>
      <trkpt lat="43.54408" lon="6.75193">
        <ele>344.8</ele>
        <time>2019-12-10T11:57:48Z</time>
      </trkpt>
      <trkpt lat="43.54404" lon="6.75193">
        <ele>343.8</ele>
        <time>2019-12-10T11:57:50Z</time>
      </trkpt>
      <trkpt lat="43.54399" lon="6.75192">
        <ele>343.8</ele>
        <time>2019-12-10T11:57:52Z</time>
      </trkpt>
      <trkpt lat="43.54394" lon="6.75194">
        <ele>343.8</ele>
        <time>2019-12-10T11:57:54Z</time>
      </trkpt>
      <trkpt lat="43.54389" lon="6.75195">
        <ele>344.3</ele>
        <time>2019-12-10T11:57:56Z</time>
      </trkpt>
      <trkpt lat="43.54384" lon="6.75196">
        <ele>343.8</ele>
        <time>2019-12-10T11:57:58Z</time>
      </trkpt>
      <trkpt lat="43.54379" lon="6.75198">
        <ele>343.8</ele>
        <time>2019-12-10T11:58:00Z</time>
      </trkpt>
      <trkpt lat="43.54375" lon="6.75201">
        <ele>343.8</ele>
        <time>2019-12-10T11:58:02Z</time>
      </trkpt>
      <trkpt lat="43.54371" lon="6.75203">
        <ele>343.8</ele>
        <time>2019-12-10T11:58:04Z</time>
      </trkpt>
      <trkpt lat="43.54367" lon="6.75205">
        <ele>343.3</ele>
        <time>2019-12-10T11:58:06Z</time>
      </trkpt>
      <trkpt lat="43.54362" lon="6.75208">
        <ele>342.8</ele>
        <time>2019-12-10T11:58:08Z</time>
      </trkpt>
      <trkpt lat="43.54358" lon="6.75211">
        <ele>342.4</ele>
        <time>2019-12-10T11:58:10Z</time>
      </trkpt>
      <trkpt lat="43.54352" lon="6.75215">
        <ele>341.4</ele>
        <time>2019-12-10T11:58:12Z</time>
      </trkpt>
      <trkpt lat="43.54345" lon="6.75217">
        <ele>340.9</ele>
        <time>2019-12-10T11:58:14Z</time>
      </trkpt>
      <trkpt lat="43.5434" lon="6.75214">
        <ele>340</ele>
        <time>2019-12-10T11:58:16Z</time>
      </trkpt>
      <trkpt lat="43.54333" lon="6.75209">
        <ele>338.5</ele>
        <time>2019-12-10T11:58:18Z</time>
      </trkpt>
      <trkpt lat="43.54327" lon="6.75203">
        <ele>337.6</ele>
        <time>2019-12-10T11:58:20Z</time>
      </trkpt>
      <trkpt lat="43.54321" lon="6.75198">
        <ele>336.6</ele>
        <time>2019-12-10T11:58:22Z</time>
      </trkpt>
      <trkpt lat="43.54314" lon="6.75195">
        <ele>335.6</ele>
        <time>2019-12-10T11:58:24Z</time>
      </trkpt>
      <trkpt lat="43.54307" lon="6.75194">
        <ele>335.2</ele>
        <time>2019-12-10T11:58:26Z</time>
      </trkpt>
      <trkpt lat="43.543" lon="6.75194">
        <ele>334.2</ele>
        <time>2019-12-10T11:58:28Z</time>
      </trkpt>
      <trkpt lat="43.54292" lon="6.75194">
        <ele>333.2</ele>
        <time>2019-12-10T11:58:30Z</time>
      </trkpt>
      <trkpt lat="43.54282" lon="6.75194">
        <ele>332.8</ele>
        <time>2019-12-10T11:58:32Z</time>
      </trkpt>
      <trkpt lat="43.54271" lon="6.75194">
        <ele>331.8</ele>
        <time>2019-12-10T11:58:34Z</time>
      </trkpt>
      <trkpt lat="43.5426" lon="6.75195">
        <ele>331.3</ele>
        <time>2019-12-10T11:58:36Z</time>
      </trkpt>
      <trkpt lat="43.54248" lon="6.75197">
        <ele>329.9</ele>
        <time>2019-12-10T11:58:38Z</time>
      </trkpt>
      <trkpt lat="43.54236" lon="6.752">
        <ele>329.4</ele>
        <time>2019-12-10T11:58:40Z</time>
      </trkpt>
      <trkpt lat="43.54224" lon="6.75202">
        <ele>328.4</ele>
        <time>2019-12-10T11:58:42Z</time>
      </trkpt>
      <trkpt lat="43.54212" lon="6.75205">
        <ele>327.9</ele>
        <time>2019-12-10T11:58:44Z</time>
      </trkpt>
      <trkpt lat="43.54201" lon="6.75208">
        <ele>327.9</ele>
        <time>2019-12-10T11:58:46Z</time>
      </trkpt>
      <trkpt lat="43.5419" lon="6.75211">
        <ele>327.9</ele>
        <time>2019-12-10T11:58:48Z</time>
      </trkpt>
      <trkpt lat="43.5418" lon="6.75214">
        <ele>327.5</ele>
        <time>2019-12-10T11:58:50Z</time>
      </trkpt>
      <trkpt lat="43.54171" lon="6.7522">
        <ele>327</ele>
        <time>2019-12-10T11:58:52Z</time>
      </trkpt>
      <trkpt lat="43.54162" lon="6.75226">
        <ele>326.5</ele>
        <time>2019-12-10T11:58:54Z</time>
      </trkpt>
      <trkpt lat="43.54154" lon="6.75235">
        <ele>326</ele>
        <time>2019-12-10T11:58:56Z</time>
      </trkpt>
      <trkpt lat="43.54146" lon="6.75245">
        <ele>325.5</ele>
        <time>2019-12-10T11:58:58Z</time>
      </trkpt>
      <trkpt lat="43.54141" lon="6.75253">
        <ele>325.5</ele>
        <time>2019-12-10T11:59:00Z</time>
      </trkpt>
      <trkpt lat="43.54135" lon="6.75259">
        <ele>324.6</ele>
        <time>2019-12-10T11:59:02Z</time>
      </trkpt>
      <trkpt lat="43.54129" lon="6.75263">
        <ele>323.6</ele>
        <time>2019-12-10T11:59:04Z</time>
      </trkpt>
      <trkpt lat="43.54121" lon="6.75266">
        <ele>323.6</ele>
        <time>2019-12-10T11:59:06Z</time>
      </trkpt>
      <trkpt lat="43.54113" lon="6.75267">
        <ele>322.7</ele>
        <time>2019-12-10T11:59:08Z</time>
      </trkpt>
      <trkpt lat="43.54103" lon="6.75265">
        <ele>321.2</ele>
        <time>2019-12-10T11:59:10Z</time>
      </trkpt>
      <trkpt lat="43.54095" lon="6.75261">
        <ele>320.3</ele>
        <time>2019-12-10T11:59:12Z</time>
      </trkpt>
      <trkpt lat="43.54086" lon="6.75259">
        <ele>319.3</ele>
        <time>2019-12-10T11:59:14Z</time>
      </trkpt>
      <trkpt lat="43.54076" lon="6.75254">
        <ele>317.9</ele>
        <time>2019-12-10T11:59:16Z</time>
      </trkpt>
      <trkpt lat="43.54068" lon="6.75249">
        <ele>316.9</ele>
        <time>2019-12-10T11:59:18Z</time>
      </trkpt>
      <trkpt lat="43.5406" lon="6.75243">
        <ele>315.9</ele>
        <time>2019-12-10T11:59:20Z</time>
      </trkpt>
      <trkpt lat="43.5405" lon="6.75237">
        <ele>314.5</ele>
        <time>2019-12-10T11:59:22Z</time>
      </trkpt>
      <trkpt lat="43.54036" lon="6.75237">
        <ele>313</ele>
        <time>2019-12-10T11:59:24Z</time>
      </trkpt>
      <trkpt lat="43.54023" lon="6.75242">
        <ele>312.1</ele>
        <time>2019-12-10T11:59:26Z</time>
      </trkpt>
      <trkpt lat="43.54012" lon="6.75251">
        <ele>311.6</ele>
        <time>2019-12-10T11:59:28Z</time>
      </trkpt>
      <trkpt lat="43.54003" lon="6.75259">
        <ele>311.6</ele>
        <time>2019-12-10T11:59:30Z</time>
      </trkpt>
      <trkpt lat="43.53993" lon="6.75265">
        <ele>311.1</ele>
        <time>2019-12-10T11:59:32Z</time>
      </trkpt>
      <trkpt lat="43.53983" lon="6.75269">
        <ele>310.6</ele>
        <time>2019-12-10T11:59:34Z</time>
      </trkpt>
      <trkpt lat="43.53973" lon="6.75272">
        <ele>310.6</ele>
        <time>2019-12-10T11:59:36Z</time>
      </trkpt>
      <trkpt lat="43.53964" lon="6.75274">
        <ele>310.6</ele>
        <time>2019-12-10T11:59:38Z</time>
      </trkpt>
      <trkpt lat="43.53954" lon="6.75275">
        <ele>309.7</ele>
        <time>2019-12-10T11:59:40Z</time>
      </trkpt>
      <trkpt lat="43.53944" lon="6.75276">
        <ele>309.2</ele>
        <time>2019-12-10T11:59:42Z</time>
      </trkpt>
      <trkpt lat="43.53932" lon="6.75275">
        <ele>308.2</ele>
        <time>2019-12-10T11:59:44Z</time>
      </trkpt>
      <trkpt lat="43.53918" lon="6.75272">
        <ele>307.3</ele>
        <time>2019-12-10T11:59:46Z</time>
      </trkpt>
      <trkpt lat="43.53905" lon="6.7527">
        <ele>306.3</ele>
        <time>2019-12-10T11:59:48Z</time>
      </trkpt>
      <trkpt lat="43.53893" lon="6.75265">
        <ele>305.8</ele>
        <time>2019-12-10T11:59:50Z</time>
      </trkpt>
      <trkpt lat="43.53885" lon="6.75255">
        <ele>305.8</ele>
        <time>2019-12-10T11:59:52Z</time>
      </trkpt>
      <trkpt lat="43.5388" lon="6.75246">
        <ele>305.4</ele>
        <time>2019-12-10T11:59:54Z</time>
      </trkpt>
      <trkpt lat="43.53878" lon="6.75241">
        <ele>305.4</ele>
        <time>2019-12-10T11:59:56Z</time>
      </trkpt>
      <trkpt lat="43.53877" lon="6.7524">
        <ele>306.3</ele>
        <time>2019-12-10T11:59:58Z</time>
      </trkpt>
      <trkpt lat="43.53877" lon="6.75241">
        <ele>306.3</ele>
        <time>2019-12-10T12:00:00Z</time>
      </trkpt>
      <trkpt lat="43.53877" lon="6.75241">
        <ele>305.8</ele>
        <time>2019-12-10T12:00:02Z</time>
      </trkpt>
      <trkpt lat="43.53877" lon="6.75241">
        <ele>305.8</ele>
        <time>2019-12-10T12:00:04Z</time>
      </trkpt>
      <trkpt lat="43.53877" lon="6.75241">
        <ele>305.8</ele>
        <time>2019-12-10T12:00:06Z</time>
      </trkpt>
      <trkpt lat="43.53877" lon="6.75241">
        <ele>305.8</ele>
        <time>2019-12-10T12:00:08Z</time>
      </trkpt>
      <trkpt lat="43.53877" lon="6.75241">
        <ele>305.8</ele>
        <time>2019-12-10T12:00:10Z</time>
      </trkpt>
      <trkpt lat="43.53877" lon="6.75241">
        <ele>305.8</ele>
        <time>2019-12-10T12:00:12Z</time>
      </trkpt>
      <trkpt lat="43.53877" lon="6.75241">
        <ele>305.8</ele>
        <time>2019-12-10T12:00:14Z</time>
      </trkpt>
      <trkpt lat="43.53877" lon="6.75241">
        <ele>305.8</ele>
        <time>2019-12-10T12:00:16Z</time>
      </trkpt>
      <trkpt lat="43.53877" lon="6.75241">
        <ele>305.8</ele>
        <time>2019-12-10T12:00:18Z</time>
      </trkpt>
      <trkpt lat="43.53877" lon="6.75241">
        <ele>305.8</ele>
        <time>2019-12-10T12:00:20Z</time>
      </trkpt>
      <trkpt lat="43.53877" lon="6.75241">
        <ele>305.8</ele>
        <time>2019-12-10T12:00:22Z</time>
      </trkpt>
      <trkpt lat="43.53877" lon="6.75241">
        <ele>305.8</ele>
        <time>2019-12-10T12:00:24Z</time>
      </trkpt>
      <trkpt lat="43.53877" lon="6.75241">
        <ele>305.8</ele>
        <time>2019-12-10T12:00:26Z</time>
      </trkpt>
      <trkpt lat="43.53877" lon="6.75241">
        <ele>305.8</ele>
        <time>2019-12-10T12:00:28Z</time>
      </trkpt>
      <trkpt lat="43.53876" lon="6.7524">
        <ele>305.8</ele>
        <time>2019-12-10T12:00:30Z</time>
      </trkpt>
      <trkpt lat="43.53874" lon="6.75238">
        <ele>305.8</ele>
        <time>2019-12-10T12:00:32Z</time>
      </trkpt>
      <trkpt lat="43.53871" lon="6.75234">
        <ele>305.8</ele>
        <time>2019-12-10T12:00:34Z</time>
      </trkpt>
      <trkpt lat="43.53869" lon="6.75229">
        <ele>305.8</ele>
        <time>2019-12-10T12:00:36Z</time>
      </trkpt>
      <trkpt lat="43.53866" lon="6.75223">
        <ele>305.8</ele>
        <time>2019-12-10T12:00:38Z</time>
      </trkpt>
      <trkpt lat="43.53864" lon="6.75218">
        <ele>305.8</ele>
        <time>2019-12-10T12:00:40Z</time>
      </trkpt>
      <trkpt lat="43.53862" lon="6.75211">
        <ele>305.8</ele>
        <time>2019-12-10T12:00:42Z</time>
      </trkpt>
      <trkpt lat="43.53859" lon="6.75204">
        <ele>305.4</ele>
        <time>2019-12-10T12:00:44Z</time>
      </trkpt>
      <trkpt lat="43.53857" lon="6.75196">
        <ele>305.4</ele>
        <time>2019-12-10T12:00:46Z</time>
      </trkpt>
      <trkpt lat="43.53854" lon="6.75188">
        <ele>304.9</ele>
        <time>2019-12-10T12:00:48Z</time>
      </trkpt>
      <trkpt lat="43.5385" lon="6.75179">
        <ele>304.4</ele>
        <time>2019-12-10T12:00:50Z</time>
      </trkpt>
      <trkpt lat="43.53846" lon="6.75167">
        <ele>304.4</ele>
        <time>2019-12-10T12:00:52Z</time>
      </trkpt>
      <trkpt lat="43.53845" lon="6.75157">
        <ele>303.9</ele>
        <time>2019-12-10T12:00:54Z</time>
      </trkpt>
      <trkpt lat="43.53846" lon="6.75145">
        <ele>303</ele>
        <time>2019-12-10T12:00:56Z</time>
      </trkpt>
      <trkpt lat="43.53848" lon="6.75134">
        <ele>302.5</ele>
        <time>2019-12-10T12:00:58Z</time>
      </trkpt>
      <trkpt lat="43.53852" lon="6.75123">
        <ele>302.5</ele>
        <time>2019-12-10T12:01:00Z</time>
      </trkpt>
      <trkpt lat="43.53858" lon="6.75113">
        <ele>301.5</ele>
        <time>2019-12-10T12:01:02Z</time>
      </trkpt>
      <trkpt lat="43.53862" lon="6.75103">
        <ele>302</ele>
        <time>2019-12-10T12:01:04Z</time>
      </trkpt>
      <trkpt lat="43.53865" lon="6.75095">
        <ele>301.5</ele>
        <time>2019-12-10T12:01:06Z</time>
      </trkpt>
      <trkpt lat="43.53867" lon="6.75085">
        <ele>300.5</ele>
        <time>2019-12-10T12:01:08Z</time>
      </trkpt>
      <trkpt lat="43.53868" lon="6.75072">
        <ele>300.1</ele>
        <time>2019-12-10T12:01:10Z</time>
      </trkpt>
      <trkpt lat="43.53865" lon="6.75058">
        <ele>299.1</ele>
        <time>2019-12-10T12:01:12Z</time>
      </trkpt>
      <trkpt lat="43.5386" lon="6.75045">
        <ele>298.6</ele>
        <time>2019-12-10T12:01:14Z</time>
      </trkpt>
      <trkpt lat="43.53853" lon="6.75034">
        <ele>297.7</ele>
        <time>2019-12-10T12:01:16Z</time>
      </trkpt>
      <trkpt lat="43.53844" lon="6.75027">
        <ele>297.2</ele>
        <time>2019-12-10T12:01:18Z</time>
      </trkpt>
      <trkpt lat="43.53832" lon="6.75023">
        <ele>296.7</ele>
        <time>2019-12-10T12:01:20Z</time>
      </trkpt>
      <trkpt lat="43.53822" lon="6.75026">
        <ele>296.2</ele>
        <time>2019-12-10T12:01:22Z</time>
      </trkpt>
      <trkpt lat="43.53811" lon="6.75028">
        <ele>296.2</ele>
        <time>2019-12-10T12:01:24Z</time>
      </trkpt>
      <trkpt lat="43.53803" lon="6.75027">
        <ele>294.8</ele>
        <time>2019-12-10T12:01:26Z</time>
      </trkpt>
      <trkpt lat="43.53796" lon="6.7502">
        <ele>294.3</ele>
        <time>2019-12-10T12:01:28Z</time>
      </trkpt>
      <trkpt lat="43.53788" lon="6.75011">
        <ele>293.3</ele>
        <time>2019-12-10T12:01:30Z</time>
      </trkpt>
      <trkpt lat="43.53779" lon="6.75002">
        <ele>292.4</ele>
        <time>2019-12-10T12:01:32Z</time>
      </trkpt>
      <trkpt lat="43.53769" lon="6.74995">
        <ele>291.4</ele>
        <time>2019-12-10T12:01:34Z</time>
      </trkpt>
      <trkpt lat="43.53758" lon="6.74987">
        <ele>290.9</ele>
        <time>2019-12-10T12:01:36Z</time>
      </trkpt>
      <trkpt lat="43.53748" lon="6.74978">
        <ele>290</ele>
        <time>2019-12-10T12:01:38Z</time>
      </trkpt>
      <trkpt lat="43.53738" lon="6.74967">
        <ele>288.5</ele>
        <time>2019-12-10T12:01:40Z</time>
      </trkpt>
      <trkpt lat="43.5373" lon="6.74954">
        <ele>288.1</ele>
        <time>2019-12-10T12:01:42Z</time>
      </trkpt>
      <trkpt lat="43.53722" lon="6.74941">
        <ele>287.6</ele>
        <time>2019-12-10T12:01:44Z</time>
      </trkpt>
      <trkpt lat="43.53714" lon="6.74931">
        <ele>287.6</ele>
        <time>2019-12-10T12:01:46Z</time>
      </trkpt>
      <trkpt lat="43.53707" lon="6.74922">
        <ele>287.1</ele>
        <time>2019-12-10T12:01:48Z</time>
      </trkpt>
      <trkpt lat="43.53699" lon="6.74916">
        <ele>287.1</ele>
        <time>2019-12-10T12:01:50Z</time>
      </trkpt>
      <trkpt lat="43.53692" lon="6.74911">
        <ele>287.1</ele>
        <time>2019-12-10T12:01:52Z</time>
      </trkpt>
      <trkpt lat="43.53685" lon="6.74908">
        <ele>286.6</ele>
        <time>2019-12-10T12:01:54Z</time>
      </trkpt>
      <trkpt lat="43.53676" lon="6.74904">
        <ele>286.1</ele>
        <time>2019-12-10T12:01:56Z</time>
      </trkpt>
      <trkpt lat="43.53668" lon="6.74901">
        <ele>285.2</ele>
        <time>2019-12-10T12:01:58Z</time>
      </trkpt>
      <trkpt lat="43.53658" lon="6.74899">
        <ele>284.2</ele>
        <time>2019-12-10T12:02:00Z</time>
      </trkpt>
      <trkpt lat="43.53647" lon="6.74898">
        <ele>282.8</ele>
        <time>2019-12-10T12:02:02Z</time>
      </trkpt>
      <trkpt lat="43.53636" lon="6.74895">
        <ele>281.3</ele>
        <time>2019-12-10T12:02:04Z</time>
      </trkpt>
      <trkpt lat="43.53624" lon="6.74893">
        <ele>279.9</ele>
        <time>2019-12-10T12:02:06Z</time>
      </trkpt>
      <trkpt lat="43.53611" lon="6.74893">
        <ele>278.9</ele>
        <time>2019-12-10T12:02:08Z</time>
      </trkpt>
      <trkpt lat="43.53599" lon="6.74892">
        <ele>278.4</ele>
        <time>2019-12-10T12:02:10Z</time>
      </trkpt>
      <trkpt lat="43.53585" lon="6.74891">
        <ele>277.5</ele>
        <time>2019-12-10T12:02:12Z</time>
      </trkpt>
      <trkpt lat="43.53573" lon="6.74888">
        <ele>277.5</ele>
        <time>2019-12-10T12:02:14Z</time>
      </trkpt>
      <trkpt lat="43.53562" lon="6.74881">
        <ele>278</ele>
        <time>2019-12-10T12:02:16Z</time>
      </trkpt>
      <trkpt lat="43.53554" lon="6.74876">
        <ele>278.4</ele>
        <time>2019-12-10T12:02:18Z</time>
      </trkpt>
      <trkpt lat="43.53548" lon="6.74873">
        <ele>278.9</ele>
        <time>2019-12-10T12:02:20Z</time>
      </trkpt>
      <trkpt lat="43.53543" lon="6.74871">
        <ele>279.4</ele>
        <time>2019-12-10T12:02:22Z</time>
      </trkpt>
      <trkpt lat="43.53539" lon="6.74868">
        <ele>279.4</ele>
        <time>2019-12-10T12:02:24Z</time>
      </trkpt>
      <trkpt lat="43.53535" lon="6.74866">
        <ele>279.9</ele>
        <time>2019-12-10T12:02:26Z</time>
      </trkpt>
      <trkpt lat="43.5353" lon="6.74864">
        <ele>280.4</ele>
        <time>2019-12-10T12:02:28Z</time>
      </trkpt>
      <trkpt lat="43.53526" lon="6.74862">
        <ele>281.3</ele>
        <time>2019-12-10T12:02:30Z</time>
      </trkpt>
      <trkpt lat="43.53522" lon="6.74859">
        <ele>281.8</ele>
        <time>2019-12-10T12:02:32Z</time>
      </trkpt>
      <trkpt lat="43.53518" lon="6.74857">
        <ele>282.3</ele>
        <time>2019-12-10T12:02:34Z</time>
      </trkpt>
      <trkpt lat="43.53514" lon="6.74854">
        <ele>282.3</ele>
        <time>2019-12-10T12:02:36Z</time>
      </trkpt>
      <trkpt lat="43.5351" lon="6.74849">
        <ele>282.3</ele>
        <time>2019-12-10T12:02:38Z</time>
      </trkpt>
      <trkpt lat="43.53506" lon="6.74845">
        <ele>282.8</ele>
        <time>2019-12-10T12:02:40Z</time>
      </trkpt>
      <trkpt lat="43.53502" lon="6.74843">
        <ele>282.8</ele>
        <time>2019-12-10T12:02:42Z</time>
      </trkpt>
      <trkpt lat="43.53498" lon="6.7484">
        <ele>283.2</ele>
        <time>2019-12-10T12:02:44Z</time>
      </trkpt>
      <trkpt lat="43.53493" lon="6.74839">
        <ele>283.7</ele>
        <time>2019-12-10T12:02:46Z</time>
      </trkpt>
      <trkpt lat="43.53489" lon="6.74838">
        <ele>283.7</ele>
        <time>2019-12-10T12:02:48Z</time>
      </trkpt>
      <trkpt lat="43.53485" lon="6.74838">
        <ele>283.7</ele>
        <time>2019-12-10T12:02:50Z</time>
      </trkpt>
      <trkpt lat="43.5348" lon="6.74837">
        <ele>284.2</ele>
        <time>2019-12-10T12:02:52Z</time>
      </trkpt>
      <trkpt lat="43.53476" lon="6.74836">
        <ele>284.2</ele>
        <time>2019-12-10T12:02:54Z</time>
      </trkpt>
      <trkpt lat="43.53471" lon="6.74836">
        <ele>284.7</ele>
        <time>2019-12-10T12:02:56Z</time>
      </trkpt>
      <trkpt lat="43.53467" lon="6.74835">
        <ele>284.7</ele>
        <time>2019-12-10T12:02:58Z</time>
      </trkpt>
      <trkpt lat="43.53462" lon="6.74833">
        <ele>285.2</ele>
        <time>2019-12-10T12:03:00Z</time>
      </trkpt>
      <trkpt lat="43.53458" lon="6.74832">
        <ele>285.2</ele>
        <time>2019-12-10T12:03:02Z</time>
      </trkpt>
      <trkpt lat="43.53453" lon="6.7483">
        <ele>285.2</ele>
        <time>2019-12-10T12:03:04Z</time>
      </trkpt>
      <trkpt lat="43.5345" lon="6.74825">
        <ele>285.2</ele>
        <time>2019-12-10T12:03:06Z</time>
      </trkpt>
      <trkpt lat="43.53449" lon="6.7482">
        <ele>285.2</ele>
        <time>2019-12-10T12:03:08Z</time>
      </trkpt>
      <trkpt lat="43.5345" lon="6.74816">
        <ele>285.2</ele>
        <time>2019-12-10T12:03:10Z</time>
      </trkpt>
      <trkpt lat="43.5345" lon="6.7481">
        <ele>285.2</ele>
        <time>2019-12-10T12:03:12Z</time>
      </trkpt>
      <trkpt lat="43.53452" lon="6.74804">
        <ele>285.2</ele>
        <time>2019-12-10T12:03:14Z</time>
      </trkpt>
      <trkpt lat="43.53453" lon="6.74797">
        <ele>284.7</ele>
        <time>2019-12-10T12:03:16Z</time>
      </trkpt>
      <trkpt lat="43.53452" lon="6.74791">
        <ele>284.7</ele>
        <time>2019-12-10T12:03:18Z</time>
      </trkpt>
      <trkpt lat="43.5345" lon="6.74784">
        <ele>284.2</ele>
        <time>2019-12-10T12:03:20Z</time>
      </trkpt>
      <trkpt lat="43.53448" lon="6.74777">
        <ele>284.2</ele>
        <time>2019-12-10T12:03:22Z</time>
      </trkpt>
      <trkpt lat="43.53444" lon="6.7477">
        <ele>283.2</ele>
        <time>2019-12-10T12:03:24Z</time>
      </trkpt>
      <trkpt lat="43.53437" lon="6.74767">
        <ele>282.8</ele>
        <time>2019-12-10T12:03:26Z</time>
      </trkpt>
      <trkpt lat="43.53428" lon="6.74768">
        <ele>281.8</ele>
        <time>2019-12-10T12:03:28Z</time>
      </trkpt>
      <trkpt lat="43.5342" lon="6.7477">
        <ele>281.3</ele>
        <time>2019-12-10T12:03:30Z</time>
      </trkpt>
      <trkpt lat="43.53413" lon="6.74772">
        <ele>281.3</ele>
        <time>2019-12-10T12:03:32Z</time>
      </trkpt>
      <trkpt lat="43.53407" lon="6.74776">
        <ele>280.4</ele>
        <time>2019-12-10T12:03:34Z</time>
      </trkpt>
      <trkpt lat="43.53399" lon="6.74781">
        <ele>279.4</ele>
        <time>2019-12-10T12:03:36Z</time>
      </trkpt>
      <trkpt lat="43.5339" lon="6.74784">
        <ele>278.4</ele>
        <time>2019-12-10T12:03:38Z</time>
      </trkpt>
      <trkpt lat="43.5338" lon="6.74785">
        <ele>278</ele>
        <time>2019-12-10T12:03:40Z</time>
      </trkpt>
      <trkpt lat="43.53371" lon="6.7479">
        <ele>278</ele>
        <time>2019-12-10T12:03:42Z</time>
      </trkpt>
      <trkpt lat="43.53363" lon="6.74795">
        <ele>278</ele>
        <time>2019-12-10T12:03:44Z</time>
      </trkpt>
      <trkpt lat="43.53356" lon="6.748">
        <ele>278</ele>
        <time>2019-12-10T12:03:46Z</time>
      </trkpt>
      <trkpt lat="43.53349" lon="6.74806">
        <ele>277.5</ele>
        <time>2019-12-10T12:03:48Z</time>
      </trkpt>
      <trkpt lat="43.53343" lon="6.7481">
        <ele>277.5</ele>
        <time>2019-12-10T12:03:50Z</time>
      </trkpt>
      <trkpt lat="43.53335" lon="6.74813">
        <ele>277</ele>
        <time>2019-12-10T12:03:52Z</time>
      </trkpt>
      <trkpt lat="43.53328" lon="6.74813">
        <ele>276</ele>
        <time>2019-12-10T12:03:54Z</time>
      </trkpt>
      <trkpt lat="43.53318" lon="6.74812">
        <ele>275.6</ele>
        <time>2019-12-10T12:03:56Z</time>
      </trkpt>
      <trkpt lat="43.53307" lon="6.7481">
        <ele>273.6</ele>
        <time>2019-12-10T12:03:58Z</time>
      </trkpt>
      <trkpt lat="43.53296" lon="6.74811">
        <ele>272.2</ele>
        <time>2019-12-10T12:04:00Z</time>
      </trkpt>
      <trkpt lat="43.53286" lon="6.74807">
        <ele>271.2</ele>
        <time>2019-12-10T12:04:02Z</time>
      </trkpt>
      <trkpt lat="43.53274" lon="6.74803">
        <ele>270.3</ele>
        <time>2019-12-10T12:04:04Z</time>
      </trkpt>
      <trkpt lat="43.53262" lon="6.74796">
        <ele>269.8</ele>
        <time>2019-12-10T12:04:06Z</time>
      </trkpt>
      <trkpt lat="43.5325" lon="6.7479">
        <ele>268.8</ele>
        <time>2019-12-10T12:04:08Z</time>
      </trkpt>
      <trkpt lat="43.5324" lon="6.74785">
        <ele>268.3</ele>
        <time>2019-12-10T12:04:10Z</time>
      </trkpt>
      <trkpt lat="43.5323" lon="6.7478">
        <ele>268.3</ele>
        <time>2019-12-10T12:04:12Z</time>
      </trkpt>
      <trkpt lat="43.53221" lon="6.74777">
        <ele>268.3</ele>
        <time>2019-12-10T12:04:14Z</time>
      </trkpt>
      <trkpt lat="43.53214" lon="6.74773">
        <ele>268.3</ele>
        <time>2019-12-10T12:04:16Z</time>
      </trkpt>
      <trkpt lat="43.53209" lon="6.74769">
        <ele>268.8</ele>
        <time>2019-12-10T12:04:18Z</time>
      </trkpt>
      <trkpt lat="43.53204" lon="6.74766">
        <ele>268.8</ele>
        <time>2019-12-10T12:04:20Z</time>
      </trkpt>
      <trkpt lat="43.532" lon="6.74762">
        <ele>269.3</ele>
        <time>2019-12-10T12:04:22Z</time>
      </trkpt>
      <trkpt lat="43.53195" lon="6.74758">
        <ele>269.3</ele>
        <time>2019-12-10T12:04:24Z</time>
      </trkpt>
      <trkpt lat="43.5319" lon="6.74755">
        <ele>269.8</ele>
        <time>2019-12-10T12:04:26Z</time>
      </trkpt>
      <trkpt lat="43.53186" lon="6.74752">
        <ele>270.3</ele>
        <time>2019-12-10T12:04:28Z</time>
      </trkpt>
      <trkpt lat="43.53181" lon="6.74749">
        <ele>270.7</ele>
        <time>2019-12-10T12:04:30Z</time>
      </trkpt>
      <trkpt lat="43.53177" lon="6.74747">
        <ele>270.7</ele>
        <time>2019-12-10T12:04:32Z</time>
      </trkpt>
      <trkpt lat="43.53172" lon="6.74745">
        <ele>271.2</ele>
        <time>2019-12-10T12:04:34Z</time>
      </trkpt>
      <trkpt lat="43.53166" lon="6.74744">
        <ele>271.7</ele>
        <time>2019-12-10T12:04:36Z</time>
      </trkpt>
      <trkpt lat="43.53162" lon="6.74743">
        <ele>272.2</ele>
        <time>2019-12-10T12:04:38Z</time>
      </trkpt>
      <trkpt lat="43.53157" lon="6.74741">
        <ele>272.2</ele>
        <time>2019-12-10T12:04:40Z</time>
      </trkpt>
      <trkpt lat="43.53153" lon="6.74739">
        <ele>272.7</ele>
        <time>2019-12-10T12:04:42Z</time>
      </trkpt>
      <trkpt lat="43.5315" lon="6.74737">
        <ele>272.7</ele>
        <time>2019-12-10T12:04:44Z</time>
      </trkpt>
      <trkpt lat="43.53146" lon="6.74733">
        <ele>272.7</ele>
        <time>2019-12-10T12:04:46Z</time>
      </trkpt>
      <trkpt lat="43.53143" lon="6.74728">
        <ele>272.7</ele>
        <time>2019-12-10T12:04:48Z</time>
      </trkpt>
      <trkpt lat="43.53139" lon="6.74724">
        <ele>273.2</ele>
        <time>2019-12-10T12:04:50Z</time>
      </trkpt>
      <trkpt lat="43.53135" lon="6.7472">
        <ele>273.2</ele>
        <time>2019-12-10T12:04:52Z</time>
      </trkpt>
      <trkpt lat="43.53132" lon="6.74716">
        <ele>273.2</ele>
        <time>2019-12-10T12:04:54Z</time>
      </trkpt>
      <trkpt lat="43.53129" lon="6.74712">
        <ele>273.6</ele>
        <time>2019-12-10T12:04:56Z</time>
      </trkpt>
      <trkpt lat="43.53125" lon="6.74708">
        <ele>273.6</ele>
        <time>2019-12-10T12:04:58Z</time>
      </trkpt>
      <trkpt lat="43.53121" lon="6.74704">
        <ele>273.6</ele>
        <time>2019-12-10T12:05:00Z</time>
      </trkpt>
      <trkpt lat="43.53118" lon="6.747">
        <ele>273.6</ele>
        <time>2019-12-10T12:05:02Z</time>
      </trkpt>
      <trkpt lat="43.53114" lon="6.74696">
        <ele>274.6</ele>
        <time>2019-12-10T12:05:04Z</time>
      </trkpt>
      <trkpt lat="43.53111" lon="6.74691">
        <ele>275.1</ele>
        <time>2019-12-10T12:05:06Z</time>
      </trkpt>
      <trkpt lat="43.5311" lon="6.74687">
        <ele>275.1</ele>
        <time>2019-12-10T12:05:08Z</time>
      </trkpt>
      <trkpt lat="43.5311" lon="6.74687">
        <ele>275.1</ele>
        <time>2019-12-10T12:05:10Z</time>
      </trkpt>
      <trkpt lat="43.5311" lon="6.74687">
        <ele>274.6</ele>
        <time>2019-12-10T12:05:12Z</time>
      </trkpt>
      <trkpt lat="43.53109" lon="6.74687">
        <ele>274.1</ele>
        <time>2019-12-10T12:05:14Z</time>
      </trkpt>
      <trkpt lat="43.53109" lon="6.74687">
        <ele>274.1</ele>
        <time>2019-12-10T12:05:16Z</time>
      </trkpt>
      <trkpt lat="43.53109" lon="6.74687">
        <ele>274.1</ele>
        <time>2019-12-10T12:05:18Z</time>
      </trkpt>
      <trkpt lat="43.53109" lon="6.74687">
        <ele>274.1</ele>
        <time>2019-12-10T12:05:20Z</time>
      </trkpt>
      <trkpt lat="43.53109" lon="6.74687">
        <ele>274.1</ele>
        <time>2019-12-10T12:05:22Z</time>
      </trkpt>
      <trkpt lat="43.53109" lon="6.74687">
        <ele>274.1</ele>
        <time>2019-12-10T12:05:24Z</time>
      </trkpt>
      <trkpt lat="43.53109" lon="6.74687">
        <ele>274.1</ele>
        <time>2019-12-10T12:05:26Z</time>
      </trkpt>
      <trkpt lat="43.53109" lon="6.74687">
        <ele>274.1</ele>
        <time>2019-12-10T12:05:28Z</time>
      </trkpt>
      <trkpt lat="43.53109" lon="6.74687">
        <ele>274.1</ele>
        <time>2019-12-10T12:05:30Z</time>
      </trkpt>
      <trkpt lat="43.53109" lon="6.74687">
        <ele>274.1</ele>
        <time>2019-12-10T12:05:32Z</time>
      </trkpt>
      <trkpt lat="43.53109" lon="6.74687">
        <ele>274.1</ele>
        <time>2019-12-10T12:05:34Z</time>
      </trkpt>
      <trkpt lat="43.53109" lon="6.74687">
        <ele>274.1</ele>
        <time>2019-12-10T12:05:36Z</time>
      </trkpt>
      <trkpt lat="43.53109" lon="6.74687">
        <ele>274.1</ele>
        <time>2019-12-10T12:05:38Z</time>
      </trkpt>
      <trkpt lat="43.53109" lon="6.74687">
        <ele>274.1</ele>
        <time>2019-12-10T12:05:40Z</time>
      </trkpt>
      <trkpt lat="43.53109" lon="6.74687">
        <ele>274.1</ele>
        <time>2019-12-10T12:05:42Z</time>
      </trkpt>
      <trkpt lat="43.53109" lon="6.74687">
        <ele>274.1</ele>
        <time>2019-12-10T12:05:44Z</time>
      </trkpt>
      <trkpt lat="43.53109" lon="6.74687">
        <ele>274.1</ele>
        <time>2019-12-10T12:05:46Z</time>
      </trkpt>
      <trkpt lat="43.53109" lon="6.74687">
        <ele>274.1</ele>
        <time>2019-12-10T12:05:48Z</time>
      </trkpt>
      <trkpt lat="43.53109" lon="6.74687">
        <ele>274.1</ele>
        <time>2019-12-10T12:05:50Z</time>
      </trkpt>
      <trkpt lat="43.53109" lon="6.74687">
        <ele>274.1</ele>
        <time>2019-12-10T12:05:52Z</time>
      </trkpt>
      <trkpt lat="43.53109" lon="6.74687">
        <ele>274.1</ele>
        <time>2019-12-10T12:05:54Z</time>
      </trkpt>
      <trkpt lat="43.53109" lon="6.74687">
        <ele>274.1</ele>
        <time>2019-12-10T12:05:56Z</time>
      </trkpt>
      <trkpt lat="43.53109" lon="6.74687">
        <ele>274.1</ele>
        <time>2019-12-10T12:05:58Z</time>
      </trkpt>
      <trkpt lat="43.53109" lon="6.74687">
        <ele>274.1</ele>
        <time>2019-12-10T12:06:00Z</time>
      </trkpt>
      <trkpt lat="43.53109" lon="6.74687">
        <ele>274.1</ele>
        <time>2019-12-10T12:06:02Z</time>
      </trkpt>
      <trkpt lat="43.53109" lon="6.74688">
        <ele>274.1</ele>
        <time>2019-12-10T12:06:04Z</time>
      </trkpt>
      <trkpt lat="43.53109" lon="6.74688">
        <ele>274.1</ele>
        <time>2019-12-10T12:06:06Z</time>
      </trkpt>
      <trkpt lat="43.53109" lon="6.74688">
        <ele>274.1</ele>
        <time>2019-12-10T12:06:08Z</time>
      </trkpt>
      <trkpt lat="43.53109" lon="6.74688">
        <ele>274.1</ele>
        <time>2019-12-10T12:06:10Z</time>
      </trkpt>
      <trkpt lat="43.53109" lon="6.74688">
        <ele>274.1</ele>
        <time>2019-12-10T12:06:12Z</time>
      </trkpt>
      <trkpt lat="43.53109" lon="6.74688">
        <ele>274.1</ele>
        <time>2019-12-10T12:06:14Z</time>
      </trkpt>
      <trkpt lat="43.53109" lon="6.74688">
        <ele>274.1</ele>
        <time>2019-12-10T12:06:16Z</time>
      </trkpt>
      <trkpt lat="43.5311" lon="6.74688">
        <ele>274.1</ele>
        <time>2019-12-10T12:06:18Z</time>
      </trkpt>
      <trkpt lat="43.5311" lon="6.74688">
        <ele>274.1</ele>
        <time>2019-12-10T12:06:20Z</time>
      </trkpt>
      <trkpt lat="43.53109" lon="6.74687">
        <ele>274.1</ele>
        <time>2019-12-10T12:06:22Z</time>
      </trkpt>
      <trkpt lat="43.53109" lon="6.74687">
        <ele>274.1</ele>
        <time>2019-12-10T12:06:24Z</time>
      </trkpt>
      <trkpt lat="43.53109" lon="6.74687">
        <ele>274.1</ele>
        <time>2019-12-10T12:06:26Z</time>
      </trkpt>
      <trkpt lat="43.53108" lon="6.74684">
        <ele>274.1</ele>
        <time>2019-12-10T12:06:28Z</time>
      </trkpt>
      <trkpt lat="43.53107" lon="6.74681">
        <ele>274.1</ele>
        <time>2019-12-10T12:06:30Z</time>
      </trkpt>
      <trkpt lat="43.53107" lon="6.74677">
        <ele>274.6</ele>
        <time>2019-12-10T12:06:32Z</time>
      </trkpt>
      <trkpt lat="43.53107" lon="6.74673">
        <ele>275.1</ele>
        <time>2019-12-10T12:06:34Z</time>
      </trkpt>
      <trkpt lat="43.53109" lon="6.74669">
        <ele>275.1</ele>
        <time>2019-12-10T12:06:36Z</time>
      </trkpt>
      <trkpt lat="43.53109" lon="6.74665">
        <ele>275.6</ele>
        <time>2019-12-10T12:06:38Z</time>
      </trkpt>
      <trkpt lat="43.5311" lon="6.7466">
        <ele>276</ele>
        <time>2019-12-10T12:06:40Z</time>
      </trkpt>
      <trkpt lat="43.53112" lon="6.74655">
        <ele>276.5</ele>
        <time>2019-12-10T12:06:42Z</time>
      </trkpt>
      <trkpt lat="43.53112" lon="6.74651">
        <ele>277.5</ele>
        <time>2019-12-10T12:06:44Z</time>
      </trkpt>
      <trkpt lat="43.53113" lon="6.74646">
        <ele>278</ele>
        <time>2019-12-10T12:06:46Z</time>
      </trkpt>
      <trkpt lat="43.53113" lon="6.74642">
        <ele>278</ele>
        <time>2019-12-10T12:06:48Z</time>
      </trkpt>
      <trkpt lat="43.53113" lon="6.74638">
        <ele>278</ele>
        <time>2019-12-10T12:06:50Z</time>
      </trkpt>
      <trkpt lat="43.5311" lon="6.74634">
        <ele>278.4</ele>
        <time>2019-12-10T12:06:52Z</time>
      </trkpt>
      <trkpt lat="43.53108" lon="6.74632">
        <ele>278.9</ele>
        <time>2019-12-10T12:06:54Z</time>
      </trkpt>
      <trkpt lat="43.53105" lon="6.74631">
        <ele>279.4</ele>
        <time>2019-12-10T12:06:56Z</time>
      </trkpt>
      <trkpt lat="43.53102" lon="6.74633">
        <ele>279.9</ele>
        <time>2019-12-10T12:06:58Z</time>
      </trkpt>
      <trkpt lat="43.53099" lon="6.74637">
        <ele>280.4</ele>
        <time>2019-12-10T12:07:00Z</time>
      </trkpt>
      <trkpt lat="43.53098" lon="6.74641">
        <ele>280.4</ele>
        <time>2019-12-10T12:07:02Z</time>
      </trkpt>
      <trkpt lat="43.53096" lon="6.74645">
        <ele>281.3</ele>
        <time>2019-12-10T12:07:04Z</time>
      </trkpt>
      <trkpt lat="43.53095" lon="6.74649">
        <ele>281.3</ele>
        <time>2019-12-10T12:07:06Z</time>
      </trkpt>
      <trkpt lat="43.53093" lon="6.74653">
        <ele>281.8</ele>
        <time>2019-12-10T12:07:08Z</time>
      </trkpt>
      <trkpt lat="43.5309" lon="6.74656">
        <ele>282.3</ele>
        <time>2019-12-10T12:07:10Z</time>
      </trkpt>
      <trkpt lat="43.53088" lon="6.74659">
        <ele>282.3</ele>
        <time>2019-12-10T12:07:12Z</time>
      </trkpt>
      <trkpt lat="43.53085" lon="6.74661">
        <ele>282.8</ele>
        <time>2019-12-10T12:07:14Z</time>
      </trkpt>
      <trkpt lat="43.53081" lon="6.74662">
        <ele>282.8</ele>
        <time>2019-12-10T12:07:16Z</time>
      </trkpt>
      <trkpt lat="43.53078" lon="6.74664">
        <ele>283.2</ele>
        <time>2019-12-10T12:07:18Z</time>
      </trkpt>
      <trkpt lat="43.53075" lon="6.74666">
        <ele>283.2</ele>
        <time>2019-12-10T12:07:20Z</time>
      </trkpt>
      <trkpt lat="43.53072" lon="6.74669">
        <ele>283.7</ele>
        <time>2019-12-10T12:07:22Z</time>
      </trkpt>
      <trkpt lat="43.53068" lon="6.74672">
        <ele>284.2</ele>
        <time>2019-12-10T12:07:24Z</time>
      </trkpt>
      <trkpt lat="43.53065" lon="6.74674">
        <ele>284.7</ele>
        <time>2019-12-10T12:07:26Z</time>
      </trkpt>
      <trkpt lat="43.53062" lon="6.74677">
        <ele>285.2</ele>
        <time>2019-12-10T12:07:28Z</time>
      </trkpt>
      <trkpt lat="43.53059" lon="6.7468">
        <ele>285.2</ele>
        <time>2019-12-10T12:07:30Z</time>
      </trkpt>
      <trkpt lat="43.53056" lon="6.74682">
        <ele>285.6</ele>
        <time>2019-12-10T12:07:32Z</time>
      </trkpt>
      <trkpt lat="43.53052" lon="6.74685">
        <ele>286.1</ele>
        <time>2019-12-10T12:07:34Z</time>
      </trkpt>
      <trkpt lat="43.53049" lon="6.74686">
        <ele>286.1</ele>
        <time>2019-12-10T12:07:36Z</time>
      </trkpt>
      <trkpt lat="43.53046" lon="6.74687">
        <ele>286.6</ele>
        <time>2019-12-10T12:07:38Z</time>
      </trkpt>
      <trkpt lat="43.53043" lon="6.74687">
        <ele>286.6</ele>
        <time>2019-12-10T12:07:40Z</time>
      </trkpt>
      <trkpt lat="43.5304" lon="6.74686">
        <ele>287.1</ele>
        <time>2019-12-10T12:07:42Z</time>
      </trkpt>
      <trkpt lat="43.53037" lon="6.74685">
        <ele>287.1</ele>
        <time>2019-12-10T12:07:44Z</time>
      </trkpt>
      <trkpt lat="43.53033" lon="6.74684">
        <ele>287.1</ele>
        <time>2019-12-10T12:07:46Z</time>
      </trkpt>
      <trkpt lat="43.5303" lon="6.74683">
        <ele>287.6</ele>
        <time>2019-12-10T12:07:48Z</time>
      </trkpt>
      <trkpt lat="43.53028" lon="6.74681">
        <ele>287.6</ele>
        <time>2019-12-10T12:07:50Z</time>
      </trkpt>
      <trkpt lat="43.53025" lon="6.74679">
        <ele>288.1</ele>
        <time>2019-12-10T12:07:52Z</time>
      </trkpt>
      <trkpt lat="43.53022" lon="6.74676">
        <ele>288.1</ele>
        <time>2019-12-10T12:07:54Z</time>
      </trkpt>
      <trkpt lat="43.5302" lon="6.74673">
        <ele>288.1</ele>
        <time>2019-12-10T12:07:56Z</time>
      </trkpt>
      <trkpt lat="43.53018" lon="6.7467">
        <ele>288.5</ele>
        <time>2019-12-10T12:07:58Z</time>
      </trkpt>
      <trkpt lat="43.53016" lon="6.74666">
        <ele>288.5</ele>
        <time>2019-12-10T12:08:00Z</time>
      </trkpt>
      <trkpt lat="43.53014" lon="6.74662">
        <ele>288.5</ele>
        <time>2019-12-10T12:08:02Z</time>
      </trkpt>
      <trkpt lat="43.53013" lon="6.74658">
        <ele>288.5</ele>
        <time>2019-12-10T12:08:04Z</time>
      </trkpt>
      <trkpt lat="43.53012" lon="6.74654">
        <ele>288.5</ele>
        <time>2019-12-10T12:08:06Z</time>
      </trkpt>
      <trkpt lat="43.53011" lon="6.74649">
        <ele>289</ele>
        <time>2019-12-10T12:08:08Z</time>
      </trkpt>
      <trkpt lat="43.5301" lon="6.74644">
        <ele>289</ele>
        <time>2019-12-10T12:08:10Z</time>
      </trkpt>
      <trkpt lat="43.53008" lon="6.7464">
        <ele>289.5</ele>
        <time>2019-12-10T12:08:12Z</time>
      </trkpt>
      <trkpt lat="43.53007" lon="6.74636">
        <ele>289.5</ele>
        <time>2019-12-10T12:08:14Z</time>
      </trkpt>
      <trkpt lat="43.53006" lon="6.74632">
        <ele>290</ele>
        <time>2019-12-10T12:08:16Z</time>
      </trkpt>
      <trkpt lat="43.53004" lon="6.74628">
        <ele>289.5</ele>
        <time>2019-12-10T12:08:18Z</time>
      </trkpt>
      <trkpt lat="43.53002" lon="6.74625">
        <ele>289.5</ele>
        <time>2019-12-10T12:08:20Z</time>
      </trkpt>
      <trkpt lat="43.52999" lon="6.74623">
        <ele>289.5</ele>
        <time>2019-12-10T12:08:22Z</time>
      </trkpt>
      <trkpt lat="43.52996" lon="6.74622">
        <ele>289.5</ele>
        <time>2019-12-10T12:08:24Z</time>
      </trkpt>
      <trkpt lat="43.52993" lon="6.74621">
        <ele>290</ele>
        <time>2019-12-10T12:08:26Z</time>
      </trkpt>
      <trkpt lat="43.5299" lon="6.7462">
        <ele>290.5</ele>
        <time>2019-12-10T12:08:28Z</time>
      </trkpt>
      <trkpt lat="43.52987" lon="6.74618">
        <ele>291.4</ele>
        <time>2019-12-10T12:08:30Z</time>
      </trkpt>
      <trkpt lat="43.52986" lon="6.74619">
        <ele>291.4</ele>
        <time>2019-12-10T12:08:32Z</time>
      </trkpt>
      <trkpt lat="43.52986" lon="6.74619">
        <ele>291.4</ele>
        <time>2019-12-10T12:08:34Z</time>
      </trkpt>
      <trkpt lat="43.52985" lon="6.74619">
        <ele>291.9</ele>
        <time>2019-12-10T12:08:36Z</time>
      </trkpt>
      <trkpt lat="43.52984" lon="6.74619">
        <ele>292.4</ele>
        <time>2019-12-10T12:08:38Z</time>
      </trkpt>
      <trkpt lat="43.52983" lon="6.74619">
        <ele>292.4</ele>
        <time>2019-12-10T12:08:40Z</time>
      </trkpt>
      <trkpt lat="43.52982" lon="6.74618">
        <ele>292.9</ele>
        <time>2019-12-10T12:08:42Z</time>
      </trkpt>
      <trkpt lat="43.5298" lon="6.74618">
        <ele>292.9</ele>
        <time>2019-12-10T12:08:44Z</time>
      </trkpt>
      <trkpt lat="43.5298" lon="6.74618">
        <ele>292.9</ele>
        <time>2019-12-10T12:08:46Z</time>
      </trkpt>
      <trkpt lat="43.52978" lon="6.74619">
        <ele>293.3</ele>
        <time>2019-12-10T12:08:48Z</time>
      </trkpt>
      <trkpt lat="43.52977" lon="6.74619">
        <ele>293.3</ele>
        <time>2019-12-10T12:08:50Z</time>
      </trkpt>
      <trkpt lat="43.52974" lon="6.74619">
        <ele>293.3</ele>
        <time>2019-12-10T12:08:52Z</time>
      </trkpt>
      <trkpt lat="43.5297" lon="6.74619">
        <ele>293.3</ele>
        <time>2019-12-10T12:08:54Z</time>
      </trkpt>
      <trkpt lat="43.52966" lon="6.74619">
        <ele>292.9</ele>
        <time>2019-12-10T12:08:56Z</time>
      </trkpt>
      <trkpt lat="43.52963" lon="6.7462">
        <ele>292.9</ele>
        <time>2019-12-10T12:08:58Z</time>
      </trkpt>
      <trkpt lat="43.52959" lon="6.7462">
        <ele>293.3</ele>
        <time>2019-12-10T12:09:00Z</time>
      </trkpt>
      <trkpt lat="43.52956" lon="6.74622">
        <ele>293.8</ele>
        <time>2019-12-10T12:09:02Z</time>
      </trkpt>
      <trkpt lat="43.52953" lon="6.74624">
        <ele>293.8</ele>
        <time>2019-12-10T12:09:04Z</time>
      </trkpt>
      <trkpt lat="43.5295" lon="6.74627">
        <ele>294.3</ele>
        <time>2019-12-10T12:09:06Z</time>
      </trkpt>
      <trkpt lat="43.52947" lon="6.74629">
        <ele>294.3</ele>
        <time>2019-12-10T12:09:08Z</time>
      </trkpt>
      <trkpt lat="43.52944" lon="6.74632">
        <ele>294.8</ele>
        <time>2019-12-10T12:09:10Z</time>
      </trkpt>
      <trkpt lat="43.52941" lon="6.74634">
        <ele>294.8</ele>
        <time>2019-12-10T12:09:12Z</time>
      </trkpt>
      <trkpt lat="43.52939" lon="6.74637">
        <ele>295.3</ele>
        <time>2019-12-10T12:09:14Z</time>
      </trkpt>
      <trkpt lat="43.52937" lon="6.7464">
        <ele>294.8</ele>
        <time>2019-12-10T12:09:16Z</time>
      </trkpt>
      <trkpt lat="43.52935" lon="6.74642">
        <ele>295.3</ele>
        <time>2019-12-10T12:09:18Z</time>
      </trkpt>
      <trkpt lat="43.52933" lon="6.74645">
        <ele>295.7</ele>
        <time>2019-12-10T12:09:20Z</time>
      </trkpt>
      <trkpt lat="43.52932" lon="6.7465">
        <ele>295.7</ele>
        <time>2019-12-10T12:09:22Z</time>
      </trkpt>
      <trkpt lat="43.5293" lon="6.74653">
        <ele>295.7</ele>
        <time>2019-12-10T12:09:24Z</time>
      </trkpt>
      <trkpt lat="43.52928" lon="6.74658">
        <ele>296.2</ele>
        <time>2019-12-10T12:09:26Z</time>
      </trkpt>
      <trkpt lat="43.52927" lon="6.74661">
        <ele>296.2</ele>
        <time>2019-12-10T12:09:28Z</time>
      </trkpt>
      <trkpt lat="43.52927" lon="6.74665">
        <ele>296.7</ele>
        <time>2019-12-10T12:09:30Z</time>
      </trkpt>
      <trkpt lat="43.52925" lon="6.7467">
        <ele>297.7</ele>
        <time>2019-12-10T12:09:32Z</time>
      </trkpt>
      <trkpt lat="43.52924" lon="6.74674">
        <ele>297.7</ele>
        <time>2019-12-10T12:09:34Z</time>
      </trkpt>
      <trkpt lat="43.52922" lon="6.74678">
        <ele>298.1</ele>
        <time>2019-12-10T12:09:36Z</time>
      </trkpt>
      <trkpt lat="43.5292" lon="6.74682">
        <ele>298.1</ele>
        <time>2019-12-10T12:09:38Z</time>
      </trkpt>
      <trkpt lat="43.52919" lon="6.74687">
        <ele>298.6</ele>
        <time>2019-12-10T12:09:40Z</time>
      </trkpt>
      <trkpt lat="43.52918" lon="6.74691">
        <ele>298.6</ele>
        <time>2019-12-10T12:09:42Z</time>
      </trkpt>
      <trkpt lat="43.52916" lon="6.74695">
        <ele>299.6</ele>
        <time>2019-12-10T12:09:44Z</time>
      </trkpt>
      <trkpt lat="43.52914" lon="6.74699">
        <ele>300.1</ele>
        <time>2019-12-10T12:09:46Z</time>
      </trkpt>
      <trkpt lat="43.52912" lon="6.74703">
        <ele>300.5</ele>
        <time>2019-12-10T12:09:48Z</time>
      </trkpt>
      <trkpt lat="43.52909" lon="6.74707">
        <ele>300.5</ele>
        <time>2019-12-10T12:09:50Z</time>
      </trkpt>
      <trkpt lat="43.52907" lon="6.7471">
        <ele>300.5</ele>
        <time>2019-12-10T12:09:52Z</time>
      </trkpt>
      <trkpt lat="43.52903" lon="6.74714">
        <ele>301</ele>
        <time>2019-12-10T12:09:54Z</time>
      </trkpt>
      <trkpt lat="43.529" lon="6.74716">
        <ele>301</ele>
        <time>2019-12-10T12:09:56Z</time>
      </trkpt>
      <trkpt lat="43.52896" lon="6.7472">
        <ele>301</ele>
        <time>2019-12-10T12:09:58Z</time>
      </trkpt>
      <trkpt lat="43.52893" lon="6.74722">
        <ele>301</ele>
        <time>2019-12-10T12:10:00Z</time>
      </trkpt>
      <trkpt lat="43.5289" lon="6.74723">
        <ele>301.5</ele>
        <time>2019-12-10T12:10:02Z</time>
      </trkpt>
      <trkpt lat="43.52886" lon="6.74725">
        <ele>302.5</ele>
        <time>2019-12-10T12:10:04Z</time>
      </trkpt>
      <trkpt lat="43.52882" lon="6.74723">
        <ele>301.5</ele>
        <time>2019-12-10T12:10:06Z</time>
      </trkpt>
      <trkpt lat="43.52879" lon="6.74722">
        <ele>302</ele>
        <time>2019-12-10T12:10:08Z</time>
      </trkpt>
      <trkpt lat="43.52876" lon="6.74719">
        <ele>302</ele>
        <time>2019-12-10T12:10:10Z</time>
      </trkpt>
      <trkpt lat="43.52873" lon="6.74716">
        <ele>302</ele>
        <time>2019-12-10T12:10:12Z</time>
      </trkpt>
      <trkpt lat="43.5287" lon="6.74713">
        <ele>302.5</ele>
        <time>2019-12-10T12:10:14Z</time>
      </trkpt>
      <trkpt lat="43.52867" lon="6.7471">
        <ele>302.5</ele>
        <time>2019-12-10T12:10:16Z</time>
      </trkpt>
      <trkpt lat="43.52864" lon="6.74707">
        <ele>302.5</ele>
        <time>2019-12-10T12:10:18Z</time>
      </trkpt>
      <trkpt lat="43.52861" lon="6.74704">
        <ele>303</ele>
        <time>2019-12-10T12:10:20Z</time>
      </trkpt>
      <trkpt lat="43.52858" lon="6.74702">
        <ele>303</ele>
        <time>2019-12-10T12:10:22Z</time>
      </trkpt>
      <trkpt lat="43.52855" lon="6.747">
        <ele>303</ele>
        <time>2019-12-10T12:10:24Z</time>
      </trkpt>
      <trkpt lat="43.52851" lon="6.74699">
        <ele>303.4</ele>
        <time>2019-12-10T12:10:26Z</time>
      </trkpt>
      <trkpt lat="43.52849" lon="6.74698">
        <ele>303.4</ele>
        <time>2019-12-10T12:10:28Z</time>
      </trkpt>
      <trkpt lat="43.52847" lon="6.74697">
        <ele>303.4</ele>
        <time>2019-12-10T12:10:30Z</time>
      </trkpt>
      <trkpt lat="43.52845" lon="6.74696">
        <ele>303</ele>
        <time>2019-12-10T12:10:32Z</time>
      </trkpt>
      <trkpt lat="43.52842" lon="6.74696">
        <ele>303</ele>
        <time>2019-12-10T12:10:34Z</time>
      </trkpt>
      <trkpt lat="43.5284" lon="6.74697">
        <ele>302.5</ele>
        <time>2019-12-10T12:10:36Z</time>
      </trkpt>
      <trkpt lat="43.52836" lon="6.74698">
        <ele>302.5</ele>
        <time>2019-12-10T12:10:38Z</time>
      </trkpt>
      <trkpt lat="43.52832" lon="6.74697">
        <ele>302.5</ele>
        <time>2019-12-10T12:10:40Z</time>
      </trkpt>
      <trkpt lat="43.52828" lon="6.74697">
        <ele>302.5</ele>
        <time>2019-12-10T12:10:42Z</time>
      </trkpt>
      <trkpt lat="43.52823" lon="6.74699">
        <ele>302</ele>
        <time>2019-12-10T12:10:44Z</time>
      </trkpt>
      <trkpt lat="43.52818" lon="6.74701">
        <ele>302</ele>
        <time>2019-12-10T12:10:46Z</time>
      </trkpt>
      <trkpt lat="43.52812" lon="6.74703">
        <ele>301</ele>
        <time>2019-12-10T12:10:48Z</time>
      </trkpt>
      <trkpt lat="43.52806" lon="6.74705">
        <ele>300.5</ele>
        <time>2019-12-10T12:10:50Z</time>
      </trkpt>
      <trkpt lat="43.52799" lon="6.74704">
        <ele>300.1</ele>
        <time>2019-12-10T12:10:52Z</time>
      </trkpt>
      <trkpt lat="43.52792" lon="6.74702">
        <ele>299.6</ele>
        <time>2019-12-10T12:10:54Z</time>
      </trkpt>
      <trkpt lat="43.52786" lon="6.74699">
        <ele>298.6</ele>
        <time>2019-12-10T12:10:56Z</time>
      </trkpt>
      <trkpt lat="43.5278" lon="6.74695">
        <ele>297.7</ele>
        <time>2019-12-10T12:10:58Z</time>
      </trkpt>
      <trkpt lat="43.52773" lon="6.74691">
        <ele>296.2</ele>
        <time>2019-12-10T12:11:00Z</time>
      </trkpt>
      <trkpt lat="43.52767" lon="6.74685">
        <ele>295.3</ele>
        <time>2019-12-10T12:11:02Z</time>
      </trkpt>
      <trkpt lat="43.52761" lon="6.74678">
        <ele>294.3</ele>
        <time>2019-12-10T12:11:04Z</time>
      </trkpt>
      <trkpt lat="43.52753" lon="6.7467">
        <ele>293.3</ele>
        <time>2019-12-10T12:11:06Z</time>
      </trkpt>
      <trkpt lat="43.52745" lon="6.74661">
        <ele>292.9</ele>
        <time>2019-12-10T12:11:08Z</time>
      </trkpt>
      <trkpt lat="43.52734" lon="6.74653">
        <ele>292.4</ele>
        <time>2019-12-10T12:11:10Z</time>
      </trkpt>
      <trkpt lat="43.52723" lon="6.74646">
        <ele>291.4</ele>
        <time>2019-12-10T12:11:12Z</time>
      </trkpt>
      <trkpt lat="43.52712" lon="6.74642">
        <ele>290.9</ele>
        <time>2019-12-10T12:11:14Z</time>
      </trkpt>
      <trkpt lat="43.527" lon="6.74641">
        <ele>290.5</ele>
        <time>2019-12-10T12:11:16Z</time>
      </trkpt>
      <trkpt lat="43.52688" lon="6.74641">
        <ele>290.5</ele>
        <time>2019-12-10T12:11:18Z</time>
      </trkpt>
      <trkpt lat="43.52678" lon="6.74642">
        <ele>290</ele>
        <time>2019-12-10T12:11:20Z</time>
      </trkpt>
      <trkpt lat="43.52669" lon="6.74642">
        <ele>290</ele>
        <time>2019-12-10T12:11:22Z</time>
      </trkpt>
      <trkpt lat="43.52661" lon="6.74641">
        <ele>290</ele>
        <time>2019-12-10T12:11:24Z</time>
      </trkpt>
      <trkpt lat="43.52654" lon="6.74642">
        <ele>290</ele>
        <time>2019-12-10T12:11:26Z</time>
      </trkpt>
      <trkpt lat="43.52647" lon="6.74642">
        <ele>290</ele>
        <time>2019-12-10T12:11:28Z</time>
      </trkpt>
      <trkpt lat="43.52642" lon="6.74643">
        <ele>290</ele>
        <time>2019-12-10T12:11:30Z</time>
      </trkpt>
      <trkpt lat="43.52638" lon="6.74644">
        <ele>290</ele>
        <time>2019-12-10T12:11:32Z</time>
      </trkpt>
      <trkpt lat="43.52634" lon="6.74644">
        <ele>289.5</ele>
        <time>2019-12-10T12:11:34Z</time>
      </trkpt>
      <trkpt lat="43.5263" lon="6.74646">
        <ele>289.5</ele>
        <time>2019-12-10T12:11:36Z</time>
      </trkpt>
      <trkpt lat="43.52626" lon="6.74648">
        <ele>289</ele>
        <time>2019-12-10T12:11:38Z</time>
      </trkpt>
      <trkpt lat="43.52622" lon="6.7465">
        <ele>289</ele>
        <time>2019-12-10T12:11:40Z</time>
      </trkpt>
      <trkpt lat="43.52618" lon="6.74653">
        <ele>289.5</ele>
        <time>2019-12-10T12:11:42Z</time>
      </trkpt>
      <trkpt lat="43.52614" lon="6.74657">
        <ele>289.5</ele>
        <time>2019-12-10T12:11:44Z</time>
      </trkpt>
      <trkpt lat="43.5261" lon="6.74662">
        <ele>289</ele>
        <time>2019-12-10T12:11:46Z</time>
      </trkpt>
      <trkpt lat="43.52605" lon="6.74666">
        <ele>288.5</ele>
        <time>2019-12-10T12:11:48Z</time>
      </trkpt>
      <trkpt lat="43.52599" lon="6.74671">
        <ele>288.5</ele>
        <time>2019-12-10T12:11:50Z</time>
      </trkpt>
      <trkpt lat="43.52594" lon="6.74678">
        <ele>288.1</ele>
        <time>2019-12-10T12:11:52Z</time>
      </trkpt>
      <trkpt lat="43.52592" lon="6.74685">
        <ele>288.1</ele>
        <time>2019-12-10T12:11:54Z</time>
      </trkpt>
      <trkpt lat="43.52591" lon="6.74692">
        <ele>288.1</ele>
        <time>2019-12-10T12:11:56Z</time>
      </trkpt>
      <trkpt lat="43.52589" lon="6.747">
        <ele>288.1</ele>
        <time>2019-12-10T12:11:58Z</time>
      </trkpt>
      <trkpt lat="43.52587" lon="6.74706">
        <ele>288.1</ele>
        <time>2019-12-10T12:12:00Z</time>
      </trkpt>
      <trkpt lat="43.52584" lon="6.74713">
        <ele>288.1</ele>
        <time>2019-12-10T12:12:02Z</time>
      </trkpt>
      <trkpt lat="43.5258" lon="6.74721">
        <ele>288.5</ele>
        <time>2019-12-10T12:12:04Z</time>
      </trkpt>
      <trkpt lat="43.52576" lon="6.74729">
        <ele>288.1</ele>
        <time>2019-12-10T12:12:06Z</time>
      </trkpt>
      <trkpt lat="43.52573" lon="6.74736">
        <ele>288.1</ele>
        <time>2019-12-10T12:12:08Z</time>
      </trkpt>
      <trkpt lat="43.52569" lon="6.74744">
        <ele>288.1</ele>
        <time>2019-12-10T12:12:10Z</time>
      </trkpt>
      <trkpt lat="43.52566" lon="6.74751">
        <ele>288.1</ele>
        <time>2019-12-10T12:12:12Z</time>
      </trkpt>
      <trkpt lat="43.52564" lon="6.74759">
        <ele>287.1</ele>
        <time>2019-12-10T12:12:14Z</time>
      </trkpt>
      <trkpt lat="43.52562" lon="6.74767">
        <ele>286.6</ele>
        <time>2019-12-10T12:12:16Z</time>
      </trkpt>
      <trkpt lat="43.52559" lon="6.74776">
        <ele>286.6</ele>
        <time>2019-12-10T12:12:18Z</time>
      </trkpt>
      <trkpt lat="43.52556" lon="6.74784">
        <ele>286.6</ele>
        <time>2019-12-10T12:12:20Z</time>
      </trkpt>
      <trkpt lat="43.52553" lon="6.74792">
        <ele>286.1</ele>
        <time>2019-12-10T12:12:22Z</time>
      </trkpt>
      <trkpt lat="43.52549" lon="6.74798">
        <ele>285.6</ele>
        <time>2019-12-10T12:12:24Z</time>
      </trkpt>
      <trkpt lat="43.52544" lon="6.74804">
        <ele>285.6</ele>
        <time>2019-12-10T12:12:26Z</time>
      </trkpt>
      <trkpt lat="43.52538" lon="6.74808">
        <ele>285.2</ele>
        <time>2019-12-10T12:12:28Z</time>
      </trkpt>
      <trkpt lat="43.52531" lon="6.74809">
        <ele>284.2</ele>
        <time>2019-12-10T12:12:30Z</time>
      </trkpt>
      <trkpt lat="43.52523" lon="6.74812">
        <ele>284.2</ele>
        <time>2019-12-10T12:12:32Z</time>
      </trkpt>
      <trkpt lat="43.52517" lon="6.74814">
        <ele>283.7</ele>
        <time>2019-12-10T12:12:34Z</time>
      </trkpt>
      <trkpt lat="43.52511" lon="6.74816">
        <ele>282.8</ele>
        <time>2019-12-10T12:12:36Z</time>
      </trkpt>
      <trkpt lat="43.52506" lon="6.74818">
        <ele>282.8</ele>
        <time>2019-12-10T12:12:38Z</time>
      </trkpt>
      <trkpt lat="43.52502" lon="6.74822">
        <ele>282.8</ele>
        <time>2019-12-10T12:12:40Z</time>
      </trkpt>
      <trkpt lat="43.52498" lon="6.74828">
        <ele>282.3</ele>
        <time>2019-12-10T12:12:42Z</time>
      </trkpt>
      <trkpt lat="43.52494" lon="6.74834">
        <ele>282.3</ele>
        <time>2019-12-10T12:12:44Z</time>
      </trkpt>
      <trkpt lat="43.52489" lon="6.74839">
        <ele>282.8</ele>
        <time>2019-12-10T12:12:46Z</time>
      </trkpt>
      <trkpt lat="43.52484" lon="6.74846">
        <ele>282.8</ele>
        <time>2019-12-10T12:12:48Z</time>
      </trkpt>
      <trkpt lat="43.52476" lon="6.74853">
        <ele>282.3</ele>
        <time>2019-12-10T12:12:50Z</time>
      </trkpt>
      <trkpt lat="43.52468" lon="6.7486">
        <ele>281.3</ele>
        <time>2019-12-10T12:12:52Z</time>
      </trkpt>
      <trkpt lat="43.5246" lon="6.74867">
        <ele>280.8</ele>
        <time>2019-12-10T12:12:54Z</time>
      </trkpt>
      <trkpt lat="43.52451" lon="6.74873">
        <ele>280.4</ele>
        <time>2019-12-10T12:12:56Z</time>
      </trkpt>
      <trkpt lat="43.52444" lon="6.74879">
        <ele>280.4</ele>
        <time>2019-12-10T12:12:58Z</time>
      </trkpt>
      <trkpt lat="43.52438" lon="6.74885">
        <ele>280.8</ele>
        <time>2019-12-10T12:13:00Z</time>
      </trkpt>
      <trkpt lat="43.52432" lon="6.7489">
        <ele>280.4</ele>
        <time>2019-12-10T12:13:02Z</time>
      </trkpt>
      <trkpt lat="43.52426" lon="6.74896">
        <ele>280.8</ele>
        <time>2019-12-10T12:13:04Z</time>
      </trkpt>
      <trkpt lat="43.52422" lon="6.74903">
        <ele>280.4</ele>
        <time>2019-12-10T12:13:06Z</time>
      </trkpt>
      <trkpt lat="43.52417" lon="6.74909">
        <ele>280.8</ele>
        <time>2019-12-10T12:13:08Z</time>
      </trkpt>
      <trkpt lat="43.52412" lon="6.74915">
        <ele>281.3</ele>
        <time>2019-12-10T12:13:10Z</time>
      </trkpt>
      <trkpt lat="43.52407" lon="6.7492">
        <ele>281.3</ele>
        <time>2019-12-10T12:13:12Z</time>
      </trkpt>
      <trkpt lat="43.52402" lon="6.74925">
        <ele>281.8</ele>
        <time>2019-12-10T12:13:14Z</time>
      </trkpt>
      <trkpt lat="43.52396" lon="6.74932">
        <ele>281.3</ele>
        <time>2019-12-10T12:13:16Z</time>
      </trkpt>
      <trkpt lat="43.52391" lon="6.7494">
        <ele>280.8</ele>
        <time>2019-12-10T12:13:18Z</time>
      </trkpt>
      <trkpt lat="43.52386" lon="6.74949">
        <ele>280.8</ele>
        <time>2019-12-10T12:13:20Z</time>
      </trkpt>
      <trkpt lat="43.52382" lon="6.74958">
        <ele>280.4</ele>
        <time>2019-12-10T12:13:22Z</time>
      </trkpt>
      <trkpt lat="43.52376" lon="6.7497">
        <ele>279.9</ele>
        <time>2019-12-10T12:13:24Z</time>
      </trkpt>
      <trkpt lat="43.52371" lon="6.74979">
        <ele>279.4</ele>
        <time>2019-12-10T12:13:26Z</time>
      </trkpt>
      <trkpt lat="43.52366" lon="6.74989">
        <ele>278.4</ele>
        <time>2019-12-10T12:13:28Z</time>
      </trkpt>
      <trkpt lat="43.52362" lon="6.74997">
        <ele>277</ele>
        <time>2019-12-10T12:13:30Z</time>
      </trkpt>
      <trkpt lat="43.52359" lon="6.75008">
        <ele>276</ele>
        <time>2019-12-10T12:13:32Z</time>
      </trkpt>
      <trkpt lat="43.52355" lon="6.75019">
        <ele>275.6</ele>
        <time>2019-12-10T12:13:34Z</time>
      </trkpt>
      <trkpt lat="43.52352" lon="6.75029">
        <ele>274.6</ele>
        <time>2019-12-10T12:13:36Z</time>
      </trkpt>
      <trkpt lat="43.5235" lon="6.75036">
        <ele>274.1</ele>
        <time>2019-12-10T12:13:38Z</time>
      </trkpt>
      <trkpt lat="43.52346" lon="6.75043">
        <ele>273.6</ele>
        <time>2019-12-10T12:13:40Z</time>
      </trkpt>
      <trkpt lat="43.52343" lon="6.75049">
        <ele>273.2</ele>
        <time>2019-12-10T12:13:42Z</time>
      </trkpt>
      <trkpt lat="43.5234" lon="6.75054">
        <ele>272.7</ele>
        <time>2019-12-10T12:13:44Z</time>
      </trkpt>
      <trkpt lat="43.52338" lon="6.75057">
        <ele>272.7</ele>
        <time>2019-12-10T12:13:46Z</time>
      </trkpt>
      <trkpt lat="43.52337" lon="6.75059">
        <ele>273.2</ele>
        <time>2019-12-10T12:13:48Z</time>
      </trkpt>
      <trkpt lat="43.52335" lon="6.75062">
        <ele>273.6</ele>
        <time>2019-12-10T12:13:50Z</time>
      </trkpt>
      <trkpt lat="43.52332" lon="6.75065">
        <ele>274.1</ele>
        <time>2019-12-10T12:13:52Z</time>
      </trkpt>
      <trkpt lat="43.52329" lon="6.75069">
        <ele>274.1</ele>
        <time>2019-12-10T12:13:54Z</time>
      </trkpt>
      <trkpt lat="43.52324" lon="6.75074">
        <ele>274.1</ele>
        <time>2019-12-10T12:13:56Z</time>
      </trkpt>
      <trkpt lat="43.52318" lon="6.75081">
        <ele>274.1</ele>
        <time>2019-12-10T12:13:58Z</time>
      </trkpt>
      <trkpt lat="43.52312" lon="6.75089">
        <ele>273.6</ele>
        <time>2019-12-10T12:14:00Z</time>
      </trkpt>
      <trkpt lat="43.52305" lon="6.75095">
        <ele>273.6</ele>
        <time>2019-12-10T12:14:02Z</time>
      </trkpt>
      <trkpt lat="43.523" lon="6.751">
        <ele>272.7</ele>
        <time>2019-12-10T12:14:04Z</time>
      </trkpt>
      <trkpt lat="43.52296" lon="6.75105">
        <ele>271.7</ele>
        <time>2019-12-10T12:14:06Z</time>
      </trkpt>
      <trkpt lat="43.52292" lon="6.75111">
        <ele>271.2</ele>
        <time>2019-12-10T12:14:08Z</time>
      </trkpt>
      <trkpt lat="43.52289" lon="6.75115">
        <ele>270.7</ele>
        <time>2019-12-10T12:14:10Z</time>
      </trkpt>
      <trkpt lat="43.52286" lon="6.75119">
        <ele>270.3</ele>
        <time>2019-12-10T12:14:12Z</time>
      </trkpt>
      <trkpt lat="43.5228" lon="6.75125">
        <ele>269.3</ele>
        <time>2019-12-10T12:14:14Z</time>
      </trkpt>
      <trkpt lat="43.52276" lon="6.75129">
        <ele>266.9</ele>
        <time>2019-12-10T12:14:16Z</time>
      </trkpt>
      <trkpt lat="43.52271" lon="6.75132">
        <ele>266.4</ele>
        <time>2019-12-10T12:14:18Z</time>
      </trkpt>
      <trkpt lat="43.52268" lon="6.75133">
        <ele>263.5</ele>
        <time>2019-12-10T12:14:20Z</time>
      </trkpt>
      <trkpt lat="43.52263" lon="6.75133">
        <ele>262.6</ele>
        <time>2019-12-10T12:14:22Z</time>
      </trkpt>
      <trkpt lat="43.52256" lon="6.75129">
        <ele>261.6</ele>
        <time>2019-12-10T12:14:24Z</time>
      </trkpt>
      <trkpt lat="43.52249" lon="6.75125">
        <ele>261.1</ele>
        <time>2019-12-10T12:14:26Z</time>
      </trkpt>
      <trkpt lat="43.52244" lon="6.75122">
        <ele>260.7</ele>
        <time>2019-12-10T12:14:28Z</time>
      </trkpt>
      <trkpt lat="43.52241" lon="6.75118">
        <ele>259.7</ele>
        <time>2019-12-10T12:14:30Z</time>
      </trkpt>
      <trkpt lat="43.52238" lon="6.75117">
        <ele>259.2</ele>
        <time>2019-12-10T12:14:32Z</time>
      </trkpt>
      <trkpt lat="43.52235" lon="6.75115">
        <ele>258.7</ele>
        <time>2019-12-10T12:14:34Z</time>
      </trkpt>
      <trkpt lat="43.5223" lon="6.75112">
        <ele>258.3</ele>
        <time>2019-12-10T12:14:36Z</time>
      </trkpt>
      <trkpt lat="43.52226" lon="6.7511">
        <ele>257.3</ele>
        <time>2019-12-10T12:14:38Z</time>
      </trkpt>
      <trkpt lat="43.52222" lon="6.75105">
        <ele>256.3</ele>
        <time>2019-12-10T12:14:40Z</time>
      </trkpt>
      <trkpt lat="43.52216" lon="6.75098">
        <ele>255.8</ele>
        <time>2019-12-10T12:14:42Z</time>
      </trkpt>
      <trkpt lat="43.52211" lon="6.75089">
        <ele>254.9</ele>
        <time>2019-12-10T12:14:44Z</time>
      </trkpt>
      <trkpt lat="43.5221" lon="6.75078">
        <ele>254.4</ele>
        <time>2019-12-10T12:14:46Z</time>
      </trkpt>
      <trkpt lat="43.52211" lon="6.75068">
        <ele>254.4</ele>
        <time>2019-12-10T12:14:48Z</time>
      </trkpt>
      <trkpt lat="43.52211" lon="6.75057">
        <ele>253</ele>
        <time>2019-12-10T12:14:50Z</time>
      </trkpt>
      <trkpt lat="43.52209" lon="6.75047">
        <ele>252</ele>
        <time>2019-12-10T12:14:52Z</time>
      </trkpt>
      <trkpt lat="43.52206" lon="6.75037">
        <ele>252</ele>
        <time>2019-12-10T12:14:54Z</time>
      </trkpt>
      <trkpt lat="43.52201" lon="6.75028">
        <ele>251</ele>
        <time>2019-12-10T12:14:56Z</time>
      </trkpt>
      <trkpt lat="43.52195" lon="6.75021">
        <ele>250.1</ele>
        <time>2019-12-10T12:14:58Z</time>
      </trkpt>
      <trkpt lat="43.5219" lon="6.75015">
        <ele>249.6</ele>
        <time>2019-12-10T12:15:00Z</time>
      </trkpt>
      <trkpt lat="43.52189" lon="6.75012">
        <ele>249.1</ele>
        <time>2019-12-10T12:15:02Z</time>
      </trkpt>
      <trkpt lat="43.52189" lon="6.75012">
        <ele>249.6</ele>
        <time>2019-12-10T12:15:04Z</time>
      </trkpt>
      <trkpt lat="43.52189" lon="6.75013">
        <ele>249.6</ele>
        <time>2019-12-10T12:15:06Z</time>
      </trkpt>
      <trkpt lat="43.52189" lon="6.75012">
        <ele>249.6</ele>
        <time>2019-12-10T12:15:08Z</time>
      </trkpt>
      <trkpt lat="43.52189" lon="6.75012">
        <ele>249.6</ele>
        <time>2019-12-10T12:15:10Z</time>
      </trkpt>
      <trkpt lat="43.52189" lon="6.75012">
        <ele>249.6</ele>
        <time>2019-12-10T12:15:12Z</time>
      </trkpt>
      <trkpt lat="43.52189" lon="6.75012">
        <ele>249.6</ele>
        <time>2019-12-10T12:15:14Z</time>
      </trkpt>
      <trkpt lat="43.52189" lon="6.75012">
        <ele>249.6</ele>
        <time>2019-12-10T12:15:16Z</time>
      </trkpt>
      <trkpt lat="43.52189" lon="6.75012">
        <ele>249.6</ele>
        <time>2019-12-10T12:15:18Z</time>
      </trkpt>
      <trkpt lat="43.52189" lon="6.75012">
        <ele>249.6</ele>
        <time>2019-12-10T12:15:20Z</time>
      </trkpt>
      <trkpt lat="43.52189" lon="6.75012">
        <ele>249.6</ele>
        <time>2019-12-10T12:15:22Z</time>
      </trkpt>
      <trkpt lat="43.52187" lon="6.7501">
        <ele>249.6</ele>
        <time>2019-12-10T12:15:24Z</time>
      </trkpt>
      <trkpt lat="43.52182" lon="6.75004">
        <ele>249.1</ele>
        <time>2019-12-10T12:15:26Z</time>
      </trkpt>
      <trkpt lat="43.52178" lon="6.74998">
        <ele>248.6</ele>
        <time>2019-12-10T12:15:28Z</time>
      </trkpt>
      <trkpt lat="43.52173" lon="6.74992">
        <ele>247.7</ele>
        <time>2019-12-10T12:15:30Z</time>
      </trkpt>
      <trkpt lat="43.52167" lon="6.74985">
        <ele>246.2</ele>
        <time>2019-12-10T12:15:32Z</time>
      </trkpt>
      <trkpt lat="43.52161" lon="6.74978">
        <ele>246.7</ele>
        <time>2019-12-10T12:15:34Z</time>
      </trkpt>
      <trkpt lat="43.52156" lon="6.74969">
        <ele>246.2</ele>
        <time>2019-12-10T12:15:36Z</time>
      </trkpt>
      <trkpt lat="43.52152" lon="6.74961">
        <ele>245.3</ele>
        <time>2019-12-10T12:15:38Z</time>
      </trkpt>
      <trkpt lat="43.52148" lon="6.74952">
        <ele>244.3</ele>
        <time>2019-12-10T12:15:40Z</time>
      </trkpt>
      <trkpt lat="43.52145" lon="6.74943">
        <ele>243.4</ele>
        <time>2019-12-10T12:15:42Z</time>
      </trkpt>
      <trkpt lat="43.52142" lon="6.74933">
        <ele>242.4</ele>
        <time>2019-12-10T12:15:44Z</time>
      </trkpt>
      <trkpt lat="43.52139" lon="6.74923">
        <ele>241.9</ele>
        <time>2019-12-10T12:15:46Z</time>
      </trkpt>
      <trkpt lat="43.52136" lon="6.74914">
        <ele>241.4</ele>
        <time>2019-12-10T12:15:48Z</time>
      </trkpt>
      <trkpt lat="43.52134" lon="6.74907">
        <ele>240.5</ele>
        <time>2019-12-10T12:15:50Z</time>
      </trkpt>
      <trkpt lat="43.5213" lon="6.74897">
        <ele>239.5</ele>
        <time>2019-12-10T12:15:52Z</time>
      </trkpt>
      <trkpt lat="43.52126" lon="6.74887">
        <ele>239</ele>
        <time>2019-12-10T12:15:54Z</time>
      </trkpt>
      <trkpt lat="43.52122" lon="6.74878">
        <ele>238.1</ele>
        <time>2019-12-10T12:15:56Z</time>
      </trkpt>
      <trkpt lat="43.52119" lon="6.74868">
        <ele>237.1</ele>
        <time>2019-12-10T12:15:58Z</time>
      </trkpt>
      <trkpt lat="43.52115" lon="6.74856">
        <ele>236.1</ele>
        <time>2019-12-10T12:16:00Z</time>
      </trkpt>
      <trkpt lat="43.52111" lon="6.74844">
        <ele>234.7</ele>
        <time>2019-12-10T12:16:02Z</time>
      </trkpt>
      <trkpt lat="43.52106" lon="6.74831">
        <ele>233.7</ele>
        <time>2019-12-10T12:16:04Z</time>
      </trkpt>
      <trkpt lat="43.52101" lon="6.7482">
        <ele>232.8</ele>
        <time>2019-12-10T12:16:06Z</time>
      </trkpt>
      <trkpt lat="43.52097" lon="6.7481">
        <ele>232.3</ele>
        <time>2019-12-10T12:16:08Z</time>
      </trkpt>
      <trkpt lat="43.52092" lon="6.74801">
        <ele>231.3</ele>
        <time>2019-12-10T12:16:10Z</time>
      </trkpt>
      <trkpt lat="43.52088" lon="6.74791">
        <ele>229.9</ele>
        <time>2019-12-10T12:16:12Z</time>
      </trkpt>
      <trkpt lat="43.52085" lon="6.7478">
        <ele>229.9</ele>
        <time>2019-12-10T12:16:14Z</time>
      </trkpt>
      <trkpt lat="43.52083" lon="6.74769">
        <ele>228.9</ele>
        <time>2019-12-10T12:16:16Z</time>
      </trkpt>
      <trkpt lat="43.52081" lon="6.74759">
        <ele>228</ele>
        <time>2019-12-10T12:16:18Z</time>
      </trkpt>
      <trkpt lat="43.52078" lon="6.74749">
        <ele>226.5</ele>
        <time>2019-12-10T12:16:20Z</time>
      </trkpt>
      <trkpt lat="43.52077" lon="6.74739">
        <ele>225.6</ele>
        <time>2019-12-10T12:16:22Z</time>
      </trkpt>
      <trkpt lat="43.52075" lon="6.74729">
        <ele>224.6</ele>
        <time>2019-12-10T12:16:24Z</time>
      </trkpt>
      <trkpt lat="43.52073" lon="6.74719">
        <ele>223.6</ele>
        <time>2019-12-10T12:16:26Z</time>
      </trkpt>
      <trkpt lat="43.52069" lon="6.74708">
        <ele>222.2</ele>
        <time>2019-12-10T12:16:28Z</time>
      </trkpt>
      <trkpt lat="43.52064" lon="6.74696">
        <ele>220.8</ele>
        <time>2019-12-10T12:16:30Z</time>
      </trkpt>
      <trkpt lat="43.52057" lon="6.74684">
        <ele>219.8</ele>
        <time>2019-12-10T12:16:32Z</time>
      </trkpt>
      <trkpt lat="43.52051" lon="6.74673">
        <ele>218.4</ele>
        <time>2019-12-10T12:16:34Z</time>
      </trkpt>
      <trkpt lat="43.52044" lon="6.74662">
        <ele>216.9</ele>
        <time>2019-12-10T12:16:36Z</time>
      </trkpt>
      <trkpt lat="43.52039" lon="6.74651">
        <ele>215.5</ele>
        <time>2019-12-10T12:16:38Z</time>
      </trkpt>
      <trkpt lat="43.52034" lon="6.7464">
        <ele>214</ele>
        <time>2019-12-10T12:16:40Z</time>
      </trkpt>
      <trkpt lat="43.52029" lon="6.7463">
        <ele>213.1</ele>
        <time>2019-12-10T12:16:42Z</time>
      </trkpt>
      <trkpt lat="43.52024" lon="6.74619">
        <ele>212.6</ele>
        <time>2019-12-10T12:16:44Z</time>
      </trkpt>
      <trkpt lat="43.52018" lon="6.7461">
        <ele>211.6</ele>
        <time>2019-12-10T12:16:46Z</time>
      </trkpt>
      <trkpt lat="43.52013" lon="6.746">
        <ele>210.7</ele>
        <time>2019-12-10T12:16:48Z</time>
      </trkpt>
      <trkpt lat="43.52008" lon="6.74592">
        <ele>210.2</ele>
        <time>2019-12-10T12:16:50Z</time>
      </trkpt>
      <trkpt lat="43.52003" lon="6.74584">
        <ele>209.7</ele>
        <time>2019-12-10T12:16:52Z</time>
      </trkpt>
      <trkpt lat="43.51999" lon="6.74576">
        <ele>208.7</ele>
        <time>2019-12-10T12:16:54Z</time>
      </trkpt>
      <trkpt lat="43.51997" lon="6.74569">
        <ele>208.3</ele>
        <time>2019-12-10T12:16:56Z</time>
      </trkpt>
      <trkpt lat="43.51996" lon="6.74563">
        <ele>207.3</ele>
        <time>2019-12-10T12:16:58Z</time>
      </trkpt>
      <trkpt lat="43.51993" lon="6.74554">
        <ele>206.3</ele>
        <time>2019-12-10T12:17:00Z</time>
      </trkpt>
      <trkpt lat="43.51989" lon="6.74546">
        <ele>205.4</ele>
        <time>2019-12-10T12:17:02Z</time>
      </trkpt>
      <trkpt lat="43.51984" lon="6.74539">
        <ele>204.9</ele>
        <time>2019-12-10T12:17:04Z</time>
      </trkpt>
      <trkpt lat="43.51979" lon="6.74534">
        <ele>204.4</ele>
        <time>2019-12-10T12:17:06Z</time>
      </trkpt>
      <trkpt lat="43.51972" lon="6.74531">
        <ele>203.5</ele>
        <time>2019-12-10T12:17:08Z</time>
      </trkpt>
      <trkpt lat="43.51962" lon="6.74531">
        <ele>202</ele>
        <time>2019-12-10T12:17:10Z</time>
      </trkpt>
      <trkpt lat="43.51952" lon="6.74534">
        <ele>201.1</ele>
        <time>2019-12-10T12:17:12Z</time>
      </trkpt>
      <trkpt lat="43.51943" lon="6.74537">
        <ele>199.6</ele>
        <time>2019-12-10T12:17:14Z</time>
      </trkpt>
      <trkpt lat="43.51934" lon="6.7454">
        <ele>198.2</ele>
        <time>2019-12-10T12:17:16Z</time>
      </trkpt>
      <trkpt lat="43.51925" lon="6.74543">
        <ele>196.7</ele>
        <time>2019-12-10T12:17:18Z</time>
      </trkpt>
      <trkpt lat="43.51915" lon="6.74548">
        <ele>195.8</ele>
        <time>2019-12-10T12:17:20Z</time>
      </trkpt>
      <trkpt lat="43.51907" lon="6.74553">
        <ele>195.3</ele>
        <time>2019-12-10T12:17:22Z</time>
      </trkpt>
      <trkpt lat="43.519" lon="6.74557">
        <ele>193.8</ele>
        <time>2019-12-10T12:17:24Z</time>
      </trkpt>
      <trkpt lat="43.51893" lon="6.74561">
        <ele>192.4</ele>
        <time>2019-12-10T12:17:26Z</time>
      </trkpt>
      <trkpt lat="43.51887" lon="6.7457">
        <ele>191</ele>
        <time>2019-12-10T12:17:28Z</time>
      </trkpt>
      <trkpt lat="43.51883" lon="6.74579">
        <ele>190</ele>
        <time>2019-12-10T12:17:30Z</time>
      </trkpt>
      <trkpt lat="43.51883" lon="6.7459">
        <ele>189</ele>
        <time>2019-12-10T12:17:32Z</time>
      </trkpt>
      <trkpt lat="43.51886" lon="6.74603">
        <ele>188.1</ele>
        <time>2019-12-10T12:17:34Z</time>
      </trkpt>
      <trkpt lat="43.5189" lon="6.74613">
        <ele>187.6</ele>
        <time>2019-12-10T12:17:36Z</time>
      </trkpt>
      <trkpt lat="43.51894" lon="6.74624">
        <ele>185.7</ele>
        <time>2019-12-10T12:17:38Z</time>
      </trkpt>
      <trkpt lat="43.51897" lon="6.74635">
        <ele>184.2</ele>
        <time>2019-12-10T12:17:40Z</time>
      </trkpt>
      <trkpt lat="43.519" lon="6.74646">
        <ele>183.3</ele>
        <time>2019-12-10T12:17:42Z</time>
      </trkpt>
      <trkpt lat="43.51902" lon="6.74656">
        <ele>182.3</ele>
        <time>2019-12-10T12:17:44Z</time>
      </trkpt>
      <trkpt lat="43.51903" lon="6.74669">
        <ele>181.3</ele>
        <time>2019-12-10T12:17:46Z</time>
      </trkpt>
      <trkpt lat="43.51904" lon="6.74681">
        <ele>180.9</ele>
        <time>2019-12-10T12:17:48Z</time>
      </trkpt>
      <trkpt lat="43.51903" lon="6.74686">
        <ele>178.9</ele>
        <time>2019-12-10T12:17:50Z</time>
      </trkpt>
      <trkpt lat="43.51903" lon="6.74686">
        <ele>179.4</ele>
        <time>2019-12-10T12:17:52Z</time>
      </trkpt>
      <trkpt lat="43.51903" lon="6.74686">
        <ele>179.4</ele>
        <time>2019-12-10T12:17:54Z</time>
      </trkpt>
      <trkpt lat="43.51903" lon="6.74686">
        <ele>179.4</ele>
        <time>2019-12-10T12:17:56Z</time>
      </trkpt>
      <trkpt lat="43.51903" lon="6.74687">
        <ele>179.4</ele>
        <time>2019-12-10T12:17:58Z</time>
      </trkpt>
      <trkpt lat="43.51902" lon="6.7469">
        <ele>178.9</ele>
        <time>2019-12-10T12:18:00Z</time>
      </trkpt>
      <trkpt lat="43.51901" lon="6.74695">
        <ele>178.5</ele>
        <time>2019-12-10T12:18:02Z</time>
      </trkpt>
      <trkpt lat="43.519" lon="6.74701">
        <ele>178</ele>
        <time>2019-12-10T12:18:04Z</time>
      </trkpt>
      <trkpt lat="43.51899" lon="6.7471">
        <ele>177</ele>
        <time>2019-12-10T12:18:06Z</time>
      </trkpt>
      <trkpt lat="43.51898" lon="6.74719">
        <ele>176.5</ele>
        <time>2019-12-10T12:18:08Z</time>
      </trkpt>
      <trkpt lat="43.51896" lon="6.74726">
        <ele>175.6</ele>
        <time>2019-12-10T12:18:10Z</time>
      </trkpt>
      <trkpt lat="43.51895" lon="6.74734">
        <ele>174.6</ele>
        <time>2019-12-10T12:18:12Z</time>
      </trkpt>
      <trkpt lat="43.51895" lon="6.74739">
        <ele>174.1</ele>
        <time>2019-12-10T12:18:14Z</time>
      </trkpt>
      <trkpt lat="43.51895" lon="6.74742">
        <ele>173.7</ele>
        <time>2019-12-10T12:18:16Z</time>
      </trkpt>
      <trkpt lat="43.51895" lon="6.74742">
        <ele>173.7</ele>
        <time>2019-12-10T12:18:18Z</time>
      </trkpt>
      <trkpt lat="43.51895" lon="6.74743">
        <ele>173.2</ele>
        <time>2019-12-10T12:18:20Z</time>
      </trkpt>
      <trkpt lat="43.51895" lon="6.74744">
        <ele>173.2</ele>
        <time>2019-12-10T12:18:22Z</time>
      </trkpt>
      <trkpt lat="43.51894" lon="6.74744">
        <ele>173.2</ele>
        <time>2019-12-10T12:18:24Z</time>
      </trkpt>
      <trkpt lat="43.51895" lon="6.74745">
        <ele>173.2</ele>
        <time>2019-12-10T12:18:26Z</time>
      </trkpt>
      <trkpt lat="43.51895" lon="6.74745">
        <ele>173.2</ele>
        <time>2019-12-10T12:18:28Z</time>
      </trkpt>
      <trkpt lat="43.51894" lon="6.74746">
        <ele>173.7</ele>
        <time>2019-12-10T12:18:30Z</time>
      </trkpt>
      <trkpt lat="43.51894" lon="6.74748">
        <ele>173.7</ele>
        <time>2019-12-10T12:18:32Z</time>
      </trkpt>
      <trkpt lat="43.51893" lon="6.74751">
        <ele>173.7</ele>
        <time>2019-12-10T12:18:34Z</time>
      </trkpt>
      <trkpt lat="43.51892" lon="6.74755">
        <ele>174.1</ele>
        <time>2019-12-10T12:18:36Z</time>
      </trkpt>
      <trkpt lat="43.5189" lon="6.7476">
        <ele>173.7</ele>
        <time>2019-12-10T12:18:38Z</time>
      </trkpt>
      <trkpt lat="43.51887" lon="6.74767">
        <ele>173.2</ele>
        <time>2019-12-10T12:18:40Z</time>
      </trkpt>
      <trkpt lat="43.51885" lon="6.74774">
        <ele>172.2</ele>
        <time>2019-12-10T12:18:42Z</time>
      </trkpt>
      <trkpt lat="43.51883" lon="6.74782">
        <ele>171.3</ele>
        <time>2019-12-10T12:18:44Z</time>
      </trkpt>
      <trkpt lat="43.51881" lon="6.74793">
        <ele>170.3</ele>
        <time>2019-12-10T12:18:46Z</time>
      </trkpt>
      <trkpt lat="43.5188" lon="6.74805">
        <ele>169.3</ele>
        <time>2019-12-10T12:18:48Z</time>
      </trkpt>
      <trkpt lat="43.5188" lon="6.74818">
        <ele>168.4</ele>
        <time>2019-12-10T12:18:50Z</time>
      </trkpt>
      <trkpt lat="43.51881" lon="6.74828">
        <ele>167.4</ele>
        <time>2019-12-10T12:18:52Z</time>
      </trkpt>
      <trkpt lat="43.51883" lon="6.74837">
        <ele>166</ele>
        <time>2019-12-10T12:18:54Z</time>
      </trkpt>
      <trkpt lat="43.51885" lon="6.74845">
        <ele>165.5</ele>
        <time>2019-12-10T12:18:56Z</time>
      </trkpt>
      <trkpt lat="43.51889" lon="6.74852">
        <ele>165</ele>
        <time>2019-12-10T12:18:58Z</time>
      </trkpt>
      <trkpt lat="43.51893" lon="6.74861">
        <ele>164</ele>
        <time>2019-12-10T12:19:00Z</time>
      </trkpt>
      <trkpt lat="43.519" lon="6.74868">
        <ele>162.6</ele>
        <time>2019-12-10T12:19:02Z</time>
      </trkpt>
      <trkpt lat="43.5191" lon="6.74873">
        <ele>162.1</ele>
        <time>2019-12-10T12:19:04Z</time>
      </trkpt>
      <trkpt lat="43.51919" lon="6.74875">
        <ele>161.6</ele>
        <time>2019-12-10T12:19:06Z</time>
      </trkpt>
      <trkpt lat="43.51927" lon="6.74877">
        <ele>160.7</ele>
        <time>2019-12-10T12:19:08Z</time>
      </trkpt>
      <trkpt lat="43.51932" lon="6.74878">
        <ele>160.2</ele>
        <time>2019-12-10T12:19:10Z</time>
      </trkpt>
      <trkpt lat="43.51936" lon="6.7488">
        <ele>160.2</ele>
        <time>2019-12-10T12:19:12Z</time>
      </trkpt>
      <trkpt lat="43.51937" lon="6.74883">
        <ele>160.2</ele>
        <time>2019-12-10T12:19:14Z</time>
      </trkpt>
      <trkpt lat="43.51937" lon="6.74887">
        <ele>160.2</ele>
        <time>2019-12-10T12:19:16Z</time>
      </trkpt>
      <trkpt lat="43.51938" lon="6.74893">
        <ele>160.2</ele>
        <time>2019-12-10T12:19:18Z</time>
      </trkpt>
      <trkpt lat="43.51936" lon="6.74902">
        <ele>159.7</ele>
        <time>2019-12-10T12:19:20Z</time>
      </trkpt>
      <trkpt lat="43.51932" lon="6.74909">
        <ele>159.2</ele>
        <time>2019-12-10T12:19:22Z</time>
      </trkpt>
      <trkpt lat="43.51927" lon="6.74914">
        <ele>158.8</ele>
        <time>2019-12-10T12:19:24Z</time>
      </trkpt>
      <trkpt lat="43.51925" lon="6.74917">
        <ele>158.8</ele>
        <time>2019-12-10T12:19:26Z</time>
      </trkpt>
      <trkpt lat="43.51923" lon="6.74918">
        <ele>158.3</ele>
        <time>2019-12-10T12:19:28Z</time>
      </trkpt>
      <trkpt lat="43.51924" lon="6.74919">
        <ele>158.3</ele>
        <time>2019-12-10T12:19:30Z</time>
      </trkpt>
      <trkpt lat="43.51924" lon="6.7492">
        <ele>158.3</ele>
        <time>2019-12-10T12:19:32Z</time>
      </trkpt>
      <trkpt lat="43.51924" lon="6.74921">
        <ele>158.8</ele>
        <time>2019-12-10T12:19:34Z</time>
      </trkpt>
      <trkpt lat="43.51924" lon="6.74921">
        <ele>158.8</ele>
        <time>2019-12-10T12:19:36Z</time>
      </trkpt>
      <trkpt lat="43.51923" lon="6.74922">
        <ele>158.8</ele>
        <time>2019-12-10T12:19:38Z</time>
      </trkpt>
      <trkpt lat="43.51923" lon="6.74923">
        <ele>158.8</ele>
        <time>2019-12-10T12:19:40Z</time>
      </trkpt>
      <trkpt lat="43.51922" lon="6.74926">
        <ele>157.8</ele>
        <time>2019-12-10T12:19:42Z</time>
      </trkpt>
      <trkpt lat="43.51917" lon="6.74933">
        <ele>156.8</ele>
        <time>2019-12-10T12:19:44Z</time>
      </trkpt>
      <trkpt lat="43.51914" lon="6.74939">
        <ele>155.9</ele>
        <time>2019-12-10T12:19:46Z</time>
      </trkpt>
      <trkpt lat="43.51909" lon="6.74946">
        <ele>154.4</ele>
        <time>2019-12-10T12:19:48Z</time>
      </trkpt>
      <trkpt lat="43.51905" lon="6.74952">
        <ele>153.5</ele>
        <time>2019-12-10T12:19:50Z</time>
      </trkpt>
      <trkpt lat="43.51901" lon="6.74959">
        <ele>152.5</ele>
        <time>2019-12-10T12:19:52Z</time>
      </trkpt>
      <trkpt lat="43.51897" lon="6.74966">
        <ele>151.5</ele>
        <time>2019-12-10T12:19:54Z</time>
      </trkpt>
      <trkpt lat="43.51894" lon="6.74972">
        <ele>150.6</ele>
        <time>2019-12-10T12:19:56Z</time>
      </trkpt>
      <trkpt lat="43.51891" lon="6.74979">
        <ele>149.6</ele>
        <time>2019-12-10T12:19:58Z</time>
      </trkpt>
      <trkpt lat="43.51887" lon="6.74987">
        <ele>148.7</ele>
        <time>2019-12-10T12:20:00Z</time>
      </trkpt>
      <trkpt lat="43.51885" lon="6.74993">
        <ele>147.7</ele>
        <time>2019-12-10T12:20:02Z</time>
      </trkpt>
      <trkpt lat="43.51881" lon="6.74999">
        <ele>146.7</ele>
        <time>2019-12-10T12:20:04Z</time>
      </trkpt>
      <trkpt lat="43.51877" lon="6.75005">
        <ele>145.8</ele>
        <time>2019-12-10T12:20:06Z</time>
      </trkpt>
      <trkpt lat="43.51874" lon="6.75011">
        <ele>144.3</ele>
        <time>2019-12-10T12:20:08Z</time>
      </trkpt>
      <trkpt lat="43.51871" lon="6.75017">
        <ele>143.9</ele>
        <time>2019-12-10T12:20:10Z</time>
      </trkpt>
      <trkpt lat="43.51868" lon="6.75025">
        <ele>143.9</ele>
        <time>2019-12-10T12:20:12Z</time>
      </trkpt>
      <trkpt lat="43.51865" lon="6.75031">
        <ele>143.4</ele>
        <time>2019-12-10T12:20:14Z</time>
      </trkpt>
      <trkpt lat="43.5186" lon="6.75041">
        <ele>142.4</ele>
        <time>2019-12-10T12:20:16Z</time>
      </trkpt>
      <trkpt lat="43.51855" lon="6.75053">
        <ele>141</ele>
        <time>2019-12-10T12:20:18Z</time>
      </trkpt>
      <trkpt lat="43.51851" lon="6.75063">
        <ele>139.5</ele>
        <time>2019-12-10T12:20:20Z</time>
      </trkpt>
      <trkpt lat="43.51847" lon="6.75071">
        <ele>138.6</ele>
        <time>2019-12-10T12:20:22Z</time>
      </trkpt>
      <trkpt lat="43.51842" lon="6.75077">
        <ele>137.6</ele>
        <time>2019-12-10T12:20:24Z</time>
      </trkpt>
      <trkpt lat="43.51836" lon="6.75082">
        <ele>136.2</ele>
        <time>2019-12-10T12:20:26Z</time>
      </trkpt>
      <trkpt lat="43.51828" lon="6.75086">
        <ele>134.7</ele>
        <time>2019-12-10T12:20:28Z</time>
      </trkpt>
      <trkpt lat="43.5182" lon="6.75092">
        <ele>133.3</ele>
        <time>2019-12-10T12:20:30Z</time>
      </trkpt>
      <trkpt lat="43.51814" lon="6.75101">
        <ele>132.3</ele>
        <time>2019-12-10T12:20:32Z</time>
      </trkpt>
      <trkpt lat="43.51809" lon="6.75113">
        <ele>130.9</ele>
        <time>2019-12-10T12:20:34Z</time>
      </trkpt>
      <trkpt lat="43.51806" lon="6.75125">
        <ele>129.4</ele>
        <time>2019-12-10T12:20:36Z</time>
      </trkpt>
      <trkpt lat="43.51804" lon="6.75136">
        <ele>128</ele>
        <time>2019-12-10T12:20:38Z</time>
      </trkpt>
      <trkpt lat="43.518" lon="6.75146">
        <ele>127</ele>
        <time>2019-12-10T12:20:40Z</time>
      </trkpt>
      <trkpt lat="43.51795" lon="6.75154">
        <ele>125.6</ele>
        <time>2019-12-10T12:20:42Z</time>
      </trkpt>
      <trkpt lat="43.51788" lon="6.7516">
        <ele>124.1</ele>
        <time>2019-12-10T12:20:44Z</time>
      </trkpt>
      <trkpt lat="43.51779" lon="6.75166">
        <ele>122.7</ele>
        <time>2019-12-10T12:20:46Z</time>
      </trkpt>
      <trkpt lat="43.51771" lon="6.7517">
        <ele>121.7</ele>
        <time>2019-12-10T12:20:48Z</time>
      </trkpt>
      <trkpt lat="43.51764" lon="6.75173">
        <ele>120.8</ele>
        <time>2019-12-10T12:20:50Z</time>
      </trkpt>
      <trkpt lat="43.51758" lon="6.75174">
        <ele>119.8</ele>
        <time>2019-12-10T12:20:52Z</time>
      </trkpt>
      <trkpt lat="43.51755" lon="6.75174">
        <ele>119.3</ele>
        <time>2019-12-10T12:20:54Z</time>
      </trkpt>
      <trkpt lat="43.51752" lon="6.75175">
        <ele>118.9</ele>
        <time>2019-12-10T12:20:56Z</time>
      </trkpt>
      <trkpt lat="43.5175" lon="6.75176">
        <ele>118.9</ele>
        <time>2019-12-10T12:20:58Z</time>
      </trkpt>
      <trkpt lat="43.51747" lon="6.75176">
        <ele>119.3</ele>
        <time>2019-12-10T12:21:00Z</time>
      </trkpt>
      <trkpt lat="43.51744" lon="6.75175">
        <ele>118.9</ele>
        <time>2019-12-10T12:21:02Z</time>
      </trkpt>
      <trkpt lat="43.51739" lon="6.75174">
        <ele>118.4</ele>
        <time>2019-12-10T12:21:04Z</time>
      </trkpt>
      <trkpt lat="43.51734" lon="6.75174">
        <ele>117.4</ele>
        <time>2019-12-10T12:21:06Z</time>
      </trkpt>
      <trkpt lat="43.51727" lon="6.75176">
        <ele>116.5</ele>
        <time>2019-12-10T12:21:08Z</time>
      </trkpt>
      <trkpt lat="43.51719" lon="6.75179">
        <ele>115.5</ele>
        <time>2019-12-10T12:21:10Z</time>
      </trkpt>
      <trkpt lat="43.51709" lon="6.75184">
        <ele>114.1</ele>
        <time>2019-12-10T12:21:12Z</time>
      </trkpt>
      <trkpt lat="43.517" lon="6.75191">
        <ele>112.6</ele>
        <time>2019-12-10T12:21:14Z</time>
      </trkpt>
      <trkpt lat="43.51692" lon="6.75197">
        <ele>111.7</ele>
        <time>2019-12-10T12:21:16Z</time>
      </trkpt>
      <trkpt lat="43.51687" lon="6.75202">
        <ele>110.7</ele>
        <time>2019-12-10T12:21:18Z</time>
      </trkpt>
      <trkpt lat="43.51682" lon="6.75205">
        <ele>109.7</ele>
        <time>2019-12-10T12:21:20Z</time>
      </trkpt>
      <trkpt lat="43.51679" lon="6.75209">
        <ele>108.8</ele>
        <time>2019-12-10T12:21:22Z</time>
      </trkpt>
      <trkpt lat="43.51676" lon="6.75212">
        <ele>108.3</ele>
        <time>2019-12-10T12:21:24Z</time>
      </trkpt>
      <trkpt lat="43.51674" lon="6.75213">
        <ele>108.3</ele>
        <time>2019-12-10T12:21:26Z</time>
      </trkpt>
      <trkpt lat="43.51673" lon="6.75214">
        <ele>108.3</ele>
        <time>2019-12-10T12:21:28Z</time>
      </trkpt>
      <trkpt lat="43.5167" lon="6.75217">
        <ele>107.8</ele>
        <time>2019-12-10T12:21:30Z</time>
      </trkpt>
      <trkpt lat="43.51667" lon="6.75218">
        <ele>107.3</ele>
        <time>2019-12-10T12:21:32Z</time>
      </trkpt>
      <trkpt lat="43.51663" lon="6.75219">
        <ele>106.4</ele>
        <time>2019-12-10T12:21:34Z</time>
      </trkpt>
      <trkpt lat="43.51657" lon="6.7522">
        <ele>104.9</ele>
        <time>2019-12-10T12:21:36Z</time>
      </trkpt>
      <trkpt lat="43.51651" lon="6.75221">
        <ele>104</ele>
        <time>2019-12-10T12:21:38Z</time>
      </trkpt>
      <trkpt lat="43.51646" lon="6.7522">
        <ele>103</ele>
        <time>2019-12-10T12:21:40Z</time>
      </trkpt>
      <trkpt lat="43.51641" lon="6.75219">
        <ele>102</ele>
        <time>2019-12-10T12:21:42Z</time>
      </trkpt>
      <trkpt lat="43.51634" lon="6.7522">
        <ele>101.1</ele>
        <time>2019-12-10T12:21:44Z</time>
      </trkpt>
      <trkpt lat="43.51626" lon="6.75224">
        <ele>99.6</ele>
        <time>2019-12-10T12:21:46Z</time>
      </trkpt>
      <trkpt lat="43.51618" lon="6.75231">
        <ele>98.2</ele>
        <time>2019-12-10T12:21:48Z</time>
      </trkpt>
      <trkpt lat="43.51612" lon="6.75239">
        <ele>96.7</ele>
        <time>2019-12-10T12:21:50Z</time>
      </trkpt>
      <trkpt lat="43.51606" lon="6.75247">
        <ele>95.8</ele>
        <time>2019-12-10T12:21:52Z</time>
      </trkpt>
      <trkpt lat="43.51602" lon="6.75255">
        <ele>94.3</ele>
        <time>2019-12-10T12:21:54Z</time>
      </trkpt>
      <trkpt lat="43.51599" lon="6.75265">
        <ele>92.9</ele>
        <time>2019-12-10T12:21:56Z</time>
      </trkpt>
      <trkpt lat="43.51598" lon="6.75274">
        <ele>91.9</ele>
        <time>2019-12-10T12:21:58Z</time>
      </trkpt>
      <trkpt lat="43.51599" lon="6.75285">
        <ele>91.5</ele>
        <time>2019-12-10T12:22:00Z</time>
      </trkpt>
      <trkpt lat="43.51601" lon="6.75293">
        <ele>91.5</ele>
        <time>2019-12-10T12:22:02Z</time>
      </trkpt>
      <trkpt lat="43.51603" lon="6.75302">
        <ele>90.5</ele>
        <time>2019-12-10T12:22:04Z</time>
      </trkpt>
      <trkpt lat="43.51609" lon="6.75312">
        <ele>89.1</ele>
        <time>2019-12-10T12:22:06Z</time>
      </trkpt>
      <trkpt lat="43.51618" lon="6.75319">
        <ele>87.6</ele>
        <time>2019-12-10T12:22:08Z</time>
      </trkpt>
      <trkpt lat="43.51627" lon="6.75326">
        <ele>86.7</ele>
        <time>2019-12-10T12:22:10Z</time>
      </trkpt>
      <trkpt lat="43.51632" lon="6.75332">
        <ele>86.2</ele>
        <time>2019-12-10T12:22:12Z</time>
      </trkpt>
      <trkpt lat="43.51634" lon="6.75339">
        <ele>85.2</ele>
        <time>2019-12-10T12:22:14Z</time>
      </trkpt>
      <trkpt lat="43.51632" lon="6.75349">
        <ele>83.8</ele>
        <time>2019-12-10T12:22:16Z</time>
      </trkpt>
      <trkpt lat="43.51629" lon="6.75359">
        <ele>83.8</ele>
        <time>2019-12-10T12:22:18Z</time>
      </trkpt>
      <trkpt lat="43.51627" lon="6.75368">
        <ele>82.8</ele>
        <time>2019-12-10T12:22:20Z</time>
      </trkpt>
      <trkpt lat="43.51625" lon="6.75376">
        <ele>81.4</ele>
        <time>2019-12-10T12:22:22Z</time>
      </trkpt>
      <trkpt lat="43.51626" lon="6.75388">
        <ele>79.9</ele>
        <time>2019-12-10T12:22:24Z</time>
      </trkpt>
      <trkpt lat="43.51633" lon="6.75397">
        <ele>78</ele>
        <time>2019-12-10T12:22:26Z</time>
      </trkpt>
      <trkpt lat="43.51643" lon="6.75398">
        <ele>77</ele>
        <time>2019-12-10T12:22:28Z</time>
      </trkpt>
      <trkpt lat="43.51654" lon="6.75395">
        <ele>76.6</ele>
        <time>2019-12-10T12:22:30Z</time>
      </trkpt>
      <trkpt lat="43.51663" lon="6.75395">
        <ele>76.1</ele>
        <time>2019-12-10T12:22:32Z</time>
      </trkpt>
      <trkpt lat="43.5167" lon="6.75402">
        <ele>74.6</ele>
        <time>2019-12-10T12:22:34Z</time>
      </trkpt>
      <trkpt lat="43.51676" lon="6.7541">
        <ele>74.6</ele>
        <time>2019-12-10T12:22:36Z</time>
      </trkpt>
      <trkpt lat="43.51681" lon="6.7542">
        <ele>73.7</ele>
        <time>2019-12-10T12:22:38Z</time>
      </trkpt>
      <trkpt lat="43.51687" lon="6.75431">
        <ele>72.7</ele>
        <time>2019-12-10T12:22:40Z</time>
      </trkpt>
      <trkpt lat="43.51692" lon="6.75445">
        <ele>72.2</ele>
        <time>2019-12-10T12:22:42Z</time>
      </trkpt>
      <trkpt lat="43.51697" lon="6.75459">
        <ele>71.8</ele>
        <time>2019-12-10T12:22:44Z</time>
      </trkpt>
      <trkpt lat="43.51702" lon="6.75474">
        <ele>71.3</ele>
        <time>2019-12-10T12:22:46Z</time>
      </trkpt>
      <trkpt lat="43.51705" lon="6.75488">
        <ele>71.3</ele>
        <time>2019-12-10T12:22:48Z</time>
      </trkpt>
      <trkpt lat="43.51704" lon="6.75502">
        <ele>70.8</ele>
        <time>2019-12-10T12:22:50Z</time>
      </trkpt>
      <trkpt lat="43.51702" lon="6.75511">
        <ele>70.3</ele>
        <time>2019-12-10T12:22:52Z</time>
      </trkpt>
      <trkpt lat="43.51702" lon="6.75511">
        <ele>70.3</ele>
        <time>2019-12-10T12:22:54Z</time>
      </trkpt>
      <trkpt lat="43.51701" lon="6.75511">
        <ele>70.3</ele>
        <time>2019-12-10T12:22:56Z</time>
      </trkpt>
      <trkpt lat="43.51701" lon="6.75511">
        <ele>70.3</ele>
        <time>2019-12-10T12:22:58Z</time>
      </trkpt>
      <trkpt lat="43.51701" lon="6.75511">
        <ele>70.3</ele>
        <time>2019-12-10T12:23:00Z</time>
      </trkpt>
      <trkpt lat="43.51701" lon="6.75511">
        <ele>70.3</ele>
        <time>2019-12-10T12:23:02Z</time>
      </trkpt>
      <trkpt lat="43.51701" lon="6.75511">
        <ele>70.3</ele>
        <time>2019-12-10T12:23:04Z</time>
      </trkpt>
      <trkpt lat="43.51701" lon="6.75511">
        <ele>70.3</ele>
        <time>2019-12-10T12:23:06Z</time>
      </trkpt>
      <trkpt lat="43.51701" lon="6.75511">
        <ele>70.3</ele>
        <time>2019-12-10T12:23:08Z</time>
      </trkpt>
      <trkpt lat="43.51701" lon="6.75511">
        <ele>70.3</ele>
        <time>2019-12-10T12:23:10Z</time>
      </trkpt>
      <trkpt lat="43.51701" lon="6.75511">
        <ele>70.3</ele>
        <time>2019-12-10T12:23:12Z</time>
      </trkpt>
      <trkpt lat="43.51701" lon="6.75511">
        <ele>70.3</ele>
        <time>2019-12-10T12:23:14Z</time>
      </trkpt>
      <trkpt lat="43.51701" lon="6.75511">
        <ele>70.3</ele>
        <time>2019-12-10T12:23:16Z</time>
      </trkpt>
      <trkpt lat="43.51701" lon="6.75511">
        <ele>70.3</ele>
        <time>2019-12-10T12:23:18Z</time>
      </trkpt>
      <trkpt lat="43.51701" lon="6.75511">
        <ele>70.3</ele>
        <time>2019-12-10T12:23:20Z</time>
      </trkpt>
      <trkpt lat="43.51701" lon="6.75511">
        <ele>70.3</ele>
        <time>2019-12-10T12:23:22Z</time>
      </trkpt>
      <trkpt lat="43.51701" lon="6.75511">
        <ele>70.3</ele>
        <time>2019-12-10T12:23:24Z</time>
      </trkpt>
      <trkpt lat="43.51701" lon="6.75511">
        <ele>70.3</ele>
        <time>2019-12-10T12:23:26Z</time>
      </trkpt>
      <trkpt lat="43.517" lon="6.75514">
        <ele>69.8</ele>
        <time>2019-12-10T12:23:28Z</time>
      </trkpt>
      <trkpt lat="43.51697" lon="6.7552">
        <ele>69.8</ele>
        <time>2019-12-10T12:23:30Z</time>
      </trkpt>
      <trkpt lat="43.51693" lon="6.75525">
        <ele>69.4</ele>
        <time>2019-12-10T12:23:32Z</time>
      </trkpt>
      <trkpt lat="43.51689" lon="6.7553">
        <ele>68.9</ele>
        <time>2019-12-10T12:23:34Z</time>
      </trkpt>
      <trkpt lat="43.51684" lon="6.75536">
        <ele>67.4</ele>
        <time>2019-12-10T12:23:36Z</time>
      </trkpt>
      <trkpt lat="43.51679" lon="6.75545">
        <ele>66.5</ele>
        <time>2019-12-10T12:23:38Z</time>
      </trkpt>
      <trkpt lat="43.51674" lon="6.75554">
        <ele>65</ele>
        <time>2019-12-10T12:23:40Z</time>
      </trkpt>
      <trkpt lat="43.51669" lon="6.75561">
        <ele>64.5</ele>
        <time>2019-12-10T12:23:42Z</time>
      </trkpt>
      <trkpt lat="43.51664" lon="6.75568">
        <ele>63.6</ele>
        <time>2019-12-10T12:23:44Z</time>
      </trkpt>
      <trkpt lat="43.51658" lon="6.75573">
        <ele>62.6</ele>
        <time>2019-12-10T12:23:46Z</time>
      </trkpt>
      <trkpt lat="43.51651" lon="6.75578">
        <ele>62.1</ele>
        <time>2019-12-10T12:23:48Z</time>
      </trkpt>
      <trkpt lat="43.51643" lon="6.7558">
        <ele>61.2</ele>
        <time>2019-12-10T12:23:50Z</time>
      </trkpt>
      <trkpt lat="43.51635" lon="6.7558">
        <ele>60.7</ele>
        <time>2019-12-10T12:23:52Z</time>
      </trkpt>
      <trkpt lat="43.51627" lon="6.75579">
        <ele>60.2</ele>
        <time>2019-12-10T12:23:54Z</time>
      </trkpt>
      <trkpt lat="43.51619" lon="6.75579">
        <ele>59.3</ele>
        <time>2019-12-10T12:23:56Z</time>
      </trkpt>
      <trkpt lat="43.51611" lon="6.7558">
        <ele>58.3</ele>
        <time>2019-12-10T12:23:58Z</time>
      </trkpt>
      <trkpt lat="43.51602" lon="6.75581">
        <ele>57.3</ele>
        <time>2019-12-10T12:24:00Z</time>
      </trkpt>
      <trkpt lat="43.51593" lon="6.75579">
        <ele>56.9</ele>
        <time>2019-12-10T12:24:02Z</time>
      </trkpt>
      <trkpt lat="43.51586" lon="6.75581">
        <ele>56.4</ele>
        <time>2019-12-10T12:24:04Z</time>
      </trkpt>
      <trkpt lat="43.51582" lon="6.75589">
        <ele>55.4</ele>
        <time>2019-12-10T12:24:06Z</time>
      </trkpt>
      <trkpt lat="43.5158" lon="6.75602">
        <ele>54</ele>
        <time>2019-12-10T12:24:08Z</time>
      </trkpt>
      <trkpt lat="43.51582" lon="6.75615">
        <ele>53</ele>
        <time>2019-12-10T12:24:10Z</time>
      </trkpt>
      <trkpt lat="43.51587" lon="6.75628">
        <ele>51.6</ele>
        <time>2019-12-10T12:24:12Z</time>
      </trkpt>
      <trkpt lat="43.5159" lon="6.7564">
        <ele>50.1</ele>
        <time>2019-12-10T12:24:14Z</time>
      </trkpt>
      <trkpt lat="43.51594" lon="6.75652">
        <ele>49.2</ele>
        <time>2019-12-10T12:24:16Z</time>
      </trkpt>
      <trkpt lat="43.51597" lon="6.75664">
        <ele>48.7</ele>
        <time>2019-12-10T12:24:18Z</time>
      </trkpt>
      <trkpt lat="43.51597" lon="6.75675">
        <ele>48.7</ele>
        <time>2019-12-10T12:24:20Z</time>
      </trkpt>
      <trkpt lat="43.51596" lon="6.75684">
        <ele>48.2</ele>
        <time>2019-12-10T12:24:22Z</time>
      </trkpt>
      <trkpt lat="43.51593" lon="6.75693">
        <ele>47.7</ele>
        <time>2019-12-10T12:24:24Z</time>
      </trkpt>
      <trkpt lat="43.51588" lon="6.75703">
        <ele>47.2</ele>
        <time>2019-12-10T12:24:26Z</time>
      </trkpt>
      <trkpt lat="43.51583" lon="6.75712">
        <ele>46.8</ele>
        <time>2019-12-10T12:24:28Z</time>
      </trkpt>
      <trkpt lat="43.51578" lon="6.75721">
        <ele>46.3</ele>
        <time>2019-12-10T12:24:30Z</time>
      </trkpt>
      <trkpt lat="43.51575" lon="6.75728">
        <ele>45.8</ele>
        <time>2019-12-10T12:24:32Z</time>
      </trkpt>
      <trkpt lat="43.51573" lon="6.75735">
        <ele>45.3</ele>
        <time>2019-12-10T12:24:34Z</time>
      </trkpt>
      <trkpt lat="43.51571" lon="6.75742">
        <ele>44.8</ele>
        <time>2019-12-10T12:24:36Z</time>
      </trkpt>
      <trkpt lat="43.51568" lon="6.75748">
        <ele>44.4</ele>
        <time>2019-12-10T12:24:38Z</time>
      </trkpt>
      <trkpt lat="43.51566" lon="6.75754">
        <ele>44.4</ele>
        <time>2019-12-10T12:24:40Z</time>
      </trkpt>
      <trkpt lat="43.51562" lon="6.75756">
        <ele>43.9</ele>
        <time>2019-12-10T12:24:42Z</time>
      </trkpt>
      <trkpt lat="43.51558" lon="6.75754">
        <ele>43.9</ele>
        <time>2019-12-10T12:24:44Z</time>
      </trkpt>
      <trkpt lat="43.51553" lon="6.75752">
        <ele>44.4</ele>
        <time>2019-12-10T12:24:46Z</time>
      </trkpt>
      <trkpt lat="43.51549" lon="6.7575">
        <ele>44.4</ele>
        <time>2019-12-10T12:24:48Z</time>
      </trkpt>
      <trkpt lat="43.51545" lon="6.75747">
        <ele>44.4</ele>
        <time>2019-12-10T12:24:50Z</time>
      </trkpt>
      <trkpt lat="43.51543" lon="6.75743">
        <ele>45.3</ele>
        <time>2019-12-10T12:24:52Z</time>
      </trkpt>
      <trkpt lat="43.51543" lon="6.75743">
        <ele>45.3</ele>
        <time>2019-12-10T12:24:54Z</time>
      </trkpt>
      <trkpt lat="43.51543" lon="6.75743">
        <ele>45.8</ele>
        <time>2019-12-10T12:24:56Z</time>
      </trkpt>
      <trkpt lat="43.51543" lon="6.75743">
        <ele>45.8</ele>
        <time>2019-12-10T12:24:58Z</time>
      </trkpt>
      <trkpt lat="43.51543" lon="6.75743">
        <ele>45.8</ele>
        <time>2019-12-10T12:25:00Z</time>
      </trkpt>
      <trkpt lat="43.51543" lon="6.75743">
        <ele>45.8</ele>
        <time>2019-12-10T12:25:02Z</time>
      </trkpt>
      <trkpt lat="43.51543" lon="6.75743">
        <ele>45.8</ele>
        <time>2019-12-10T12:25:04Z</time>
      </trkpt>
      <trkpt lat="43.51543" lon="6.75743">
        <ele>45.8</ele>
        <time>2019-12-10T12:25:06Z</time>
      </trkpt>
      <trkpt lat="43.51543" lon="6.75743">
        <ele>45.8</ele>
        <time>2019-12-10T12:25:08Z</time>
      </trkpt>
      <trkpt lat="43.51543" lon="6.75743">
        <ele>45.8</ele>
        <time>2019-12-10T12:25:10Z</time>
      </trkpt>
      <trkpt lat="43.51543" lon="6.75743">
        <ele>45.8</ele>
        <time>2019-12-10T12:25:12Z</time>
      </trkpt>
      <trkpt lat="43.51543" lon="6.75743">
        <ele>45.8</ele>
        <time>2019-12-10T12:25:14Z</time>
      </trkpt>
      <trkpt lat="43.51543" lon="6.75743">
        <ele>45.8</ele>
        <time>2019-12-10T12:25:16Z</time>
      </trkpt>
      <trkpt lat="43.51543" lon="6.75743">
        <ele>45.8</ele>
        <time>2019-12-10T12:25:18Z</time>
      </trkpt>
      <trkpt lat="43.51543" lon="6.75743">
        <ele>45.8</ele>
        <time>2019-12-10T12:25:20Z</time>
      </trkpt>
      <trkpt lat="43.51543" lon="6.75743">
        <ele>45.8</ele>
        <time>2019-12-10T12:25:22Z</time>
      </trkpt>
      <trkpt lat="43.51543" lon="6.75743">
        <ele>45.8</ele>
        <time>2019-12-10T12:25:24Z</time>
      </trkpt>
      <trkpt lat="43.51543" lon="6.75743">
        <ele>45.8</ele>
        <time>2019-12-10T12:25:26Z</time>
      </trkpt>
      <trkpt lat="43.51543" lon="6.75743">
        <ele>45.8</ele>
        <time>2019-12-10T12:25:28Z</time>
      </trkpt>
      <trkpt lat="43.51543" lon="6.75743">
        <ele>45.8</ele>
        <time>2019-12-10T12:25:30Z</time>
      </trkpt>
      <trkpt lat="43.51543" lon="6.75743">
        <ele>45.8</ele>
        <time>2019-12-10T12:25:32Z</time>
      </trkpt>
      <trkpt lat="43.51543" lon="6.75743">
        <ele>45.8</ele>
        <time>2019-12-10T12:25:34Z</time>
      </trkpt>
      <trkpt lat="43.51543" lon="6.75743">
        <ele>45.8</ele>
        <time>2019-12-10T12:25:36Z</time>
      </trkpt>
      <trkpt lat="43.51543" lon="6.75743">
        <ele>45.8</ele>
        <time>2019-12-10T12:25:38Z</time>
      </trkpt>
      <trkpt lat="43.51543" lon="6.75743">
        <ele>45.8</ele>
        <time>2019-12-10T12:25:40Z</time>
      </trkpt>
      <trkpt lat="43.51543" lon="6.75743">
        <ele>45.8</ele>
        <time>2019-12-10T12:25:42Z</time>
      </trkpt>
      <trkpt lat="43.51543" lon="6.75743">
        <ele>45.8</ele>
        <time>2019-12-10T12:25:44Z</time>
      </trkpt>
      <trkpt lat="43.51543" lon="6.75743">
        <ele>45.8</ele>
        <time>2019-12-10T12:25:46Z</time>
      </trkpt>
      <trkpt lat="43.51543" lon="6.75743">
        <ele>45.8</ele>
        <time>2019-12-10T12:25:48Z</time>
      </trkpt>
      <trkpt lat="43.51543" lon="6.75743">
        <ele>45.8</ele>
        <time>2019-12-10T12:25:50Z</time>
      </trkpt>
      <trkpt lat="43.51543" lon="6.75743">
        <ele>45.8</ele>
        <time>2019-12-10T12:25:52Z</time>
      </trkpt>
      <trkpt lat="43.51543" lon="6.75743">
        <ele>45.8</ele>
        <time>2019-12-10T12:25:54Z</time>
      </trkpt>
      <trkpt lat="43.51543" lon="6.75742">
        <ele>45.8</ele>
        <time>2019-12-10T12:25:56Z</time>
      </trkpt>
      <trkpt lat="43.51543" lon="6.75742">
        <ele>45.8</ele>
        <time>2019-12-10T12:25:58Z</time>
      </trkpt>
      <trkpt lat="43.51543" lon="6.75742">
        <ele>45.8</ele>
        <time>2019-12-10T12:26:00Z</time>
      </trkpt>
      <trkpt lat="43.51543" lon="6.75742">
        <ele>45.8</ele>
        <time>2019-12-10T12:26:02Z</time>
      </trkpt>
      <trkpt lat="43.51543" lon="6.75742">
        <ele>45.8</ele>
        <time>2019-12-10T12:26:04Z</time>
      </trkpt>
      <trkpt lat="43.51543" lon="6.75742">
        <ele>45.8</ele>
        <time>2019-12-10T12:26:06Z</time>
      </trkpt>
      <trkpt lat="43.51543" lon="6.75742">
        <ele>45.8</ele>
        <time>2019-12-10T12:26:08Z</time>
      </trkpt>
      <trkpt lat="43.51542" lon="6.75742">
        <ele>45.8</ele>
        <time>2019-12-10T12:26:10Z</time>
      </trkpt>
      <trkpt lat="43.51538" lon="6.7574">
        <ele>45.8</ele>
        <time>2019-12-10T12:26:12Z</time>
      </trkpt>
      <trkpt lat="43.51533" lon="6.75739">
        <ele>45.8</ele>
        <time>2019-12-10T12:26:14Z</time>
      </trkpt>
      <trkpt lat="43.51528" lon="6.75736">
        <ele>45.8</ele>
        <time>2019-12-10T12:26:16Z</time>
      </trkpt>
      <trkpt lat="43.51523" lon="6.75733">
        <ele>45.8</ele>
        <time>2019-12-10T12:26:18Z</time>
      </trkpt>
      <trkpt lat="43.51519" lon="6.75728">
        <ele>45.8</ele>
        <time>2019-12-10T12:26:20Z</time>
      </trkpt>
      <trkpt lat="43.51514" lon="6.75722">
        <ele>46.3</ele>
        <time>2019-12-10T12:26:22Z</time>
      </trkpt>
      <trkpt lat="43.51511" lon="6.75717">
        <ele>46.3</ele>
        <time>2019-12-10T12:26:24Z</time>
      </trkpt>
      <trkpt lat="43.51508" lon="6.75713">
        <ele>46.3</ele>
        <time>2019-12-10T12:26:26Z</time>
      </trkpt>
      <trkpt lat="43.51503" lon="6.7571">
        <ele>46.3</ele>
        <time>2019-12-10T12:26:28Z</time>
      </trkpt>
      <trkpt lat="43.51499" lon="6.75707">
        <ele>46.3</ele>
        <time>2019-12-10T12:26:30Z</time>
      </trkpt>
      <trkpt lat="43.51496" lon="6.75703">
        <ele>46.3</ele>
        <time>2019-12-10T12:26:32Z</time>
      </trkpt>
      <trkpt lat="43.51495" lon="6.75698">
        <ele>46.3</ele>
        <time>2019-12-10T12:26:34Z</time>
      </trkpt>
      <trkpt lat="43.51496" lon="6.75693">
        <ele>45.8</ele>
        <time>2019-12-10T12:26:36Z</time>
      </trkpt>
      <trkpt lat="43.51497" lon="6.75688">
        <ele>45.8</ele>
        <time>2019-12-10T12:26:38Z</time>
      </trkpt>
      <trkpt lat="43.51497" lon="6.75681">
        <ele>46.3</ele>
        <time>2019-12-10T12:26:40Z</time>
      </trkpt>
      <trkpt lat="43.51495" lon="6.75675">
        <ele>46.3</ele>
        <time>2019-12-10T12:26:42Z</time>
      </trkpt>
      <trkpt lat="43.51494" lon="6.75669">
        <ele>47.2</ele>
        <time>2019-12-10T12:26:44Z</time>
      </trkpt>
      <trkpt lat="43.51493" lon="6.75664">
        <ele>47.2</ele>
        <time>2019-12-10T12:26:46Z</time>
      </trkpt>
      <trkpt lat="43.51492" lon="6.75659">
        <ele>47.7</ele>
        <time>2019-12-10T12:26:48Z</time>
      </trkpt>
      <trkpt lat="43.5149" lon="6.75653">
        <ele>47.7</ele>
        <time>2019-12-10T12:26:50Z</time>
      </trkpt>
      <trkpt lat="43.5149" lon="6.75647">
        <ele>48.2</ele>
        <time>2019-12-10T12:26:52Z</time>
      </trkpt>
      <trkpt lat="43.5149" lon="6.75641">
        <ele>48.2</ele>
        <time>2019-12-10T12:26:54Z</time>
      </trkpt>
      <trkpt lat="43.51489" lon="6.75637">
        <ele>48.7</ele>
        <time>2019-12-10T12:26:56Z</time>
      </trkpt>
      <trkpt lat="43.51488" lon="6.75632">
        <ele>48.7</ele>
        <time>2019-12-10T12:26:58Z</time>
      </trkpt>
      <trkpt lat="43.51487" lon="6.75625">
        <ele>49.2</ele>
        <time>2019-12-10T12:27:00Z</time>
      </trkpt>
      <trkpt lat="43.51486" lon="6.75619">
        <ele>49.2</ele>
        <time>2019-12-10T12:27:02Z</time>
      </trkpt>
      <trkpt lat="43.51485" lon="6.75612">
        <ele>49.6</ele>
        <time>2019-12-10T12:27:04Z</time>
      </trkpt>
      <trkpt lat="43.51485" lon="6.75606">
        <ele>49.6</ele>
        <time>2019-12-10T12:27:06Z</time>
      </trkpt>
      <trkpt lat="43.51484" lon="6.75599">
        <ele>49.6</ele>
        <time>2019-12-10T12:27:08Z</time>
      </trkpt>
      <trkpt lat="43.51483" lon="6.75593">
        <ele>50.1</ele>
        <time>2019-12-10T12:27:10Z</time>
      </trkpt>
      <trkpt lat="43.51482" lon="6.75587">
        <ele>50.6</ele>
        <time>2019-12-10T12:27:12Z</time>
      </trkpt>
      <trkpt lat="43.51479" lon="6.75582">
        <ele>51.1</ele>
        <time>2019-12-10T12:27:14Z</time>
      </trkpt>
      <trkpt lat="43.51475" lon="6.75578">
        <ele>51.6</ele>
        <time>2019-12-10T12:27:16Z</time>
      </trkpt>
      <trkpt lat="43.51471" lon="6.75576">
        <ele>52</ele>
        <time>2019-12-10T12:27:18Z</time>
      </trkpt>
      <trkpt lat="43.51469" lon="6.75575">
        <ele>52.5</ele>
        <time>2019-12-10T12:27:20Z</time>
      </trkpt>
      <trkpt lat="43.51469" lon="6.75576">
        <ele>52.5</ele>
        <time>2019-12-10T12:27:22Z</time>
      </trkpt>
      <trkpt lat="43.51469" lon="6.75576">
        <ele>52.5</ele>
        <time>2019-12-10T12:27:24Z</time>
      </trkpt>
      <trkpt lat="43.51469" lon="6.75576">
        <ele>52.5</ele>
        <time>2019-12-10T12:27:26Z</time>
      </trkpt>
      <trkpt lat="43.51469" lon="6.75575">
        <ele>52.5</ele>
        <time>2019-12-10T12:27:28Z</time>
      </trkpt>
      <trkpt lat="43.51468" lon="6.75575">
        <ele>52.5</ele>
        <time>2019-12-10T12:27:30Z</time>
      </trkpt>
      <trkpt lat="43.51468" lon="6.75576">
        <ele>52.5</ele>
        <time>2019-12-10T12:27:32Z</time>
      </trkpt>
      <trkpt lat="43.51468" lon="6.75576">
        <ele>52.5</ele>
        <time>2019-12-10T12:27:34Z</time>
      </trkpt>
      <trkpt lat="43.51468" lon="6.75576">
        <ele>52.5</ele>
        <time>2019-12-10T12:27:36Z</time>
      </trkpt>
      <trkpt lat="43.51468" lon="6.75576">
        <ele>52.5</ele>
        <time>2019-12-10T12:27:38Z</time>
      </trkpt>
      <trkpt lat="43.51468" lon="6.75576">
        <ele>52.5</ele>
        <time>2019-12-10T12:27:40Z</time>
      </trkpt>
      <trkpt lat="43.51468" lon="6.75576">
        <ele>52.5</ele>
        <time>2019-12-10T12:27:42Z</time>
      </trkpt>
      <trkpt lat="43.51468" lon="6.75576">
        <ele>52.5</ele>
        <time>2019-12-10T12:27:44Z</time>
      </trkpt>
      <trkpt lat="43.51468" lon="6.75576">
        <ele>52.5</ele>
        <time>2019-12-10T12:27:46Z</time>
      </trkpt>
      <trkpt lat="43.51468" lon="6.75576">
        <ele>52.5</ele>
        <time>2019-12-10T12:27:48Z</time>
      </trkpt>
      <trkpt lat="43.51468" lon="6.75576">
        <ele>52.5</ele>
        <time>2019-12-10T12:27:50Z</time>
      </trkpt>
      <trkpt lat="43.51467" lon="6.75576">
        <ele>52.5</ele>
        <time>2019-12-10T12:27:52Z</time>
      </trkpt>
      <trkpt lat="43.51467" lon="6.75576">
        <ele>52.5</ele>
        <time>2019-12-10T12:27:54Z</time>
      </trkpt>
      <trkpt lat="43.51465" lon="6.75577">
        <ele>53</ele>
        <time>2019-12-10T12:27:56Z</time>
      </trkpt>
      <trkpt lat="43.51464" lon="6.75579">
        <ele>53.5</ele>
        <time>2019-12-10T12:27:58Z</time>
      </trkpt>
      <trkpt lat="43.51464" lon="6.75579">
        <ele>53.5</ele>
        <time>2019-12-10T12:28:00Z</time>
      </trkpt>
      <trkpt lat="43.51462" lon="6.7558">
        <ele>54</ele>
        <time>2019-12-10T12:28:02Z</time>
      </trkpt>
      <trkpt lat="43.5146" lon="6.7558">
        <ele>54</ele>
        <time>2019-12-10T12:28:04Z</time>
      </trkpt>
      <trkpt lat="43.51458" lon="6.7558">
        <ele>54</ele>
        <time>2019-12-10T12:28:06Z</time>
      </trkpt>
      <trkpt lat="43.51456" lon="6.75581">
        <ele>54.5</ele>
        <time>2019-12-10T12:28:08Z</time>
      </trkpt>
      <trkpt lat="43.51453" lon="6.75583">
        <ele>54.9</ele>
        <time>2019-12-10T12:28:10Z</time>
      </trkpt>
      <trkpt lat="43.51449" lon="6.75585">
        <ele>55.4</ele>
        <time>2019-12-10T12:28:12Z</time>
      </trkpt>
      <trkpt lat="43.51446" lon="6.75587">
        <ele>55.9</ele>
        <time>2019-12-10T12:28:14Z</time>
      </trkpt>
      <trkpt lat="43.51445" lon="6.75589">
        <ele>55.9</ele>
        <time>2019-12-10T12:28:16Z</time>
      </trkpt>
      <trkpt lat="43.51442" lon="6.75592">
        <ele>56.4</ele>
        <time>2019-12-10T12:28:18Z</time>
      </trkpt>
      <trkpt lat="43.51441" lon="6.75594">
        <ele>56.9</ele>
        <time>2019-12-10T12:28:20Z</time>
      </trkpt>
      <trkpt lat="43.51441" lon="6.75594">
        <ele>57.8</ele>
        <time>2019-12-10T12:28:22Z</time>
      </trkpt>
      <trkpt lat="43.5144" lon="6.75595">
        <ele>58.3</ele>
        <time>2019-12-10T12:28:24Z</time>
      </trkpt>
      <trkpt lat="43.51439" lon="6.75597">
        <ele>58.8</ele>
        <time>2019-12-10T12:28:26Z</time>
      </trkpt>
      <trkpt lat="43.51438" lon="6.75598">
        <ele>59.3</ele>
        <time>2019-12-10T12:28:28Z</time>
      </trkpt>
      <trkpt lat="43.51438" lon="6.756">
        <ele>59.7</ele>
        <time>2019-12-10T12:28:30Z</time>
      </trkpt>
      <trkpt lat="43.51439" lon="6.75603">
        <ele>59.7</ele>
        <time>2019-12-10T12:28:32Z</time>
      </trkpt>
      <trkpt lat="43.51437" lon="6.75606">
        <ele>60.7</ele>
        <time>2019-12-10T12:28:34Z</time>
      </trkpt>
      <trkpt lat="43.51435" lon="6.7561">
        <ele>61.2</ele>
        <time>2019-12-10T12:28:36Z</time>
      </trkpt>
      <trkpt lat="43.51432" lon="6.75614">
        <ele>61.7</ele>
        <time>2019-12-10T12:28:38Z</time>
      </trkpt>
      <trkpt lat="43.5143" lon="6.75618">
        <ele>62.1</ele>
        <time>2019-12-10T12:28:40Z</time>
      </trkpt>
      <trkpt lat="43.51428" lon="6.75622">
        <ele>63.1</ele>
        <time>2019-12-10T12:28:42Z</time>
      </trkpt>
      <trkpt lat="43.51426" lon="6.75627">
        <ele>63.6</ele>
        <time>2019-12-10T12:28:44Z</time>
      </trkpt>
      <trkpt lat="43.51424" lon="6.7563">
        <ele>64.5</ele>
        <time>2019-12-10T12:28:46Z</time>
      </trkpt>
      <trkpt lat="43.5142" lon="6.75633">
        <ele>65</ele>
        <time>2019-12-10T12:28:48Z</time>
      </trkpt>
      <trkpt lat="43.51416" lon="6.75635">
        <ele>65.5</ele>
        <time>2019-12-10T12:28:50Z</time>
      </trkpt>
      <trkpt lat="43.51412" lon="6.75637">
        <ele>66</ele>
        <time>2019-12-10T12:28:52Z</time>
      </trkpt>
      <trkpt lat="43.5141" lon="6.7564">
        <ele>66.5</ele>
        <time>2019-12-10T12:28:54Z</time>
      </trkpt>
      <trkpt lat="43.51407" lon="6.75644">
        <ele>66.9</ele>
        <time>2019-12-10T12:28:56Z</time>
      </trkpt>
      <trkpt lat="43.51404" lon="6.75647">
        <ele>67.4</ele>
        <time>2019-12-10T12:28:58Z</time>
      </trkpt>
      <trkpt lat="43.51402" lon="6.75652">
        <ele>68.4</ele>
        <time>2019-12-10T12:29:00Z</time>
      </trkpt>
      <trkpt lat="43.514" lon="6.75656">
        <ele>68.9</ele>
        <time>2019-12-10T12:29:02Z</time>
      </trkpt>
      <trkpt lat="43.51398" lon="6.7566">
        <ele>69.8</ele>
        <time>2019-12-10T12:29:04Z</time>
      </trkpt>
      <trkpt lat="43.51395" lon="6.75663">
        <ele>69.8</ele>
        <time>2019-12-10T12:29:06Z</time>
      </trkpt>
      <trkpt lat="43.5139" lon="6.75668">
        <ele>69.8</ele>
        <time>2019-12-10T12:29:08Z</time>
      </trkpt>
      <trkpt lat="43.51386" lon="6.75672">
        <ele>69.8</ele>
        <time>2019-12-10T12:29:10Z</time>
      </trkpt>
      <trkpt lat="43.51383" lon="6.75675">
        <ele>69.8</ele>
        <time>2019-12-10T12:29:12Z</time>
      </trkpt>
      <trkpt lat="43.51379" lon="6.75678">
        <ele>69.8</ele>
        <time>2019-12-10T12:29:14Z</time>
      </trkpt>
      <trkpt lat="43.51375" lon="6.75677">
        <ele>69.4</ele>
        <time>2019-12-10T12:29:16Z</time>
      </trkpt>
      <trkpt lat="43.51371" lon="6.75675">
        <ele>68.9</ele>
        <time>2019-12-10T12:29:18Z</time>
      </trkpt>
      <trkpt lat="43.51369" lon="6.7567">
        <ele>69.4</ele>
        <time>2019-12-10T12:29:20Z</time>
      </trkpt>
      <trkpt lat="43.5137" lon="6.75666">
        <ele>69.4</ele>
        <time>2019-12-10T12:29:22Z</time>
      </trkpt>
      <trkpt lat="43.51371" lon="6.75662">
        <ele>69.8</ele>
        <time>2019-12-10T12:29:24Z</time>
      </trkpt>
      <trkpt lat="43.51374" lon="6.75658">
        <ele>70.3</ele>
        <time>2019-12-10T12:29:26Z</time>
      </trkpt>
      <trkpt lat="43.51376" lon="6.75654">
        <ele>70.8</ele>
        <time>2019-12-10T12:29:28Z</time>
      </trkpt>
      <trkpt lat="43.51377" lon="6.7565">
        <ele>71.3</ele>
        <time>2019-12-10T12:29:30Z</time>
      </trkpt>
      <trkpt lat="43.51379" lon="6.75647">
        <ele>70.3</ele>
        <time>2019-12-10T12:29:32Z</time>
      </trkpt>
      <trkpt lat="43.51381" lon="6.75645">
        <ele>69.8</ele>
        <time>2019-12-10T12:29:34Z</time>
      </trkpt>
      <trkpt lat="43.51382" lon="6.75641">
        <ele>70.3</ele>
        <time>2019-12-10T12:29:36Z</time>
      </trkpt>
      <trkpt lat="43.51382" lon="6.75636">
        <ele>70.3</ele>
        <time>2019-12-10T12:29:38Z</time>
      </trkpt>
      <trkpt lat="43.51382" lon="6.75632">
        <ele>70.8</ele>
        <time>2019-12-10T12:29:40Z</time>
      </trkpt>
      <trkpt lat="43.51381" lon="6.75629">
        <ele>70.8</ele>
        <time>2019-12-10T12:29:42Z</time>
      </trkpt>
      <trkpt lat="43.51381" lon="6.75625">
        <ele>70.8</ele>
        <time>2019-12-10T12:29:44Z</time>
      </trkpt>
      <trkpt lat="43.51382" lon="6.75621">
        <ele>70.8</ele>
        <time>2019-12-10T12:29:46Z</time>
      </trkpt>
      <trkpt lat="43.51383" lon="6.75617">
        <ele>70.8</ele>
        <time>2019-12-10T12:29:48Z</time>
      </trkpt>
      <trkpt lat="43.51384" lon="6.75613">
        <ele>70.8</ele>
        <time>2019-12-10T12:29:50Z</time>
      </trkpt>
      <trkpt lat="43.51384" lon="6.75609">
        <ele>71.3</ele>
        <time>2019-12-10T12:29:52Z</time>
      </trkpt>
      <trkpt lat="43.51383" lon="6.75604">
        <ele>71.3</ele>
        <time>2019-12-10T12:29:54Z</time>
      </trkpt>
      <trkpt lat="43.51383" lon="6.756">
        <ele>71.3</ele>
        <time>2019-12-10T12:29:56Z</time>
      </trkpt>
      <trkpt lat="43.51383" lon="6.75596">
        <ele>71.8</ele>
        <time>2019-12-10T12:29:58Z</time>
      </trkpt>
      <trkpt lat="43.51383" lon="6.75591">
        <ele>71.8</ele>
        <time>2019-12-10T12:30:00Z</time>
      </trkpt>
      <trkpt lat="43.51383" lon="6.75587">
        <ele>71.8</ele>
        <time>2019-12-10T12:30:02Z</time>
      </trkpt>
      <trkpt lat="43.51384" lon="6.75582">
        <ele>72.2</ele>
        <time>2019-12-10T12:30:04Z</time>
      </trkpt>
      <trkpt lat="43.51384" lon="6.75577">
        <ele>72.2</ele>
        <time>2019-12-10T12:30:06Z</time>
      </trkpt>
      <trkpt lat="43.51383" lon="6.75572">
        <ele>72.2</ele>
        <time>2019-12-10T12:30:08Z</time>
      </trkpt>
      <trkpt lat="43.51383" lon="6.75567">
        <ele>72.7</ele>
        <time>2019-12-10T12:30:10Z</time>
      </trkpt>
      <trkpt lat="43.51382" lon="6.75563">
        <ele>72.7</ele>
        <time>2019-12-10T12:30:12Z</time>
      </trkpt>
      <trkpt lat="43.5138" lon="6.75559">
        <ele>73.2</ele>
        <time>2019-12-10T12:30:14Z</time>
      </trkpt>
      <trkpt lat="43.51379" lon="6.75555">
        <ele>73.2</ele>
        <time>2019-12-10T12:30:16Z</time>
      </trkpt>
      <trkpt lat="43.51377" lon="6.75552">
        <ele>73.2</ele>
        <time>2019-12-10T12:30:18Z</time>
      </trkpt>
      <trkpt lat="43.51376" lon="6.75548">
        <ele>73.2</ele>
        <time>2019-12-10T12:30:20Z</time>
      </trkpt>
      <trkpt lat="43.51374" lon="6.75545">
        <ele>73.7</ele>
        <time>2019-12-10T12:30:22Z</time>
      </trkpt>
      <trkpt lat="43.51373" lon="6.7554">
        <ele>73.7</ele>
        <time>2019-12-10T12:30:24Z</time>
      </trkpt>
      <trkpt lat="43.51372" lon="6.75535">
        <ele>74.2</ele>
        <time>2019-12-10T12:30:26Z</time>
      </trkpt>
      <trkpt lat="43.51372" lon="6.7553">
        <ele>74.6</ele>
        <time>2019-12-10T12:30:28Z</time>
      </trkpt>
      <trkpt lat="43.51372" lon="6.75526">
        <ele>74.6</ele>
        <time>2019-12-10T12:30:30Z</time>
      </trkpt>
      <trkpt lat="43.51372" lon="6.75521">
        <ele>75.1</ele>
        <time>2019-12-10T12:30:32Z</time>
      </trkpt>
      <trkpt lat="43.51371" lon="6.75516">
        <ele>75.6</ele>
        <time>2019-12-10T12:30:34Z</time>
      </trkpt>
      <trkpt lat="43.51371" lon="6.75511">
        <ele>75.1</ele>
        <time>2019-12-10T12:30:36Z</time>
      </trkpt>
      <trkpt lat="43.5137" lon="6.75507">
        <ele>75.6</ele>
        <time>2019-12-10T12:30:38Z</time>
      </trkpt>
      <trkpt lat="43.5137" lon="6.75502">
        <ele>76.1</ele>
        <time>2019-12-10T12:30:40Z</time>
      </trkpt>
      <trkpt lat="43.51369" lon="6.75497">
        <ele>76.1</ele>
        <time>2019-12-10T12:30:42Z</time>
      </trkpt>
      <trkpt lat="43.51367" lon="6.75492">
        <ele>76.6</ele>
        <time>2019-12-10T12:30:44Z</time>
      </trkpt>
      <trkpt lat="43.51366" lon="6.75488">
        <ele>76.6</ele>
        <time>2019-12-10T12:30:46Z</time>
      </trkpt>
      <trkpt lat="43.51364" lon="6.75484">
        <ele>76.6</ele>
        <time>2019-12-10T12:30:48Z</time>
      </trkpt>
      <trkpt lat="43.51362" lon="6.7548">
        <ele>76.6</ele>
        <time>2019-12-10T12:30:50Z</time>
      </trkpt>
      <trkpt lat="43.5136" lon="6.75477">
        <ele>76.6</ele>
        <time>2019-12-10T12:30:52Z</time>
      </trkpt>
      <trkpt lat="43.51357" lon="6.75473">
        <ele>76.6</ele>
        <time>2019-12-10T12:30:54Z</time>
      </trkpt>
      <trkpt lat="43.51354" lon="6.75471">
        <ele>76.6</ele>
        <time>2019-12-10T12:30:56Z</time>
      </trkpt>
      <trkpt lat="43.51352" lon="6.75467">
        <ele>77</ele>
        <time>2019-12-10T12:30:58Z</time>
      </trkpt>
      <trkpt lat="43.51349" lon="6.75465">
        <ele>77</ele>
        <time>2019-12-10T12:31:00Z</time>
      </trkpt>
      <trkpt lat="43.51347" lon="6.75462">
        <ele>77.5</ele>
        <time>2019-12-10T12:31:02Z</time>
      </trkpt>
      <trkpt lat="43.51344" lon="6.75459">
        <ele>78</ele>
        <time>2019-12-10T12:31:04Z</time>
      </trkpt>
      <trkpt lat="43.51342" lon="6.75454">
        <ele>78</ele>
        <time>2019-12-10T12:31:06Z</time>
      </trkpt>
      <trkpt lat="43.5134" lon="6.7545">
        <ele>78</ele>
        <time>2019-12-10T12:31:08Z</time>
      </trkpt>
      <trkpt lat="43.51339" lon="6.75445">
        <ele>79</ele>
        <time>2019-12-10T12:31:10Z</time>
      </trkpt>
      <trkpt lat="43.51339" lon="6.7544">
        <ele>79.4</ele>
        <time>2019-12-10T12:31:12Z</time>
      </trkpt>
      <trkpt lat="43.5134" lon="6.75435">
        <ele>79.9</ele>
        <time>2019-12-10T12:31:14Z</time>
      </trkpt>
      <trkpt lat="43.51341" lon="6.75431">
        <ele>80.4</ele>
        <time>2019-12-10T12:31:16Z</time>
      </trkpt>
      <trkpt lat="43.51342" lon="6.75426">
        <ele>81.4</ele>
        <time>2019-12-10T12:31:18Z</time>
      </trkpt>
      <trkpt lat="43.51343" lon="6.75421">
        <ele>82.3</ele>
        <time>2019-12-10T12:31:20Z</time>
      </trkpt>
      <trkpt lat="43.51345" lon="6.75416">
        <ele>83.3</ele>
        <time>2019-12-10T12:31:22Z</time>
      </trkpt>
      <trkpt lat="43.51345" lon="6.75411">
        <ele>84.3</ele>
        <time>2019-12-10T12:31:24Z</time>
      </trkpt>
      <trkpt lat="43.51345" lon="6.75408">
        <ele>85.7</ele>
        <time>2019-12-10T12:31:26Z</time>
      </trkpt>
      <trkpt lat="43.51345" lon="6.75408">
        <ele>85.7</ele>
        <time>2019-12-10T12:31:28Z</time>
      </trkpt>
      <trkpt lat="43.51345" lon="6.75408">
        <ele>85.2</ele>
        <time>2019-12-10T12:31:30Z</time>
      </trkpt>
      <trkpt lat="43.51345" lon="6.75408">
        <ele>85.2</ele>
        <time>2019-12-10T12:31:32Z</time>
      </trkpt>
      <trkpt lat="43.51345" lon="6.75408">
        <ele>85.2</ele>
        <time>2019-12-10T12:31:34Z</time>
      </trkpt>
      <trkpt lat="43.51345" lon="6.75407">
        <ele>85.2</ele>
        <time>2019-12-10T12:31:36Z</time>
      </trkpt>
      <trkpt lat="43.51345" lon="6.75407">
        <ele>85.7</ele>
        <time>2019-12-10T12:31:38Z</time>
      </trkpt>
      <trkpt lat="43.51346" lon="6.75406">
        <ele>85.7</ele>
        <time>2019-12-10T12:31:40Z</time>
      </trkpt>
      <trkpt lat="43.51346" lon="6.75404">
        <ele>86.2</ele>
        <time>2019-12-10T12:31:42Z</time>
      </trkpt>
      <trkpt lat="43.51347" lon="6.75403">
        <ele>86.2</ele>
        <time>2019-12-10T12:31:44Z</time>
      </trkpt>
      <trkpt lat="43.51348" lon="6.75401">
        <ele>86.7</ele>
        <time>2019-12-10T12:31:46Z</time>
      </trkpt>
      <trkpt lat="43.51348" lon="6.75401">
        <ele>87.1</ele>
        <time>2019-12-10T12:31:48Z</time>
      </trkpt>
      <trkpt lat="43.51348" lon="6.75402">
        <ele>87.1</ele>
        <time>2019-12-10T12:31:50Z</time>
      </trkpt>
      <trkpt lat="43.51348" lon="6.75402">
        <ele>87.1</ele>
        <time>2019-12-10T12:31:52Z</time>
      </trkpt>
      <trkpt lat="43.51348" lon="6.75402">
        <ele>87.6</ele>
        <time>2019-12-10T12:31:54Z</time>
      </trkpt>
      <trkpt lat="43.51348" lon="6.75402">
        <ele>87.6</ele>
        <time>2019-12-10T12:31:56Z</time>
      </trkpt>
      <trkpt lat="43.51348" lon="6.75402">
        <ele>87.6</ele>
        <time>2019-12-10T12:31:58Z</time>
      </trkpt>
      <trkpt lat="43.51347" lon="6.75402">
        <ele>87.6</ele>
        <time>2019-12-10T12:32:00Z</time>
      </trkpt>
      <trkpt lat="43.51346" lon="6.75403">
        <ele>87.1</ele>
        <time>2019-12-10T12:32:02Z</time>
      </trkpt>
      <trkpt lat="43.51345" lon="6.754">
        <ele>87.1</ele>
        <time>2019-12-10T12:32:04Z</time>
      </trkpt>
      <trkpt lat="43.51345" lon="6.75396">
        <ele>87.6</ele>
        <time>2019-12-10T12:32:06Z</time>
      </trkpt>
      <trkpt lat="43.51345" lon="6.75395">
        <ele>86.7</ele>
        <time>2019-12-10T12:32:08Z</time>
      </trkpt>
      <trkpt lat="43.51344" lon="6.75391">
        <ele>86.7</ele>
        <time>2019-12-10T12:32:10Z</time>
      </trkpt>
      <trkpt lat="43.51343" lon="6.75387">
        <ele>86.7</ele>
        <time>2019-12-10T12:32:12Z</time>
      </trkpt>
      <trkpt lat="43.51342" lon="6.75384">
        <ele>86.7</ele>
        <time>2019-12-10T12:32:14Z</time>
      </trkpt>
      <trkpt lat="43.51341" lon="6.7538">
        <ele>86.7</ele>
        <time>2019-12-10T12:32:16Z</time>
      </trkpt>
      <trkpt lat="43.5134" lon="6.75377">
        <ele>86.7</ele>
        <time>2019-12-10T12:32:18Z</time>
      </trkpt>
      <trkpt lat="43.51338" lon="6.75373">
        <ele>86.7</ele>
        <time>2019-12-10T12:32:20Z</time>
      </trkpt>
      <trkpt lat="43.51337" lon="6.7537">
        <ele>87.1</ele>
        <time>2019-12-10T12:32:22Z</time>
      </trkpt>
      <trkpt lat="43.51337" lon="6.75367">
        <ele>87.1</ele>
        <time>2019-12-10T12:32:24Z</time>
      </trkpt>
      <trkpt lat="43.51337" lon="6.75363">
        <ele>87.1</ele>
        <time>2019-12-10T12:32:26Z</time>
      </trkpt>
      <trkpt lat="43.51337" lon="6.7536">
        <ele>87.1</ele>
        <time>2019-12-10T12:32:28Z</time>
      </trkpt>
      <trkpt lat="43.51335" lon="6.75358">
        <ele>87.6</ele>
        <time>2019-12-10T12:32:30Z</time>
      </trkpt>
      <trkpt lat="43.51335" lon="6.75354">
        <ele>87.6</ele>
        <time>2019-12-10T12:32:32Z</time>
      </trkpt>
      <trkpt lat="43.51335" lon="6.75351">
        <ele>87.6</ele>
        <time>2019-12-10T12:32:34Z</time>
      </trkpt>
      <trkpt lat="43.51335" lon="6.75347">
        <ele>87.6</ele>
        <time>2019-12-10T12:32:36Z</time>
      </trkpt>
      <trkpt lat="43.51334" lon="6.75343">
        <ele>88.1</ele>
        <time>2019-12-10T12:32:38Z</time>
      </trkpt>
      <trkpt lat="43.51333" lon="6.75339">
        <ele>88.1</ele>
        <time>2019-12-10T12:32:40Z</time>
      </trkpt>
      <trkpt lat="43.51334" lon="6.75335">
        <ele>88.1</ele>
        <time>2019-12-10T12:32:42Z</time>
      </trkpt>
      <trkpt lat="43.51334" lon="6.75332">
        <ele>88.6</ele>
        <time>2019-12-10T12:32:44Z</time>
      </trkpt>
      <trkpt lat="43.51334" lon="6.75328">
        <ele>89.1</ele>
        <time>2019-12-10T12:32:46Z</time>
      </trkpt>
      <trkpt lat="43.51334" lon="6.75325">
        <ele>89.5</ele>
        <time>2019-12-10T12:32:48Z</time>
      </trkpt>
      <trkpt lat="43.51333" lon="6.75321">
        <ele>89.1</ele>
        <time>2019-12-10T12:32:50Z</time>
      </trkpt>
      <trkpt lat="43.51332" lon="6.75318">
        <ele>89.1</ele>
        <time>2019-12-10T12:32:52Z</time>
      </trkpt>
      <trkpt lat="43.51331" lon="6.75314">
        <ele>89.1</ele>
        <time>2019-12-10T12:32:54Z</time>
      </trkpt>
      <trkpt lat="43.5133" lon="6.75311">
        <ele>89.1</ele>
        <time>2019-12-10T12:32:56Z</time>
      </trkpt>
      <trkpt lat="43.51329" lon="6.75308">
        <ele>89.1</ele>
        <time>2019-12-10T12:32:58Z</time>
      </trkpt>
      <trkpt lat="43.51327" lon="6.75305">
        <ele>89.1</ele>
        <time>2019-12-10T12:33:00Z</time>
      </trkpt>
      <trkpt lat="43.51325" lon="6.75302">
        <ele>89.1</ele>
        <time>2019-12-10T12:33:02Z</time>
      </trkpt>
      <trkpt lat="43.51324" lon="6.753">
        <ele>89.5</ele>
        <time>2019-12-10T12:33:04Z</time>
      </trkpt>
      <trkpt lat="43.51322" lon="6.75298">
        <ele>90</ele>
        <time>2019-12-10T12:33:06Z</time>
      </trkpt>
      <trkpt lat="43.51321" lon="6.75294">
        <ele>90.5</ele>
        <time>2019-12-10T12:33:08Z</time>
      </trkpt>
      <trkpt lat="43.51321" lon="6.7529">
        <ele>91.5</ele>
        <time>2019-12-10T12:33:10Z</time>
      </trkpt>
      <trkpt lat="43.5132" lon="6.75286">
        <ele>92.4</ele>
        <time>2019-12-10T12:33:12Z</time>
      </trkpt>
      <trkpt lat="43.51321" lon="6.75283">
        <ele>93.4</ele>
        <time>2019-12-10T12:33:14Z</time>
      </trkpt>
      <trkpt lat="43.51323" lon="6.7528">
        <ele>94.3</ele>
        <time>2019-12-10T12:33:16Z</time>
      </trkpt>
      <trkpt lat="43.51325" lon="6.75277">
        <ele>94.8</ele>
        <time>2019-12-10T12:33:18Z</time>
      </trkpt>
      <trkpt lat="43.51327" lon="6.75273">
        <ele>95.3</ele>
        <time>2019-12-10T12:33:20Z</time>
      </trkpt>
      <trkpt lat="43.51328" lon="6.7527">
        <ele>96.7</ele>
        <time>2019-12-10T12:33:22Z</time>
      </trkpt>
      <trkpt lat="43.51329" lon="6.75266">
        <ele>97.7</ele>
        <time>2019-12-10T12:33:24Z</time>
      </trkpt>
      <trkpt lat="43.51331" lon="6.75263">
        <ele>98.2</ele>
        <time>2019-12-10T12:33:26Z</time>
      </trkpt>
      <trkpt lat="43.51333" lon="6.7526">
        <ele>99.2</ele>
        <time>2019-12-10T12:33:28Z</time>
      </trkpt>
      <trkpt lat="43.51335" lon="6.75256">
        <ele>99.2</ele>
        <time>2019-12-10T12:33:30Z</time>
      </trkpt>
      <trkpt lat="43.51336" lon="6.75254">
        <ele>99.6</ele>
        <time>2019-12-10T12:33:32Z</time>
      </trkpt>
      <trkpt lat="43.51337" lon="6.75249">
        <ele>100.6</ele>
        <time>2019-12-10T12:33:34Z</time>
      </trkpt>
      <trkpt lat="43.51336" lon="6.75246">
        <ele>100.1</ele>
        <time>2019-12-10T12:33:36Z</time>
      </trkpt>
      <trkpt lat="43.51336" lon="6.75244">
        <ele>99.6</ele>
        <time>2019-12-10T12:33:38Z</time>
      </trkpt>
      <trkpt lat="43.51336" lon="6.75241">
        <ele>99.6</ele>
        <time>2019-12-10T12:33:40Z</time>
      </trkpt>
      <trkpt lat="43.51335" lon="6.75238">
        <ele>99.6</ele>
        <time>2019-12-10T12:33:42Z</time>
      </trkpt>
      <trkpt lat="43.51334" lon="6.75235">
        <ele>98.2</ele>
        <time>2019-12-10T12:33:44Z</time>
      </trkpt>
      <trkpt lat="43.51333" lon="6.75232">
        <ele>97.7</ele>
        <time>2019-12-10T12:33:46Z</time>
      </trkpt>
      <trkpt lat="43.51332" lon="6.75229">
        <ele>97.7</ele>
        <time>2019-12-10T12:33:48Z</time>
      </trkpt>
      <trkpt lat="43.5133" lon="6.75226">
        <ele>97.7</ele>
        <time>2019-12-10T12:33:50Z</time>
      </trkpt>
      <trkpt lat="43.51329" lon="6.75223">
        <ele>97.2</ele>
        <time>2019-12-10T12:33:52Z</time>
      </trkpt>
      <trkpt lat="43.51328" lon="6.7522">
        <ele>97.2</ele>
        <time>2019-12-10T12:33:54Z</time>
      </trkpt>
      <trkpt lat="43.51326" lon="6.75217">
        <ele>97.2</ele>
        <time>2019-12-10T12:33:56Z</time>
      </trkpt>
      <trkpt lat="43.51325" lon="6.75214">
        <ele>97.7</ele>
        <time>2019-12-10T12:33:58Z</time>
      </trkpt>
      <trkpt lat="43.51324" lon="6.75211">
        <ele>97.7</ele>
        <time>2019-12-10T12:34:00Z</time>
      </trkpt>
      <trkpt lat="43.51323" lon="6.75208">
        <ele>98.2</ele>
        <time>2019-12-10T12:34:02Z</time>
      </trkpt>
      <trkpt lat="43.51321" lon="6.75206">
        <ele>98.2</ele>
        <time>2019-12-10T12:34:04Z</time>
      </trkpt>
      <trkpt lat="43.5132" lon="6.75203">
        <ele>98.2</ele>
        <time>2019-12-10T12:34:06Z</time>
      </trkpt>
      <trkpt lat="43.51318" lon="6.752">
        <ele>98.2</ele>
        <time>2019-12-10T12:34:08Z</time>
      </trkpt>
      <trkpt lat="43.51318" lon="6.75197">
        <ele>98.7</ele>
        <time>2019-12-10T12:34:10Z</time>
      </trkpt>
      <trkpt lat="43.51316" lon="6.75193">
        <ele>98.7</ele>
        <time>2019-12-10T12:34:12Z</time>
      </trkpt>
      <trkpt lat="43.51315" lon="6.7519">
        <ele>99.2</ele>
        <time>2019-12-10T12:34:14Z</time>
      </trkpt>
      <trkpt lat="43.51313" lon="6.75187">
        <ele>99.2</ele>
        <time>2019-12-10T12:34:16Z</time>
      </trkpt>
      <trkpt lat="43.51312" lon="6.75184">
        <ele>99.2</ele>
        <time>2019-12-10T12:34:18Z</time>
      </trkpt>
      <trkpt lat="43.5131" lon="6.75181">
        <ele>99.6</ele>
        <time>2019-12-10T12:34:20Z</time>
      </trkpt>
      <trkpt lat="43.51309" lon="6.75177">
        <ele>100.1</ele>
        <time>2019-12-10T12:34:22Z</time>
      </trkpt>
      <trkpt lat="43.51308" lon="6.75173">
        <ele>100.6</ele>
        <time>2019-12-10T12:34:24Z</time>
      </trkpt>
      <trkpt lat="43.51307" lon="6.7517">
        <ele>100.6</ele>
        <time>2019-12-10T12:34:26Z</time>
      </trkpt>
      <trkpt lat="43.51305" lon="6.75167">
        <ele>100.6</ele>
        <time>2019-12-10T12:34:28Z</time>
      </trkpt>
      <trkpt lat="43.51304" lon="6.75163">
        <ele>101.1</ele>
        <time>2019-12-10T12:34:30Z</time>
      </trkpt>
      <trkpt lat="43.51303" lon="6.75159">
        <ele>101.6</ele>
        <time>2019-12-10T12:34:32Z</time>
      </trkpt>
      <trkpt lat="43.51303" lon="6.75156">
        <ele>102</ele>
        <time>2019-12-10T12:34:34Z</time>
      </trkpt>
      <trkpt lat="43.51303" lon="6.75151">
        <ele>102.5</ele>
        <time>2019-12-10T12:34:36Z</time>
      </trkpt>
      <trkpt lat="43.51305" lon="6.75148">
        <ele>103</ele>
        <time>2019-12-10T12:34:38Z</time>
      </trkpt>
      <trkpt lat="43.51308" lon="6.75146">
        <ele>104</ele>
        <time>2019-12-10T12:34:40Z</time>
      </trkpt>
      <trkpt lat="43.5131" lon="6.75144">
        <ele>104.9</ele>
        <time>2019-12-10T12:34:42Z</time>
      </trkpt>
      <trkpt lat="43.51313" lon="6.75143">
        <ele>105.9</ele>
        <time>2019-12-10T12:34:44Z</time>
      </trkpt>
      <trkpt lat="43.51316" lon="6.75142">
        <ele>106.8</ele>
        <time>2019-12-10T12:34:46Z</time>
      </trkpt>
      <trkpt lat="43.51318" lon="6.75142">
        <ele>107.3</ele>
        <time>2019-12-10T12:34:48Z</time>
      </trkpt>
      <trkpt lat="43.51321" lon="6.75142">
        <ele>108.3</ele>
        <time>2019-12-10T12:34:50Z</time>
      </trkpt>
      <trkpt lat="43.51323" lon="6.75143">
        <ele>108.3</ele>
        <time>2019-12-10T12:34:52Z</time>
      </trkpt>
      <trkpt lat="43.51326" lon="6.75143">
        <ele>109.2</ele>
        <time>2019-12-10T12:34:54Z</time>
      </trkpt>
      <trkpt lat="43.51329" lon="6.75142">
        <ele>109.2</ele>
        <time>2019-12-10T12:34:56Z</time>
      </trkpt>
      <trkpt lat="43.51331" lon="6.75142">
        <ele>108.8</ele>
        <time>2019-12-10T12:34:58Z</time>
      </trkpt>
      <trkpt lat="43.51333" lon="6.75142">
        <ele>107.8</ele>
        <time>2019-12-10T12:35:00Z</time>
      </trkpt>
      <trkpt lat="43.51336" lon="6.75142">
        <ele>107.8</ele>
        <time>2019-12-10T12:35:02Z</time>
      </trkpt>
      <trkpt lat="43.51338" lon="6.75142">
        <ele>107.3</ele>
        <time>2019-12-10T12:35:04Z</time>
      </trkpt>
      <trkpt lat="43.5134" lon="6.75143">
        <ele>107.3</ele>
        <time>2019-12-10T12:35:06Z</time>
      </trkpt>
      <trkpt lat="43.51343" lon="6.75142">
        <ele>107.3</ele>
        <time>2019-12-10T12:35:08Z</time>
      </trkpt>
      <trkpt lat="43.51345" lon="6.75142">
        <ele>107.8</ele>
        <time>2019-12-10T12:35:10Z</time>
      </trkpt>
      <trkpt lat="43.51348" lon="6.75142">
        <ele>108.3</ele>
        <time>2019-12-10T12:35:12Z</time>
      </trkpt>
      <trkpt lat="43.5135" lon="6.75143">
        <ele>107.8</ele>
        <time>2019-12-10T12:35:14Z</time>
      </trkpt>
      <trkpt lat="43.51353" lon="6.75144">
        <ele>107.3</ele>
        <time>2019-12-10T12:35:16Z</time>
      </trkpt>
      <trkpt lat="43.51355" lon="6.75144">
        <ele>106.8</ele>
        <time>2019-12-10T12:35:18Z</time>
      </trkpt>
      <trkpt lat="43.51357" lon="6.75143">
        <ele>106.4</ele>
        <time>2019-12-10T12:35:20Z</time>
      </trkpt>
      <trkpt lat="43.5136" lon="6.75142">
        <ele>106.4</ele>
        <time>2019-12-10T12:35:22Z</time>
      </trkpt>
      <trkpt lat="43.51362" lon="6.7514">
        <ele>106.4</ele>
        <time>2019-12-10T12:35:24Z</time>
      </trkpt>
      <trkpt lat="43.51365" lon="6.75139">
        <ele>106.8</ele>
        <time>2019-12-10T12:35:26Z</time>
      </trkpt>
      <trkpt lat="43.51367" lon="6.75137">
        <ele>106.8</ele>
        <time>2019-12-10T12:35:28Z</time>
      </trkpt>
      <trkpt lat="43.51369" lon="6.75134">
        <ele>107.3</ele>
        <time>2019-12-10T12:35:30Z</time>
      </trkpt>
      <trkpt lat="43.51371" lon="6.75131">
        <ele>107.8</ele>
        <time>2019-12-10T12:35:32Z</time>
      </trkpt>
      <trkpt lat="43.51372" lon="6.75128">
        <ele>108.3</ele>
        <time>2019-12-10T12:35:34Z</time>
      </trkpt>
      <trkpt lat="43.51374" lon="6.75125">
        <ele>108.8</ele>
        <time>2019-12-10T12:35:36Z</time>
      </trkpt>
      <trkpt lat="43.51375" lon="6.75122">
        <ele>108.8</ele>
        <time>2019-12-10T12:35:38Z</time>
      </trkpt>
      <trkpt lat="43.51377" lon="6.75118">
        <ele>109.2</ele>
        <time>2019-12-10T12:35:40Z</time>
      </trkpt>
      <trkpt lat="43.51379" lon="6.75115">
        <ele>109.2</ele>
        <time>2019-12-10T12:35:42Z</time>
      </trkpt>
      <trkpt lat="43.51382" lon="6.75113">
        <ele>109.7</ele>
        <time>2019-12-10T12:35:44Z</time>
      </trkpt>
      <trkpt lat="43.51385" lon="6.75112">
        <ele>109.7</ele>
        <time>2019-12-10T12:35:46Z</time>
      </trkpt>
      <trkpt lat="43.51387" lon="6.75111">
        <ele>109.2</ele>
        <time>2019-12-10T12:35:48Z</time>
      </trkpt>
      <trkpt lat="43.5139" lon="6.75109">
        <ele>109.7</ele>
        <time>2019-12-10T12:35:50Z</time>
      </trkpt>
      <trkpt lat="43.51393" lon="6.75108">
        <ele>110.2</ele>
        <time>2019-12-10T12:35:52Z</time>
      </trkpt>
      <trkpt lat="43.51395" lon="6.75106">
        <ele>110.2</ele>
        <time>2019-12-10T12:35:54Z</time>
      </trkpt>
      <trkpt lat="43.51396" lon="6.75103">
        <ele>110.2</ele>
        <time>2019-12-10T12:35:56Z</time>
      </trkpt>
      <trkpt lat="43.51398" lon="6.751">
        <ele>110.7</ele>
        <time>2019-12-10T12:35:58Z</time>
      </trkpt>
      <trkpt lat="43.51398" lon="6.75096">
        <ele>111.2</ele>
        <time>2019-12-10T12:36:00Z</time>
      </trkpt>
      <trkpt lat="43.51395" lon="6.75094">
        <ele>111.7</ele>
        <time>2019-12-10T12:36:02Z</time>
      </trkpt>
      <trkpt lat="43.51393" lon="6.75092">
        <ele>111.7</ele>
        <time>2019-12-10T12:36:04Z</time>
      </trkpt>
      <trkpt lat="43.51392" lon="6.7509">
        <ele>111.7</ele>
        <time>2019-12-10T12:36:06Z</time>
      </trkpt>
      <trkpt lat="43.5139" lon="6.75089">
        <ele>111.7</ele>
        <time>2019-12-10T12:36:08Z</time>
      </trkpt>
      <trkpt lat="43.51388" lon="6.75089">
        <ele>112.1</ele>
        <time>2019-12-10T12:36:10Z</time>
      </trkpt>
      <trkpt lat="43.51386" lon="6.7509">
        <ele>112.1</ele>
        <time>2019-12-10T12:36:12Z</time>
      </trkpt>
      <trkpt lat="43.51385" lon="6.75091">
        <ele>112.6</ele>
        <time>2019-12-10T12:36:14Z</time>
      </trkpt>
      <trkpt lat="43.51385" lon="6.75094">
        <ele>112.6</ele>
        <time>2019-12-10T12:36:16Z</time>
      </trkpt>
      <trkpt lat="43.51385" lon="6.75096">
        <ele>112.6</ele>
        <time>2019-12-10T12:36:18Z</time>
      </trkpt>
      <trkpt lat="43.51383" lon="6.75097">
        <ele>112.1</ele>
        <time>2019-12-10T12:36:20Z</time>
      </trkpt>
      <trkpt lat="43.5138" lon="6.75096">
        <ele>112.1</ele>
        <time>2019-12-10T12:36:22Z</time>
      </trkpt>
      <trkpt lat="43.51379" lon="6.75097">
        <ele>112.1</ele>
        <time>2019-12-10T12:36:24Z</time>
      </trkpt>
      <trkpt lat="43.51379" lon="6.75097">
        <ele>112.1</ele>
        <time>2019-12-10T12:36:26Z</time>
      </trkpt>
      <trkpt lat="43.51379" lon="6.75098">
        <ele>111.7</ele>
        <time>2019-12-10T12:36:28Z</time>
      </trkpt>
      <trkpt lat="43.51379" lon="6.75097">
        <ele>111.7</ele>
        <time>2019-12-10T12:36:30Z</time>
      </trkpt>
      <trkpt lat="43.51379" lon="6.75097">
        <ele>111.7</ele>
        <time>2019-12-10T12:36:32Z</time>
      </trkpt>
      <trkpt lat="43.51379" lon="6.75097">
        <ele>111.2</ele>
        <time>2019-12-10T12:36:34Z</time>
      </trkpt>
      <trkpt lat="43.51379" lon="6.75096">
        <ele>111.2</ele>
        <time>2019-12-10T12:36:36Z</time>
      </trkpt>
      <trkpt lat="43.51379" lon="6.75096">
        <ele>111.2</ele>
        <time>2019-12-10T12:36:38Z</time>
      </trkpt>
      <trkpt lat="43.51379" lon="6.75096">
        <ele>111.2</ele>
        <time>2019-12-10T12:36:40Z</time>
      </trkpt>
      <trkpt lat="43.51378" lon="6.75097">
        <ele>110.7</ele>
        <time>2019-12-10T12:36:42Z</time>
      </trkpt>
      <trkpt lat="43.51378" lon="6.75096">
        <ele>110.7</ele>
        <time>2019-12-10T12:36:44Z</time>
      </trkpt>
      <trkpt lat="43.51378" lon="6.75096">
        <ele>110.2</ele>
        <time>2019-12-10T12:36:46Z</time>
      </trkpt>
      <trkpt lat="43.51379" lon="6.75096">
        <ele>110.2</ele>
        <time>2019-12-10T12:36:48Z</time>
      </trkpt>
      <trkpt lat="43.51378" lon="6.75096">
        <ele>109.7</ele>
        <time>2019-12-10T12:36:50Z</time>
      </trkpt>
      <trkpt lat="43.51378" lon="6.75096">
        <ele>109.7</ele>
        <time>2019-12-10T12:36:52Z</time>
      </trkpt>
      <trkpt lat="43.51378" lon="6.75095">
        <ele>109.2</ele>
        <time>2019-12-10T12:36:54Z</time>
      </trkpt>
      <trkpt lat="43.51378" lon="6.75095">
        <ele>109.2</ele>
        <time>2019-12-10T12:36:56Z</time>
      </trkpt>
      <trkpt lat="43.51378" lon="6.75095">
        <ele>109.2</ele>
        <time>2019-12-10T12:36:58Z</time>
      </trkpt>
      <trkpt lat="43.51378" lon="6.75095">
        <ele>109.2</ele>
        <time>2019-12-10T12:37:00Z</time>
      </trkpt>
      <trkpt lat="43.51378" lon="6.75094">
        <ele>108.8</ele>
        <time>2019-12-10T12:37:02Z</time>
      </trkpt>
      <trkpt lat="43.51378" lon="6.75095">
        <ele>109.2</ele>
        <time>2019-12-10T12:37:04Z</time>
      </trkpt>
      <trkpt lat="43.51378" lon="6.75095">
        <ele>108.8</ele>
        <time>2019-12-10T12:37:06Z</time>
      </trkpt>
      <trkpt lat="43.51378" lon="6.75095">
        <ele>108.3</ele>
        <time>2019-12-10T12:37:08Z</time>
      </trkpt>
      <trkpt lat="43.51379" lon="6.75095">
        <ele>107.8</ele>
        <time>2019-12-10T12:37:10Z</time>
      </trkpt>
      <trkpt lat="43.51379" lon="6.75095">
        <ele>107.3</ele>
        <time>2019-12-10T12:37:12Z</time>
      </trkpt>
      <trkpt lat="43.51379" lon="6.75096">
        <ele>107.3</ele>
        <time>2019-12-10T12:37:14Z</time>
      </trkpt>
      <trkpt lat="43.51379" lon="6.75096">
        <ele>107.8</ele>
        <time>2019-12-10T12:37:16Z</time>
      </trkpt>
      <trkpt lat="43.51379" lon="6.75095">
        <ele>107.3</ele>
        <time>2019-12-10T12:37:18Z</time>
      </trkpt>
      <trkpt lat="43.51379" lon="6.75095">
        <ele>107.3</ele>
        <time>2019-12-10T12:37:20Z</time>
      </trkpt>
      <trkpt lat="43.51379" lon="6.75094">
        <ele>106.8</ele>
        <time>2019-12-10T12:37:22Z</time>
      </trkpt>
      <trkpt lat="43.51379" lon="6.75094">
        <ele>106.8</ele>
        <time>2019-12-10T12:37:24Z</time>
      </trkpt>
      <trkpt lat="43.51379" lon="6.75094">
        <ele>106.8</ele>
        <time>2019-12-10T12:37:26Z</time>
      </trkpt>
      <trkpt lat="43.51379" lon="6.75094">
        <ele>106.4</ele>
        <time>2019-12-10T12:37:28Z</time>
      </trkpt>
      <trkpt lat="43.51379" lon="6.75094">
        <ele>106.8</ele>
        <time>2019-12-10T12:37:30Z</time>
      </trkpt>
      <trkpt lat="43.51379" lon="6.75094">
        <ele>106.8</ele>
        <time>2019-12-10T12:37:32Z</time>
      </trkpt>
      <trkpt lat="43.51379" lon="6.75094">
        <ele>106.8</ele>
        <time>2019-12-10T12:37:34Z</time>
      </trkpt>
      <trkpt lat="43.51379" lon="6.75094">
        <ele>106.8</ele>
        <time>2019-12-10T12:37:36Z</time>
      </trkpt>
      <trkpt lat="43.51379" lon="6.75094">
        <ele>106.8</ele>
        <time>2019-12-10T12:37:38Z</time>
      </trkpt>
      <trkpt lat="43.51379" lon="6.75094">
        <ele>106.4</ele>
        <time>2019-12-10T12:37:40Z</time>
      </trkpt>
      <trkpt lat="43.51379" lon="6.75094">
        <ele>106.4</ele>
        <time>2019-12-10T12:37:42Z</time>
      </trkpt>
      <trkpt lat="43.51379" lon="6.75094">
        <ele>106.4</ele>
        <time>2019-12-10T12:37:44Z</time>
      </trkpt>
      <trkpt lat="43.51379" lon="6.75094">
        <ele>106.4</ele>
        <time>2019-12-10T12:37:46Z</time>
      </trkpt>
      <trkpt lat="43.51379" lon="6.75094">
        <ele>106.4</ele>
        <time>2019-12-10T12:37:48Z</time>
      </trkpt>
      <trkpt lat="43.51379" lon="6.75094">
        <ele>106.4</ele>
        <time>2019-12-10T12:37:50Z</time>
      </trkpt>
      <trkpt lat="43.51379" lon="6.75094">
        <ele>106.4</ele>
        <time>2019-12-10T12:37:52Z</time>
      </trkpt>
      <trkpt lat="43.51379" lon="6.75094">
        <ele>106.4</ele>
        <time>2019-12-10T12:37:54Z</time>
      </trkpt>
      <trkpt lat="43.51379" lon="6.75094">
        <ele>106.4</ele>
        <time>2019-12-10T12:37:56Z</time>
      </trkpt>
      <trkpt lat="43.51379" lon="6.75094">
        <ele>106.4</ele>
        <time>2019-12-10T12:37:58Z</time>
      </trkpt>
      <trkpt lat="43.51379" lon="6.75094">
        <ele>106.4</ele>
        <time>2019-12-10T12:38:00Z</time>
      </trkpt>
      <trkpt lat="43.51378" lon="6.75094">
        <ele>106.4</ele>
        <time>2019-12-10T12:38:02Z</time>
      </trkpt>
      <trkpt lat="43.51378" lon="6.75094">
        <ele>106.8</ele>
        <time>2019-12-10T12:38:04Z</time>
      </trkpt>
      <trkpt lat="43.51378" lon="6.75094">
        <ele>106.8</ele>
        <time>2019-12-10T12:38:06Z</time>
      </trkpt>
      <trkpt lat="43.51378" lon="6.75094">
        <ele>106.8</ele>
        <time>2019-12-10T12:38:08Z</time>
      </trkpt>
      <trkpt lat="43.51378" lon="6.75094">
        <ele>106.8</ele>
        <time>2019-12-10T12:38:10Z</time>
      </trkpt>
      <trkpt lat="43.51378" lon="6.75094">
        <ele>106.8</ele>
        <time>2019-12-10T12:38:12Z</time>
      </trkpt>
      <trkpt lat="43.51378" lon="6.75094">
        <ele>106.8</ele>
        <time>2019-12-10T12:38:14Z</time>
      </trkpt>
      <trkpt lat="43.51378" lon="6.75094">
        <ele>106.8</ele>
        <time>2019-12-10T12:38:16Z</time>
      </trkpt>
      <trkpt lat="43.51378" lon="6.75094">
        <ele>106.8</ele>
        <time>2019-12-10T12:38:18Z</time>
      </trkpt>
      <trkpt lat="43.51378" lon="6.75094">
        <ele>106.8</ele>
        <time>2019-12-10T12:38:20Z</time>
      </trkpt>
      <trkpt lat="43.51378" lon="6.75094">
        <ele>106.8</ele>
        <time>2019-12-10T12:38:22Z</time>
      </trkpt>
      <trkpt lat="43.51379" lon="6.75094">
        <ele>106.8</ele>
        <time>2019-12-10T12:38:24Z</time>
      </trkpt>
      <trkpt lat="43.51379" lon="6.75094">
        <ele>106.8</ele>
        <time>2019-12-10T12:38:26Z</time>
      </trkpt>
      <trkpt lat="43.51378" lon="6.75094">
        <ele>106.8</ele>
        <time>2019-12-10T12:38:28Z</time>
      </trkpt>
      <trkpt lat="43.51378" lon="6.75094">
        <ele>106.8</ele>
        <time>2019-12-10T12:38:30Z</time>
      </trkpt>
      <trkpt lat="43.51378" lon="6.75094">
        <ele>106.4</ele>
        <time>2019-12-10T12:38:32Z</time>
      </trkpt>
      <trkpt lat="43.51378" lon="6.75094">
        <ele>106.4</ele>
        <time>2019-12-10T12:38:34Z</time>
      </trkpt>
      <trkpt lat="43.51378" lon="6.75094">
        <ele>106.4</ele>
        <time>2019-12-10T12:38:36Z</time>
      </trkpt>
      <trkpt lat="43.51378" lon="6.75094">
        <ele>106.4</ele>
        <time>2019-12-10T12:38:38Z</time>
      </trkpt>
      <trkpt lat="43.51378" lon="6.75094">
        <ele>106.4</ele>
        <time>2019-12-10T12:38:40Z</time>
      </trkpt>
      <trkpt lat="43.51378" lon="6.75094">
        <ele>106.4</ele>
        <time>2019-12-10T12:38:42Z</time>
      </trkpt>
      <trkpt lat="43.51378" lon="6.75094">
        <ele>106.4</ele>
        <time>2019-12-10T12:38:44Z</time>
      </trkpt>
      <trkpt lat="43.51378" lon="6.75094">
        <ele>106.4</ele>
        <time>2019-12-10T12:38:46Z</time>
      </trkpt>
      <trkpt lat="43.51378" lon="6.75093">
        <ele>106.4</ele>
        <time>2019-12-10T12:38:48Z</time>
      </trkpt>
      <trkpt lat="43.51379" lon="6.75093">
        <ele>106.4</ele>
        <time>2019-12-10T12:38:50Z</time>
      </trkpt>
      <trkpt lat="43.51378" lon="6.75094">
        <ele>106.8</ele>
        <time>2019-12-10T12:38:52Z</time>
      </trkpt>
      <trkpt lat="43.51378" lon="6.75094">
        <ele>106.8</ele>
        <time>2019-12-10T12:38:54Z</time>
      </trkpt>
      <trkpt lat="43.51378" lon="6.75094">
        <ele>106.8</ele>
        <time>2019-12-10T12:38:56Z</time>
      </trkpt>
      <trkpt lat="43.51378" lon="6.75094">
        <ele>106.8</ele>
        <time>2019-12-10T12:38:58Z</time>
      </trkpt>
      <trkpt lat="43.51378" lon="6.75094">
        <ele>106.8</ele>
        <time>2019-12-10T12:39:00Z</time>
      </trkpt>
      <trkpt lat="43.51378" lon="6.75094">
        <ele>106.8</ele>
        <time>2019-12-10T12:39:02Z</time>
      </trkpt>
      <trkpt lat="43.51378" lon="6.75094">
        <ele>106.8</ele>
        <time>2019-12-10T12:39:04Z</time>
      </trkpt>
      <trkpt lat="43.51378" lon="6.75094">
        <ele>106.8</ele>
        <time>2019-12-10T12:39:06Z</time>
      </trkpt>
      <trkpt lat="43.51378" lon="6.75094">
        <ele>106.8</ele>
        <time>2019-12-10T12:39:08Z</time>
      </trkpt>
      <trkpt lat="43.51378" lon="6.75094">
        <ele>106.8</ele>
        <time>2019-12-10T12:39:10Z</time>
      </trkpt>
      <trkpt lat="43.51378" lon="6.75094">
        <ele>106.8</ele>
        <time>2019-12-10T12:39:12Z</time>
      </trkpt>
      <trkpt lat="43.51378" lon="6.75094">
        <ele>106.8</ele>
        <time>2019-12-10T12:39:14Z</time>
      </trkpt>
      <trkpt lat="43.51378" lon="6.75094">
        <ele>106.8</ele>
        <time>2019-12-10T12:39:16Z</time>
      </trkpt>
      <trkpt lat="43.51378" lon="6.75094">
        <ele>106.8</ele>
        <time>2019-12-10T12:39:18Z</time>
      </trkpt>
      <trkpt lat="43.51378" lon="6.75094">
        <ele>106.8</ele>
        <time>2019-12-10T12:39:20Z</time>
      </trkpt>
      <trkpt lat="43.51378" lon="6.75094">
        <ele>106.8</ele>
        <time>2019-12-10T12:39:22Z</time>
      </trkpt>
      <trkpt lat="43.51378" lon="6.75094">
        <ele>106.8</ele>
        <time>2019-12-10T12:39:24Z</time>
      </trkpt>
      <trkpt lat="43.51378" lon="6.75094">
        <ele>106.8</ele>
        <time>2019-12-10T12:39:26Z</time>
      </trkpt>
      <trkpt lat="43.51378" lon="6.75094">
        <ele>106.8</ele>
        <time>2019-12-10T12:39:28Z</time>
      </trkpt>
      <trkpt lat="43.51378" lon="6.75094">
        <ele>106.8</ele>
        <time>2019-12-10T12:39:30Z</time>
      </trkpt>
      <trkpt lat="43.51378" lon="6.75094">
        <ele>106.8</ele>
        <time>2019-12-10T12:39:32Z</time>
      </trkpt>
      <trkpt lat="43.51378" lon="6.75094">
        <ele>106.8</ele>
        <time>2019-12-10T12:39:34Z</time>
      </trkpt>
      <trkpt lat="43.51378" lon="6.75094">
        <ele>106.8</ele>
        <time>2019-12-10T12:39:36Z</time>
      </trkpt>
      <trkpt lat="43.51378" lon="6.75094">
        <ele>106.8</ele>
        <time>2019-12-10T12:39:38Z</time>
      </trkpt>
      <trkpt lat="43.51378" lon="6.75094">
        <ele>106.8</ele>
        <time>2019-12-10T12:39:40Z</time>
      </trkpt>
      <trkpt lat="43.51378" lon="6.75094">
        <ele>106.8</ele>
        <time>2019-12-10T12:39:42Z</time>
      </trkpt>
      <trkpt lat="43.51378" lon="6.75094">
        <ele>106.8</ele>
        <time>2019-12-10T12:39:44Z</time>
      </trkpt>
      <trkpt lat="43.51378" lon="6.75094">
        <ele>106.8</ele>
        <time>2019-12-10T12:39:46Z</time>
      </trkpt>
      <trkpt lat="43.51378" lon="6.75094">
        <ele>106.8</ele>
        <time>2019-12-10T12:39:48Z</time>
      </trkpt>
      <trkpt lat="43.51378" lon="6.75094">
        <ele>106.8</ele>
        <time>2019-12-10T12:39:50Z</time>
      </trkpt>
      <trkpt lat="43.51378" lon="6.75094">
        <ele>106.8</ele>
        <time>2019-12-10T12:39:52Z</time>
      </trkpt>
      <trkpt lat="43.51378" lon="6.75094">
        <ele>106.8</ele>
        <time>2019-12-10T12:39:54Z</time>
      </trkpt>
      <trkpt lat="43.51378" lon="6.75094">
        <ele>106.8</ele>
        <time>2019-12-10T12:39:56Z</time>
      </trkpt>
      <trkpt lat="43.51378" lon="6.75094">
        <ele>106.8</ele>
        <time>2019-12-10T12:39:58Z</time>
      </trkpt>
      <trkpt lat="43.51378" lon="6.75094">
        <ele>106.8</ele>
        <time>2019-12-10T12:40:00Z</time>
      </trkpt>
      <trkpt lat="43.51378" lon="6.75094">
        <ele>106.8</ele>
        <time>2019-12-10T12:40:02Z</time>
      </trkpt>
      <trkpt lat="43.51378" lon="6.75094">
        <ele>106.8</ele>
        <time>2019-12-10T12:40:04Z</time>
      </trkpt>
      <trkpt lat="43.51378" lon="6.75094">
        <ele>106.8</ele>
        <time>2019-12-10T12:40:06Z</time>
      </trkpt>
      <trkpt lat="43.51378" lon="6.75094">
        <ele>106.8</ele>
        <time>2019-12-10T12:40:08Z</time>
      </trkpt>
      <trkpt lat="43.51378" lon="6.75094">
        <ele>106.8</ele>
        <time>2019-12-10T12:40:10Z</time>
      </trkpt>
      <trkpt lat="43.51378" lon="6.75094">
        <ele>106.8</ele>
        <time>2019-12-10T12:40:12Z</time>
      </trkpt>
      <trkpt lat="43.51378" lon="6.75094">
        <ele>106.8</ele>
        <time>2019-12-10T12:40:14Z</time>
      </trkpt>
      <trkpt lat="43.51378" lon="6.75094">
        <ele>106.8</ele>
        <time>2019-12-10T12:40:16Z</time>
      </trkpt>
      <trkpt lat="43.51378" lon="6.75094">
        <ele>106.8</ele>
        <time>2019-12-10T12:40:18Z</time>
      </trkpt>
      <trkpt lat="43.51378" lon="6.75094">
        <ele>106.8</ele>
        <time>2019-12-10T12:40:20Z</time>
      </trkpt>
      <trkpt lat="43.51378" lon="6.75094">
        <ele>106.8</ele>
        <time>2019-12-10T12:40:22Z</time>
      </trkpt>
      <trkpt lat="43.51378" lon="6.75094">
        <ele>106.8</ele>
        <time>2019-12-10T12:40:24Z</time>
      </trkpt>
      <trkpt lat="43.51378" lon="6.75094">
        <ele>106.8</ele>
        <time>2019-12-10T12:40:26Z</time>
      </trkpt>
      <trkpt lat="43.51378" lon="6.75094">
        <ele>106.4</ele>
        <time>2019-12-10T12:40:28Z</time>
      </trkpt>
      <trkpt lat="43.51378" lon="6.75094">
        <ele>106.4</ele>
        <time>2019-12-10T12:40:30Z</time>
      </trkpt>
      <trkpt lat="43.51378" lon="6.75094">
        <ele>106.4</ele>
        <time>2019-12-10T12:40:32Z</time>
      </trkpt>
      <trkpt lat="43.51378" lon="6.75094">
        <ele>106.4</ele>
        <time>2019-12-10T12:40:34Z</time>
      </trkpt>
      <trkpt lat="43.51378" lon="6.75094">
        <ele>106.4</ele>
        <time>2019-12-10T12:40:36Z</time>
      </trkpt>
      <trkpt lat="43.51378" lon="6.75094">
        <ele>106.4</ele>
        <time>2019-12-10T12:40:38Z</time>
      </trkpt>
      <trkpt lat="43.51378" lon="6.75094">
        <ele>106.4</ele>
        <time>2019-12-10T12:40:40Z</time>
      </trkpt>
      <trkpt lat="43.51378" lon="6.75094">
        <ele>106.4</ele>
        <time>2019-12-10T12:40:42Z</time>
      </trkpt>
      <trkpt lat="43.51378" lon="6.75094">
        <ele>106.4</ele>
        <time>2019-12-10T12:40:44Z</time>
      </trkpt>
      <trkpt lat="43.51378" lon="6.75094">
        <ele>106.4</ele>
        <time>2019-12-10T12:40:46Z</time>
      </trkpt>
      <trkpt lat="43.51378" lon="6.75094">
        <ele>106.4</ele>
        <time>2019-12-10T12:40:48Z</time>
      </trkpt>
      <trkpt lat="43.51378" lon="6.75094">
        <ele>106.4</ele>
        <time>2019-12-10T12:40:50Z</time>
      </trkpt>
      <trkpt lat="43.51378" lon="6.75094">
        <ele>106.4</ele>
        <time>2019-12-10T12:40:52Z</time>
      </trkpt>
      <trkpt lat="43.51378" lon="6.75094">
        <ele>106.4</ele>
        <time>2019-12-10T12:40:54Z</time>
      </trkpt>
      <trkpt lat="43.51378" lon="6.75094">
        <ele>106.4</ele>
        <time>2019-12-10T12:40:56Z</time>
      </trkpt>
      <trkpt lat="43.51378" lon="6.75094">
        <ele>106.4</ele>
        <time>2019-12-10T12:40:58Z</time>
      </trkpt>
      <trkpt lat="43.51378" lon="6.75094">
        <ele>106.4</ele>
        <time>2019-12-10T12:41:00Z</time>
      </trkpt>
      <trkpt lat="43.51378" lon="6.75094">
        <ele>106.4</ele>
        <time>2019-12-10T12:41:02Z</time>
      </trkpt>
      <trkpt lat="43.51378" lon="6.75094">
        <ele>106.4</ele>
        <time>2019-12-10T12:41:04Z</time>
      </trkpt>
      <trkpt lat="43.51378" lon="6.75094">
        <ele>106.4</ele>
        <time>2019-12-10T12:41:06Z</time>
      </trkpt>
      <trkpt lat="43.51378" lon="6.75094">
        <ele>106.4</ele>
        <time>2019-12-10T12:41:08Z</time>
      </trkpt>
      <trkpt lat="43.51378" lon="6.75094">
        <ele>106.4</ele>
        <time>2019-12-10T12:41:10Z</time>
      </trkpt>
      <trkpt lat="43.51378" lon="6.75094">
        <ele>106.4</ele>
        <time>2019-12-10T12:41:12Z</time>
      </trkpt>
      <trkpt lat="43.51378" lon="6.75094">
        <ele>106.4</ele>
        <time>2019-12-10T12:41:14Z</time>
      </trkpt>
      <trkpt lat="43.51378" lon="6.75094">
        <ele>106.4</ele>
        <time>2019-12-10T12:41:16Z</time>
      </trkpt>
      <trkpt lat="43.51378" lon="6.75094">
        <ele>106.4</ele>
        <time>2019-12-10T12:41:18Z</time>
      </trkpt>
      <trkpt lat="43.51378" lon="6.75094">
        <ele>106.4</ele>
        <time>2019-12-10T12:41:20Z</time>
      </trkpt>
      <trkpt lat="43.51378" lon="6.75094">
        <ele>106.4</ele>
        <time>2019-12-10T12:41:22Z</time>
      </trkpt>
      <trkpt lat="43.51378" lon="6.75094">
        <ele>106.4</ele>
        <time>2019-12-10T12:41:24Z</time>
      </trkpt>
      <trkpt lat="43.51378" lon="6.75094">
        <ele>106.4</ele>
        <time>2019-12-10T12:41:26Z</time>
      </trkpt>
      <trkpt lat="43.51378" lon="6.75094">
        <ele>106.4</ele>
        <time>2019-12-10T12:41:28Z</time>
      </trkpt>
      <trkpt lat="43.51378" lon="6.75094">
        <ele>106.4</ele>
        <time>2019-12-10T12:41:30Z</time>
      </trkpt>
      <trkpt lat="43.51378" lon="6.75094">
        <ele>106.4</ele>
        <time>2019-12-10T12:41:32Z</time>
      </trkpt>
      <trkpt lat="43.51378" lon="6.75094">
        <ele>106.4</ele>
        <time>2019-12-10T12:41:34Z</time>
      </trkpt>
      <trkpt lat="43.51378" lon="6.75094">
        <ele>106.4</ele>
        <time>2019-12-10T12:41:36Z</time>
      </trkpt>
      <trkpt lat="43.51378" lon="6.75094">
        <ele>106.4</ele>
        <time>2019-12-10T12:41:38Z</time>
      </trkpt>
      <trkpt lat="43.51378" lon="6.75094">
        <ele>106.4</ele>
        <time>2019-12-10T12:41:40Z</time>
      </trkpt>
      <trkpt lat="43.51378" lon="6.75094">
        <ele>106.4</ele>
        <time>2019-12-10T12:41:42Z</time>
      </trkpt>
      <trkpt lat="43.51378" lon="6.75094">
        <ele>106.4</ele>
        <time>2019-12-10T12:41:44Z</time>
      </trkpt>
      <trkpt lat="43.51378" lon="6.75094">
        <ele>106.4</ele>
        <time>2019-12-10T12:41:46Z</time>
      </trkpt>
      <trkpt lat="43.51378" lon="6.75094">
        <ele>106.4</ele>
        <time>2019-12-10T12:41:48Z</time>
      </trkpt>
      <trkpt lat="43.51378" lon="6.75094">
        <ele>106.4</ele>
        <time>2019-12-10T12:41:50Z</time>
      </trkpt>
      <trkpt lat="43.51378" lon="6.75094">
        <ele>106.4</ele>
        <time>2019-12-10T12:41:52Z</time>
      </trkpt>
      <trkpt lat="43.51378" lon="6.75094">
        <ele>106.4</ele>
        <time>2019-12-10T12:41:54Z</time>
      </trkpt>
      <trkpt lat="43.51378" lon="6.75094">
        <ele>106.4</ele>
        <time>2019-12-10T12:41:56Z</time>
      </trkpt>
      <trkpt lat="43.51378" lon="6.75094">
        <ele>106.4</ele>
        <time>2019-12-10T12:41:58Z</time>
      </trkpt>
      <trkpt lat="43.51378" lon="6.75094">
        <ele>106.4</ele>
        <time>2019-12-10T12:42:00Z</time>
      </trkpt>
      <trkpt lat="43.51378" lon="6.75094">
        <ele>106.4</ele>
        <time>2019-12-10T12:42:02Z</time>
      </trkpt>
      <trkpt lat="43.51378" lon="6.75094">
        <ele>106.4</ele>
        <time>2019-12-10T12:42:04Z</time>
      </trkpt>
      <trkpt lat="43.51378" lon="6.75094">
        <ele>106.4</ele>
        <time>2019-12-10T12:42:06Z</time>
      </trkpt>
      <trkpt lat="43.51378" lon="6.75094">
        <ele>105.9</ele>
        <time>2019-12-10T12:42:08Z</time>
      </trkpt>
      <trkpt lat="43.51378" lon="6.75094">
        <ele>105.9</ele>
        <time>2019-12-10T12:42:10Z</time>
      </trkpt>
      <trkpt lat="43.51378" lon="6.75095">
        <ele>105.9</ele>
        <time>2019-12-10T12:42:12Z</time>
      </trkpt>
      <trkpt lat="43.51378" lon="6.75095">
        <ele>105.4</ele>
        <time>2019-12-10T12:42:14Z</time>
      </trkpt>
      <trkpt lat="43.51378" lon="6.75095">
        <ele>105.4</ele>
        <time>2019-12-10T12:42:16Z</time>
      </trkpt>
      <trkpt lat="43.51378" lon="6.75095">
        <ele>105.4</ele>
        <time>2019-12-10T12:42:18Z</time>
      </trkpt>
      <trkpt lat="43.51378" lon="6.75095">
        <ele>105.4</ele>
        <time>2019-12-10T12:42:20Z</time>
      </trkpt>
      <trkpt lat="43.51378" lon="6.75095">
        <ele>105.4</ele>
        <time>2019-12-10T12:42:22Z</time>
      </trkpt>
      <trkpt lat="43.51378" lon="6.75095">
        <ele>105.4</ele>
        <time>2019-12-10T12:42:24Z</time>
      </trkpt>
      <trkpt lat="43.51378" lon="6.75095">
        <ele>105.4</ele>
        <time>2019-12-10T12:42:26Z</time>
      </trkpt>
      <trkpt lat="43.51378" lon="6.75095">
        <ele>105.4</ele>
        <time>2019-12-10T12:42:28Z</time>
      </trkpt>
      <trkpt lat="43.51378" lon="6.75095">
        <ele>105.4</ele>
        <time>2019-12-10T12:42:30Z</time>
      </trkpt>
      <trkpt lat="43.51378" lon="6.75095">
        <ele>105.4</ele>
        <time>2019-12-10T12:42:32Z</time>
      </trkpt>
      <trkpt lat="43.51378" lon="6.75095">
        <ele>105.4</ele>
        <time>2019-12-10T12:42:34Z</time>
      </trkpt>
      <trkpt lat="43.51378" lon="6.75095">
        <ele>105.4</ele>
        <time>2019-12-10T12:42:36Z</time>
      </trkpt>
      <trkpt lat="43.51378" lon="6.75095">
        <ele>105.4</ele>
        <time>2019-12-10T12:42:38Z</time>
      </trkpt>
      <trkpt lat="43.51378" lon="6.75095">
        <ele>105.4</ele>
        <time>2019-12-10T12:42:40Z</time>
      </trkpt>
      <trkpt lat="43.51378" lon="6.75095">
        <ele>105.4</ele>
        <time>2019-12-10T12:42:42Z</time>
      </trkpt>
      <trkpt lat="43.51378" lon="6.75095">
        <ele>105.4</ele>
        <time>2019-12-10T12:42:44Z</time>
      </trkpt>
      <trkpt lat="43.51378" lon="6.75095">
        <ele>105.4</ele>
        <time>2019-12-10T12:42:46Z</time>
      </trkpt>
      <trkpt lat="43.51378" lon="6.75095">
        <ele>105.4</ele>
        <time>2019-12-10T12:42:48Z</time>
      </trkpt>
      <trkpt lat="43.51378" lon="6.75095">
        <ele>105.4</ele>
        <time>2019-12-10T12:42:50Z</time>
      </trkpt>
      <trkpt lat="43.51377" lon="6.75096">
        <ele>105.4</ele>
        <time>2019-12-10T12:42:52Z</time>
      </trkpt>
      <trkpt lat="43.51375" lon="6.75098">
        <ele>105.4</ele>
        <time>2019-12-10T12:42:54Z</time>
      </trkpt>
      <trkpt lat="43.51373" lon="6.75099">
        <ele>105.4</ele>
        <time>2019-12-10T12:42:56Z</time>
      </trkpt>
      <trkpt lat="43.5137" lon="6.751">
        <ele>105.4</ele>
        <time>2019-12-10T12:42:58Z</time>
      </trkpt>
      <trkpt lat="43.51368" lon="6.75101">
        <ele>105.4</ele>
        <time>2019-12-10T12:43:00Z</time>
      </trkpt>
      <trkpt lat="43.51365" lon="6.75102">
        <ele>105.9</ele>
        <time>2019-12-10T12:43:02Z</time>
      </trkpt>
      <trkpt lat="43.51363" lon="6.75104">
        <ele>105.9</ele>
        <time>2019-12-10T12:43:04Z</time>
      </trkpt>
      <trkpt lat="43.51361" lon="6.75106">
        <ele>106.4</ele>
        <time>2019-12-10T12:43:06Z</time>
      </trkpt>
      <trkpt lat="43.51359" lon="6.75108">
        <ele>106.4</ele>
        <time>2019-12-10T12:43:08Z</time>
      </trkpt>
      <trkpt lat="43.51357" lon="6.75109">
        <ele>106.8</ele>
        <time>2019-12-10T12:43:10Z</time>
      </trkpt>
      <trkpt lat="43.51354" lon="6.7511">
        <ele>107.3</ele>
        <time>2019-12-10T12:43:12Z</time>
      </trkpt>
      <trkpt lat="43.51351" lon="6.75111">
        <ele>107.3</ele>
        <time>2019-12-10T12:43:14Z</time>
      </trkpt>
      <trkpt lat="43.51348" lon="6.75111">
        <ele>107.8</ele>
        <time>2019-12-10T12:43:16Z</time>
      </trkpt>
      <trkpt lat="43.51345" lon="6.7511">
        <ele>108.3</ele>
        <time>2019-12-10T12:43:18Z</time>
      </trkpt>
      <trkpt lat="43.51342" lon="6.7511">
        <ele>108.3</ele>
        <time>2019-12-10T12:43:20Z</time>
      </trkpt>
      <trkpt lat="43.5134" lon="6.7511">
        <ele>108.8</ele>
        <time>2019-12-10T12:43:22Z</time>
      </trkpt>
      <trkpt lat="43.51337" lon="6.7511">
        <ele>109.2</ele>
        <time>2019-12-10T12:43:24Z</time>
      </trkpt>
      <trkpt lat="43.51334" lon="6.75111">
        <ele>109.7</ele>
        <time>2019-12-10T12:43:26Z</time>
      </trkpt>
      <trkpt lat="43.51331" lon="6.75111">
        <ele>109.7</ele>
        <time>2019-12-10T12:43:28Z</time>
      </trkpt>
      <trkpt lat="43.51328" lon="6.75111">
        <ele>110.2</ele>
        <time>2019-12-10T12:43:30Z</time>
      </trkpt>
      <trkpt lat="43.51325" lon="6.7511">
        <ele>110.7</ele>
        <time>2019-12-10T12:43:32Z</time>
      </trkpt>
      <trkpt lat="43.51322" lon="6.7511">
        <ele>111.2</ele>
        <time>2019-12-10T12:43:34Z</time>
      </trkpt>
      <trkpt lat="43.5132" lon="6.75109">
        <ele>111.7</ele>
        <time>2019-12-10T12:43:36Z</time>
      </trkpt>
      <trkpt lat="43.51317" lon="6.75109">
        <ele>112.1</ele>
        <time>2019-12-10T12:43:38Z</time>
      </trkpt>
      <trkpt lat="43.51314" lon="6.75108">
        <ele>112.6</ele>
        <time>2019-12-10T12:43:40Z</time>
      </trkpt>
      <trkpt lat="43.51312" lon="6.75107">
        <ele>112.6</ele>
        <time>2019-12-10T12:43:42Z</time>
      </trkpt>
      <trkpt lat="43.51309" lon="6.75107">
        <ele>113.1</ele>
        <time>2019-12-10T12:43:44Z</time>
      </trkpt>
      <trkpt lat="43.51306" lon="6.75107">
        <ele>113.1</ele>
        <time>2019-12-10T12:43:46Z</time>
      </trkpt>
      <trkpt lat="43.51303" lon="6.75106">
        <ele>113.6</ele>
        <time>2019-12-10T12:43:48Z</time>
      </trkpt>
      <trkpt lat="43.513" lon="6.75105">
        <ele>114.1</ele>
        <time>2019-12-10T12:43:50Z</time>
      </trkpt>
      <trkpt lat="43.51297" lon="6.75104">
        <ele>114.5</ele>
        <time>2019-12-10T12:43:52Z</time>
      </trkpt>
      <trkpt lat="43.51295" lon="6.75103">
        <ele>114.5</ele>
        <time>2019-12-10T12:43:54Z</time>
      </trkpt>
      <trkpt lat="43.51292" lon="6.75103">
        <ele>115</ele>
        <time>2019-12-10T12:43:56Z</time>
      </trkpt>
      <trkpt lat="43.51289" lon="6.75103">
        <ele>115.5</ele>
        <time>2019-12-10T12:43:58Z</time>
      </trkpt>
      <trkpt lat="43.51286" lon="6.75103">
        <ele>116</ele>
        <time>2019-12-10T12:44:00Z</time>
      </trkpt>
      <trkpt lat="43.51283" lon="6.75102">
        <ele>116</ele>
        <time>2019-12-10T12:44:02Z</time>
      </trkpt>
      <trkpt lat="43.51281" lon="6.75101">
        <ele>116</ele>
        <time>2019-12-10T12:44:04Z</time>
      </trkpt>
      <trkpt lat="43.51278" lon="6.751">
        <ele>116.5</ele>
        <time>2019-12-10T12:44:06Z</time>
      </trkpt>
      <trkpt lat="43.51276" lon="6.75099">
        <ele>116.9</ele>
        <time>2019-12-10T12:44:08Z</time>
      </trkpt>
      <trkpt lat="43.51273" lon="6.75098">
        <ele>117.4</ele>
        <time>2019-12-10T12:44:10Z</time>
      </trkpt>
      <trkpt lat="43.51271" lon="6.75096">
        <ele>117.4</ele>
        <time>2019-12-10T12:44:12Z</time>
      </trkpt>
      <trkpt lat="43.51268" lon="6.75095">
        <ele>117.4</ele>
        <time>2019-12-10T12:44:14Z</time>
      </trkpt>
      <trkpt lat="43.51265" lon="6.75095">
        <ele>117.9</ele>
        <time>2019-12-10T12:44:16Z</time>
      </trkpt>
      <trkpt lat="43.51262" lon="6.75094">
        <ele>118.4</ele>
        <time>2019-12-10T12:44:18Z</time>
      </trkpt>
      <trkpt lat="43.51259" lon="6.75094">
        <ele>118.9</ele>
        <time>2019-12-10T12:44:20Z</time>
      </trkpt>
      <trkpt lat="43.51256" lon="6.75093">
        <ele>118.9</ele>
        <time>2019-12-10T12:44:22Z</time>
      </trkpt>
      <trkpt lat="43.51253" lon="6.75092">
        <ele>119.3</ele>
        <time>2019-12-10T12:44:24Z</time>
      </trkpt>
      <trkpt lat="43.5125" lon="6.75092">
        <ele>119.3</ele>
        <time>2019-12-10T12:44:26Z</time>
      </trkpt>
      <trkpt lat="43.51247" lon="6.75092">
        <ele>119.3</ele>
        <time>2019-12-10T12:44:28Z</time>
      </trkpt>
      <trkpt lat="43.51244" lon="6.75092">
        <ele>119.3</ele>
        <time>2019-12-10T12:44:30Z</time>
      </trkpt>
      <trkpt lat="43.51241" lon="6.75092">
        <ele>119.8</ele>
        <time>2019-12-10T12:44:32Z</time>
      </trkpt>
      <trkpt lat="43.51239" lon="6.75092">
        <ele>119.8</ele>
        <time>2019-12-10T12:44:34Z</time>
      </trkpt>
      <trkpt lat="43.51236" lon="6.75093">
        <ele>119.8</ele>
        <time>2019-12-10T12:44:36Z</time>
      </trkpt>
      <trkpt lat="43.51233" lon="6.75095">
        <ele>120.3</ele>
        <time>2019-12-10T12:44:38Z</time>
      </trkpt>
      <trkpt lat="43.51231" lon="6.75098">
        <ele>120.8</ele>
        <time>2019-12-10T12:44:40Z</time>
      </trkpt>
      <trkpt lat="43.5123" lon="6.75102">
        <ele>121.3</ele>
        <time>2019-12-10T12:44:42Z</time>
      </trkpt>
      <trkpt lat="43.51229" lon="6.75107">
        <ele>121.7</ele>
        <time>2019-12-10T12:44:44Z</time>
      </trkpt>
      <trkpt lat="43.51229" lon="6.75111">
        <ele>121.7</ele>
        <time>2019-12-10T12:44:46Z</time>
      </trkpt>
      <trkpt lat="43.5123" lon="6.75115">
        <ele>122.2</ele>
        <time>2019-12-10T12:44:48Z</time>
      </trkpt>
      <trkpt lat="43.51231" lon="6.75119">
        <ele>122.7</ele>
        <time>2019-12-10T12:44:50Z</time>
      </trkpt>
      <trkpt lat="43.51233" lon="6.75123">
        <ele>123.2</ele>
        <time>2019-12-10T12:44:52Z</time>
      </trkpt>
      <trkpt lat="43.51234" lon="6.75127">
        <ele>123.7</ele>
        <time>2019-12-10T12:44:54Z</time>
      </trkpt>
      <trkpt lat="43.51235" lon="6.7513">
        <ele>124.1</ele>
        <time>2019-12-10T12:44:56Z</time>
      </trkpt>
      <trkpt lat="43.51236" lon="6.75132">
        <ele>124.1</ele>
        <time>2019-12-10T12:44:58Z</time>
      </trkpt>
      <trkpt lat="43.51237" lon="6.75135">
        <ele>124.6</ele>
        <time>2019-12-10T12:45:00Z</time>
      </trkpt>
      <trkpt lat="43.51237" lon="6.75139">
        <ele>125.1</ele>
        <time>2019-12-10T12:45:02Z</time>
      </trkpt>
      <trkpt lat="43.51239" lon="6.75143">
        <ele>125.1</ele>
        <time>2019-12-10T12:45:04Z</time>
      </trkpt>
      <trkpt lat="43.5124" lon="6.75146">
        <ele>125.1</ele>
        <time>2019-12-10T12:45:06Z</time>
      </trkpt>
      <trkpt lat="43.51241" lon="6.7515">
        <ele>125.6</ele>
        <time>2019-12-10T12:45:08Z</time>
      </trkpt>
      <trkpt lat="43.51242" lon="6.75153">
        <ele>125.6</ele>
        <time>2019-12-10T12:45:10Z</time>
      </trkpt>
      <trkpt lat="43.51243" lon="6.75156">
        <ele>126.6</ele>
        <time>2019-12-10T12:45:12Z</time>
      </trkpt>
      <trkpt lat="43.51243" lon="6.75161">
        <ele>127</ele>
        <time>2019-12-10T12:45:14Z</time>
      </trkpt>
      <trkpt lat="43.51244" lon="6.75165">
        <ele>127.5</ele>
        <time>2019-12-10T12:45:16Z</time>
      </trkpt>
      <trkpt lat="43.51245" lon="6.75169">
        <ele>128.5</ele>
        <time>2019-12-10T12:45:18Z</time>
      </trkpt>
      <trkpt lat="43.51245" lon="6.75172">
        <ele>129</ele>
        <time>2019-12-10T12:45:20Z</time>
      </trkpt>
      <trkpt lat="43.51245" lon="6.75176">
        <ele>129.9</ele>
        <time>2019-12-10T12:45:22Z</time>
      </trkpt>
      <trkpt lat="43.51244" lon="6.7518">
        <ele>130.4</ele>
        <time>2019-12-10T12:45:24Z</time>
      </trkpt>
      <trkpt lat="43.51243" lon="6.75183">
        <ele>130.9</ele>
        <time>2019-12-10T12:45:26Z</time>
      </trkpt>
      <trkpt lat="43.51243" lon="6.75187">
        <ele>131.4</ele>
        <time>2019-12-10T12:45:28Z</time>
      </trkpt>
      <trkpt lat="43.51241" lon="6.75192">
        <ele>132.3</ele>
        <time>2019-12-10T12:45:30Z</time>
      </trkpt>
      <trkpt lat="43.51238" lon="6.75195">
        <ele>132.8</ele>
        <time>2019-12-10T12:45:32Z</time>
      </trkpt>
      <trkpt lat="43.51238" lon="6.75199">
        <ele>133.3</ele>
        <time>2019-12-10T12:45:34Z</time>
      </trkpt>
      <trkpt lat="43.51236" lon="6.75202">
        <ele>134.2</ele>
        <time>2019-12-10T12:45:36Z</time>
      </trkpt>
      <trkpt lat="43.51233" lon="6.75205">
        <ele>134.7</ele>
        <time>2019-12-10T12:45:38Z</time>
      </trkpt>
      <trkpt lat="43.5123" lon="6.75208">
        <ele>135.2</ele>
        <time>2019-12-10T12:45:40Z</time>
      </trkpt>
      <trkpt lat="43.51228" lon="6.75211">
        <ele>135.2</ele>
        <time>2019-12-10T12:45:42Z</time>
      </trkpt>
      <trkpt lat="43.51226" lon="6.75214">
        <ele>135.7</ele>
        <time>2019-12-10T12:45:44Z</time>
      </trkpt>
      <trkpt lat="43.51224" lon="6.75217">
        <ele>136.2</ele>
        <time>2019-12-10T12:45:46Z</time>
      </trkpt>
      <trkpt lat="43.51221" lon="6.7522">
        <ele>137.1</ele>
        <time>2019-12-10T12:45:48Z</time>
      </trkpt>
      <trkpt lat="43.51218" lon="6.75221">
        <ele>136.2</ele>
        <time>2019-12-10T12:45:50Z</time>
      </trkpt>
      <trkpt lat="43.51216" lon="6.75223">
        <ele>135.7</ele>
        <time>2019-12-10T12:45:52Z</time>
      </trkpt>
      <trkpt lat="43.51213" lon="6.75225">
        <ele>136.2</ele>
        <time>2019-12-10T12:45:54Z</time>
      </trkpt>
      <trkpt lat="43.5121" lon="6.75226">
        <ele>135.7</ele>
        <time>2019-12-10T12:45:56Z</time>
      </trkpt>
      <trkpt lat="43.51207" lon="6.75227">
        <ele>136.2</ele>
        <time>2019-12-10T12:45:58Z</time>
      </trkpt>
      <trkpt lat="43.51204" lon="6.75228">
        <ele>136.2</ele>
        <time>2019-12-10T12:46:00Z</time>
      </trkpt>
      <trkpt lat="43.51202" lon="6.75231">
        <ele>136.2</ele>
        <time>2019-12-10T12:46:02Z</time>
      </trkpt>
      <trkpt lat="43.51199" lon="6.75233">
        <ele>136.6</ele>
        <time>2019-12-10T12:46:04Z</time>
      </trkpt>
      <trkpt lat="43.51196" lon="6.75236">
        <ele>136.6</ele>
        <time>2019-12-10T12:46:06Z</time>
      </trkpt>
      <trkpt lat="43.51194" lon="6.75239">
        <ele>137.1</ele>
        <time>2019-12-10T12:46:08Z</time>
      </trkpt>
      <trkpt lat="43.51193" lon="6.75242">
        <ele>137.6</ele>
        <time>2019-12-10T12:46:10Z</time>
      </trkpt>
      <trkpt lat="43.51191" lon="6.75245">
        <ele>138.1</ele>
        <time>2019-12-10T12:46:12Z</time>
      </trkpt>
      <trkpt lat="43.51189" lon="6.75249">
        <ele>138.1</ele>
        <time>2019-12-10T12:46:14Z</time>
      </trkpt>
      <trkpt lat="43.51186" lon="6.75251">
        <ele>138.6</ele>
        <time>2019-12-10T12:46:16Z</time>
      </trkpt>
      <trkpt lat="43.51184" lon="6.75255">
        <ele>139</ele>
        <time>2019-12-10T12:46:18Z</time>
      </trkpt>
      <trkpt lat="43.51182" lon="6.75258">
        <ele>139.5</ele>
        <time>2019-12-10T12:46:20Z</time>
      </trkpt>
      <trkpt lat="43.51182" lon="6.75262">
        <ele>139.5</ele>
        <time>2019-12-10T12:46:22Z</time>
      </trkpt>
      <trkpt lat="43.51181" lon="6.75266">
        <ele>140</ele>
        <time>2019-12-10T12:46:24Z</time>
      </trkpt>
      <trkpt lat="43.5118" lon="6.7527">
        <ele>140</ele>
        <time>2019-12-10T12:46:26Z</time>
      </trkpt>
      <trkpt lat="43.5118" lon="6.75274">
        <ele>140</ele>
        <time>2019-12-10T12:46:28Z</time>
      </trkpt>
      <trkpt lat="43.51179" lon="6.75277">
        <ele>140</ele>
        <time>2019-12-10T12:46:30Z</time>
      </trkpt>
      <trkpt lat="43.51179" lon="6.7528">
        <ele>140</ele>
        <time>2019-12-10T12:46:32Z</time>
      </trkpt>
      <trkpt lat="43.51179" lon="6.75283">
        <ele>140</ele>
        <time>2019-12-10T12:46:34Z</time>
      </trkpt>
      <trkpt lat="43.51179" lon="6.75285">
        <ele>140</ele>
        <time>2019-12-10T12:46:36Z</time>
      </trkpt>
      <trkpt lat="43.51179" lon="6.75285">
        <ele>140</ele>
        <time>2019-12-10T12:46:38Z</time>
      </trkpt>
      <trkpt lat="43.5118" lon="6.75284">
        <ele>139.5</ele>
        <time>2019-12-10T12:46:40Z</time>
      </trkpt>
      <trkpt lat="43.5118" lon="6.75284">
        <ele>140</ele>
        <time>2019-12-10T12:46:42Z</time>
      </trkpt>
      <trkpt lat="43.5118" lon="6.75284">
        <ele>140</ele>
        <time>2019-12-10T12:46:44Z</time>
      </trkpt>
      <trkpt lat="43.5118" lon="6.75284">
        <ele>140</ele>
        <time>2019-12-10T12:46:46Z</time>
      </trkpt>
      <trkpt lat="43.5118" lon="6.75284">
        <ele>140</ele>
        <time>2019-12-10T12:46:48Z</time>
      </trkpt>
      <trkpt lat="43.5118" lon="6.75284">
        <ele>140</ele>
        <time>2019-12-10T12:46:50Z</time>
      </trkpt>
      <trkpt lat="43.5118" lon="6.75284">
        <ele>140</ele>
        <time>2019-12-10T12:46:52Z</time>
      </trkpt>
      <trkpt lat="43.5118" lon="6.75284">
        <ele>140</ele>
        <time>2019-12-10T12:46:54Z</time>
      </trkpt>
      <trkpt lat="43.5118" lon="6.75284">
        <ele>140</ele>
        <time>2019-12-10T12:46:56Z</time>
      </trkpt>
      <trkpt lat="43.5118" lon="6.75284">
        <ele>140</ele>
        <time>2019-12-10T12:46:58Z</time>
      </trkpt>
      <trkpt lat="43.5118" lon="6.75284">
        <ele>140</ele>
        <time>2019-12-10T12:47:00Z</time>
      </trkpt>
      <trkpt lat="43.5118" lon="6.75284">
        <ele>140</ele>
        <time>2019-12-10T12:47:02Z</time>
      </trkpt>
      <trkpt lat="43.5118" lon="6.75284">
        <ele>140</ele>
        <time>2019-12-10T12:47:04Z</time>
      </trkpt>
      <trkpt lat="43.5118" lon="6.75284">
        <ele>140</ele>
        <time>2019-12-10T12:47:06Z</time>
      </trkpt>
      <trkpt lat="43.51179" lon="6.75284">
        <ele>140</ele>
        <time>2019-12-10T12:47:08Z</time>
      </trkpt>
      <trkpt lat="43.51178" lon="6.75285">
        <ele>140</ele>
        <time>2019-12-10T12:47:10Z</time>
      </trkpt>
      <trkpt lat="43.51176" lon="6.75285">
        <ele>139.5</ele>
        <time>2019-12-10T12:47:12Z</time>
      </trkpt>
      <trkpt lat="43.51172" lon="6.75286">
        <ele>139.5</ele>
        <time>2019-12-10T12:47:14Z</time>
      </trkpt>
      <trkpt lat="43.5117" lon="6.75286">
        <ele>139.5</ele>
        <time>2019-12-10T12:47:16Z</time>
      </trkpt>
      <trkpt lat="43.51168" lon="6.75287">
        <ele>139.5</ele>
        <time>2019-12-10T12:47:18Z</time>
      </trkpt>
      <trkpt lat="43.51168" lon="6.75288">
        <ele>139.5</ele>
        <time>2019-12-10T12:47:20Z</time>
      </trkpt>
      <trkpt lat="43.51168" lon="6.75289">
        <ele>140</ele>
        <time>2019-12-10T12:47:22Z</time>
      </trkpt>
      <trkpt lat="43.51167" lon="6.75289">
        <ele>140.5</ele>
        <time>2019-12-10T12:47:24Z</time>
      </trkpt>
      <trkpt lat="43.51168" lon="6.7529">
        <ele>140.5</ele>
        <time>2019-12-10T12:47:26Z</time>
      </trkpt>
      <trkpt lat="43.51168" lon="6.75292">
        <ele>141</ele>
        <time>2019-12-10T12:47:28Z</time>
      </trkpt>
      <trkpt lat="43.51168" lon="6.75293">
        <ele>141.5</ele>
        <time>2019-12-10T12:47:30Z</time>
      </trkpt>
      <trkpt lat="43.51169" lon="6.75295">
        <ele>141.5</ele>
        <time>2019-12-10T12:47:32Z</time>
      </trkpt>
      <trkpt lat="43.51171" lon="6.75295">
        <ele>141.9</ele>
        <time>2019-12-10T12:47:34Z</time>
      </trkpt>
      <trkpt lat="43.51173" lon="6.75297">
        <ele>142.4</ele>
        <time>2019-12-10T12:47:36Z</time>
      </trkpt>
      <trkpt lat="43.51173" lon="6.75299">
        <ele>142.4</ele>
        <time>2019-12-10T12:47:38Z</time>
      </trkpt>
      <trkpt lat="43.51173" lon="6.75301">
        <ele>142.4</ele>
        <time>2019-12-10T12:47:40Z</time>
      </trkpt>
      <trkpt lat="43.51173" lon="6.75303">
        <ele>142.9</ele>
        <time>2019-12-10T12:47:42Z</time>
      </trkpt>
      <trkpt lat="43.51173" lon="6.75305">
        <ele>142.9</ele>
        <time>2019-12-10T12:47:44Z</time>
      </trkpt>
      <trkpt lat="43.51173" lon="6.75308">
        <ele>142.9</ele>
        <time>2019-12-10T12:47:46Z</time>
      </trkpt>
      <trkpt lat="43.51173" lon="6.7531">
        <ele>143.4</ele>
        <time>2019-12-10T12:47:48Z</time>
      </trkpt>
      <trkpt lat="43.51173" lon="6.75312">
        <ele>143.4</ele>
        <time>2019-12-10T12:47:50Z</time>
      </trkpt>
      <trkpt lat="43.51173" lon="6.75313">
        <ele>143.4</ele>
        <time>2019-12-10T12:47:52Z</time>
      </trkpt>
      <trkpt lat="43.51173" lon="6.75314">
        <ele>143.9</ele>
        <time>2019-12-10T12:47:54Z</time>
      </trkpt>
      <trkpt lat="43.51172" lon="6.75315">
        <ele>143.9</ele>
        <time>2019-12-10T12:47:56Z</time>
      </trkpt>
      <trkpt lat="43.51172" lon="6.75314">
        <ele>143.9</ele>
        <time>2019-12-10T12:47:58Z</time>
      </trkpt>
      <trkpt lat="43.51172" lon="6.75314">
        <ele>143.9</ele>
        <time>2019-12-10T12:48:00Z</time>
      </trkpt>
      <trkpt lat="43.51172" lon="6.75314">
        <ele>143.9</ele>
        <time>2019-12-10T12:48:02Z</time>
      </trkpt>
      <trkpt lat="43.51172" lon="6.75314">
        <ele>143.9</ele>
        <time>2019-12-10T12:48:04Z</time>
      </trkpt>
      <trkpt lat="43.51172" lon="6.75314">
        <ele>143.9</ele>
        <time>2019-12-10T12:48:06Z</time>
      </trkpt>
      <trkpt lat="43.51171" lon="6.75314">
        <ele>143.9</ele>
        <time>2019-12-10T12:48:08Z</time>
      </trkpt>
      <trkpt lat="43.51171" lon="6.75313">
        <ele>143.9</ele>
        <time>2019-12-10T12:48:10Z</time>
      </trkpt>
      <trkpt lat="43.51172" lon="6.75313">
        <ele>143.9</ele>
        <time>2019-12-10T12:48:12Z</time>
      </trkpt>
      <trkpt lat="43.51172" lon="6.75313">
        <ele>143.9</ele>
        <time>2019-12-10T12:48:14Z</time>
      </trkpt>
      <trkpt lat="43.51172" lon="6.75313">
        <ele>143.9</ele>
        <time>2019-12-10T12:48:16Z</time>
      </trkpt>
      <trkpt lat="43.51172" lon="6.75313">
        <ele>143.9</ele>
        <time>2019-12-10T12:48:18Z</time>
      </trkpt>
      <trkpt lat="43.51172" lon="6.75313">
        <ele>143.9</ele>
        <time>2019-12-10T12:48:20Z</time>
      </trkpt>
      <trkpt lat="43.51172" lon="6.75313">
        <ele>143.9</ele>
        <time>2019-12-10T12:48:22Z</time>
      </trkpt>
      <trkpt lat="43.51172" lon="6.75314">
        <ele>143.9</ele>
        <time>2019-12-10T12:48:24Z</time>
      </trkpt>
      <trkpt lat="43.51172" lon="6.75314">
        <ele>143.9</ele>
        <time>2019-12-10T12:48:26Z</time>
      </trkpt>
      <trkpt lat="43.51172" lon="6.75314">
        <ele>143.9</ele>
        <time>2019-12-10T12:48:28Z</time>
      </trkpt>
      <trkpt lat="43.51172" lon="6.75314">
        <ele>143.9</ele>
        <time>2019-12-10T12:48:30Z</time>
      </trkpt>
      <trkpt lat="43.51172" lon="6.75314">
        <ele>143.9</ele>
        <time>2019-12-10T12:48:32Z</time>
      </trkpt>
      <trkpt lat="43.51171" lon="6.75314">
        <ele>143.9</ele>
        <time>2019-12-10T12:48:34Z</time>
      </trkpt>
      <trkpt lat="43.51171" lon="6.75314">
        <ele>143.9</ele>
        <time>2019-12-10T12:48:36Z</time>
      </trkpt>
      <trkpt lat="43.51171" lon="6.75314">
        <ele>143.9</ele>
        <time>2019-12-10T12:48:38Z</time>
      </trkpt>
      <trkpt lat="43.51171" lon="6.75314">
        <ele>143.9</ele>
        <time>2019-12-10T12:48:40Z</time>
      </trkpt>
      <trkpt lat="43.51171" lon="6.75314">
        <ele>143.9</ele>
        <time>2019-12-10T12:48:42Z</time>
      </trkpt>
      <trkpt lat="43.51171" lon="6.75314">
        <ele>143.9</ele>
        <time>2019-12-10T12:48:44Z</time>
      </trkpt>
      <trkpt lat="43.51171" lon="6.75314">
        <ele>143.4</ele>
        <time>2019-12-10T12:48:46Z</time>
      </trkpt>
      <trkpt lat="43.51171" lon="6.75314">
        <ele>143.4</ele>
        <time>2019-12-10T12:48:48Z</time>
      </trkpt>
      <trkpt lat="43.51171" lon="6.75314">
        <ele>143.4</ele>
        <time>2019-12-10T12:48:50Z</time>
      </trkpt>
      <trkpt lat="43.51171" lon="6.75314">
        <ele>143.4</ele>
        <time>2019-12-10T12:48:52Z</time>
      </trkpt>
      <trkpt lat="43.51172" lon="6.75314">
        <ele>143.9</ele>
        <time>2019-12-10T12:48:54Z</time>
      </trkpt>
      <trkpt lat="43.51172" lon="6.75315">
        <ele>143.9</ele>
        <time>2019-12-10T12:48:56Z</time>
      </trkpt>
      <trkpt lat="43.51172" lon="6.75314">
        <ele>143.9</ele>
        <time>2019-12-10T12:48:58Z</time>
      </trkpt>
      <trkpt lat="43.51172" lon="6.75312">
        <ele>143.9</ele>
        <time>2019-12-10T12:49:00Z</time>
      </trkpt>
      <trkpt lat="43.51172" lon="6.7531">
        <ele>143.9</ele>
        <time>2019-12-10T12:49:02Z</time>
      </trkpt>
      <trkpt lat="43.5117" lon="6.75309">
        <ele>143.9</ele>
        <time>2019-12-10T12:49:04Z</time>
      </trkpt>
      <trkpt lat="43.5117" lon="6.75307">
        <ele>143.4</ele>
        <time>2019-12-10T12:49:06Z</time>
      </trkpt>
      <trkpt lat="43.5117" lon="6.75305">
        <ele>142.9</ele>
        <time>2019-12-10T12:49:08Z</time>
      </trkpt>
      <trkpt lat="43.51169" lon="6.75304">
        <ele>142.9</ele>
        <time>2019-12-10T12:49:10Z</time>
      </trkpt>
      <trkpt lat="43.51169" lon="6.75304">
        <ele>142.4</ele>
        <time>2019-12-10T12:49:12Z</time>
      </trkpt>
      <trkpt lat="43.51169" lon="6.75302">
        <ele>142.4</ele>
        <time>2019-12-10T12:49:14Z</time>
      </trkpt>
      <trkpt lat="43.51169" lon="6.753">
        <ele>141.9</ele>
        <time>2019-12-10T12:49:16Z</time>
      </trkpt>
      <trkpt lat="43.51169" lon="6.75298">
        <ele>141.5</ele>
        <time>2019-12-10T12:49:18Z</time>
      </trkpt>
      <trkpt lat="43.51169" lon="6.75297">
        <ele>141.5</ele>
        <time>2019-12-10T12:49:20Z</time>
      </trkpt>
      <trkpt lat="43.51168" lon="6.75297">
        <ele>141.5</ele>
        <time>2019-12-10T12:49:22Z</time>
      </trkpt>
      <trkpt lat="43.51168" lon="6.75296">
        <ele>141</ele>
        <time>2019-12-10T12:49:24Z</time>
      </trkpt>
      <trkpt lat="43.51168" lon="6.75296">
        <ele>141</ele>
        <time>2019-12-10T12:49:26Z</time>
      </trkpt>
      <trkpt lat="43.51167" lon="6.75294">
        <ele>140.5</ele>
        <time>2019-12-10T12:49:28Z</time>
      </trkpt>
      <trkpt lat="43.51166" lon="6.75293">
        <ele>140.5</ele>
        <time>2019-12-10T12:49:30Z</time>
      </trkpt>
      <trkpt lat="43.51166" lon="6.75293">
        <ele>141</ele>
        <time>2019-12-10T12:49:32Z</time>
      </trkpt>
      <trkpt lat="43.51166" lon="6.75293">
        <ele>140.5</ele>
        <time>2019-12-10T12:49:34Z</time>
      </trkpt>
      <trkpt lat="43.51166" lon="6.75292">
        <ele>140</ele>
        <time>2019-12-10T12:49:36Z</time>
      </trkpt>
      <trkpt lat="43.51165" lon="6.7529">
        <ele>140</ele>
        <time>2019-12-10T12:49:38Z</time>
      </trkpt>
      <trkpt lat="43.51165" lon="6.75289">
        <ele>140</ele>
        <time>2019-12-10T12:49:40Z</time>
      </trkpt>
      <trkpt lat="43.51165" lon="6.75288">
        <ele>140</ele>
        <time>2019-12-10T12:49:42Z</time>
      </trkpt>
      <trkpt lat="43.51165" lon="6.75288">
        <ele>140</ele>
        <time>2019-12-10T12:49:44Z</time>
      </trkpt>
      <trkpt lat="43.51165" lon="6.75288">
        <ele>140</ele>
        <time>2019-12-10T12:49:46Z</time>
      </trkpt>
      <trkpt lat="43.51164" lon="6.75284">
        <ele>140</ele>
        <time>2019-12-10T12:49:48Z</time>
      </trkpt>
      <trkpt lat="43.51165" lon="6.7528">
        <ele>140.5</ele>
        <time>2019-12-10T12:49:50Z</time>
      </trkpt>
      <trkpt lat="43.51166" lon="6.75277">
        <ele>140.5</ele>
        <time>2019-12-10T12:49:52Z</time>
      </trkpt>
      <trkpt lat="43.51168" lon="6.75276">
        <ele>140.5</ele>
        <time>2019-12-10T12:49:54Z</time>
      </trkpt>
      <trkpt lat="43.51169" lon="6.75277">
        <ele>140.5</ele>
        <time>2019-12-10T12:49:56Z</time>
      </trkpt>
      <trkpt lat="43.5117" lon="6.75277">
        <ele>140.5</ele>
        <time>2019-12-10T12:49:58Z</time>
      </trkpt>
      <trkpt lat="43.51173" lon="6.75279">
        <ele>140.5</ele>
        <time>2019-12-10T12:50:00Z</time>
      </trkpt>
      <trkpt lat="43.51176" lon="6.75278">
        <ele>140.5</ele>
        <time>2019-12-10T12:50:02Z</time>
      </trkpt>
      <trkpt lat="43.5118" lon="6.75277">
        <ele>140.5</ele>
        <time>2019-12-10T12:50:04Z</time>
      </trkpt>
      <trkpt lat="43.51185" lon="6.75279">
        <ele>140.5</ele>
        <time>2019-12-10T12:50:06Z</time>
      </trkpt>
      <trkpt lat="43.51189" lon="6.75281">
        <ele>140.5</ele>
        <time>2019-12-10T12:50:08Z</time>
      </trkpt>
      <trkpt lat="43.51194" lon="6.75284">
        <ele>140</ele>
        <time>2019-12-10T12:50:10Z</time>
      </trkpt>
      <trkpt lat="43.51198" lon="6.75286">
        <ele>139.5</ele>
        <time>2019-12-10T12:50:12Z</time>
      </trkpt>
      <trkpt lat="43.51202" lon="6.75291">
        <ele>138.6</ele>
        <time>2019-12-10T12:50:14Z</time>
      </trkpt>
      <trkpt lat="43.51207" lon="6.75295">
        <ele>138.1</ele>
        <time>2019-12-10T12:50:16Z</time>
      </trkpt>
      <trkpt lat="43.51213" lon="6.753">
        <ele>138.1</ele>
        <time>2019-12-10T12:50:18Z</time>
      </trkpt>
      <trkpt lat="43.5122" lon="6.75306">
        <ele>137.6</ele>
        <time>2019-12-10T12:50:20Z</time>
      </trkpt>
      <trkpt lat="43.51225" lon="6.75315">
        <ele>136.6</ele>
        <time>2019-12-10T12:50:22Z</time>
      </trkpt>
      <trkpt lat="43.51229" lon="6.75328">
        <ele>136.6</ele>
        <time>2019-12-10T12:50:24Z</time>
      </trkpt>
      <trkpt lat="43.51232" lon="6.75342">
        <ele>135.7</ele>
        <time>2019-12-10T12:50:26Z</time>
      </trkpt>
      <trkpt lat="43.51233" lon="6.75356">
        <ele>134.7</ele>
        <time>2019-12-10T12:50:28Z</time>
      </trkpt>
      <trkpt lat="43.51233" lon="6.75372">
        <ele>133.8</ele>
        <time>2019-12-10T12:50:30Z</time>
      </trkpt>
      <trkpt lat="43.51229" lon="6.75389">
        <ele>132.3</ele>
        <time>2019-12-10T12:50:32Z</time>
      </trkpt>
      <trkpt lat="43.51221" lon="6.75403">
        <ele>131.4</ele>
        <time>2019-12-10T12:50:34Z</time>
      </trkpt>
      <trkpt lat="43.51215" lon="6.75416">
        <ele>130.9</ele>
        <time>2019-12-10T12:50:36Z</time>
      </trkpt>
      <trkpt lat="43.51212" lon="6.75427">
        <ele>129.9</ele>
        <time>2019-12-10T12:50:38Z</time>
      </trkpt>
      <trkpt lat="43.51212" lon="6.75438">
        <ele>129</ele>
        <time>2019-12-10T12:50:40Z</time>
      </trkpt>
      <trkpt lat="43.51215" lon="6.7545">
        <ele>128</ele>
        <time>2019-12-10T12:50:42Z</time>
      </trkpt>
      <trkpt lat="43.51218" lon="6.75458">
        <ele>127</ele>
        <time>2019-12-10T12:50:44Z</time>
      </trkpt>
      <trkpt lat="43.51221" lon="6.75465">
        <ele>126.6</ele>
        <time>2019-12-10T12:50:46Z</time>
      </trkpt>
      <trkpt lat="43.51224" lon="6.75475">
        <ele>125.6</ele>
        <time>2019-12-10T12:50:48Z</time>
      </trkpt>
      <trkpt lat="43.51226" lon="6.75485">
        <ele>124.6</ele>
        <time>2019-12-10T12:50:50Z</time>
      </trkpt>
      <trkpt lat="43.51228" lon="6.75495">
        <ele>124.1</ele>
        <time>2019-12-10T12:50:52Z</time>
      </trkpt>
      <trkpt lat="43.51227" lon="6.75506">
        <ele>123.2</ele>
        <time>2019-12-10T12:50:54Z</time>
      </trkpt>
      <trkpt lat="43.51222" lon="6.75517">
        <ele>122.2</ele>
        <time>2019-12-10T12:50:56Z</time>
      </trkpt>
      <trkpt lat="43.51214" lon="6.75526">
        <ele>121.3</ele>
        <time>2019-12-10T12:50:58Z</time>
      </trkpt>
      <trkpt lat="43.51205" lon="6.75534">
        <ele>120.3</ele>
        <time>2019-12-10T12:51:00Z</time>
      </trkpt>
      <trkpt lat="43.51194" lon="6.75539">
        <ele>119.8</ele>
        <time>2019-12-10T12:51:02Z</time>
      </trkpt>
      <trkpt lat="43.51182" lon="6.75543">
        <ele>118.9</ele>
        <time>2019-12-10T12:51:04Z</time>
      </trkpt>
      <trkpt lat="43.51171" lon="6.75548">
        <ele>117.9</ele>
        <time>2019-12-10T12:51:06Z</time>
      </trkpt>
      <trkpt lat="43.51161" lon="6.75552">
        <ele>118.4</ele>
        <time>2019-12-10T12:51:08Z</time>
      </trkpt>
      <trkpt lat="43.51154" lon="6.75554">
        <ele>118.4</ele>
        <time>2019-12-10T12:51:10Z</time>
      </trkpt>
      <trkpt lat="43.5115" lon="6.75557">
        <ele>118.9</ele>
        <time>2019-12-10T12:51:12Z</time>
      </trkpt>
      <trkpt lat="43.51149" lon="6.75558">
        <ele>118.9</ele>
        <time>2019-12-10T12:51:14Z</time>
      </trkpt>
      <trkpt lat="43.51148" lon="6.75558">
        <ele>118.9</ele>
        <time>2019-12-10T12:51:16Z</time>
      </trkpt>
      <trkpt lat="43.51148" lon="6.75558">
        <ele>118.9</ele>
        <time>2019-12-10T12:51:18Z</time>
      </trkpt>
      <trkpt lat="43.51149" lon="6.75559">
        <ele>118.9</ele>
        <time>2019-12-10T12:51:20Z</time>
      </trkpt>
      <trkpt lat="43.51149" lon="6.75561">
        <ele>118.9</ele>
        <time>2019-12-10T12:51:22Z</time>
      </trkpt>
      <trkpt lat="43.51149" lon="6.75564">
        <ele>118.9</ele>
        <time>2019-12-10T12:51:24Z</time>
      </trkpt>
      <trkpt lat="43.51149" lon="6.75565">
        <ele>118.9</ele>
        <time>2019-12-10T12:51:26Z</time>
      </trkpt>
      <trkpt lat="43.51149" lon="6.75565">
        <ele>118.4</ele>
        <time>2019-12-10T12:51:28Z</time>
      </trkpt>
      <trkpt lat="43.5115" lon="6.75565">
        <ele>118.9</ele>
        <time>2019-12-10T12:51:30Z</time>
      </trkpt>
      <trkpt lat="43.5115" lon="6.75565">
        <ele>118.4</ele>
        <time>2019-12-10T12:51:32Z</time>
      </trkpt>
      <trkpt lat="43.5115" lon="6.75565">
        <ele>118.4</ele>
        <time>2019-12-10T12:51:34Z</time>
      </trkpt>
      <trkpt lat="43.5115" lon="6.75565">
        <ele>118.4</ele>
        <time>2019-12-10T12:51:36Z</time>
      </trkpt>
      <trkpt lat="43.5115" lon="6.75565">
        <ele>118.4</ele>
        <time>2019-12-10T12:51:38Z</time>
      </trkpt>
      <trkpt lat="43.5115" lon="6.75565">
        <ele>118.4</ele>
        <time>2019-12-10T12:51:40Z</time>
      </trkpt>
      <trkpt lat="43.5115" lon="6.75565">
        <ele>118.4</ele>
        <time>2019-12-10T12:51:42Z</time>
      </trkpt>
      <trkpt lat="43.51149" lon="6.75565">
        <ele>118.4</ele>
        <time>2019-12-10T12:51:44Z</time>
      </trkpt>
      <trkpt lat="43.51149" lon="6.75565">
        <ele>118.4</ele>
        <time>2019-12-10T12:51:46Z</time>
      </trkpt>
      <trkpt lat="43.51149" lon="6.75564">
        <ele>118.4</ele>
        <time>2019-12-10T12:51:48Z</time>
      </trkpt>
      <trkpt lat="43.51149" lon="6.75564">
        <ele>118.4</ele>
        <time>2019-12-10T12:51:50Z</time>
      </trkpt>
      <trkpt lat="43.51149" lon="6.75564">
        <ele>118.4</ele>
        <time>2019-12-10T12:51:52Z</time>
      </trkpt>
      <trkpt lat="43.51149" lon="6.75564">
        <ele>118.9</ele>
        <time>2019-12-10T12:51:54Z</time>
      </trkpt>
      <trkpt lat="43.51149" lon="6.75564">
        <ele>118.9</ele>
        <time>2019-12-10T12:51:56Z</time>
      </trkpt>
      <trkpt lat="43.5115" lon="6.75564">
        <ele>118.9</ele>
        <time>2019-12-10T12:51:58Z</time>
      </trkpt>
      <trkpt lat="43.51149" lon="6.75565">
        <ele>118.9</ele>
        <time>2019-12-10T12:52:00Z</time>
      </trkpt>
      <trkpt lat="43.51149" lon="6.75565">
        <ele>118.4</ele>
        <time>2019-12-10T12:52:02Z</time>
      </trkpt>
      <trkpt lat="43.51149" lon="6.75565">
        <ele>118.4</ele>
        <time>2019-12-10T12:52:04Z</time>
      </trkpt>
      <trkpt lat="43.51149" lon="6.75565">
        <ele>118.9</ele>
        <time>2019-12-10T12:52:06Z</time>
      </trkpt>
      <trkpt lat="43.51149" lon="6.75565">
        <ele>118.9</ele>
        <time>2019-12-10T12:52:08Z</time>
      </trkpt>
      <trkpt lat="43.51149" lon="6.75565">
        <ele>118.9</ele>
        <time>2019-12-10T12:52:10Z</time>
      </trkpt>
      <trkpt lat="43.51149" lon="6.75565">
        <ele>118.9</ele>
        <time>2019-12-10T12:52:12Z</time>
      </trkpt>
      <trkpt lat="43.51149" lon="6.75565">
        <ele>118.9</ele>
        <time>2019-12-10T12:52:14Z</time>
      </trkpt>
      <trkpt lat="43.51149" lon="6.75565">
        <ele>118.9</ele>
        <time>2019-12-10T12:52:16Z</time>
      </trkpt>
      <trkpt lat="43.51149" lon="6.75565">
        <ele>118.9</ele>
        <time>2019-12-10T12:52:18Z</time>
      </trkpt>
      <trkpt lat="43.5115" lon="6.75565">
        <ele>118.9</ele>
        <time>2019-12-10T12:52:20Z</time>
      </trkpt>
      <trkpt lat="43.5115" lon="6.75565">
        <ele>118.4</ele>
        <time>2019-12-10T12:52:22Z</time>
      </trkpt>
      <trkpt lat="43.5115" lon="6.75565">
        <ele>118.9</ele>
        <time>2019-12-10T12:52:24Z</time>
      </trkpt>
      <trkpt lat="43.5115" lon="6.75565">
        <ele>118.9</ele>
        <time>2019-12-10T12:52:26Z</time>
      </trkpt>
      <trkpt lat="43.5115" lon="6.75565">
        <ele>118.9</ele>
        <time>2019-12-10T12:52:28Z</time>
      </trkpt>
      <trkpt lat="43.5115" lon="6.75565">
        <ele>118.9</ele>
        <time>2019-12-10T12:52:30Z</time>
      </trkpt>
      <trkpt lat="43.5115" lon="6.75565">
        <ele>118.9</ele>
        <time>2019-12-10T12:52:32Z</time>
      </trkpt>
      <trkpt lat="43.5115" lon="6.75565">
        <ele>118.9</ele>
        <time>2019-12-10T12:52:34Z</time>
      </trkpt>
      <trkpt lat="43.5115" lon="6.75565">
        <ele>118.9</ele>
        <time>2019-12-10T12:52:36Z</time>
      </trkpt>
      <trkpt lat="43.5115" lon="6.75565">
        <ele>118.9</ele>
        <time>2019-12-10T12:52:38Z</time>
      </trkpt>
      <trkpt lat="43.5115" lon="6.75565">
        <ele>118.9</ele>
        <time>2019-12-10T12:52:40Z</time>
      </trkpt>
      <trkpt lat="43.5115" lon="6.75565">
        <ele>118.9</ele>
        <time>2019-12-10T12:52:42Z</time>
      </trkpt>
      <trkpt lat="43.5115" lon="6.75565">
        <ele>118.9</ele>
        <time>2019-12-10T12:52:44Z</time>
      </trkpt>
      <trkpt lat="43.5115" lon="6.75565">
        <ele>118.9</ele>
        <time>2019-12-10T12:52:46Z</time>
      </trkpt>
      <trkpt lat="43.5115" lon="6.75565">
        <ele>118.9</ele>
        <time>2019-12-10T12:52:48Z</time>
      </trkpt>
      <trkpt lat="43.5115" lon="6.75565">
        <ele>118.9</ele>
        <time>2019-12-10T12:52:50Z</time>
      </trkpt>
      <trkpt lat="43.5115" lon="6.75565">
        <ele>118.9</ele>
        <time>2019-12-10T12:52:52Z</time>
      </trkpt>
      <trkpt lat="43.5115" lon="6.75565">
        <ele>118.9</ele>
        <time>2019-12-10T12:52:54Z</time>
      </trkpt>
      <trkpt lat="43.5115" lon="6.75565">
        <ele>118.9</ele>
        <time>2019-12-10T12:52:56Z</time>
      </trkpt>
      <trkpt lat="43.5115" lon="6.75565">
        <ele>118.9</ele>
        <time>2019-12-10T12:52:58Z</time>
      </trkpt>
      <trkpt lat="43.5115" lon="6.75565">
        <ele>118.9</ele>
        <time>2019-12-10T12:53:00Z</time>
      </trkpt>
      <trkpt lat="43.5115" lon="6.75565">
        <ele>118.9</ele>
        <time>2019-12-10T12:53:02Z</time>
      </trkpt>
      <trkpt lat="43.5115" lon="6.75565">
        <ele>118.9</ele>
        <time>2019-12-10T12:53:04Z</time>
      </trkpt>
      <trkpt lat="43.5115" lon="6.75565">
        <ele>118.9</ele>
        <time>2019-12-10T12:53:06Z</time>
      </trkpt>
      <trkpt lat="43.5115" lon="6.75565">
        <ele>118.9</ele>
        <time>2019-12-10T12:53:08Z</time>
      </trkpt>
      <trkpt lat="43.5115" lon="6.75565">
        <ele>118.9</ele>
        <time>2019-12-10T12:53:10Z</time>
      </trkpt>
      <trkpt lat="43.5115" lon="6.75565">
        <ele>118.9</ele>
        <time>2019-12-10T12:53:12Z</time>
      </trkpt>
      <trkpt lat="43.5115" lon="6.75565">
        <ele>118.9</ele>
        <time>2019-12-10T12:53:14Z</time>
      </trkpt>
      <trkpt lat="43.5115" lon="6.75565">
        <ele>118.9</ele>
        <time>2019-12-10T12:53:16Z</time>
      </trkpt>
      <trkpt lat="43.5115" lon="6.75565">
        <ele>118.9</ele>
        <time>2019-12-10T12:53:18Z</time>
      </trkpt>
      <trkpt lat="43.5115" lon="6.75565">
        <ele>118.9</ele>
        <time>2019-12-10T12:53:20Z</time>
      </trkpt>
      <trkpt lat="43.5115" lon="6.75565">
        <ele>118.9</ele>
        <time>2019-12-10T12:53:22Z</time>
      </trkpt>
      <trkpt lat="43.5115" lon="6.75565">
        <ele>118.9</ele>
        <time>2019-12-10T12:53:24Z</time>
      </trkpt>
      <trkpt lat="43.5115" lon="6.75565">
        <ele>118.9</ele>
        <time>2019-12-10T12:53:26Z</time>
      </trkpt>
      <trkpt lat="43.5115" lon="6.75565">
        <ele>118.9</ele>
        <time>2019-12-10T12:53:28Z</time>
      </trkpt>
      <trkpt lat="43.5115" lon="6.75565">
        <ele>118.9</ele>
        <time>2019-12-10T12:53:30Z</time>
      </trkpt>
      <trkpt lat="43.5115" lon="6.75565">
        <ele>118.9</ele>
        <time>2019-12-10T12:53:32Z</time>
      </trkpt>
      <trkpt lat="43.5115" lon="6.75565">
        <ele>118.9</ele>
        <time>2019-12-10T12:53:34Z</time>
      </trkpt>
      <trkpt lat="43.5115" lon="6.75565">
        <ele>118.9</ele>
        <time>2019-12-10T12:53:36Z</time>
      </trkpt>
      <trkpt lat="43.5115" lon="6.75565">
        <ele>118.9</ele>
        <time>2019-12-10T12:53:38Z</time>
      </trkpt>
      <trkpt lat="43.5115" lon="6.75565">
        <ele>118.9</ele>
        <time>2019-12-10T12:53:40Z</time>
      </trkpt>
      <trkpt lat="43.5115" lon="6.75565">
        <ele>118.9</ele>
        <time>2019-12-10T12:53:42Z</time>
      </trkpt>
      <trkpt lat="43.5115" lon="6.75565">
        <ele>118.9</ele>
        <time>2019-12-10T12:53:44Z</time>
      </trkpt>
      <trkpt lat="43.5115" lon="6.75565">
        <ele>118.9</ele>
        <time>2019-12-10T12:53:46Z</time>
      </trkpt>
      <trkpt lat="43.5115" lon="6.75565">
        <ele>118.9</ele>
        <time>2019-12-10T12:53:48Z</time>
      </trkpt>
      <trkpt lat="43.5115" lon="6.75565">
        <ele>118.9</ele>
        <time>2019-12-10T12:53:50Z</time>
      </trkpt>
      <trkpt lat="43.5115" lon="6.75565">
        <ele>118.9</ele>
        <time>2019-12-10T12:53:52Z</time>
      </trkpt>
      <trkpt lat="43.5115" lon="6.75565">
        <ele>118.9</ele>
        <time>2019-12-10T12:53:54Z</time>
      </trkpt>
      <trkpt lat="43.5115" lon="6.75565">
        <ele>118.9</ele>
        <time>2019-12-10T12:53:56Z</time>
      </trkpt>
      <trkpt lat="43.5115" lon="6.75565">
        <ele>118.9</ele>
        <time>2019-12-10T12:53:58Z</time>
      </trkpt>
      <trkpt lat="43.5115" lon="6.75565">
        <ele>118.9</ele>
        <time>2019-12-10T12:54:00Z</time>
      </trkpt>
      <trkpt lat="43.5115" lon="6.75565">
        <ele>118.9</ele>
        <time>2019-12-10T12:54:02Z</time>
      </trkpt>
      <trkpt lat="43.5115" lon="6.75565">
        <ele>118.9</ele>
        <time>2019-12-10T12:54:04Z</time>
      </trkpt>
      <trkpt lat="43.5115" lon="6.75565">
        <ele>118.9</ele>
        <time>2019-12-10T12:54:06Z</time>
      </trkpt>
      <trkpt lat="43.5115" lon="6.75565">
        <ele>118.9</ele>
        <time>2019-12-10T12:54:08Z</time>
      </trkpt>
      <trkpt lat="43.5115" lon="6.75565">
        <ele>118.9</ele>
        <time>2019-12-10T12:54:10Z</time>
      </trkpt>
      <trkpt lat="43.5115" lon="6.75565">
        <ele>118.9</ele>
        <time>2019-12-10T12:54:12Z</time>
      </trkpt>
      <trkpt lat="43.5115" lon="6.75565">
        <ele>118.9</ele>
        <time>2019-12-10T12:54:14Z</time>
      </trkpt>
      <trkpt lat="43.5115" lon="6.75565">
        <ele>118.9</ele>
        <time>2019-12-10T12:54:16Z</time>
      </trkpt>
      <trkpt lat="43.5115" lon="6.75565">
        <ele>118.9</ele>
        <time>2019-12-10T12:54:18Z</time>
      </trkpt>
      <trkpt lat="43.5115" lon="6.75565">
        <ele>118.9</ele>
        <time>2019-12-10T12:54:20Z</time>
      </trkpt>
      <trkpt lat="43.5115" lon="6.75565">
        <ele>118.9</ele>
        <time>2019-12-10T12:54:22Z</time>
      </trkpt>
      <trkpt lat="43.5115" lon="6.75565">
        <ele>118.9</ele>
        <time>2019-12-10T12:54:24Z</time>
      </trkpt>
      <trkpt lat="43.5115" lon="6.75565">
        <ele>118.9</ele>
        <time>2019-12-10T12:54:26Z</time>
      </trkpt>
      <trkpt lat="43.5115" lon="6.75565">
        <ele>118.9</ele>
        <time>2019-12-10T12:54:28Z</time>
      </trkpt>
      <trkpt lat="43.5115" lon="6.75565">
        <ele>118.9</ele>
        <time>2019-12-10T12:54:30Z</time>
      </trkpt>
      <trkpt lat="43.5115" lon="6.75565">
        <ele>118.9</ele>
        <time>2019-12-10T12:54:32Z</time>
      </trkpt>
      <trkpt lat="43.5115" lon="6.75565">
        <ele>118.9</ele>
        <time>2019-12-10T12:54:34Z</time>
      </trkpt>
      <trkpt lat="43.5115" lon="6.75565">
        <ele>118.9</ele>
        <time>2019-12-10T12:54:36Z</time>
      </trkpt>
      <trkpt lat="43.5115" lon="6.75565">
        <ele>118.9</ele>
        <time>2019-12-10T12:54:38Z</time>
      </trkpt>
      <trkpt lat="43.5115" lon="6.75565">
        <ele>118.9</ele>
        <time>2019-12-10T12:54:40Z</time>
      </trkpt>
      <trkpt lat="43.5115" lon="6.75565">
        <ele>118.9</ele>
        <time>2019-12-10T12:54:42Z</time>
      </trkpt>
      <trkpt lat="43.5115" lon="6.75565">
        <ele>118.9</ele>
        <time>2019-12-10T12:54:44Z</time>
      </trkpt>
      <trkpt lat="43.5115" lon="6.75565">
        <ele>118.9</ele>
        <time>2019-12-10T12:54:46Z</time>
      </trkpt>
      <trkpt lat="43.5115" lon="6.75565">
        <ele>118.9</ele>
        <time>2019-12-10T12:54:48Z</time>
      </trkpt>
      <trkpt lat="43.5115" lon="6.75565">
        <ele>118.9</ele>
        <time>2019-12-10T12:54:50Z</time>
      </trkpt>
      <trkpt lat="43.5115" lon="6.75565">
        <ele>118.9</ele>
        <time>2019-12-10T12:54:52Z</time>
      </trkpt>
      <trkpt lat="43.5115" lon="6.75565">
        <ele>118.9</ele>
        <time>2019-12-10T12:54:54Z</time>
      </trkpt>
      <trkpt lat="43.5115" lon="6.75565">
        <ele>118.9</ele>
        <time>2019-12-10T12:54:56Z</time>
      </trkpt>
      <trkpt lat="43.5115" lon="6.75565">
        <ele>118.9</ele>
        <time>2019-12-10T12:54:58Z</time>
      </trkpt>
      <trkpt lat="43.5115" lon="6.75565">
        <ele>118.9</ele>
        <time>2019-12-10T12:55:00Z</time>
      </trkpt>
      <trkpt lat="43.5115" lon="6.75565">
        <ele>118.9</ele>
        <time>2019-12-10T12:55:02Z</time>
      </trkpt>
      <trkpt lat="43.5115" lon="6.75565">
        <ele>118.9</ele>
        <time>2019-12-10T12:55:04Z</time>
      </trkpt>
      <trkpt lat="43.5115" lon="6.75565">
        <ele>118.9</ele>
        <time>2019-12-10T12:55:06Z</time>
      </trkpt>
      <trkpt lat="43.5115" lon="6.75565">
        <ele>118.9</ele>
        <time>2019-12-10T12:55:08Z</time>
      </trkpt>
      <trkpt lat="43.5115" lon="6.75565">
        <ele>118.9</ele>
        <time>2019-12-10T12:55:10Z</time>
      </trkpt>
      <trkpt lat="43.5115" lon="6.75565">
        <ele>118.9</ele>
        <time>2019-12-10T12:55:12Z</time>
      </trkpt>
      <trkpt lat="43.5115" lon="6.75565">
        <ele>118.9</ele>
        <time>2019-12-10T12:55:14Z</time>
      </trkpt>
      <trkpt lat="43.5115" lon="6.75565">
        <ele>118.9</ele>
        <time>2019-12-10T12:55:16Z</time>
      </trkpt>
      <trkpt lat="43.5115" lon="6.75565">
        <ele>118.9</ele>
        <time>2019-12-10T12:55:18Z</time>
      </trkpt>
      <trkpt lat="43.5115" lon="6.75565">
        <ele>118.9</ele>
        <time>2019-12-10T12:55:20Z</time>
      </trkpt>
      <trkpt lat="43.5115" lon="6.75565">
        <ele>118.9</ele>
        <time>2019-12-10T12:55:22Z</time>
      </trkpt>
      <trkpt lat="43.5115" lon="6.75565">
        <ele>118.9</ele>
        <time>2019-12-10T12:55:24Z</time>
      </trkpt>
      <trkpt lat="43.5115" lon="6.75565">
        <ele>118.9</ele>
        <time>2019-12-10T12:55:26Z</time>
      </trkpt>
      <trkpt lat="43.5115" lon="6.75565">
        <ele>118.9</ele>
        <time>2019-12-10T12:55:28Z</time>
      </trkpt>
      <trkpt lat="43.5115" lon="6.75565">
        <ele>118.9</ele>
        <time>2019-12-10T12:55:30Z</time>
      </trkpt>
      <trkpt lat="43.5115" lon="6.75565">
        <ele>118.9</ele>
        <time>2019-12-10T12:55:32Z</time>
      </trkpt>
      <trkpt lat="43.5115" lon="6.75565">
        <ele>118.9</ele>
        <time>2019-12-10T12:55:34Z</time>
      </trkpt>
      <trkpt lat="43.5115" lon="6.75565">
        <ele>118.9</ele>
        <time>2019-12-10T12:55:36Z</time>
      </trkpt>
      <trkpt lat="43.5115" lon="6.75565">
        <ele>118.9</ele>
        <time>2019-12-10T12:55:38Z</time>
      </trkpt>
      <trkpt lat="43.5115" lon="6.75565">
        <ele>118.9</ele>
        <time>2019-12-10T12:55:40Z</time>
      </trkpt>
      <trkpt lat="43.5115" lon="6.75565">
        <ele>118.9</ele>
        <time>2019-12-10T12:55:42Z</time>
      </trkpt>
      <trkpt lat="43.5115" lon="6.75565">
        <ele>118.9</ele>
        <time>2019-12-10T12:55:44Z</time>
      </trkpt>
      <trkpt lat="43.5115" lon="6.75565">
        <ele>118.9</ele>
        <time>2019-12-10T12:55:46Z</time>
      </trkpt>
      <trkpt lat="43.5115" lon="6.75565">
        <ele>118.9</ele>
        <time>2019-12-10T12:55:48Z</time>
      </trkpt>
      <trkpt lat="43.5115" lon="6.75565">
        <ele>118.9</ele>
        <time>2019-12-10T12:55:50Z</time>
      </trkpt>
      <trkpt lat="43.5115" lon="6.75565">
        <ele>118.9</ele>
        <time>2019-12-10T12:55:52Z</time>
      </trkpt>
      <trkpt lat="43.5115" lon="6.75565">
        <ele>118.9</ele>
        <time>2019-12-10T12:55:54Z</time>
      </trkpt>
      <trkpt lat="43.5115" lon="6.75565">
        <ele>118.9</ele>
        <time>2019-12-10T12:55:56Z</time>
      </trkpt>
      <trkpt lat="43.5115" lon="6.75565">
        <ele>118.9</ele>
        <time>2019-12-10T12:55:58Z</time>
      </trkpt>
      <trkpt lat="43.5115" lon="6.75565">
        <ele>118.9</ele>
        <time>2019-12-10T12:56:00Z</time>
      </trkpt>
      <trkpt lat="43.5115" lon="6.75565">
        <ele>118.9</ele>
        <time>2019-12-10T12:56:02Z</time>
      </trkpt>
      <trkpt lat="43.5115" lon="6.75565">
        <ele>118.9</ele>
        <time>2019-12-10T12:56:04Z</time>
      </trkpt>
      <trkpt lat="43.5115" lon="6.75565">
        <ele>118.9</ele>
        <time>2019-12-10T12:56:06Z</time>
      </trkpt>
      <trkpt lat="43.5115" lon="6.75565">
        <ele>118.9</ele>
        <time>2019-12-10T12:56:08Z</time>
      </trkpt>
      <trkpt lat="43.5115" lon="6.75565">
        <ele>118.9</ele>
        <time>2019-12-10T12:56:10Z</time>
      </trkpt>
      <trkpt lat="43.5115" lon="6.75565">
        <ele>118.9</ele>
        <time>2019-12-10T12:56:12Z</time>
      </trkpt>
      <trkpt lat="43.5115" lon="6.75565">
        <ele>118.9</ele>
        <time>2019-12-10T12:56:14Z</time>
      </trkpt>
      <trkpt lat="43.5115" lon="6.75565">
        <ele>118.9</ele>
        <time>2019-12-10T12:56:16Z</time>
      </trkpt>
      <trkpt lat="43.5115" lon="6.75565">
        <ele>118.9</ele>
        <time>2019-12-10T12:56:18Z</time>
      </trkpt>
      <trkpt lat="43.5115" lon="6.75565">
        <ele>118.9</ele>
        <time>2019-12-10T12:56:20Z</time>
      </trkpt>
      <trkpt lat="43.5115" lon="6.75565">
        <ele>118.9</ele>
        <time>2019-12-10T12:56:22Z</time>
      </trkpt>
      <trkpt lat="43.5115" lon="6.75565">
        <ele>118.9</ele>
        <time>2019-12-10T12:56:24Z</time>
      </trkpt>
      <trkpt lat="43.5115" lon="6.75565">
        <ele>118.9</ele>
        <time>2019-12-10T12:56:26Z</time>
      </trkpt>
      <trkpt lat="43.5115" lon="6.75565">
        <ele>118.9</ele>
        <time>2019-12-10T12:56:28Z</time>
      </trkpt>
      <trkpt lat="43.5115" lon="6.75565">
        <ele>118.9</ele>
        <time>2019-12-10T12:56:30Z</time>
      </trkpt>
      <trkpt lat="43.5115" lon="6.75565">
        <ele>118.9</ele>
        <time>2019-12-10T12:56:32Z</time>
      </trkpt>
      <trkpt lat="43.5115" lon="6.75565">
        <ele>118.9</ele>
        <time>2019-12-10T12:56:34Z</time>
      </trkpt>
      <trkpt lat="43.5115" lon="6.75565">
        <ele>118.9</ele>
        <time>2019-12-10T12:56:36Z</time>
      </trkpt>
      <trkpt lat="43.5115" lon="6.75565">
        <ele>118.9</ele>
        <time>2019-12-10T12:56:38Z</time>
      </trkpt>
      <trkpt lat="43.5115" lon="6.75565">
        <ele>118.9</ele>
        <time>2019-12-10T12:56:40Z</time>
      </trkpt>
      <trkpt lat="43.5115" lon="6.75565">
        <ele>118.9</ele>
        <time>2019-12-10T12:56:42Z</time>
      </trkpt>
      <trkpt lat="43.5115" lon="6.75565">
        <ele>118.9</ele>
        <time>2019-12-10T12:56:44Z</time>
      </trkpt>
      <trkpt lat="43.5115" lon="6.75565">
        <ele>118.9</ele>
        <time>2019-12-10T12:56:46Z</time>
      </trkpt>
      <trkpt lat="43.5115" lon="6.75565">
        <ele>118.9</ele>
        <time>2019-12-10T12:56:48Z</time>
      </trkpt>
      <trkpt lat="43.5115" lon="6.75565">
        <ele>118.9</ele>
        <time>2019-12-10T12:56:50Z</time>
      </trkpt>
      <trkpt lat="43.5115" lon="6.75565">
        <ele>118.9</ele>
        <time>2019-12-10T12:56:52Z</time>
      </trkpt>
      <trkpt lat="43.5115" lon="6.75565">
        <ele>118.9</ele>
        <time>2019-12-10T12:56:54Z</time>
      </trkpt>
      <trkpt lat="43.5115" lon="6.75565">
        <ele>118.9</ele>
        <time>2019-12-10T12:56:56Z</time>
      </trkpt>
      <trkpt lat="43.5115" lon="6.75565">
        <ele>118.9</ele>
        <time>2019-12-10T12:56:58Z</time>
      </trkpt>
      <trkpt lat="43.5115" lon="6.75565">
        <ele>118.9</ele>
        <time>2019-12-10T12:57:00Z</time>
      </trkpt>
      <trkpt lat="43.5115" lon="6.75565">
        <ele>118.9</ele>
        <time>2019-12-10T12:57:02Z</time>
      </trkpt>
      <trkpt lat="43.5115" lon="6.75565">
        <ele>118.9</ele>
        <time>2019-12-10T12:57:04Z</time>
      </trkpt>
      <trkpt lat="43.5115" lon="6.75565">
        <ele>118.9</ele>
        <time>2019-12-10T12:57:06Z</time>
      </trkpt>
      <trkpt lat="43.5115" lon="6.75565">
        <ele>118.9</ele>
        <time>2019-12-10T12:57:08Z</time>
      </trkpt>
      <trkpt lat="43.5115" lon="6.75565">
        <ele>118.9</ele>
        <time>2019-12-10T12:57:10Z</time>
      </trkpt>
      <trkpt lat="43.5115" lon="6.75565">
        <ele>118.9</ele>
        <time>2019-12-10T12:57:12Z</time>
      </trkpt>
      <trkpt lat="43.5115" lon="6.75565">
        <ele>118.9</ele>
        <time>2019-12-10T12:57:14Z</time>
      </trkpt>
      <trkpt lat="43.5115" lon="6.75565">
        <ele>118.9</ele>
        <time>2019-12-10T12:57:16Z</time>
      </trkpt>
      <trkpt lat="43.5115" lon="6.75565">
        <ele>118.9</ele>
        <time>2019-12-10T12:57:18Z</time>
      </trkpt>
      <trkpt lat="43.5115" lon="6.75565">
        <ele>118.9</ele>
        <time>2019-12-10T12:57:20Z</time>
      </trkpt>
      <trkpt lat="43.5115" lon="6.75565">
        <ele>118.9</ele>
        <time>2019-12-10T12:57:22Z</time>
      </trkpt>
      <trkpt lat="43.5115" lon="6.75565">
        <ele>118.9</ele>
        <time>2019-12-10T12:57:24Z</time>
      </trkpt>
      <trkpt lat="43.5115" lon="6.75565">
        <ele>118.9</ele>
        <time>2019-12-10T12:57:26Z</time>
      </trkpt>
      <trkpt lat="43.5115" lon="6.75565">
        <ele>118.9</ele>
        <time>2019-12-10T12:57:28Z</time>
      </trkpt>
      <trkpt lat="43.5115" lon="6.75565">
        <ele>118.9</ele>
        <time>2019-12-10T12:57:30Z</time>
      </trkpt>
      <trkpt lat="43.5115" lon="6.75565">
        <ele>118.9</ele>
        <time>2019-12-10T12:57:32Z</time>
      </trkpt>
      <trkpt lat="43.5115" lon="6.75565">
        <ele>118.9</ele>
        <time>2019-12-10T12:57:34Z</time>
      </trkpt>
      <trkpt lat="43.5115" lon="6.75565">
        <ele>118.9</ele>
        <time>2019-12-10T12:57:36Z</time>
      </trkpt>
      <trkpt lat="43.5115" lon="6.75565">
        <ele>118.9</ele>
        <time>2019-12-10T12:57:38Z</time>
      </trkpt>
      <trkpt lat="43.5115" lon="6.75565">
        <ele>118.9</ele>
        <time>2019-12-10T12:57:40Z</time>
      </trkpt>
      <trkpt lat="43.5115" lon="6.75565">
        <ele>118.9</ele>
        <time>2019-12-10T12:57:42Z</time>
      </trkpt>
      <trkpt lat="43.5115" lon="6.75565">
        <ele>118.9</ele>
        <time>2019-12-10T12:57:44Z</time>
      </trkpt>
      <trkpt lat="43.5115" lon="6.75565">
        <ele>118.9</ele>
        <time>2019-12-10T12:57:46Z</time>
      </trkpt>
      <trkpt lat="43.5115" lon="6.75565">
        <ele>118.9</ele>
        <time>2019-12-10T12:57:48Z</time>
      </trkpt>
      <trkpt lat="43.5115" lon="6.75565">
        <ele>118.9</ele>
        <time>2019-12-10T12:57:50Z</time>
      </trkpt>
      <trkpt lat="43.5115" lon="6.75565">
        <ele>118.9</ele>
        <time>2019-12-10T12:57:52Z</time>
      </trkpt>
      <trkpt lat="43.5115" lon="6.75565">
        <ele>118.9</ele>
        <time>2019-12-10T12:57:54Z</time>
      </trkpt>
      <trkpt lat="43.5115" lon="6.75565">
        <ele>118.9</ele>
        <time>2019-12-10T12:57:56Z</time>
      </trkpt>
      <trkpt lat="43.5115" lon="6.75565">
        <ele>118.9</ele>
        <time>2019-12-10T12:57:58Z</time>
      </trkpt>
      <trkpt lat="43.5115" lon="6.75565">
        <ele>118.9</ele>
        <time>2019-12-10T12:58:00Z</time>
      </trkpt>
      <trkpt lat="43.5115" lon="6.75565">
        <ele>118.9</ele>
        <time>2019-12-10T12:58:02Z</time>
      </trkpt>
      <trkpt lat="43.5115" lon="6.75565">
        <ele>118.9</ele>
        <time>2019-12-10T12:58:04Z</time>
      </trkpt>
      <trkpt lat="43.5115" lon="6.75565">
        <ele>118.9</ele>
        <time>2019-12-10T12:58:06Z</time>
      </trkpt>
      <trkpt lat="43.5115" lon="6.75565">
        <ele>118.9</ele>
        <time>2019-12-10T12:58:08Z</time>
      </trkpt>
      <trkpt lat="43.5115" lon="6.75565">
        <ele>118.9</ele>
        <time>2019-12-10T12:58:10Z</time>
      </trkpt>
      <trkpt lat="43.5115" lon="6.75565">
        <ele>118.9</ele>
        <time>2019-12-10T12:58:12Z</time>
      </trkpt>
      <trkpt lat="43.5115" lon="6.75565">
        <ele>118.9</ele>
        <time>2019-12-10T12:58:14Z</time>
      </trkpt>
      <trkpt lat="43.5115" lon="6.75565">
        <ele>118.9</ele>
        <time>2019-12-10T12:58:16Z</time>
      </trkpt>
      <trkpt lat="43.5115" lon="6.75565">
        <ele>118.9</ele>
        <time>2019-12-10T12:58:18Z</time>
      </trkpt>
      <trkpt lat="43.5115" lon="6.75565">
        <ele>118.9</ele>
        <time>2019-12-10T12:58:20Z</time>
      </trkpt>
      <trkpt lat="43.5115" lon="6.75565">
        <ele>118.9</ele>
        <time>2019-12-10T12:58:22Z</time>
      </trkpt>
      <trkpt lat="43.5115" lon="6.75565">
        <ele>118.9</ele>
        <time>2019-12-10T12:58:24Z</time>
      </trkpt>
      <trkpt lat="43.5115" lon="6.75565">
        <ele>118.9</ele>
        <time>2019-12-10T12:58:26Z</time>
      </trkpt>
      <trkpt lat="43.5115" lon="6.75565">
        <ele>118.9</ele>
        <time>2019-12-10T12:58:28Z</time>
      </trkpt>
      <trkpt lat="43.5115" lon="6.75565">
        <ele>118.9</ele>
        <time>2019-12-10T12:58:30Z</time>
      </trkpt>
      <trkpt lat="43.5115" lon="6.75565">
        <ele>118.9</ele>
        <time>2019-12-10T12:58:32Z</time>
      </trkpt>
      <trkpt lat="43.5115" lon="6.75565">
        <ele>118.9</ele>
        <time>2019-12-10T12:58:34Z</time>
      </trkpt>
      <trkpt lat="43.5115" lon="6.75565">
        <ele>118.9</ele>
        <time>2019-12-10T12:58:36Z</time>
      </trkpt>
      <trkpt lat="43.5115" lon="6.75565">
        <ele>118.9</ele>
        <time>2019-12-10T12:58:38Z</time>
      </trkpt>
      <trkpt lat="43.5115" lon="6.75565">
        <ele>118.9</ele>
        <time>2019-12-10T12:58:40Z</time>
      </trkpt>
      <trkpt lat="43.5115" lon="6.75565">
        <ele>118.9</ele>
        <time>2019-12-10T12:58:42Z</time>
      </trkpt>
      <trkpt lat="43.5115" lon="6.75565">
        <ele>118.9</ele>
        <time>2019-12-10T12:58:44Z</time>
      </trkpt>
      <trkpt lat="43.5115" lon="6.75565">
        <ele>118.9</ele>
        <time>2019-12-10T12:58:46Z</time>
      </trkpt>
      <trkpt lat="43.5115" lon="6.75565">
        <ele>118.9</ele>
        <time>2019-12-10T12:58:48Z</time>
      </trkpt>
      <trkpt lat="43.5115" lon="6.75565">
        <ele>118.9</ele>
        <time>2019-12-10T12:58:50Z</time>
      </trkpt>
      <trkpt lat="43.5115" lon="6.75565">
        <ele>118.9</ele>
        <time>2019-12-10T12:58:52Z</time>
      </trkpt>
      <trkpt lat="43.5115" lon="6.75565">
        <ele>118.9</ele>
        <time>2019-12-10T12:58:54Z</time>
      </trkpt>
      <trkpt lat="43.5115" lon="6.75565">
        <ele>118.9</ele>
        <time>2019-12-10T12:58:56Z</time>
      </trkpt>
      <trkpt lat="43.5115" lon="6.75565">
        <ele>118.9</ele>
        <time>2019-12-10T12:58:58Z</time>
      </trkpt>
      <trkpt lat="43.5115" lon="6.75565">
        <ele>118.4</ele>
        <time>2019-12-10T12:59:00Z</time>
      </trkpt>
      <trkpt lat="43.5115" lon="6.75565">
        <ele>118.4</ele>
        <time>2019-12-10T12:59:02Z</time>
      </trkpt>
      <trkpt lat="43.5115" lon="6.75565">
        <ele>118.4</ele>
        <time>2019-12-10T12:59:04Z</time>
      </trkpt>
      <trkpt lat="43.5115" lon="6.75565">
        <ele>118.4</ele>
        <time>2019-12-10T12:59:06Z</time>
      </trkpt>
      <trkpt lat="43.5115" lon="6.75565">
        <ele>118.4</ele>
        <time>2019-12-10T12:59:08Z</time>
      </trkpt>
      <trkpt lat="43.5115" lon="6.75565">
        <ele>118.4</ele>
        <time>2019-12-10T12:59:10Z</time>
      </trkpt>
      <trkpt lat="43.5115" lon="6.75565">
        <ele>118.4</ele>
        <time>2019-12-10T12:59:12Z</time>
      </trkpt>
      <trkpt lat="43.5115" lon="6.75565">
        <ele>118.4</ele>
        <time>2019-12-10T12:59:14Z</time>
      </trkpt>
      <trkpt lat="43.5115" lon="6.75565">
        <ele>118.4</ele>
        <time>2019-12-10T12:59:16Z</time>
      </trkpt>
      <trkpt lat="43.5115" lon="6.75565">
        <ele>118.4</ele>
        <time>2019-12-10T12:59:18Z</time>
      </trkpt>
      <trkpt lat="43.5115" lon="6.75565">
        <ele>118.4</ele>
        <time>2019-12-10T12:59:20Z</time>
      </trkpt>
      <trkpt lat="43.5115" lon="6.75565">
        <ele>118.4</ele>
        <time>2019-12-10T12:59:22Z</time>
      </trkpt>
      <trkpt lat="43.5115" lon="6.75565">
        <ele>118.4</ele>
        <time>2019-12-10T12:59:24Z</time>
      </trkpt>
      <trkpt lat="43.5115" lon="6.75565">
        <ele>118.4</ele>
        <time>2019-12-10T12:59:26Z</time>
      </trkpt>
      <trkpt lat="43.5115" lon="6.75565">
        <ele>118.4</ele>
        <time>2019-12-10T12:59:28Z</time>
      </trkpt>
      <trkpt lat="43.5115" lon="6.75565">
        <ele>118.4</ele>
        <time>2019-12-10T12:59:30Z</time>
      </trkpt>
      <trkpt lat="43.5115" lon="6.75565">
        <ele>118.4</ele>
        <time>2019-12-10T12:59:32Z</time>
      </trkpt>
      <trkpt lat="43.5115" lon="6.75565">
        <ele>118.4</ele>
        <time>2019-12-10T12:59:34Z</time>
      </trkpt>
      <trkpt lat="43.5115" lon="6.75565">
        <ele>118.4</ele>
        <time>2019-12-10T12:59:36Z</time>
      </trkpt>
      <trkpt lat="43.5115" lon="6.75565">
        <ele>118.4</ele>
        <time>2019-12-10T12:59:38Z</time>
      </trkpt>
      <trkpt lat="43.5115" lon="6.75565">
        <ele>118.4</ele>
        <time>2019-12-10T12:59:40Z</time>
      </trkpt>
      <trkpt lat="43.5115" lon="6.75565">
        <ele>118.4</ele>
        <time>2019-12-10T12:59:42Z</time>
      </trkpt>
      <trkpt lat="43.5115" lon="6.75565">
        <ele>118.4</ele>
        <time>2019-12-10T12:59:44Z</time>
      </trkpt>
      <trkpt lat="43.5115" lon="6.75565">
        <ele>118.4</ele>
        <time>2019-12-10T12:59:46Z</time>
      </trkpt>
      <trkpt lat="43.5115" lon="6.75565">
        <ele>118.4</ele>
        <time>2019-12-10T12:59:48Z</time>
      </trkpt>
      <trkpt lat="43.5115" lon="6.75565">
        <ele>118.4</ele>
        <time>2019-12-10T12:59:50Z</time>
      </trkpt>
      <trkpt lat="43.5115" lon="6.75565">
        <ele>118.4</ele>
        <time>2019-12-10T12:59:52Z</time>
      </trkpt>
      <trkpt lat="43.5115" lon="6.75565">
        <ele>118.4</ele>
        <time>2019-12-10T12:59:54Z</time>
      </trkpt>
      <trkpt lat="43.5115" lon="6.75565">
        <ele>118.4</ele>
        <time>2019-12-10T12:59:56Z</time>
      </trkpt>
      <trkpt lat="43.5115" lon="6.75565">
        <ele>118.4</ele>
        <time>2019-12-10T12:59:58Z</time>
      </trkpt>
      <trkpt lat="43.5115" lon="6.75565">
        <ele>118.4</ele>
        <time>2019-12-10T13:00:00Z</time>
      </trkpt>
      <trkpt lat="43.5115" lon="6.75565">
        <ele>118.4</ele>
        <time>2019-12-10T13:00:02Z</time>
      </trkpt>
      <trkpt lat="43.5115" lon="6.75565">
        <ele>118.4</ele>
        <time>2019-12-10T13:00:04Z</time>
      </trkpt>
      <trkpt lat="43.5115" lon="6.75565">
        <ele>118.4</ele>
        <time>2019-12-10T13:00:06Z</time>
      </trkpt>
      <trkpt lat="43.5115" lon="6.75565">
        <ele>118.4</ele>
        <time>2019-12-10T13:00:08Z</time>
      </trkpt>
      <trkpt lat="43.5115" lon="6.75565">
        <ele>118.4</ele>
        <time>2019-12-10T13:00:10Z</time>
      </trkpt>
      <trkpt lat="43.5115" lon="6.75565">
        <ele>118.4</ele>
        <time>2019-12-10T13:00:12Z</time>
      </trkpt>
      <trkpt lat="43.5115" lon="6.75565">
        <ele>118.4</ele>
        <time>2019-12-10T13:00:14Z</time>
      </trkpt>
      <trkpt lat="43.5115" lon="6.75565">
        <ele>118.4</ele>
        <time>2019-12-10T13:00:16Z</time>
      </trkpt>
      <trkpt lat="43.5115" lon="6.75565">
        <ele>118.4</ele>
        <time>2019-12-10T13:00:18Z</time>
      </trkpt>
      <trkpt lat="43.5115" lon="6.75565">
        <ele>118.4</ele>
        <time>2019-12-10T13:00:20Z</time>
      </trkpt>
      <trkpt lat="43.5115" lon="6.75565">
        <ele>118.4</ele>
        <time>2019-12-10T13:00:22Z</time>
      </trkpt>
      <trkpt lat="43.5115" lon="6.75565">
        <ele>118.4</ele>
        <time>2019-12-10T13:00:24Z</time>
      </trkpt>
      <trkpt lat="43.5115" lon="6.75565">
        <ele>118.4</ele>
        <time>2019-12-10T13:00:26Z</time>
      </trkpt>
      <trkpt lat="43.5115" lon="6.75565">
        <ele>118.4</ele>
        <time>2019-12-10T13:00:28Z</time>
      </trkpt>
      <trkpt lat="43.5115" lon="6.75565">
        <ele>118.4</ele>
        <time>2019-12-10T13:00:30Z</time>
      </trkpt>
      <trkpt lat="43.5115" lon="6.75565">
        <ele>118.4</ele>
        <time>2019-12-10T13:00:32Z</time>
      </trkpt>
      <trkpt lat="43.5115" lon="6.75565">
        <ele>118.4</ele>
        <time>2019-12-10T13:00:34Z</time>
      </trkpt>
      <trkpt lat="43.5115" lon="6.75565">
        <ele>118.4</ele>
        <time>2019-12-10T13:00:36Z</time>
      </trkpt>
      <trkpt lat="43.5115" lon="6.75565">
        <ele>118.4</ele>
        <time>2019-12-10T13:00:38Z</time>
      </trkpt>
      <trkpt lat="43.51149" lon="6.75565">
        <ele>118.4</ele>
        <time>2019-12-10T13:00:40Z</time>
      </trkpt>
      <trkpt lat="43.51149" lon="6.75565">
        <ele>118.4</ele>
        <time>2019-12-10T13:00:42Z</time>
      </trkpt>
      <trkpt lat="43.51149" lon="6.75565">
        <ele>118.4</ele>
        <time>2019-12-10T13:00:44Z</time>
      </trkpt>
      <trkpt lat="43.5115" lon="6.75565">
        <ele>118.4</ele>
        <time>2019-12-10T13:00:46Z</time>
      </trkpt>
      <trkpt lat="43.5115" lon="6.75565">
        <ele>118.9</ele>
        <time>2019-12-10T13:00:48Z</time>
      </trkpt>
      <trkpt lat="43.5115" lon="6.75565">
        <ele>118.9</ele>
        <time>2019-12-10T13:00:50Z</time>
      </trkpt>
      <trkpt lat="43.5115" lon="6.75565">
        <ele>118.9</ele>
        <time>2019-12-10T13:00:52Z</time>
      </trkpt>
      <trkpt lat="43.5115" lon="6.75565">
        <ele>118.9</ele>
        <time>2019-12-10T13:00:54Z</time>
      </trkpt>
      <trkpt lat="43.5115" lon="6.75565">
        <ele>118.9</ele>
        <time>2019-12-10T13:00:56Z</time>
      </trkpt>
      <trkpt lat="43.5115" lon="6.75565">
        <ele>118.9</ele>
        <time>2019-12-10T13:00:58Z</time>
      </trkpt>
      <trkpt lat="43.5115" lon="6.75565">
        <ele>119.3</ele>
        <time>2019-12-10T13:01:00Z</time>
      </trkpt>
      <trkpt lat="43.5115" lon="6.75565">
        <ele>119.3</ele>
        <time>2019-12-10T13:01:02Z</time>
      </trkpt>
      <trkpt lat="43.5115" lon="6.75566">
        <ele>119.3</ele>
        <time>2019-12-10T13:01:04Z</time>
      </trkpt>
      <trkpt lat="43.5115" lon="6.75566">
        <ele>119.3</ele>
        <time>2019-12-10T13:01:06Z</time>
      </trkpt>
      <trkpt lat="43.5115" lon="6.75566">
        <ele>119.3</ele>
        <time>2019-12-10T13:01:08Z</time>
      </trkpt>
      <trkpt lat="43.5115" lon="6.75566">
        <ele>119.3</ele>
        <time>2019-12-10T13:01:10Z</time>
      </trkpt>
      <trkpt lat="43.5115" lon="6.75566">
        <ele>119.3</ele>
        <time>2019-12-10T13:01:12Z</time>
      </trkpt>
      <trkpt lat="43.5115" lon="6.75566">
        <ele>119.3</ele>
        <time>2019-12-10T13:01:14Z</time>
      </trkpt>
      <trkpt lat="43.5115" lon="6.75566">
        <ele>119.3</ele>
        <time>2019-12-10T13:01:16Z</time>
      </trkpt>
      <trkpt lat="43.5115" lon="6.75566">
        <ele>119.3</ele>
        <time>2019-12-10T13:01:18Z</time>
      </trkpt>
      <trkpt lat="43.5115" lon="6.75566">
        <ele>119.3</ele>
        <time>2019-12-10T13:01:20Z</time>
      </trkpt>
      <trkpt lat="43.5115" lon="6.75566">
        <ele>119.3</ele>
        <time>2019-12-10T13:01:22Z</time>
      </trkpt>
      <trkpt lat="43.5115" lon="6.75566">
        <ele>119.3</ele>
        <time>2019-12-10T13:01:24Z</time>
      </trkpt>
      <trkpt lat="43.5115" lon="6.75566">
        <ele>119.3</ele>
        <time>2019-12-10T13:01:26Z</time>
      </trkpt>
      <trkpt lat="43.5115" lon="6.75566">
        <ele>119.3</ele>
        <time>2019-12-10T13:01:28Z</time>
      </trkpt>
      <trkpt lat="43.5115" lon="6.75566">
        <ele>119.3</ele>
        <time>2019-12-10T13:01:30Z</time>
      </trkpt>
      <trkpt lat="43.5115" lon="6.75566">
        <ele>119.3</ele>
        <time>2019-12-10T13:01:32Z</time>
      </trkpt>
      <trkpt lat="43.5115" lon="6.75566">
        <ele>119.3</ele>
        <time>2019-12-10T13:01:34Z</time>
      </trkpt>
      <trkpt lat="43.5115" lon="6.75566">
        <ele>119.3</ele>
        <time>2019-12-10T13:01:36Z</time>
      </trkpt>
      <trkpt lat="43.5115" lon="6.75566">
        <ele>119.3</ele>
        <time>2019-12-10T13:01:38Z</time>
      </trkpt>
      <trkpt lat="43.5115" lon="6.75566">
        <ele>119.3</ele>
        <time>2019-12-10T13:01:40Z</time>
      </trkpt>
      <trkpt lat="43.5115" lon="6.75566">
        <ele>119.3</ele>
        <time>2019-12-10T13:01:42Z</time>
      </trkpt>
      <trkpt lat="43.5115" lon="6.75566">
        <ele>119.3</ele>
        <time>2019-12-10T13:01:44Z</time>
      </trkpt>
      <trkpt lat="43.5115" lon="6.75566">
        <ele>119.3</ele>
        <time>2019-12-10T13:01:46Z</time>
      </trkpt>
      <trkpt lat="43.5115" lon="6.75566">
        <ele>119.3</ele>
        <time>2019-12-10T13:01:48Z</time>
      </trkpt>
      <trkpt lat="43.5115" lon="6.75566">
        <ele>119.3</ele>
        <time>2019-12-10T13:01:50Z</time>
      </trkpt>
      <trkpt lat="43.5115" lon="6.75566">
        <ele>119.3</ele>
        <time>2019-12-10T13:01:52Z</time>
      </trkpt>
      <trkpt lat="43.5115" lon="6.75566">
        <ele>119.3</ele>
        <time>2019-12-10T13:01:54Z</time>
      </trkpt>
      <trkpt lat="43.5115" lon="6.75566">
        <ele>119.3</ele>
        <time>2019-12-10T13:01:56Z</time>
      </trkpt>
      <trkpt lat="43.5115" lon="6.75566">
        <ele>119.3</ele>
        <time>2019-12-10T13:01:58Z</time>
      </trkpt>
      <trkpt lat="43.5115" lon="6.75566">
        <ele>119.3</ele>
        <time>2019-12-10T13:02:00Z</time>
      </trkpt>
      <trkpt lat="43.5115" lon="6.75566">
        <ele>119.3</ele>
        <time>2019-12-10T13:02:02Z</time>
      </trkpt>
      <trkpt lat="43.5115" lon="6.75566">
        <ele>119.3</ele>
        <time>2019-12-10T13:02:04Z</time>
      </trkpt>
      <trkpt lat="43.5115" lon="6.75566">
        <ele>119.3</ele>
        <time>2019-12-10T13:02:06Z</time>
      </trkpt>
      <trkpt lat="43.5115" lon="6.75566">
        <ele>119.3</ele>
        <time>2019-12-10T13:02:08Z</time>
      </trkpt>
      <trkpt lat="43.5115" lon="6.75566">
        <ele>119.3</ele>
        <time>2019-12-10T13:02:10Z</time>
      </trkpt>
      <trkpt lat="43.5115" lon="6.75566">
        <ele>119.3</ele>
        <time>2019-12-10T13:02:12Z</time>
      </trkpt>
      <trkpt lat="43.5115" lon="6.75566">
        <ele>119.3</ele>
        <time>2019-12-10T13:02:14Z</time>
      </trkpt>
      <trkpt lat="43.5115" lon="6.75566">
        <ele>119.3</ele>
        <time>2019-12-10T13:02:16Z</time>
      </trkpt>
      <trkpt lat="43.5115" lon="6.75565">
        <ele>119.3</ele>
        <time>2019-12-10T13:02:18Z</time>
      </trkpt>
      <trkpt lat="43.5115" lon="6.75565">
        <ele>119.3</ele>
        <time>2019-12-10T13:02:20Z</time>
      </trkpt>
      <trkpt lat="43.5115" lon="6.75565">
        <ele>119.3</ele>
        <time>2019-12-10T13:02:22Z</time>
      </trkpt>
      <trkpt lat="43.5115" lon="6.75565">
        <ele>119.3</ele>
        <time>2019-12-10T13:02:24Z</time>
      </trkpt>
      <trkpt lat="43.5115" lon="6.75566">
        <ele>119.3</ele>
        <time>2019-12-10T13:02:26Z</time>
      </trkpt>
      <trkpt lat="43.51151" lon="6.75566">
        <ele>119.8</ele>
        <time>2019-12-10T13:02:28Z</time>
      </trkpt>
      <trkpt lat="43.51151" lon="6.75566">
        <ele>119.8</ele>
        <time>2019-12-10T13:02:30Z</time>
      </trkpt>
      <trkpt lat="43.51152" lon="6.75565">
        <ele>119.8</ele>
        <time>2019-12-10T13:02:32Z</time>
      </trkpt>
      <trkpt lat="43.51152" lon="6.75565">
        <ele>119.8</ele>
        <time>2019-12-10T13:02:34Z</time>
      </trkpt>
      <trkpt lat="43.51152" lon="6.75565">
        <ele>119.8</ele>
        <time>2019-12-10T13:02:36Z</time>
      </trkpt>
      <trkpt lat="43.51152" lon="6.75565">
        <ele>119.8</ele>
        <time>2019-12-10T13:02:38Z</time>
      </trkpt>
      <trkpt lat="43.51152" lon="6.75565">
        <ele>119.8</ele>
        <time>2019-12-10T13:02:40Z</time>
      </trkpt>
      <trkpt lat="43.51152" lon="6.75565">
        <ele>119.8</ele>
        <time>2019-12-10T13:02:42Z</time>
      </trkpt>
      <trkpt lat="43.51152" lon="6.75565">
        <ele>119.8</ele>
        <time>2019-12-10T13:02:44Z</time>
      </trkpt>
      <trkpt lat="43.51152" lon="6.75565">
        <ele>119.8</ele>
        <time>2019-12-10T13:02:46Z</time>
      </trkpt>
      <trkpt lat="43.51151" lon="6.75565">
        <ele>119.8</ele>
        <time>2019-12-10T13:02:48Z</time>
      </trkpt>
      <trkpt lat="43.51152" lon="6.75565">
        <ele>120.3</ele>
        <time>2019-12-10T13:02:50Z</time>
      </trkpt>
      <trkpt lat="43.51151" lon="6.75565">
        <ele>119.8</ele>
        <time>2019-12-10T13:02:52Z</time>
      </trkpt>
      <trkpt lat="43.51151" lon="6.75565">
        <ele>119.8</ele>
        <time>2019-12-10T13:02:54Z</time>
      </trkpt>
      <trkpt lat="43.51151" lon="6.75565">
        <ele>119.8</ele>
        <time>2019-12-10T13:02:56Z</time>
      </trkpt>
      <trkpt lat="43.51151" lon="6.75565">
        <ele>119.8</ele>
        <time>2019-12-10T13:02:58Z</time>
      </trkpt>
      <trkpt lat="43.51151" lon="6.75565">
        <ele>120.3</ele>
        <time>2019-12-10T13:03:00Z</time>
      </trkpt>
      <trkpt lat="43.51151" lon="6.75565">
        <ele>119.8</ele>
        <time>2019-12-10T13:03:02Z</time>
      </trkpt>
      <trkpt lat="43.51151" lon="6.75565">
        <ele>119.8</ele>
        <time>2019-12-10T13:03:04Z</time>
      </trkpt>
      <trkpt lat="43.51151" lon="6.75565">
        <ele>119.8</ele>
        <time>2019-12-10T13:03:06Z</time>
      </trkpt>
      <trkpt lat="43.5115" lon="6.75565">
        <ele>119.8</ele>
        <time>2019-12-10T13:03:08Z</time>
      </trkpt>
      <trkpt lat="43.5115" lon="6.75565">
        <ele>119.8</ele>
        <time>2019-12-10T13:03:10Z</time>
      </trkpt>
      <trkpt lat="43.5115" lon="6.75565">
        <ele>119.8</ele>
        <time>2019-12-10T13:03:12Z</time>
      </trkpt>
      <trkpt lat="43.5115" lon="6.75565">
        <ele>119.8</ele>
        <time>2019-12-10T13:03:14Z</time>
      </trkpt>
      <trkpt lat="43.5115" lon="6.75565">
        <ele>119.8</ele>
        <time>2019-12-10T13:03:16Z</time>
      </trkpt>
      <trkpt lat="43.5115" lon="6.75565">
        <ele>119.8</ele>
        <time>2019-12-10T13:03:18Z</time>
      </trkpt>
      <trkpt lat="43.5115" lon="6.75565">
        <ele>119.8</ele>
        <time>2019-12-10T13:03:20Z</time>
      </trkpt>
      <trkpt lat="43.5115" lon="6.75565">
        <ele>119.8</ele>
        <time>2019-12-10T13:03:22Z</time>
      </trkpt>
      <trkpt lat="43.5115" lon="6.75565">
        <ele>119.8</ele>
        <time>2019-12-10T13:03:24Z</time>
      </trkpt>
      <trkpt lat="43.5115" lon="6.75565">
        <ele>119.8</ele>
        <time>2019-12-10T13:03:26Z</time>
      </trkpt>
      <trkpt lat="43.5115" lon="6.75565">
        <ele>119.8</ele>
        <time>2019-12-10T13:03:28Z</time>
      </trkpt>
      <trkpt lat="43.5115" lon="6.75565">
        <ele>119.8</ele>
        <time>2019-12-10T13:03:30Z</time>
      </trkpt>
      <trkpt lat="43.5115" lon="6.75565">
        <ele>119.8</ele>
        <time>2019-12-10T13:03:32Z</time>
      </trkpt>
      <trkpt lat="43.5115" lon="6.75565">
        <ele>119.8</ele>
        <time>2019-12-10T13:03:34Z</time>
      </trkpt>
      <trkpt lat="43.5115" lon="6.75565">
        <ele>119.8</ele>
        <time>2019-12-10T13:03:36Z</time>
      </trkpt>
      <trkpt lat="43.5115" lon="6.75565">
        <ele>119.8</ele>
        <time>2019-12-10T13:03:38Z</time>
      </trkpt>
      <trkpt lat="43.5115" lon="6.75565">
        <ele>119.8</ele>
        <time>2019-12-10T13:03:40Z</time>
      </trkpt>
      <trkpt lat="43.5115" lon="6.75565">
        <ele>119.8</ele>
        <time>2019-12-10T13:03:42Z</time>
      </trkpt>
      <trkpt lat="43.5115" lon="6.75565">
        <ele>119.8</ele>
        <time>2019-12-10T13:03:44Z</time>
      </trkpt>
      <trkpt lat="43.5115" lon="6.75565">
        <ele>119.8</ele>
        <time>2019-12-10T13:03:46Z</time>
      </trkpt>
      <trkpt lat="43.5115" lon="6.75565">
        <ele>119.8</ele>
        <time>2019-12-10T13:03:48Z</time>
      </trkpt>
      <trkpt lat="43.5115" lon="6.75565">
        <ele>119.8</ele>
        <time>2019-12-10T13:03:50Z</time>
      </trkpt>
      <trkpt lat="43.5115" lon="6.75565">
        <ele>119.8</ele>
        <time>2019-12-10T13:03:52Z</time>
      </trkpt>
      <trkpt lat="43.5115" lon="6.75564">
        <ele>119.8</ele>
        <time>2019-12-10T13:03:54Z</time>
      </trkpt>
      <trkpt lat="43.5115" lon="6.75562">
        <ele>120.3</ele>
        <time>2019-12-10T13:03:56Z</time>
      </trkpt>
      <trkpt lat="43.5115" lon="6.7556">
        <ele>120.8</ele>
        <time>2019-12-10T13:03:58Z</time>
      </trkpt>
      <trkpt lat="43.51149" lon="6.75559">
        <ele>121.3</ele>
        <time>2019-12-10T13:04:00Z</time>
      </trkpt>
      <trkpt lat="43.51148" lon="6.75557">
        <ele>121.3</ele>
        <time>2019-12-10T13:04:02Z</time>
      </trkpt>
      <trkpt lat="43.51149" lon="6.75558">
        <ele>121.7</ele>
        <time>2019-12-10T13:04:04Z</time>
      </trkpt>
      <trkpt lat="43.51149" lon="6.75558">
        <ele>121.7</ele>
        <time>2019-12-10T13:04:06Z</time>
      </trkpt>
      <trkpt lat="43.5115" lon="6.75557">
        <ele>121.7</ele>
        <time>2019-12-10T13:04:08Z</time>
      </trkpt>
      <trkpt lat="43.51151" lon="6.75555">
        <ele>121.3</ele>
        <time>2019-12-10T13:04:10Z</time>
      </trkpt>
      <trkpt lat="43.51151" lon="6.75554">
        <ele>121.3</ele>
        <time>2019-12-10T13:04:12Z</time>
      </trkpt>
      <trkpt lat="43.51151" lon="6.75554">
        <ele>121.3</ele>
        <time>2019-12-10T13:04:14Z</time>
      </trkpt>
      <trkpt lat="43.51151" lon="6.75554">
        <ele>121.7</ele>
        <time>2019-12-10T13:04:16Z</time>
      </trkpt>
      <trkpt lat="43.51151" lon="6.75554">
        <ele>121.7</ele>
        <time>2019-12-10T13:04:18Z</time>
      </trkpt>
      <trkpt lat="43.51151" lon="6.75554">
        <ele>121.7</ele>
        <time>2019-12-10T13:04:20Z</time>
      </trkpt>
      <trkpt lat="43.51152" lon="6.75554">
        <ele>121.7</ele>
        <time>2019-12-10T13:04:22Z</time>
      </trkpt>
      <trkpt lat="43.51156" lon="6.75552">
        <ele>121.3</ele>
        <time>2019-12-10T13:04:24Z</time>
      </trkpt>
      <trkpt lat="43.5116" lon="6.7555">
        <ele>121.3</ele>
        <time>2019-12-10T13:04:26Z</time>
      </trkpt>
      <trkpt lat="43.51163" lon="6.7555">
        <ele>121.3</ele>
        <time>2019-12-10T13:04:28Z</time>
      </trkpt>
      <trkpt lat="43.51166" lon="6.75551">
        <ele>121.3</ele>
        <time>2019-12-10T13:04:30Z</time>
      </trkpt>
      <trkpt lat="43.51167" lon="6.75551">
        <ele>121.7</ele>
        <time>2019-12-10T13:04:32Z</time>
      </trkpt>
      <trkpt lat="43.51168" lon="6.75551">
        <ele>121.7</ele>
        <time>2019-12-10T13:04:34Z</time>
      </trkpt>
      <trkpt lat="43.51167" lon="6.7555">
        <ele>121.7</ele>
        <time>2019-12-10T13:04:36Z</time>
      </trkpt>
      <trkpt lat="43.51167" lon="6.7555">
        <ele>121.7</ele>
        <time>2019-12-10T13:04:38Z</time>
      </trkpt>
      <trkpt lat="43.51167" lon="6.7555">
        <ele>121.7</ele>
        <time>2019-12-10T13:04:40Z</time>
      </trkpt>
      <trkpt lat="43.51167" lon="6.7555">
        <ele>121.3</ele>
        <time>2019-12-10T13:04:42Z</time>
      </trkpt>
      <trkpt lat="43.51167" lon="6.7555">
        <ele>121.3</ele>
        <time>2019-12-10T13:04:44Z</time>
      </trkpt>
      <trkpt lat="43.51166" lon="6.75549">
        <ele>121.3</ele>
        <time>2019-12-10T13:04:46Z</time>
      </trkpt>
      <trkpt lat="43.51166" lon="6.75549">
        <ele>121.3</ele>
        <time>2019-12-10T13:04:48Z</time>
      </trkpt>
      <trkpt lat="43.51166" lon="6.75549">
        <ele>121.3</ele>
        <time>2019-12-10T13:04:50Z</time>
      </trkpt>
      <trkpt lat="43.51166" lon="6.75549">
        <ele>121.3</ele>
        <time>2019-12-10T13:04:52Z</time>
      </trkpt>
      <trkpt lat="43.51166" lon="6.75549">
        <ele>121.3</ele>
        <time>2019-12-10T13:04:54Z</time>
      </trkpt>
      <trkpt lat="43.51166" lon="6.75549">
        <ele>121.3</ele>
        <time>2019-12-10T13:04:56Z</time>
      </trkpt>
      <trkpt lat="43.51165" lon="6.75549">
        <ele>121.3</ele>
        <time>2019-12-10T13:04:58Z</time>
      </trkpt>
      <trkpt lat="43.51165" lon="6.75548">
        <ele>121.3</ele>
        <time>2019-12-10T13:05:00Z</time>
      </trkpt>
      <trkpt lat="43.51162" lon="6.75546">
        <ele>121.7</ele>
        <time>2019-12-10T13:05:02Z</time>
      </trkpt>
      <trkpt lat="43.5116" lon="6.75543">
        <ele>121.7</ele>
        <time>2019-12-10T13:05:04Z</time>
      </trkpt>
      <trkpt lat="43.51158" lon="6.75541">
        <ele>122.2</ele>
        <time>2019-12-10T13:05:06Z</time>
      </trkpt>
      <trkpt lat="43.51156" lon="6.7554">
        <ele>122.2</ele>
        <time>2019-12-10T13:05:08Z</time>
      </trkpt>
      <trkpt lat="43.51157" lon="6.75541">
        <ele>122.2</ele>
        <time>2019-12-10T13:05:10Z</time>
      </trkpt>
      <trkpt lat="43.51158" lon="6.75542">
        <ele>122.7</ele>
        <time>2019-12-10T13:05:12Z</time>
      </trkpt>
      <trkpt lat="43.51158" lon="6.75543">
        <ele>122.7</ele>
        <time>2019-12-10T13:05:14Z</time>
      </trkpt>
      <trkpt lat="43.51159" lon="6.75541">
        <ele>122.7</ele>
        <time>2019-12-10T13:05:16Z</time>
      </trkpt>
      <trkpt lat="43.51164" lon="6.75541">
        <ele>123.2</ele>
        <time>2019-12-10T13:05:18Z</time>
      </trkpt>
      <trkpt lat="43.51172" lon="6.75541">
        <ele>123.2</ele>
        <time>2019-12-10T13:05:20Z</time>
      </trkpt>
      <trkpt lat="43.51178" lon="6.75542">
        <ele>123.2</ele>
        <time>2019-12-10T13:05:22Z</time>
      </trkpt>
      <trkpt lat="43.51184" lon="6.75541">
        <ele>123.7</ele>
        <time>2019-12-10T13:05:24Z</time>
      </trkpt>
      <trkpt lat="43.51188" lon="6.7554">
        <ele>124.1</ele>
        <time>2019-12-10T13:05:26Z</time>
      </trkpt>
      <trkpt lat="43.51192" lon="6.75538">
        <ele>124.1</ele>
        <time>2019-12-10T13:05:28Z</time>
      </trkpt>
      <trkpt lat="43.51197" lon="6.75536">
        <ele>124.1</ele>
        <time>2019-12-10T13:05:30Z</time>
      </trkpt>
      <trkpt lat="43.512" lon="6.75534">
        <ele>124.6</ele>
        <time>2019-12-10T13:05:32Z</time>
      </trkpt>
      <trkpt lat="43.51204" lon="6.75532">
        <ele>124.6</ele>
        <time>2019-12-10T13:05:34Z</time>
      </trkpt>
      <trkpt lat="43.51208" lon="6.75529">
        <ele>124.6</ele>
        <time>2019-12-10T13:05:36Z</time>
      </trkpt>
      <trkpt lat="43.51211" lon="6.75526">
        <ele>125.1</ele>
        <time>2019-12-10T13:05:38Z</time>
      </trkpt>
      <trkpt lat="43.51214" lon="6.75521">
        <ele>125.1</ele>
        <time>2019-12-10T13:05:40Z</time>
      </trkpt>
      <trkpt lat="43.51217" lon="6.75516">
        <ele>125.6</ele>
        <time>2019-12-10T13:05:42Z</time>
      </trkpt>
      <trkpt lat="43.5122" lon="6.75512">
        <ele>126.1</ele>
        <time>2019-12-10T13:05:44Z</time>
      </trkpt>
      <trkpt lat="43.51221" lon="6.75506">
        <ele>126.6</ele>
        <time>2019-12-10T13:05:46Z</time>
      </trkpt>
      <trkpt lat="43.51222" lon="6.75499">
        <ele>126.6</ele>
        <time>2019-12-10T13:05:48Z</time>
      </trkpt>
      <trkpt lat="43.51222" lon="6.75493">
        <ele>127</ele>
        <time>2019-12-10T13:05:50Z</time>
      </trkpt>
      <trkpt lat="43.51223" lon="6.75487">
        <ele>127</ele>
        <time>2019-12-10T13:05:52Z</time>
      </trkpt>
      <trkpt lat="43.51222" lon="6.75481">
        <ele>127.5</ele>
        <time>2019-12-10T13:05:54Z</time>
      </trkpt>
      <trkpt lat="43.51221" lon="6.75475">
        <ele>128</ele>
        <time>2019-12-10T13:05:56Z</time>
      </trkpt>
      <trkpt lat="43.51219" lon="6.7547">
        <ele>128.5</ele>
        <time>2019-12-10T13:05:58Z</time>
      </trkpt>
      <trkpt lat="43.51217" lon="6.75465">
        <ele>128.5</ele>
        <time>2019-12-10T13:06:00Z</time>
      </trkpt>
      <trkpt lat="43.51215" lon="6.7546">
        <ele>129</ele>
        <time>2019-12-10T13:06:02Z</time>
      </trkpt>
      <trkpt lat="43.51213" lon="6.75455">
        <ele>129.4</ele>
        <time>2019-12-10T13:06:04Z</time>
      </trkpt>
      <trkpt lat="43.51212" lon="6.75449">
        <ele>129.9</ele>
        <time>2019-12-10T13:06:06Z</time>
      </trkpt>
      <trkpt lat="43.5121" lon="6.75444">
        <ele>130.4</ele>
        <time>2019-12-10T13:06:08Z</time>
      </trkpt>
      <trkpt lat="43.51209" lon="6.75439">
        <ele>130.9</ele>
        <time>2019-12-10T13:06:10Z</time>
      </trkpt>
      <trkpt lat="43.51209" lon="6.75433">
        <ele>131.4</ele>
        <time>2019-12-10T13:06:12Z</time>
      </trkpt>
      <trkpt lat="43.51209" lon="6.75426">
        <ele>131.4</ele>
        <time>2019-12-10T13:06:14Z</time>
      </trkpt>
      <trkpt lat="43.51211" lon="6.75421">
        <ele>131.8</ele>
        <time>2019-12-10T13:06:16Z</time>
      </trkpt>
      <trkpt lat="43.51213" lon="6.75418">
        <ele>131.8</ele>
        <time>2019-12-10T13:06:18Z</time>
      </trkpt>
      <trkpt lat="43.51214" lon="6.75417">
        <ele>132.3</ele>
        <time>2019-12-10T13:06:20Z</time>
      </trkpt>
      <trkpt lat="43.51214" lon="6.75418">
        <ele>131.8</ele>
        <time>2019-12-10T13:06:22Z</time>
      </trkpt>
      <trkpt lat="43.51214" lon="6.75419">
        <ele>131.8</ele>
        <time>2019-12-10T13:06:24Z</time>
      </trkpt>
      <trkpt lat="43.51214" lon="6.75419">
        <ele>131.8</ele>
        <time>2019-12-10T13:06:26Z</time>
      </trkpt>
      <trkpt lat="43.51214" lon="6.75419">
        <ele>131.8</ele>
        <time>2019-12-10T13:06:28Z</time>
      </trkpt>
      <trkpt lat="43.51214" lon="6.75418">
        <ele>131.8</ele>
        <time>2019-12-10T13:06:30Z</time>
      </trkpt>
      <trkpt lat="43.51214" lon="6.75418">
        <ele>132.3</ele>
        <time>2019-12-10T13:06:32Z</time>
      </trkpt>
      <trkpt lat="43.51215" lon="6.75418">
        <ele>132.3</ele>
        <time>2019-12-10T13:06:34Z</time>
      </trkpt>
      <trkpt lat="43.51214" lon="6.75417">
        <ele>132.3</ele>
        <time>2019-12-10T13:06:36Z</time>
      </trkpt>
      <trkpt lat="43.51213" lon="6.75417">
        <ele>132.3</ele>
        <time>2019-12-10T13:06:38Z</time>
      </trkpt>
      <trkpt lat="43.51213" lon="6.75417">
        <ele>131.8</ele>
        <time>2019-12-10T13:06:40Z</time>
      </trkpt>
      <trkpt lat="43.51213" lon="6.75418">
        <ele>131.8</ele>
        <time>2019-12-10T13:06:42Z</time>
      </trkpt>
      <trkpt lat="43.51213" lon="6.75418">
        <ele>131.8</ele>
        <time>2019-12-10T13:06:44Z</time>
      </trkpt>
      <trkpt lat="43.51213" lon="6.75418">
        <ele>131.8</ele>
        <time>2019-12-10T13:06:46Z</time>
      </trkpt>
      <trkpt lat="43.51212" lon="6.75418">
        <ele>131.8</ele>
        <time>2019-12-10T13:06:48Z</time>
      </trkpt>
      <trkpt lat="43.51212" lon="6.75418">
        <ele>131.8</ele>
        <time>2019-12-10T13:06:50Z</time>
      </trkpt>
      <trkpt lat="43.51212" lon="6.75417">
        <ele>131.8</ele>
        <time>2019-12-10T13:06:52Z</time>
      </trkpt>
      <trkpt lat="43.51212" lon="6.75417">
        <ele>132.3</ele>
        <time>2019-12-10T13:06:54Z</time>
      </trkpt>
      <trkpt lat="43.51212" lon="6.75417">
        <ele>132.3</ele>
        <time>2019-12-10T13:06:56Z</time>
      </trkpt>
      <trkpt lat="43.51212" lon="6.75417">
        <ele>132.3</ele>
        <time>2019-12-10T13:06:58Z</time>
      </trkpt>
      <trkpt lat="43.51212" lon="6.75417">
        <ele>132.3</ele>
        <time>2019-12-10T13:07:00Z</time>
      </trkpt>
      <trkpt lat="43.51212" lon="6.75417">
        <ele>132.3</ele>
        <time>2019-12-10T13:07:02Z</time>
      </trkpt>
      <trkpt lat="43.51212" lon="6.75417">
        <ele>132.3</ele>
        <time>2019-12-10T13:07:04Z</time>
      </trkpt>
      <trkpt lat="43.51212" lon="6.75417">
        <ele>132.3</ele>
        <time>2019-12-10T13:07:06Z</time>
      </trkpt>
      <trkpt lat="43.51213" lon="6.75416">
        <ele>132.3</ele>
        <time>2019-12-10T13:07:08Z</time>
      </trkpt>
      <trkpt lat="43.51213" lon="6.75416">
        <ele>132.3</ele>
        <time>2019-12-10T13:07:10Z</time>
      </trkpt>
      <trkpt lat="43.51213" lon="6.75415">
        <ele>132.3</ele>
        <time>2019-12-10T13:07:12Z</time>
      </trkpt>
      <trkpt lat="43.51212" lon="6.75415">
        <ele>132.3</ele>
        <time>2019-12-10T13:07:14Z</time>
      </trkpt>
      <trkpt lat="43.51212" lon="6.75415">
        <ele>132.8</ele>
        <time>2019-12-10T13:07:16Z</time>
      </trkpt>
      <trkpt lat="43.51212" lon="6.75415">
        <ele>132.8</ele>
        <time>2019-12-10T13:07:18Z</time>
      </trkpt>
      <trkpt lat="43.51212" lon="6.75414">
        <ele>132.8</ele>
        <time>2019-12-10T13:07:20Z</time>
      </trkpt>
      <trkpt lat="43.51213" lon="6.75414">
        <ele>132.8</ele>
        <time>2019-12-10T13:07:22Z</time>
      </trkpt>
      <trkpt lat="43.51213" lon="6.75414">
        <ele>132.8</ele>
        <time>2019-12-10T13:07:24Z</time>
      </trkpt>
      <trkpt lat="43.51213" lon="6.75414">
        <ele>132.8</ele>
        <time>2019-12-10T13:07:26Z</time>
      </trkpt>
      <trkpt lat="43.51214" lon="6.75412">
        <ele>132.8</ele>
        <time>2019-12-10T13:07:28Z</time>
      </trkpt>
      <trkpt lat="43.51215" lon="6.75407">
        <ele>132.8</ele>
        <time>2019-12-10T13:07:30Z</time>
      </trkpt>
      <trkpt lat="43.51218" lon="6.75402">
        <ele>133.3</ele>
        <time>2019-12-10T13:07:32Z</time>
      </trkpt>
      <trkpt lat="43.5122" lon="6.75397">
        <ele>133.8</ele>
        <time>2019-12-10T13:07:34Z</time>
      </trkpt>
      <trkpt lat="43.51223" lon="6.75393">
        <ele>134.2</ele>
        <time>2019-12-10T13:07:36Z</time>
      </trkpt>
      <trkpt lat="43.51226" lon="6.75389">
        <ele>134.7</ele>
        <time>2019-12-10T13:07:38Z</time>
      </trkpt>
      <trkpt lat="43.51228" lon="6.75384">
        <ele>135.7</ele>
        <time>2019-12-10T13:07:40Z</time>
      </trkpt>
      <trkpt lat="43.5123" lon="6.75379">
        <ele>135.7</ele>
        <time>2019-12-10T13:07:42Z</time>
      </trkpt>
      <trkpt lat="43.51231" lon="6.75372">
        <ele>136.2</ele>
        <time>2019-12-10T13:07:44Z</time>
      </trkpt>
      <trkpt lat="43.51232" lon="6.75366">
        <ele>136.6</ele>
        <time>2019-12-10T13:07:46Z</time>
      </trkpt>
      <trkpt lat="43.51232" lon="6.7536">
        <ele>136.6</ele>
        <time>2019-12-10T13:07:48Z</time>
      </trkpt>
      <trkpt lat="43.51233" lon="6.75354">
        <ele>137.1</ele>
        <time>2019-12-10T13:07:50Z</time>
      </trkpt>
      <trkpt lat="43.51233" lon="6.75348">
        <ele>137.1</ele>
        <time>2019-12-10T13:07:52Z</time>
      </trkpt>
      <trkpt lat="43.51232" lon="6.75342">
        <ele>137.1</ele>
        <time>2019-12-10T13:07:54Z</time>
      </trkpt>
      <trkpt lat="43.5123" lon="6.75336">
        <ele>137.1</ele>
        <time>2019-12-10T13:07:56Z</time>
      </trkpt>
      <trkpt lat="43.51229" lon="6.7533">
        <ele>136.6</ele>
        <time>2019-12-10T13:07:58Z</time>
      </trkpt>
      <trkpt lat="43.51226" lon="6.75323">
        <ele>136.6</ele>
        <time>2019-12-10T13:08:00Z</time>
      </trkpt>
      <trkpt lat="43.51223" lon="6.75318">
        <ele>137.1</ele>
        <time>2019-12-10T13:08:02Z</time>
      </trkpt>
      <trkpt lat="43.5122" lon="6.75312">
        <ele>137.6</ele>
        <time>2019-12-10T13:08:04Z</time>
      </trkpt>
      <trkpt lat="43.51217" lon="6.75307">
        <ele>138.1</ele>
        <time>2019-12-10T13:08:06Z</time>
      </trkpt>
      <trkpt lat="43.51213" lon="6.75302">
        <ele>138.6</ele>
        <time>2019-12-10T13:08:08Z</time>
      </trkpt>
      <trkpt lat="43.51209" lon="6.75298">
        <ele>138.6</ele>
        <time>2019-12-10T13:08:10Z</time>
      </trkpt>
      <trkpt lat="43.51205" lon="6.75295">
        <ele>138.6</ele>
        <time>2019-12-10T13:08:12Z</time>
      </trkpt>
      <trkpt lat="43.512" lon="6.75292">
        <ele>138.6</ele>
        <time>2019-12-10T13:08:14Z</time>
      </trkpt>
      <trkpt lat="43.51195" lon="6.75288">
        <ele>138.6</ele>
        <time>2019-12-10T13:08:16Z</time>
      </trkpt>
      <trkpt lat="43.51191" lon="6.75284">
        <ele>138.6</ele>
        <time>2019-12-10T13:08:18Z</time>
      </trkpt>
      <trkpt lat="43.51186" lon="6.75282">
        <ele>138.6</ele>
        <time>2019-12-10T13:08:20Z</time>
      </trkpt>
      <trkpt lat="43.51182" lon="6.75279">
        <ele>138.6</ele>
        <time>2019-12-10T13:08:22Z</time>
      </trkpt>
      <trkpt lat="43.51179" lon="6.75272">
        <ele>138.6</ele>
        <time>2019-12-10T13:08:24Z</time>
      </trkpt>
      <trkpt lat="43.51179" lon="6.75262">
        <ele>137.6</ele>
        <time>2019-12-10T13:08:26Z</time>
      </trkpt>
      <trkpt lat="43.51183" lon="6.75253">
        <ele>137.1</ele>
        <time>2019-12-10T13:08:28Z</time>
      </trkpt>
      <trkpt lat="43.51189" lon="6.75245">
        <ele>136.6</ele>
        <time>2019-12-10T13:08:30Z</time>
      </trkpt>
      <trkpt lat="43.51196" lon="6.75237">
        <ele>136.2</ele>
        <time>2019-12-10T13:08:32Z</time>
      </trkpt>
      <trkpt lat="43.51206" lon="6.75229">
        <ele>135.2</ele>
        <time>2019-12-10T13:08:34Z</time>
      </trkpt>
      <trkpt lat="43.51213" lon="6.75222">
        <ele>134.7</ele>
        <time>2019-12-10T13:08:36Z</time>
      </trkpt>
      <trkpt lat="43.51221" lon="6.75214">
        <ele>133.8</ele>
        <time>2019-12-10T13:08:38Z</time>
      </trkpt>
      <trkpt lat="43.51229" lon="6.75205">
        <ele>132.3</ele>
        <time>2019-12-10T13:08:40Z</time>
      </trkpt>
      <trkpt lat="43.51233" lon="6.75192">
        <ele>131.4</ele>
        <time>2019-12-10T13:08:42Z</time>
      </trkpt>
      <trkpt lat="43.51238" lon="6.75178">
        <ele>130.4</ele>
        <time>2019-12-10T13:08:44Z</time>
      </trkpt>
      <trkpt lat="43.51237" lon="6.75162">
        <ele>129.9</ele>
        <time>2019-12-10T13:08:46Z</time>
      </trkpt>
      <trkpt lat="43.51235" lon="6.75147">
        <ele>129</ele>
        <time>2019-12-10T13:08:48Z</time>
      </trkpt>
      <trkpt lat="43.51232" lon="6.75134">
        <ele>127.5</ele>
        <time>2019-12-10T13:08:50Z</time>
      </trkpt>
      <trkpt lat="43.51228" lon="6.75121">
        <ele>126.6</ele>
        <time>2019-12-10T13:08:52Z</time>
      </trkpt>
      <trkpt lat="43.51225" lon="6.75111">
        <ele>125.6</ele>
        <time>2019-12-10T13:08:54Z</time>
      </trkpt>
      <trkpt lat="43.51226" lon="6.75102">
        <ele>124.6</ele>
        <time>2019-12-10T13:08:56Z</time>
      </trkpt>
      <trkpt lat="43.5123" lon="6.75095">
        <ele>123.7</ele>
        <time>2019-12-10T13:08:58Z</time>
      </trkpt>
      <trkpt lat="43.51236" lon="6.75091">
        <ele>122.7</ele>
        <time>2019-12-10T13:09:00Z</time>
      </trkpt>
      <trkpt lat="43.51245" lon="6.7509">
        <ele>121.7</ele>
        <time>2019-12-10T13:09:02Z</time>
      </trkpt>
      <trkpt lat="43.51254" lon="6.75092">
        <ele>121.7</ele>
        <time>2019-12-10T13:09:04Z</time>
      </trkpt>
      <trkpt lat="43.51263" lon="6.75095">
        <ele>121.7</ele>
        <time>2019-12-10T13:09:06Z</time>
      </trkpt>
      <trkpt lat="43.51272" lon="6.75097">
        <ele>121.3</ele>
        <time>2019-12-10T13:09:08Z</time>
      </trkpt>
      <trkpt lat="43.51281" lon="6.75099">
        <ele>120.8</ele>
        <time>2019-12-10T13:09:10Z</time>
      </trkpt>
      <trkpt lat="43.51291" lon="6.75102">
        <ele>120.8</ele>
        <time>2019-12-10T13:09:12Z</time>
      </trkpt>
      <trkpt lat="43.513" lon="6.75103">
        <ele>120.3</ele>
        <time>2019-12-10T13:09:14Z</time>
      </trkpt>
      <trkpt lat="43.51309" lon="6.75103">
        <ele>119.3</ele>
        <time>2019-12-10T13:09:16Z</time>
      </trkpt>
      <trkpt lat="43.51317" lon="6.75106">
        <ele>119.3</ele>
        <time>2019-12-10T13:09:18Z</time>
      </trkpt>
      <trkpt lat="43.51326" lon="6.75107">
        <ele>118.4</ele>
        <time>2019-12-10T13:09:20Z</time>
      </trkpt>
      <trkpt lat="43.51337" lon="6.75109">
        <ele>117.4</ele>
        <time>2019-12-10T13:09:22Z</time>
      </trkpt>
      <trkpt lat="43.51347" lon="6.75108">
        <ele>116.5</ele>
        <time>2019-12-10T13:09:24Z</time>
      </trkpt>
      <trkpt lat="43.51359" lon="6.75103">
        <ele>115</ele>
        <time>2019-12-10T13:09:26Z</time>
      </trkpt>
      <trkpt lat="43.5137" lon="6.75097">
        <ele>114.5</ele>
        <time>2019-12-10T13:09:28Z</time>
      </trkpt>
      <trkpt lat="43.51382" lon="6.75092">
        <ele>113.1</ele>
        <time>2019-12-10T13:09:30Z</time>
      </trkpt>
      <trkpt lat="43.51391" lon="6.7509">
        <ele>112.1</ele>
        <time>2019-12-10T13:09:32Z</time>
      </trkpt>
      <trkpt lat="43.51397" lon="6.75092">
        <ele>111.7</ele>
        <time>2019-12-10T13:09:34Z</time>
      </trkpt>
      <trkpt lat="43.51399" lon="6.75097">
        <ele>110.7</ele>
        <time>2019-12-10T13:09:36Z</time>
      </trkpt>
      <trkpt lat="43.51397" lon="6.75105">
        <ele>110.2</ele>
        <time>2019-12-10T13:09:38Z</time>
      </trkpt>
      <trkpt lat="43.51389" lon="6.75111">
        <ele>109.2</ele>
        <time>2019-12-10T13:09:40Z</time>
      </trkpt>
      <trkpt lat="43.51381" lon="6.75115">
        <ele>108.8</ele>
        <time>2019-12-10T13:09:42Z</time>
      </trkpt>
      <trkpt lat="43.51374" lon="6.75122">
        <ele>107.8</ele>
        <time>2019-12-10T13:09:44Z</time>
      </trkpt>
      <trkpt lat="43.51367" lon="6.75132">
        <ele>107.3</ele>
        <time>2019-12-10T13:09:46Z</time>
      </trkpt>
      <trkpt lat="43.51361" lon="6.75141">
        <ele>106.8</ele>
        <time>2019-12-10T13:09:48Z</time>
      </trkpt>
      <trkpt lat="43.51353" lon="6.75145">
        <ele>106.4</ele>
        <time>2019-12-10T13:09:50Z</time>
      </trkpt>
      <trkpt lat="43.51342" lon="6.75144">
        <ele>105.4</ele>
        <time>2019-12-10T13:09:52Z</time>
      </trkpt>
      <trkpt lat="43.51332" lon="6.75142">
        <ele>104</ele>
        <time>2019-12-10T13:09:54Z</time>
      </trkpt>
      <trkpt lat="43.51321" lon="6.75141">
        <ele>103</ele>
        <time>2019-12-10T13:09:56Z</time>
      </trkpt>
      <trkpt lat="43.51311" lon="6.75144">
        <ele>102.5</ele>
        <time>2019-12-10T13:09:58Z</time>
      </trkpt>
      <trkpt lat="43.51305" lon="6.75148">
        <ele>102</ele>
        <time>2019-12-10T13:10:00Z</time>
      </trkpt>
      <trkpt lat="43.51301" lon="6.75155">
        <ele>101.6</ele>
        <time>2019-12-10T13:10:02Z</time>
      </trkpt>
      <trkpt lat="43.51301" lon="6.75162">
        <ele>100.6</ele>
        <time>2019-12-10T13:10:04Z</time>
      </trkpt>
      <trkpt lat="43.51305" lon="6.75168">
        <ele>99.6</ele>
        <time>2019-12-10T13:10:06Z</time>
      </trkpt>
      <trkpt lat="43.51308" lon="6.75173">
        <ele>99.2</ele>
        <time>2019-12-10T13:10:08Z</time>
      </trkpt>
      <trkpt lat="43.51311" lon="6.75178">
        <ele>99.2</ele>
        <time>2019-12-10T13:10:10Z</time>
      </trkpt>
      <trkpt lat="43.51315" lon="6.75184">
        <ele>98.7</ele>
        <time>2019-12-10T13:10:12Z</time>
      </trkpt>
      <trkpt lat="43.51319" lon="6.7519">
        <ele>98.7</ele>
        <time>2019-12-10T13:10:14Z</time>
      </trkpt>
      <trkpt lat="43.51323" lon="6.75198">
        <ele>98.2</ele>
        <time>2019-12-10T13:10:16Z</time>
      </trkpt>
      <trkpt lat="43.51327" lon="6.75209">
        <ele>97.7</ele>
        <time>2019-12-10T13:10:18Z</time>
      </trkpt>
      <trkpt lat="43.51331" lon="6.75219">
        <ele>97.2</ele>
        <time>2019-12-10T13:10:20Z</time>
      </trkpt>
      <trkpt lat="43.51334" lon="6.75229">
        <ele>96.3</ele>
        <time>2019-12-10T13:10:22Z</time>
      </trkpt>
      <trkpt lat="43.51336" lon="6.7524">
        <ele>95.3</ele>
        <time>2019-12-10T13:10:24Z</time>
      </trkpt>
      <trkpt lat="43.51334" lon="6.75252">
        <ele>94.8</ele>
        <time>2019-12-10T13:10:26Z</time>
      </trkpt>
      <trkpt lat="43.5133" lon="6.75262">
        <ele>94.3</ele>
        <time>2019-12-10T13:10:28Z</time>
      </trkpt>
      <trkpt lat="43.51327" lon="6.7527">
        <ele>93.9</ele>
        <time>2019-12-10T13:10:30Z</time>
      </trkpt>
      <trkpt lat="43.51325" lon="6.75275">
        <ele>93.4</ele>
        <time>2019-12-10T13:10:32Z</time>
      </trkpt>
      <trkpt lat="43.51322" lon="6.75281">
        <ele>92.9</ele>
        <time>2019-12-10T13:10:34Z</time>
      </trkpt>
      <trkpt lat="43.51322" lon="6.7529">
        <ele>92.4</ele>
        <time>2019-12-10T13:10:36Z</time>
      </trkpt>
      <trkpt lat="43.51325" lon="6.75299">
        <ele>91.9</ele>
        <time>2019-12-10T13:10:38Z</time>
      </trkpt>
      <trkpt lat="43.51328" lon="6.75307">
        <ele>91.5</ele>
        <time>2019-12-10T13:10:40Z</time>
      </trkpt>
      <trkpt lat="43.51332" lon="6.75314">
        <ele>91</ele>
        <time>2019-12-10T13:10:42Z</time>
      </trkpt>
      <trkpt lat="43.51335" lon="6.75321">
        <ele>91</ele>
        <time>2019-12-10T13:10:44Z</time>
      </trkpt>
      <trkpt lat="43.51337" lon="6.75329">
        <ele>90.5</ele>
        <time>2019-12-10T13:10:46Z</time>
      </trkpt>
      <trkpt lat="43.51338" lon="6.75339">
        <ele>90</ele>
        <time>2019-12-10T13:10:48Z</time>
      </trkpt>
      <trkpt lat="43.51338" lon="6.75352">
        <ele>89.1</ele>
        <time>2019-12-10T13:10:50Z</time>
      </trkpt>
      <trkpt lat="43.51339" lon="6.75362">
        <ele>88.1</ele>
        <time>2019-12-10T13:10:52Z</time>
      </trkpt>
      <trkpt lat="43.5134" lon="6.75372">
        <ele>86.2</ele>
        <time>2019-12-10T13:10:54Z</time>
      </trkpt>
      <trkpt lat="43.51342" lon="6.75381">
        <ele>85.2</ele>
        <time>2019-12-10T13:10:56Z</time>
      </trkpt>
      <trkpt lat="43.51344" lon="6.75391">
        <ele>84.7</ele>
        <time>2019-12-10T13:10:58Z</time>
      </trkpt>
      <trkpt lat="43.51345" lon="6.75404">
        <ele>83.8</ele>
        <time>2019-12-10T13:11:00Z</time>
      </trkpt>
      <trkpt lat="43.51344" lon="6.75418">
        <ele>82.8</ele>
        <time>2019-12-10T13:11:02Z</time>
      </trkpt>
      <trkpt lat="43.51342" lon="6.75429">
        <ele>81.8</ele>
        <time>2019-12-10T13:11:04Z</time>
      </trkpt>
      <trkpt lat="43.51339" lon="6.75439">
        <ele>81.4</ele>
        <time>2019-12-10T13:11:06Z</time>
      </trkpt>
      <trkpt lat="43.51339" lon="6.75449">
        <ele>80.9</ele>
        <time>2019-12-10T13:11:08Z</time>
      </trkpt>
      <trkpt lat="43.51343" lon="6.75457">
        <ele>80.9</ele>
        <time>2019-12-10T13:11:10Z</time>
      </trkpt>
      <trkpt lat="43.5135" lon="6.75463">
        <ele>80.4</ele>
        <time>2019-12-10T13:11:12Z</time>
      </trkpt>
      <trkpt lat="43.51357" lon="6.75469">
        <ele>80.4</ele>
        <time>2019-12-10T13:11:14Z</time>
      </trkpt>
      <trkpt lat="43.51365" lon="6.75476">
        <ele>80.4</ele>
        <time>2019-12-10T13:11:16Z</time>
      </trkpt>
      <trkpt lat="43.51369" lon="6.75487">
        <ele>79.4</ele>
        <time>2019-12-10T13:11:18Z</time>
      </trkpt>
      <trkpt lat="43.51371" lon="6.75501">
        <ele>79</ele>
        <time>2019-12-10T13:11:20Z</time>
      </trkpt>
      <trkpt lat="43.51373" lon="6.75514">
        <ele>78.5</ele>
        <time>2019-12-10T13:11:22Z</time>
      </trkpt>
      <trkpt lat="43.51373" lon="6.75526">
        <ele>78</ele>
        <time>2019-12-10T13:11:24Z</time>
      </trkpt>
      <trkpt lat="43.51374" lon="6.75539">
        <ele>77</ele>
        <time>2019-12-10T13:11:26Z</time>
      </trkpt>
      <trkpt lat="43.51377" lon="6.75551">
        <ele>77</ele>
        <time>2019-12-10T13:11:28Z</time>
      </trkpt>
      <trkpt lat="43.51382" lon="6.75564">
        <ele>76.1</ele>
        <time>2019-12-10T13:11:30Z</time>
      </trkpt>
      <trkpt lat="43.51383" lon="6.7558">
        <ele>75.6</ele>
        <time>2019-12-10T13:11:32Z</time>
      </trkpt>
      <trkpt lat="43.51383" lon="6.75595">
        <ele>73.2</ele>
        <time>2019-12-10T13:11:34Z</time>
      </trkpt>
      <trkpt lat="43.51382" lon="6.75612">
        <ele>71.8</ele>
        <time>2019-12-10T13:11:36Z</time>
      </trkpt>
      <trkpt lat="43.51381" lon="6.75629">
        <ele>70.8</ele>
        <time>2019-12-10T13:11:38Z</time>
      </trkpt>
      <trkpt lat="43.51379" lon="6.75644">
        <ele>69.4</ele>
        <time>2019-12-10T13:11:40Z</time>
      </trkpt>
      <trkpt lat="43.51374" lon="6.75657">
        <ele>68.4</ele>
        <time>2019-12-10T13:11:42Z</time>
      </trkpt>
      <trkpt lat="43.5137" lon="6.75668">
        <ele>67.4</ele>
        <time>2019-12-10T13:11:44Z</time>
      </trkpt>
      <trkpt lat="43.51369" lon="6.75677">
        <ele>66.5</ele>
        <time>2019-12-10T13:11:46Z</time>
      </trkpt>
      <trkpt lat="43.51372" lon="6.75681">
        <ele>66.5</ele>
        <time>2019-12-10T13:11:48Z</time>
      </trkpt>
      <trkpt lat="43.51376" lon="6.75679">
        <ele>66</ele>
        <time>2019-12-10T13:11:50Z</time>
      </trkpt>
      <trkpt lat="43.51381" lon="6.75674">
        <ele>64.5</ele>
        <time>2019-12-10T13:11:52Z</time>
      </trkpt>
      <trkpt lat="43.51386" lon="6.75666">
        <ele>63.6</ele>
        <time>2019-12-10T13:11:54Z</time>
      </trkpt>
      <trkpt lat="43.51391" lon="6.75658">
        <ele>62.1</ele>
        <time>2019-12-10T13:11:56Z</time>
      </trkpt>
      <trkpt lat="43.51397" lon="6.7565">
        <ele>61.2</ele>
        <time>2019-12-10T13:11:58Z</time>
      </trkpt>
      <trkpt lat="43.51401" lon="6.75642">
        <ele>60.2</ele>
        <time>2019-12-10T13:12:00Z</time>
      </trkpt>
      <trkpt lat="43.51408" lon="6.75632">
        <ele>59.3</ele>
        <time>2019-12-10T13:12:02Z</time>
      </trkpt>
      <trkpt lat="43.51414" lon="6.75622">
        <ele>58.3</ele>
        <time>2019-12-10T13:12:04Z</time>
      </trkpt>
      <trkpt lat="43.5142" lon="6.75614">
        <ele>57.3</ele>
        <time>2019-12-10T13:12:06Z</time>
      </trkpt>
      <trkpt lat="43.51427" lon="6.75608">
        <ele>56.9</ele>
        <time>2019-12-10T13:12:08Z</time>
      </trkpt>
      <trkpt lat="43.51434" lon="6.756">
        <ele>56.4</ele>
        <time>2019-12-10T13:12:10Z</time>
      </trkpt>
      <trkpt lat="43.51441" lon="6.75592">
        <ele>55.4</ele>
        <time>2019-12-10T13:12:12Z</time>
      </trkpt>
      <trkpt lat="43.51447" lon="6.75587">
        <ele>54</ele>
        <time>2019-12-10T13:12:14Z</time>
      </trkpt>
      <trkpt lat="43.51452" lon="6.75584">
        <ele>53</ele>
        <time>2019-12-10T13:12:16Z</time>
      </trkpt>
      <trkpt lat="43.51457" lon="6.75581">
        <ele>52.5</ele>
        <time>2019-12-10T13:12:18Z</time>
      </trkpt>
      <trkpt lat="43.51463" lon="6.75579">
        <ele>52</ele>
        <time>2019-12-10T13:12:20Z</time>
      </trkpt>
      <trkpt lat="43.51467" lon="6.7558">
        <ele>52.5</ele>
        <time>2019-12-10T13:12:22Z</time>
      </trkpt>
      <trkpt lat="43.51472" lon="6.75582">
        <ele>52.5</ele>
        <time>2019-12-10T13:12:24Z</time>
      </trkpt>
      <trkpt lat="43.51477" lon="6.75587">
        <ele>52.5</ele>
        <time>2019-12-10T13:12:26Z</time>
      </trkpt>
      <trkpt lat="43.51481" lon="6.75593">
        <ele>51.6</ele>
        <time>2019-12-10T13:12:28Z</time>
      </trkpt>
      <trkpt lat="43.51483" lon="6.75601">
        <ele>51.6</ele>
        <time>2019-12-10T13:12:30Z</time>
      </trkpt>
      <trkpt lat="43.51485" lon="6.75609">
        <ele>51.1</ele>
        <time>2019-12-10T13:12:32Z</time>
      </trkpt>
      <trkpt lat="43.51487" lon="6.75617">
        <ele>51.1</ele>
        <time>2019-12-10T13:12:34Z</time>
      </trkpt>
      <trkpt lat="43.51488" lon="6.75625">
        <ele>51.1</ele>
        <time>2019-12-10T13:12:36Z</time>
      </trkpt>
      <trkpt lat="43.51488" lon="6.75634">
        <ele>50.6</ele>
        <time>2019-12-10T13:12:38Z</time>
      </trkpt>
      <trkpt lat="43.51488" lon="6.75643">
        <ele>50.1</ele>
        <time>2019-12-10T13:12:40Z</time>
      </trkpt>
      <trkpt lat="43.51488" lon="6.7565">
        <ele>49.6</ele>
        <time>2019-12-10T13:12:42Z</time>
      </trkpt>
      <trkpt lat="43.51489" lon="6.75657">
        <ele>49.6</ele>
        <time>2019-12-10T13:12:44Z</time>
      </trkpt>
      <trkpt lat="43.5149" lon="6.75666">
        <ele>49.6</ele>
        <time>2019-12-10T13:12:46Z</time>
      </trkpt>
      <trkpt lat="43.51492" lon="6.75674">
        <ele>49.2</ele>
        <time>2019-12-10T13:12:48Z</time>
      </trkpt>
      <trkpt lat="43.51494" lon="6.75684">
        <ele>48.7</ele>
        <time>2019-12-10T13:12:50Z</time>
      </trkpt>
      <trkpt lat="43.51494" lon="6.75694">
        <ele>48.7</ele>
        <time>2019-12-10T13:12:52Z</time>
      </trkpt>
      <trkpt lat="43.51489" lon="6.75702">
        <ele>48.7</ele>
        <time>2019-12-10T13:12:54Z</time>
      </trkpt>
      <trkpt lat="43.51484" lon="6.75704">
        <ele>48.7</ele>
        <time>2019-12-10T13:12:56Z</time>
      </trkpt>
      <trkpt lat="43.5148" lon="6.75704">
        <ele>48.7</ele>
        <time>2019-12-10T13:12:58Z</time>
      </trkpt>
      <trkpt lat="43.51476" lon="6.75704">
        <ele>49.2</ele>
        <time>2019-12-10T13:13:00Z</time>
      </trkpt>
      <trkpt lat="43.51472" lon="6.75703">
        <ele>49.2</ele>
        <time>2019-12-10T13:13:02Z</time>
      </trkpt>
      <trkpt lat="43.51468" lon="6.75703">
        <ele>49.6</ele>
        <time>2019-12-10T13:13:04Z</time>
      </trkpt>
      <trkpt lat="43.51464" lon="6.75701">
        <ele>50.1</ele>
        <time>2019-12-10T13:13:06Z</time>
      </trkpt>
      <trkpt lat="43.51461" lon="6.75701">
        <ele>50.1</ele>
        <time>2019-12-10T13:13:08Z</time>
      </trkpt>
      <trkpt lat="43.51455" lon="6.75701">
        <ele>50.1</ele>
        <time>2019-12-10T13:13:10Z</time>
      </trkpt>
      <trkpt lat="43.5145" lon="6.75702">
        <ele>50.1</ele>
        <time>2019-12-10T13:13:12Z</time>
      </trkpt>
      <trkpt lat="43.51446" lon="6.75705">
        <ele>50.1</ele>
        <time>2019-12-10T13:13:14Z</time>
      </trkpt>
      <trkpt lat="43.51442" lon="6.75706">
        <ele>50.1</ele>
        <time>2019-12-10T13:13:16Z</time>
      </trkpt>
      <trkpt lat="43.51436" lon="6.75707">
        <ele>49.6</ele>
        <time>2019-12-10T13:13:18Z</time>
      </trkpt>
      <trkpt lat="43.51431" lon="6.75707">
        <ele>49.2</ele>
        <time>2019-12-10T13:13:20Z</time>
      </trkpt>
      <trkpt lat="43.51427" lon="6.75709">
        <ele>49.2</ele>
        <time>2019-12-10T13:13:22Z</time>
      </trkpt>
      <trkpt lat="43.51422" lon="6.75712">
        <ele>48.7</ele>
        <time>2019-12-10T13:13:24Z</time>
      </trkpt>
      <trkpt lat="43.51418" lon="6.75714">
        <ele>48.2</ele>
        <time>2019-12-10T13:13:26Z</time>
      </trkpt>
      <trkpt lat="43.51414" lon="6.75716">
        <ele>47.7</ele>
        <time>2019-12-10T13:13:28Z</time>
      </trkpt>
      <trkpt lat="43.51409" lon="6.75717">
        <ele>47.7</ele>
        <time>2019-12-10T13:13:30Z</time>
      </trkpt>
      <trkpt lat="43.51404" lon="6.7572">
        <ele>47.2</ele>
        <time>2019-12-10T13:13:32Z</time>
      </trkpt>
      <trkpt lat="43.514" lon="6.75722">
        <ele>46.8</ele>
        <time>2019-12-10T13:13:34Z</time>
      </trkpt>
      <trkpt lat="43.51396" lon="6.75725">
        <ele>46.3</ele>
        <time>2019-12-10T13:13:36Z</time>
      </trkpt>
      <trkpt lat="43.5139" lon="6.75728">
        <ele>45.8</ele>
        <time>2019-12-10T13:13:38Z</time>
      </trkpt>
      <trkpt lat="43.51385" lon="6.75731">
        <ele>45.3</ele>
        <time>2019-12-10T13:13:40Z</time>
      </trkpt>
      <trkpt lat="43.51381" lon="6.75733">
        <ele>44.8</ele>
        <time>2019-12-10T13:13:42Z</time>
      </trkpt>
      <trkpt lat="43.51376" lon="6.75735">
        <ele>44.4</ele>
        <time>2019-12-10T13:13:44Z</time>
      </trkpt>
      <trkpt lat="43.51371" lon="6.75737">
        <ele>43.9</ele>
        <time>2019-12-10T13:13:46Z</time>
      </trkpt>
      <trkpt lat="43.51366" lon="6.75739">
        <ele>43.4</ele>
        <time>2019-12-10T13:13:48Z</time>
      </trkpt>
      <trkpt lat="43.51361" lon="6.7574">
        <ele>42.9</ele>
        <time>2019-12-10T13:13:50Z</time>
      </trkpt>
      <trkpt lat="43.51357" lon="6.75743">
        <ele>42</ele>
        <time>2019-12-10T13:13:52Z</time>
      </trkpt>
      <trkpt lat="43.51352" lon="6.75746">
        <ele>41.5</ele>
        <time>2019-12-10T13:13:54Z</time>
      </trkpt>
      <trkpt lat="43.51347" lon="6.75748">
        <ele>41</ele>
        <time>2019-12-10T13:13:56Z</time>
      </trkpt>
      <trkpt lat="43.51343" lon="6.75749">
        <ele>40</ele>
        <time>2019-12-10T13:13:58Z</time>
      </trkpt>
      <trkpt lat="43.51341" lon="6.7575">
        <ele>39.6</ele>
        <time>2019-12-10T13:14:00Z</time>
      </trkpt>
      <trkpt lat="43.51337" lon="6.75751">
        <ele>38.6</ele>
        <time>2019-12-10T13:14:02Z</time>
      </trkpt>
      <trkpt lat="43.51334" lon="6.75751">
        <ele>38.1</ele>
        <time>2019-12-10T13:14:04Z</time>
      </trkpt>
      <trkpt lat="43.51329" lon="6.75751">
        <ele>37.6</ele>
        <time>2019-12-10T13:14:06Z</time>
      </trkpt>
      <trkpt lat="43.51325" lon="6.75753">
        <ele>37.6</ele>
        <time>2019-12-10T13:14:08Z</time>
      </trkpt>
      <trkpt lat="43.5132" lon="6.75753">
        <ele>37.1</ele>
        <time>2019-12-10T13:14:10Z</time>
      </trkpt>
      <trkpt lat="43.51315" lon="6.75752">
        <ele>37.1</ele>
        <time>2019-12-10T13:14:12Z</time>
      </trkpt>
      <trkpt lat="43.51309" lon="6.75751">
        <ele>36.7</ele>
        <time>2019-12-10T13:14:14Z</time>
      </trkpt>
      <trkpt lat="43.51307" lon="6.75751">
        <ele>36.7</ele>
        <time>2019-12-10T13:14:16Z</time>
      </trkpt>
      <trkpt lat="43.51305" lon="6.75751">
        <ele>36.7</ele>
        <time>2019-12-10T13:14:18Z</time>
      </trkpt>
      <trkpt lat="43.51302" lon="6.7575">
        <ele>36.2</ele>
        <time>2019-12-10T13:14:20Z</time>
      </trkpt>
      <trkpt lat="43.51298" lon="6.75748">
        <ele>36.2</ele>
        <time>2019-12-10T13:14:22Z</time>
      </trkpt>
      <trkpt lat="43.51294" lon="6.75747">
        <ele>36.7</ele>
        <time>2019-12-10T13:14:24Z</time>
      </trkpt>
      <trkpt lat="43.5129" lon="6.75745">
        <ele>36.7</ele>
        <time>2019-12-10T13:14:26Z</time>
      </trkpt>
      <trkpt lat="43.51286" lon="6.75742">
        <ele>36.7</ele>
        <time>2019-12-10T13:14:28Z</time>
      </trkpt>
      <trkpt lat="43.51282" lon="6.75739">
        <ele>37.1</ele>
        <time>2019-12-10T13:14:30Z</time>
      </trkpt>
      <trkpt lat="43.51277" lon="6.75737">
        <ele>36.7</ele>
        <time>2019-12-10T13:14:32Z</time>
      </trkpt>
      <trkpt lat="43.51274" lon="6.75735">
        <ele>36.7</ele>
        <time>2019-12-10T13:14:34Z</time>
      </trkpt>
      <trkpt lat="43.51271" lon="6.75731">
        <ele>36.7</ele>
        <time>2019-12-10T13:14:36Z</time>
      </trkpt>
      <trkpt lat="43.51266" lon="6.7573">
        <ele>36.7</ele>
        <time>2019-12-10T13:14:38Z</time>
      </trkpt>
      <trkpt lat="43.51262" lon="6.7573">
        <ele>36.2</ele>
        <time>2019-12-10T13:14:40Z</time>
      </trkpt>
      <trkpt lat="43.51258" lon="6.7573">
        <ele>36.2</ele>
        <time>2019-12-10T13:14:42Z</time>
      </trkpt>
      <trkpt lat="43.51255" lon="6.75731">
        <ele>36.7</ele>
        <time>2019-12-10T13:14:44Z</time>
      </trkpt>
      <trkpt lat="43.51255" lon="6.75728">
        <ele>36.7</ele>
        <time>2019-12-10T13:14:46Z</time>
      </trkpt>
      <trkpt lat="43.51256" lon="6.75727">
        <ele>35.7</ele>
        <time>2019-12-10T13:14:48Z</time>
      </trkpt>
      <trkpt lat="43.51254" lon="6.75728">
        <ele>35.2</ele>
        <time>2019-12-10T13:14:50Z</time>
      </trkpt>
      <trkpt lat="43.51253" lon="6.75728">
        <ele>34.7</ele>
        <time>2019-12-10T13:14:52Z</time>
      </trkpt>
      <trkpt lat="43.51253" lon="6.75728">
        <ele>34.7</ele>
        <time>2019-12-10T13:14:54Z</time>
      </trkpt>
      <trkpt lat="43.51253" lon="6.75728">
        <ele>34.7</ele>
        <time>2019-12-10T13:14:56Z</time>
      </trkpt>
      <trkpt lat="43.51252" lon="6.75727">
        <ele>34.7</ele>
        <time>2019-12-10T13:14:58Z</time>
      </trkpt>
      <trkpt lat="43.51252" lon="6.75727">
        <ele>34.7</ele>
        <time>2019-12-10T13:15:00Z</time>
      </trkpt>
      <trkpt lat="43.51252" lon="6.75727">
        <ele>34.7</ele>
        <time>2019-12-10T13:15:02Z</time>
      </trkpt>
      <trkpt lat="43.51252" lon="6.75727">
        <ele>34.7</ele>
        <time>2019-12-10T13:15:04Z</time>
      </trkpt>
      <trkpt lat="43.51252" lon="6.75727">
        <ele>34.7</ele>
        <time>2019-12-10T13:15:06Z</time>
      </trkpt>
      <trkpt lat="43.51252" lon="6.75727">
        <ele>34.7</ele>
        <time>2019-12-10T13:15:08Z</time>
      </trkpt>
      <trkpt lat="43.51252" lon="6.75727">
        <ele>34.7</ele>
        <time>2019-12-10T13:15:10Z</time>
      </trkpt>
      <trkpt lat="43.51252" lon="6.75727">
        <ele>34.7</ele>
        <time>2019-12-10T13:15:12Z</time>
      </trkpt>
      <trkpt lat="43.51252" lon="6.75727">
        <ele>34.7</ele>
        <time>2019-12-10T13:15:14Z</time>
      </trkpt>
      <trkpt lat="43.51252" lon="6.75727">
        <ele>34.7</ele>
        <time>2019-12-10T13:15:16Z</time>
      </trkpt>
      <trkpt lat="43.51252" lon="6.75727">
        <ele>34.7</ele>
        <time>2019-12-10T13:15:18Z</time>
      </trkpt>
      <trkpt lat="43.51252" lon="6.75726">
        <ele>34.7</ele>
        <time>2019-12-10T13:15:20Z</time>
      </trkpt>
      <trkpt lat="43.51252" lon="6.75726">
        <ele>34.7</ele>
        <time>2019-12-10T13:15:22Z</time>
      </trkpt>
      <trkpt lat="43.51252" lon="6.75726">
        <ele>34.7</ele>
        <time>2019-12-10T13:15:24Z</time>
      </trkpt>
      <trkpt lat="43.51252" lon="6.75726">
        <ele>34.7</ele>
        <time>2019-12-10T13:15:26Z</time>
      </trkpt>
      <trkpt lat="43.51252" lon="6.75726">
        <ele>34.7</ele>
        <time>2019-12-10T13:15:28Z</time>
      </trkpt>
      <trkpt lat="43.51252" lon="6.75726">
        <ele>34.7</ele>
        <time>2019-12-10T13:15:30Z</time>
      </trkpt>
      <trkpt lat="43.51252" lon="6.75726">
        <ele>34.7</ele>
        <time>2019-12-10T13:15:32Z</time>
      </trkpt>
      <trkpt lat="43.51252" lon="6.75726">
        <ele>34.7</ele>
        <time>2019-12-10T13:15:34Z</time>
      </trkpt>
      <trkpt lat="43.51252" lon="6.75725">
        <ele>34.7</ele>
        <time>2019-12-10T13:15:36Z</time>
      </trkpt>
      <trkpt lat="43.51252" lon="6.75725">
        <ele>34.7</ele>
        <time>2019-12-10T13:15:38Z</time>
      </trkpt>
      <trkpt lat="43.51252" lon="6.75724">
        <ele>34.7</ele>
        <time>2019-12-10T13:15:40Z</time>
      </trkpt>
      <trkpt lat="43.51252" lon="6.75724">
        <ele>34.7</ele>
        <time>2019-12-10T13:15:42Z</time>
      </trkpt>
      <trkpt lat="43.51252" lon="6.75724">
        <ele>34.7</ele>
        <time>2019-12-10T13:15:44Z</time>
      </trkpt>
      <trkpt lat="43.51252" lon="6.75724">
        <ele>34.7</ele>
        <time>2019-12-10T13:15:46Z</time>
      </trkpt>
      <trkpt lat="43.51252" lon="6.75723">
        <ele>34.7</ele>
        <time>2019-12-10T13:15:48Z</time>
      </trkpt>
      <trkpt lat="43.51252" lon="6.75722">
        <ele>34.7</ele>
        <time>2019-12-10T13:15:50Z</time>
      </trkpt>
      <trkpt lat="43.51252" lon="6.75722">
        <ele>34.7</ele>
        <time>2019-12-10T13:15:52Z</time>
      </trkpt>
      <trkpt lat="43.51252" lon="6.75722">
        <ele>34.7</ele>
        <time>2019-12-10T13:15:54Z</time>
      </trkpt>
      <trkpt lat="43.51252" lon="6.75722">
        <ele>34.7</ele>
        <time>2019-12-10T13:15:56Z</time>
      </trkpt>
      <trkpt lat="43.51252" lon="6.75722">
        <ele>34.7</ele>
        <time>2019-12-10T13:15:58Z</time>
      </trkpt>
      <trkpt lat="43.51252" lon="6.75722">
        <ele>34.7</ele>
        <time>2019-12-10T13:16:00Z</time>
      </trkpt>
      <trkpt lat="43.51252" lon="6.75722">
        <ele>34.7</ele>
        <time>2019-12-10T13:16:02Z</time>
      </trkpt>
      <trkpt lat="43.51252" lon="6.75722">
        <ele>34.7</ele>
        <time>2019-12-10T13:16:04Z</time>
      </trkpt>
      <trkpt lat="43.51252" lon="6.75722">
        <ele>34.7</ele>
        <time>2019-12-10T13:16:06Z</time>
      </trkpt>
      <trkpt lat="43.51252" lon="6.75722">
        <ele>34.7</ele>
        <time>2019-12-10T13:16:08Z</time>
      </trkpt>
      <trkpt lat="43.51252" lon="6.75722">
        <ele>34.7</ele>
        <time>2019-12-10T13:16:10Z</time>
      </trkpt>
      <trkpt lat="43.51252" lon="6.75722">
        <ele>34.7</ele>
        <time>2019-12-10T13:16:12Z</time>
      </trkpt>
      <trkpt lat="43.51252" lon="6.75722">
        <ele>34.7</ele>
        <time>2019-12-10T13:16:14Z</time>
      </trkpt>
      <trkpt lat="43.51252" lon="6.75722">
        <ele>34.7</ele>
        <time>2019-12-10T13:16:16Z</time>
      </trkpt>
      <trkpt lat="43.51252" lon="6.75722">
        <ele>34.7</ele>
        <time>2019-12-10T13:16:18Z</time>
      </trkpt>
      <trkpt lat="43.51252" lon="6.75722">
        <ele>34.7</ele>
        <time>2019-12-10T13:16:20Z</time>
      </trkpt>
      <trkpt lat="43.51252" lon="6.75722">
        <ele>34.7</ele>
        <time>2019-12-10T13:16:22Z</time>
      </trkpt>
      <trkpt lat="43.51252" lon="6.75722">
        <ele>34.7</ele>
        <time>2019-12-10T13:16:24Z</time>
      </trkpt>
      <trkpt lat="43.51252" lon="6.75722">
        <ele>34.7</ele>
        <time>2019-12-10T13:16:26Z</time>
      </trkpt>
      <trkpt lat="43.51252" lon="6.75722">
        <ele>34.7</ele>
        <time>2019-12-10T13:16:28Z</time>
      </trkpt>
      <trkpt lat="43.51252" lon="6.75722">
        <ele>34.7</ele>
        <time>2019-12-10T13:16:30Z</time>
      </trkpt>
      <trkpt lat="43.51252" lon="6.75722">
        <ele>34.7</ele>
        <time>2019-12-10T13:16:32Z</time>
      </trkpt>
      <trkpt lat="43.51252" lon="6.75722">
        <ele>34.7</ele>
        <time>2019-12-10T13:16:34Z</time>
      </trkpt>
      <trkpt lat="43.51252" lon="6.75722">
        <ele>34.7</ele>
        <time>2019-12-10T13:16:36Z</time>
      </trkpt>
      <trkpt lat="43.51252" lon="6.75722">
        <ele>34.7</ele>
        <time>2019-12-10T13:16:38Z</time>
      </trkpt>
      <trkpt lat="43.51252" lon="6.75722">
        <ele>34.7</ele>
        <time>2019-12-10T13:16:40Z</time>
      </trkpt>
      <trkpt lat="43.51252" lon="6.75722">
        <ele>34.7</ele>
        <time>2019-12-10T13:16:42Z</time>
      </trkpt>
      <trkpt lat="43.51252" lon="6.75722">
        <ele>34.7</ele>
        <time>2019-12-10T13:16:44Z</time>
      </trkpt>
      <trkpt lat="43.51252" lon="6.75722">
        <ele>34.7</ele>
        <time>2019-12-10T13:16:46Z</time>
      </trkpt>
      <trkpt lat="43.51252" lon="6.75722">
        <ele>34.7</ele>
        <time>2019-12-10T13:16:48Z</time>
      </trkpt>
      <trkpt lat="43.51252" lon="6.75722">
        <ele>34.7</ele>
        <time>2019-12-10T13:16:50Z</time>
      </trkpt>
      <trkpt lat="43.51252" lon="6.75722">
        <ele>34.7</ele>
        <time>2019-12-10T13:16:52Z</time>
      </trkpt>
      <trkpt lat="43.51252" lon="6.75722">
        <ele>34.7</ele>
        <time>2019-12-10T13:16:54Z</time>
      </trkpt>
      <trkpt lat="43.51252" lon="6.75722">
        <ele>34.7</ele>
        <time>2019-12-10T13:16:56Z</time>
      </trkpt>
      <trkpt lat="43.51252" lon="6.75722">
        <ele>34.7</ele>
        <time>2019-12-10T13:16:58Z</time>
      </trkpt>
      <trkpt lat="43.51252" lon="6.75722">
        <ele>34.7</ele>
        <time>2019-12-10T13:17:00Z</time>
      </trkpt>
      <trkpt lat="43.51252" lon="6.75722">
        <ele>34.7</ele>
        <time>2019-12-10T13:17:02Z</time>
      </trkpt>
      <trkpt lat="43.51252" lon="6.75722">
        <ele>34.7</ele>
        <time>2019-12-10T13:17:04Z</time>
      </trkpt>
      <trkpt lat="43.51252" lon="6.75722">
        <ele>34.7</ele>
        <time>2019-12-10T13:17:06Z</time>
      </trkpt>
      <trkpt lat="43.51252" lon="6.75722">
        <ele>34.7</ele>
        <time>2019-12-10T13:17:08Z</time>
      </trkpt>
      <trkpt lat="43.51252" lon="6.75722">
        <ele>34.7</ele>
        <time>2019-12-10T13:17:10Z</time>
      </trkpt>
      <trkpt lat="43.51252" lon="6.75721">
        <ele>35.2</ele>
        <time>2019-12-10T13:17:12Z</time>
      </trkpt>
      <trkpt lat="43.51252" lon="6.75721">
        <ele>35.2</ele>
        <time>2019-12-10T13:17:14Z</time>
      </trkpt>
      <trkpt lat="43.51252" lon="6.75721">
        <ele>35.2</ele>
        <time>2019-12-10T13:17:16Z</time>
      </trkpt>
      <trkpt lat="43.51252" lon="6.75721">
        <ele>35.2</ele>
        <time>2019-12-10T13:17:18Z</time>
      </trkpt>
      <trkpt lat="43.51252" lon="6.75721">
        <ele>35.2</ele>
        <time>2019-12-10T13:17:20Z</time>
      </trkpt>
      <trkpt lat="43.51252" lon="6.75721">
        <ele>35.2</ele>
        <time>2019-12-10T13:17:22Z</time>
      </trkpt>
      <trkpt lat="43.51252" lon="6.75721">
        <ele>35.2</ele>
        <time>2019-12-10T13:17:24Z</time>
      </trkpt>
      <trkpt lat="43.51252" lon="6.75721">
        <ele>35.2</ele>
        <time>2019-12-10T13:17:26Z</time>
      </trkpt>
      <trkpt lat="43.51252" lon="6.75721">
        <ele>35.2</ele>
        <time>2019-12-10T13:17:28Z</time>
      </trkpt>
      <trkpt lat="43.51252" lon="6.75721">
        <ele>35.2</ele>
        <time>2019-12-10T13:17:30Z</time>
      </trkpt>
      <trkpt lat="43.51252" lon="6.75721">
        <ele>35.2</ele>
        <time>2019-12-10T13:17:32Z</time>
      </trkpt>
      <trkpt lat="43.51252" lon="6.75721">
        <ele>35.2</ele>
        <time>2019-12-10T13:17:34Z</time>
      </trkpt>
      <trkpt lat="43.51252" lon="6.75721">
        <ele>34.7</ele>
        <time>2019-12-10T13:17:36Z</time>
      </trkpt>
      <trkpt lat="43.51252" lon="6.75722">
        <ele>34.7</ele>
        <time>2019-12-10T13:17:38Z</time>
      </trkpt>
      <trkpt lat="43.51252" lon="6.75722">
        <ele>34.7</ele>
        <time>2019-12-10T13:17:40Z</time>
      </trkpt>
      <trkpt lat="43.51252" lon="6.75722">
        <ele>34.7</ele>
        <time>2019-12-10T13:17:42Z</time>
      </trkpt>
      <trkpt lat="43.51252" lon="6.75722">
        <ele>34.7</ele>
        <time>2019-12-10T13:17:44Z</time>
      </trkpt>
      <trkpt lat="43.51252" lon="6.75722">
        <ele>34.7</ele>
        <time>2019-12-10T13:17:46Z</time>
      </trkpt>
      <trkpt lat="43.51251" lon="6.75723">
        <ele>34.7</ele>
        <time>2019-12-10T13:17:48Z</time>
      </trkpt>
      <trkpt lat="43.51251" lon="6.75723">
        <ele>34.7</ele>
        <time>2019-12-10T13:17:50Z</time>
      </trkpt>
      <trkpt lat="43.51251" lon="6.75723">
        <ele>34.7</ele>
        <time>2019-12-10T13:17:52Z</time>
      </trkpt>
      <trkpt lat="43.51251" lon="6.75724">
        <ele>34.7</ele>
        <time>2019-12-10T13:17:54Z</time>
      </trkpt>
      <trkpt lat="43.51251" lon="6.75724">
        <ele>34.7</ele>
        <time>2019-12-10T13:17:56Z</time>
      </trkpt>
      <trkpt lat="43.51251" lon="6.75724">
        <ele>34.7</ele>
        <time>2019-12-10T13:17:58Z</time>
      </trkpt>
      <trkpt lat="43.51251" lon="6.75724">
        <ele>34.7</ele>
        <time>2019-12-10T13:18:00Z</time>
      </trkpt>
      <trkpt lat="43.51251" lon="6.75724">
        <ele>34.7</ele>
        <time>2019-12-10T13:18:02Z</time>
      </trkpt>
      <trkpt lat="43.51251" lon="6.75724">
        <ele>34.7</ele>
        <time>2019-12-10T13:18:04Z</time>
      </trkpt>
      <trkpt lat="43.51251" lon="6.75724">
        <ele>34.7</ele>
        <time>2019-12-10T13:18:06Z</time>
      </trkpt>
      <trkpt lat="43.51251" lon="6.75724">
        <ele>35.2</ele>
        <time>2019-12-10T13:18:08Z</time>
      </trkpt>
      <trkpt lat="43.51249" lon="6.75725">
        <ele>35.7</ele>
        <time>2019-12-10T13:18:10Z</time>
      </trkpt>
      <trkpt lat="43.51248" lon="6.75725">
        <ele>36.2</ele>
        <time>2019-12-10T13:18:12Z</time>
      </trkpt>
      <trkpt lat="43.51248" lon="6.75725">
        <ele>36.7</ele>
        <time>2019-12-10T13:18:14Z</time>
      </trkpt>
      <trkpt lat="43.51247" lon="6.75725">
        <ele>37.1</ele>
        <time>2019-12-10T13:18:16Z</time>
      </trkpt>
      <trkpt lat="43.51246" lon="6.75726">
        <ele>37.1</ele>
        <time>2019-12-10T13:18:18Z</time>
      </trkpt>
      <trkpt lat="43.51245" lon="6.75726">
        <ele>36.7</ele>
        <time>2019-12-10T13:18:20Z</time>
      </trkpt>
      <trkpt lat="43.51245" lon="6.75726">
        <ele>36.7</ele>
        <time>2019-12-10T13:18:22Z</time>
      </trkpt>
      <trkpt lat="43.51246" lon="6.75727">
        <ele>36.7</ele>
        <time>2019-12-10T13:18:24Z</time>
      </trkpt>
      <trkpt lat="43.51246" lon="6.75729">
        <ele>36.7</ele>
        <time>2019-12-10T13:18:26Z</time>
      </trkpt>
      <trkpt lat="43.51247" lon="6.7573">
        <ele>37.1</ele>
        <time>2019-12-10T13:18:28Z</time>
      </trkpt>
      <trkpt lat="43.51249" lon="6.75729">
        <ele>37.1</ele>
        <time>2019-12-10T13:18:30Z</time>
      </trkpt>
      <trkpt lat="43.5125" lon="6.75729">
        <ele>37.6</ele>
        <time>2019-12-10T13:18:32Z</time>
      </trkpt>
      <trkpt lat="43.5125" lon="6.7573">
        <ele>38.1</ele>
        <time>2019-12-10T13:18:34Z</time>
      </trkpt>
      <trkpt lat="43.51249" lon="6.75731">
        <ele>38.6</ele>
        <time>2019-12-10T13:18:36Z</time>
      </trkpt>
      <trkpt lat="43.51248" lon="6.75732">
        <ele>39.1</ele>
        <time>2019-12-10T13:18:38Z</time>
      </trkpt>
      <trkpt lat="43.51248" lon="6.75732">
        <ele>39.6</ele>
        <time>2019-12-10T13:18:40Z</time>
      </trkpt>
      <trkpt lat="43.51248" lon="6.75733">
        <ele>39.6</ele>
        <time>2019-12-10T13:18:42Z</time>
      </trkpt>
      <trkpt lat="43.51248" lon="6.75732">
        <ele>39.6</ele>
        <time>2019-12-10T13:18:44Z</time>
      </trkpt>
      <trkpt lat="43.51248" lon="6.75732">
        <ele>39.6</ele>
        <time>2019-12-10T13:18:46Z</time>
      </trkpt>
      <trkpt lat="43.51248" lon="6.75732">
        <ele>39.6</ele>
        <time>2019-12-10T13:18:48Z</time>
      </trkpt>
      <trkpt lat="43.5125" lon="6.75732">
        <ele>39.6</ele>
        <time>2019-12-10T13:18:50Z</time>
      </trkpt>
      <trkpt lat="43.5125" lon="6.7573">
        <ele>39.1</ele>
        <time>2019-12-10T13:18:52Z</time>
      </trkpt>
      <trkpt lat="43.5125" lon="6.75728">
        <ele>39.1</ele>
        <time>2019-12-10T13:18:54Z</time>
      </trkpt>
      <trkpt lat="43.5125" lon="6.75727">
        <ele>39.1</ele>
        <time>2019-12-10T13:18:56Z</time>
      </trkpt>
      <trkpt lat="43.51249" lon="6.75727">
        <ele>39.1</ele>
        <time>2019-12-10T13:18:58Z</time>
      </trkpt>
      <trkpt lat="43.51249" lon="6.75726">
        <ele>39.1</ele>
        <time>2019-12-10T13:19:00Z</time>
      </trkpt>
      <trkpt lat="43.51249" lon="6.75726">
        <ele>38.6</ele>
        <time>2019-12-10T13:19:02Z</time>
      </trkpt>
      <trkpt lat="43.51249" lon="6.75726">
        <ele>38.6</ele>
        <time>2019-12-10T13:19:04Z</time>
      </trkpt>
      <trkpt lat="43.51249" lon="6.75726">
        <ele>38.6</ele>
        <time>2019-12-10T13:19:06Z</time>
      </trkpt>
      <trkpt lat="43.51249" lon="6.75725">
        <ele>38.6</ele>
        <time>2019-12-10T13:19:08Z</time>
      </trkpt>
      <trkpt lat="43.51249" lon="6.75724">
        <ele>38.6</ele>
        <time>2019-12-10T13:19:10Z</time>
      </trkpt>
      <trkpt lat="43.51249" lon="6.75723">
        <ele>39.1</ele>
        <time>2019-12-10T13:19:12Z</time>
      </trkpt>
      <trkpt lat="43.51248" lon="6.75723">
        <ele>39.1</ele>
        <time>2019-12-10T13:19:14Z</time>
      </trkpt>
      <trkpt lat="43.51248" lon="6.75723">
        <ele>39.1</ele>
        <time>2019-12-10T13:19:16Z</time>
      </trkpt>
      <trkpt lat="43.51248" lon="6.75723">
        <ele>39.1</ele>
        <time>2019-12-10T13:19:18Z</time>
      </trkpt>
      <trkpt lat="43.51248" lon="6.75723">
        <ele>39.1</ele>
        <time>2019-12-10T13:19:20Z</time>
      </trkpt>
      <trkpt lat="43.51248" lon="6.75723">
        <ele>39.1</ele>
        <time>2019-12-10T13:19:22Z</time>
      </trkpt>
      <trkpt lat="43.51249" lon="6.75724">
        <ele>39.1</ele>
        <time>2019-12-10T13:19:24Z</time>
      </trkpt>
      <trkpt lat="43.51249" lon="6.75724">
        <ele>39.1</ele>
        <time>2019-12-10T13:19:26Z</time>
      </trkpt>
      <trkpt lat="43.51249" lon="6.75724">
        <ele>39.1</ele>
        <time>2019-12-10T13:19:28Z</time>
      </trkpt>
      <trkpt lat="43.51249" lon="6.75724">
        <ele>39.1</ele>
        <time>2019-12-10T13:19:30Z</time>
      </trkpt>
      <trkpt lat="43.5125" lon="6.75725">
        <ele>39.1</ele>
        <time>2019-12-10T13:19:32Z</time>
      </trkpt>
      <trkpt lat="43.5125" lon="6.75725">
        <ele>39.6</ele>
        <time>2019-12-10T13:19:34Z</time>
      </trkpt>
      <trkpt lat="43.5125" lon="6.75725">
        <ele>39.6</ele>
        <time>2019-12-10T13:19:36Z</time>
      </trkpt>
      <trkpt lat="43.51251" lon="6.75725">
        <ele>40</ele>
        <time>2019-12-10T13:19:38Z</time>
      </trkpt>
      <trkpt lat="43.51251" lon="6.75725">
        <ele>40.5</ele>
        <time>2019-12-10T13:19:40Z</time>
      </trkpt>
      <trkpt lat="43.51251" lon="6.75724">
        <ele>40</ele>
        <time>2019-12-10T13:19:42Z</time>
      </trkpt>
      <trkpt lat="43.5125" lon="6.75724">
        <ele>40</ele>
        <time>2019-12-10T13:19:44Z</time>
      </trkpt>
      <trkpt lat="43.5125" lon="6.75724">
        <ele>40</ele>
        <time>2019-12-10T13:19:46Z</time>
      </trkpt>
      <trkpt lat="43.5125" lon="6.75725">
        <ele>39.6</ele>
        <time>2019-12-10T13:19:48Z</time>
      </trkpt>
      <trkpt lat="43.5125" lon="6.75725">
        <ele>39.6</ele>
        <time>2019-12-10T13:19:50Z</time>
      </trkpt>
      <trkpt lat="43.5125" lon="6.75725">
        <ele>39.6</ele>
        <time>2019-12-10T13:19:52Z</time>
      </trkpt>
      <trkpt lat="43.51251" lon="6.75726">
        <ele>40</ele>
        <time>2019-12-10T13:19:54Z</time>
      </trkpt>
      <trkpt lat="43.51252" lon="6.75726">
        <ele>40</ele>
        <time>2019-12-10T13:19:56Z</time>
      </trkpt>
      <trkpt lat="43.51253" lon="6.75727">
        <ele>40</ele>
        <time>2019-12-10T13:19:58Z</time>
      </trkpt>
      <trkpt lat="43.51252" lon="6.75727">
        <ele>40.5</ele>
        <time>2019-12-10T13:20:00Z</time>
      </trkpt>
      <trkpt lat="43.51252" lon="6.75728">
        <ele>40.5</ele>
        <time>2019-12-10T13:20:02Z</time>
      </trkpt>
      <trkpt lat="43.51254" lon="6.75728">
        <ele>40</ele>
        <time>2019-12-10T13:20:04Z</time>
      </trkpt>
      <trkpt lat="43.51254" lon="6.75728">
        <ele>40</ele>
        <time>2019-12-10T13:20:06Z</time>
      </trkpt>
      <trkpt lat="43.51256" lon="6.75727">
        <ele>40</ele>
        <time>2019-12-10T13:20:08Z</time>
      </trkpt>
      <trkpt lat="43.51257" lon="6.75727">
        <ele>39.6</ele>
        <time>2019-12-10T13:20:10Z</time>
      </trkpt>
      <trkpt lat="43.51259" lon="6.75727">
        <ele>39.6</ele>
        <time>2019-12-10T13:20:12Z</time>
      </trkpt>
      <trkpt lat="43.51261" lon="6.75726">
        <ele>39.6</ele>
        <time>2019-12-10T13:20:14Z</time>
      </trkpt>
      <trkpt lat="43.51262" lon="6.75726">
        <ele>39.6</ele>
        <time>2019-12-10T13:20:16Z</time>
      </trkpt>
      <trkpt lat="43.51263" lon="6.75727">
        <ele>39.1</ele>
        <time>2019-12-10T13:20:18Z</time>
      </trkpt>
      <trkpt lat="43.51265" lon="6.75727">
        <ele>39.1</ele>
        <time>2019-12-10T13:20:20Z</time>
      </trkpt>
      <trkpt lat="43.51265" lon="6.75728">
        <ele>39.6</ele>
        <time>2019-12-10T13:20:22Z</time>
      </trkpt>
      <trkpt lat="43.51266" lon="6.75728">
        <ele>39.6</ele>
        <time>2019-12-10T13:20:24Z</time>
      </trkpt>
      <trkpt lat="43.51267" lon="6.75729">
        <ele>39.1</ele>
        <time>2019-12-10T13:20:26Z</time>
      </trkpt>
      <trkpt lat="43.51268" lon="6.7573">
        <ele>39.1</ele>
        <time>2019-12-10T13:20:28Z</time>
      </trkpt>
      <trkpt lat="43.5127" lon="6.75731">
        <ele>39.1</ele>
        <time>2019-12-10T13:20:30Z</time>
      </trkpt>
      <trkpt lat="43.5127" lon="6.75732">
        <ele>39.1</ele>
        <time>2019-12-10T13:20:32Z</time>
      </trkpt>
      <trkpt lat="43.51272" lon="6.75733">
        <ele>38.6</ele>
        <time>2019-12-10T13:20:34Z</time>
      </trkpt>
      <trkpt lat="43.51273" lon="6.75735">
        <ele>38.6</ele>
        <time>2019-12-10T13:20:36Z</time>
      </trkpt>
      <trkpt lat="43.51275" lon="6.75736">
        <ele>38.6</ele>
        <time>2019-12-10T13:20:38Z</time>
      </trkpt>
      <trkpt lat="43.51277" lon="6.75737">
        <ele>38.1</ele>
        <time>2019-12-10T13:20:40Z</time>
      </trkpt>
      <trkpt lat="43.51278" lon="6.75738">
        <ele>38.1</ele>
        <time>2019-12-10T13:20:42Z</time>
      </trkpt>
      <trkpt lat="43.5128" lon="6.75739">
        <ele>37.6</ele>
        <time>2019-12-10T13:20:44Z</time>
      </trkpt>
      <trkpt lat="43.51282" lon="6.75742">
        <ele>37.6</ele>
        <time>2019-12-10T13:20:46Z</time>
      </trkpt>
      <trkpt lat="43.51284" lon="6.75743">
        <ele>37.6</ele>
        <time>2019-12-10T13:20:48Z</time>
      </trkpt>
      <trkpt lat="43.51287" lon="6.75744">
        <ele>37.1</ele>
        <time>2019-12-10T13:20:50Z</time>
      </trkpt>
      <trkpt lat="43.51288" lon="6.75744">
        <ele>37.1</ele>
        <time>2019-12-10T13:20:52Z</time>
      </trkpt>
      <trkpt lat="43.51288" lon="6.75745">
        <ele>36.7</ele>
        <time>2019-12-10T13:20:54Z</time>
      </trkpt>
      <trkpt lat="43.5129" lon="6.75745">
        <ele>37.1</ele>
        <time>2019-12-10T13:20:56Z</time>
      </trkpt>
      <trkpt lat="43.51291" lon="6.75746">
        <ele>36.7</ele>
        <time>2019-12-10T13:20:58Z</time>
      </trkpt>
      <trkpt lat="43.51293" lon="6.75746">
        <ele>36.7</ele>
        <time>2019-12-10T13:21:00Z</time>
      </trkpt>
      <trkpt lat="43.51295" lon="6.75747">
        <ele>36.7</ele>
        <time>2019-12-10T13:21:02Z</time>
      </trkpt>
      <trkpt lat="43.51296" lon="6.75748">
        <ele>36.2</ele>
        <time>2019-12-10T13:21:04Z</time>
      </trkpt>
      <trkpt lat="43.51298" lon="6.75748">
        <ele>35.7</ele>
        <time>2019-12-10T13:21:06Z</time>
      </trkpt>
      <trkpt lat="43.513" lon="6.75749">
        <ele>35.2</ele>
        <time>2019-12-10T13:21:08Z</time>
      </trkpt>
      <trkpt lat="43.51301" lon="6.7575">
        <ele>35.2</ele>
        <time>2019-12-10T13:21:10Z</time>
      </trkpt>
      <trkpt lat="43.51303" lon="6.75751">
        <ele>34.7</ele>
        <time>2019-12-10T13:21:12Z</time>
      </trkpt>
      <trkpt lat="43.51305" lon="6.75751">
        <ele>34.7</ele>
        <time>2019-12-10T13:21:14Z</time>
      </trkpt>
      <trkpt lat="43.51307" lon="6.7575">
        <ele>34.3</ele>
        <time>2019-12-10T13:21:16Z</time>
      </trkpt>
      <trkpt lat="43.51307" lon="6.7575">
        <ele>35.2</ele>
        <time>2019-12-10T13:21:18Z</time>
      </trkpt>
      <trkpt lat="43.51307" lon="6.75751">
        <ele>35.2</ele>
        <time>2019-12-10T13:21:20Z</time>
      </trkpt>
      <trkpt lat="43.51307" lon="6.75751">
        <ele>34.7</ele>
        <time>2019-12-10T13:21:22Z</time>
      </trkpt>
      <trkpt lat="43.51307" lon="6.75752">
        <ele>34.7</ele>
        <time>2019-12-10T13:21:24Z</time>
      </trkpt>
      <trkpt lat="43.51307" lon="6.75752">
        <ele>35.2</ele>
        <time>2019-12-10T13:21:26Z</time>
      </trkpt>
      <trkpt lat="43.51308" lon="6.75752">
        <ele>35.2</ele>
        <time>2019-12-10T13:21:28Z</time>
      </trkpt>
      <trkpt lat="43.51308" lon="6.75753">
        <ele>35.2</ele>
        <time>2019-12-10T13:21:30Z</time>
      </trkpt>
      <trkpt lat="43.51308" lon="6.75753">
        <ele>35.7</ele>
        <time>2019-12-10T13:21:32Z</time>
      </trkpt>
      <trkpt lat="43.51309" lon="6.75753">
        <ele>35.7</ele>
        <time>2019-12-10T13:21:34Z</time>
      </trkpt>
      <trkpt lat="43.51309" lon="6.75753">
        <ele>35.7</ele>
        <time>2019-12-10T13:21:36Z</time>
      </trkpt>
      <trkpt lat="43.51308" lon="6.75752">
        <ele>35.7</ele>
        <time>2019-12-10T13:21:38Z</time>
      </trkpt>
      <trkpt lat="43.51307" lon="6.7575">
        <ele>35.7</ele>
        <time>2019-12-10T13:21:40Z</time>
      </trkpt>
      <trkpt lat="43.51307" lon="6.7575">
        <ele>35.2</ele>
        <time>2019-12-10T13:21:42Z</time>
      </trkpt>
      <trkpt lat="43.51307" lon="6.75751">
        <ele>35.2</ele>
        <time>2019-12-10T13:21:44Z</time>
      </trkpt>
      <trkpt lat="43.51307" lon="6.75751">
        <ele>35.2</ele>
        <time>2019-12-10T13:21:46Z</time>
      </trkpt>
      <trkpt lat="43.51307" lon="6.75751">
        <ele>35.2</ele>
        <time>2019-12-10T13:21:48Z</time>
      </trkpt>
      <trkpt lat="43.51307" lon="6.75751">
        <ele>35.2</ele>
        <time>2019-12-10T13:21:50Z</time>
      </trkpt>
      <trkpt lat="43.51307" lon="6.75752">
        <ele>35.2</ele>
        <time>2019-12-10T13:21:52Z</time>
      </trkpt>
      <trkpt lat="43.51307" lon="6.75752">
        <ele>35.2</ele>
        <time>2019-12-10T13:21:54Z</time>
      </trkpt>
      <trkpt lat="43.51307" lon="6.75751">
        <ele>35.2</ele>
        <time>2019-12-10T13:21:56Z</time>
      </trkpt>
      <trkpt lat="43.51307" lon="6.75752">
        <ele>35.2</ele>
        <time>2019-12-10T13:21:58Z</time>
      </trkpt>
      <trkpt lat="43.51307" lon="6.75752">
        <ele>35.2</ele>
        <time>2019-12-10T13:22:00Z</time>
      </trkpt>
      <trkpt lat="43.51306" lon="6.75752">
        <ele>35.2</ele>
        <time>2019-12-10T13:22:02Z</time>
      </trkpt>
      <trkpt lat="43.51307" lon="6.75752">
        <ele>35.2</ele>
        <time>2019-12-10T13:22:04Z</time>
      </trkpt>
      <trkpt lat="43.51308" lon="6.75753">
        <ele>35.2</ele>
        <time>2019-12-10T13:22:06Z</time>
      </trkpt>
      <trkpt lat="43.51311" lon="6.75754">
        <ele>35.2</ele>
        <time>2019-12-10T13:22:08Z</time>
      </trkpt>
      <trkpt lat="43.51315" lon="6.75754">
        <ele>34.7</ele>
        <time>2019-12-10T13:22:10Z</time>
      </trkpt>
      <trkpt lat="43.5132" lon="6.75753">
        <ele>34.7</ele>
        <time>2019-12-10T13:22:12Z</time>
      </trkpt>
      <trkpt lat="43.51324" lon="6.75751">
        <ele>34.7</ele>
        <time>2019-12-10T13:22:14Z</time>
      </trkpt>
      <trkpt lat="43.51329" lon="6.75751">
        <ele>34.7</ele>
        <time>2019-12-10T13:22:16Z</time>
      </trkpt>
      <trkpt lat="43.51332" lon="6.7575">
        <ele>34.7</ele>
        <time>2019-12-10T13:22:18Z</time>
      </trkpt>
      <trkpt lat="43.51335" lon="6.75749">
        <ele>34.3</ele>
        <time>2019-12-10T13:22:20Z</time>
      </trkpt>
      <trkpt lat="43.51338" lon="6.75748">
        <ele>34.7</ele>
        <time>2019-12-10T13:22:22Z</time>
      </trkpt>
      <trkpt lat="43.51341" lon="6.75747">
        <ele>34.7</ele>
        <time>2019-12-10T13:22:24Z</time>
      </trkpt>
      <trkpt lat="43.51343" lon="6.75745">
        <ele>34.7</ele>
        <time>2019-12-10T13:22:26Z</time>
      </trkpt>
      <trkpt lat="43.51346" lon="6.75743">
        <ele>34.7</ele>
        <time>2019-12-10T13:22:28Z</time>
      </trkpt>
      <trkpt lat="43.5135" lon="6.75742">
        <ele>34.3</ele>
        <time>2019-12-10T13:22:30Z</time>
      </trkpt>
      <trkpt lat="43.51353" lon="6.75739">
        <ele>34.3</ele>
        <time>2019-12-10T13:22:32Z</time>
      </trkpt>
      <trkpt lat="43.51356" lon="6.75738">
        <ele>33.8</ele>
        <time>2019-12-10T13:22:34Z</time>
      </trkpt>
      <trkpt lat="43.5136" lon="6.75737">
        <ele>33.8</ele>
        <time>2019-12-10T13:22:36Z</time>
      </trkpt>
      <trkpt lat="43.51364" lon="6.75735">
        <ele>33.8</ele>
        <time>2019-12-10T13:22:38Z</time>
      </trkpt>
      <trkpt lat="43.51367" lon="6.75734">
        <ele>33.3</ele>
        <time>2019-12-10T13:22:40Z</time>
      </trkpt>
      <trkpt lat="43.51371" lon="6.75733">
        <ele>33.3</ele>
        <time>2019-12-10T13:22:42Z</time>
      </trkpt>
      <trkpt lat="43.51374" lon="6.75732">
        <ele>33.3</ele>
        <time>2019-12-10T13:22:44Z</time>
      </trkpt>
      <trkpt lat="43.51377" lon="6.75731">
        <ele>32.8</ele>
        <time>2019-12-10T13:22:46Z</time>
      </trkpt>
      <trkpt lat="43.51381" lon="6.7573">
        <ele>32.8</ele>
        <time>2019-12-10T13:22:48Z</time>
      </trkpt>
      <trkpt lat="43.51385" lon="6.75727">
        <ele>33.3</ele>
        <time>2019-12-10T13:22:50Z</time>
      </trkpt>
      <trkpt lat="43.51389" lon="6.75725">
        <ele>33.3</ele>
        <time>2019-12-10T13:22:52Z</time>
      </trkpt>
      <trkpt lat="43.51393" lon="6.75723">
        <ele>33.3</ele>
        <time>2019-12-10T13:22:54Z</time>
      </trkpt>
      <trkpt lat="43.51397" lon="6.7572">
        <ele>33.8</ele>
        <time>2019-12-10T13:22:56Z</time>
      </trkpt>
      <trkpt lat="43.51401" lon="6.75717">
        <ele>33.8</ele>
        <time>2019-12-10T13:22:58Z</time>
      </trkpt>
      <trkpt lat="43.51406" lon="6.75715">
        <ele>34.3</ele>
        <time>2019-12-10T13:23:00Z</time>
      </trkpt>
      <trkpt lat="43.51411" lon="6.75713">
        <ele>34.7</ele>
        <time>2019-12-10T13:23:02Z</time>
      </trkpt>
      <trkpt lat="43.51416" lon="6.75711">
        <ele>34.7</ele>
        <time>2019-12-10T13:23:04Z</time>
      </trkpt>
      <trkpt lat="43.51421" lon="6.75709">
        <ele>35.2</ele>
        <time>2019-12-10T13:23:06Z</time>
      </trkpt>
      <trkpt lat="43.51426" lon="6.75707">
        <ele>35.2</ele>
        <time>2019-12-10T13:23:08Z</time>
      </trkpt>
      <trkpt lat="43.51431" lon="6.75705">
        <ele>35.7</ele>
        <time>2019-12-10T13:23:10Z</time>
      </trkpt>
      <trkpt lat="43.51435" lon="6.75703">
        <ele>36.7</ele>
        <time>2019-12-10T13:23:12Z</time>
      </trkpt>
      <trkpt lat="43.51439" lon="6.75702">
        <ele>37.1</ele>
        <time>2019-12-10T13:23:14Z</time>
      </trkpt>
      <trkpt lat="43.51444" lon="6.75701">
        <ele>37.6</ele>
        <time>2019-12-10T13:23:16Z</time>
      </trkpt>
      <trkpt lat="43.51448" lon="6.75701">
        <ele>38.6</ele>
        <time>2019-12-10T13:23:18Z</time>
      </trkpt>
      <trkpt lat="43.51451" lon="6.75698">
        <ele>38.6</ele>
        <time>2019-12-10T13:23:20Z</time>
      </trkpt>
      <trkpt lat="43.51454" lon="6.75698">
        <ele>39.6</ele>
        <time>2019-12-10T13:23:22Z</time>
      </trkpt>
      <trkpt lat="43.51459" lon="6.75699">
        <ele>40</ele>
        <time>2019-12-10T13:23:24Z</time>
      </trkpt>
      <trkpt lat="43.51465" lon="6.75701">
        <ele>41</ele>
        <time>2019-12-10T13:23:26Z</time>
      </trkpt>
      <trkpt lat="43.51469" lon="6.75702">
        <ele>42</ele>
        <time>2019-12-10T13:23:28Z</time>
      </trkpt>
      <trkpt lat="43.51475" lon="6.75703">
        <ele>42.9</ele>
        <time>2019-12-10T13:23:30Z</time>
      </trkpt>
      <trkpt lat="43.5148" lon="6.75704">
        <ele>43.4</ele>
        <time>2019-12-10T13:23:32Z</time>
      </trkpt>
      <trkpt lat="43.51486" lon="6.75705">
        <ele>44.4</ele>
        <time>2019-12-10T13:23:34Z</time>
      </trkpt>
      <trkpt lat="43.5149" lon="6.75706">
        <ele>44.4</ele>
        <time>2019-12-10T13:23:36Z</time>
      </trkpt>
      <trkpt lat="43.51494" lon="6.75709">
        <ele>44.4</ele>
        <time>2019-12-10T13:23:38Z</time>
      </trkpt>
      <trkpt lat="43.51498" lon="6.75713">
        <ele>44.8</ele>
        <time>2019-12-10T13:23:40Z</time>
      </trkpt>
      <trkpt lat="43.51503" lon="6.75717">
        <ele>45.3</ele>
        <time>2019-12-10T13:23:42Z</time>
      </trkpt>
      <trkpt lat="43.51509" lon="6.75721">
        <ele>46.3</ele>
        <time>2019-12-10T13:23:44Z</time>
      </trkpt>
      <trkpt lat="43.51515" lon="6.75723">
        <ele>46.8</ele>
        <time>2019-12-10T13:23:46Z</time>
      </trkpt>
      <trkpt lat="43.51519" lon="6.75726">
        <ele>47.2</ele>
        <time>2019-12-10T13:23:48Z</time>
      </trkpt>
      <trkpt lat="43.51523" lon="6.7573">
        <ele>47.7</ele>
        <time>2019-12-10T13:23:50Z</time>
      </trkpt>
      <trkpt lat="43.51527" lon="6.75733">
        <ele>47.7</ele>
        <time>2019-12-10T13:23:52Z</time>
      </trkpt>
      <trkpt lat="43.51531" lon="6.75737">
        <ele>47.7</ele>
        <time>2019-12-10T13:23:54Z</time>
      </trkpt>
      <trkpt lat="43.51533" lon="6.75741">
        <ele>48.2</ele>
        <time>2019-12-10T13:23:56Z</time>
      </trkpt>
      <trkpt lat="43.51536" lon="6.75744">
        <ele>48.7</ele>
        <time>2019-12-10T13:23:58Z</time>
      </trkpt>
      <trkpt lat="43.51541" lon="6.75745">
        <ele>49.2</ele>
        <time>2019-12-10T13:24:00Z</time>
      </trkpt>
      <trkpt lat="43.51546" lon="6.75748">
        <ele>49.2</ele>
        <time>2019-12-10T13:24:02Z</time>
      </trkpt>
      <trkpt lat="43.51551" lon="6.75751">
        <ele>49.2</ele>
        <time>2019-12-10T13:24:04Z</time>
      </trkpt>
      <trkpt lat="43.51556" lon="6.75755">
        <ele>49.6</ele>
        <time>2019-12-10T13:24:06Z</time>
      </trkpt>
      <trkpt lat="43.51562" lon="6.75759">
        <ele>49.6</ele>
        <time>2019-12-10T13:24:08Z</time>
      </trkpt>
      <trkpt lat="43.51567" lon="6.75763">
        <ele>50.1</ele>
        <time>2019-12-10T13:24:10Z</time>
      </trkpt>
      <trkpt lat="43.51571" lon="6.75766">
        <ele>50.1</ele>
        <time>2019-12-10T13:24:12Z</time>
      </trkpt>
      <trkpt lat="43.51576" lon="6.7577">
        <ele>50.6</ele>
        <time>2019-12-10T13:24:14Z</time>
      </trkpt>
      <trkpt lat="43.51581" lon="6.75776">
        <ele>51.1</ele>
        <time>2019-12-10T13:24:16Z</time>
      </trkpt>
      <trkpt lat="43.51586" lon="6.7578">
        <ele>51.1</ele>
        <time>2019-12-10T13:24:18Z</time>
      </trkpt>
      <trkpt lat="43.51589" lon="6.75785">
        <ele>51.1</ele>
        <time>2019-12-10T13:24:20Z</time>
      </trkpt>
      <trkpt lat="43.51592" lon="6.75791">
        <ele>51.1</ele>
        <time>2019-12-10T13:24:22Z</time>
      </trkpt>
      <trkpt lat="43.51596" lon="6.75796">
        <ele>50.6</ele>
        <time>2019-12-10T13:24:24Z</time>
      </trkpt>
      <trkpt lat="43.516" lon="6.75801">
        <ele>50.6</ele>
        <time>2019-12-10T13:24:26Z</time>
      </trkpt>
      <trkpt lat="43.51605" lon="6.75805">
        <ele>50.6</ele>
        <time>2019-12-10T13:24:28Z</time>
      </trkpt>
      <trkpt lat="43.51608" lon="6.75809">
        <ele>50.6</ele>
        <time>2019-12-10T13:24:30Z</time>
      </trkpt>
      <trkpt lat="43.51612" lon="6.75812">
        <ele>50.6</ele>
        <time>2019-12-10T13:24:32Z</time>
      </trkpt>
      <trkpt lat="43.51615" lon="6.75817">
        <ele>50.6</ele>
        <time>2019-12-10T13:24:34Z</time>
      </trkpt>
      <trkpt lat="43.51619" lon="6.75822">
        <ele>50.6</ele>
        <time>2019-12-10T13:24:36Z</time>
      </trkpt>
      <trkpt lat="43.51623" lon="6.75826">
        <ele>50.6</ele>
        <time>2019-12-10T13:24:38Z</time>
      </trkpt>
      <trkpt lat="43.51626" lon="6.7583">
        <ele>50.6</ele>
        <time>2019-12-10T13:24:40Z</time>
      </trkpt>
      <trkpt lat="43.5163" lon="6.75835">
        <ele>50.6</ele>
        <time>2019-12-10T13:24:42Z</time>
      </trkpt>
      <trkpt lat="43.51634" lon="6.7584">
        <ele>50.6</ele>
        <time>2019-12-10T13:24:44Z</time>
      </trkpt>
      <trkpt lat="43.51639" lon="6.75845">
        <ele>50.6</ele>
        <time>2019-12-10T13:24:46Z</time>
      </trkpt>
      <trkpt lat="43.51642" lon="6.7585">
        <ele>50.1</ele>
        <time>2019-12-10T13:24:48Z</time>
      </trkpt>
      <trkpt lat="43.51647" lon="6.75855">
        <ele>49.6</ele>
        <time>2019-12-10T13:24:50Z</time>
      </trkpt>
      <trkpt lat="43.51651" lon="6.7586">
        <ele>49.6</ele>
        <time>2019-12-10T13:24:52Z</time>
      </trkpt>
      <trkpt lat="43.51655" lon="6.75864">
        <ele>49.6</ele>
        <time>2019-12-10T13:24:54Z</time>
      </trkpt>
      <trkpt lat="43.51659" lon="6.75868">
        <ele>49.6</ele>
        <time>2019-12-10T13:24:56Z</time>
      </trkpt>
      <trkpt lat="43.51664" lon="6.75873">
        <ele>49.2</ele>
        <time>2019-12-10T13:24:58Z</time>
      </trkpt>
      <trkpt lat="43.51668" lon="6.75877">
        <ele>49.2</ele>
        <time>2019-12-10T13:25:00Z</time>
      </trkpt>
      <trkpt lat="43.51672" lon="6.75882">
        <ele>49.6</ele>
        <time>2019-12-10T13:25:02Z</time>
      </trkpt>
      <trkpt lat="43.51676" lon="6.75887">
        <ele>49.6</ele>
        <time>2019-12-10T13:25:04Z</time>
      </trkpt>
      <trkpt lat="43.5168" lon="6.75892">
        <ele>49.6</ele>
        <time>2019-12-10T13:25:06Z</time>
      </trkpt>
      <trkpt lat="43.51684" lon="6.75897">
        <ele>49.6</ele>
        <time>2019-12-10T13:25:08Z</time>
      </trkpt>
      <trkpt lat="43.51688" lon="6.75902">
        <ele>49.6</ele>
        <time>2019-12-10T13:25:10Z</time>
      </trkpt>
      <trkpt lat="43.51692" lon="6.75907">
        <ele>49.6</ele>
        <time>2019-12-10T13:25:12Z</time>
      </trkpt>
      <trkpt lat="43.51697" lon="6.75911">
        <ele>49.2</ele>
        <time>2019-12-10T13:25:14Z</time>
      </trkpt>
      <trkpt lat="43.51702" lon="6.75915">
        <ele>49.2</ele>
        <time>2019-12-10T13:25:16Z</time>
      </trkpt>
      <trkpt lat="43.51706" lon="6.75919">
        <ele>49.2</ele>
        <time>2019-12-10T13:25:18Z</time>
      </trkpt>
      <trkpt lat="43.5171" lon="6.75922">
        <ele>49.2</ele>
        <time>2019-12-10T13:25:20Z</time>
      </trkpt>
      <trkpt lat="43.51715" lon="6.75926">
        <ele>48.7</ele>
        <time>2019-12-10T13:25:22Z</time>
      </trkpt>
      <trkpt lat="43.5172" lon="6.75929">
        <ele>48.7</ele>
        <time>2019-12-10T13:25:24Z</time>
      </trkpt>
      <trkpt lat="43.51724" lon="6.75932">
        <ele>48.7</ele>
        <time>2019-12-10T13:25:26Z</time>
      </trkpt>
      <trkpt lat="43.51729" lon="6.75935">
        <ele>49.2</ele>
        <time>2019-12-10T13:25:28Z</time>
      </trkpt>
      <trkpt lat="43.51733" lon="6.75938">
        <ele>49.2</ele>
        <time>2019-12-10T13:25:30Z</time>
      </trkpt>
      <trkpt lat="43.51738" lon="6.75941">
        <ele>49.6</ele>
        <time>2019-12-10T13:25:32Z</time>
      </trkpt>
      <trkpt lat="43.51743" lon="6.75944">
        <ele>49.6</ele>
        <time>2019-12-10T13:25:34Z</time>
      </trkpt>
      <trkpt lat="43.51748" lon="6.75946">
        <ele>49.6</ele>
        <time>2019-12-10T13:25:36Z</time>
      </trkpt>
      <trkpt lat="43.51753" lon="6.75948">
        <ele>49.2</ele>
        <time>2019-12-10T13:25:38Z</time>
      </trkpt>
      <trkpt lat="43.51757" lon="6.7595">
        <ele>49.6</ele>
        <time>2019-12-10T13:25:40Z</time>
      </trkpt>
      <trkpt lat="43.51761" lon="6.75953">
        <ele>49.6</ele>
        <time>2019-12-10T13:25:42Z</time>
      </trkpt>
      <trkpt lat="43.51766" lon="6.75956">
        <ele>50.1</ele>
        <time>2019-12-10T13:25:44Z</time>
      </trkpt>
      <trkpt lat="43.51771" lon="6.75957">
        <ele>49.6</ele>
        <time>2019-12-10T13:25:46Z</time>
      </trkpt>
      <trkpt lat="43.51776" lon="6.75958">
        <ele>49.6</ele>
        <time>2019-12-10T13:25:48Z</time>
      </trkpt>
      <trkpt lat="43.51781" lon="6.7596">
        <ele>49.6</ele>
        <time>2019-12-10T13:25:50Z</time>
      </trkpt>
      <trkpt lat="43.51785" lon="6.75963">
        <ele>49.6</ele>
        <time>2019-12-10T13:25:52Z</time>
      </trkpt>
      <trkpt lat="43.5179" lon="6.75965">
        <ele>50.1</ele>
        <time>2019-12-10T13:25:54Z</time>
      </trkpt>
      <trkpt lat="43.51796" lon="6.75968">
        <ele>50.6</ele>
        <time>2019-12-10T13:25:56Z</time>
      </trkpt>
      <trkpt lat="43.51801" lon="6.75971">
        <ele>50.6</ele>
        <time>2019-12-10T13:25:58Z</time>
      </trkpt>
      <trkpt lat="43.51806" lon="6.75973">
        <ele>50.6</ele>
        <time>2019-12-10T13:26:00Z</time>
      </trkpt>
      <trkpt lat="43.51811" lon="6.75976">
        <ele>50.6</ele>
        <time>2019-12-10T13:26:02Z</time>
      </trkpt>
      <trkpt lat="43.51815" lon="6.75978">
        <ele>50.6</ele>
        <time>2019-12-10T13:26:04Z</time>
      </trkpt>
      <trkpt lat="43.5182" lon="6.75981">
        <ele>51.1</ele>
        <time>2019-12-10T13:26:06Z</time>
      </trkpt>
      <trkpt lat="43.51826" lon="6.75984">
        <ele>51.1</ele>
        <time>2019-12-10T13:26:08Z</time>
      </trkpt>
      <trkpt lat="43.51831" lon="6.75988">
        <ele>51.6</ele>
        <time>2019-12-10T13:26:10Z</time>
      </trkpt>
      <trkpt lat="43.51835" lon="6.75992">
        <ele>51.6</ele>
        <time>2019-12-10T13:26:12Z</time>
      </trkpt>
      <trkpt lat="43.51841" lon="6.75994">
        <ele>51.1</ele>
        <time>2019-12-10T13:26:14Z</time>
      </trkpt>
      <trkpt lat="43.51846" lon="6.75997">
        <ele>50.1</ele>
        <time>2019-12-10T13:26:16Z</time>
      </trkpt>
      <trkpt lat="43.51851" lon="6.76001">
        <ele>50.1</ele>
        <time>2019-12-10T13:26:18Z</time>
      </trkpt>
      <trkpt lat="43.51855" lon="6.76004">
        <ele>50.1</ele>
        <time>2019-12-10T13:26:20Z</time>
      </trkpt>
      <trkpt lat="43.5186" lon="6.76006">
        <ele>50.1</ele>
        <time>2019-12-10T13:26:22Z</time>
      </trkpt>
      <trkpt lat="43.51865" lon="6.76009">
        <ele>50.1</ele>
        <time>2019-12-10T13:26:24Z</time>
      </trkpt>
      <trkpt lat="43.5187" lon="6.76014">
        <ele>50.6</ele>
        <time>2019-12-10T13:26:26Z</time>
      </trkpt>
      <trkpt lat="43.51875" lon="6.76019">
        <ele>50.6</ele>
        <time>2019-12-10T13:26:28Z</time>
      </trkpt>
      <trkpt lat="43.5188" lon="6.76024">
        <ele>51.1</ele>
        <time>2019-12-10T13:26:30Z</time>
      </trkpt>
      <trkpt lat="43.51885" lon="6.76028">
        <ele>51.1</ele>
        <time>2019-12-10T13:26:32Z</time>
      </trkpt>
      <trkpt lat="43.51889" lon="6.76032">
        <ele>51.6</ele>
        <time>2019-12-10T13:26:34Z</time>
      </trkpt>
      <trkpt lat="43.51894" lon="6.76035">
        <ele>52</ele>
        <time>2019-12-10T13:26:36Z</time>
      </trkpt>
      <trkpt lat="43.51899" lon="6.7604">
        <ele>52.5</ele>
        <time>2019-12-10T13:26:38Z</time>
      </trkpt>
      <trkpt lat="43.51903" lon="6.76044">
        <ele>53</ele>
        <time>2019-12-10T13:26:40Z</time>
      </trkpt>
      <trkpt lat="43.51908" lon="6.76048">
        <ele>53</ele>
        <time>2019-12-10T13:26:42Z</time>
      </trkpt>
      <trkpt lat="43.51912" lon="6.76053">
        <ele>53.5</ele>
        <time>2019-12-10T13:26:44Z</time>
      </trkpt>
      <trkpt lat="43.51916" lon="6.76057">
        <ele>53.5</ele>
        <time>2019-12-10T13:26:46Z</time>
      </trkpt>
      <trkpt lat="43.51921" lon="6.7606">
        <ele>54</ele>
        <time>2019-12-10T13:26:48Z</time>
      </trkpt>
      <trkpt lat="43.51926" lon="6.76065">
        <ele>54.5</ele>
        <time>2019-12-10T13:26:50Z</time>
      </trkpt>
      <trkpt lat="43.51931" lon="6.76069">
        <ele>54.5</ele>
        <time>2019-12-10T13:26:52Z</time>
      </trkpt>
      <trkpt lat="43.51936" lon="6.76074">
        <ele>54.5</ele>
        <time>2019-12-10T13:26:54Z</time>
      </trkpt>
      <trkpt lat="43.51941" lon="6.76078">
        <ele>54.5</ele>
        <time>2019-12-10T13:26:56Z</time>
      </trkpt>
      <trkpt lat="43.51947" lon="6.76082">
        <ele>54.5</ele>
        <time>2019-12-10T13:26:58Z</time>
      </trkpt>
      <trkpt lat="43.51952" lon="6.76087">
        <ele>54.5</ele>
        <time>2019-12-10T13:27:00Z</time>
      </trkpt>
      <trkpt lat="43.51958" lon="6.76091">
        <ele>54.5</ele>
        <time>2019-12-10T13:27:02Z</time>
      </trkpt>
      <trkpt lat="43.51963" lon="6.76096">
        <ele>54.5</ele>
        <time>2019-12-10T13:27:04Z</time>
      </trkpt>
      <trkpt lat="43.51969" lon="6.76101">
        <ele>54.5</ele>
        <time>2019-12-10T13:27:06Z</time>
      </trkpt>
      <trkpt lat="43.51974" lon="6.76106">
        <ele>54.5</ele>
        <time>2019-12-10T13:27:08Z</time>
      </trkpt>
      <trkpt lat="43.51979" lon="6.7611">
        <ele>54.5</ele>
        <time>2019-12-10T13:27:10Z</time>
      </trkpt>
      <trkpt lat="43.51985" lon="6.76115">
        <ele>54.5</ele>
        <time>2019-12-10T13:27:12Z</time>
      </trkpt>
      <trkpt lat="43.5199" lon="6.76121">
        <ele>54.5</ele>
        <time>2019-12-10T13:27:14Z</time>
      </trkpt>
      <trkpt lat="43.51995" lon="6.76125">
        <ele>54.9</ele>
        <time>2019-12-10T13:27:16Z</time>
      </trkpt>
      <trkpt lat="43.51999" lon="6.7613">
        <ele>54.9</ele>
        <time>2019-12-10T13:27:18Z</time>
      </trkpt>
      <trkpt lat="43.52002" lon="6.76136">
        <ele>54.9</ele>
        <time>2019-12-10T13:27:20Z</time>
      </trkpt>
      <trkpt lat="43.52007" lon="6.76142">
        <ele>55.4</ele>
        <time>2019-12-10T13:27:22Z</time>
      </trkpt>
      <trkpt lat="43.52011" lon="6.76148">
        <ele>55.9</ele>
        <time>2019-12-10T13:27:24Z</time>
      </trkpt>
      <trkpt lat="43.52014" lon="6.76155">
        <ele>56.4</ele>
        <time>2019-12-10T13:27:26Z</time>
      </trkpt>
      <trkpt lat="43.52018" lon="6.76162">
        <ele>56.4</ele>
        <time>2019-12-10T13:27:28Z</time>
      </trkpt>
      <trkpt lat="43.52022" lon="6.76169">
        <ele>56.4</ele>
        <time>2019-12-10T13:27:30Z</time>
      </trkpt>
      <trkpt lat="43.52025" lon="6.76175">
        <ele>56.4</ele>
        <time>2019-12-10T13:27:32Z</time>
      </trkpt>
      <trkpt lat="43.52028" lon="6.76182">
        <ele>55.9</ele>
        <time>2019-12-10T13:27:34Z</time>
      </trkpt>
      <trkpt lat="43.52032" lon="6.76189">
        <ele>55.9</ele>
        <time>2019-12-10T13:27:36Z</time>
      </trkpt>
      <trkpt lat="43.52035" lon="6.76196">
        <ele>56.4</ele>
        <time>2019-12-10T13:27:38Z</time>
      </trkpt>
      <trkpt lat="43.52038" lon="6.76203">
        <ele>56.9</ele>
        <time>2019-12-10T13:27:40Z</time>
      </trkpt>
      <trkpt lat="43.52042" lon="6.7621">
        <ele>56.9</ele>
        <time>2019-12-10T13:27:42Z</time>
      </trkpt>
      <trkpt lat="43.52045" lon="6.76217">
        <ele>56.9</ele>
        <time>2019-12-10T13:27:44Z</time>
      </trkpt>
      <trkpt lat="43.52048" lon="6.76224">
        <ele>56.9</ele>
        <time>2019-12-10T13:27:46Z</time>
      </trkpt>
      <trkpt lat="43.52052" lon="6.76231">
        <ele>56.9</ele>
        <time>2019-12-10T13:27:48Z</time>
      </trkpt>
      <trkpt lat="43.52055" lon="6.76238">
        <ele>56.9</ele>
        <time>2019-12-10T13:27:50Z</time>
      </trkpt>
      <trkpt lat="43.52059" lon="6.76245">
        <ele>56.4</ele>
        <time>2019-12-10T13:27:52Z</time>
      </trkpt>
      <trkpt lat="43.52062" lon="6.76251">
        <ele>56.9</ele>
        <time>2019-12-10T13:27:54Z</time>
      </trkpt>
      <trkpt lat="43.52065" lon="6.76257">
        <ele>56.4</ele>
        <time>2019-12-10T13:27:56Z</time>
      </trkpt>
      <trkpt lat="43.52068" lon="6.76263">
        <ele>56.4</ele>
        <time>2019-12-10T13:27:58Z</time>
      </trkpt>
      <trkpt lat="43.52072" lon="6.7627">
        <ele>56.9</ele>
        <time>2019-12-10T13:28:00Z</time>
      </trkpt>
      <trkpt lat="43.52075" lon="6.76277">
        <ele>56.9</ele>
        <time>2019-12-10T13:28:02Z</time>
      </trkpt>
      <trkpt lat="43.52078" lon="6.76283">
        <ele>56.9</ele>
        <time>2019-12-10T13:28:04Z</time>
      </trkpt>
      <trkpt lat="43.52081" lon="6.76289">
        <ele>56.4</ele>
        <time>2019-12-10T13:28:06Z</time>
      </trkpt>
      <trkpt lat="43.52084" lon="6.76296">
        <ele>56.4</ele>
        <time>2019-12-10T13:28:08Z</time>
      </trkpt>
      <trkpt lat="43.52087" lon="6.76303">
        <ele>56.4</ele>
        <time>2019-12-10T13:28:10Z</time>
      </trkpt>
      <trkpt lat="43.5209" lon="6.7631">
        <ele>56.4</ele>
        <time>2019-12-10T13:28:12Z</time>
      </trkpt>
      <trkpt lat="43.52093" lon="6.76316">
        <ele>56.4</ele>
        <time>2019-12-10T13:28:14Z</time>
      </trkpt>
      <trkpt lat="43.52096" lon="6.76322">
        <ele>56.4</ele>
        <time>2019-12-10T13:28:16Z</time>
      </trkpt>
      <trkpt lat="43.52099" lon="6.76329">
        <ele>56.4</ele>
        <time>2019-12-10T13:28:18Z</time>
      </trkpt>
      <trkpt lat="43.52103" lon="6.76337">
        <ele>56.4</ele>
        <time>2019-12-10T13:28:20Z</time>
      </trkpt>
      <trkpt lat="43.52106" lon="6.76345">
        <ele>55.9</ele>
        <time>2019-12-10T13:28:22Z</time>
      </trkpt>
      <trkpt lat="43.52109" lon="6.76352">
        <ele>55.9</ele>
        <time>2019-12-10T13:28:24Z</time>
      </trkpt>
      <trkpt lat="43.52114" lon="6.76357">
        <ele>55.9</ele>
        <time>2019-12-10T13:28:26Z</time>
      </trkpt>
      <trkpt lat="43.52117" lon="6.76362">
        <ele>55.4</ele>
        <time>2019-12-10T13:28:28Z</time>
      </trkpt>
      <trkpt lat="43.5212" lon="6.76366">
        <ele>55.4</ele>
        <time>2019-12-10T13:28:30Z</time>
      </trkpt>
      <trkpt lat="43.52123" lon="6.76372">
        <ele>55.4</ele>
        <time>2019-12-10T13:28:32Z</time>
      </trkpt>
      <trkpt lat="43.52127" lon="6.76378">
        <ele>54.9</ele>
        <time>2019-12-10T13:28:34Z</time>
      </trkpt>
      <trkpt lat="43.5213" lon="6.76384">
        <ele>54.9</ele>
        <time>2019-12-10T13:28:36Z</time>
      </trkpt>
      <trkpt lat="43.52133" lon="6.7639">
        <ele>54.5</ele>
        <time>2019-12-10T13:28:38Z</time>
      </trkpt>
      <trkpt lat="43.52135" lon="6.76393">
        <ele>54.5</ele>
        <time>2019-12-10T13:28:40Z</time>
      </trkpt>
      <trkpt lat="43.52139" lon="6.76397">
        <ele>54.9</ele>
        <time>2019-12-10T13:28:42Z</time>
      </trkpt>
      <trkpt lat="43.52143" lon="6.76401">
        <ele>54.9</ele>
        <time>2019-12-10T13:28:44Z</time>
      </trkpt>
      <trkpt lat="43.52146" lon="6.76404">
        <ele>54.9</ele>
        <time>2019-12-10T13:28:46Z</time>
      </trkpt>
      <trkpt lat="43.52148" lon="6.76408">
        <ele>55.4</ele>
        <time>2019-12-10T13:28:48Z</time>
      </trkpt>
      <trkpt lat="43.5215" lon="6.76413">
        <ele>54.9</ele>
        <time>2019-12-10T13:28:50Z</time>
      </trkpt>
      <trkpt lat="43.52153" lon="6.76419">
        <ele>54.9</ele>
        <time>2019-12-10T13:28:52Z</time>
      </trkpt>
      <trkpt lat="43.52155" lon="6.76424">
        <ele>54.5</ele>
        <time>2019-12-10T13:28:54Z</time>
      </trkpt>
      <trkpt lat="43.52156" lon="6.76429">
        <ele>54.5</ele>
        <time>2019-12-10T13:28:56Z</time>
      </trkpt>
      <trkpt lat="43.52158" lon="6.76436">
        <ele>54</ele>
        <time>2019-12-10T13:28:58Z</time>
      </trkpt>
      <trkpt lat="43.52161" lon="6.76442">
        <ele>53.5</ele>
        <time>2019-12-10T13:29:00Z</time>
      </trkpt>
      <trkpt lat="43.52164" lon="6.76448">
        <ele>53.5</ele>
        <time>2019-12-10T13:29:02Z</time>
      </trkpt>
      <trkpt lat="43.52167" lon="6.76454">
        <ele>53</ele>
        <time>2019-12-10T13:29:04Z</time>
      </trkpt>
      <trkpt lat="43.52171" lon="6.76458">
        <ele>53</ele>
        <time>2019-12-10T13:29:06Z</time>
      </trkpt>
      <trkpt lat="43.52175" lon="6.76463">
        <ele>52.5</ele>
        <time>2019-12-10T13:29:08Z</time>
      </trkpt>
      <trkpt lat="43.52178" lon="6.76469">
        <ele>52</ele>
        <time>2019-12-10T13:29:10Z</time>
      </trkpt>
      <trkpt lat="43.52182" lon="6.76474">
        <ele>51.6</ele>
        <time>2019-12-10T13:29:12Z</time>
      </trkpt>
      <trkpt lat="43.52185" lon="6.76478">
        <ele>51.1</ele>
        <time>2019-12-10T13:29:14Z</time>
      </trkpt>
      <trkpt lat="43.52188" lon="6.76481">
        <ele>50.6</ele>
        <time>2019-12-10T13:29:16Z</time>
      </trkpt>
      <trkpt lat="43.5219" lon="6.76482">
        <ele>50.1</ele>
        <time>2019-12-10T13:29:18Z</time>
      </trkpt>
      <trkpt lat="43.5219" lon="6.76483">
        <ele>49.6</ele>
        <time>2019-12-10T13:29:20Z</time>
      </trkpt>
      <trkpt lat="43.5219" lon="6.76481">
        <ele>49.2</ele>
        <time>2019-12-10T13:29:22Z</time>
      </trkpt>
      <trkpt lat="43.5219" lon="6.76481">
        <ele>48.7</ele>
        <time>2019-12-10T13:29:24Z</time>
      </trkpt>
      <trkpt lat="43.5219" lon="6.76481">
        <ele>48.7</ele>
        <time>2019-12-10T13:29:26Z</time>
      </trkpt>
      <trkpt lat="43.5219" lon="6.76481">
        <ele>48.7</ele>
        <time>2019-12-10T13:29:28Z</time>
      </trkpt>
      <trkpt lat="43.5219" lon="6.76481">
        <ele>48.7</ele>
        <time>2019-12-10T13:29:30Z</time>
      </trkpt>
      <trkpt lat="43.5219" lon="6.76481">
        <ele>48.7</ele>
        <time>2019-12-10T13:29:32Z</time>
      </trkpt>
      <trkpt lat="43.5219" lon="6.76481">
        <ele>48.7</ele>
        <time>2019-12-10T13:29:34Z</time>
      </trkpt>
      <trkpt lat="43.5219" lon="6.76481">
        <ele>48.7</ele>
        <time>2019-12-10T13:29:36Z</time>
      </trkpt>
      <trkpt lat="43.5219" lon="6.76481">
        <ele>48.7</ele>
        <time>2019-12-10T13:29:38Z</time>
      </trkpt>
      <trkpt lat="43.5219" lon="6.76481">
        <ele>48.7</ele>
        <time>2019-12-10T13:29:40Z</time>
      </trkpt>
      <trkpt lat="43.5219" lon="6.76481">
        <ele>48.7</ele>
        <time>2019-12-10T13:29:42Z</time>
      </trkpt>
      <trkpt lat="43.52191" lon="6.76484">
        <ele>48.7</ele>
        <time>2019-12-10T13:29:44Z</time>
      </trkpt>
      <trkpt lat="43.52195" lon="6.7649">
        <ele>48.7</ele>
        <time>2019-12-10T13:29:46Z</time>
      </trkpt>
      <trkpt lat="43.52198" lon="6.76497">
        <ele>48.2</ele>
        <time>2019-12-10T13:29:48Z</time>
      </trkpt>
      <trkpt lat="43.522" lon="6.76502">
        <ele>48.2</ele>
        <time>2019-12-10T13:29:50Z</time>
      </trkpt>
      <trkpt lat="43.52203" lon="6.76508">
        <ele>48.2</ele>
        <time>2019-12-10T13:29:52Z</time>
      </trkpt>
      <trkpt lat="43.52206" lon="6.76513">
        <ele>47.7</ele>
        <time>2019-12-10T13:29:54Z</time>
      </trkpt>
      <trkpt lat="43.52211" lon="6.76517">
        <ele>47.2</ele>
        <time>2019-12-10T13:29:56Z</time>
      </trkpt>
      <trkpt lat="43.52214" lon="6.76523">
        <ele>46.8</ele>
        <time>2019-12-10T13:29:58Z</time>
      </trkpt>
      <trkpt lat="43.52218" lon="6.7653">
        <ele>46.3</ele>
        <time>2019-12-10T13:30:00Z</time>
      </trkpt>
      <trkpt lat="43.52222" lon="6.76536">
        <ele>45.8</ele>
        <time>2019-12-10T13:30:02Z</time>
      </trkpt>
      <trkpt lat="43.52225" lon="6.76543">
        <ele>45.3</ele>
        <time>2019-12-10T13:30:04Z</time>
      </trkpt>
      <trkpt lat="43.52229" lon="6.7655">
        <ele>44.8</ele>
        <time>2019-12-10T13:30:06Z</time>
      </trkpt>
      <trkpt lat="43.52233" lon="6.76556">
        <ele>44.8</ele>
        <time>2019-12-10T13:30:08Z</time>
      </trkpt>
      <trkpt lat="43.52236" lon="6.76562">
        <ele>44.8</ele>
        <time>2019-12-10T13:30:10Z</time>
      </trkpt>
      <trkpt lat="43.5224" lon="6.76569">
        <ele>44.4</ele>
        <time>2019-12-10T13:30:12Z</time>
      </trkpt>
      <trkpt lat="43.52244" lon="6.76575">
        <ele>44.4</ele>
        <time>2019-12-10T13:30:14Z</time>
      </trkpt>
      <trkpt lat="43.52248" lon="6.76582">
        <ele>43.4</ele>
        <time>2019-12-10T13:30:16Z</time>
      </trkpt>
      <trkpt lat="43.52253" lon="6.76588">
        <ele>43.4</ele>
        <time>2019-12-10T13:30:18Z</time>
      </trkpt>
      <trkpt lat="43.52256" lon="6.76595">
        <ele>42.9</ele>
        <time>2019-12-10T13:30:20Z</time>
      </trkpt>
      <trkpt lat="43.5226" lon="6.76603">
        <ele>42.4</ele>
        <time>2019-12-10T13:30:22Z</time>
      </trkpt>
      <trkpt lat="43.52264" lon="6.7661">
        <ele>42.4</ele>
        <time>2019-12-10T13:30:24Z</time>
      </trkpt>
      <trkpt lat="43.52268" lon="6.76617">
        <ele>42</ele>
        <time>2019-12-10T13:30:26Z</time>
      </trkpt>
      <trkpt lat="43.52272" lon="6.76624">
        <ele>41.5</ele>
        <time>2019-12-10T13:30:28Z</time>
      </trkpt>
      <trkpt lat="43.52277" lon="6.7663">
        <ele>41.5</ele>
        <time>2019-12-10T13:30:30Z</time>
      </trkpt>
      <trkpt lat="43.52282" lon="6.76636">
        <ele>41</ele>
        <time>2019-12-10T13:30:32Z</time>
      </trkpt>
      <trkpt lat="43.52286" lon="6.76641">
        <ele>40.5</ele>
        <time>2019-12-10T13:30:34Z</time>
      </trkpt>
      <trkpt lat="43.52291" lon="6.76646">
        <ele>40</ele>
        <time>2019-12-10T13:30:36Z</time>
      </trkpt>
      <trkpt lat="43.52296" lon="6.76651">
        <ele>40</ele>
        <time>2019-12-10T13:30:38Z</time>
      </trkpt>
      <trkpt lat="43.52301" lon="6.76655">
        <ele>40</ele>
        <time>2019-12-10T13:30:40Z</time>
      </trkpt>
      <trkpt lat="43.52306" lon="6.76658">
        <ele>39.6</ele>
        <time>2019-12-10T13:30:42Z</time>
      </trkpt>
      <trkpt lat="43.52311" lon="6.76661">
        <ele>39.1</ele>
        <time>2019-12-10T13:30:44Z</time>
      </trkpt>
      <trkpt lat="43.52316" lon="6.76665">
        <ele>38.6</ele>
        <time>2019-12-10T13:30:46Z</time>
      </trkpt>
      <trkpt lat="43.52322" lon="6.76669">
        <ele>38.1</ele>
        <time>2019-12-10T13:30:48Z</time>
      </trkpt>
      <trkpt lat="43.52327" lon="6.76675">
        <ele>38.1</ele>
        <time>2019-12-10T13:30:50Z</time>
      </trkpt>
      <trkpt lat="43.52332" lon="6.76682">
        <ele>38.1</ele>
        <time>2019-12-10T13:30:52Z</time>
      </trkpt>
      <trkpt lat="43.52337" lon="6.76688">
        <ele>38.1</ele>
        <time>2019-12-10T13:30:54Z</time>
      </trkpt>
      <trkpt lat="43.52342" lon="6.76691">
        <ele>37.1</ele>
        <time>2019-12-10T13:30:56Z</time>
      </trkpt>
      <trkpt lat="43.52348" lon="6.76695">
        <ele>37.1</ele>
        <time>2019-12-10T13:30:58Z</time>
      </trkpt>
      <trkpt lat="43.52352" lon="6.76699">
        <ele>36.7</ele>
        <time>2019-12-10T13:31:00Z</time>
      </trkpt>
      <trkpt lat="43.52357" lon="6.76703">
        <ele>36.2</ele>
        <time>2019-12-10T13:31:02Z</time>
      </trkpt>
      <trkpt lat="43.52362" lon="6.76706">
        <ele>35.2</ele>
        <time>2019-12-10T13:31:04Z</time>
      </trkpt>
      <trkpt lat="43.52367" lon="6.7671">
        <ele>35.2</ele>
        <time>2019-12-10T13:31:06Z</time>
      </trkpt>
      <trkpt lat="43.52372" lon="6.76715">
        <ele>34.7</ele>
        <time>2019-12-10T13:31:08Z</time>
      </trkpt>
      <trkpt lat="43.52378" lon="6.76718">
        <ele>34.3</ele>
        <time>2019-12-10T13:31:10Z</time>
      </trkpt>
      <trkpt lat="43.52383" lon="6.76723">
        <ele>33.8</ele>
        <time>2019-12-10T13:31:12Z</time>
      </trkpt>
      <trkpt lat="43.52388" lon="6.76727">
        <ele>33.8</ele>
        <time>2019-12-10T13:31:14Z</time>
      </trkpt>
      <trkpt lat="43.52394" lon="6.7673">
        <ele>33.3</ele>
        <time>2019-12-10T13:31:16Z</time>
      </trkpt>
      <trkpt lat="43.524" lon="6.76733">
        <ele>33.3</ele>
        <time>2019-12-10T13:31:18Z</time>
      </trkpt>
      <trkpt lat="43.52405" lon="6.76733">
        <ele>32.3</ele>
        <time>2019-12-10T13:31:20Z</time>
      </trkpt>
      <trkpt lat="43.5241" lon="6.76735">
        <ele>31.9</ele>
        <time>2019-12-10T13:31:22Z</time>
      </trkpt>
      <trkpt lat="43.52415" lon="6.76739">
        <ele>30.9</ele>
        <time>2019-12-10T13:31:24Z</time>
      </trkpt>
      <trkpt lat="43.52421" lon="6.76743">
        <ele>29.9</ele>
        <time>2019-12-10T13:31:26Z</time>
      </trkpt>
      <trkpt lat="43.52427" lon="6.76745">
        <ele>29.5</ele>
        <time>2019-12-10T13:31:28Z</time>
      </trkpt>
      <trkpt lat="43.52433" lon="6.76748">
        <ele>28.5</ele>
        <time>2019-12-10T13:31:30Z</time>
      </trkpt>
      <trkpt lat="43.52438" lon="6.76754">
        <ele>28</ele>
        <time>2019-12-10T13:31:32Z</time>
      </trkpt>
      <trkpt lat="43.52445" lon="6.76756">
        <ele>27.1</ele>
        <time>2019-12-10T13:31:34Z</time>
      </trkpt>
      <trkpt lat="43.52452" lon="6.76759">
        <ele>26.6</ele>
        <time>2019-12-10T13:31:36Z</time>
      </trkpt>
      <trkpt lat="43.52458" lon="6.76764">
        <ele>26.6</ele>
        <time>2019-12-10T13:31:38Z</time>
      </trkpt>
      <trkpt lat="43.52465" lon="6.76765">
        <ele>25.6</ele>
        <time>2019-12-10T13:31:40Z</time>
      </trkpt>
      <trkpt lat="43.52472" lon="6.76768">
        <ele>25.1</ele>
        <time>2019-12-10T13:31:42Z</time>
      </trkpt>
      <trkpt lat="43.52478" lon="6.76773">
        <ele>25.1</ele>
        <time>2019-12-10T13:31:44Z</time>
      </trkpt>
      <trkpt lat="43.52484" lon="6.76778">
        <ele>24.7</ele>
        <time>2019-12-10T13:31:46Z</time>
      </trkpt>
      <trkpt lat="43.5249" lon="6.76782">
        <ele>24.2</ele>
        <time>2019-12-10T13:31:48Z</time>
      </trkpt>
      <trkpt lat="43.52496" lon="6.76789">
        <ele>24.2</ele>
        <time>2019-12-10T13:31:50Z</time>
      </trkpt>
      <trkpt lat="43.52502" lon="6.76799">
        <ele>24.7</ele>
        <time>2019-12-10T13:31:52Z</time>
      </trkpt>
      <trkpt lat="43.52507" lon="6.76812">
        <ele>26.6</ele>
        <time>2019-12-10T13:31:54Z</time>
      </trkpt>
      <trkpt lat="43.5251" lon="6.76821">
        <ele>28.5</ele>
        <time>2019-12-10T13:31:56Z</time>
      </trkpt>
      <trkpt lat="43.52512" lon="6.76829">
        <ele>29.5</ele>
        <time>2019-12-10T13:31:58Z</time>
      </trkpt>
      <trkpt lat="43.52516" lon="6.76837">
        <ele>30.4</ele>
        <time>2019-12-10T13:32:00Z</time>
      </trkpt>
      <trkpt lat="43.52519" lon="6.76845">
        <ele>30.4</ele>
        <time>2019-12-10T13:32:02Z</time>
      </trkpt>
      <trkpt lat="43.52523" lon="6.76852">
        <ele>30.9</ele>
        <time>2019-12-10T13:32:04Z</time>
      </trkpt>
      <trkpt lat="43.52527" lon="6.76859">
        <ele>31.4</ele>
        <time>2019-12-10T13:32:06Z</time>
      </trkpt>
      <trkpt lat="43.52531" lon="6.76865">
        <ele>31.4</ele>
        <time>2019-12-10T13:32:08Z</time>
      </trkpt>
      <trkpt lat="43.52535" lon="6.76872">
        <ele>31.9</ele>
        <time>2019-12-10T13:32:10Z</time>
      </trkpt>
      <trkpt lat="43.52538" lon="6.7688">
        <ele>32.8</ele>
        <time>2019-12-10T13:32:12Z</time>
      </trkpt>
      <trkpt lat="43.52542" lon="6.76888">
        <ele>33.3</ele>
        <time>2019-12-10T13:32:14Z</time>
      </trkpt>
      <trkpt lat="43.52546" lon="6.76894">
        <ele>33.8</ele>
        <time>2019-12-10T13:32:16Z</time>
      </trkpt>
      <trkpt lat="43.5255" lon="6.76901">
        <ele>34.3</ele>
        <time>2019-12-10T13:32:18Z</time>
      </trkpt>
      <trkpt lat="43.52554" lon="6.76909">
        <ele>35.2</ele>
        <time>2019-12-10T13:32:20Z</time>
      </trkpt>
      <trkpt lat="43.52559" lon="6.76916">
        <ele>35.2</ele>
        <time>2019-12-10T13:32:22Z</time>
      </trkpt>
      <trkpt lat="43.52562" lon="6.76923">
        <ele>36.2</ele>
        <time>2019-12-10T13:32:24Z</time>
      </trkpt>
      <trkpt lat="43.52565" lon="6.76929">
        <ele>36.7</ele>
        <time>2019-12-10T13:32:26Z</time>
      </trkpt>
      <trkpt lat="43.52569" lon="6.76935">
        <ele>37.1</ele>
        <time>2019-12-10T13:32:28Z</time>
      </trkpt>
      <trkpt lat="43.52574" lon="6.76942">
        <ele>37.6</ele>
        <time>2019-12-10T13:32:30Z</time>
      </trkpt>
      <trkpt lat="43.52578" lon="6.76948">
        <ele>38.1</ele>
        <time>2019-12-10T13:32:32Z</time>
      </trkpt>
      <trkpt lat="43.52581" lon="6.76955">
        <ele>38.6</ele>
        <time>2019-12-10T13:32:34Z</time>
      </trkpt>
      <trkpt lat="43.52585" lon="6.76962">
        <ele>39.1</ele>
        <time>2019-12-10T13:32:36Z</time>
      </trkpt>
      <trkpt lat="43.52588" lon="6.76969">
        <ele>39.6</ele>
        <time>2019-12-10T13:32:38Z</time>
      </trkpt>
      <trkpt lat="43.52593" lon="6.76975">
        <ele>40.5</ele>
        <time>2019-12-10T13:32:40Z</time>
      </trkpt>
      <trkpt lat="43.52597" lon="6.76981">
        <ele>41.5</ele>
        <time>2019-12-10T13:32:42Z</time>
      </trkpt>
      <trkpt lat="43.52601" lon="6.76989">
        <ele>42</ele>
        <time>2019-12-10T13:32:44Z</time>
      </trkpt>
      <trkpt lat="43.52604" lon="6.76995">
        <ele>42.4</ele>
        <time>2019-12-10T13:32:46Z</time>
      </trkpt>
      <trkpt lat="43.52607" lon="6.77001">
        <ele>43.4</ele>
        <time>2019-12-10T13:32:48Z</time>
      </trkpt>
      <trkpt lat="43.5261" lon="6.77007">
        <ele>44.4</ele>
        <time>2019-12-10T13:32:50Z</time>
      </trkpt>
      <trkpt lat="43.52614" lon="6.77014">
        <ele>45.3</ele>
        <time>2019-12-10T13:32:52Z</time>
      </trkpt>
      <trkpt lat="43.52617" lon="6.7702">
        <ele>46.8</ele>
        <time>2019-12-10T13:32:54Z</time>
      </trkpt>
      <trkpt lat="43.52621" lon="6.77027">
        <ele>47.7</ele>
        <time>2019-12-10T13:32:56Z</time>
      </trkpt>
      <trkpt lat="43.52624" lon="6.77033">
        <ele>48.7</ele>
        <time>2019-12-10T13:32:58Z</time>
      </trkpt>
      <trkpt lat="43.52628" lon="6.7704">
        <ele>49.6</ele>
        <time>2019-12-10T13:33:00Z</time>
      </trkpt>
      <trkpt lat="43.52631" lon="6.77047">
        <ele>50.6</ele>
        <time>2019-12-10T13:33:02Z</time>
      </trkpt>
      <trkpt lat="43.52635" lon="6.77053">
        <ele>51.1</ele>
        <time>2019-12-10T13:33:04Z</time>
      </trkpt>
      <trkpt lat="43.52639" lon="6.77058">
        <ele>51.6</ele>
        <time>2019-12-10T13:33:06Z</time>
      </trkpt>
      <trkpt lat="43.52642" lon="6.77064">
        <ele>52</ele>
        <time>2019-12-10T13:33:08Z</time>
      </trkpt>
      <trkpt lat="43.52645" lon="6.7707">
        <ele>53</ele>
        <time>2019-12-10T13:33:10Z</time>
      </trkpt>
      <trkpt lat="43.52649" lon="6.77076">
        <ele>53.5</ele>
        <time>2019-12-10T13:33:12Z</time>
      </trkpt>
      <trkpt lat="43.52652" lon="6.77083">
        <ele>54.5</ele>
        <time>2019-12-10T13:33:14Z</time>
      </trkpt>
      <trkpt lat="43.52657" lon="6.77089">
        <ele>54.9</ele>
        <time>2019-12-10T13:33:16Z</time>
      </trkpt>
      <trkpt lat="43.52661" lon="6.77093">
        <ele>55.4</ele>
        <time>2019-12-10T13:33:18Z</time>
      </trkpt>
      <trkpt lat="43.52666" lon="6.77098">
        <ele>55.9</ele>
        <time>2019-12-10T13:33:20Z</time>
      </trkpt>
      <trkpt lat="43.5267" lon="6.77103">
        <ele>56.4</ele>
        <time>2019-12-10T13:33:22Z</time>
      </trkpt>
      <trkpt lat="43.52674" lon="6.77109">
        <ele>56.9</ele>
        <time>2019-12-10T13:33:24Z</time>
      </trkpt>
      <trkpt lat="43.52677" lon="6.77115">
        <ele>57.3</ele>
        <time>2019-12-10T13:33:26Z</time>
      </trkpt>
      <trkpt lat="43.52681" lon="6.77121">
        <ele>57.3</ele>
        <time>2019-12-10T13:33:28Z</time>
      </trkpt>
      <trkpt lat="43.52686" lon="6.77126">
        <ele>58.3</ele>
        <time>2019-12-10T13:33:30Z</time>
      </trkpt>
      <trkpt lat="43.5269" lon="6.77131">
        <ele>58.3</ele>
        <time>2019-12-10T13:33:32Z</time>
      </trkpt>
      <trkpt lat="43.52694" lon="6.77135">
        <ele>58.8</ele>
        <time>2019-12-10T13:33:34Z</time>
      </trkpt>
      <trkpt lat="43.52698" lon="6.77139">
        <ele>59.3</ele>
        <time>2019-12-10T13:33:36Z</time>
      </trkpt>
      <trkpt lat="43.52704" lon="6.77143">
        <ele>59.3</ele>
        <time>2019-12-10T13:33:38Z</time>
      </trkpt>
      <trkpt lat="43.52709" lon="6.77147">
        <ele>59.3</ele>
        <time>2019-12-10T13:33:40Z</time>
      </trkpt>
      <trkpt lat="43.52714" lon="6.77152">
        <ele>59.3</ele>
        <time>2019-12-10T13:33:42Z</time>
      </trkpt>
      <trkpt lat="43.52719" lon="6.77156">
        <ele>59.3</ele>
        <time>2019-12-10T13:33:44Z</time>
      </trkpt>
      <trkpt lat="43.52726" lon="6.77157">
        <ele>59.3</ele>
        <time>2019-12-10T13:33:46Z</time>
      </trkpt>
      <trkpt lat="43.52731" lon="6.77159">
        <ele>59.3</ele>
        <time>2019-12-10T13:33:48Z</time>
      </trkpt>
      <trkpt lat="43.52737" lon="6.77163">
        <ele>58.8</ele>
        <time>2019-12-10T13:33:50Z</time>
      </trkpt>
      <trkpt lat="43.52743" lon="6.77167">
        <ele>58.8</ele>
        <time>2019-12-10T13:33:52Z</time>
      </trkpt>
      <trkpt lat="43.52749" lon="6.77172">
        <ele>58.8</ele>
        <time>2019-12-10T13:33:54Z</time>
      </trkpt>
      <trkpt lat="43.52755" lon="6.77175">
        <ele>58.8</ele>
        <time>2019-12-10T13:33:56Z</time>
      </trkpt>
      <trkpt lat="43.52761" lon="6.77178">
        <ele>58.3</ele>
        <time>2019-12-10T13:33:58Z</time>
      </trkpt>
      <trkpt lat="43.52767" lon="6.7718">
        <ele>58.3</ele>
        <time>2019-12-10T13:34:00Z</time>
      </trkpt>
      <trkpt lat="43.52772" lon="6.77183">
        <ele>58.3</ele>
        <time>2019-12-10T13:34:02Z</time>
      </trkpt>
      <trkpt lat="43.52778" lon="6.77186">
        <ele>58.3</ele>
        <time>2019-12-10T13:34:04Z</time>
      </trkpt>
      <trkpt lat="43.52784" lon="6.77189">
        <ele>57.8</ele>
        <time>2019-12-10T13:34:06Z</time>
      </trkpt>
      <trkpt lat="43.5279" lon="6.77193">
        <ele>57.8</ele>
        <time>2019-12-10T13:34:08Z</time>
      </trkpt>
      <trkpt lat="43.52795" lon="6.77196">
        <ele>57.8</ele>
        <time>2019-12-10T13:34:10Z</time>
      </trkpt>
      <trkpt lat="43.528" lon="6.77199">
        <ele>57.8</ele>
        <time>2019-12-10T13:34:12Z</time>
      </trkpt>
      <trkpt lat="43.52805" lon="6.77201">
        <ele>57.3</ele>
        <time>2019-12-10T13:34:14Z</time>
      </trkpt>
      <trkpt lat="43.5281" lon="6.77203">
        <ele>56.9</ele>
        <time>2019-12-10T13:34:16Z</time>
      </trkpt>
      <trkpt lat="43.52816" lon="6.77204">
        <ele>56.9</ele>
        <time>2019-12-10T13:34:18Z</time>
      </trkpt>
      <trkpt lat="43.52823" lon="6.77204">
        <ele>56.4</ele>
        <time>2019-12-10T13:34:20Z</time>
      </trkpt>
      <trkpt lat="43.5283" lon="6.77205">
        <ele>55.9</ele>
        <time>2019-12-10T13:34:22Z</time>
      </trkpt>
      <trkpt lat="43.52838" lon="6.77206">
        <ele>55.4</ele>
        <time>2019-12-10T13:34:24Z</time>
      </trkpt>
      <trkpt lat="43.52846" lon="6.77206">
        <ele>54.5</ele>
        <time>2019-12-10T13:34:26Z</time>
      </trkpt>
      <trkpt lat="43.52853" lon="6.77208">
        <ele>54</ele>
        <time>2019-12-10T13:34:28Z</time>
      </trkpt>
      <trkpt lat="43.52858" lon="6.7721">
        <ele>54</ele>
        <time>2019-12-10T13:34:30Z</time>
      </trkpt>
      <trkpt lat="43.52862" lon="6.77213">
        <ele>53.5</ele>
        <time>2019-12-10T13:34:32Z</time>
      </trkpt>
      <trkpt lat="43.52866" lon="6.77216">
        <ele>53</ele>
        <time>2019-12-10T13:34:34Z</time>
      </trkpt>
      <trkpt lat="43.52871" lon="6.77217">
        <ele>53</ele>
        <time>2019-12-10T13:34:36Z</time>
      </trkpt>
      <trkpt lat="43.52878" lon="6.77219">
        <ele>53</ele>
        <time>2019-12-10T13:34:38Z</time>
      </trkpt>
      <trkpt lat="43.52884" lon="6.77221">
        <ele>53.5</ele>
        <time>2019-12-10T13:34:40Z</time>
      </trkpt>
      <trkpt lat="43.5289" lon="6.77221">
        <ele>53</ele>
        <time>2019-12-10T13:34:42Z</time>
      </trkpt>
      <trkpt lat="43.52897" lon="6.7722">
        <ele>53</ele>
        <time>2019-12-10T13:34:44Z</time>
      </trkpt>
      <trkpt lat="43.52904" lon="6.77218">
        <ele>53</ele>
        <time>2019-12-10T13:34:46Z</time>
      </trkpt>
      <trkpt lat="43.5291" lon="6.77216">
        <ele>52.5</ele>
        <time>2019-12-10T13:34:48Z</time>
      </trkpt>
      <trkpt lat="43.52915" lon="6.77216">
        <ele>52.5</ele>
        <time>2019-12-10T13:34:50Z</time>
      </trkpt>
      <trkpt lat="43.52921" lon="6.77217">
        <ele>52.5</ele>
        <time>2019-12-10T13:34:52Z</time>
      </trkpt>
      <trkpt lat="43.52926" lon="6.77221">
        <ele>54</ele>
        <time>2019-12-10T13:34:54Z</time>
      </trkpt>
      <trkpt lat="43.52931" lon="6.77225">
        <ele>54</ele>
        <time>2019-12-10T13:34:56Z</time>
      </trkpt>
      <trkpt lat="43.52936" lon="6.7723">
        <ele>54.5</ele>
        <time>2019-12-10T13:34:58Z</time>
      </trkpt>
      <trkpt lat="43.52941" lon="6.77235">
        <ele>54.9</ele>
        <time>2019-12-10T13:35:00Z</time>
      </trkpt>
      <trkpt lat="43.52946" lon="6.77241">
        <ele>55.9</ele>
        <time>2019-12-10T13:35:02Z</time>
      </trkpt>
      <trkpt lat="43.52951" lon="6.77244">
        <ele>55.9</ele>
        <time>2019-12-10T13:35:04Z</time>
      </trkpt>
      <trkpt lat="43.52956" lon="6.77249">
        <ele>56.4</ele>
        <time>2019-12-10T13:35:06Z</time>
      </trkpt>
      <trkpt lat="43.52962" lon="6.77254">
        <ele>55.9</ele>
        <time>2019-12-10T13:35:08Z</time>
      </trkpt>
      <trkpt lat="43.52967" lon="6.77258">
        <ele>56.4</ele>
        <time>2019-12-10T13:35:10Z</time>
      </trkpt>
      <trkpt lat="43.52973" lon="6.77263">
        <ele>56.9</ele>
        <time>2019-12-10T13:35:12Z</time>
      </trkpt>
      <trkpt lat="43.52978" lon="6.77268">
        <ele>57.3</ele>
        <time>2019-12-10T13:35:14Z</time>
      </trkpt>
      <trkpt lat="43.52984" lon="6.77272">
        <ele>57.3</ele>
        <time>2019-12-10T13:35:16Z</time>
      </trkpt>
      <trkpt lat="43.5299" lon="6.77275">
        <ele>57.3</ele>
        <time>2019-12-10T13:35:18Z</time>
      </trkpt>
      <trkpt lat="43.52996" lon="6.77278">
        <ele>57.3</ele>
        <time>2019-12-10T13:35:20Z</time>
      </trkpt>
      <trkpt lat="43.53001" lon="6.77281">
        <ele>56.9</ele>
        <time>2019-12-10T13:35:22Z</time>
      </trkpt>
      <trkpt lat="43.53008" lon="6.77282">
        <ele>56.4</ele>
        <time>2019-12-10T13:35:24Z</time>
      </trkpt>
      <trkpt lat="43.53015" lon="6.77283">
        <ele>55.4</ele>
        <time>2019-12-10T13:35:26Z</time>
      </trkpt>
      <trkpt lat="43.53022" lon="6.77283">
        <ele>54.5</ele>
        <time>2019-12-10T13:35:28Z</time>
      </trkpt>
      <trkpt lat="43.53029" lon="6.77281">
        <ele>53.5</ele>
        <time>2019-12-10T13:35:30Z</time>
      </trkpt>
      <trkpt lat="43.53035" lon="6.77279">
        <ele>52.5</ele>
        <time>2019-12-10T13:35:32Z</time>
      </trkpt>
      <trkpt lat="43.53041" lon="6.77278">
        <ele>52</ele>
        <time>2019-12-10T13:35:34Z</time>
      </trkpt>
      <trkpt lat="43.53047" lon="6.77277">
        <ele>50.6</ele>
        <time>2019-12-10T13:35:36Z</time>
      </trkpt>
      <trkpt lat="43.53054" lon="6.77276">
        <ele>50.1</ele>
        <time>2019-12-10T13:35:38Z</time>
      </trkpt>
      <trkpt lat="43.5306" lon="6.77275">
        <ele>49.6</ele>
        <time>2019-12-10T13:35:40Z</time>
      </trkpt>
      <trkpt lat="43.53065" lon="6.77275">
        <ele>49.6</ele>
        <time>2019-12-10T13:35:42Z</time>
      </trkpt>
      <trkpt lat="43.53071" lon="6.77274">
        <ele>48.7</ele>
        <time>2019-12-10T13:35:44Z</time>
      </trkpt>
      <trkpt lat="43.53077" lon="6.77272">
        <ele>48.2</ele>
        <time>2019-12-10T13:35:46Z</time>
      </trkpt>
      <trkpt lat="43.53084" lon="6.77272">
        <ele>48.2</ele>
        <time>2019-12-10T13:35:48Z</time>
      </trkpt>
      <trkpt lat="43.5309" lon="6.77274">
        <ele>47.2</ele>
        <time>2019-12-10T13:35:50Z</time>
      </trkpt>
      <trkpt lat="43.53097" lon="6.77275">
        <ele>46.8</ele>
        <time>2019-12-10T13:35:52Z</time>
      </trkpt>
      <trkpt lat="43.53104" lon="6.77272">
        <ele>46.3</ele>
        <time>2019-12-10T13:35:54Z</time>
      </trkpt>
      <trkpt lat="43.5311" lon="6.77271">
        <ele>45.8</ele>
        <time>2019-12-10T13:35:56Z</time>
      </trkpt>
      <trkpt lat="43.53116" lon="6.7727">
        <ele>45.8</ele>
        <time>2019-12-10T13:35:58Z</time>
      </trkpt>
      <trkpt lat="43.53121" lon="6.77275">
        <ele>47.7</ele>
        <time>2019-12-10T13:36:00Z</time>
      </trkpt>
      <trkpt lat="43.53126" lon="6.77274">
        <ele>47.7</ele>
        <time>2019-12-10T13:36:02Z</time>
      </trkpt>
      <trkpt lat="43.53131" lon="6.77274">
        <ele>48.2</ele>
        <time>2019-12-10T13:36:04Z</time>
      </trkpt>
      <trkpt lat="43.53138" lon="6.77275">
        <ele>48.2</ele>
        <time>2019-12-10T13:36:06Z</time>
      </trkpt>
      <trkpt lat="43.53144" lon="6.77274">
        <ele>48.2</ele>
        <time>2019-12-10T13:36:08Z</time>
      </trkpt>
      <trkpt lat="43.53151" lon="6.77273">
        <ele>48.7</ele>
        <time>2019-12-10T13:36:10Z</time>
      </trkpt>
      <trkpt lat="43.53158" lon="6.77272">
        <ele>48.7</ele>
        <time>2019-12-10T13:36:12Z</time>
      </trkpt>
      <trkpt lat="43.53164" lon="6.77272">
        <ele>49.6</ele>
        <time>2019-12-10T13:36:14Z</time>
      </trkpt>
      <trkpt lat="43.5317" lon="6.77273">
        <ele>50.1</ele>
        <time>2019-12-10T13:36:16Z</time>
      </trkpt>
      <trkpt lat="43.53176" lon="6.77275">
        <ele>51.1</ele>
        <time>2019-12-10T13:36:18Z</time>
      </trkpt>
      <trkpt lat="43.53181" lon="6.77275">
        <ele>51.1</ele>
        <time>2019-12-10T13:36:20Z</time>
      </trkpt>
      <trkpt lat="43.53187" lon="6.77277">
        <ele>52</ele>
        <time>2019-12-10T13:36:22Z</time>
      </trkpt>
      <trkpt lat="43.53193" lon="6.77277">
        <ele>52</ele>
        <time>2019-12-10T13:36:24Z</time>
      </trkpt>
      <trkpt lat="43.53199" lon="6.77278">
        <ele>53</ele>
        <time>2019-12-10T13:36:26Z</time>
      </trkpt>
      <trkpt lat="43.53205" lon="6.77278">
        <ele>54</ele>
        <time>2019-12-10T13:36:28Z</time>
      </trkpt>
      <trkpt lat="43.5321" lon="6.77278">
        <ele>54.9</ele>
        <time>2019-12-10T13:36:30Z</time>
      </trkpt>
      <trkpt lat="43.53215" lon="6.77277">
        <ele>55.4</ele>
        <time>2019-12-10T13:36:32Z</time>
      </trkpt>
      <trkpt lat="43.53222" lon="6.77278">
        <ele>55.4</ele>
        <time>2019-12-10T13:36:34Z</time>
      </trkpt>
      <trkpt lat="43.53228" lon="6.77278">
        <ele>55.9</ele>
        <time>2019-12-10T13:36:36Z</time>
      </trkpt>
      <trkpt lat="43.53234" lon="6.77278">
        <ele>56.4</ele>
        <time>2019-12-10T13:36:38Z</time>
      </trkpt>
      <trkpt lat="43.53241" lon="6.77279">
        <ele>57.3</ele>
        <time>2019-12-10T13:36:40Z</time>
      </trkpt>
      <trkpt lat="43.53246" lon="6.77281">
        <ele>59.7</ele>
        <time>2019-12-10T13:36:42Z</time>
      </trkpt>
      <trkpt lat="43.53252" lon="6.77284">
        <ele>61.2</ele>
        <time>2019-12-10T13:36:44Z</time>
      </trkpt>
      <trkpt lat="43.53259" lon="6.77286">
        <ele>61.7</ele>
        <time>2019-12-10T13:36:46Z</time>
      </trkpt>
      <trkpt lat="43.53266" lon="6.77287">
        <ele>62.1</ele>
        <time>2019-12-10T13:36:48Z</time>
      </trkpt>
      <trkpt lat="43.53272" lon="6.77289">
        <ele>62.6</ele>
        <time>2019-12-10T13:36:50Z</time>
      </trkpt>
      <trkpt lat="43.53276" lon="6.77291">
        <ele>63.6</ele>
        <time>2019-12-10T13:36:52Z</time>
      </trkpt>
      <trkpt lat="43.53281" lon="6.77293">
        <ele>64.5</ele>
        <time>2019-12-10T13:36:54Z</time>
      </trkpt>
      <trkpt lat="43.53286" lon="6.77295">
        <ele>65.5</ele>
        <time>2019-12-10T13:36:56Z</time>
      </trkpt>
      <trkpt lat="43.53292" lon="6.77298">
        <ele>66.5</ele>
        <time>2019-12-10T13:36:58Z</time>
      </trkpt>
      <trkpt lat="43.53298" lon="6.77301">
        <ele>67.9</ele>
        <time>2019-12-10T13:37:00Z</time>
      </trkpt>
      <trkpt lat="43.53304" lon="6.77304">
        <ele>68.4</ele>
        <time>2019-12-10T13:37:02Z</time>
      </trkpt>
      <trkpt lat="43.53309" lon="6.77308">
        <ele>68.4</ele>
        <time>2019-12-10T13:37:04Z</time>
      </trkpt>
      <trkpt lat="43.53314" lon="6.77312">
        <ele>68.9</ele>
        <time>2019-12-10T13:37:06Z</time>
      </trkpt>
      <trkpt lat="43.5332" lon="6.77315">
        <ele>68.9</ele>
        <time>2019-12-10T13:37:08Z</time>
      </trkpt>
      <trkpt lat="43.53325" lon="6.77317">
        <ele>69.4</ele>
        <time>2019-12-10T13:37:10Z</time>
      </trkpt>
      <trkpt lat="43.5333" lon="6.77321">
        <ele>69.4</ele>
        <time>2019-12-10T13:37:12Z</time>
      </trkpt>
      <trkpt lat="43.53336" lon="6.77324">
        <ele>69.8</ele>
        <time>2019-12-10T13:37:14Z</time>
      </trkpt>
      <trkpt lat="43.53341" lon="6.77327">
        <ele>70.3</ele>
        <time>2019-12-10T13:37:16Z</time>
      </trkpt>
      <trkpt lat="43.53347" lon="6.7733">
        <ele>70.8</ele>
        <time>2019-12-10T13:37:18Z</time>
      </trkpt>
      <trkpt lat="43.53352" lon="6.77332">
        <ele>70.8</ele>
        <time>2019-12-10T13:37:20Z</time>
      </trkpt>
      <trkpt lat="43.53357" lon="6.77333">
        <ele>71.3</ele>
        <time>2019-12-10T13:37:22Z</time>
      </trkpt>
      <trkpt lat="43.53361" lon="6.77335">
        <ele>71.3</ele>
        <time>2019-12-10T13:37:24Z</time>
      </trkpt>
      <trkpt lat="43.53362" lon="6.77335">
        <ele>71.3</ele>
        <time>2019-12-10T13:37:26Z</time>
      </trkpt>
      <trkpt lat="43.53362" lon="6.77335">
        <ele>71.3</ele>
        <time>2019-12-10T13:37:28Z</time>
      </trkpt>
      <trkpt lat="43.53362" lon="6.77335">
        <ele>71.3</ele>
        <time>2019-12-10T13:37:30Z</time>
      </trkpt>
      <trkpt lat="43.53362" lon="6.77335">
        <ele>71.3</ele>
        <time>2019-12-10T13:37:32Z</time>
      </trkpt>
      <trkpt lat="43.53362" lon="6.77335">
        <ele>71.3</ele>
        <time>2019-12-10T13:37:34Z</time>
      </trkpt>
      <trkpt lat="43.53362" lon="6.77335">
        <ele>71.3</ele>
        <time>2019-12-10T13:37:36Z</time>
      </trkpt>
      <trkpt lat="43.53362" lon="6.77335">
        <ele>71.3</ele>
        <time>2019-12-10T13:37:38Z</time>
      </trkpt>
      <trkpt lat="43.53362" lon="6.77335">
        <ele>71.3</ele>
        <time>2019-12-10T13:37:40Z</time>
      </trkpt>
      <trkpt lat="43.53362" lon="6.77335">
        <ele>71.3</ele>
        <time>2019-12-10T13:37:42Z</time>
      </trkpt>
      <trkpt lat="43.53362" lon="6.77335">
        <ele>71.3</ele>
        <time>2019-12-10T13:37:44Z</time>
      </trkpt>
      <trkpt lat="43.53362" lon="6.77335">
        <ele>71.3</ele>
        <time>2019-12-10T13:37:46Z</time>
      </trkpt>
      <trkpt lat="43.53362" lon="6.77335">
        <ele>71.3</ele>
        <time>2019-12-10T13:37:48Z</time>
      </trkpt>
      <trkpt lat="43.53362" lon="6.77335">
        <ele>71.3</ele>
        <time>2019-12-10T13:37:50Z</time>
      </trkpt>
      <trkpt lat="43.53362" lon="6.77335">
        <ele>71.3</ele>
        <time>2019-12-10T13:37:52Z</time>
      </trkpt>
      <trkpt lat="43.53362" lon="6.77335">
        <ele>71.3</ele>
        <time>2019-12-10T13:37:54Z</time>
      </trkpt>
      <trkpt lat="43.53362" lon="6.77335">
        <ele>71.3</ele>
        <time>2019-12-10T13:37:56Z</time>
      </trkpt>
      <trkpt lat="43.53362" lon="6.77335">
        <ele>71.3</ele>
        <time>2019-12-10T13:37:58Z</time>
      </trkpt>
      <trkpt lat="43.53362" lon="6.77335">
        <ele>71.3</ele>
        <time>2019-12-10T13:38:00Z</time>
      </trkpt>
      <trkpt lat="43.53362" lon="6.77335">
        <ele>71.3</ele>
        <time>2019-12-10T13:38:02Z</time>
      </trkpt>
      <trkpt lat="43.53362" lon="6.77335">
        <ele>71.3</ele>
        <time>2019-12-10T13:38:04Z</time>
      </trkpt>
      <trkpt lat="43.53362" lon="6.77336">
        <ele>71.3</ele>
        <time>2019-12-10T13:38:06Z</time>
      </trkpt>
      <trkpt lat="43.53362" lon="6.77336">
        <ele>71.3</ele>
        <time>2019-12-10T13:38:08Z</time>
      </trkpt>
      <trkpt lat="43.53362" lon="6.77336">
        <ele>71.3</ele>
        <time>2019-12-10T13:38:10Z</time>
      </trkpt>
      <trkpt lat="43.53362" lon="6.77336">
        <ele>71.3</ele>
        <time>2019-12-10T13:38:12Z</time>
      </trkpt>
      <trkpt lat="43.53362" lon="6.77336">
        <ele>71.3</ele>
        <time>2019-12-10T13:38:14Z</time>
      </trkpt>
      <trkpt lat="43.53362" lon="6.77336">
        <ele>71.3</ele>
        <time>2019-12-10T13:38:16Z</time>
      </trkpt>
      <trkpt lat="43.53362" lon="6.77336">
        <ele>71.3</ele>
        <time>2019-12-10T13:38:18Z</time>
      </trkpt>
      <trkpt lat="43.53362" lon="6.77336">
        <ele>71.3</ele>
        <time>2019-12-10T13:38:20Z</time>
      </trkpt>
      <trkpt lat="43.53362" lon="6.77336">
        <ele>71.3</ele>
        <time>2019-12-10T13:38:22Z</time>
      </trkpt>
      <trkpt lat="43.53362" lon="6.77336">
        <ele>71.3</ele>
        <time>2019-12-10T13:38:24Z</time>
      </trkpt>
      <trkpt lat="43.53362" lon="6.77336">
        <ele>71.3</ele>
        <time>2019-12-10T13:38:26Z</time>
      </trkpt>
      <trkpt lat="43.53362" lon="6.77336">
        <ele>71.3</ele>
        <time>2019-12-10T13:38:28Z</time>
      </trkpt>
      <trkpt lat="43.53363" lon="6.77336">
        <ele>71.3</ele>
        <time>2019-12-10T13:38:30Z</time>
      </trkpt>
      <trkpt lat="43.53366" lon="6.77338">
        <ele>71.3</ele>
        <time>2019-12-10T13:38:32Z</time>
      </trkpt>
      <trkpt lat="43.5337" lon="6.7734">
        <ele>71.3</ele>
        <time>2019-12-10T13:38:34Z</time>
      </trkpt>
      <trkpt lat="43.53375" lon="6.77342">
        <ele>71.3</ele>
        <time>2019-12-10T13:38:36Z</time>
      </trkpt>
      <trkpt lat="43.5338" lon="6.77343">
        <ele>70.8</ele>
        <time>2019-12-10T13:38:38Z</time>
      </trkpt>
      <trkpt lat="43.53384" lon="6.77344">
        <ele>70.3</ele>
        <time>2019-12-10T13:38:40Z</time>
      </trkpt>
      <trkpt lat="43.53389" lon="6.77344">
        <ele>70.3</ele>
        <time>2019-12-10T13:38:42Z</time>
      </trkpt>
      <trkpt lat="43.53394" lon="6.77345">
        <ele>69.8</ele>
        <time>2019-12-10T13:38:44Z</time>
      </trkpt>
      <trkpt lat="43.53399" lon="6.77346">
        <ele>69.8</ele>
        <time>2019-12-10T13:38:46Z</time>
      </trkpt>
      <trkpt lat="43.53405" lon="6.77347">
        <ele>70.3</ele>
        <time>2019-12-10T13:38:48Z</time>
      </trkpt>
      <trkpt lat="43.5341" lon="6.77347">
        <ele>70.3</ele>
        <time>2019-12-10T13:38:50Z</time>
      </trkpt>
      <trkpt lat="43.53415" lon="6.77347">
        <ele>69.8</ele>
        <time>2019-12-10T13:38:52Z</time>
      </trkpt>
      <trkpt lat="43.5342" lon="6.77347">
        <ele>69.8</ele>
        <time>2019-12-10T13:38:54Z</time>
      </trkpt>
      <trkpt lat="43.53426" lon="6.77348">
        <ele>69.8</ele>
        <time>2019-12-10T13:38:56Z</time>
      </trkpt>
      <trkpt lat="43.53432" lon="6.77348">
        <ele>69.4</ele>
        <time>2019-12-10T13:38:58Z</time>
      </trkpt>
      <trkpt lat="43.53437" lon="6.77349">
        <ele>69.4</ele>
        <time>2019-12-10T13:39:00Z</time>
      </trkpt>
      <trkpt lat="43.53443" lon="6.77349">
        <ele>68.9</ele>
        <time>2019-12-10T13:39:02Z</time>
      </trkpt>
      <trkpt lat="43.53449" lon="6.77349">
        <ele>68.4</ele>
        <time>2019-12-10T13:39:04Z</time>
      </trkpt>
      <trkpt lat="43.53454" lon="6.77349">
        <ele>67.9</ele>
        <time>2019-12-10T13:39:06Z</time>
      </trkpt>
      <trkpt lat="43.5346" lon="6.77349">
        <ele>67.4</ele>
        <time>2019-12-10T13:39:08Z</time>
      </trkpt>
      <trkpt lat="43.53465" lon="6.7735">
        <ele>66.5</ele>
        <time>2019-12-10T13:39:10Z</time>
      </trkpt>
      <trkpt lat="43.53471" lon="6.77353">
        <ele>66.5</ele>
        <time>2019-12-10T13:39:12Z</time>
      </trkpt>
      <trkpt lat="43.53476" lon="6.77355">
        <ele>66.5</ele>
        <time>2019-12-10T13:39:14Z</time>
      </trkpt>
      <trkpt lat="43.53481" lon="6.77357">
        <ele>66</ele>
        <time>2019-12-10T13:39:16Z</time>
      </trkpt>
      <trkpt lat="43.53486" lon="6.77358">
        <ele>66</ele>
        <time>2019-12-10T13:39:18Z</time>
      </trkpt>
      <trkpt lat="43.53492" lon="6.77361">
        <ele>66</ele>
        <time>2019-12-10T13:39:20Z</time>
      </trkpt>
      <trkpt lat="43.53497" lon="6.77363">
        <ele>66</ele>
        <time>2019-12-10T13:39:22Z</time>
      </trkpt>
      <trkpt lat="43.53503" lon="6.77365">
        <ele>66.9</ele>
        <time>2019-12-10T13:39:24Z</time>
      </trkpt>
      <trkpt lat="43.53508" lon="6.77366">
        <ele>66.9</ele>
        <time>2019-12-10T13:39:26Z</time>
      </trkpt>
      <trkpt lat="43.53514" lon="6.77369">
        <ele>67.4</ele>
        <time>2019-12-10T13:39:28Z</time>
      </trkpt>
      <trkpt lat="43.53519" lon="6.77373">
        <ele>66.9</ele>
        <time>2019-12-10T13:39:30Z</time>
      </trkpt>
      <trkpt lat="43.53524" lon="6.77375">
        <ele>66.9</ele>
        <time>2019-12-10T13:39:32Z</time>
      </trkpt>
      <trkpt lat="43.53529" lon="6.77378">
        <ele>67.4</ele>
        <time>2019-12-10T13:39:34Z</time>
      </trkpt>
      <trkpt lat="43.53534" lon="6.7738">
        <ele>68.4</ele>
        <time>2019-12-10T13:39:36Z</time>
      </trkpt>
      <trkpt lat="43.5354" lon="6.77383">
        <ele>68.9</ele>
        <time>2019-12-10T13:39:38Z</time>
      </trkpt>
      <trkpt lat="43.53545" lon="6.77387">
        <ele>69.4</ele>
        <time>2019-12-10T13:39:40Z</time>
      </trkpt>
      <trkpt lat="43.53551" lon="6.77389">
        <ele>69.8</ele>
        <time>2019-12-10T13:39:42Z</time>
      </trkpt>
      <trkpt lat="43.53557" lon="6.77392">
        <ele>69.8</ele>
        <time>2019-12-10T13:39:44Z</time>
      </trkpt>
      <trkpt lat="43.53563" lon="6.77394">
        <ele>70.3</ele>
        <time>2019-12-10T13:39:46Z</time>
      </trkpt>
      <trkpt lat="43.53569" lon="6.77396">
        <ele>70.3</ele>
        <time>2019-12-10T13:39:48Z</time>
      </trkpt>
      <trkpt lat="43.53575" lon="6.77399">
        <ele>70.3</ele>
        <time>2019-12-10T13:39:50Z</time>
      </trkpt>
      <trkpt lat="43.53581" lon="6.77402">
        <ele>70.8</ele>
        <time>2019-12-10T13:39:52Z</time>
      </trkpt>
      <trkpt lat="43.53587" lon="6.77405">
        <ele>70.8</ele>
        <time>2019-12-10T13:39:54Z</time>
      </trkpt>
      <trkpt lat="43.53592" lon="6.77408">
        <ele>71.3</ele>
        <time>2019-12-10T13:39:56Z</time>
      </trkpt>
      <trkpt lat="43.53596" lon="6.77412">
        <ele>71.3</ele>
        <time>2019-12-10T13:39:58Z</time>
      </trkpt>
      <trkpt lat="43.536" lon="6.77416">
        <ele>71.3</ele>
        <time>2019-12-10T13:40:00Z</time>
      </trkpt>
      <trkpt lat="43.53604" lon="6.77418">
        <ele>71.3</ele>
        <time>2019-12-10T13:40:02Z</time>
      </trkpt>
      <trkpt lat="43.53609" lon="6.77419">
        <ele>71.3</ele>
        <time>2019-12-10T13:40:04Z</time>
      </trkpt>
      <trkpt lat="43.53615" lon="6.77421">
        <ele>71.8</ele>
        <time>2019-12-10T13:40:06Z</time>
      </trkpt>
      <trkpt lat="43.53621" lon="6.77424">
        <ele>72.2</ele>
        <time>2019-12-10T13:40:08Z</time>
      </trkpt>
      <trkpt lat="43.53627" lon="6.77428">
        <ele>72.2</ele>
        <time>2019-12-10T13:40:10Z</time>
      </trkpt>
      <trkpt lat="43.53632" lon="6.77431">
        <ele>72.2</ele>
        <time>2019-12-10T13:40:12Z</time>
      </trkpt>
      <trkpt lat="43.53637" lon="6.77434">
        <ele>71.8</ele>
        <time>2019-12-10T13:40:14Z</time>
      </trkpt>
      <trkpt lat="43.53641" lon="6.77438">
        <ele>71.8</ele>
        <time>2019-12-10T13:40:16Z</time>
      </trkpt>
      <trkpt lat="43.53647" lon="6.7744">
        <ele>71.8</ele>
        <time>2019-12-10T13:40:18Z</time>
      </trkpt>
      <trkpt lat="43.53654" lon="6.77441">
        <ele>72.2</ele>
        <time>2019-12-10T13:40:20Z</time>
      </trkpt>
      <trkpt lat="43.53659" lon="6.77443">
        <ele>72.2</ele>
        <time>2019-12-10T13:40:22Z</time>
      </trkpt>
      <trkpt lat="43.53665" lon="6.77448">
        <ele>72.7</ele>
        <time>2019-12-10T13:40:24Z</time>
      </trkpt>
      <trkpt lat="43.5367" lon="6.77454">
        <ele>73.2</ele>
        <time>2019-12-10T13:40:26Z</time>
      </trkpt>
      <trkpt lat="43.53675" lon="6.77457">
        <ele>73.2</ele>
        <time>2019-12-10T13:40:28Z</time>
      </trkpt>
      <trkpt lat="43.5368" lon="6.77461">
        <ele>73.2</ele>
        <time>2019-12-10T13:40:30Z</time>
      </trkpt>
      <trkpt lat="43.53685" lon="6.77466">
        <ele>73.7</ele>
        <time>2019-12-10T13:40:32Z</time>
      </trkpt>
      <trkpt lat="43.5369" lon="6.77469">
        <ele>73.7</ele>
        <time>2019-12-10T13:40:34Z</time>
      </trkpt>
      <trkpt lat="43.53696" lon="6.77472">
        <ele>74.2</ele>
        <time>2019-12-10T13:40:36Z</time>
      </trkpt>
      <trkpt lat="43.53701" lon="6.77476">
        <ele>74.6</ele>
        <time>2019-12-10T13:40:38Z</time>
      </trkpt>
      <trkpt lat="43.53706" lon="6.77479">
        <ele>75.1</ele>
        <time>2019-12-10T13:40:40Z</time>
      </trkpt>
      <trkpt lat="43.53712" lon="6.77482">
        <ele>75.1</ele>
        <time>2019-12-10T13:40:42Z</time>
      </trkpt>
      <trkpt lat="43.53718" lon="6.77486">
        <ele>75.1</ele>
        <time>2019-12-10T13:40:44Z</time>
      </trkpt>
      <trkpt lat="43.53724" lon="6.77491">
        <ele>75.1</ele>
        <time>2019-12-10T13:40:46Z</time>
      </trkpt>
      <trkpt lat="43.5373" lon="6.77495">
        <ele>75.1</ele>
        <time>2019-12-10T13:40:48Z</time>
      </trkpt>
      <trkpt lat="43.53736" lon="6.77499">
        <ele>75.1</ele>
        <time>2019-12-10T13:40:50Z</time>
      </trkpt>
      <trkpt lat="43.53741" lon="6.77504">
        <ele>75.6</ele>
        <time>2019-12-10T13:40:52Z</time>
      </trkpt>
      <trkpt lat="43.53747" lon="6.77509">
        <ele>75.1</ele>
        <time>2019-12-10T13:40:54Z</time>
      </trkpt>
      <trkpt lat="43.53752" lon="6.77514">
        <ele>75.1</ele>
        <time>2019-12-10T13:40:56Z</time>
      </trkpt>
      <trkpt lat="43.53756" lon="6.77518">
        <ele>75.1</ele>
        <time>2019-12-10T13:40:58Z</time>
      </trkpt>
      <trkpt lat="43.53761" lon="6.77521">
        <ele>75.1</ele>
        <time>2019-12-10T13:41:00Z</time>
      </trkpt>
      <trkpt lat="43.53767" lon="6.77523">
        <ele>75.1</ele>
        <time>2019-12-10T13:41:02Z</time>
      </trkpt>
      <trkpt lat="43.53772" lon="6.77526">
        <ele>75.1</ele>
        <time>2019-12-10T13:41:04Z</time>
      </trkpt>
      <trkpt lat="43.53777" lon="6.77531">
        <ele>75.1</ele>
        <time>2019-12-10T13:41:06Z</time>
      </trkpt>
      <trkpt lat="43.53782" lon="6.77533">
        <ele>75.1</ele>
        <time>2019-12-10T13:41:08Z</time>
      </trkpt>
      <trkpt lat="43.53788" lon="6.77536">
        <ele>75.6</ele>
        <time>2019-12-10T13:41:10Z</time>
      </trkpt>
      <trkpt lat="43.53793" lon="6.77541">
        <ele>75.6</ele>
        <time>2019-12-10T13:41:12Z</time>
      </trkpt>
      <trkpt lat="43.53799" lon="6.77545">
        <ele>75.6</ele>
        <time>2019-12-10T13:41:14Z</time>
      </trkpt>
      <trkpt lat="43.53805" lon="6.77548">
        <ele>75.6</ele>
        <time>2019-12-10T13:41:16Z</time>
      </trkpt>
      <trkpt lat="43.53809" lon="6.77552">
        <ele>75.6</ele>
        <time>2019-12-10T13:41:18Z</time>
      </trkpt>
      <trkpt lat="43.53813" lon="6.77554">
        <ele>75.6</ele>
        <time>2019-12-10T13:41:20Z</time>
      </trkpt>
      <trkpt lat="43.53815" lon="6.77555">
        <ele>75.6</ele>
        <time>2019-12-10T13:41:22Z</time>
      </trkpt>
      <trkpt lat="43.53816" lon="6.77555">
        <ele>75.1</ele>
        <time>2019-12-10T13:41:24Z</time>
      </trkpt>
      <trkpt lat="43.53816" lon="6.77555">
        <ele>75.1</ele>
        <time>2019-12-10T13:41:26Z</time>
      </trkpt>
      <trkpt lat="43.53816" lon="6.77555">
        <ele>75.1</ele>
        <time>2019-12-10T13:41:28Z</time>
      </trkpt>
      <trkpt lat="43.53816" lon="6.77555">
        <ele>75.1</ele>
        <time>2019-12-10T13:41:30Z</time>
      </trkpt>
      <trkpt lat="43.53816" lon="6.77555">
        <ele>75.1</ele>
        <time>2019-12-10T13:41:32Z</time>
      </trkpt>
      <trkpt lat="43.53816" lon="6.77555">
        <ele>75.1</ele>
        <time>2019-12-10T13:41:34Z</time>
      </trkpt>
      <trkpt lat="43.53816" lon="6.77555">
        <ele>75.1</ele>
        <time>2019-12-10T13:41:36Z</time>
      </trkpt>
      <trkpt lat="43.53816" lon="6.77555">
        <ele>75.1</ele>
        <time>2019-12-10T13:41:38Z</time>
      </trkpt>
      <trkpt lat="43.53816" lon="6.77555">
        <ele>75.1</ele>
        <time>2019-12-10T13:41:40Z</time>
      </trkpt>
      <trkpt lat="43.53816" lon="6.77555">
        <ele>75.1</ele>
        <time>2019-12-10T13:41:42Z</time>
      </trkpt>
      <trkpt lat="43.53816" lon="6.77555">
        <ele>75.1</ele>
        <time>2019-12-10T13:41:44Z</time>
      </trkpt>
      <trkpt lat="43.53816" lon="6.77555">
        <ele>75.1</ele>
        <time>2019-12-10T13:41:46Z</time>
      </trkpt>
      <trkpt lat="43.53816" lon="6.77555">
        <ele>75.1</ele>
        <time>2019-12-10T13:41:48Z</time>
      </trkpt>
      <trkpt lat="43.53816" lon="6.77555">
        <ele>75.1</ele>
        <time>2019-12-10T13:41:50Z</time>
      </trkpt>
      <trkpt lat="43.53816" lon="6.77555">
        <ele>75.1</ele>
        <time>2019-12-10T13:41:52Z</time>
      </trkpt>
      <trkpt lat="43.53816" lon="6.77555">
        <ele>75.1</ele>
        <time>2019-12-10T13:41:54Z</time>
      </trkpt>
      <trkpt lat="43.53816" lon="6.77555">
        <ele>75.1</ele>
        <time>2019-12-10T13:41:56Z</time>
      </trkpt>
      <trkpt lat="43.53816" lon="6.77555">
        <ele>75.1</ele>
        <time>2019-12-10T13:41:58Z</time>
      </trkpt>
      <trkpt lat="43.53816" lon="6.77555">
        <ele>75.1</ele>
        <time>2019-12-10T13:42:00Z</time>
      </trkpt>
      <trkpt lat="43.53816" lon="6.77555">
        <ele>75.1</ele>
        <time>2019-12-10T13:42:02Z</time>
      </trkpt>
      <trkpt lat="43.53816" lon="6.77554">
        <ele>75.1</ele>
        <time>2019-12-10T13:42:04Z</time>
      </trkpt>
      <trkpt lat="43.53816" lon="6.77554">
        <ele>75.1</ele>
        <time>2019-12-10T13:42:06Z</time>
      </trkpt>
      <trkpt lat="43.53816" lon="6.77554">
        <ele>75.1</ele>
        <time>2019-12-10T13:42:08Z</time>
      </trkpt>
      <trkpt lat="43.53816" lon="6.77554">
        <ele>75.1</ele>
        <time>2019-12-10T13:42:10Z</time>
      </trkpt>
      <trkpt lat="43.53816" lon="6.77554">
        <ele>75.1</ele>
        <time>2019-12-10T13:42:12Z</time>
      </trkpt>
      <trkpt lat="43.53816" lon="6.77554">
        <ele>75.1</ele>
        <time>2019-12-10T13:42:14Z</time>
      </trkpt>
      <trkpt lat="43.53816" lon="6.77554">
        <ele>75.1</ele>
        <time>2019-12-10T13:42:16Z</time>
      </trkpt>
      <trkpt lat="43.53816" lon="6.77554">
        <ele>75.1</ele>
        <time>2019-12-10T13:42:18Z</time>
      </trkpt>
      <trkpt lat="43.53816" lon="6.77554">
        <ele>75.1</ele>
        <time>2019-12-10T13:42:20Z</time>
      </trkpt>
      <trkpt lat="43.53816" lon="6.77554">
        <ele>75.1</ele>
        <time>2019-12-10T13:42:22Z</time>
      </trkpt>
      <trkpt lat="43.53816" lon="6.77554">
        <ele>75.1</ele>
        <time>2019-12-10T13:42:24Z</time>
      </trkpt>
      <trkpt lat="43.53816" lon="6.77554">
        <ele>75.1</ele>
        <time>2019-12-10T13:42:26Z</time>
      </trkpt>
      <trkpt lat="43.53816" lon="6.77554">
        <ele>75.1</ele>
        <time>2019-12-10T13:42:28Z</time>
      </trkpt>
      <trkpt lat="43.53816" lon="6.77554">
        <ele>75.1</ele>
        <time>2019-12-10T13:42:30Z</time>
      </trkpt>
      <trkpt lat="43.53816" lon="6.77554">
        <ele>75.1</ele>
        <time>2019-12-10T13:42:32Z</time>
      </trkpt>
      <trkpt lat="43.53816" lon="6.77554">
        <ele>75.1</ele>
        <time>2019-12-10T13:42:34Z</time>
      </trkpt>
      <trkpt lat="43.53816" lon="6.77554">
        <ele>75.1</ele>
        <time>2019-12-10T13:42:36Z</time>
      </trkpt>
      <trkpt lat="43.53816" lon="6.77554">
        <ele>75.1</ele>
        <time>2019-12-10T13:42:38Z</time>
      </trkpt>
      <trkpt lat="43.53816" lon="6.77554">
        <ele>75.1</ele>
        <time>2019-12-10T13:42:40Z</time>
      </trkpt>
      <trkpt lat="43.53816" lon="6.77554">
        <ele>75.1</ele>
        <time>2019-12-10T13:42:42Z</time>
      </trkpt>
      <trkpt lat="43.53816" lon="6.77554">
        <ele>75.1</ele>
        <time>2019-12-10T13:42:44Z</time>
      </trkpt>
      <trkpt lat="43.53816" lon="6.77554">
        <ele>75.1</ele>
        <time>2019-12-10T13:42:46Z</time>
      </trkpt>
      <trkpt lat="43.53816" lon="6.77554">
        <ele>75.1</ele>
        <time>2019-12-10T13:42:48Z</time>
      </trkpt>
      <trkpt lat="43.53816" lon="6.77554">
        <ele>75.1</ele>
        <time>2019-12-10T13:42:50Z</time>
      </trkpt>
      <trkpt lat="43.53816" lon="6.77554">
        <ele>75.1</ele>
        <time>2019-12-10T13:42:52Z</time>
      </trkpt>
      <trkpt lat="43.53816" lon="6.77554">
        <ele>75.1</ele>
        <time>2019-12-10T13:42:54Z</time>
      </trkpt>
      <trkpt lat="43.53816" lon="6.77554">
        <ele>75.1</ele>
        <time>2019-12-10T13:42:56Z</time>
      </trkpt>
      <trkpt lat="43.53816" lon="6.77554">
        <ele>75.1</ele>
        <time>2019-12-10T13:42:58Z</time>
      </trkpt>
      <trkpt lat="43.53816" lon="6.77554">
        <ele>75.1</ele>
        <time>2019-12-10T13:43:00Z</time>
      </trkpt>
      <trkpt lat="43.53816" lon="6.77554">
        <ele>75.1</ele>
        <time>2019-12-10T13:43:02Z</time>
      </trkpt>
      <trkpt lat="43.53816" lon="6.77554">
        <ele>75.1</ele>
        <time>2019-12-10T13:43:04Z</time>
      </trkpt>
      <trkpt lat="43.53816" lon="6.77554">
        <ele>75.1</ele>
        <time>2019-12-10T13:43:06Z</time>
      </trkpt>
      <trkpt lat="43.53816" lon="6.77554">
        <ele>75.1</ele>
        <time>2019-12-10T13:43:08Z</time>
      </trkpt>
      <trkpt lat="43.53816" lon="6.77554">
        <ele>75.1</ele>
        <time>2019-12-10T13:43:10Z</time>
      </trkpt>
      <trkpt lat="43.53816" lon="6.77554">
        <ele>75.1</ele>
        <time>2019-12-10T13:43:12Z</time>
      </trkpt>
      <trkpt lat="43.53816" lon="6.77554">
        <ele>75.1</ele>
        <time>2019-12-10T13:43:14Z</time>
      </trkpt>
      <trkpt lat="43.53816" lon="6.77554">
        <ele>75.1</ele>
        <time>2019-12-10T13:43:16Z</time>
      </trkpt>
      <trkpt lat="43.53816" lon="6.77554">
        <ele>75.1</ele>
        <time>2019-12-10T13:43:18Z</time>
      </trkpt>
      <trkpt lat="43.53816" lon="6.77554">
        <ele>75.1</ele>
        <time>2019-12-10T13:43:20Z</time>
      </trkpt>
      <trkpt lat="43.53816" lon="6.77554">
        <ele>75.1</ele>
        <time>2019-12-10T13:43:22Z</time>
      </trkpt>
      <trkpt lat="43.53816" lon="6.77554">
        <ele>75.1</ele>
        <time>2019-12-10T13:43:24Z</time>
      </trkpt>
      <trkpt lat="43.53816" lon="6.77554">
        <ele>75.1</ele>
        <time>2019-12-10T13:43:26Z</time>
      </trkpt>
      <trkpt lat="43.53816" lon="6.77554">
        <ele>75.1</ele>
        <time>2019-12-10T13:43:28Z</time>
      </trkpt>
      <trkpt lat="43.53816" lon="6.77554">
        <ele>75.1</ele>
        <time>2019-12-10T13:43:30Z</time>
      </trkpt>
      <trkpt lat="43.53816" lon="6.77554">
        <ele>75.1</ele>
        <time>2019-12-10T13:43:32Z</time>
      </trkpt>
      <trkpt lat="43.53816" lon="6.77554">
        <ele>75.1</ele>
        <time>2019-12-10T13:43:34Z</time>
      </trkpt>
      <trkpt lat="43.53816" lon="6.77554">
        <ele>75.1</ele>
        <time>2019-12-10T13:43:36Z</time>
      </trkpt>
      <trkpt lat="43.53816" lon="6.77554">
        <ele>75.1</ele>
        <time>2019-12-10T13:43:38Z</time>
      </trkpt>
      <trkpt lat="43.53816" lon="6.77554">
        <ele>75.1</ele>
        <time>2019-12-10T13:43:40Z</time>
      </trkpt>
      <trkpt lat="43.53816" lon="6.77554">
        <ele>75.1</ele>
        <time>2019-12-10T13:43:42Z</time>
      </trkpt>
      <trkpt lat="43.53816" lon="6.77554">
        <ele>75.1</ele>
        <time>2019-12-10T13:43:44Z</time>
      </trkpt>
      <trkpt lat="43.53816" lon="6.77554">
        <ele>75.1</ele>
        <time>2019-12-10T13:43:46Z</time>
      </trkpt>
      <trkpt lat="43.53816" lon="6.77554">
        <ele>75.1</ele>
        <time>2019-12-10T13:43:48Z</time>
      </trkpt>
      <trkpt lat="43.53816" lon="6.77554">
        <ele>75.1</ele>
        <time>2019-12-10T13:43:50Z</time>
      </trkpt>
      <trkpt lat="43.53816" lon="6.77554">
        <ele>75.1</ele>
        <time>2019-12-10T13:43:52Z</time>
      </trkpt>
      <trkpt lat="43.53816" lon="6.77554">
        <ele>75.1</ele>
        <time>2019-12-10T13:43:54Z</time>
      </trkpt>
      <trkpt lat="43.53816" lon="6.77554">
        <ele>75.1</ele>
        <time>2019-12-10T13:43:56Z</time>
      </trkpt>
      <trkpt lat="43.53818" lon="6.77555">
        <ele>75.1</ele>
        <time>2019-12-10T13:43:58Z</time>
      </trkpt>
      <trkpt lat="43.53822" lon="6.77559">
        <ele>75.1</ele>
        <time>2019-12-10T13:44:00Z</time>
      </trkpt>
      <trkpt lat="43.53826" lon="6.77563">
        <ele>74.6</ele>
        <time>2019-12-10T13:44:02Z</time>
      </trkpt>
      <trkpt lat="43.5383" lon="6.77565">
        <ele>74.2</ele>
        <time>2019-12-10T13:44:04Z</time>
      </trkpt>
      <trkpt lat="43.53834" lon="6.77567">
        <ele>73.7</ele>
        <time>2019-12-10T13:44:06Z</time>
      </trkpt>
      <trkpt lat="43.53838" lon="6.7757">
        <ele>73.2</ele>
        <time>2019-12-10T13:44:08Z</time>
      </trkpt>
      <trkpt lat="43.53842" lon="6.77572">
        <ele>72.7</ele>
        <time>2019-12-10T13:44:10Z</time>
      </trkpt>
      <trkpt lat="43.53846" lon="6.77575">
        <ele>72.2</ele>
        <time>2019-12-10T13:44:12Z</time>
      </trkpt>
      <trkpt lat="43.5385" lon="6.77578">
        <ele>71.8</ele>
        <time>2019-12-10T13:44:14Z</time>
      </trkpt>
      <trkpt lat="43.53855" lon="6.77581">
        <ele>71.8</ele>
        <time>2019-12-10T13:44:16Z</time>
      </trkpt>
      <trkpt lat="43.53859" lon="6.77584">
        <ele>71.3</ele>
        <time>2019-12-10T13:44:18Z</time>
      </trkpt>
      <trkpt lat="43.53864" lon="6.77586">
        <ele>70.8</ele>
        <time>2019-12-10T13:44:20Z</time>
      </trkpt>
      <trkpt lat="43.53869" lon="6.77588">
        <ele>70.3</ele>
        <time>2019-12-10T13:44:22Z</time>
      </trkpt>
      <trkpt lat="43.53873" lon="6.77591">
        <ele>69.8</ele>
        <time>2019-12-10T13:44:24Z</time>
      </trkpt>
      <trkpt lat="43.53877" lon="6.77594">
        <ele>69.8</ele>
        <time>2019-12-10T13:44:26Z</time>
      </trkpt>
      <trkpt lat="43.53882" lon="6.77598">
        <ele>69.4</ele>
        <time>2019-12-10T13:44:28Z</time>
      </trkpt>
      <trkpt lat="43.53886" lon="6.77603">
        <ele>69.4</ele>
        <time>2019-12-10T13:44:30Z</time>
      </trkpt>
      <trkpt lat="43.53891" lon="6.77606">
        <ele>68.9</ele>
        <time>2019-12-10T13:44:32Z</time>
      </trkpt>
      <trkpt lat="43.53896" lon="6.77609">
        <ele>68.4</ele>
        <time>2019-12-10T13:44:34Z</time>
      </trkpt>
      <trkpt lat="43.53901" lon="6.77612">
        <ele>67.9</ele>
        <time>2019-12-10T13:44:36Z</time>
      </trkpt>
      <trkpt lat="43.53906" lon="6.77617">
        <ele>68.4</ele>
        <time>2019-12-10T13:44:38Z</time>
      </trkpt>
      <trkpt lat="43.5391" lon="6.77622">
        <ele>67.9</ele>
        <time>2019-12-10T13:44:40Z</time>
      </trkpt>
      <trkpt lat="43.53915" lon="6.77626">
        <ele>67.4</ele>
        <time>2019-12-10T13:44:42Z</time>
      </trkpt>
      <trkpt lat="43.53921" lon="6.7763">
        <ele>66.9</ele>
        <time>2019-12-10T13:44:44Z</time>
      </trkpt>
      <trkpt lat="43.53927" lon="6.77634">
        <ele>66.5</ele>
        <time>2019-12-10T13:44:46Z</time>
      </trkpt>
      <trkpt lat="43.53932" lon="6.77638">
        <ele>66</ele>
        <time>2019-12-10T13:44:48Z</time>
      </trkpt>
      <trkpt lat="43.53937" lon="6.77642">
        <ele>65.5</ele>
        <time>2019-12-10T13:44:50Z</time>
      </trkpt>
      <trkpt lat="43.53943" lon="6.77645">
        <ele>65</ele>
        <time>2019-12-10T13:44:52Z</time>
      </trkpt>
      <trkpt lat="43.53949" lon="6.77647">
        <ele>64.5</ele>
        <time>2019-12-10T13:44:54Z</time>
      </trkpt>
      <trkpt lat="43.53955" lon="6.7765">
        <ele>63.6</ele>
        <time>2019-12-10T13:44:56Z</time>
      </trkpt>
      <trkpt lat="43.53961" lon="6.77653">
        <ele>63.1</ele>
        <time>2019-12-10T13:44:58Z</time>
      </trkpt>
      <trkpt lat="43.53966" lon="6.77655">
        <ele>62.6</ele>
        <time>2019-12-10T13:45:00Z</time>
      </trkpt>
      <trkpt lat="43.53972" lon="6.77658">
        <ele>62.6</ele>
        <time>2019-12-10T13:45:02Z</time>
      </trkpt>
      <trkpt lat="43.53978" lon="6.77661">
        <ele>62.1</ele>
        <time>2019-12-10T13:45:04Z</time>
      </trkpt>
      <trkpt lat="43.53985" lon="6.77662">
        <ele>61.7</ele>
        <time>2019-12-10T13:45:06Z</time>
      </trkpt>
      <trkpt lat="43.53992" lon="6.77665">
        <ele>61.2</ele>
        <time>2019-12-10T13:45:08Z</time>
      </trkpt>
      <trkpt lat="43.53997" lon="6.77667">
        <ele>60.7</ele>
        <time>2019-12-10T13:45:10Z</time>
      </trkpt>
      <trkpt lat="43.54002" lon="6.7767">
        <ele>60.2</ele>
        <time>2019-12-10T13:45:12Z</time>
      </trkpt>
      <trkpt lat="43.54007" lon="6.77673">
        <ele>59.7</ele>
        <time>2019-12-10T13:45:14Z</time>
      </trkpt>
      <trkpt lat="43.54013" lon="6.77676">
        <ele>59.3</ele>
        <time>2019-12-10T13:45:16Z</time>
      </trkpt>
      <trkpt lat="43.54018" lon="6.77678">
        <ele>58.8</ele>
        <time>2019-12-10T13:45:18Z</time>
      </trkpt>
      <trkpt lat="43.54024" lon="6.7768">
        <ele>58.8</ele>
        <time>2019-12-10T13:45:20Z</time>
      </trkpt>
      <trkpt lat="43.54029" lon="6.77682">
        <ele>58.3</ele>
        <time>2019-12-10T13:45:22Z</time>
      </trkpt>
      <trkpt lat="43.54035" lon="6.77683">
        <ele>58.3</ele>
        <time>2019-12-10T13:45:24Z</time>
      </trkpt>
      <trkpt lat="43.5404" lon="6.77684">
        <ele>58.3</ele>
        <time>2019-12-10T13:45:26Z</time>
      </trkpt>
      <trkpt lat="43.54046" lon="6.77685">
        <ele>58.3</ele>
        <time>2019-12-10T13:45:28Z</time>
      </trkpt>
      <trkpt lat="43.5405" lon="6.77685">
        <ele>57.8</ele>
        <time>2019-12-10T13:45:30Z</time>
      </trkpt>
      <trkpt lat="43.54052" lon="6.77686">
        <ele>57.8</ele>
        <time>2019-12-10T13:45:32Z</time>
      </trkpt>
      <trkpt lat="43.54052" lon="6.77685">
        <ele>57.3</ele>
        <time>2019-12-10T13:45:34Z</time>
      </trkpt>
      <trkpt lat="43.54052" lon="6.77685">
        <ele>57.8</ele>
        <time>2019-12-10T13:45:36Z</time>
      </trkpt>
      <trkpt lat="43.54052" lon="6.77685">
        <ele>57.8</ele>
        <time>2019-12-10T13:45:38Z</time>
      </trkpt>
      <trkpt lat="43.54052" lon="6.77685">
        <ele>57.8</ele>
        <time>2019-12-10T13:45:40Z</time>
      </trkpt>
      <trkpt lat="43.54052" lon="6.77685">
        <ele>57.8</ele>
        <time>2019-12-10T13:45:42Z</time>
      </trkpt>
      <trkpt lat="43.54052" lon="6.77685">
        <ele>57.8</ele>
        <time>2019-12-10T13:45:44Z</time>
      </trkpt>
      <trkpt lat="43.54052" lon="6.77685">
        <ele>57.8</ele>
        <time>2019-12-10T13:45:46Z</time>
      </trkpt>
      <trkpt lat="43.54052" lon="6.77685">
        <ele>57.8</ele>
        <time>2019-12-10T13:45:48Z</time>
      </trkpt>
      <trkpt lat="43.54052" lon="6.77685">
        <ele>57.8</ele>
        <time>2019-12-10T13:45:50Z</time>
      </trkpt>
      <trkpt lat="43.54052" lon="6.77685">
        <ele>57.8</ele>
        <time>2019-12-10T13:45:52Z</time>
      </trkpt>
      <trkpt lat="43.54052" lon="6.77685">
        <ele>57.8</ele>
        <time>2019-12-10T13:45:54Z</time>
      </trkpt>
      <trkpt lat="43.54052" lon="6.77685">
        <ele>57.8</ele>
        <time>2019-12-10T13:45:56Z</time>
      </trkpt>
      <trkpt lat="43.54054" lon="6.77686">
        <ele>57.8</ele>
        <time>2019-12-10T13:45:58Z</time>
      </trkpt>
      <trkpt lat="43.54057" lon="6.77688">
        <ele>57.8</ele>
        <time>2019-12-10T13:46:00Z</time>
      </trkpt>
      <trkpt lat="43.5406" lon="6.7769">
        <ele>58.3</ele>
        <time>2019-12-10T13:46:02Z</time>
      </trkpt>
      <trkpt lat="43.54064" lon="6.7769">
        <ele>58.3</ele>
        <time>2019-12-10T13:46:04Z</time>
      </trkpt>
      <trkpt lat="43.54071" lon="6.77688">
        <ele>58.3</ele>
        <time>2019-12-10T13:46:06Z</time>
      </trkpt>
      <trkpt lat="43.5408" lon="6.77687">
        <ele>57.3</ele>
        <time>2019-12-10T13:46:08Z</time>
      </trkpt>
      <trkpt lat="43.54089" lon="6.77685">
        <ele>56.9</ele>
        <time>2019-12-10T13:46:10Z</time>
      </trkpt>
      <trkpt lat="43.54099" lon="6.77687">
        <ele>56.4</ele>
        <time>2019-12-10T13:46:12Z</time>
      </trkpt>
      <trkpt lat="43.54108" lon="6.77689">
        <ele>56.9</ele>
        <time>2019-12-10T13:46:14Z</time>
      </trkpt>
      <trkpt lat="43.54117" lon="6.7769">
        <ele>57.3</ele>
        <time>2019-12-10T13:46:16Z</time>
      </trkpt>
      <trkpt lat="43.54124" lon="6.77692">
        <ele>58.3</ele>
        <time>2019-12-10T13:46:18Z</time>
      </trkpt>
      <trkpt lat="43.54131" lon="6.77694">
        <ele>59.3</ele>
        <time>2019-12-10T13:46:20Z</time>
      </trkpt>
      <trkpt lat="43.54137" lon="6.77697">
        <ele>59.3</ele>
        <time>2019-12-10T13:46:22Z</time>
      </trkpt>
      <trkpt lat="43.54142" lon="6.77701">
        <ele>59.7</ele>
        <time>2019-12-10T13:46:24Z</time>
      </trkpt>
      <trkpt lat="43.54146" lon="6.77706">
        <ele>60.2</ele>
        <time>2019-12-10T13:46:26Z</time>
      </trkpt>
      <trkpt lat="43.54149" lon="6.77711">
        <ele>60.2</ele>
        <time>2019-12-10T13:46:28Z</time>
      </trkpt>
      <trkpt lat="43.54152" lon="6.77714">
        <ele>61.2</ele>
        <time>2019-12-10T13:46:30Z</time>
      </trkpt>
      <trkpt lat="43.54155" lon="6.77716">
        <ele>62.1</ele>
        <time>2019-12-10T13:46:32Z</time>
      </trkpt>
      <trkpt lat="43.54156" lon="6.77716">
        <ele>63.1</ele>
        <time>2019-12-10T13:46:34Z</time>
      </trkpt>
      <trkpt lat="43.54156" lon="6.77717">
        <ele>63.1</ele>
        <time>2019-12-10T13:46:36Z</time>
      </trkpt>
      <trkpt lat="43.54156" lon="6.77718">
        <ele>63.1</ele>
        <time>2019-12-10T13:46:38Z</time>
      </trkpt>
      <trkpt lat="43.54156" lon="6.77719">
        <ele>63.1</ele>
        <time>2019-12-10T13:46:40Z</time>
      </trkpt>
      <trkpt lat="43.54157" lon="6.77719">
        <ele>63.6</ele>
        <time>2019-12-10T13:46:42Z</time>
      </trkpt>
      <trkpt lat="43.54158" lon="6.7772">
        <ele>63.6</ele>
        <time>2019-12-10T13:46:44Z</time>
      </trkpt>
      <trkpt lat="43.54158" lon="6.77721">
        <ele>63.6</ele>
        <time>2019-12-10T13:46:46Z</time>
      </trkpt>
      <trkpt lat="43.54158" lon="6.77721">
        <ele>63.6</ele>
        <time>2019-12-10T13:46:48Z</time>
      </trkpt>
      <trkpt lat="43.54158" lon="6.77721">
        <ele>63.6</ele>
        <time>2019-12-10T13:46:50Z</time>
      </trkpt>
      <trkpt lat="43.54161" lon="6.77721">
        <ele>63.6</ele>
        <time>2019-12-10T13:46:52Z</time>
      </trkpt>
      <trkpt lat="43.54165" lon="6.77721">
        <ele>64.1</ele>
        <time>2019-12-10T13:46:54Z</time>
      </trkpt>
      <trkpt lat="43.5417" lon="6.77719">
        <ele>64.1</ele>
        <time>2019-12-10T13:46:56Z</time>
      </trkpt>
      <trkpt lat="43.54175" lon="6.77718">
        <ele>64.5</ele>
        <time>2019-12-10T13:46:58Z</time>
      </trkpt>
      <trkpt lat="43.54179" lon="6.77716">
        <ele>64.5</ele>
        <time>2019-12-10T13:47:00Z</time>
      </trkpt>
      <trkpt lat="43.54183" lon="6.77714">
        <ele>64.5</ele>
        <time>2019-12-10T13:47:02Z</time>
      </trkpt>
      <trkpt lat="43.54188" lon="6.77712">
        <ele>64.5</ele>
        <time>2019-12-10T13:47:04Z</time>
      </trkpt>
      <trkpt lat="43.54193" lon="6.7771">
        <ele>64.5</ele>
        <time>2019-12-10T13:47:06Z</time>
      </trkpt>
      <trkpt lat="43.54199" lon="6.77708">
        <ele>64.5</ele>
        <time>2019-12-10T13:47:08Z</time>
      </trkpt>
      <trkpt lat="43.54204" lon="6.77708">
        <ele>64.5</ele>
        <time>2019-12-10T13:47:10Z</time>
      </trkpt>
      <trkpt lat="43.5421" lon="6.7771">
        <ele>65</ele>
        <time>2019-12-10T13:47:12Z</time>
      </trkpt>
      <trkpt lat="43.54215" lon="6.77715">
        <ele>65.5</ele>
        <time>2019-12-10T13:47:14Z</time>
      </trkpt>
      <trkpt lat="43.5422" lon="6.77718">
        <ele>66</ele>
        <time>2019-12-10T13:47:16Z</time>
      </trkpt>
      <trkpt lat="43.54224" lon="6.77718">
        <ele>66</ele>
        <time>2019-12-10T13:47:18Z</time>
      </trkpt>
      <trkpt lat="43.54228" lon="6.77717">
        <ele>66.9</ele>
        <time>2019-12-10T13:47:20Z</time>
      </trkpt>
      <trkpt lat="43.54232" lon="6.77716">
        <ele>67.4</ele>
        <time>2019-12-10T13:47:22Z</time>
      </trkpt>
      <trkpt lat="43.54235" lon="6.77716">
        <ele>67.9</ele>
        <time>2019-12-10T13:47:24Z</time>
      </trkpt>
      <trkpt lat="43.54239" lon="6.77718">
        <ele>68.4</ele>
        <time>2019-12-10T13:47:26Z</time>
      </trkpt>
      <trkpt lat="43.54242" lon="6.77718">
        <ele>68.9</ele>
        <time>2019-12-10T13:47:28Z</time>
      </trkpt>
      <trkpt lat="43.54246" lon="6.77719">
        <ele>68.9</ele>
        <time>2019-12-10T13:47:30Z</time>
      </trkpt>
      <trkpt lat="43.54249" lon="6.7772">
        <ele>68.9</ele>
        <time>2019-12-10T13:47:32Z</time>
      </trkpt>
      <trkpt lat="43.54253" lon="6.7772">
        <ele>69.4</ele>
        <time>2019-12-10T13:47:34Z</time>
      </trkpt>
      <trkpt lat="43.54256" lon="6.7772">
        <ele>69.4</ele>
        <time>2019-12-10T13:47:36Z</time>
      </trkpt>
      <trkpt lat="43.5426" lon="6.77719">
        <ele>69.4</ele>
        <time>2019-12-10T13:47:38Z</time>
      </trkpt>
      <trkpt lat="43.54263" lon="6.77718">
        <ele>69.4</ele>
        <time>2019-12-10T13:47:40Z</time>
      </trkpt>
      <trkpt lat="43.54266" lon="6.77718">
        <ele>69.8</ele>
        <time>2019-12-10T13:47:42Z</time>
      </trkpt>
      <trkpt lat="43.5427" lon="6.77718">
        <ele>71.3</ele>
        <time>2019-12-10T13:47:44Z</time>
      </trkpt>
      <trkpt lat="43.54273" lon="6.77718">
        <ele>72.7</ele>
        <time>2019-12-10T13:47:46Z</time>
      </trkpt>
      <trkpt lat="43.54275" lon="6.77719">
        <ele>73.7</ele>
        <time>2019-12-10T13:47:48Z</time>
      </trkpt>
      <trkpt lat="43.54278" lon="6.77718">
        <ele>74.6</ele>
        <time>2019-12-10T13:47:50Z</time>
      </trkpt>
      <trkpt lat="43.54281" lon="6.77718">
        <ele>76.1</ele>
        <time>2019-12-10T13:47:52Z</time>
      </trkpt>
      <trkpt lat="43.54284" lon="6.7772">
        <ele>77</ele>
        <time>2019-12-10T13:47:54Z</time>
      </trkpt>
      <trkpt lat="43.54288" lon="6.77722">
        <ele>78</ele>
        <time>2019-12-10T13:47:56Z</time>
      </trkpt>
      <trkpt lat="43.54291" lon="6.77725">
        <ele>79</ele>
        <time>2019-12-10T13:47:58Z</time>
      </trkpt>
      <trkpt lat="43.54294" lon="6.77728">
        <ele>79.9</ele>
        <time>2019-12-10T13:48:00Z</time>
      </trkpt>
      <trkpt lat="43.54297" lon="6.77732">
        <ele>80.9</ele>
        <time>2019-12-10T13:48:02Z</time>
      </trkpt>
      <trkpt lat="43.543" lon="6.77735">
        <ele>81.8</ele>
        <time>2019-12-10T13:48:04Z</time>
      </trkpt>
      <trkpt lat="43.54303" lon="6.77738">
        <ele>81.8</ele>
        <time>2019-12-10T13:48:06Z</time>
      </trkpt>
      <trkpt lat="43.54309" lon="6.77739">
        <ele>82.8</ele>
        <time>2019-12-10T13:48:08Z</time>
      </trkpt>
      <trkpt lat="43.54313" lon="6.7774">
        <ele>82.8</ele>
        <time>2019-12-10T13:48:10Z</time>
      </trkpt>
      <trkpt lat="43.54316" lon="6.77742">
        <ele>83.3</ele>
        <time>2019-12-10T13:48:12Z</time>
      </trkpt>
      <trkpt lat="43.54319" lon="6.77744">
        <ele>83.8</ele>
        <time>2019-12-10T13:48:14Z</time>
      </trkpt>
      <trkpt lat="43.54321" lon="6.77748">
        <ele>84.3</ele>
        <time>2019-12-10T13:48:16Z</time>
      </trkpt>
      <trkpt lat="43.54323" lon="6.7775">
        <ele>84.7</ele>
        <time>2019-12-10T13:48:18Z</time>
      </trkpt>
      <trkpt lat="43.54326" lon="6.77754">
        <ele>85.2</ele>
        <time>2019-12-10T13:48:20Z</time>
      </trkpt>
      <trkpt lat="43.54328" lon="6.77756">
        <ele>85.7</ele>
        <time>2019-12-10T13:48:22Z</time>
      </trkpt>
      <trkpt lat="43.54331" lon="6.77758">
        <ele>85.7</ele>
        <time>2019-12-10T13:48:24Z</time>
      </trkpt>
      <trkpt lat="43.54331" lon="6.7776">
        <ele>85.7</ele>
        <time>2019-12-10T13:48:26Z</time>
      </trkpt>
      <trkpt lat="43.54331" lon="6.77761">
        <ele>85.2</ele>
        <time>2019-12-10T13:48:28Z</time>
      </trkpt>
      <trkpt lat="43.54332" lon="6.77761">
        <ele>85.7</ele>
        <time>2019-12-10T13:48:30Z</time>
      </trkpt>
      <trkpt lat="43.54332" lon="6.77761">
        <ele>85.7</ele>
        <time>2019-12-10T13:48:32Z</time>
      </trkpt>
      <trkpt lat="43.54332" lon="6.7776">
        <ele>85.7</ele>
        <time>2019-12-10T13:48:34Z</time>
      </trkpt>
      <trkpt lat="43.54332" lon="6.7776">
        <ele>85.2</ele>
        <time>2019-12-10T13:48:36Z</time>
      </trkpt>
      <trkpt lat="43.54333" lon="6.77759">
        <ele>85.2</ele>
        <time>2019-12-10T13:48:38Z</time>
      </trkpt>
      <trkpt lat="43.54333" lon="6.77759">
        <ele>85.2</ele>
        <time>2019-12-10T13:48:40Z</time>
      </trkpt>
      <trkpt lat="43.54334" lon="6.77761">
        <ele>85.2</ele>
        <time>2019-12-10T13:48:42Z</time>
      </trkpt>
      <trkpt lat="43.54334" lon="6.77762">
        <ele>84.7</ele>
        <time>2019-12-10T13:48:44Z</time>
      </trkpt>
      <trkpt lat="43.54335" lon="6.77763">
        <ele>84.7</ele>
        <time>2019-12-10T13:48:46Z</time>
      </trkpt>
      <trkpt lat="43.54334" lon="6.77762">
        <ele>84.3</ele>
        <time>2019-12-10T13:48:48Z</time>
      </trkpt>
      <trkpt lat="43.54334" lon="6.77762">
        <ele>83.8</ele>
        <time>2019-12-10T13:48:50Z</time>
      </trkpt>
      <trkpt lat="43.54334" lon="6.77762">
        <ele>83.8</ele>
        <time>2019-12-10T13:48:52Z</time>
      </trkpt>
      <trkpt lat="43.54334" lon="6.77762">
        <ele>83.8</ele>
        <time>2019-12-10T13:48:54Z</time>
      </trkpt>
      <trkpt lat="43.54333" lon="6.77762">
        <ele>83.3</ele>
        <time>2019-12-10T13:48:56Z</time>
      </trkpt>
      <trkpt lat="43.54334" lon="6.77762">
        <ele>83.3</ele>
        <time>2019-12-10T13:48:58Z</time>
      </trkpt>
      <trkpt lat="43.54336" lon="6.77762">
        <ele>83.3</ele>
        <time>2019-12-10T13:49:00Z</time>
      </trkpt>
      <trkpt lat="43.54339" lon="6.77765">
        <ele>83.3</ele>
        <time>2019-12-10T13:49:02Z</time>
      </trkpt>
      <trkpt lat="43.54342" lon="6.77768">
        <ele>82.8</ele>
        <time>2019-12-10T13:49:04Z</time>
      </trkpt>
      <trkpt lat="43.54346" lon="6.77767">
        <ele>82.3</ele>
        <time>2019-12-10T13:49:06Z</time>
      </trkpt>
      <trkpt lat="43.54349" lon="6.77767">
        <ele>81.8</ele>
        <time>2019-12-10T13:49:08Z</time>
      </trkpt>
      <trkpt lat="43.54353" lon="6.77767">
        <ele>81.4</ele>
        <time>2019-12-10T13:49:10Z</time>
      </trkpt>
      <trkpt lat="43.54357" lon="6.77768">
        <ele>80.9</ele>
        <time>2019-12-10T13:49:12Z</time>
      </trkpt>
      <trkpt lat="43.5436" lon="6.77768">
        <ele>80.4</ele>
        <time>2019-12-10T13:49:14Z</time>
      </trkpt>
      <trkpt lat="43.54365" lon="6.77769">
        <ele>79.9</ele>
        <time>2019-12-10T13:49:16Z</time>
      </trkpt>
      <trkpt lat="43.54369" lon="6.77768">
        <ele>79.9</ele>
        <time>2019-12-10T13:49:18Z</time>
      </trkpt>
      <trkpt lat="43.54372" lon="6.77767">
        <ele>79.4</ele>
        <time>2019-12-10T13:49:20Z</time>
      </trkpt>
      <trkpt lat="43.54377" lon="6.77768">
        <ele>79.4</ele>
        <time>2019-12-10T13:49:22Z</time>
      </trkpt>
      <trkpt lat="43.54381" lon="6.77769">
        <ele>79</ele>
        <time>2019-12-10T13:49:24Z</time>
      </trkpt>
      <trkpt lat="43.54384" lon="6.77769">
        <ele>78.5</ele>
        <time>2019-12-10T13:49:26Z</time>
      </trkpt>
      <trkpt lat="43.54388" lon="6.77767">
        <ele>78.5</ele>
        <time>2019-12-10T13:49:28Z</time>
      </trkpt>
      <trkpt lat="43.54392" lon="6.77767">
        <ele>78</ele>
        <time>2019-12-10T13:49:30Z</time>
      </trkpt>
      <trkpt lat="43.54396" lon="6.77767">
        <ele>77.5</ele>
        <time>2019-12-10T13:49:32Z</time>
      </trkpt>
      <trkpt lat="43.544" lon="6.77767">
        <ele>77</ele>
        <time>2019-12-10T13:49:34Z</time>
      </trkpt>
      <trkpt lat="43.54403" lon="6.77766">
        <ele>76.6</ele>
        <time>2019-12-10T13:49:36Z</time>
      </trkpt>
      <trkpt lat="43.54407" lon="6.77767">
        <ele>77</ele>
        <time>2019-12-10T13:49:38Z</time>
      </trkpt>
      <trkpt lat="43.5441" lon="6.77766">
        <ele>76.6</ele>
        <time>2019-12-10T13:49:40Z</time>
      </trkpt>
      <trkpt lat="43.54414" lon="6.77767">
        <ele>77</ele>
        <time>2019-12-10T13:49:42Z</time>
      </trkpt>
      <trkpt lat="43.54418" lon="6.77769">
        <ele>77.5</ele>
        <time>2019-12-10T13:49:44Z</time>
      </trkpt>
      <trkpt lat="43.54422" lon="6.7777">
        <ele>77.5</ele>
        <time>2019-12-10T13:49:46Z</time>
      </trkpt>
      <trkpt lat="43.54426" lon="6.77768">
        <ele>78</ele>
        <time>2019-12-10T13:49:48Z</time>
      </trkpt>
      <trkpt lat="43.5443" lon="6.77768">
        <ele>78.5</ele>
        <time>2019-12-10T13:49:50Z</time>
      </trkpt>
      <trkpt lat="43.54435" lon="6.77768">
        <ele>78.5</ele>
        <time>2019-12-10T13:49:52Z</time>
      </trkpt>
      <trkpt lat="43.54439" lon="6.77768">
        <ele>79</ele>
        <time>2019-12-10T13:49:54Z</time>
      </trkpt>
      <trkpt lat="43.54444" lon="6.77766">
        <ele>78.5</ele>
        <time>2019-12-10T13:49:56Z</time>
      </trkpt>
      <trkpt lat="43.54449" lon="6.77765">
        <ele>79</ele>
        <time>2019-12-10T13:49:58Z</time>
      </trkpt>
      <trkpt lat="43.54454" lon="6.77763">
        <ele>78.5</ele>
        <time>2019-12-10T13:50:00Z</time>
      </trkpt>
      <trkpt lat="43.54459" lon="6.77762">
        <ele>78.5</ele>
        <time>2019-12-10T13:50:02Z</time>
      </trkpt>
      <trkpt lat="43.54463" lon="6.77761">
        <ele>79</ele>
        <time>2019-12-10T13:50:04Z</time>
      </trkpt>
      <trkpt lat="43.54468" lon="6.77761">
        <ele>78.5</ele>
        <time>2019-12-10T13:50:06Z</time>
      </trkpt>
      <trkpt lat="43.54473" lon="6.77761">
        <ele>79</ele>
        <time>2019-12-10T13:50:08Z</time>
      </trkpt>
      <trkpt lat="43.54477" lon="6.7776">
        <ele>79</ele>
        <time>2019-12-10T13:50:10Z</time>
      </trkpt>
      <trkpt lat="43.5448" lon="6.7776">
        <ele>79</ele>
        <time>2019-12-10T13:50:12Z</time>
      </trkpt>
      <trkpt lat="43.54484" lon="6.7776">
        <ele>79.4</ele>
        <time>2019-12-10T13:50:14Z</time>
      </trkpt>
      <trkpt lat="43.54489" lon="6.77762">
        <ele>79.4</ele>
        <time>2019-12-10T13:50:16Z</time>
      </trkpt>
      <trkpt lat="43.54494" lon="6.77765">
        <ele>79.4</ele>
        <time>2019-12-10T13:50:18Z</time>
      </trkpt>
      <trkpt lat="43.54498" lon="6.77767">
        <ele>80.4</ele>
        <time>2019-12-10T13:50:20Z</time>
      </trkpt>
      <trkpt lat="43.54503" lon="6.77769">
        <ele>81.4</ele>
        <time>2019-12-10T13:50:22Z</time>
      </trkpt>
      <trkpt lat="43.54508" lon="6.7777">
        <ele>81.8</ele>
        <time>2019-12-10T13:50:24Z</time>
      </trkpt>
      <trkpt lat="43.54513" lon="6.77771">
        <ele>81.8</ele>
        <time>2019-12-10T13:50:26Z</time>
      </trkpt>
      <trkpt lat="43.54518" lon="6.77772">
        <ele>81.8</ele>
        <time>2019-12-10T13:50:28Z</time>
      </trkpt>
      <trkpt lat="43.54522" lon="6.77773">
        <ele>82.3</ele>
        <time>2019-12-10T13:50:30Z</time>
      </trkpt>
      <trkpt lat="43.54527" lon="6.77774">
        <ele>82.8</ele>
        <time>2019-12-10T13:50:32Z</time>
      </trkpt>
      <trkpt lat="43.54531" lon="6.77776">
        <ele>82.8</ele>
        <time>2019-12-10T13:50:34Z</time>
      </trkpt>
      <trkpt lat="43.54534" lon="6.77777">
        <ele>82.8</ele>
        <time>2019-12-10T13:50:36Z</time>
      </trkpt>
      <trkpt lat="43.54537" lon="6.77779">
        <ele>82.3</ele>
        <time>2019-12-10T13:50:38Z</time>
      </trkpt>
      <trkpt lat="43.54542" lon="6.77782">
        <ele>82.3</ele>
        <time>2019-12-10T13:50:40Z</time>
      </trkpt>
      <trkpt lat="43.54546" lon="6.77785">
        <ele>81.8</ele>
        <time>2019-12-10T13:50:42Z</time>
      </trkpt>
      <trkpt lat="43.5455" lon="6.77788">
        <ele>81.8</ele>
        <time>2019-12-10T13:50:44Z</time>
      </trkpt>
      <trkpt lat="43.54555" lon="6.7779">
        <ele>81.8</ele>
        <time>2019-12-10T13:50:46Z</time>
      </trkpt>
      <trkpt lat="43.54559" lon="6.77793">
        <ele>81.8</ele>
        <time>2019-12-10T13:50:48Z</time>
      </trkpt>
      <trkpt lat="43.54564" lon="6.77795">
        <ele>82.3</ele>
        <time>2019-12-10T13:50:50Z</time>
      </trkpt>
      <trkpt lat="43.54568" lon="6.77797">
        <ele>82.3</ele>
        <time>2019-12-10T13:50:52Z</time>
      </trkpt>
      <trkpt lat="43.54572" lon="6.77799">
        <ele>82.3</ele>
        <time>2019-12-10T13:50:54Z</time>
      </trkpt>
      <trkpt lat="43.54575" lon="6.77802">
        <ele>82.3</ele>
        <time>2019-12-10T13:50:56Z</time>
      </trkpt>
      <trkpt lat="43.54579" lon="6.77805">
        <ele>82.3</ele>
        <time>2019-12-10T13:50:58Z</time>
      </trkpt>
      <trkpt lat="43.54583" lon="6.77808">
        <ele>82.3</ele>
        <time>2019-12-10T13:51:00Z</time>
      </trkpt>
      <trkpt lat="43.54587" lon="6.77811">
        <ele>82.3</ele>
        <time>2019-12-10T13:51:02Z</time>
      </trkpt>
      <trkpt lat="43.54591" lon="6.77813">
        <ele>81.8</ele>
        <time>2019-12-10T13:51:04Z</time>
      </trkpt>
      <trkpt lat="43.54595" lon="6.77815">
        <ele>81.8</ele>
        <time>2019-12-10T13:51:06Z</time>
      </trkpt>
      <trkpt lat="43.546" lon="6.77818">
        <ele>81.8</ele>
        <time>2019-12-10T13:51:08Z</time>
      </trkpt>
      <trkpt lat="43.54604" lon="6.77822">
        <ele>81.8</ele>
        <time>2019-12-10T13:51:10Z</time>
      </trkpt>
      <trkpt lat="43.54609" lon="6.77826">
        <ele>81.8</ele>
        <time>2019-12-10T13:51:12Z</time>
      </trkpt>
      <trkpt lat="43.54614" lon="6.77828">
        <ele>81.8</ele>
        <time>2019-12-10T13:51:14Z</time>
      </trkpt>
      <trkpt lat="43.54618" lon="6.77831">
        <ele>81.8</ele>
        <time>2019-12-10T13:51:16Z</time>
      </trkpt>
      <trkpt lat="43.54623" lon="6.77836">
        <ele>81.8</ele>
        <time>2019-12-10T13:51:18Z</time>
      </trkpt>
      <trkpt lat="43.54626" lon="6.77838">
        <ele>81.8</ele>
        <time>2019-12-10T13:51:20Z</time>
      </trkpt>
      <trkpt lat="43.5463" lon="6.77839">
        <ele>81.8</ele>
        <time>2019-12-10T13:51:22Z</time>
      </trkpt>
      <trkpt lat="43.54635" lon="6.77842">
        <ele>81.8</ele>
        <time>2019-12-10T13:51:24Z</time>
      </trkpt>
      <trkpt lat="43.54639" lon="6.77845">
        <ele>81.8</ele>
        <time>2019-12-10T13:51:26Z</time>
      </trkpt>
      <trkpt lat="43.54643" lon="6.77847">
        <ele>81.8</ele>
        <time>2019-12-10T13:51:28Z</time>
      </trkpt>
      <trkpt lat="43.54647" lon="6.77852">
        <ele>82.3</ele>
        <time>2019-12-10T13:51:30Z</time>
      </trkpt>
      <trkpt lat="43.54652" lon="6.77856">
        <ele>82.3</ele>
        <time>2019-12-10T13:51:32Z</time>
      </trkpt>
      <trkpt lat="43.54657" lon="6.7786">
        <ele>82.3</ele>
        <time>2019-12-10T13:51:34Z</time>
      </trkpt>
      <trkpt lat="43.54662" lon="6.77863">
        <ele>82.3</ele>
        <time>2019-12-10T13:51:36Z</time>
      </trkpt>
      <trkpt lat="43.54666" lon="6.77867">
        <ele>82.3</ele>
        <time>2019-12-10T13:51:38Z</time>
      </trkpt>
      <trkpt lat="43.54671" lon="6.77871">
        <ele>82.8</ele>
        <time>2019-12-10T13:51:40Z</time>
      </trkpt>
      <trkpt lat="43.54675" lon="6.77875">
        <ele>82.8</ele>
        <time>2019-12-10T13:51:42Z</time>
      </trkpt>
      <trkpt lat="43.5468" lon="6.77879">
        <ele>83.3</ele>
        <time>2019-12-10T13:51:44Z</time>
      </trkpt>
      <trkpt lat="43.54684" lon="6.77885">
        <ele>83.3</ele>
        <time>2019-12-10T13:51:46Z</time>
      </trkpt>
      <trkpt lat="43.54688" lon="6.77891">
        <ele>83.8</ele>
        <time>2019-12-10T13:51:48Z</time>
      </trkpt>
      <trkpt lat="43.54691" lon="6.77898">
        <ele>83.8</ele>
        <time>2019-12-10T13:51:50Z</time>
      </trkpt>
      <trkpt lat="43.54694" lon="6.77905">
        <ele>83.8</ele>
        <time>2019-12-10T13:51:52Z</time>
      </trkpt>
      <trkpt lat="43.54696" lon="6.7791">
        <ele>84.3</ele>
        <time>2019-12-10T13:51:54Z</time>
      </trkpt>
      <trkpt lat="43.54696" lon="6.77917">
        <ele>84.3</ele>
        <time>2019-12-10T13:51:56Z</time>
      </trkpt>
      <trkpt lat="43.54697" lon="6.77925">
        <ele>84.7</ele>
        <time>2019-12-10T13:51:58Z</time>
      </trkpt>
      <trkpt lat="43.54699" lon="6.7793">
        <ele>85.2</ele>
        <time>2019-12-10T13:52:00Z</time>
      </trkpt>
      <trkpt lat="43.54702" lon="6.77936">
        <ele>85.2</ele>
        <time>2019-12-10T13:52:02Z</time>
      </trkpt>
      <trkpt lat="43.54706" lon="6.77943">
        <ele>85.2</ele>
        <time>2019-12-10T13:52:04Z</time>
      </trkpt>
      <trkpt lat="43.5471" lon="6.77949">
        <ele>85.2</ele>
        <time>2019-12-10T13:52:06Z</time>
      </trkpt>
      <trkpt lat="43.54713" lon="6.77956">
        <ele>85.2</ele>
        <time>2019-12-10T13:52:08Z</time>
      </trkpt>
      <trkpt lat="43.54717" lon="6.77962">
        <ele>85.2</ele>
        <time>2019-12-10T13:52:10Z</time>
      </trkpt>
      <trkpt lat="43.54721" lon="6.77967">
        <ele>85.2</ele>
        <time>2019-12-10T13:52:12Z</time>
      </trkpt>
      <trkpt lat="43.54724" lon="6.77974">
        <ele>85.2</ele>
        <time>2019-12-10T13:52:14Z</time>
      </trkpt>
      <trkpt lat="43.54727" lon="6.77979">
        <ele>85.2</ele>
        <time>2019-12-10T13:52:16Z</time>
      </trkpt>
      <trkpt lat="43.54729" lon="6.77984">
        <ele>85.7</ele>
        <time>2019-12-10T13:52:18Z</time>
      </trkpt>
      <trkpt lat="43.54732" lon="6.77989">
        <ele>86.2</ele>
        <time>2019-12-10T13:52:20Z</time>
      </trkpt>
      <trkpt lat="43.54736" lon="6.77995">
        <ele>86.2</ele>
        <time>2019-12-10T13:52:22Z</time>
      </trkpt>
      <trkpt lat="43.5474" lon="6.78001">
        <ele>86.2</ele>
        <time>2019-12-10T13:52:24Z</time>
      </trkpt>
      <trkpt lat="43.54744" lon="6.78007">
        <ele>86.7</ele>
        <time>2019-12-10T13:52:26Z</time>
      </trkpt>
      <trkpt lat="43.54747" lon="6.78012">
        <ele>86.7</ele>
        <time>2019-12-10T13:52:28Z</time>
      </trkpt>
      <trkpt lat="43.54751" lon="6.78018">
        <ele>86.7</ele>
        <time>2019-12-10T13:52:30Z</time>
      </trkpt>
      <trkpt lat="43.54755" lon="6.78023">
        <ele>86.7</ele>
        <time>2019-12-10T13:52:32Z</time>
      </trkpt>
      <trkpt lat="43.54758" lon="6.78028">
        <ele>87.1</ele>
        <time>2019-12-10T13:52:34Z</time>
      </trkpt>
      <trkpt lat="43.54762" lon="6.78033">
        <ele>87.1</ele>
        <time>2019-12-10T13:52:36Z</time>
      </trkpt>
      <trkpt lat="43.54766" lon="6.78037">
        <ele>87.6</ele>
        <time>2019-12-10T13:52:38Z</time>
      </trkpt>
      <trkpt lat="43.54771" lon="6.78041">
        <ele>87.6</ele>
        <time>2019-12-10T13:52:40Z</time>
      </trkpt>
      <trkpt lat="43.54774" lon="6.78046">
        <ele>88.1</ele>
        <time>2019-12-10T13:52:42Z</time>
      </trkpt>
      <trkpt lat="43.54779" lon="6.7805">
        <ele>88.1</ele>
        <time>2019-12-10T13:52:44Z</time>
      </trkpt>
      <trkpt lat="43.54783" lon="6.78054">
        <ele>88.1</ele>
        <time>2019-12-10T13:52:46Z</time>
      </trkpt>
      <trkpt lat="43.54787" lon="6.78058">
        <ele>88.6</ele>
        <time>2019-12-10T13:52:48Z</time>
      </trkpt>
      <trkpt lat="43.54791" lon="6.78063">
        <ele>89.1</ele>
        <time>2019-12-10T13:52:50Z</time>
      </trkpt>
      <trkpt lat="43.54797" lon="6.78069">
        <ele>89.1</ele>
        <time>2019-12-10T13:52:52Z</time>
      </trkpt>
      <trkpt lat="43.54801" lon="6.78074">
        <ele>89.5</ele>
        <time>2019-12-10T13:52:54Z</time>
      </trkpt>
      <trkpt lat="43.54803" lon="6.78077">
        <ele>90.5</ele>
        <time>2019-12-10T13:52:56Z</time>
      </trkpt>
      <trkpt lat="43.54807" lon="6.78081">
        <ele>90.5</ele>
        <time>2019-12-10T13:52:58Z</time>
      </trkpt>
      <trkpt lat="43.54811" lon="6.78086">
        <ele>90.5</ele>
        <time>2019-12-10T13:53:00Z</time>
      </trkpt>
      <trkpt lat="43.54815" lon="6.7809">
        <ele>90.5</ele>
        <time>2019-12-10T13:53:02Z</time>
      </trkpt>
      <trkpt lat="43.5482" lon="6.78093">
        <ele>91</ele>
        <time>2019-12-10T13:53:04Z</time>
      </trkpt>
      <trkpt lat="43.54825" lon="6.78097">
        <ele>91.5</ele>
        <time>2019-12-10T13:53:06Z</time>
      </trkpt>
      <trkpt lat="43.54829" lon="6.78101">
        <ele>91.9</ele>
        <time>2019-12-10T13:53:08Z</time>
      </trkpt>
      <trkpt lat="43.54833" lon="6.78106">
        <ele>91.9</ele>
        <time>2019-12-10T13:53:10Z</time>
      </trkpt>
      <trkpt lat="43.54838" lon="6.7811">
        <ele>92.4</ele>
        <time>2019-12-10T13:53:12Z</time>
      </trkpt>
      <trkpt lat="43.54843" lon="6.78113">
        <ele>92.9</ele>
        <time>2019-12-10T13:53:14Z</time>
      </trkpt>
      <trkpt lat="43.54849" lon="6.78116">
        <ele>92.9</ele>
        <time>2019-12-10T13:53:16Z</time>
      </trkpt>
      <trkpt lat="43.54854" lon="6.78119">
        <ele>93.4</ele>
        <time>2019-12-10T13:53:18Z</time>
      </trkpt>
      <trkpt lat="43.54859" lon="6.78122">
        <ele>93.4</ele>
        <time>2019-12-10T13:53:20Z</time>
      </trkpt>
      <trkpt lat="43.54864" lon="6.78124">
        <ele>93.9</ele>
        <time>2019-12-10T13:53:22Z</time>
      </trkpt>
      <trkpt lat="43.54869" lon="6.78127">
        <ele>93.9</ele>
        <time>2019-12-10T13:53:24Z</time>
      </trkpt>
      <trkpt lat="43.54875" lon="6.7813">
        <ele>94.3</ele>
        <time>2019-12-10T13:53:26Z</time>
      </trkpt>
      <trkpt lat="43.5488" lon="6.78132">
        <ele>94.8</ele>
        <time>2019-12-10T13:53:28Z</time>
      </trkpt>
      <trkpt lat="43.54885" lon="6.78133">
        <ele>95.3</ele>
        <time>2019-12-10T13:53:30Z</time>
      </trkpt>
      <trkpt lat="43.5489" lon="6.78134">
        <ele>96.3</ele>
        <time>2019-12-10T13:53:32Z</time>
      </trkpt>
      <trkpt lat="43.54894" lon="6.78136">
        <ele>96.7</ele>
        <time>2019-12-10T13:53:34Z</time>
      </trkpt>
      <trkpt lat="43.54899" lon="6.78139">
        <ele>97.7</ele>
        <time>2019-12-10T13:53:36Z</time>
      </trkpt>
      <trkpt lat="43.54905" lon="6.78141">
        <ele>98.7</ele>
        <time>2019-12-10T13:53:38Z</time>
      </trkpt>
      <trkpt lat="43.54912" lon="6.78145">
        <ele>99.2</ele>
        <time>2019-12-10T13:53:40Z</time>
      </trkpt>
      <trkpt lat="43.54916" lon="6.78149">
        <ele>99.2</ele>
        <time>2019-12-10T13:53:42Z</time>
      </trkpt>
      <trkpt lat="43.54919" lon="6.78152">
        <ele>99.6</ele>
        <time>2019-12-10T13:53:44Z</time>
      </trkpt>
      <trkpt lat="43.54922" lon="6.78156">
        <ele>100.1</ele>
        <time>2019-12-10T13:53:46Z</time>
      </trkpt>
      <trkpt lat="43.54925" lon="6.78161">
        <ele>100.6</ele>
        <time>2019-12-10T13:53:48Z</time>
      </trkpt>
      <trkpt lat="43.54929" lon="6.78165">
        <ele>101.1</ele>
        <time>2019-12-10T13:53:50Z</time>
      </trkpt>
      <trkpt lat="43.54933" lon="6.78169">
        <ele>101.1</ele>
        <time>2019-12-10T13:53:52Z</time>
      </trkpt>
      <trkpt lat="43.54937" lon="6.78172">
        <ele>101.6</ele>
        <time>2019-12-10T13:53:54Z</time>
      </trkpt>
      <trkpt lat="43.54941" lon="6.78176">
        <ele>101.6</ele>
        <time>2019-12-10T13:53:56Z</time>
      </trkpt>
      <trkpt lat="43.54945" lon="6.7818">
        <ele>102</ele>
        <time>2019-12-10T13:53:58Z</time>
      </trkpt>
      <trkpt lat="43.54948" lon="6.78186">
        <ele>102.5</ele>
        <time>2019-12-10T13:54:00Z</time>
      </trkpt>
      <trkpt lat="43.54952" lon="6.78191">
        <ele>102.5</ele>
        <time>2019-12-10T13:54:02Z</time>
      </trkpt>
      <trkpt lat="43.54955" lon="6.78196">
        <ele>103</ele>
        <time>2019-12-10T13:54:04Z</time>
      </trkpt>
      <trkpt lat="43.54959" lon="6.78201">
        <ele>103</ele>
        <time>2019-12-10T13:54:06Z</time>
      </trkpt>
      <trkpt lat="43.54962" lon="6.78206">
        <ele>103.5</ele>
        <time>2019-12-10T13:54:08Z</time>
      </trkpt>
      <trkpt lat="43.54964" lon="6.78209">
        <ele>104</ele>
        <time>2019-12-10T13:54:10Z</time>
      </trkpt>
      <trkpt lat="43.54968" lon="6.78214">
        <ele>104</ele>
        <time>2019-12-10T13:54:12Z</time>
      </trkpt>
      <trkpt lat="43.54971" lon="6.78219">
        <ele>104.4</ele>
        <time>2019-12-10T13:54:14Z</time>
      </trkpt>
      <trkpt lat="43.54975" lon="6.78224">
        <ele>104.9</ele>
        <time>2019-12-10T13:54:16Z</time>
      </trkpt>
      <trkpt lat="43.54978" lon="6.78231">
        <ele>104.9</ele>
        <time>2019-12-10T13:54:18Z</time>
      </trkpt>
      <trkpt lat="43.54979" lon="6.78235">
        <ele>104.9</ele>
        <time>2019-12-10T13:54:20Z</time>
      </trkpt>
      <trkpt lat="43.54981" lon="6.78239">
        <ele>104.9</ele>
        <time>2019-12-10T13:54:22Z</time>
      </trkpt>
      <trkpt lat="43.54985" lon="6.78242">
        <ele>104.9</ele>
        <time>2019-12-10T13:54:24Z</time>
      </trkpt>
      <trkpt lat="43.54988" lon="6.78248">
        <ele>104.9</ele>
        <time>2019-12-10T13:54:26Z</time>
      </trkpt>
      <trkpt lat="43.54992" lon="6.78253">
        <ele>105.4</ele>
        <time>2019-12-10T13:54:28Z</time>
      </trkpt>
      <trkpt lat="43.54995" lon="6.78258">
        <ele>105.4</ele>
        <time>2019-12-10T13:54:30Z</time>
      </trkpt>
      <trkpt lat="43.54998" lon="6.78263">
        <ele>105.4</ele>
        <time>2019-12-10T13:54:32Z</time>
      </trkpt>
      <trkpt lat="43.55002" lon="6.78267">
        <ele>104.9</ele>
        <time>2019-12-10T13:54:34Z</time>
      </trkpt>
      <trkpt lat="43.55006" lon="6.7827">
        <ele>104.9</ele>
        <time>2019-12-10T13:54:36Z</time>
      </trkpt>
      <trkpt lat="43.55009" lon="6.78274">
        <ele>104.9</ele>
        <time>2019-12-10T13:54:38Z</time>
      </trkpt>
      <trkpt lat="43.55014" lon="6.78277">
        <ele>105.4</ele>
        <time>2019-12-10T13:54:40Z</time>
      </trkpt>
      <trkpt lat="43.55018" lon="6.7828">
        <ele>105.4</ele>
        <time>2019-12-10T13:54:42Z</time>
      </trkpt>
      <trkpt lat="43.55023" lon="6.78282">
        <ele>105.4</ele>
        <time>2019-12-10T13:54:44Z</time>
      </trkpt>
      <trkpt lat="43.55027" lon="6.78286">
        <ele>105.9</ele>
        <time>2019-12-10T13:54:46Z</time>
      </trkpt>
      <trkpt lat="43.55031" lon="6.78289">
        <ele>105.4</ele>
        <time>2019-12-10T13:54:48Z</time>
      </trkpt>
      <trkpt lat="43.55036" lon="6.78291">
        <ele>105.4</ele>
        <time>2019-12-10T13:54:50Z</time>
      </trkpt>
      <trkpt lat="43.55041" lon="6.78293">
        <ele>105.9</ele>
        <time>2019-12-10T13:54:52Z</time>
      </trkpt>
      <trkpt lat="43.55044" lon="6.78294">
        <ele>105.9</ele>
        <time>2019-12-10T13:54:54Z</time>
      </trkpt>
      <trkpt lat="43.55047" lon="6.78294">
        <ele>105.4</ele>
        <time>2019-12-10T13:54:56Z</time>
      </trkpt>
      <trkpt lat="43.55052" lon="6.78295">
        <ele>105.4</ele>
        <time>2019-12-10T13:54:58Z</time>
      </trkpt>
      <trkpt lat="43.55058" lon="6.78295">
        <ele>105.4</ele>
        <time>2019-12-10T13:55:00Z</time>
      </trkpt>
      <trkpt lat="43.55063" lon="6.78296">
        <ele>105.4</ele>
        <time>2019-12-10T13:55:02Z</time>
      </trkpt>
      <trkpt lat="43.55068" lon="6.783">
        <ele>105.4</ele>
        <time>2019-12-10T13:55:04Z</time>
      </trkpt>
      <trkpt lat="43.55074" lon="6.78302">
        <ele>104.9</ele>
        <time>2019-12-10T13:55:06Z</time>
      </trkpt>
      <trkpt lat="43.55078" lon="6.78302">
        <ele>105.4</ele>
        <time>2019-12-10T13:55:08Z</time>
      </trkpt>
      <trkpt lat="43.55081" lon="6.78304">
        <ele>104.9</ele>
        <time>2019-12-10T13:55:10Z</time>
      </trkpt>
      <trkpt lat="43.55084" lon="6.78307">
        <ele>104.4</ele>
        <time>2019-12-10T13:55:12Z</time>
      </trkpt>
      <trkpt lat="43.55088" lon="6.78309">
        <ele>104.4</ele>
        <time>2019-12-10T13:55:14Z</time>
      </trkpt>
      <trkpt lat="43.55093" lon="6.78311">
        <ele>104.4</ele>
        <time>2019-12-10T13:55:16Z</time>
      </trkpt>
      <trkpt lat="43.55097" lon="6.78313">
        <ele>104</ele>
        <time>2019-12-10T13:55:18Z</time>
      </trkpt>
      <trkpt lat="43.55102" lon="6.78316">
        <ele>104</ele>
        <time>2019-12-10T13:55:20Z</time>
      </trkpt>
      <trkpt lat="43.55106" lon="6.78319">
        <ele>104</ele>
        <time>2019-12-10T13:55:22Z</time>
      </trkpt>
      <trkpt lat="43.5511" lon="6.78322">
        <ele>103.5</ele>
        <time>2019-12-10T13:55:24Z</time>
      </trkpt>
      <trkpt lat="43.55114" lon="6.78326">
        <ele>103.5</ele>
        <time>2019-12-10T13:55:26Z</time>
      </trkpt>
      <trkpt lat="43.55118" lon="6.7833">
        <ele>103</ele>
        <time>2019-12-10T13:55:28Z</time>
      </trkpt>
      <trkpt lat="43.5512" lon="6.78334">
        <ele>103</ele>
        <time>2019-12-10T13:55:30Z</time>
      </trkpt>
      <trkpt lat="43.55122" lon="6.7834">
        <ele>103</ele>
        <time>2019-12-10T13:55:32Z</time>
      </trkpt>
      <trkpt lat="43.55123" lon="6.78347">
        <ele>103.5</ele>
        <time>2019-12-10T13:55:34Z</time>
      </trkpt>
      <trkpt lat="43.55124" lon="6.78356">
        <ele>103.5</ele>
        <time>2019-12-10T13:55:36Z</time>
      </trkpt>
      <trkpt lat="43.55124" lon="6.78363">
        <ele>103.5</ele>
        <time>2019-12-10T13:55:38Z</time>
      </trkpt>
      <trkpt lat="43.55124" lon="6.7837">
        <ele>103</ele>
        <time>2019-12-10T13:55:40Z</time>
      </trkpt>
      <trkpt lat="43.55123" lon="6.78376">
        <ele>102.5</ele>
        <time>2019-12-10T13:55:42Z</time>
      </trkpt>
      <trkpt lat="43.55122" lon="6.78384">
        <ele>102.5</ele>
        <time>2019-12-10T13:55:44Z</time>
      </trkpt>
      <trkpt lat="43.55121" lon="6.7839">
        <ele>102</ele>
        <time>2019-12-10T13:55:46Z</time>
      </trkpt>
      <trkpt lat="43.55119" lon="6.78397">
        <ele>102</ele>
        <time>2019-12-10T13:55:48Z</time>
      </trkpt>
      <trkpt lat="43.55117" lon="6.78404">
        <ele>101.6</ele>
        <time>2019-12-10T13:55:50Z</time>
      </trkpt>
      <trkpt lat="43.55115" lon="6.78411">
        <ele>101.6</ele>
        <time>2019-12-10T13:55:52Z</time>
      </trkpt>
      <trkpt lat="43.55113" lon="6.78418">
        <ele>101.1</ele>
        <time>2019-12-10T13:55:54Z</time>
      </trkpt>
      <trkpt lat="43.55111" lon="6.78425">
        <ele>100.6</ele>
        <time>2019-12-10T13:55:56Z</time>
      </trkpt>
      <trkpt lat="43.55108" lon="6.78431">
        <ele>100.6</ele>
        <time>2019-12-10T13:55:58Z</time>
      </trkpt>
      <trkpt lat="43.55105" lon="6.78437">
        <ele>100.1</ele>
        <time>2019-12-10T13:56:00Z</time>
      </trkpt>
      <trkpt lat="43.55102" lon="6.78444">
        <ele>100.1</ele>
        <time>2019-12-10T13:56:02Z</time>
      </trkpt>
      <trkpt lat="43.55099" lon="6.78448">
        <ele>99.6</ele>
        <time>2019-12-10T13:56:04Z</time>
      </trkpt>
      <trkpt lat="43.55097" lon="6.78452">
        <ele>99.6</ele>
        <time>2019-12-10T13:56:06Z</time>
      </trkpt>
      <trkpt lat="43.55101" lon="6.78457">
        <ele>99.6</ele>
        <time>2019-12-10T13:56:08Z</time>
      </trkpt>
      <trkpt lat="43.55106" lon="6.7846">
        <ele>99.2</ele>
        <time>2019-12-10T13:56:10Z</time>
      </trkpt>
      <trkpt lat="43.55107" lon="6.7846">
        <ele>98.7</ele>
        <time>2019-12-10T13:56:12Z</time>
      </trkpt>
      <trkpt lat="43.55107" lon="6.78461">
        <ele>98.7</ele>
        <time>2019-12-10T13:56:14Z</time>
      </trkpt>
      <trkpt lat="43.55107" lon="6.78462">
        <ele>98.7</ele>
        <time>2019-12-10T13:56:16Z</time>
      </trkpt>
      <trkpt lat="43.55107" lon="6.78462">
        <ele>98.7</ele>
        <time>2019-12-10T13:56:18Z</time>
      </trkpt>
      <trkpt lat="43.55107" lon="6.78462">
        <ele>98.7</ele>
        <time>2019-12-10T13:56:20Z</time>
      </trkpt>
      <trkpt lat="43.55107" lon="6.78462">
        <ele>98.7</ele>
        <time>2019-12-10T13:56:22Z</time>
      </trkpt>
      <trkpt lat="43.55108" lon="6.78458">
        <ele>98.7</ele>
        <time>2019-12-10T13:56:24Z</time>
      </trkpt>
      <trkpt lat="43.55112" lon="6.78454">
        <ele>99.2</ele>
        <time>2019-12-10T13:56:26Z</time>
      </trkpt>
      <trkpt lat="43.55119" lon="6.78446">
        <ele>99.2</ele>
        <time>2019-12-10T13:56:28Z</time>
      </trkpt>
      <trkpt lat="43.55125" lon="6.78435">
        <ele>99.2</ele>
        <time>2019-12-10T13:56:30Z</time>
      </trkpt>
      <trkpt lat="43.55131" lon="6.78422">
        <ele>99.2</ele>
        <time>2019-12-10T13:56:32Z</time>
      </trkpt>
      <trkpt lat="43.55135" lon="6.78407">
        <ele>98.2</ele>
        <time>2019-12-10T13:56:34Z</time>
      </trkpt>
      <trkpt lat="43.55139" lon="6.78393">
        <ele>97.7</ele>
        <time>2019-12-10T13:56:36Z</time>
      </trkpt>
      <trkpt lat="43.55143" lon="6.78381">
        <ele>96.7</ele>
        <time>2019-12-10T13:56:38Z</time>
      </trkpt>
      <trkpt lat="43.55147" lon="6.78371">
        <ele>95.8</ele>
        <time>2019-12-10T13:56:40Z</time>
      </trkpt>
      <trkpt lat="43.55151" lon="6.78358">
        <ele>95.3</ele>
        <time>2019-12-10T13:56:42Z</time>
      </trkpt>
      <trkpt lat="43.55156" lon="6.78343">
        <ele>94.3</ele>
        <time>2019-12-10T13:56:44Z</time>
      </trkpt>
      <trkpt lat="43.55159" lon="6.78326">
        <ele>93.4</ele>
        <time>2019-12-10T13:56:46Z</time>
      </trkpt>
      <trkpt lat="43.55162" lon="6.78309">
        <ele>92.9</ele>
        <time>2019-12-10T13:56:48Z</time>
      </trkpt>
      <trkpt lat="43.55166" lon="6.78294">
        <ele>92.4</ele>
        <time>2019-12-10T13:56:50Z</time>
      </trkpt>
      <trkpt lat="43.5517" lon="6.7828">
        <ele>92.4</ele>
        <time>2019-12-10T13:56:52Z</time>
      </trkpt>
      <trkpt lat="43.55173" lon="6.78267">
        <ele>92.4</ele>
        <time>2019-12-10T13:56:54Z</time>
      </trkpt>
      <trkpt lat="43.55174" lon="6.78254">
        <ele>92.9</ele>
        <time>2019-12-10T13:56:56Z</time>
      </trkpt>
      <trkpt lat="43.55175" lon="6.78246">
        <ele>92.9</ele>
        <time>2019-12-10T13:56:58Z</time>
      </trkpt>
      <trkpt lat="43.55174" lon="6.78238">
        <ele>93.4</ele>
        <time>2019-12-10T13:57:00Z</time>
      </trkpt>
      <trkpt lat="43.55172" lon="6.78231">
        <ele>93.9</ele>
        <time>2019-12-10T13:57:02Z</time>
      </trkpt>
      <trkpt lat="43.55169" lon="6.78224">
        <ele>93.9</ele>
        <time>2019-12-10T13:57:04Z</time>
      </trkpt>
      <trkpt lat="43.5517" lon="6.78218">
        <ele>93.9</ele>
        <time>2019-12-10T13:57:06Z</time>
      </trkpt>
      <trkpt lat="43.55171" lon="6.7821">
        <ele>94.3</ele>
        <time>2019-12-10T13:57:08Z</time>
      </trkpt>
      <trkpt lat="43.55171" lon="6.78201">
        <ele>94.8</ele>
        <time>2019-12-10T13:57:10Z</time>
      </trkpt>
      <trkpt lat="43.55172" lon="6.78193">
        <ele>95.3</ele>
        <time>2019-12-10T13:57:12Z</time>
      </trkpt>
      <trkpt lat="43.55173" lon="6.78185">
        <ele>95.3</ele>
        <time>2019-12-10T13:57:14Z</time>
      </trkpt>
      <trkpt lat="43.55172" lon="6.78179">
        <ele>95.8</ele>
        <time>2019-12-10T13:57:16Z</time>
      </trkpt>
      <trkpt lat="43.55172" lon="6.78175">
        <ele>95.8</ele>
        <time>2019-12-10T13:57:18Z</time>
      </trkpt>
      <trkpt lat="43.55173" lon="6.78175">
        <ele>96.3</ele>
        <time>2019-12-10T13:57:20Z</time>
      </trkpt>
      <trkpt lat="43.55173" lon="6.78175">
        <ele>96.3</ele>
        <time>2019-12-10T13:57:22Z</time>
      </trkpt>
      <trkpt lat="43.55173" lon="6.78176">
        <ele>96.3</ele>
        <time>2019-12-10T13:57:24Z</time>
      </trkpt>
      <trkpt lat="43.55173" lon="6.78176">
        <ele>96.3</ele>
        <time>2019-12-10T13:57:26Z</time>
      </trkpt>
      <trkpt lat="43.55173" lon="6.78176">
        <ele>96.3</ele>
        <time>2019-12-10T13:57:28Z</time>
      </trkpt>
      <trkpt lat="43.55173" lon="6.78176">
        <ele>96.3</ele>
        <time>2019-12-10T13:57:30Z</time>
      </trkpt>
      <trkpt lat="43.55173" lon="6.78176">
        <ele>96.3</ele>
        <time>2019-12-10T13:57:32Z</time>
      </trkpt>
      <trkpt lat="43.55173" lon="6.78176">
        <ele>96.3</ele>
        <time>2019-12-10T13:57:34Z</time>
      </trkpt>
      <trkpt lat="43.55173" lon="6.78176">
        <ele>96.3</ele>
        <time>2019-12-10T13:57:36Z</time>
      </trkpt>
    </trkseg>
  </trk>
</gpx>